<?xml version="1.0" encoding="UTF-8" standalone="no" ?>
<gpx xmlns="http://www.topografix.com/GPX/1/1" xmlns:xsi="http://www.w3.org/2001/XMLSchema-instance" xsi:schemaLocation="http://www.topografix.com/GPX/1/1 http://www.topografix.com/GPX/1/1/gpx.xsd" version="1.1" creator="VisuGPX - https://www.visugpx.com">
  <metadata>
    <name>Traces 2022</name>
    <desc><![CDATA[8 traces potentielles pour la sortie 2022 !]]></desc>
  </metadata>
  <trk>
    <name><![CDATA[Trace 8]]></name>
    <desc><![CDATA[Ruisseau, village troglodyte, viaduc !]]></desc>
    <extensions>
      <line xmlns="http://www.topografix.com/GPX/gpx_style/0/2">
        <color>ff0000</color>
        <width>4</width>
          <extensions>
            <sens>1</sens>
          </extensions>
      </line>
    </extensions>
    <trkseg>
      <trkpt lat="44.18632" lon="3.12743">
        <ele>412</ele>
        <time>2022-04-05T15:54:44Z</time>
      </trkpt>
      <trkpt lat="44.18632" lon="3.12743">
        <ele>412</ele>
        <time>2022-04-05T15:54:43Z</time>
      </trkpt>
      <trkpt lat="44.18634" lon="3.12743">
        <ele>411.8</ele>
        <time>2022-04-05T15:54:42Z</time>
      </trkpt>
      <trkpt lat="44.18635" lon="3.12744">
        <ele>411.8</ele>
        <time>2022-04-05T15:54:41Z</time>
      </trkpt>
      <trkpt lat="44.18636" lon="3.12747">
        <ele>411.8</ele>
        <time>2022-04-05T15:54:40Z</time>
      </trkpt>
      <trkpt lat="44.18637" lon="3.1275">
        <ele>411.6</ele>
        <time>2022-04-05T15:54:39Z</time>
      </trkpt>
      <trkpt lat="44.18637" lon="3.12754">
        <ele>411.2</ele>
        <time>2022-04-05T15:54:38Z</time>
      </trkpt>
      <trkpt lat="44.18638" lon="3.12757">
        <ele>411.2</ele>
        <time>2022-04-05T15:54:37Z</time>
      </trkpt>
      <trkpt lat="44.18638" lon="3.1276">
        <ele>410.8</ele>
        <time>2022-04-05T15:54:36Z</time>
      </trkpt>
      <trkpt lat="44.18639" lon="3.12764">
        <ele>410.8</ele>
        <time>2022-04-05T15:54:35Z</time>
      </trkpt>
      <trkpt lat="44.1864" lon="3.12768">
        <ele>410.6</ele>
        <time>2022-04-05T15:54:34Z</time>
      </trkpt>
      <trkpt lat="44.1864" lon="3.12772">
        <ele>410.4</ele>
        <time>2022-04-05T15:54:33Z</time>
      </trkpt>
      <trkpt lat="44.18639" lon="3.12776">
        <ele>410.2</ele>
        <time>2022-04-05T15:54:32Z</time>
      </trkpt>
      <trkpt lat="44.18638" lon="3.1278">
        <ele>410</ele>
        <time>2022-04-05T15:54:31Z</time>
      </trkpt>
      <trkpt lat="44.18636" lon="3.12784">
        <ele>409.8</ele>
        <time>2022-04-05T15:54:30Z</time>
      </trkpt>
      <trkpt lat="44.18634" lon="3.12787">
        <ele>409.6</ele>
        <time>2022-04-05T15:54:29Z</time>
      </trkpt>
      <trkpt lat="44.18632" lon="3.12791">
        <ele>409.4</ele>
        <time>2022-04-05T15:54:28Z</time>
      </trkpt>
      <trkpt lat="44.18629" lon="3.12794">
        <ele>409.2</ele>
        <time>2022-04-05T15:54:27Z</time>
      </trkpt>
      <trkpt lat="44.18627" lon="3.12797">
        <ele>409.2</ele>
        <time>2022-04-05T15:54:26Z</time>
      </trkpt>
      <trkpt lat="44.18625" lon="3.12799">
        <ele>409</ele>
        <time>2022-04-05T15:54:25Z</time>
      </trkpt>
      <trkpt lat="44.18622" lon="3.12803">
        <ele>408.8</ele>
        <time>2022-04-05T15:54:24Z</time>
      </trkpt>
      <trkpt lat="44.1862" lon="3.12805">
        <ele>408.8</ele>
        <time>2022-04-05T15:54:23Z</time>
      </trkpt>
      <trkpt lat="44.18617" lon="3.12808">
        <ele>409</ele>
        <time>2022-04-05T15:54:22Z</time>
      </trkpt>
      <trkpt lat="44.18614" lon="3.1281">
        <ele>408.8</ele>
        <time>2022-04-05T15:54:21Z</time>
      </trkpt>
      <trkpt lat="44.1861" lon="3.12812">
        <ele>408.8</ele>
        <time>2022-04-05T15:54:20Z</time>
      </trkpt>
      <trkpt lat="44.18606" lon="3.12812">
        <ele>408.8</ele>
        <time>2022-04-05T15:54:19Z</time>
      </trkpt>
      <trkpt lat="44.18602" lon="3.12811">
        <ele>408.8</ele>
        <time>2022-04-05T15:54:18Z</time>
      </trkpt>
      <trkpt lat="44.18598" lon="3.1281">
        <ele>408.8</ele>
        <time>2022-04-05T15:54:17Z</time>
      </trkpt>
      <trkpt lat="44.18594" lon="3.1281">
        <ele>408.8</ele>
        <time>2022-04-05T15:54:16Z</time>
      </trkpt>
      <trkpt lat="44.18591" lon="3.12812">
        <ele>408.8</ele>
        <time>2022-04-05T15:54:15Z</time>
      </trkpt>
      <trkpt lat="44.18588" lon="3.12816">
        <ele>408.8</ele>
        <time>2022-04-05T15:54:14Z</time>
      </trkpt>
      <trkpt lat="44.18586" lon="3.12821">
        <ele>408.8</ele>
        <time>2022-04-05T15:54:13Z</time>
      </trkpt>
      <trkpt lat="44.18584" lon="3.12827">
        <ele>409</ele>
        <time>2022-04-05T15:54:12Z</time>
      </trkpt>
      <trkpt lat="44.18585" lon="3.12833">
        <ele>409</ele>
        <time>2022-04-05T15:54:11Z</time>
      </trkpt>
      <trkpt lat="44.18586" lon="3.12838">
        <ele>409</ele>
        <time>2022-04-05T15:54:10Z</time>
      </trkpt>
      <trkpt lat="44.1859" lon="3.12842">
        <ele>409</ele>
        <time>2022-04-05T15:54:09Z</time>
      </trkpt>
      <trkpt lat="44.18594" lon="3.12845">
        <ele>409</ele>
        <time>2022-04-05T15:54:08Z</time>
      </trkpt>
      <trkpt lat="44.18598" lon="3.12848">
        <ele>409</ele>
        <time>2022-04-05T15:54:07Z</time>
      </trkpt>
      <trkpt lat="44.18601" lon="3.12852">
        <ele>409</ele>
        <time>2022-04-05T15:54:06Z</time>
      </trkpt>
      <trkpt lat="44.18605" lon="3.12855">
        <ele>409</ele>
        <time>2022-04-05T15:54:05Z</time>
      </trkpt>
      <trkpt lat="44.18609" lon="3.12858">
        <ele>409</ele>
        <time>2022-04-05T15:54:04Z</time>
      </trkpt>
      <trkpt lat="44.18613" lon="3.12861">
        <ele>409</ele>
        <time>2022-04-05T15:54:03Z</time>
      </trkpt>
      <trkpt lat="44.18618" lon="3.12865">
        <ele>409</ele>
        <time>2022-04-05T15:54:02Z</time>
      </trkpt>
      <trkpt lat="44.18622" lon="3.12868">
        <ele>409</ele>
        <time>2022-04-05T15:54:01Z</time>
      </trkpt>
      <trkpt lat="44.18626" lon="3.12871">
        <ele>409</ele>
        <time>2022-04-05T15:54:00Z</time>
      </trkpt>
      <trkpt lat="44.18629" lon="3.12874">
        <ele>409</ele>
        <time>2022-04-05T15:53:59Z</time>
      </trkpt>
      <trkpt lat="44.18633" lon="3.12878">
        <ele>409</ele>
        <time>2022-04-05T15:53:58Z</time>
      </trkpt>
      <trkpt lat="44.18637" lon="3.12881">
        <ele>409</ele>
        <time>2022-04-05T15:53:57Z</time>
      </trkpt>
      <trkpt lat="44.18641" lon="3.12884">
        <ele>409</ele>
        <time>2022-04-05T15:53:56Z</time>
      </trkpt>
      <trkpt lat="44.18645" lon="3.12887">
        <ele>409</ele>
        <time>2022-04-05T15:53:55Z</time>
      </trkpt>
      <trkpt lat="44.18649" lon="3.12891">
        <ele>409</ele>
        <time>2022-04-05T15:53:54Z</time>
      </trkpt>
      <trkpt lat="44.18653" lon="3.12894">
        <ele>409</ele>
        <time>2022-04-05T15:53:53Z</time>
      </trkpt>
      <trkpt lat="44.18656" lon="3.12897">
        <ele>408.8</ele>
        <time>2022-04-05T15:53:52Z</time>
      </trkpt>
      <trkpt lat="44.1866" lon="3.129">
        <ele>408.8</ele>
        <time>2022-04-05T15:53:51Z</time>
      </trkpt>
      <trkpt lat="44.18663" lon="3.12903">
        <ele>408.8</ele>
        <time>2022-04-05T15:53:50Z</time>
      </trkpt>
      <trkpt lat="44.18666" lon="3.12906">
        <ele>408.8</ele>
        <time>2022-04-05T15:53:49Z</time>
      </trkpt>
      <trkpt lat="44.18668" lon="3.1291">
        <ele>408.8</ele>
        <time>2022-04-05T15:53:48Z</time>
      </trkpt>
      <trkpt lat="44.18669" lon="3.12913">
        <ele>408.6</ele>
        <time>2022-04-05T15:53:47Z</time>
      </trkpt>
      <trkpt lat="44.1867" lon="3.12916">
        <ele>408.6</ele>
        <time>2022-04-05T15:53:46Z</time>
      </trkpt>
      <trkpt lat="44.18669" lon="3.12918">
        <ele>408.6</ele>
        <time>2022-04-05T15:53:45Z</time>
      </trkpt>
      <trkpt lat="44.18667" lon="3.12922">
        <ele>408.2</ele>
        <time>2022-04-05T15:53:43Z</time>
      </trkpt>
      <trkpt lat="44.18666" lon="3.12924">
        <ele>408</ele>
        <time>2022-04-05T15:53:42Z</time>
      </trkpt>
      <trkpt lat="44.18664" lon="3.12926">
        <ele>407.8</ele>
        <time>2022-04-05T15:53:41Z</time>
      </trkpt>
      <trkpt lat="44.18662" lon="3.12929">
        <ele>407.6</ele>
        <time>2022-04-05T15:53:40Z</time>
      </trkpt>
      <trkpt lat="44.1866" lon="3.12931">
        <ele>407.6</ele>
        <time>2022-04-05T15:53:39Z</time>
      </trkpt>
      <trkpt lat="44.18658" lon="3.12934">
        <ele>407.4</ele>
        <time>2022-04-05T15:53:38Z</time>
      </trkpt>
      <trkpt lat="44.18655" lon="3.12936">
        <ele>407.4</ele>
        <time>2022-04-05T15:53:37Z</time>
      </trkpt>
      <trkpt lat="44.18653" lon="3.12938">
        <ele>407.2</ele>
        <time>2022-04-05T15:53:36Z</time>
      </trkpt>
      <trkpt lat="44.18651" lon="3.1294">
        <ele>407.2</ele>
        <time>2022-04-05T15:53:35Z</time>
      </trkpt>
      <trkpt lat="44.18648" lon="3.12942">
        <ele>406.8</ele>
        <time>2022-04-05T15:53:34Z</time>
      </trkpt>
      <trkpt lat="44.18646" lon="3.12944">
        <ele>407</ele>
        <time>2022-04-05T15:53:33Z</time>
      </trkpt>
      <trkpt lat="44.18643" lon="3.12947">
        <ele>406.6</ele>
        <time>2022-04-05T15:53:32Z</time>
      </trkpt>
      <trkpt lat="44.18641" lon="3.12949">
        <ele>406.4</ele>
        <time>2022-04-05T15:53:31Z</time>
      </trkpt>
      <trkpt lat="44.18639" lon="3.12951">
        <ele>406.2</ele>
        <time>2022-04-05T15:53:30Z</time>
      </trkpt>
      <trkpt lat="44.18637" lon="3.12953">
        <ele>406.2</ele>
        <time>2022-04-05T15:53:29Z</time>
      </trkpt>
      <trkpt lat="44.18635" lon="3.12955">
        <ele>406</ele>
        <time>2022-04-05T15:53:28Z</time>
      </trkpt>
      <trkpt lat="44.18632" lon="3.12958">
        <ele>405.8</ele>
        <time>2022-04-05T15:53:27Z</time>
      </trkpt>
      <trkpt lat="44.1863" lon="3.1296">
        <ele>405.8</ele>
        <time>2022-04-05T15:53:26Z</time>
      </trkpt>
      <trkpt lat="44.18628" lon="3.12962">
        <ele>405.6</ele>
        <time>2022-04-05T15:53:25Z</time>
      </trkpt>
      <trkpt lat="44.18626" lon="3.12965">
        <ele>405.4</ele>
        <time>2022-04-05T15:53:24Z</time>
      </trkpt>
      <trkpt lat="44.18623" lon="3.12967">
        <ele>405.4</ele>
        <time>2022-04-05T15:53:23Z</time>
      </trkpt>
      <trkpt lat="44.18621" lon="3.12969">
        <ele>405.2</ele>
        <time>2022-04-05T15:53:22Z</time>
      </trkpt>
      <trkpt lat="44.18619" lon="3.12971">
        <ele>405</ele>
        <time>2022-04-05T15:53:21Z</time>
      </trkpt>
      <trkpt lat="44.18616" lon="3.12973">
        <ele>405</ele>
        <time>2022-04-05T15:53:20Z</time>
      </trkpt>
      <trkpt lat="44.18614" lon="3.12975">
        <ele>404.8</ele>
        <time>2022-04-05T15:53:19Z</time>
      </trkpt>
      <trkpt lat="44.18612" lon="3.12977">
        <ele>404.8</ele>
        <time>2022-04-05T15:53:18Z</time>
      </trkpt>
      <trkpt lat="44.18609" lon="3.12979">
        <ele>404.6</ele>
        <time>2022-04-05T15:53:17Z</time>
      </trkpt>
      <trkpt lat="44.18607" lon="3.12981">
        <ele>404.6</ele>
        <time>2022-04-05T15:53:16Z</time>
      </trkpt>
      <trkpt lat="44.18605" lon="3.12984">
        <ele>404.4</ele>
        <time>2022-04-05T15:53:15Z</time>
      </trkpt>
      <trkpt lat="44.18603" lon="3.12986">
        <ele>404.4</ele>
        <time>2022-04-05T15:53:14Z</time>
      </trkpt>
      <trkpt lat="44.18601" lon="3.12989">
        <ele>404.2</ele>
        <time>2022-04-05T15:53:13Z</time>
      </trkpt>
      <trkpt lat="44.18599" lon="3.12991">
        <ele>404.2</ele>
        <time>2022-04-05T15:53:12Z</time>
      </trkpt>
      <trkpt lat="44.18596" lon="3.12994">
        <ele>404</ele>
        <time>2022-04-05T15:53:11Z</time>
      </trkpt>
      <trkpt lat="44.18594" lon="3.12996">
        <ele>403.8</ele>
        <time>2022-04-05T15:53:10Z</time>
      </trkpt>
      <trkpt lat="44.18592" lon="3.12999">
        <ele>403.8</ele>
        <time>2022-04-05T15:53:09Z</time>
      </trkpt>
      <trkpt lat="44.1859" lon="3.13001">
        <ele>403.4</ele>
        <time>2022-04-05T15:53:08Z</time>
      </trkpt>
      <trkpt lat="44.18587" lon="3.13003">
        <ele>403.4</ele>
        <time>2022-04-05T15:53:07Z</time>
      </trkpt>
      <trkpt lat="44.18585" lon="3.13006">
        <ele>403</ele>
        <time>2022-04-05T15:53:06Z</time>
      </trkpt>
      <trkpt lat="44.18583" lon="3.13009">
        <ele>402.8</ele>
        <time>2022-04-05T15:53:05Z</time>
      </trkpt>
      <trkpt lat="44.18581" lon="3.13012">
        <ele>402.8</ele>
        <time>2022-04-05T15:53:04Z</time>
      </trkpt>
      <trkpt lat="44.1858" lon="3.13015">
        <ele>402.6</ele>
        <time>2022-04-05T15:53:03Z</time>
      </trkpt>
      <trkpt lat="44.18578" lon="3.13018">
        <ele>402.6</ele>
        <time>2022-04-05T15:53:02Z</time>
      </trkpt>
      <trkpt lat="44.18576" lon="3.13021">
        <ele>402.4</ele>
        <time>2022-04-05T15:53:01Z</time>
      </trkpt>
      <trkpt lat="44.18574" lon="3.13024">
        <ele>402.4</ele>
        <time>2022-04-05T15:53:00Z</time>
      </trkpt>
      <trkpt lat="44.18572" lon="3.13027">
        <ele>402.2</ele>
        <time>2022-04-05T15:52:59Z</time>
      </trkpt>
      <trkpt lat="44.1857" lon="3.1303">
        <ele>402.2</ele>
        <time>2022-04-05T15:52:58Z</time>
      </trkpt>
      <trkpt lat="44.18568" lon="3.13033">
        <ele>402</ele>
        <time>2022-04-05T15:52:57Z</time>
      </trkpt>
      <trkpt lat="44.18566" lon="3.13037">
        <ele>402</ele>
        <time>2022-04-05T15:52:56Z</time>
      </trkpt>
      <trkpt lat="44.18565" lon="3.1304">
        <ele>402</ele>
        <time>2022-04-05T15:52:55Z</time>
      </trkpt>
      <trkpt lat="44.18563" lon="3.13043">
        <ele>402</ele>
        <time>2022-04-05T15:52:54Z</time>
      </trkpt>
      <trkpt lat="44.18562" lon="3.13046">
        <ele>402</ele>
        <time>2022-04-05T15:52:53Z</time>
      </trkpt>
      <trkpt lat="44.1856" lon="3.13049">
        <ele>401.8</ele>
        <time>2022-04-05T15:52:52Z</time>
      </trkpt>
      <trkpt lat="44.18558" lon="3.13052">
        <ele>401.8</ele>
        <time>2022-04-05T15:52:51Z</time>
      </trkpt>
      <trkpt lat="44.18557" lon="3.13055">
        <ele>401.8</ele>
        <time>2022-04-05T15:52:50Z</time>
      </trkpt>
      <trkpt lat="44.18555" lon="3.13058">
        <ele>401.8</ele>
        <time>2022-04-05T15:52:49Z</time>
      </trkpt>
      <trkpt lat="44.18553" lon="3.13059">
        <ele>402</ele>
        <time>2022-04-05T15:52:48Z</time>
      </trkpt>
      <trkpt lat="44.18549" lon="3.13059">
        <ele>402.2</ele>
        <time>2022-04-05T15:52:47Z</time>
      </trkpt>
      <trkpt lat="44.18546" lon="3.13056">
        <ele>402</ele>
        <time>2022-04-05T15:52:46Z</time>
      </trkpt>
      <trkpt lat="44.18543" lon="3.13054">
        <ele>402</ele>
        <time>2022-04-05T15:52:45Z</time>
      </trkpt>
      <trkpt lat="44.1854" lon="3.13051">
        <ele>402</ele>
        <time>2022-04-05T15:52:44Z</time>
      </trkpt>
      <trkpt lat="44.18537" lon="3.13049">
        <ele>402</ele>
        <time>2022-04-05T15:52:43Z</time>
      </trkpt>
      <trkpt lat="44.18534" lon="3.13046">
        <ele>402</ele>
        <time>2022-04-05T15:52:42Z</time>
      </trkpt>
      <trkpt lat="44.18531" lon="3.13043">
        <ele>401.8</ele>
        <time>2022-04-05T15:52:41Z</time>
      </trkpt>
      <trkpt lat="44.18527" lon="3.13039">
        <ele>401.8</ele>
        <time>2022-04-05T15:52:40Z</time>
      </trkpt>
      <trkpt lat="44.18524" lon="3.13035">
        <ele>401.6</ele>
        <time>2022-04-05T15:52:39Z</time>
      </trkpt>
      <trkpt lat="44.18521" lon="3.13031">
        <ele>401.6</ele>
        <time>2022-04-05T15:52:38Z</time>
      </trkpt>
      <trkpt lat="44.18517" lon="3.13027">
        <ele>401.4</ele>
        <time>2022-04-05T15:52:37Z</time>
      </trkpt>
      <trkpt lat="44.18513" lon="3.13022">
        <ele>401.4</ele>
        <time>2022-04-05T15:52:36Z</time>
      </trkpt>
      <trkpt lat="44.1851" lon="3.13017">
        <ele>401.4</ele>
        <time>2022-04-05T15:52:35Z</time>
      </trkpt>
      <trkpt lat="44.18506" lon="3.13012">
        <ele>401.4</ele>
        <time>2022-04-05T15:52:34Z</time>
      </trkpt>
      <trkpt lat="44.18502" lon="3.13006">
        <ele>401.2</ele>
        <time>2022-04-05T15:52:33Z</time>
      </trkpt>
      <trkpt lat="44.18499" lon="3.13003">
        <ele>401.2</ele>
        <time>2022-04-05T15:52:32Z</time>
      </trkpt>
      <trkpt lat="44.18495" lon="3.13">
        <ele>401.2</ele>
        <time>2022-04-05T15:52:31Z</time>
      </trkpt>
      <trkpt lat="44.18491" lon="3.12999">
        <ele>401.4</ele>
        <time>2022-04-05T15:52:30Z</time>
      </trkpt>
      <trkpt lat="44.18488" lon="3.12997">
        <ele>401.4</ele>
        <time>2022-04-05T15:52:29Z</time>
      </trkpt>
      <trkpt lat="44.18485" lon="3.12995">
        <ele>401.2</ele>
        <time>2022-04-05T15:52:28Z</time>
      </trkpt>
      <trkpt lat="44.18481" lon="3.12993">
        <ele>401.2</ele>
        <time>2022-04-05T15:52:27Z</time>
      </trkpt>
      <trkpt lat="44.18477" lon="3.1299">
        <ele>401</ele>
        <time>2022-04-05T15:52:26Z</time>
      </trkpt>
      <trkpt lat="44.18472" lon="3.12988">
        <ele>400.8</ele>
        <time>2022-04-05T15:52:25Z</time>
      </trkpt>
      <trkpt lat="44.18469" lon="3.12986">
        <ele>400.8</ele>
        <time>2022-04-05T15:52:24Z</time>
      </trkpt>
      <trkpt lat="44.18465" lon="3.12983">
        <ele>400.8</ele>
        <time>2022-04-05T15:52:23Z</time>
      </trkpt>
      <trkpt lat="44.18462" lon="3.1298">
        <ele>401</ele>
        <time>2022-04-05T15:52:22Z</time>
      </trkpt>
      <trkpt lat="44.18459" lon="3.12977">
        <ele>401</ele>
        <time>2022-04-05T15:52:21Z</time>
      </trkpt>
      <trkpt lat="44.18456" lon="3.12973">
        <ele>401</ele>
        <time>2022-04-05T15:52:20Z</time>
      </trkpt>
      <trkpt lat="44.18453" lon="3.1297">
        <ele>401</ele>
        <time>2022-04-05T15:52:19Z</time>
      </trkpt>
      <trkpt lat="44.1845" lon="3.12967">
        <ele>401</ele>
        <time>2022-04-05T15:52:18Z</time>
      </trkpt>
      <trkpt lat="44.18447" lon="3.12964">
        <ele>401</ele>
        <time>2022-04-05T15:52:17Z</time>
      </trkpt>
      <trkpt lat="44.18444" lon="3.1296">
        <ele>401.2</ele>
        <time>2022-04-05T15:52:16Z</time>
      </trkpt>
      <trkpt lat="44.18442" lon="3.12956">
        <ele>401.2</ele>
        <time>2022-04-05T15:52:15Z</time>
      </trkpt>
      <trkpt lat="44.18439" lon="3.12952">
        <ele>401.2</ele>
        <time>2022-04-05T15:52:14Z</time>
      </trkpt>
      <trkpt lat="44.18436" lon="3.12948">
        <ele>401.2</ele>
        <time>2022-04-05T15:52:13Z</time>
      </trkpt>
      <trkpt lat="44.18434" lon="3.12945">
        <ele>401.4</ele>
        <time>2022-04-05T15:52:12Z</time>
      </trkpt>
      <trkpt lat="44.18431" lon="3.12941">
        <ele>401.4</ele>
        <time>2022-04-05T15:52:11Z</time>
      </trkpt>
      <trkpt lat="44.18428" lon="3.12937">
        <ele>401.4</ele>
        <time>2022-04-05T15:52:10Z</time>
      </trkpt>
      <trkpt lat="44.18425" lon="3.12932">
        <ele>401.4</ele>
        <time>2022-04-05T15:52:09Z</time>
      </trkpt>
      <trkpt lat="44.18422" lon="3.12929">
        <ele>401.6</ele>
        <time>2022-04-05T15:52:08Z</time>
      </trkpt>
      <trkpt lat="44.18419" lon="3.12924">
        <ele>401.6</ele>
        <time>2022-04-05T15:52:07Z</time>
      </trkpt>
      <trkpt lat="44.18415" lon="3.12919">
        <ele>401.8</ele>
        <time>2022-04-05T15:52:06Z</time>
      </trkpt>
      <trkpt lat="44.18412" lon="3.12916">
        <ele>401.8</ele>
        <time>2022-04-05T15:52:05Z</time>
      </trkpt>
      <trkpt lat="44.18409" lon="3.12912">
        <ele>401.8</ele>
        <time>2022-04-05T15:52:04Z</time>
      </trkpt>
      <trkpt lat="44.18406" lon="3.12908">
        <ele>402</ele>
        <time>2022-04-05T15:52:03Z</time>
      </trkpt>
      <trkpt lat="44.18403" lon="3.12905">
        <ele>402</ele>
        <time>2022-04-05T15:52:02Z</time>
      </trkpt>
      <trkpt lat="44.184" lon="3.12902">
        <ele>402</ele>
        <time>2022-04-05T15:52:01Z</time>
      </trkpt>
      <trkpt lat="44.18397" lon="3.12899">
        <ele>402</ele>
        <time>2022-04-05T15:52:00Z</time>
      </trkpt>
      <trkpt lat="44.18395" lon="3.12896">
        <ele>402</ele>
        <time>2022-04-05T15:51:59Z</time>
      </trkpt>
      <trkpt lat="44.18393" lon="3.12892">
        <ele>402</ele>
        <time>2022-04-05T15:51:58Z</time>
      </trkpt>
      <trkpt lat="44.18391" lon="3.12889">
        <ele>402</ele>
        <time>2022-04-05T15:51:57Z</time>
      </trkpt>
      <trkpt lat="44.18389" lon="3.12885">
        <ele>402</ele>
        <time>2022-04-05T15:51:56Z</time>
      </trkpt>
      <trkpt lat="44.18386" lon="3.12883">
        <ele>401.8</ele>
        <time>2022-04-05T15:51:55Z</time>
      </trkpt>
      <trkpt lat="44.18383" lon="3.1288">
        <ele>401.8</ele>
        <time>2022-04-05T15:51:54Z</time>
      </trkpt>
      <trkpt lat="44.1838" lon="3.12876">
        <ele>401.6</ele>
        <time>2022-04-05T15:51:53Z</time>
      </trkpt>
      <trkpt lat="44.18376" lon="3.12872">
        <ele>401.6</ele>
        <time>2022-04-05T15:51:52Z</time>
      </trkpt>
      <trkpt lat="44.18372" lon="3.12867">
        <ele>401.2</ele>
        <time>2022-04-05T15:51:51Z</time>
      </trkpt>
      <trkpt lat="44.18368" lon="3.12863">
        <ele>401.4</ele>
        <time>2022-04-05T15:51:50Z</time>
      </trkpt>
      <trkpt lat="44.18365" lon="3.12861">
        <ele>401.2</ele>
        <time>2022-04-05T15:51:49Z</time>
      </trkpt>
      <trkpt lat="44.18361" lon="3.12856">
        <ele>400.8</ele>
        <time>2022-04-05T15:51:48Z</time>
      </trkpt>
      <trkpt lat="44.18358" lon="3.12852">
        <ele>400.8</ele>
        <time>2022-04-05T15:51:47Z</time>
      </trkpt>
      <trkpt lat="44.18354" lon="3.12848">
        <ele>400.6</ele>
        <time>2022-04-05T15:51:46Z</time>
      </trkpt>
      <trkpt lat="44.18351" lon="3.12846">
        <ele>400.6</ele>
        <time>2022-04-05T15:51:45Z</time>
      </trkpt>
      <trkpt lat="44.18348" lon="3.12843">
        <ele>400.4</ele>
        <time>2022-04-05T15:51:44Z</time>
      </trkpt>
      <trkpt lat="44.18344" lon="3.1284">
        <ele>400.4</ele>
        <time>2022-04-05T15:51:43Z</time>
      </trkpt>
      <trkpt lat="44.18341" lon="3.12838">
        <ele>400.4</ele>
        <time>2022-04-05T15:51:42Z</time>
      </trkpt>
      <trkpt lat="44.18338" lon="3.12836">
        <ele>400.4</ele>
        <time>2022-04-05T15:51:41Z</time>
      </trkpt>
      <trkpt lat="44.18335" lon="3.12833">
        <ele>400.2</ele>
        <time>2022-04-05T15:51:40Z</time>
      </trkpt>
      <trkpt lat="44.1833" lon="3.12829">
        <ele>400</ele>
        <time>2022-04-05T15:51:39Z</time>
      </trkpt>
      <trkpt lat="44.18327" lon="3.12826">
        <ele>400</ele>
        <time>2022-04-05T15:51:38Z</time>
      </trkpt>
      <trkpt lat="44.18323" lon="3.12823">
        <ele>399.8</ele>
        <time>2022-04-05T15:51:37Z</time>
      </trkpt>
      <trkpt lat="44.18321" lon="3.1282">
        <ele>399.8</ele>
        <time>2022-04-05T15:51:36Z</time>
      </trkpt>
      <trkpt lat="44.18319" lon="3.12817">
        <ele>399.8</ele>
        <time>2022-04-05T15:51:35Z</time>
      </trkpt>
      <trkpt lat="44.18316" lon="3.12814">
        <ele>399.8</ele>
        <time>2022-04-05T15:51:34Z</time>
      </trkpt>
      <trkpt lat="44.18311" lon="3.1281">
        <ele>399.8</ele>
        <time>2022-04-05T15:51:33Z</time>
      </trkpt>
      <trkpt lat="44.18309" lon="3.12808">
        <ele>399.6</ele>
        <time>2022-04-05T15:51:32Z</time>
      </trkpt>
      <trkpt lat="44.18305" lon="3.12805">
        <ele>399.6</ele>
        <time>2022-04-05T15:51:31Z</time>
      </trkpt>
      <trkpt lat="44.18303" lon="3.12803">
        <ele>399.6</ele>
        <time>2022-04-05T15:51:30Z</time>
      </trkpt>
      <trkpt lat="44.18299" lon="3.12802">
        <ele>399.6</ele>
        <time>2022-04-05T15:51:29Z</time>
      </trkpt>
      <trkpt lat="44.18295" lon="3.12798">
        <ele>399.6</ele>
        <time>2022-04-05T15:51:28Z</time>
      </trkpt>
      <trkpt lat="44.18292" lon="3.12796">
        <ele>399.6</ele>
        <time>2022-04-05T15:51:27Z</time>
      </trkpt>
      <trkpt lat="44.18287" lon="3.12793">
        <ele>399.6</ele>
        <time>2022-04-05T15:51:26Z</time>
      </trkpt>
      <trkpt lat="44.18284" lon="3.1279">
        <ele>399.8</ele>
        <time>2022-04-05T15:51:25Z</time>
      </trkpt>
      <trkpt lat="44.18281" lon="3.12788">
        <ele>399.8</ele>
        <time>2022-04-05T15:51:24Z</time>
      </trkpt>
      <trkpt lat="44.18277" lon="3.12787">
        <ele>400</ele>
        <time>2022-04-05T15:51:23Z</time>
      </trkpt>
      <trkpt lat="44.18273" lon="3.12784">
        <ele>400.2</ele>
        <time>2022-04-05T15:51:22Z</time>
      </trkpt>
      <trkpt lat="44.1827" lon="3.12781">
        <ele>400.4</ele>
        <time>2022-04-05T15:51:21Z</time>
      </trkpt>
      <trkpt lat="44.18266" lon="3.12777">
        <ele>400.6</ele>
        <time>2022-04-05T15:51:20Z</time>
      </trkpt>
      <trkpt lat="44.18263" lon="3.12774">
        <ele>400.8</ele>
        <time>2022-04-05T15:51:19Z</time>
      </trkpt>
      <trkpt lat="44.1826" lon="3.12771">
        <ele>401</ele>
        <time>2022-04-05T15:51:18Z</time>
      </trkpt>
      <trkpt lat="44.18256" lon="3.12768">
        <ele>401</ele>
        <time>2022-04-05T15:51:17Z</time>
      </trkpt>
      <trkpt lat="44.18253" lon="3.12765">
        <ele>401.2</ele>
        <time>2022-04-05T15:51:16Z</time>
      </trkpt>
      <trkpt lat="44.18248" lon="3.12761">
        <ele>401.2</ele>
        <time>2022-04-05T15:51:15Z</time>
      </trkpt>
      <trkpt lat="44.18243" lon="3.12757">
        <ele>401.2</ele>
        <time>2022-04-05T15:51:14Z</time>
      </trkpt>
      <trkpt lat="44.18239" lon="3.12754">
        <ele>401.4</ele>
        <time>2022-04-05T15:51:13Z</time>
      </trkpt>
      <trkpt lat="44.18236" lon="3.1275">
        <ele>401.4</ele>
        <time>2022-04-05T15:51:12Z</time>
      </trkpt>
      <trkpt lat="44.18234" lon="3.12748">
        <ele>401.4</ele>
        <time>2022-04-05T15:51:11Z</time>
      </trkpt>
      <trkpt lat="44.18231" lon="3.12746">
        <ele>401.4</ele>
        <time>2022-04-05T15:51:10Z</time>
      </trkpt>
      <trkpt lat="44.18229" lon="3.12744">
        <ele>401.2</ele>
        <time>2022-04-05T15:51:09Z</time>
      </trkpt>
      <trkpt lat="44.18226" lon="3.12743">
        <ele>401.4</ele>
        <time>2022-04-05T15:51:08Z</time>
      </trkpt>
      <trkpt lat="44.18223" lon="3.12741">
        <ele>401.4</ele>
        <time>2022-04-05T15:51:07Z</time>
      </trkpt>
      <trkpt lat="44.18221" lon="3.12738">
        <ele>401.6</ele>
        <time>2022-04-05T15:51:06Z</time>
      </trkpt>
      <trkpt lat="44.18217" lon="3.12735">
        <ele>401.6</ele>
        <time>2022-04-05T15:51:05Z</time>
      </trkpt>
      <trkpt lat="44.18214" lon="3.12733">
        <ele>401.4</ele>
        <time>2022-04-05T15:51:04Z</time>
      </trkpt>
      <trkpt lat="44.18212" lon="3.12731">
        <ele>401.4</ele>
        <time>2022-04-05T15:51:03Z</time>
      </trkpt>
      <trkpt lat="44.18209" lon="3.12729">
        <ele>401.4</ele>
        <time>2022-04-05T15:51:02Z</time>
      </trkpt>
      <trkpt lat="44.18207" lon="3.12728">
        <ele>401.4</ele>
        <time>2022-04-05T15:51:01Z</time>
      </trkpt>
      <trkpt lat="44.18205" lon="3.12726">
        <ele>401.4</ele>
        <time>2022-04-05T15:51:00Z</time>
      </trkpt>
      <trkpt lat="44.18201" lon="3.12723">
        <ele>401.4</ele>
        <time>2022-04-05T15:50:59Z</time>
      </trkpt>
      <trkpt lat="44.18197" lon="3.12722">
        <ele>401.4</ele>
        <time>2022-04-05T15:50:58Z</time>
      </trkpt>
      <trkpt lat="44.18194" lon="3.1272">
        <ele>401.4</ele>
        <time>2022-04-05T15:50:57Z</time>
      </trkpt>
      <trkpt lat="44.18191" lon="3.12718">
        <ele>401.4</ele>
        <time>2022-04-05T15:50:56Z</time>
      </trkpt>
      <trkpt lat="44.18187" lon="3.12715">
        <ele>401.4</ele>
        <time>2022-04-05T15:50:55Z</time>
      </trkpt>
      <trkpt lat="44.18184" lon="3.12712">
        <ele>401.4</ele>
        <time>2022-04-05T15:50:54Z</time>
      </trkpt>
      <trkpt lat="44.18181" lon="3.12711">
        <ele>401</ele>
        <time>2022-04-05T15:50:53Z</time>
      </trkpt>
      <trkpt lat="44.18178" lon="3.1271">
        <ele>401</ele>
        <time>2022-04-05T15:50:52Z</time>
      </trkpt>
      <trkpt lat="44.18174" lon="3.12708">
        <ele>401</ele>
        <time>2022-04-05T15:50:51Z</time>
      </trkpt>
      <trkpt lat="44.1817" lon="3.12706">
        <ele>401</ele>
        <time>2022-04-05T15:50:50Z</time>
      </trkpt>
      <trkpt lat="44.18166" lon="3.12704">
        <ele>400.8</ele>
        <time>2022-04-05T15:50:49Z</time>
      </trkpt>
      <trkpt lat="44.18162" lon="3.12703">
        <ele>400.8</ele>
        <time>2022-04-05T15:50:48Z</time>
      </trkpt>
      <trkpt lat="44.18156" lon="3.12701">
        <ele>400.6</ele>
        <time>2022-04-05T15:50:47Z</time>
      </trkpt>
      <trkpt lat="44.18154" lon="3.127">
        <ele>400.6</ele>
        <time>2022-04-05T15:50:46Z</time>
      </trkpt>
      <trkpt lat="44.18152" lon="3.12699">
        <ele>400.4</ele>
        <time>2022-04-05T15:50:45Z</time>
      </trkpt>
      <trkpt lat="44.18148" lon="3.12698">
        <ele>400.2</ele>
        <time>2022-04-05T15:50:44Z</time>
      </trkpt>
      <trkpt lat="44.18144" lon="3.12697">
        <ele>400.2</ele>
        <time>2022-04-05T15:50:43Z</time>
      </trkpt>
      <trkpt lat="44.18142" lon="3.12695">
        <ele>400</ele>
        <time>2022-04-05T15:50:42Z</time>
      </trkpt>
      <trkpt lat="44.18138" lon="3.12694">
        <ele>400</ele>
        <time>2022-04-05T15:50:41Z</time>
      </trkpt>
      <trkpt lat="44.18135" lon="3.12693">
        <ele>399.8</ele>
        <time>2022-04-05T15:50:40Z</time>
      </trkpt>
      <trkpt lat="44.18131" lon="3.12693">
        <ele>399.6</ele>
        <time>2022-04-05T15:50:39Z</time>
      </trkpt>
      <trkpt lat="44.18128" lon="3.12691">
        <ele>399.4</ele>
        <time>2022-04-05T15:50:38Z</time>
      </trkpt>
      <trkpt lat="44.18125" lon="3.1269">
        <ele>399.2</ele>
        <time>2022-04-05T15:50:37Z</time>
      </trkpt>
      <trkpt lat="44.18121" lon="3.12688">
        <ele>399.2</ele>
        <time>2022-04-05T15:50:36Z</time>
      </trkpt>
      <trkpt lat="44.18115" lon="3.12684">
        <ele>399.2</ele>
        <time>2022-04-05T15:50:35Z</time>
      </trkpt>
      <trkpt lat="44.18112" lon="3.12682">
        <ele>399.2</ele>
        <time>2022-04-05T15:50:33Z</time>
      </trkpt>
      <trkpt lat="44.1811" lon="3.12681">
        <ele>399.4</ele>
        <time>2022-04-05T15:50:32Z</time>
      </trkpt>
      <trkpt lat="44.18107" lon="3.12679">
        <ele>399.4</ele>
        <time>2022-04-05T15:50:31Z</time>
      </trkpt>
      <trkpt lat="44.18105" lon="3.12677">
        <ele>399.4</ele>
        <time>2022-04-05T15:50:30Z</time>
      </trkpt>
      <trkpt lat="44.18102" lon="3.12673">
        <ele>399.4</ele>
        <time>2022-04-05T15:50:29Z</time>
      </trkpt>
      <trkpt lat="44.181" lon="3.12671">
        <ele>399.4</ele>
        <time>2022-04-05T15:50:28Z</time>
      </trkpt>
      <trkpt lat="44.18098" lon="3.12668">
        <ele>399.4</ele>
        <time>2022-04-05T15:50:27Z</time>
      </trkpt>
      <trkpt lat="44.18096" lon="3.12665">
        <ele>399.4</ele>
        <time>2022-04-05T15:50:26Z</time>
      </trkpt>
      <trkpt lat="44.18093" lon="3.12663">
        <ele>399.6</ele>
        <time>2022-04-05T15:50:25Z</time>
      </trkpt>
      <trkpt lat="44.1809" lon="3.12661">
        <ele>399.6</ele>
        <time>2022-04-05T15:50:24Z</time>
      </trkpt>
      <trkpt lat="44.18087" lon="3.12658">
        <ele>399.6</ele>
        <time>2022-04-05T15:50:23Z</time>
      </trkpt>
      <trkpt lat="44.18085" lon="3.12656">
        <ele>399.6</ele>
        <time>2022-04-05T15:50:22Z</time>
      </trkpt>
      <trkpt lat="44.18082" lon="3.12653">
        <ele>399.8</ele>
        <time>2022-04-05T15:50:21Z</time>
      </trkpt>
      <trkpt lat="44.18079" lon="3.12649">
        <ele>399.8</ele>
        <time>2022-04-05T15:50:20Z</time>
      </trkpt>
      <trkpt lat="44.18077" lon="3.12646">
        <ele>400</ele>
        <time>2022-04-05T15:50:19Z</time>
      </trkpt>
      <trkpt lat="44.18074" lon="3.12643">
        <ele>400.2</ele>
        <time>2022-04-05T15:50:18Z</time>
      </trkpt>
      <trkpt lat="44.18071" lon="3.1264">
        <ele>400.4</ele>
        <time>2022-04-05T15:50:17Z</time>
      </trkpt>
      <trkpt lat="44.18068" lon="3.12637">
        <ele>400.4</ele>
        <time>2022-04-05T15:50:16Z</time>
      </trkpt>
      <trkpt lat="44.18065" lon="3.12634">
        <ele>400.6</ele>
        <time>2022-04-05T15:50:15Z</time>
      </trkpt>
      <trkpt lat="44.18063" lon="3.12632">
        <ele>401.2</ele>
        <time>2022-04-05T15:50:14Z</time>
      </trkpt>
      <trkpt lat="44.1806" lon="3.12628">
        <ele>401</ele>
        <time>2022-04-05T15:50:13Z</time>
      </trkpt>
      <trkpt lat="44.18058" lon="3.12625">
        <ele>401.4</ele>
        <time>2022-04-05T15:50:12Z</time>
      </trkpt>
      <trkpt lat="44.18055" lon="3.12622">
        <ele>401.6</ele>
        <time>2022-04-05T15:50:11Z</time>
      </trkpt>
      <trkpt lat="44.18052" lon="3.1262">
        <ele>401.6</ele>
        <time>2022-04-05T15:50:10Z</time>
      </trkpt>
      <trkpt lat="44.18049" lon="3.12617">
        <ele>401.6</ele>
        <time>2022-04-05T15:50:09Z</time>
      </trkpt>
      <trkpt lat="44.18046" lon="3.12613">
        <ele>401.6</ele>
        <time>2022-04-05T15:50:08Z</time>
      </trkpt>
      <trkpt lat="44.18043" lon="3.12608">
        <ele>401.6</ele>
        <time>2022-04-05T15:50:07Z</time>
      </trkpt>
      <trkpt lat="44.1804" lon="3.12602">
        <ele>401.6</ele>
        <time>2022-04-05T15:50:06Z</time>
      </trkpt>
      <trkpt lat="44.18037" lon="3.12597">
        <ele>401.6</ele>
        <time>2022-04-05T15:50:05Z</time>
      </trkpt>
      <trkpt lat="44.18033" lon="3.12592">
        <ele>401.6</ele>
        <time>2022-04-05T15:50:04Z</time>
      </trkpt>
      <trkpt lat="44.18028" lon="3.12588">
        <ele>401.4</ele>
        <time>2022-04-05T15:50:03Z</time>
      </trkpt>
      <trkpt lat="44.18023" lon="3.12584">
        <ele>401.4</ele>
        <time>2022-04-05T15:50:02Z</time>
      </trkpt>
      <trkpt lat="44.18019" lon="3.12582">
        <ele>401.4</ele>
        <time>2022-04-05T15:50:01Z</time>
      </trkpt>
      <trkpt lat="44.18016" lon="3.12579">
        <ele>401.4</ele>
        <time>2022-04-05T15:50:00Z</time>
      </trkpt>
      <trkpt lat="44.18013" lon="3.12576">
        <ele>401.2</ele>
        <time>2022-04-05T15:49:59Z</time>
      </trkpt>
      <trkpt lat="44.1801" lon="3.12573">
        <ele>401.2</ele>
        <time>2022-04-05T15:49:58Z</time>
      </trkpt>
      <trkpt lat="44.18003" lon="3.12568">
        <ele>401.2</ele>
        <time>2022-04-05T15:49:57Z</time>
      </trkpt>
      <trkpt lat="44.18001" lon="3.12567">
        <ele>401.2</ele>
        <time>2022-04-05T15:49:56Z</time>
      </trkpt>
      <trkpt lat="44.17999" lon="3.12566">
        <ele>401.2</ele>
        <time>2022-04-05T15:49:55Z</time>
      </trkpt>
      <trkpt lat="44.17996" lon="3.12564">
        <ele>401.2</ele>
        <time>2022-04-05T15:49:54Z</time>
      </trkpt>
      <trkpt lat="44.17992" lon="3.12562">
        <ele>401.2</ele>
        <time>2022-04-05T15:49:53Z</time>
      </trkpt>
      <trkpt lat="44.17988" lon="3.12559">
        <ele>401.2</ele>
        <time>2022-04-05T15:49:52Z</time>
      </trkpt>
      <trkpt lat="44.17984" lon="3.12556">
        <ele>401</ele>
        <time>2022-04-05T15:49:51Z</time>
      </trkpt>
      <trkpt lat="44.17982" lon="3.12552">
        <ele>401</ele>
        <time>2022-04-05T15:49:50Z</time>
      </trkpt>
      <trkpt lat="44.17979" lon="3.12549">
        <ele>400.8</ele>
        <time>2022-04-05T15:49:49Z</time>
      </trkpt>
      <trkpt lat="44.17976" lon="3.12547">
        <ele>400.8</ele>
        <time>2022-04-05T15:49:48Z</time>
      </trkpt>
      <trkpt lat="44.17973" lon="3.12545">
        <ele>400.8</ele>
        <time>2022-04-05T15:49:47Z</time>
      </trkpt>
      <trkpt lat="44.1797" lon="3.12544">
        <ele>400.6</ele>
        <time>2022-04-05T15:49:46Z</time>
      </trkpt>
      <trkpt lat="44.17967" lon="3.12542">
        <ele>400.4</ele>
        <time>2022-04-05T15:49:45Z</time>
      </trkpt>
      <trkpt lat="44.17965" lon="3.12541">
        <ele>400.4</ele>
        <time>2022-04-05T15:49:44Z</time>
      </trkpt>
      <trkpt lat="44.17962" lon="3.1254">
        <ele>400</ele>
        <time>2022-04-05T15:49:43Z</time>
      </trkpt>
      <trkpt lat="44.1796" lon="3.12538">
        <ele>400</ele>
        <time>2022-04-05T15:49:42Z</time>
      </trkpt>
      <trkpt lat="44.17957" lon="3.12538">
        <ele>399.6</ele>
        <time>2022-04-05T15:49:41Z</time>
      </trkpt>
      <trkpt lat="44.17955" lon="3.12537">
        <ele>399.4</ele>
        <time>2022-04-05T15:49:40Z</time>
      </trkpt>
      <trkpt lat="44.17953" lon="3.12536">
        <ele>399.2</ele>
        <time>2022-04-05T15:49:39Z</time>
      </trkpt>
      <trkpt lat="44.1795" lon="3.12535">
        <ele>398.8</ele>
        <time>2022-04-05T15:49:38Z</time>
      </trkpt>
      <trkpt lat="44.17948" lon="3.12535">
        <ele>398.6</ele>
        <time>2022-04-05T15:49:37Z</time>
      </trkpt>
      <trkpt lat="44.17947" lon="3.12535">
        <ele>398.6</ele>
        <time>2022-04-05T15:49:36Z</time>
      </trkpt>
      <trkpt lat="44.17945" lon="3.12535">
        <ele>398.6</ele>
        <time>2022-04-05T15:49:35Z</time>
      </trkpt>
      <trkpt lat="44.17942" lon="3.12537">
        <ele>398.4</ele>
        <time>2022-04-05T15:49:33Z</time>
      </trkpt>
      <trkpt lat="44.17941" lon="3.12538">
        <ele>398.2</ele>
        <time>2022-04-05T15:49:32Z</time>
      </trkpt>
      <trkpt lat="44.1794" lon="3.12537">
        <ele>398.2</ele>
        <time>2022-04-05T15:49:31Z</time>
      </trkpt>
      <trkpt lat="44.17939" lon="3.12536">
        <ele>398</ele>
        <time>2022-04-05T15:49:30Z</time>
      </trkpt>
      <trkpt lat="44.17938" lon="3.12536">
        <ele>398</ele>
        <time>2022-04-05T15:49:29Z</time>
      </trkpt>
      <trkpt lat="44.17936" lon="3.12536">
        <ele>398</ele>
        <time>2022-04-05T15:49:28Z</time>
      </trkpt>
      <trkpt lat="44.17933" lon="3.12537">
        <ele>398</ele>
        <time>2022-04-05T15:49:27Z</time>
      </trkpt>
      <trkpt lat="44.17931" lon="3.12536">
        <ele>398</ele>
        <time>2022-04-05T15:49:26Z</time>
      </trkpt>
      <trkpt lat="44.1793" lon="3.12536">
        <ele>398</ele>
        <time>2022-04-05T15:49:25Z</time>
      </trkpt>
      <trkpt lat="44.17929" lon="3.12535">
        <ele>398</ele>
        <time>2022-04-05T15:49:24Z</time>
      </trkpt>
      <trkpt lat="44.17927" lon="3.12534">
        <ele>398</ele>
        <time>2022-04-05T15:49:23Z</time>
      </trkpt>
      <trkpt lat="44.17925" lon="3.12533">
        <ele>398</ele>
        <time>2022-04-05T15:49:22Z</time>
      </trkpt>
      <trkpt lat="44.17923" lon="3.12532">
        <ele>398</ele>
        <time>2022-04-05T15:49:21Z</time>
      </trkpt>
      <trkpt lat="44.17922" lon="3.12531">
        <ele>398</ele>
        <time>2022-04-05T15:49:20Z</time>
      </trkpt>
      <trkpt lat="44.17919" lon="3.1253">
        <ele>398</ele>
        <time>2022-04-05T15:49:19Z</time>
      </trkpt>
      <trkpt lat="44.17916" lon="3.12528">
        <ele>398</ele>
        <time>2022-04-05T15:49:18Z</time>
      </trkpt>
      <trkpt lat="44.17914" lon="3.12528">
        <ele>398.2</ele>
        <time>2022-04-05T15:49:17Z</time>
      </trkpt>
      <trkpt lat="44.17912" lon="3.12527">
        <ele>398.2</ele>
        <time>2022-04-05T15:49:16Z</time>
      </trkpt>
      <trkpt lat="44.17909" lon="3.12526">
        <ele>398.4</ele>
        <time>2022-04-05T15:49:15Z</time>
      </trkpt>
      <trkpt lat="44.17905" lon="3.12526">
        <ele>398.6</ele>
        <time>2022-04-05T15:49:14Z</time>
      </trkpt>
      <trkpt lat="44.17902" lon="3.12525">
        <ele>398.6</ele>
        <time>2022-04-05T15:49:13Z</time>
      </trkpt>
      <trkpt lat="44.179" lon="3.12524">
        <ele>399</ele>
        <time>2022-04-05T15:49:12Z</time>
      </trkpt>
      <trkpt lat="44.17898" lon="3.12524">
        <ele>399</ele>
        <time>2022-04-05T15:49:11Z</time>
      </trkpt>
      <trkpt lat="44.17896" lon="3.12523">
        <ele>399.2</ele>
        <time>2022-04-05T15:49:10Z</time>
      </trkpt>
      <trkpt lat="44.17893" lon="3.1252">
        <ele>399.2</ele>
        <time>2022-04-05T15:49:09Z</time>
      </trkpt>
      <trkpt lat="44.1789" lon="3.12518">
        <ele>399.4</ele>
        <time>2022-04-05T15:49:08Z</time>
      </trkpt>
      <trkpt lat="44.17888" lon="3.12516">
        <ele>399.4</ele>
        <time>2022-04-05T15:49:07Z</time>
      </trkpt>
      <trkpt lat="44.17884" lon="3.12514">
        <ele>399.6</ele>
        <time>2022-04-05T15:49:06Z</time>
      </trkpt>
      <trkpt lat="44.17881" lon="3.12513">
        <ele>399.8</ele>
        <time>2022-04-05T15:49:04Z</time>
      </trkpt>
      <trkpt lat="44.17881" lon="3.12513">
        <ele>400.2</ele>
        <time>2022-04-05T15:49:03Z</time>
      </trkpt>
      <trkpt lat="44.17877" lon="3.12509">
        <ele>400.4</ele>
        <time>2022-04-05T15:49:02Z</time>
      </trkpt>
      <trkpt lat="44.17874" lon="3.12508">
        <ele>401.2</ele>
        <time>2022-04-05T15:49:00Z</time>
      </trkpt>
      <trkpt lat="44.17871" lon="3.12508">
        <ele>401.8</ele>
        <time>2022-04-05T15:48:59Z</time>
      </trkpt>
      <trkpt lat="44.17869" lon="3.12508">
        <ele>402.2</ele>
        <time>2022-04-05T15:48:58Z</time>
      </trkpt>
      <trkpt lat="44.17868" lon="3.12506">
        <ele>403.6</ele>
        <time>2022-04-05T15:48:57Z</time>
      </trkpt>
      <trkpt lat="44.17867" lon="3.12506">
        <ele>403.8</ele>
        <time>2022-04-05T15:48:56Z</time>
      </trkpt>
      <trkpt lat="44.17865" lon="3.12505">
        <ele>404.2</ele>
        <time>2022-04-05T15:48:55Z</time>
      </trkpt>
      <trkpt lat="44.17862" lon="3.12505">
        <ele>405</ele>
        <time>2022-04-05T15:48:54Z</time>
      </trkpt>
      <trkpt lat="44.17858" lon="3.12505">
        <ele>405.2</ele>
        <time>2022-04-05T15:48:53Z</time>
      </trkpt>
      <trkpt lat="44.17855" lon="3.12504">
        <ele>405.6</ele>
        <time>2022-04-05T15:48:52Z</time>
      </trkpt>
      <trkpt lat="44.17849" lon="3.12504">
        <ele>405.8</ele>
        <time>2022-04-05T15:48:51Z</time>
      </trkpt>
      <trkpt lat="44.17842" lon="3.12504">
        <ele>406.4</ele>
        <time>2022-04-05T15:48:50Z</time>
      </trkpt>
      <trkpt lat="44.17837" lon="3.12505">
        <ele>406.4</ele>
        <time>2022-04-05T15:48:49Z</time>
      </trkpt>
      <trkpt lat="44.17832" lon="3.12505">
        <ele>406.4</ele>
        <time>2022-04-05T15:48:48Z</time>
      </trkpt>
      <trkpt lat="44.17828" lon="3.12504">
        <ele>406.4</ele>
        <time>2022-04-05T15:48:47Z</time>
      </trkpt>
      <trkpt lat="44.17822" lon="3.12503">
        <ele>406.4</ele>
        <time>2022-04-05T15:48:46Z</time>
      </trkpt>
      <trkpt lat="44.17817" lon="3.12503">
        <ele>406.6</ele>
        <time>2022-04-05T15:48:45Z</time>
      </trkpt>
      <trkpt lat="44.17813" lon="3.12504">
        <ele>406.6</ele>
        <time>2022-04-05T15:48:44Z</time>
      </trkpt>
      <trkpt lat="44.17812" lon="3.12504">
        <ele>406.6</ele>
        <time>2022-04-05T15:48:43Z</time>
      </trkpt>
      <trkpt lat="44.17808" lon="3.12503">
        <ele>406.6</ele>
        <time>2022-04-05T15:48:42Z</time>
      </trkpt>
      <trkpt lat="44.17805" lon="3.12503">
        <ele>406.8</ele>
        <time>2022-04-05T15:48:41Z</time>
      </trkpt>
      <trkpt lat="44.17802" lon="3.12504">
        <ele>406.8</ele>
        <time>2022-04-05T15:48:40Z</time>
      </trkpt>
      <trkpt lat="44.178" lon="3.12504">
        <ele>406.8</ele>
        <time>2022-04-05T15:48:39Z</time>
      </trkpt>
      <trkpt lat="44.17797" lon="3.12506">
        <ele>407</ele>
        <time>2022-04-05T15:48:38Z</time>
      </trkpt>
      <trkpt lat="44.17796" lon="3.12506">
        <ele>407</ele>
        <time>2022-04-05T15:48:37Z</time>
      </trkpt>
      <trkpt lat="44.17794" lon="3.12507">
        <ele>407.2</ele>
        <time>2022-04-05T15:48:36Z</time>
      </trkpt>
      <trkpt lat="44.17793" lon="3.12507">
        <ele>407.2</ele>
        <time>2022-04-05T15:48:35Z</time>
      </trkpt>
      <trkpt lat="44.17792" lon="3.12507">
        <ele>407.2</ele>
        <time>2022-04-05T15:48:34Z</time>
      </trkpt>
      <trkpt lat="44.17788" lon="3.12508">
        <ele>407.4</ele>
        <time>2022-04-05T15:48:33Z</time>
      </trkpt>
      <trkpt lat="44.17786" lon="3.12508">
        <ele>407.6</ele>
        <time>2022-04-05T15:48:32Z</time>
      </trkpt>
      <trkpt lat="44.17783" lon="3.12509">
        <ele>407.6</ele>
        <time>2022-04-05T15:48:31Z</time>
      </trkpt>
      <trkpt lat="44.1778" lon="3.12509">
        <ele>408</ele>
        <time>2022-04-05T15:48:30Z</time>
      </trkpt>
      <trkpt lat="44.17778" lon="3.1251">
        <ele>408</ele>
        <time>2022-04-05T15:48:29Z</time>
      </trkpt>
      <trkpt lat="44.17775" lon="3.12511">
        <ele>408.4</ele>
        <time>2022-04-05T15:48:28Z</time>
      </trkpt>
      <trkpt lat="44.17772" lon="3.12512">
        <ele>408.6</ele>
        <time>2022-04-05T15:48:27Z</time>
      </trkpt>
      <trkpt lat="44.17769" lon="3.12513">
        <ele>408.8</ele>
        <time>2022-04-05T15:48:26Z</time>
      </trkpt>
      <trkpt lat="44.17767" lon="3.12514">
        <ele>408.8</ele>
        <time>2022-04-05T15:48:25Z</time>
      </trkpt>
      <trkpt lat="44.17765" lon="3.12516">
        <ele>409.2</ele>
        <time>2022-04-05T15:48:24Z</time>
      </trkpt>
      <trkpt lat="44.17762" lon="3.12516">
        <ele>409.2</ele>
        <time>2022-04-05T15:48:23Z</time>
      </trkpt>
      <trkpt lat="44.17759" lon="3.12516">
        <ele>409.2</ele>
        <time>2022-04-05T15:48:22Z</time>
      </trkpt>
      <trkpt lat="44.17756" lon="3.12516">
        <ele>409.4</ele>
        <time>2022-04-05T15:48:21Z</time>
      </trkpt>
      <trkpt lat="44.17754" lon="3.12517">
        <ele>409.4</ele>
        <time>2022-04-05T15:48:20Z</time>
      </trkpt>
      <trkpt lat="44.17752" lon="3.12518">
        <ele>409.4</ele>
        <time>2022-04-05T15:48:19Z</time>
      </trkpt>
      <trkpt lat="44.17749" lon="3.12519">
        <ele>409.4</ele>
        <time>2022-04-05T15:48:18Z</time>
      </trkpt>
      <trkpt lat="44.17745" lon="3.1252">
        <ele>409.4</ele>
        <time>2022-04-05T15:48:17Z</time>
      </trkpt>
      <trkpt lat="44.17741" lon="3.12521">
        <ele>409.4</ele>
        <time>2022-04-05T15:48:16Z</time>
      </trkpt>
      <trkpt lat="44.17737" lon="3.12521">
        <ele>409.4</ele>
        <time>2022-04-05T15:48:15Z</time>
      </trkpt>
      <trkpt lat="44.17733" lon="3.12521">
        <ele>409.6</ele>
        <time>2022-04-05T15:48:14Z</time>
      </trkpt>
      <trkpt lat="44.17729" lon="3.1252">
        <ele>409.6</ele>
        <time>2022-04-05T15:48:13Z</time>
      </trkpt>
      <trkpt lat="44.17725" lon="3.1252">
        <ele>409.4</ele>
        <time>2022-04-05T15:48:12Z</time>
      </trkpt>
      <trkpt lat="44.17721" lon="3.1252">
        <ele>409.4</ele>
        <time>2022-04-05T15:48:11Z</time>
      </trkpt>
      <trkpt lat="44.17717" lon="3.12519">
        <ele>409.4</ele>
        <time>2022-04-05T15:48:10Z</time>
      </trkpt>
      <trkpt lat="44.17714" lon="3.12518">
        <ele>409.4</ele>
        <time>2022-04-05T15:48:09Z</time>
      </trkpt>
      <trkpt lat="44.17711" lon="3.12518">
        <ele>409.2</ele>
        <time>2022-04-05T15:48:08Z</time>
      </trkpt>
      <trkpt lat="44.17707" lon="3.12519">
        <ele>409.2</ele>
        <time>2022-04-05T15:48:07Z</time>
      </trkpt>
      <trkpt lat="44.17705" lon="3.1252">
        <ele>409</ele>
        <time>2022-04-05T15:48:06Z</time>
      </trkpt>
      <trkpt lat="44.17702" lon="3.12521">
        <ele>409</ele>
        <time>2022-04-05T15:48:05Z</time>
      </trkpt>
      <trkpt lat="44.177" lon="3.12523">
        <ele>408.8</ele>
        <time>2022-04-05T15:48:04Z</time>
      </trkpt>
      <trkpt lat="44.17698" lon="3.12524">
        <ele>408.6</ele>
        <time>2022-04-05T15:48:03Z</time>
      </trkpt>
      <trkpt lat="44.17696" lon="3.12525">
        <ele>407.8</ele>
        <time>2022-04-05T15:48:02Z</time>
      </trkpt>
      <trkpt lat="44.17694" lon="3.12526">
        <ele>407.6</ele>
        <time>2022-04-05T15:48:01Z</time>
      </trkpt>
      <trkpt lat="44.17693" lon="3.12527">
        <ele>407.4</ele>
        <time>2022-04-05T15:48:00Z</time>
      </trkpt>
      <trkpt lat="44.17692" lon="3.12528">
        <ele>407.2</ele>
        <time>2022-04-05T15:47:59Z</time>
      </trkpt>
      <trkpt lat="44.1769" lon="3.12529">
        <ele>407</ele>
        <time>2022-04-05T15:47:58Z</time>
      </trkpt>
      <trkpt lat="44.17688" lon="3.12529">
        <ele>406.6</ele>
        <time>2022-04-05T15:47:57Z</time>
      </trkpt>
      <trkpt lat="44.17686" lon="3.1253">
        <ele>406.4</ele>
        <time>2022-04-05T15:47:56Z</time>
      </trkpt>
      <trkpt lat="44.17684" lon="3.1253">
        <ele>406.4</ele>
        <time>2022-04-05T15:47:55Z</time>
      </trkpt>
      <trkpt lat="44.17682" lon="3.1253">
        <ele>406.2</ele>
        <time>2022-04-05T15:47:54Z</time>
      </trkpt>
      <trkpt lat="44.17681" lon="3.12532">
        <ele>405.8</ele>
        <time>2022-04-05T15:47:53Z</time>
      </trkpt>
      <trkpt lat="44.17679" lon="3.12534">
        <ele>405.6</ele>
        <time>2022-04-05T15:47:52Z</time>
      </trkpt>
      <trkpt lat="44.17676" lon="3.12536">
        <ele>405</ele>
        <time>2022-04-05T15:47:50Z</time>
      </trkpt>
      <trkpt lat="44.17674" lon="3.12537">
        <ele>404.8</ele>
        <time>2022-04-05T15:47:49Z</time>
      </trkpt>
      <trkpt lat="44.17672" lon="3.12539">
        <ele>404.4</ele>
        <time>2022-04-05T15:47:48Z</time>
      </trkpt>
      <trkpt lat="44.1767" lon="3.12538">
        <ele>404.2</ele>
        <time>2022-04-05T15:47:47Z</time>
      </trkpt>
      <trkpt lat="44.17668" lon="3.12538">
        <ele>404</ele>
        <time>2022-04-05T15:47:46Z</time>
      </trkpt>
      <trkpt lat="44.17665" lon="3.12538">
        <ele>403.8</ele>
        <time>2022-04-05T15:47:45Z</time>
      </trkpt>
      <trkpt lat="44.17664" lon="3.12539">
        <ele>403.2</ele>
        <time>2022-04-05T15:47:44Z</time>
      </trkpt>
      <trkpt lat="44.17661" lon="3.12539">
        <ele>403</ele>
        <time>2022-04-05T15:47:43Z</time>
      </trkpt>
      <trkpt lat="44.17659" lon="3.1254">
        <ele>402.6</ele>
        <time>2022-04-05T15:47:42Z</time>
      </trkpt>
      <trkpt lat="44.17658" lon="3.12541">
        <ele>402.4</ele>
        <time>2022-04-05T15:47:41Z</time>
      </trkpt>
      <trkpt lat="44.17656" lon="3.12542">
        <ele>402.2</ele>
        <time>2022-04-05T15:47:40Z</time>
      </trkpt>
      <trkpt lat="44.17654" lon="3.12543">
        <ele>402</ele>
        <time>2022-04-05T15:47:39Z</time>
      </trkpt>
      <trkpt lat="44.17652" lon="3.12544">
        <ele>402</ele>
        <time>2022-04-05T15:47:38Z</time>
      </trkpt>
      <trkpt lat="44.1765" lon="3.12545">
        <ele>401.8</ele>
        <time>2022-04-05T15:47:37Z</time>
      </trkpt>
      <trkpt lat="44.17648" lon="3.12545">
        <ele>401.8</ele>
        <time>2022-04-05T15:47:36Z</time>
      </trkpt>
      <trkpt lat="44.17646" lon="3.12545">
        <ele>401.4</ele>
        <time>2022-04-05T15:47:34Z</time>
      </trkpt>
      <trkpt lat="44.17645" lon="3.12546">
        <ele>401.2</ele>
        <time>2022-04-05T15:47:33Z</time>
      </trkpt>
      <trkpt lat="44.17644" lon="3.12547">
        <ele>401</ele>
        <time>2022-04-05T15:47:32Z</time>
      </trkpt>
      <trkpt lat="44.17643" lon="3.12548">
        <ele>400.6</ele>
        <time>2022-04-05T15:47:31Z</time>
      </trkpt>
      <trkpt lat="44.17641" lon="3.12549">
        <ele>400.6</ele>
        <time>2022-04-05T15:47:30Z</time>
      </trkpt>
      <trkpt lat="44.1764" lon="3.12551">
        <ele>400.6</ele>
        <time>2022-04-05T15:47:29Z</time>
      </trkpt>
      <trkpt lat="44.17638" lon="3.12552">
        <ele>400.4</ele>
        <time>2022-04-05T15:47:28Z</time>
      </trkpt>
      <trkpt lat="44.17632" lon="3.12555">
        <ele>400.4</ele>
        <time>2022-04-05T15:47:27Z</time>
      </trkpt>
      <trkpt lat="44.17628" lon="3.12557">
        <ele>400.4</ele>
        <time>2022-04-05T15:47:25Z</time>
      </trkpt>
      <trkpt lat="44.17624" lon="3.12559">
        <ele>400.4</ele>
        <time>2022-04-05T15:47:24Z</time>
      </trkpt>
      <trkpt lat="44.1762" lon="3.12561">
        <ele>400.4</ele>
        <time>2022-04-05T15:47:23Z</time>
      </trkpt>
      <trkpt lat="44.17616" lon="3.12562">
        <ele>400.2</ele>
        <time>2022-04-05T15:47:22Z</time>
      </trkpt>
      <trkpt lat="44.17612" lon="3.12565">
        <ele>400.2</ele>
        <time>2022-04-05T15:47:21Z</time>
      </trkpt>
      <trkpt lat="44.17608" lon="3.12566">
        <ele>400.4</ele>
        <time>2022-04-05T15:47:20Z</time>
      </trkpt>
      <trkpt lat="44.17603" lon="3.12568">
        <ele>400.4</ele>
        <time>2022-04-05T15:47:19Z</time>
      </trkpt>
      <trkpt lat="44.17598" lon="3.1257">
        <ele>400.4</ele>
        <time>2022-04-05T15:47:18Z</time>
      </trkpt>
      <trkpt lat="44.17594" lon="3.12572">
        <ele>400.4</ele>
        <time>2022-04-05T15:47:17Z</time>
      </trkpt>
      <trkpt lat="44.17585" lon="3.12576">
        <ele>400.4</ele>
        <time>2022-04-05T15:47:16Z</time>
      </trkpt>
      <trkpt lat="44.17583" lon="3.12577">
        <ele>400.6</ele>
        <time>2022-04-05T15:47:15Z</time>
      </trkpt>
      <trkpt lat="44.17581" lon="3.12578">
        <ele>400.6</ele>
        <time>2022-04-05T15:47:14Z</time>
      </trkpt>
      <trkpt lat="44.17576" lon="3.1258">
        <ele>400.6</ele>
        <time>2022-04-05T15:47:13Z</time>
      </trkpt>
      <trkpt lat="44.17572" lon="3.12583">
        <ele>400.6</ele>
        <time>2022-04-05T15:47:12Z</time>
      </trkpt>
      <trkpt lat="44.17567" lon="3.12585">
        <ele>400.8</ele>
        <time>2022-04-05T15:47:11Z</time>
      </trkpt>
      <trkpt lat="44.17564" lon="3.12587">
        <ele>400.8</ele>
        <time>2022-04-05T15:47:10Z</time>
      </trkpt>
      <trkpt lat="44.17559" lon="3.12589">
        <ele>400.8</ele>
        <time>2022-04-05T15:47:09Z</time>
      </trkpt>
      <trkpt lat="44.17554" lon="3.12591">
        <ele>400.8</ele>
        <time>2022-04-05T15:47:08Z</time>
      </trkpt>
      <trkpt lat="44.1755" lon="3.12593">
        <ele>401</ele>
        <time>2022-04-05T15:47:07Z</time>
      </trkpt>
      <trkpt lat="44.17545" lon="3.12594">
        <ele>401.2</ele>
        <time>2022-04-05T15:47:06Z</time>
      </trkpt>
      <trkpt lat="44.1754" lon="3.12595">
        <ele>401.2</ele>
        <time>2022-04-05T15:47:05Z</time>
      </trkpt>
      <trkpt lat="44.17535" lon="3.12596">
        <ele>401.2</ele>
        <time>2022-04-05T15:47:04Z</time>
      </trkpt>
      <trkpt lat="44.17531" lon="3.12597">
        <ele>401.2</ele>
        <time>2022-04-05T15:47:03Z</time>
      </trkpt>
      <trkpt lat="44.17526" lon="3.12598">
        <ele>401.2</ele>
        <time>2022-04-05T15:47:02Z</time>
      </trkpt>
      <trkpt lat="44.17521" lon="3.126">
        <ele>401.2</ele>
        <time>2022-04-05T15:47:01Z</time>
      </trkpt>
      <trkpt lat="44.17516" lon="3.12601">
        <ele>401.4</ele>
        <time>2022-04-05T15:47:00Z</time>
      </trkpt>
      <trkpt lat="44.17512" lon="3.12603">
        <ele>401.4</ele>
        <time>2022-04-05T15:46:59Z</time>
      </trkpt>
      <trkpt lat="44.17503" lon="3.12604">
        <ele>401.4</ele>
        <time>2022-04-05T15:46:58Z</time>
      </trkpt>
      <trkpt lat="44.17501" lon="3.12605">
        <ele>401.4</ele>
        <time>2022-04-05T15:46:57Z</time>
      </trkpt>
      <trkpt lat="44.17499" lon="3.12605">
        <ele>401.4</ele>
        <time>2022-04-05T15:46:56Z</time>
      </trkpt>
      <trkpt lat="44.17495" lon="3.12607">
        <ele>401.4</ele>
        <time>2022-04-05T15:46:55Z</time>
      </trkpt>
      <trkpt lat="44.17491" lon="3.12608">
        <ele>401.4</ele>
        <time>2022-04-05T15:46:54Z</time>
      </trkpt>
      <trkpt lat="44.17486" lon="3.12609">
        <ele>401.4</ele>
        <time>2022-04-05T15:46:53Z</time>
      </trkpt>
      <trkpt lat="44.17482" lon="3.1261">
        <ele>401.4</ele>
        <time>2022-04-05T15:46:52Z</time>
      </trkpt>
      <trkpt lat="44.17478" lon="3.12611">
        <ele>401.4</ele>
        <time>2022-04-05T15:46:51Z</time>
      </trkpt>
      <trkpt lat="44.17473" lon="3.12612">
        <ele>401.4</ele>
        <time>2022-04-05T15:46:50Z</time>
      </trkpt>
      <trkpt lat="44.17469" lon="3.12612">
        <ele>401.2</ele>
        <time>2022-04-05T15:46:49Z</time>
      </trkpt>
      <trkpt lat="44.17464" lon="3.12613">
        <ele>401.2</ele>
        <time>2022-04-05T15:46:48Z</time>
      </trkpt>
      <trkpt lat="44.1746" lon="3.12614">
        <ele>401</ele>
        <time>2022-04-05T15:46:47Z</time>
      </trkpt>
      <trkpt lat="44.17456" lon="3.12614">
        <ele>401</ele>
        <time>2022-04-05T15:46:46Z</time>
      </trkpt>
      <trkpt lat="44.17451" lon="3.12615">
        <ele>401</ele>
        <time>2022-04-05T15:46:45Z</time>
      </trkpt>
      <trkpt lat="44.17447" lon="3.12615">
        <ele>400.8</ele>
        <time>2022-04-05T15:46:44Z</time>
      </trkpt>
      <trkpt lat="44.17443" lon="3.12616">
        <ele>400.8</ele>
        <time>2022-04-05T15:46:43Z</time>
      </trkpt>
      <trkpt lat="44.17438" lon="3.12617">
        <ele>400.6</ele>
        <time>2022-04-05T15:46:42Z</time>
      </trkpt>
      <trkpt lat="44.17434" lon="3.12618">
        <ele>400.6</ele>
        <time>2022-04-05T15:46:41Z</time>
      </trkpt>
      <trkpt lat="44.1743" lon="3.12619">
        <ele>400.4</ele>
        <time>2022-04-05T15:46:40Z</time>
      </trkpt>
      <trkpt lat="44.17426" lon="3.1262">
        <ele>400.4</ele>
        <time>2022-04-05T15:46:39Z</time>
      </trkpt>
      <trkpt lat="44.17422" lon="3.12622">
        <ele>400.4</ele>
        <time>2022-04-05T15:46:38Z</time>
      </trkpt>
      <trkpt lat="44.17418" lon="3.12624">
        <ele>400.4</ele>
        <time>2022-04-05T15:46:37Z</time>
      </trkpt>
      <trkpt lat="44.1741" lon="3.12628">
        <ele>400.4</ele>
        <time>2022-04-05T15:46:36Z</time>
      </trkpt>
      <trkpt lat="44.17406" lon="3.1263">
        <ele>400.4</ele>
        <time>2022-04-05T15:46:35Z</time>
      </trkpt>
      <trkpt lat="44.17404" lon="3.12631">
        <ele>400.4</ele>
        <time>2022-04-05T15:46:34Z</time>
      </trkpt>
      <trkpt lat="44.17402" lon="3.12632">
        <ele>400.4</ele>
        <time>2022-04-05T15:46:33Z</time>
      </trkpt>
      <trkpt lat="44.17398" lon="3.12633">
        <ele>400.4</ele>
        <time>2022-04-05T15:46:32Z</time>
      </trkpt>
      <trkpt lat="44.17394" lon="3.12635">
        <ele>400.4</ele>
        <time>2022-04-05T15:46:31Z</time>
      </trkpt>
      <trkpt lat="44.1739" lon="3.12637">
        <ele>400.4</ele>
        <time>2022-04-05T15:46:30Z</time>
      </trkpt>
      <trkpt lat="44.17386" lon="3.12638">
        <ele>400.2</ele>
        <time>2022-04-05T15:46:29Z</time>
      </trkpt>
      <trkpt lat="44.17382" lon="3.12639">
        <ele>400.2</ele>
        <time>2022-04-05T15:46:28Z</time>
      </trkpt>
      <trkpt lat="44.17378" lon="3.1264">
        <ele>400.2</ele>
        <time>2022-04-05T15:46:27Z</time>
      </trkpt>
      <trkpt lat="44.17373" lon="3.12641">
        <ele>400.2</ele>
        <time>2022-04-05T15:46:26Z</time>
      </trkpt>
      <trkpt lat="44.17369" lon="3.12642">
        <ele>400.2</ele>
        <time>2022-04-05T15:46:25Z</time>
      </trkpt>
      <trkpt lat="44.17365" lon="3.12643">
        <ele>400.2</ele>
        <time>2022-04-05T15:46:24Z</time>
      </trkpt>
      <trkpt lat="44.1736" lon="3.12644">
        <ele>400.2</ele>
        <time>2022-04-05T15:46:23Z</time>
      </trkpt>
      <trkpt lat="44.17356" lon="3.12644">
        <ele>400.2</ele>
        <time>2022-04-05T15:46:22Z</time>
      </trkpt>
      <trkpt lat="44.17351" lon="3.12645">
        <ele>400.2</ele>
        <time>2022-04-05T15:46:21Z</time>
      </trkpt>
      <trkpt lat="44.17345" lon="3.12646">
        <ele>400.2</ele>
        <time>2022-04-05T15:46:20Z</time>
      </trkpt>
      <trkpt lat="44.1734" lon="3.12647">
        <ele>400.2</ele>
        <time>2022-04-05T15:46:19Z</time>
      </trkpt>
      <trkpt lat="44.17336" lon="3.12646">
        <ele>400.4</ele>
        <time>2022-04-05T15:46:18Z</time>
      </trkpt>
      <trkpt lat="44.17331" lon="3.12646">
        <ele>400.4</ele>
        <time>2022-04-05T15:46:17Z</time>
      </trkpt>
      <trkpt lat="44.17327" lon="3.12646">
        <ele>400.6</ele>
        <time>2022-04-05T15:46:16Z</time>
      </trkpt>
      <trkpt lat="44.17323" lon="3.12646">
        <ele>400.6</ele>
        <time>2022-04-05T15:46:15Z</time>
      </trkpt>
      <trkpt lat="44.17319" lon="3.12644">
        <ele>400.6</ele>
        <time>2022-04-05T15:46:14Z</time>
      </trkpt>
      <trkpt lat="44.17312" lon="3.12639">
        <ele>400.6</ele>
        <time>2022-04-05T15:46:13Z</time>
      </trkpt>
      <trkpt lat="44.17309" lon="3.12636">
        <ele>400.4</ele>
        <time>2022-04-05T15:46:12Z</time>
      </trkpt>
      <trkpt lat="44.17305" lon="3.12634">
        <ele>400.4</ele>
        <time>2022-04-05T15:46:11Z</time>
      </trkpt>
      <trkpt lat="44.173" lon="3.1263">
        <ele>400.4</ele>
        <time>2022-04-05T15:46:10Z</time>
      </trkpt>
      <trkpt lat="44.17297" lon="3.12628">
        <ele>400.2</ele>
        <time>2022-04-05T15:46:09Z</time>
      </trkpt>
      <trkpt lat="44.17288" lon="3.12625">
        <ele>400.2</ele>
        <time>2022-04-05T15:46:08Z</time>
      </trkpt>
      <trkpt lat="44.17284" lon="3.12624">
        <ele>400.2</ele>
        <time>2022-04-05T15:46:07Z</time>
      </trkpt>
      <trkpt lat="44.17282" lon="3.12623">
        <ele>400.2</ele>
        <time>2022-04-05T15:46:06Z</time>
      </trkpt>
      <trkpt lat="44.1728" lon="3.12622">
        <ele>400.2</ele>
        <time>2022-04-05T15:46:05Z</time>
      </trkpt>
      <trkpt lat="44.17274" lon="3.1262">
        <ele>400.2</ele>
        <time>2022-04-05T15:46:04Z</time>
      </trkpt>
      <trkpt lat="44.17271" lon="3.12619">
        <ele>400.2</ele>
        <time>2022-04-05T15:46:03Z</time>
      </trkpt>
      <trkpt lat="44.17269" lon="3.12618">
        <ele>400.2</ele>
        <time>2022-04-05T15:46:02Z</time>
      </trkpt>
      <trkpt lat="44.17266" lon="3.12619">
        <ele>400</ele>
        <time>2022-04-05T15:46:01Z</time>
      </trkpt>
      <trkpt lat="44.17259" lon="3.12616">
        <ele>400</ele>
        <time>2022-04-05T15:46:00Z</time>
      </trkpt>
      <trkpt lat="44.17256" lon="3.12615">
        <ele>400</ele>
        <time>2022-04-05T15:45:59Z</time>
      </trkpt>
      <trkpt lat="44.17253" lon="3.12613">
        <ele>400</ele>
        <time>2022-04-05T15:45:58Z</time>
      </trkpt>
      <trkpt lat="44.17247" lon="3.12612">
        <ele>399.8</ele>
        <time>2022-04-05T15:45:57Z</time>
      </trkpt>
      <trkpt lat="44.17244" lon="3.12612">
        <ele>399.8</ele>
        <time>2022-04-05T15:45:56Z</time>
      </trkpt>
      <trkpt lat="44.1724" lon="3.1261">
        <ele>399.6</ele>
        <time>2022-04-05T15:45:55Z</time>
      </trkpt>
      <trkpt lat="44.17234" lon="3.12609">
        <ele>399.6</ele>
        <time>2022-04-05T15:45:54Z</time>
      </trkpt>
      <trkpt lat="44.17231" lon="3.12608">
        <ele>399.6</ele>
        <time>2022-04-05T15:45:52Z</time>
      </trkpt>
      <trkpt lat="44.17227" lon="3.12606">
        <ele>399.6</ele>
        <time>2022-04-05T15:45:51Z</time>
      </trkpt>
      <trkpt lat="44.17223" lon="3.12605">
        <ele>399.4</ele>
        <time>2022-04-05T15:45:50Z</time>
      </trkpt>
      <trkpt lat="44.17215" lon="3.12602">
        <ele>399.4</ele>
        <time>2022-04-05T15:45:49Z</time>
      </trkpt>
      <trkpt lat="44.17213" lon="3.12601">
        <ele>399.4</ele>
        <time>2022-04-05T15:45:48Z</time>
      </trkpt>
      <trkpt lat="44.17211" lon="3.126">
        <ele>399.2</ele>
        <time>2022-04-05T15:45:47Z</time>
      </trkpt>
      <trkpt lat="44.17209" lon="3.12599">
        <ele>399.2</ele>
        <time>2022-04-05T15:45:46Z</time>
      </trkpt>
      <trkpt lat="44.17205" lon="3.12596">
        <ele>399.2</ele>
        <time>2022-04-05T15:45:45Z</time>
      </trkpt>
      <trkpt lat="44.17202" lon="3.12594">
        <ele>399.2</ele>
        <time>2022-04-05T15:45:44Z</time>
      </trkpt>
      <trkpt lat="44.17199" lon="3.12591">
        <ele>398.8</ele>
        <time>2022-04-05T15:45:43Z</time>
      </trkpt>
      <trkpt lat="44.17196" lon="3.12588">
        <ele>398.8</ele>
        <time>2022-04-05T15:45:42Z</time>
      </trkpt>
      <trkpt lat="44.17193" lon="3.12586">
        <ele>398.8</ele>
        <time>2022-04-05T15:45:41Z</time>
      </trkpt>
      <trkpt lat="44.1719" lon="3.12582">
        <ele>398.8</ele>
        <time>2022-04-05T15:45:40Z</time>
      </trkpt>
      <trkpt lat="44.17187" lon="3.12578">
        <ele>398.8</ele>
        <time>2022-04-05T15:45:39Z</time>
      </trkpt>
      <trkpt lat="44.17183" lon="3.12574">
        <ele>398.8</ele>
        <time>2022-04-05T15:45:38Z</time>
      </trkpt>
      <trkpt lat="44.1718" lon="3.1257">
        <ele>398.8</ele>
        <time>2022-04-05T15:45:37Z</time>
      </trkpt>
      <trkpt lat="44.17177" lon="3.12566">
        <ele>398.8</ele>
        <time>2022-04-05T15:45:36Z</time>
      </trkpt>
      <trkpt lat="44.17174" lon="3.12562">
        <ele>398.8</ele>
        <time>2022-04-05T15:45:35Z</time>
      </trkpt>
      <trkpt lat="44.17171" lon="3.12558">
        <ele>398.6</ele>
        <time>2022-04-05T15:45:34Z</time>
      </trkpt>
      <trkpt lat="44.17168" lon="3.12554">
        <ele>398.6</ele>
        <time>2022-04-05T15:45:33Z</time>
      </trkpt>
      <trkpt lat="44.17165" lon="3.1255">
        <ele>398.6</ele>
        <time>2022-04-05T15:45:32Z</time>
      </trkpt>
      <trkpt lat="44.17162" lon="3.12545">
        <ele>398.6</ele>
        <time>2022-04-05T15:45:31Z</time>
      </trkpt>
      <trkpt lat="44.17156" lon="3.12537">
        <ele>398.4</ele>
        <time>2022-04-05T15:45:30Z</time>
      </trkpt>
      <trkpt lat="44.17153" lon="3.12533">
        <ele>398.2</ele>
        <time>2022-04-05T15:45:29Z</time>
      </trkpt>
      <trkpt lat="44.1715" lon="3.12529">
        <ele>398</ele>
        <time>2022-04-05T15:45:28Z</time>
      </trkpt>
      <trkpt lat="44.17147" lon="3.12523">
        <ele>397.8</ele>
        <time>2022-04-05T15:45:27Z</time>
      </trkpt>
      <trkpt lat="44.17143" lon="3.12518">
        <ele>397.8</ele>
        <time>2022-04-05T15:45:26Z</time>
      </trkpt>
      <trkpt lat="44.1714" lon="3.12513">
        <ele>397.8</ele>
        <time>2022-04-05T15:45:25Z</time>
      </trkpt>
      <trkpt lat="44.17136" lon="3.1251">
        <ele>397.8</ele>
        <time>2022-04-05T15:45:24Z</time>
      </trkpt>
      <trkpt lat="44.17132" lon="3.12506">
        <ele>397.8</ele>
        <time>2022-04-05T15:45:23Z</time>
      </trkpt>
      <trkpt lat="44.17129" lon="3.12504">
        <ele>397.8</ele>
        <time>2022-04-05T15:45:22Z</time>
      </trkpt>
      <trkpt lat="44.17126" lon="3.12501">
        <ele>397.8</ele>
        <time>2022-04-05T15:45:21Z</time>
      </trkpt>
      <trkpt lat="44.17117" lon="3.12496">
        <ele>397.8</ele>
        <time>2022-04-05T15:45:20Z</time>
      </trkpt>
      <trkpt lat="44.17115" lon="3.12495">
        <ele>397.8</ele>
        <time>2022-04-05T15:45:19Z</time>
      </trkpt>
      <trkpt lat="44.17114" lon="3.12493">
        <ele>397.8</ele>
        <time>2022-04-05T15:45:18Z</time>
      </trkpt>
      <trkpt lat="44.17111" lon="3.1249">
        <ele>397.8</ele>
        <time>2022-04-05T15:45:17Z</time>
      </trkpt>
      <trkpt lat="44.1711" lon="3.12489">
        <ele>397.8</ele>
        <time>2022-04-05T15:45:16Z</time>
      </trkpt>
      <trkpt lat="44.17104" lon="3.12484">
        <ele>397.6</ele>
        <time>2022-04-05T15:45:15Z</time>
      </trkpt>
      <trkpt lat="44.17101" lon="3.12482">
        <ele>397.6</ele>
        <time>2022-04-05T15:45:14Z</time>
      </trkpt>
      <trkpt lat="44.17098" lon="3.1248">
        <ele>397.6</ele>
        <time>2022-04-05T15:45:13Z</time>
      </trkpt>
      <trkpt lat="44.17094" lon="3.12477">
        <ele>397.6</ele>
        <time>2022-04-05T15:45:12Z</time>
      </trkpt>
      <trkpt lat="44.1709" lon="3.12474">
        <ele>397.6</ele>
        <time>2022-04-05T15:45:11Z</time>
      </trkpt>
      <trkpt lat="44.17087" lon="3.12472">
        <ele>397.6</ele>
        <time>2022-04-05T15:45:10Z</time>
      </trkpt>
      <trkpt lat="44.17083" lon="3.12468">
        <ele>397.6</ele>
        <time>2022-04-05T15:45:09Z</time>
      </trkpt>
      <trkpt lat="44.17078" lon="3.12464">
        <ele>397.8</ele>
        <time>2022-04-05T15:45:08Z</time>
      </trkpt>
      <trkpt lat="44.17067" lon="3.12455">
        <ele>397.8</ele>
        <time>2022-04-05T15:45:07Z</time>
      </trkpt>
      <trkpt lat="44.17062" lon="3.12452">
        <ele>397.8</ele>
        <time>2022-04-05T15:45:06Z</time>
      </trkpt>
      <trkpt lat="44.17059" lon="3.1245">
        <ele>398</ele>
        <time>2022-04-05T15:45:05Z</time>
      </trkpt>
      <trkpt lat="44.17057" lon="3.12448">
        <ele>398</ele>
        <time>2022-04-05T15:45:04Z</time>
      </trkpt>
      <trkpt lat="44.17052" lon="3.12445">
        <ele>398</ele>
        <time>2022-04-05T15:45:03Z</time>
      </trkpt>
      <trkpt lat="44.17048" lon="3.12442">
        <ele>398.2</ele>
        <time>2022-04-05T15:45:02Z</time>
      </trkpt>
      <trkpt lat="44.17044" lon="3.12438">
        <ele>398.2</ele>
        <time>2022-04-05T15:45:01Z</time>
      </trkpt>
      <trkpt lat="44.17034" lon="3.12427">
        <ele>398.2</ele>
        <time>2022-04-05T15:45:00Z</time>
      </trkpt>
      <trkpt lat="44.17032" lon="3.12425">
        <ele>398.2</ele>
        <time>2022-04-05T15:44:59Z</time>
      </trkpt>
      <trkpt lat="44.17025" lon="3.12419">
        <ele>398.2</ele>
        <time>2022-04-05T15:44:58Z</time>
      </trkpt>
      <trkpt lat="44.17023" lon="3.12417">
        <ele>398.4</ele>
        <time>2022-04-05T15:44:57Z</time>
      </trkpt>
      <trkpt lat="44.17017" lon="3.1241">
        <ele>398.4</ele>
        <time>2022-04-05T15:44:56Z</time>
      </trkpt>
      <trkpt lat="44.17014" lon="3.12408">
        <ele>398.4</ele>
        <time>2022-04-05T15:44:55Z</time>
      </trkpt>
      <trkpt lat="44.17012" lon="3.12405">
        <ele>398.6</ele>
        <time>2022-04-05T15:44:54Z</time>
      </trkpt>
      <trkpt lat="44.17006" lon="3.12396">
        <ele>398.6</ele>
        <time>2022-04-05T15:44:53Z</time>
      </trkpt>
      <trkpt lat="44.17003" lon="3.12393">
        <ele>398.6</ele>
        <time>2022-04-05T15:44:52Z</time>
      </trkpt>
      <trkpt lat="44.17" lon="3.1239">
        <ele>398.6</ele>
        <time>2022-04-05T15:44:51Z</time>
      </trkpt>
      <trkpt lat="44.16997" lon="3.12387">
        <ele>398.6</ele>
        <time>2022-04-05T15:44:50Z</time>
      </trkpt>
      <trkpt lat="44.16992" lon="3.12385">
        <ele>398.6</ele>
        <time>2022-04-05T15:44:49Z</time>
      </trkpt>
      <trkpt lat="44.16988" lon="3.12383">
        <ele>399</ele>
        <time>2022-04-05T15:44:48Z</time>
      </trkpt>
      <trkpt lat="44.16981" lon="3.12378">
        <ele>399</ele>
        <time>2022-04-05T15:44:47Z</time>
      </trkpt>
      <trkpt lat="44.16976" lon="3.12374">
        <ele>399.4</ele>
        <time>2022-04-05T15:44:46Z</time>
      </trkpt>
      <trkpt lat="44.1697" lon="3.12369">
        <ele>399.6</ele>
        <time>2022-04-05T15:44:45Z</time>
      </trkpt>
      <trkpt lat="44.16963" lon="3.12363">
        <ele>399.6</ele>
        <time>2022-04-05T15:44:44Z</time>
      </trkpt>
      <trkpt lat="44.16958" lon="3.12357">
        <ele>399.6</ele>
        <time>2022-04-05T15:44:43Z</time>
      </trkpt>
      <trkpt lat="44.16956" lon="3.12354">
        <ele>399.6</ele>
        <time>2022-04-05T15:44:42Z</time>
      </trkpt>
      <trkpt lat="44.16954" lon="3.12352">
        <ele>399.6</ele>
        <time>2022-04-05T15:44:41Z</time>
      </trkpt>
      <trkpt lat="44.16949" lon="3.12346">
        <ele>399.6</ele>
        <time>2022-04-05T15:44:40Z</time>
      </trkpt>
      <trkpt lat="44.16942" lon="3.12338">
        <ele>399.4</ele>
        <time>2022-04-05T15:44:39Z</time>
      </trkpt>
      <trkpt lat="44.16938" lon="3.12334">
        <ele>399.4</ele>
        <time>2022-04-05T15:44:38Z</time>
      </trkpt>
      <trkpt lat="44.16935" lon="3.1233">
        <ele>399.2</ele>
        <time>2022-04-05T15:44:37Z</time>
      </trkpt>
      <trkpt lat="44.16928" lon="3.12323">
        <ele>399.2</ele>
        <time>2022-04-05T15:44:36Z</time>
      </trkpt>
      <trkpt lat="44.16926" lon="3.12321">
        <ele>399</ele>
        <time>2022-04-05T15:44:35Z</time>
      </trkpt>
      <trkpt lat="44.16924" lon="3.12319">
        <ele>399</ele>
        <time>2022-04-05T15:44:34Z</time>
      </trkpt>
      <trkpt lat="44.16921" lon="3.12318">
        <ele>398.8</ele>
        <time>2022-04-05T15:44:32Z</time>
      </trkpt>
      <trkpt lat="44.16916" lon="3.12315">
        <ele>398.8</ele>
        <time>2022-04-05T15:44:31Z</time>
      </trkpt>
      <trkpt lat="44.16913" lon="3.1231">
        <ele>398.8</ele>
        <time>2022-04-05T15:44:30Z</time>
      </trkpt>
      <trkpt lat="44.16909" lon="3.12306">
        <ele>398.8</ele>
        <time>2022-04-05T15:44:29Z</time>
      </trkpt>
      <trkpt lat="44.16905" lon="3.12303">
        <ele>398.8</ele>
        <time>2022-04-05T15:44:28Z</time>
      </trkpt>
      <trkpt lat="44.16901" lon="3.123">
        <ele>398.8</ele>
        <time>2022-04-05T15:44:27Z</time>
      </trkpt>
      <trkpt lat="44.16898" lon="3.12297">
        <ele>398.8</ele>
        <time>2022-04-05T15:44:26Z</time>
      </trkpt>
      <trkpt lat="44.16894" lon="3.12294">
        <ele>398.8</ele>
        <time>2022-04-05T15:44:25Z</time>
      </trkpt>
      <trkpt lat="44.1689" lon="3.12291">
        <ele>398.8</ele>
        <time>2022-04-05T15:44:24Z</time>
      </trkpt>
      <trkpt lat="44.16887" lon="3.12288">
        <ele>398.8</ele>
        <time>2022-04-05T15:44:23Z</time>
      </trkpt>
      <trkpt lat="44.16884" lon="3.12286">
        <ele>398.8</ele>
        <time>2022-04-05T15:44:22Z</time>
      </trkpt>
      <trkpt lat="44.16881" lon="3.12283">
        <ele>399</ele>
        <time>2022-04-05T15:44:21Z</time>
      </trkpt>
      <trkpt lat="44.16878" lon="3.12279">
        <ele>399</ele>
        <time>2022-04-05T15:44:20Z</time>
      </trkpt>
      <trkpt lat="44.16874" lon="3.12277">
        <ele>398.8</ele>
        <time>2022-04-05T15:44:19Z</time>
      </trkpt>
      <trkpt lat="44.16871" lon="3.12274">
        <ele>398.8</ele>
        <time>2022-04-05T15:44:18Z</time>
      </trkpt>
      <trkpt lat="44.16868" lon="3.12272">
        <ele>398.8</ele>
        <time>2022-04-05T15:44:17Z</time>
      </trkpt>
      <trkpt lat="44.16865" lon="3.12269">
        <ele>398.8</ele>
        <time>2022-04-05T15:44:16Z</time>
      </trkpt>
      <trkpt lat="44.16862" lon="3.12266">
        <ele>399</ele>
        <time>2022-04-05T15:44:15Z</time>
      </trkpt>
      <trkpt lat="44.16858" lon="3.12262">
        <ele>399</ele>
        <time>2022-04-05T15:44:14Z</time>
      </trkpt>
      <trkpt lat="44.16856" lon="3.12258">
        <ele>399</ele>
        <time>2022-04-05T15:44:13Z</time>
      </trkpt>
      <trkpt lat="44.16854" lon="3.12256">
        <ele>399</ele>
        <time>2022-04-05T15:44:12Z</time>
      </trkpt>
      <trkpt lat="44.16852" lon="3.12254">
        <ele>399</ele>
        <time>2022-04-05T15:44:11Z</time>
      </trkpt>
      <trkpt lat="44.16849" lon="3.12251">
        <ele>399</ele>
        <time>2022-04-05T15:44:09Z</time>
      </trkpt>
      <trkpt lat="44.16841" lon="3.12245">
        <ele>399</ele>
        <time>2022-04-05T15:44:08Z</time>
      </trkpt>
      <trkpt lat="44.16839" lon="3.1224">
        <ele>399.2</ele>
        <time>2022-04-05T15:44:07Z</time>
      </trkpt>
      <trkpt lat="44.16836" lon="3.12235">
        <ele>399.2</ele>
        <time>2022-04-05T15:44:06Z</time>
      </trkpt>
      <trkpt lat="44.16833" lon="3.12231">
        <ele>399.4</ele>
        <time>2022-04-05T15:44:05Z</time>
      </trkpt>
      <trkpt lat="44.1683" lon="3.12226">
        <ele>399.4</ele>
        <time>2022-04-05T15:44:04Z</time>
      </trkpt>
      <trkpt lat="44.16828" lon="3.12223">
        <ele>399.4</ele>
        <time>2022-04-05T15:44:03Z</time>
      </trkpt>
      <trkpt lat="44.16825" lon="3.1222">
        <ele>399.6</ele>
        <time>2022-04-05T15:44:02Z</time>
      </trkpt>
      <trkpt lat="44.16822" lon="3.12217">
        <ele>399.6</ele>
        <time>2022-04-05T15:44:01Z</time>
      </trkpt>
      <trkpt lat="44.16819" lon="3.12214">
        <ele>399.6</ele>
        <time>2022-04-05T15:44:00Z</time>
      </trkpt>
      <trkpt lat="44.16817" lon="3.12212">
        <ele>399.6</ele>
        <time>2022-04-05T15:43:59Z</time>
      </trkpt>
      <trkpt lat="44.16815" lon="3.1221">
        <ele>399.6</ele>
        <time>2022-04-05T15:43:58Z</time>
      </trkpt>
      <trkpt lat="44.16813" lon="3.12206">
        <ele>399.6</ele>
        <time>2022-04-05T15:43:57Z</time>
      </trkpt>
      <trkpt lat="44.1681" lon="3.12202">
        <ele>399.6</ele>
        <time>2022-04-05T15:43:56Z</time>
      </trkpt>
      <trkpt lat="44.16807" lon="3.12197">
        <ele>399.6</ele>
        <time>2022-04-05T15:43:55Z</time>
      </trkpt>
      <trkpt lat="44.16803" lon="3.12191">
        <ele>399.8</ele>
        <time>2022-04-05T15:43:54Z</time>
      </trkpt>
      <trkpt lat="44.16799" lon="3.12186">
        <ele>399.8</ele>
        <time>2022-04-05T15:43:53Z</time>
      </trkpt>
      <trkpt lat="44.16796" lon="3.12182">
        <ele>399.8</ele>
        <time>2022-04-05T15:43:52Z</time>
      </trkpt>
      <trkpt lat="44.16793" lon="3.12177">
        <ele>399.6</ele>
        <time>2022-04-05T15:43:51Z</time>
      </trkpt>
      <trkpt lat="44.16791" lon="3.12173">
        <ele>399.6</ele>
        <time>2022-04-05T15:43:50Z</time>
      </trkpt>
      <trkpt lat="44.16788" lon="3.12168">
        <ele>399.6</ele>
        <time>2022-04-05T15:43:49Z</time>
      </trkpt>
      <trkpt lat="44.16786" lon="3.12164">
        <ele>399.6</ele>
        <time>2022-04-05T15:43:48Z</time>
      </trkpt>
      <trkpt lat="44.16783" lon="3.1216">
        <ele>399.6</ele>
        <time>2022-04-05T15:43:47Z</time>
      </trkpt>
      <trkpt lat="44.16779" lon="3.12156">
        <ele>399.6</ele>
        <time>2022-04-05T15:43:46Z</time>
      </trkpt>
      <trkpt lat="44.16775" lon="3.12152">
        <ele>399.8</ele>
        <time>2022-04-05T15:43:45Z</time>
      </trkpt>
      <trkpt lat="44.16772" lon="3.12147">
        <ele>399.8</ele>
        <time>2022-04-05T15:43:44Z</time>
      </trkpt>
      <trkpt lat="44.16769" lon="3.12141">
        <ele>399.8</ele>
        <time>2022-04-05T15:43:43Z</time>
      </trkpt>
      <trkpt lat="44.16767" lon="3.12135">
        <ele>399.8</ele>
        <time>2022-04-05T15:43:42Z</time>
      </trkpt>
      <trkpt lat="44.16764" lon="3.12128">
        <ele>400</ele>
        <time>2022-04-05T15:43:41Z</time>
      </trkpt>
      <trkpt lat="44.16762" lon="3.12122">
        <ele>400</ele>
        <time>2022-04-05T15:43:40Z</time>
      </trkpt>
      <trkpt lat="44.1676" lon="3.12116">
        <ele>400.2</ele>
        <time>2022-04-05T15:43:39Z</time>
      </trkpt>
      <trkpt lat="44.16759" lon="3.12109">
        <ele>400.2</ele>
        <time>2022-04-05T15:43:38Z</time>
      </trkpt>
      <trkpt lat="44.16757" lon="3.12103">
        <ele>400.4</ele>
        <time>2022-04-05T15:43:37Z</time>
      </trkpt>
      <trkpt lat="44.16756" lon="3.12096">
        <ele>400.8</ele>
        <time>2022-04-05T15:43:36Z</time>
      </trkpt>
      <trkpt lat="44.16754" lon="3.1209">
        <ele>401.4</ele>
        <time>2022-04-05T15:43:35Z</time>
      </trkpt>
      <trkpt lat="44.16753" lon="3.12083">
        <ele>401.6</ele>
        <time>2022-04-05T15:43:34Z</time>
      </trkpt>
      <trkpt lat="44.16751" lon="3.12077">
        <ele>402.2</ele>
        <time>2022-04-05T15:43:33Z</time>
      </trkpt>
      <trkpt lat="44.1675" lon="3.12072">
        <ele>402.6</ele>
        <time>2022-04-05T15:43:32Z</time>
      </trkpt>
      <trkpt lat="44.1675" lon="3.12066">
        <ele>403.6</ele>
        <time>2022-04-05T15:43:31Z</time>
      </trkpt>
      <trkpt lat="44.16753" lon="3.12061">
        <ele>405</ele>
        <time>2022-04-05T15:43:30Z</time>
      </trkpt>
      <trkpt lat="44.16757" lon="3.12057">
        <ele>405.6</ele>
        <time>2022-04-05T15:43:29Z</time>
      </trkpt>
      <trkpt lat="44.16762" lon="3.12053">
        <ele>406.6</ele>
        <time>2022-04-05T15:43:28Z</time>
      </trkpt>
      <trkpt lat="44.16767" lon="3.12049">
        <ele>406.8</ele>
        <time>2022-04-05T15:43:27Z</time>
      </trkpt>
      <trkpt lat="44.16773" lon="3.12045">
        <ele>407.2</ele>
        <time>2022-04-05T15:43:26Z</time>
      </trkpt>
      <trkpt lat="44.16779" lon="3.12041">
        <ele>407.4</ele>
        <time>2022-04-05T15:43:25Z</time>
      </trkpt>
      <trkpt lat="44.16786" lon="3.12036">
        <ele>407.8</ele>
        <time>2022-04-05T15:43:24Z</time>
      </trkpt>
      <trkpt lat="44.16792" lon="3.12031">
        <ele>408</ele>
        <time>2022-04-05T15:43:23Z</time>
      </trkpt>
      <trkpt lat="44.16799" lon="3.12026">
        <ele>408.4</ele>
        <time>2022-04-05T15:43:22Z</time>
      </trkpt>
      <trkpt lat="44.16806" lon="3.1202">
        <ele>409</ele>
        <time>2022-04-05T15:43:21Z</time>
      </trkpt>
      <trkpt lat="44.16813" lon="3.12015">
        <ele>409.2</ele>
        <time>2022-04-05T15:43:20Z</time>
      </trkpt>
      <trkpt lat="44.16819" lon="3.1201">
        <ele>409.6</ele>
        <time>2022-04-05T15:43:19Z</time>
      </trkpt>
      <trkpt lat="44.16825" lon="3.12005">
        <ele>409.8</ele>
        <time>2022-04-05T15:43:18Z</time>
      </trkpt>
      <trkpt lat="44.16832" lon="3.12001">
        <ele>410.2</ele>
        <time>2022-04-05T15:43:17Z</time>
      </trkpt>
      <trkpt lat="44.16838" lon="3.11997">
        <ele>410.2</ele>
        <time>2022-04-05T15:43:16Z</time>
      </trkpt>
      <trkpt lat="44.16843" lon="3.11995">
        <ele>410.4</ele>
        <time>2022-04-05T15:43:15Z</time>
      </trkpt>
      <trkpt lat="44.16848" lon="3.11995">
        <ele>410.6</ele>
        <time>2022-04-05T15:43:14Z</time>
      </trkpt>
      <trkpt lat="44.16853" lon="3.11993">
        <ele>410.8</ele>
        <time>2022-04-05T15:43:13Z</time>
      </trkpt>
      <trkpt lat="44.16855" lon="3.11988">
        <ele>410.8</ele>
        <time>2022-04-05T15:43:12Z</time>
      </trkpt>
      <trkpt lat="44.16855" lon="3.11982">
        <ele>410.8</ele>
        <time>2022-04-05T15:43:11Z</time>
      </trkpt>
      <trkpt lat="44.16852" lon="3.11974">
        <ele>410.8</ele>
        <time>2022-04-05T15:43:10Z</time>
      </trkpt>
      <trkpt lat="44.16849" lon="3.11967">
        <ele>410.8</ele>
        <time>2022-04-05T15:43:09Z</time>
      </trkpt>
      <trkpt lat="44.16846" lon="3.11959">
        <ele>410.8</ele>
        <time>2022-04-05T15:43:08Z</time>
      </trkpt>
      <trkpt lat="44.16843" lon="3.11951">
        <ele>410.8</ele>
        <time>2022-04-05T15:43:07Z</time>
      </trkpt>
      <trkpt lat="44.1684" lon="3.11944">
        <ele>410.8</ele>
        <time>2022-04-05T15:43:06Z</time>
      </trkpt>
      <trkpt lat="44.16837" lon="3.11936">
        <ele>410.8</ele>
        <time>2022-04-05T15:43:05Z</time>
      </trkpt>
      <trkpt lat="44.16835" lon="3.11929">
        <ele>410.8</ele>
        <time>2022-04-05T15:43:04Z</time>
      </trkpt>
      <trkpt lat="44.16832" lon="3.11921">
        <ele>410.6</ele>
        <time>2022-04-05T15:43:03Z</time>
      </trkpt>
      <trkpt lat="44.1683" lon="3.11913">
        <ele>410.6</ele>
        <time>2022-04-05T15:43:02Z</time>
      </trkpt>
      <trkpt lat="44.16828" lon="3.11905">
        <ele>410.4</ele>
        <time>2022-04-05T15:43:01Z</time>
      </trkpt>
      <trkpt lat="44.16826" lon="3.11897">
        <ele>410.4</ele>
        <time>2022-04-05T15:43:00Z</time>
      </trkpt>
      <trkpt lat="44.16824" lon="3.11888">
        <ele>410.4</ele>
        <time>2022-04-05T15:42:59Z</time>
      </trkpt>
      <trkpt lat="44.16823" lon="3.1188">
        <ele>410.4</ele>
        <time>2022-04-05T15:42:58Z</time>
      </trkpt>
      <trkpt lat="44.16822" lon="3.11871">
        <ele>410.2</ele>
        <time>2022-04-05T15:42:57Z</time>
      </trkpt>
      <trkpt lat="44.16821" lon="3.11863">
        <ele>410.2</ele>
        <time>2022-04-05T15:42:56Z</time>
      </trkpt>
      <trkpt lat="44.16821" lon="3.11854">
        <ele>410</ele>
        <time>2022-04-05T15:42:55Z</time>
      </trkpt>
      <trkpt lat="44.16821" lon="3.11845">
        <ele>410</ele>
        <time>2022-04-05T15:42:54Z</time>
      </trkpt>
      <trkpt lat="44.1682" lon="3.11837">
        <ele>409.8</ele>
        <time>2022-04-05T15:42:53Z</time>
      </trkpt>
      <trkpt lat="44.1682" lon="3.11829">
        <ele>409.6</ele>
        <time>2022-04-05T15:42:52Z</time>
      </trkpt>
      <trkpt lat="44.16819" lon="3.1182">
        <ele>409.4</ele>
        <time>2022-04-05T15:42:51Z</time>
      </trkpt>
      <trkpt lat="44.16818" lon="3.11812">
        <ele>409.4</ele>
        <time>2022-04-05T15:42:50Z</time>
      </trkpt>
      <trkpt lat="44.16818" lon="3.11806">
        <ele>409</ele>
        <time>2022-04-05T15:42:49Z</time>
      </trkpt>
      <trkpt lat="44.16817" lon="3.11797">
        <ele>408.6</ele>
        <time>2022-04-05T15:42:48Z</time>
      </trkpt>
      <trkpt lat="44.16816" lon="3.11789">
        <ele>408.6</ele>
        <time>2022-04-05T15:42:47Z</time>
      </trkpt>
      <trkpt lat="44.16814" lon="3.11781">
        <ele>408.4</ele>
        <time>2022-04-05T15:42:46Z</time>
      </trkpt>
      <trkpt lat="44.16813" lon="3.11773">
        <ele>408.4</ele>
        <time>2022-04-05T15:42:45Z</time>
      </trkpt>
      <trkpt lat="44.16811" lon="3.11766">
        <ele>408.4</ele>
        <time>2022-04-05T15:42:44Z</time>
      </trkpt>
      <trkpt lat="44.1681" lon="3.11759">
        <ele>408.2</ele>
        <time>2022-04-05T15:42:43Z</time>
      </trkpt>
      <trkpt lat="44.16808" lon="3.11751">
        <ele>408.2</ele>
        <time>2022-04-05T15:42:42Z</time>
      </trkpt>
      <trkpt lat="44.16805" lon="3.11744">
        <ele>408.2</ele>
        <time>2022-04-05T15:42:41Z</time>
      </trkpt>
      <trkpt lat="44.16803" lon="3.11737">
        <ele>407.8</ele>
        <time>2022-04-05T15:42:40Z</time>
      </trkpt>
      <trkpt lat="44.16801" lon="3.1173">
        <ele>407.8</ele>
        <time>2022-04-05T15:42:39Z</time>
      </trkpt>
      <trkpt lat="44.16799" lon="3.11723">
        <ele>407.8</ele>
        <time>2022-04-05T15:42:38Z</time>
      </trkpt>
      <trkpt lat="44.16797" lon="3.11715">
        <ele>407.8</ele>
        <time>2022-04-05T15:42:37Z</time>
      </trkpt>
      <trkpt lat="44.16795" lon="3.11708">
        <ele>407.8</ele>
        <time>2022-04-05T15:42:36Z</time>
      </trkpt>
      <trkpt lat="44.16793" lon="3.117">
        <ele>408.2</ele>
        <time>2022-04-05T15:42:35Z</time>
      </trkpt>
      <trkpt lat="44.16791" lon="3.11693">
        <ele>408.2</ele>
        <time>2022-04-05T15:42:34Z</time>
      </trkpt>
      <trkpt lat="44.16788" lon="3.11685">
        <ele>408</ele>
        <time>2022-04-05T15:42:33Z</time>
      </trkpt>
      <trkpt lat="44.16786" lon="3.11677">
        <ele>408</ele>
        <time>2022-04-05T15:42:32Z</time>
      </trkpt>
      <trkpt lat="44.16784" lon="3.11669">
        <ele>408</ele>
        <time>2022-04-05T15:42:31Z</time>
      </trkpt>
      <trkpt lat="44.16782" lon="3.11661">
        <ele>408.2</ele>
        <time>2022-04-05T15:42:30Z</time>
      </trkpt>
      <trkpt lat="44.16779" lon="3.11653">
        <ele>408.2</ele>
        <time>2022-04-05T15:42:29Z</time>
      </trkpt>
      <trkpt lat="44.16778" lon="3.11644">
        <ele>408.2</ele>
        <time>2022-04-05T15:42:28Z</time>
      </trkpt>
      <trkpt lat="44.16776" lon="3.11636">
        <ele>408.2</ele>
        <time>2022-04-05T15:42:27Z</time>
      </trkpt>
      <trkpt lat="44.16775" lon="3.11628">
        <ele>408.2</ele>
        <time>2022-04-05T15:42:26Z</time>
      </trkpt>
      <trkpt lat="44.16774" lon="3.11619">
        <ele>408.2</ele>
        <time>2022-04-05T15:42:25Z</time>
      </trkpt>
      <trkpt lat="44.16773" lon="3.11611">
        <ele>408.4</ele>
        <time>2022-04-05T15:42:24Z</time>
      </trkpt>
      <trkpt lat="44.16773" lon="3.11603">
        <ele>408.4</ele>
        <time>2022-04-05T15:42:23Z</time>
      </trkpt>
      <trkpt lat="44.16772" lon="3.11595">
        <ele>408.4</ele>
        <time>2022-04-05T15:42:22Z</time>
      </trkpt>
      <trkpt lat="44.16771" lon="3.11587">
        <ele>408.4</ele>
        <time>2022-04-05T15:42:21Z</time>
      </trkpt>
      <trkpt lat="44.1677" lon="3.11579">
        <ele>408.4</ele>
        <time>2022-04-05T15:42:20Z</time>
      </trkpt>
      <trkpt lat="44.16769" lon="3.11571">
        <ele>408.4</ele>
        <time>2022-04-05T15:42:19Z</time>
      </trkpt>
      <trkpt lat="44.16768" lon="3.11563">
        <ele>408.4</ele>
        <time>2022-04-05T15:42:18Z</time>
      </trkpt>
      <trkpt lat="44.16766" lon="3.11555">
        <ele>408.2</ele>
        <time>2022-04-05T15:42:17Z</time>
      </trkpt>
      <trkpt lat="44.16764" lon="3.11548">
        <ele>408.2</ele>
        <time>2022-04-05T15:42:16Z</time>
      </trkpt>
      <trkpt lat="44.16762" lon="3.1154">
        <ele>408.2</ele>
        <time>2022-04-05T15:42:15Z</time>
      </trkpt>
      <trkpt lat="44.16759" lon="3.11533">
        <ele>408</ele>
        <time>2022-04-05T15:42:14Z</time>
      </trkpt>
      <trkpt lat="44.16756" lon="3.11526">
        <ele>408</ele>
        <time>2022-04-05T15:42:13Z</time>
      </trkpt>
      <trkpt lat="44.16753" lon="3.11519">
        <ele>407.8</ele>
        <time>2022-04-05T15:42:12Z</time>
      </trkpt>
      <trkpt lat="44.1675" lon="3.11512">
        <ele>407.8</ele>
        <time>2022-04-05T15:42:11Z</time>
      </trkpt>
      <trkpt lat="44.16747" lon="3.11505">
        <ele>407.6</ele>
        <time>2022-04-05T15:42:10Z</time>
      </trkpt>
      <trkpt lat="44.16743" lon="3.11499">
        <ele>407.6</ele>
        <time>2022-04-05T15:42:09Z</time>
      </trkpt>
      <trkpt lat="44.16739" lon="3.11494">
        <ele>407.4</ele>
        <time>2022-04-05T15:42:08Z</time>
      </trkpt>
      <trkpt lat="44.16735" lon="3.11488">
        <ele>407.4</ele>
        <time>2022-04-05T15:42:07Z</time>
      </trkpt>
      <trkpt lat="44.1673" lon="3.11483">
        <ele>407.2</ele>
        <time>2022-04-05T15:42:06Z</time>
      </trkpt>
      <trkpt lat="44.16726" lon="3.11479">
        <ele>407.2</ele>
        <time>2022-04-05T15:42:05Z</time>
      </trkpt>
      <trkpt lat="44.16721" lon="3.11475">
        <ele>407</ele>
        <time>2022-04-05T15:42:04Z</time>
      </trkpt>
      <trkpt lat="44.16716" lon="3.11471">
        <ele>407</ele>
        <time>2022-04-05T15:42:03Z</time>
      </trkpt>
      <trkpt lat="44.1671" lon="3.11467">
        <ele>407</ele>
        <time>2022-04-05T15:42:02Z</time>
      </trkpt>
      <trkpt lat="44.16705" lon="3.11463">
        <ele>407</ele>
        <time>2022-04-05T15:42:01Z</time>
      </trkpt>
      <trkpt lat="44.167" lon="3.1146">
        <ele>406.8</ele>
        <time>2022-04-05T15:42:00Z</time>
      </trkpt>
      <trkpt lat="44.16695" lon="3.11456">
        <ele>406.6</ele>
        <time>2022-04-05T15:41:59Z</time>
      </trkpt>
      <trkpt lat="44.1669" lon="3.11452">
        <ele>406.6</ele>
        <time>2022-04-05T15:41:58Z</time>
      </trkpt>
      <trkpt lat="44.16684" lon="3.11449">
        <ele>406.6</ele>
        <time>2022-04-05T15:41:57Z</time>
      </trkpt>
      <trkpt lat="44.16679" lon="3.11445">
        <ele>406.6</ele>
        <time>2022-04-05T15:41:56Z</time>
      </trkpt>
      <trkpt lat="44.16674" lon="3.11442">
        <ele>406.6</ele>
        <time>2022-04-05T15:41:55Z</time>
      </trkpt>
      <trkpt lat="44.16668" lon="3.11438">
        <ele>406.6</ele>
        <time>2022-04-05T15:41:54Z</time>
      </trkpt>
      <trkpt lat="44.16663" lon="3.11435">
        <ele>406.6</ele>
        <time>2022-04-05T15:41:53Z</time>
      </trkpt>
      <trkpt lat="44.16658" lon="3.11431">
        <ele>406.6</ele>
        <time>2022-04-05T15:41:52Z</time>
      </trkpt>
      <trkpt lat="44.16652" lon="3.11428">
        <ele>406.6</ele>
        <time>2022-04-05T15:41:51Z</time>
      </trkpt>
      <trkpt lat="44.16647" lon="3.11425">
        <ele>406.6</ele>
        <time>2022-04-05T15:41:50Z</time>
      </trkpt>
      <trkpt lat="44.16642" lon="3.11421">
        <ele>406.6</ele>
        <time>2022-04-05T15:41:49Z</time>
      </trkpt>
      <trkpt lat="44.16637" lon="3.11418">
        <ele>406.6</ele>
        <time>2022-04-05T15:41:48Z</time>
      </trkpt>
      <trkpt lat="44.16632" lon="3.11415">
        <ele>406.8</ele>
        <time>2022-04-05T15:41:47Z</time>
      </trkpt>
      <trkpt lat="44.16628" lon="3.11412">
        <ele>406.8</ele>
        <time>2022-04-05T15:41:46Z</time>
      </trkpt>
      <trkpt lat="44.16623" lon="3.11409">
        <ele>406.8</ele>
        <time>2022-04-05T15:41:45Z</time>
      </trkpt>
      <trkpt lat="44.16618" lon="3.11405">
        <ele>407</ele>
        <time>2022-04-05T15:41:44Z</time>
      </trkpt>
      <trkpt lat="44.16613" lon="3.11401">
        <ele>407</ele>
        <time>2022-04-05T15:41:43Z</time>
      </trkpt>
      <trkpt lat="44.16609" lon="3.11397">
        <ele>407</ele>
        <time>2022-04-05T15:41:42Z</time>
      </trkpt>
      <trkpt lat="44.16604" lon="3.11394">
        <ele>407</ele>
        <time>2022-04-05T15:41:41Z</time>
      </trkpt>
      <trkpt lat="44.166" lon="3.1139">
        <ele>407.2</ele>
        <time>2022-04-05T15:41:40Z</time>
      </trkpt>
      <trkpt lat="44.16596" lon="3.11386">
        <ele>407.2</ele>
        <time>2022-04-05T15:41:39Z</time>
      </trkpt>
      <trkpt lat="44.16592" lon="3.11382">
        <ele>407.2</ele>
        <time>2022-04-05T15:41:38Z</time>
      </trkpt>
      <trkpt lat="44.16588" lon="3.11377">
        <ele>407.2</ele>
        <time>2022-04-05T15:41:37Z</time>
      </trkpt>
      <trkpt lat="44.16584" lon="3.11373">
        <ele>407</ele>
        <time>2022-04-05T15:41:36Z</time>
      </trkpt>
      <trkpt lat="44.1658" lon="3.11368">
        <ele>407</ele>
        <time>2022-04-05T15:41:35Z</time>
      </trkpt>
      <trkpt lat="44.16576" lon="3.11364">
        <ele>406.8</ele>
        <time>2022-04-05T15:41:34Z</time>
      </trkpt>
      <trkpt lat="44.16572" lon="3.11359">
        <ele>406.8</ele>
        <time>2022-04-05T15:41:33Z</time>
      </trkpt>
      <trkpt lat="44.16568" lon="3.11355">
        <ele>406.6</ele>
        <time>2022-04-05T15:41:32Z</time>
      </trkpt>
      <trkpt lat="44.16563" lon="3.1135">
        <ele>406.2</ele>
        <time>2022-04-05T15:41:31Z</time>
      </trkpt>
      <trkpt lat="44.16559" lon="3.11346">
        <ele>406</ele>
        <time>2022-04-05T15:41:30Z</time>
      </trkpt>
      <trkpt lat="44.16554" lon="3.11341">
        <ele>405.8</ele>
        <time>2022-04-05T15:41:29Z</time>
      </trkpt>
      <trkpt lat="44.1655" lon="3.11337">
        <ele>405.6</ele>
        <time>2022-04-05T15:41:28Z</time>
      </trkpt>
      <trkpt lat="44.16545" lon="3.11333">
        <ele>405.2</ele>
        <time>2022-04-05T15:41:27Z</time>
      </trkpt>
      <trkpt lat="44.16539" lon="3.1133">
        <ele>405.2</ele>
        <time>2022-04-05T15:41:26Z</time>
      </trkpt>
      <trkpt lat="44.16534" lon="3.11326">
        <ele>405</ele>
        <time>2022-04-05T15:41:25Z</time>
      </trkpt>
      <trkpt lat="44.16528" lon="3.11323">
        <ele>405</ele>
        <time>2022-04-05T15:41:24Z</time>
      </trkpt>
      <trkpt lat="44.16522" lon="3.11321">
        <ele>405</ele>
        <time>2022-04-05T15:41:23Z</time>
      </trkpt>
      <trkpt lat="44.16516" lon="3.11319">
        <ele>405</ele>
        <time>2022-04-05T15:41:22Z</time>
      </trkpt>
      <trkpt lat="44.1651" lon="3.11318">
        <ele>405</ele>
        <time>2022-04-05T15:41:21Z</time>
      </trkpt>
      <trkpt lat="44.16504" lon="3.11318">
        <ele>404.8</ele>
        <time>2022-04-05T15:41:20Z</time>
      </trkpt>
      <trkpt lat="44.16498" lon="3.11318">
        <ele>404.8</ele>
        <time>2022-04-05T15:41:19Z</time>
      </trkpt>
      <trkpt lat="44.16492" lon="3.11318">
        <ele>404.8</ele>
        <time>2022-04-05T15:41:18Z</time>
      </trkpt>
      <trkpt lat="44.16486" lon="3.11319">
        <ele>404.6</ele>
        <time>2022-04-05T15:41:17Z</time>
      </trkpt>
      <trkpt lat="44.1648" lon="3.11321">
        <ele>404.6</ele>
        <time>2022-04-05T15:41:16Z</time>
      </trkpt>
      <trkpt lat="44.16474" lon="3.11322">
        <ele>404.6</ele>
        <time>2022-04-05T15:41:15Z</time>
      </trkpt>
      <trkpt lat="44.16469" lon="3.11324">
        <ele>404.4</ele>
        <time>2022-04-05T15:41:14Z</time>
      </trkpt>
      <trkpt lat="44.16464" lon="3.11325">
        <ele>404.4</ele>
        <time>2022-04-05T15:41:13Z</time>
      </trkpt>
      <trkpt lat="44.16458" lon="3.11327">
        <ele>404.4</ele>
        <time>2022-04-05T15:41:12Z</time>
      </trkpt>
      <trkpt lat="44.16452" lon="3.11328">
        <ele>404.4</ele>
        <time>2022-04-05T15:41:11Z</time>
      </trkpt>
      <trkpt lat="44.16446" lon="3.11329">
        <ele>404.4</ele>
        <time>2022-04-05T15:41:10Z</time>
      </trkpt>
      <trkpt lat="44.16441" lon="3.11329">
        <ele>404.4</ele>
        <time>2022-04-05T15:41:09Z</time>
      </trkpt>
      <trkpt lat="44.16435" lon="3.1133">
        <ele>404.4</ele>
        <time>2022-04-05T15:41:08Z</time>
      </trkpt>
      <trkpt lat="44.16429" lon="3.1133">
        <ele>404.4</ele>
        <time>2022-04-05T15:41:07Z</time>
      </trkpt>
      <trkpt lat="44.16424" lon="3.11331">
        <ele>404.4</ele>
        <time>2022-04-05T15:41:06Z</time>
      </trkpt>
      <trkpt lat="44.16418" lon="3.11332">
        <ele>404.6</ele>
        <time>2022-04-05T15:41:05Z</time>
      </trkpt>
      <trkpt lat="44.16412" lon="3.11332">
        <ele>404.6</ele>
        <time>2022-04-05T15:41:04Z</time>
      </trkpt>
      <trkpt lat="44.16406" lon="3.11333">
        <ele>404.6</ele>
        <time>2022-04-05T15:41:03Z</time>
      </trkpt>
      <trkpt lat="44.16401" lon="3.11334">
        <ele>404.8</ele>
        <time>2022-04-05T15:41:02Z</time>
      </trkpt>
      <trkpt lat="44.16395" lon="3.11336">
        <ele>404.8</ele>
        <time>2022-04-05T15:41:01Z</time>
      </trkpt>
      <trkpt lat="44.16389" lon="3.11337">
        <ele>404.8</ele>
        <time>2022-04-05T15:41:00Z</time>
      </trkpt>
      <trkpt lat="44.16384" lon="3.11339">
        <ele>404.8</ele>
        <time>2022-04-05T15:40:59Z</time>
      </trkpt>
      <trkpt lat="44.16378" lon="3.11341">
        <ele>405</ele>
        <time>2022-04-05T15:40:58Z</time>
      </trkpt>
      <trkpt lat="44.16373" lon="3.11343">
        <ele>405</ele>
        <time>2022-04-05T15:40:57Z</time>
      </trkpt>
      <trkpt lat="44.16367" lon="3.11345">
        <ele>405</ele>
        <time>2022-04-05T15:40:56Z</time>
      </trkpt>
      <trkpt lat="44.16362" lon="3.11347">
        <ele>405</ele>
        <time>2022-04-05T15:40:55Z</time>
      </trkpt>
      <trkpt lat="44.16356" lon="3.11349">
        <ele>405</ele>
        <time>2022-04-05T15:40:54Z</time>
      </trkpt>
      <trkpt lat="44.16351" lon="3.11351">
        <ele>405</ele>
        <time>2022-04-05T15:40:53Z</time>
      </trkpt>
      <trkpt lat="44.16345" lon="3.11353">
        <ele>404.8</ele>
        <time>2022-04-05T15:40:52Z</time>
      </trkpt>
      <trkpt lat="44.1634" lon="3.11355">
        <ele>404.8</ele>
        <time>2022-04-05T15:40:51Z</time>
      </trkpt>
      <trkpt lat="44.16334" lon="3.11357">
        <ele>404.8</ele>
        <time>2022-04-05T15:40:50Z</time>
      </trkpt>
      <trkpt lat="44.16329" lon="3.11359">
        <ele>404.8</ele>
        <time>2022-04-05T15:40:49Z</time>
      </trkpt>
      <trkpt lat="44.16324" lon="3.1136">
        <ele>404.8</ele>
        <time>2022-04-05T15:40:48Z</time>
      </trkpt>
      <trkpt lat="44.16318" lon="3.11361">
        <ele>404.8</ele>
        <time>2022-04-05T15:40:47Z</time>
      </trkpt>
      <trkpt lat="44.16313" lon="3.11363">
        <ele>404.8</ele>
        <time>2022-04-05T15:40:46Z</time>
      </trkpt>
      <trkpt lat="44.16306" lon="3.11365">
        <ele>404.8</ele>
        <time>2022-04-05T15:40:45Z</time>
      </trkpt>
      <trkpt lat="44.16302" lon="3.11366">
        <ele>404.6</ele>
        <time>2022-04-05T15:40:44Z</time>
      </trkpt>
      <trkpt lat="44.16297" lon="3.11368">
        <ele>404.6</ele>
        <time>2022-04-05T15:40:43Z</time>
      </trkpt>
      <trkpt lat="44.16291" lon="3.11369">
        <ele>404.6</ele>
        <time>2022-04-05T15:40:42Z</time>
      </trkpt>
      <trkpt lat="44.16286" lon="3.11371">
        <ele>404.6</ele>
        <time>2022-04-05T15:40:41Z</time>
      </trkpt>
      <trkpt lat="44.16281" lon="3.11373">
        <ele>404.4</ele>
        <time>2022-04-05T15:40:40Z</time>
      </trkpt>
      <trkpt lat="44.16275" lon="3.11374">
        <ele>404.4</ele>
        <time>2022-04-05T15:40:39Z</time>
      </trkpt>
      <trkpt lat="44.1627" lon="3.11376">
        <ele>404.4</ele>
        <time>2022-04-05T15:40:38Z</time>
      </trkpt>
      <trkpt lat="44.16265" lon="3.11377">
        <ele>404.4</ele>
        <time>2022-04-05T15:40:37Z</time>
      </trkpt>
      <trkpt lat="44.1626" lon="3.11379">
        <ele>404.2</ele>
        <time>2022-04-05T15:40:36Z</time>
      </trkpt>
      <trkpt lat="44.16255" lon="3.11381">
        <ele>404.2</ele>
        <time>2022-04-05T15:40:35Z</time>
      </trkpt>
      <trkpt lat="44.16249" lon="3.11382">
        <ele>404.2</ele>
        <time>2022-04-05T15:40:34Z</time>
      </trkpt>
      <trkpt lat="44.16244" lon="3.11383">
        <ele>404.2</ele>
        <time>2022-04-05T15:40:33Z</time>
      </trkpt>
      <trkpt lat="44.16238" lon="3.11384">
        <ele>404</ele>
        <time>2022-04-05T15:40:32Z</time>
      </trkpt>
      <trkpt lat="44.16233" lon="3.11385">
        <ele>404</ele>
        <time>2022-04-05T15:40:31Z</time>
      </trkpt>
      <trkpt lat="44.16228" lon="3.11386">
        <ele>404</ele>
        <time>2022-04-05T15:40:30Z</time>
      </trkpt>
      <trkpt lat="44.16222" lon="3.11387">
        <ele>403.8</ele>
        <time>2022-04-05T15:40:29Z</time>
      </trkpt>
      <trkpt lat="44.16217" lon="3.11387">
        <ele>403.6</ele>
        <time>2022-04-05T15:40:28Z</time>
      </trkpt>
      <trkpt lat="44.16211" lon="3.11387">
        <ele>403.6</ele>
        <time>2022-04-05T15:40:27Z</time>
      </trkpt>
      <trkpt lat="44.16206" lon="3.11387">
        <ele>403.6</ele>
        <time>2022-04-05T15:40:26Z</time>
      </trkpt>
      <trkpt lat="44.162" lon="3.11386">
        <ele>403.6</ele>
        <time>2022-04-05T15:40:25Z</time>
      </trkpt>
      <trkpt lat="44.16195" lon="3.11384">
        <ele>403.6</ele>
        <time>2022-04-05T15:40:24Z</time>
      </trkpt>
      <trkpt lat="44.1619" lon="3.11383">
        <ele>403.4</ele>
        <time>2022-04-05T15:40:23Z</time>
      </trkpt>
      <trkpt lat="44.16185" lon="3.11381">
        <ele>403.4</ele>
        <time>2022-04-05T15:40:22Z</time>
      </trkpt>
      <trkpt lat="44.16179" lon="3.11378">
        <ele>403.2</ele>
        <time>2022-04-05T15:40:21Z</time>
      </trkpt>
      <trkpt lat="44.16174" lon="3.11375">
        <ele>403.2</ele>
        <time>2022-04-05T15:40:20Z</time>
      </trkpt>
      <trkpt lat="44.1617" lon="3.11372">
        <ele>403</ele>
        <time>2022-04-05T15:40:19Z</time>
      </trkpt>
      <trkpt lat="44.16165" lon="3.11369">
        <ele>403</ele>
        <time>2022-04-05T15:40:18Z</time>
      </trkpt>
      <trkpt lat="44.1616" lon="3.11365">
        <ele>402.8</ele>
        <time>2022-04-05T15:40:17Z</time>
      </trkpt>
      <trkpt lat="44.16155" lon="3.11361">
        <ele>402.8</ele>
        <time>2022-04-05T15:40:16Z</time>
      </trkpt>
      <trkpt lat="44.1615" lon="3.11357">
        <ele>402.8</ele>
        <time>2022-04-05T15:40:15Z</time>
      </trkpt>
      <trkpt lat="44.16146" lon="3.11352">
        <ele>402.6</ele>
        <time>2022-04-05T15:40:14Z</time>
      </trkpt>
      <trkpt lat="44.16142" lon="3.11347">
        <ele>402.6</ele>
        <time>2022-04-05T15:40:13Z</time>
      </trkpt>
      <trkpt lat="44.16138" lon="3.11341">
        <ele>402.4</ele>
        <time>2022-04-05T15:40:12Z</time>
      </trkpt>
      <trkpt lat="44.16134" lon="3.11336">
        <ele>402.4</ele>
        <time>2022-04-05T15:40:11Z</time>
      </trkpt>
      <trkpt lat="44.1613" lon="3.1133">
        <ele>402.4</ele>
        <time>2022-04-05T15:40:10Z</time>
      </trkpt>
      <trkpt lat="44.16126" lon="3.11324">
        <ele>402.4</ele>
        <time>2022-04-05T15:40:09Z</time>
      </trkpt>
      <trkpt lat="44.16123" lon="3.11318">
        <ele>402.4</ele>
        <time>2022-04-05T15:40:08Z</time>
      </trkpt>
      <trkpt lat="44.16119" lon="3.11311">
        <ele>402.4</ele>
        <time>2022-04-05T15:40:07Z</time>
      </trkpt>
      <trkpt lat="44.16116" lon="3.11305">
        <ele>402.4</ele>
        <time>2022-04-05T15:40:06Z</time>
      </trkpt>
      <trkpt lat="44.16112" lon="3.11298">
        <ele>402.4</ele>
        <time>2022-04-05T15:40:05Z</time>
      </trkpt>
      <trkpt lat="44.16109" lon="3.11291">
        <ele>402.6</ele>
        <time>2022-04-05T15:40:04Z</time>
      </trkpt>
      <trkpt lat="44.16105" lon="3.11285">
        <ele>402.6</ele>
        <time>2022-04-05T15:40:03Z</time>
      </trkpt>
      <trkpt lat="44.16102" lon="3.11278">
        <ele>402.8</ele>
        <time>2022-04-05T15:40:02Z</time>
      </trkpt>
      <trkpt lat="44.16098" lon="3.11272">
        <ele>402.8</ele>
        <time>2022-04-05T15:40:01Z</time>
      </trkpt>
      <trkpt lat="44.16095" lon="3.11265">
        <ele>402.8</ele>
        <time>2022-04-05T15:40:00Z</time>
      </trkpt>
      <trkpt lat="44.16092" lon="3.11259">
        <ele>402.8</ele>
        <time>2022-04-05T15:39:59Z</time>
      </trkpt>
      <trkpt lat="44.16088" lon="3.11253">
        <ele>403</ele>
        <time>2022-04-05T15:39:58Z</time>
      </trkpt>
      <trkpt lat="44.16085" lon="3.11247">
        <ele>403</ele>
        <time>2022-04-05T15:39:57Z</time>
      </trkpt>
      <trkpt lat="44.16082" lon="3.1124">
        <ele>403</ele>
        <time>2022-04-05T15:39:56Z</time>
      </trkpt>
      <trkpt lat="44.16079" lon="3.11234">
        <ele>402.8</ele>
        <time>2022-04-05T15:39:55Z</time>
      </trkpt>
      <trkpt lat="44.16075" lon="3.11228">
        <ele>402.8</ele>
        <time>2022-04-05T15:39:54Z</time>
      </trkpt>
      <trkpt lat="44.16072" lon="3.11221">
        <ele>402.6</ele>
        <time>2022-04-05T15:39:53Z</time>
      </trkpt>
      <trkpt lat="44.16069" lon="3.11215">
        <ele>402.6</ele>
        <time>2022-04-05T15:39:52Z</time>
      </trkpt>
      <trkpt lat="44.16066" lon="3.11209">
        <ele>402.6</ele>
        <time>2022-04-05T15:39:51Z</time>
      </trkpt>
      <trkpt lat="44.16063" lon="3.11203">
        <ele>402.4</ele>
        <time>2022-04-05T15:39:50Z</time>
      </trkpt>
      <trkpt lat="44.1606" lon="3.11196">
        <ele>402.4</ele>
        <time>2022-04-05T15:39:49Z</time>
      </trkpt>
      <trkpt lat="44.16057" lon="3.1119">
        <ele>402.4</ele>
        <time>2022-04-05T15:39:48Z</time>
      </trkpt>
      <trkpt lat="44.16053" lon="3.11184">
        <ele>402.4</ele>
        <time>2022-04-05T15:39:47Z</time>
      </trkpt>
      <trkpt lat="44.1605" lon="3.11177">
        <ele>402.4</ele>
        <time>2022-04-05T15:39:46Z</time>
      </trkpt>
      <trkpt lat="44.16047" lon="3.11171">
        <ele>402.4</ele>
        <time>2022-04-05T15:39:45Z</time>
      </trkpt>
      <trkpt lat="44.16043" lon="3.11165">
        <ele>402.4</ele>
        <time>2022-04-05T15:39:44Z</time>
      </trkpt>
      <trkpt lat="44.1604" lon="3.11158">
        <ele>402.4</ele>
        <time>2022-04-05T15:39:43Z</time>
      </trkpt>
      <trkpt lat="44.16037" lon="3.11152">
        <ele>402.4</ele>
        <time>2022-04-05T15:39:42Z</time>
      </trkpt>
      <trkpt lat="44.16034" lon="3.11145">
        <ele>402.4</ele>
        <time>2022-04-05T15:39:41Z</time>
      </trkpt>
      <trkpt lat="44.16031" lon="3.11139">
        <ele>402.4</ele>
        <time>2022-04-05T15:39:40Z</time>
      </trkpt>
      <trkpt lat="44.16028" lon="3.11133">
        <ele>402.4</ele>
        <time>2022-04-05T15:39:39Z</time>
      </trkpt>
      <trkpt lat="44.16025" lon="3.11126">
        <ele>402.4</ele>
        <time>2022-04-05T15:39:38Z</time>
      </trkpt>
      <trkpt lat="44.16022" lon="3.1112">
        <ele>402.4</ele>
        <time>2022-04-05T15:39:37Z</time>
      </trkpt>
      <trkpt lat="44.16019" lon="3.11113">
        <ele>402.4</ele>
        <time>2022-04-05T15:39:36Z</time>
      </trkpt>
      <trkpt lat="44.16016" lon="3.11107">
        <ele>402.4</ele>
        <time>2022-04-05T15:39:35Z</time>
      </trkpt>
      <trkpt lat="44.16013" lon="3.11101">
        <ele>402.6</ele>
        <time>2022-04-05T15:39:34Z</time>
      </trkpt>
      <trkpt lat="44.1601" lon="3.11094">
        <ele>402.6</ele>
        <time>2022-04-05T15:39:33Z</time>
      </trkpt>
      <trkpt lat="44.16007" lon="3.11088">
        <ele>402.6</ele>
        <time>2022-04-05T15:39:32Z</time>
      </trkpt>
      <trkpt lat="44.16004" lon="3.11081">
        <ele>402.6</ele>
        <time>2022-04-05T15:39:31Z</time>
      </trkpt>
      <trkpt lat="44.16001" lon="3.11075">
        <ele>402.6</ele>
        <time>2022-04-05T15:39:30Z</time>
      </trkpt>
      <trkpt lat="44.15998" lon="3.11069">
        <ele>402.6</ele>
        <time>2022-04-05T15:39:29Z</time>
      </trkpt>
      <trkpt lat="44.15995" lon="3.11063">
        <ele>402.6</ele>
        <time>2022-04-05T15:39:28Z</time>
      </trkpt>
      <trkpt lat="44.15992" lon="3.11056">
        <ele>402.6</ele>
        <time>2022-04-05T15:39:27Z</time>
      </trkpt>
      <trkpt lat="44.15989" lon="3.1105">
        <ele>402.6</ele>
        <time>2022-04-05T15:39:26Z</time>
      </trkpt>
      <trkpt lat="44.15986" lon="3.11043">
        <ele>402.6</ele>
        <time>2022-04-05T15:39:25Z</time>
      </trkpt>
      <trkpt lat="44.15983" lon="3.11037">
        <ele>402.6</ele>
        <time>2022-04-05T15:39:24Z</time>
      </trkpt>
      <trkpt lat="44.15981" lon="3.1103">
        <ele>402.6</ele>
        <time>2022-04-05T15:39:23Z</time>
      </trkpt>
      <trkpt lat="44.15978" lon="3.11023">
        <ele>402.6</ele>
        <time>2022-04-05T15:39:22Z</time>
      </trkpt>
      <trkpt lat="44.15975" lon="3.11016">
        <ele>402.4</ele>
        <time>2022-04-05T15:39:21Z</time>
      </trkpt>
      <trkpt lat="44.15973" lon="3.1101">
        <ele>402.4</ele>
        <time>2022-04-05T15:39:20Z</time>
      </trkpt>
      <trkpt lat="44.1597" lon="3.11003">
        <ele>402.4</ele>
        <time>2022-04-05T15:39:19Z</time>
      </trkpt>
      <trkpt lat="44.15968" lon="3.10995">
        <ele>402.4</ele>
        <time>2022-04-05T15:39:18Z</time>
      </trkpt>
      <trkpt lat="44.15966" lon="3.10988">
        <ele>402.2</ele>
        <time>2022-04-05T15:39:17Z</time>
      </trkpt>
      <trkpt lat="44.15964" lon="3.10981">
        <ele>402.2</ele>
        <time>2022-04-05T15:39:16Z</time>
      </trkpt>
      <trkpt lat="44.15962" lon="3.10973">
        <ele>402.2</ele>
        <time>2022-04-05T15:39:15Z</time>
      </trkpt>
      <trkpt lat="44.1596" lon="3.10966">
        <ele>402.2</ele>
        <time>2022-04-05T15:39:14Z</time>
      </trkpt>
      <trkpt lat="44.15958" lon="3.10958">
        <ele>402.4</ele>
        <time>2022-04-05T15:39:13Z</time>
      </trkpt>
      <trkpt lat="44.15957" lon="3.1095">
        <ele>402.2</ele>
        <time>2022-04-05T15:39:12Z</time>
      </trkpt>
      <trkpt lat="44.15955" lon="3.10943">
        <ele>402.2</ele>
        <time>2022-04-05T15:39:11Z</time>
      </trkpt>
      <trkpt lat="44.15954" lon="3.10935">
        <ele>402.2</ele>
        <time>2022-04-05T15:39:10Z</time>
      </trkpt>
      <trkpt lat="44.15952" lon="3.10928">
        <ele>402.2</ele>
        <time>2022-04-05T15:39:09Z</time>
      </trkpt>
      <trkpt lat="44.15951" lon="3.1092">
        <ele>402.2</ele>
        <time>2022-04-05T15:39:08Z</time>
      </trkpt>
      <trkpt lat="44.1595" lon="3.10912">
        <ele>402.2</ele>
        <time>2022-04-05T15:39:07Z</time>
      </trkpt>
      <trkpt lat="44.15949" lon="3.10904">
        <ele>402.4</ele>
        <time>2022-04-05T15:39:06Z</time>
      </trkpt>
      <trkpt lat="44.15948" lon="3.10897">
        <ele>402.4</ele>
        <time>2022-04-05T15:39:05Z</time>
      </trkpt>
      <trkpt lat="44.15947" lon="3.10889">
        <ele>402.2</ele>
        <time>2022-04-05T15:39:04Z</time>
      </trkpt>
      <trkpt lat="44.15946" lon="3.10881">
        <ele>402</ele>
        <time>2022-04-05T15:39:03Z</time>
      </trkpt>
      <trkpt lat="44.15944" lon="3.10873">
        <ele>402</ele>
        <time>2022-04-05T15:39:02Z</time>
      </trkpt>
      <trkpt lat="44.15943" lon="3.10866">
        <ele>402</ele>
        <time>2022-04-05T15:39:01Z</time>
      </trkpt>
      <trkpt lat="44.15942" lon="3.10858">
        <ele>402</ele>
        <time>2022-04-05T15:39:00Z</time>
      </trkpt>
      <trkpt lat="44.1594" lon="3.1085">
        <ele>402</ele>
        <time>2022-04-05T15:38:59Z</time>
      </trkpt>
      <trkpt lat="44.15939" lon="3.10843">
        <ele>402</ele>
        <time>2022-04-05T15:38:58Z</time>
      </trkpt>
      <trkpt lat="44.15939" lon="3.10835">
        <ele>401.8</ele>
        <time>2022-04-05T15:38:57Z</time>
      </trkpt>
      <trkpt lat="44.15938" lon="3.10827">
        <ele>401.8</ele>
        <time>2022-04-05T15:38:56Z</time>
      </trkpt>
      <trkpt lat="44.15936" lon="3.1082">
        <ele>401.6</ele>
        <time>2022-04-05T15:38:55Z</time>
      </trkpt>
      <trkpt lat="44.15934" lon="3.10812">
        <ele>401.6</ele>
        <time>2022-04-05T15:38:54Z</time>
      </trkpt>
      <trkpt lat="44.15933" lon="3.10805">
        <ele>401.6</ele>
        <time>2022-04-05T15:38:53Z</time>
      </trkpt>
      <trkpt lat="44.15932" lon="3.10797">
        <ele>401.4</ele>
        <time>2022-04-05T15:38:52Z</time>
      </trkpt>
      <trkpt lat="44.1593" lon="3.10789">
        <ele>401.4</ele>
        <time>2022-04-05T15:38:51Z</time>
      </trkpt>
      <trkpt lat="44.15928" lon="3.10782">
        <ele>401.4</ele>
        <time>2022-04-05T15:38:50Z</time>
      </trkpt>
      <trkpt lat="44.15927" lon="3.10774">
        <ele>401.2</ele>
        <time>2022-04-05T15:38:49Z</time>
      </trkpt>
      <trkpt lat="44.15925" lon="3.10766">
        <ele>401.2</ele>
        <time>2022-04-05T15:38:48Z</time>
      </trkpt>
      <trkpt lat="44.15924" lon="3.10759">
        <ele>401.2</ele>
        <time>2022-04-05T15:38:47Z</time>
      </trkpt>
      <trkpt lat="44.15922" lon="3.10751">
        <ele>401</ele>
        <time>2022-04-05T15:38:46Z</time>
      </trkpt>
      <trkpt lat="44.15921" lon="3.10744">
        <ele>400.8</ele>
        <time>2022-04-05T15:38:45Z</time>
      </trkpt>
      <trkpt lat="44.15919" lon="3.10737">
        <ele>400.8</ele>
        <time>2022-04-05T15:38:44Z</time>
      </trkpt>
      <trkpt lat="44.15917" lon="3.10729">
        <ele>400.4</ele>
        <time>2022-04-05T15:38:43Z</time>
      </trkpt>
      <trkpt lat="44.15916" lon="3.10722">
        <ele>400.4</ele>
        <time>2022-04-05T15:38:42Z</time>
      </trkpt>
      <trkpt lat="44.15915" lon="3.10715">
        <ele>400.2</ele>
        <time>2022-04-05T15:38:41Z</time>
      </trkpt>
      <trkpt lat="44.15913" lon="3.10708">
        <ele>400</ele>
        <time>2022-04-05T15:38:40Z</time>
      </trkpt>
      <trkpt lat="44.15912" lon="3.10701">
        <ele>400</ele>
        <time>2022-04-05T15:38:39Z</time>
      </trkpt>
      <trkpt lat="44.1591" lon="3.10694">
        <ele>399.8</ele>
        <time>2022-04-05T15:38:38Z</time>
      </trkpt>
      <trkpt lat="44.15908" lon="3.10687">
        <ele>399.8</ele>
        <time>2022-04-05T15:38:37Z</time>
      </trkpt>
      <trkpt lat="44.15907" lon="3.1068">
        <ele>399.6</ele>
        <time>2022-04-05T15:38:36Z</time>
      </trkpt>
      <trkpt lat="44.15905" lon="3.10672">
        <ele>399.6</ele>
        <time>2022-04-05T15:38:35Z</time>
      </trkpt>
      <trkpt lat="44.15904" lon="3.10665">
        <ele>399.4</ele>
        <time>2022-04-05T15:38:34Z</time>
      </trkpt>
      <trkpt lat="44.15902" lon="3.10658">
        <ele>399.4</ele>
        <time>2022-04-05T15:38:33Z</time>
      </trkpt>
      <trkpt lat="44.15901" lon="3.10651">
        <ele>399.4</ele>
        <time>2022-04-05T15:38:32Z</time>
      </trkpt>
      <trkpt lat="44.15899" lon="3.10644">
        <ele>399.2</ele>
        <time>2022-04-05T15:38:31Z</time>
      </trkpt>
      <trkpt lat="44.15898" lon="3.10636">
        <ele>399.2</ele>
        <time>2022-04-05T15:38:30Z</time>
      </trkpt>
      <trkpt lat="44.15896" lon="3.10629">
        <ele>399.2</ele>
        <time>2022-04-05T15:38:29Z</time>
      </trkpt>
      <trkpt lat="44.15895" lon="3.10621">
        <ele>399</ele>
        <time>2022-04-05T15:38:28Z</time>
      </trkpt>
      <trkpt lat="44.15894" lon="3.10614">
        <ele>399</ele>
        <time>2022-04-05T15:38:27Z</time>
      </trkpt>
      <trkpt lat="44.15892" lon="3.10606">
        <ele>399</ele>
        <time>2022-04-05T15:38:26Z</time>
      </trkpt>
      <trkpt lat="44.1589" lon="3.10599">
        <ele>399</ele>
        <time>2022-04-05T15:38:25Z</time>
      </trkpt>
      <trkpt lat="44.15889" lon="3.10591">
        <ele>399</ele>
        <time>2022-04-05T15:38:24Z</time>
      </trkpt>
      <trkpt lat="44.15887" lon="3.10583">
        <ele>399</ele>
        <time>2022-04-05T15:38:23Z</time>
      </trkpt>
      <trkpt lat="44.15885" lon="3.10576">
        <ele>399</ele>
        <time>2022-04-05T15:38:22Z</time>
      </trkpt>
      <trkpt lat="44.15884" lon="3.10568">
        <ele>399</ele>
        <time>2022-04-05T15:38:21Z</time>
      </trkpt>
      <trkpt lat="44.15882" lon="3.10561">
        <ele>399</ele>
        <time>2022-04-05T15:38:20Z</time>
      </trkpt>
      <trkpt lat="44.1588" lon="3.10553">
        <ele>399</ele>
        <time>2022-04-05T15:38:19Z</time>
      </trkpt>
      <trkpt lat="44.15878" lon="3.10546">
        <ele>399</ele>
        <time>2022-04-05T15:38:18Z</time>
      </trkpt>
      <trkpt lat="44.15876" lon="3.10538">
        <ele>399</ele>
        <time>2022-04-05T15:38:17Z</time>
      </trkpt>
      <trkpt lat="44.15875" lon="3.10531">
        <ele>399</ele>
        <time>2022-04-05T15:38:16Z</time>
      </trkpt>
      <trkpt lat="44.15873" lon="3.10524">
        <ele>399</ele>
        <time>2022-04-05T15:38:15Z</time>
      </trkpt>
      <trkpt lat="44.15871" lon="3.10516">
        <ele>399</ele>
        <time>2022-04-05T15:38:14Z</time>
      </trkpt>
      <trkpt lat="44.15869" lon="3.10509">
        <ele>399</ele>
        <time>2022-04-05T15:38:13Z</time>
      </trkpt>
      <trkpt lat="44.15866" lon="3.10502">
        <ele>398.8</ele>
        <time>2022-04-05T15:38:12Z</time>
      </trkpt>
      <trkpt lat="44.15864" lon="3.10495">
        <ele>398.8</ele>
        <time>2022-04-05T15:38:11Z</time>
      </trkpt>
      <trkpt lat="44.15862" lon="3.10487">
        <ele>399</ele>
        <time>2022-04-05T15:38:10Z</time>
      </trkpt>
      <trkpt lat="44.15859" lon="3.1048">
        <ele>398.8</ele>
        <time>2022-04-05T15:38:09Z</time>
      </trkpt>
      <trkpt lat="44.15857" lon="3.10473">
        <ele>399</ele>
        <time>2022-04-05T15:38:08Z</time>
      </trkpt>
      <trkpt lat="44.15854" lon="3.10466">
        <ele>399</ele>
        <time>2022-04-05T15:38:07Z</time>
      </trkpt>
      <trkpt lat="44.15852" lon="3.10458">
        <ele>399</ele>
        <time>2022-04-05T15:38:06Z</time>
      </trkpt>
      <trkpt lat="44.15849" lon="3.10451">
        <ele>399</ele>
        <time>2022-04-05T15:38:05Z</time>
      </trkpt>
      <trkpt lat="44.15847" lon="3.10444">
        <ele>399</ele>
        <time>2022-04-05T15:38:04Z</time>
      </trkpt>
      <trkpt lat="44.15844" lon="3.10437">
        <ele>399</ele>
        <time>2022-04-05T15:38:03Z</time>
      </trkpt>
      <trkpt lat="44.15842" lon="3.1043">
        <ele>399.2</ele>
        <time>2022-04-05T15:38:02Z</time>
      </trkpt>
      <trkpt lat="44.1584" lon="3.10423">
        <ele>399</ele>
        <time>2022-04-05T15:38:01Z</time>
      </trkpt>
      <trkpt lat="44.15837" lon="3.10416">
        <ele>399</ele>
        <time>2022-04-05T15:38:00Z</time>
      </trkpt>
      <trkpt lat="44.15836" lon="3.10409">
        <ele>399.2</ele>
        <time>2022-04-05T15:37:59Z</time>
      </trkpt>
      <trkpt lat="44.15834" lon="3.10401">
        <ele>399.2</ele>
        <time>2022-04-05T15:37:58Z</time>
      </trkpt>
      <trkpt lat="44.15832" lon="3.10394">
        <ele>399.2</ele>
        <time>2022-04-05T15:37:57Z</time>
      </trkpt>
      <trkpt lat="44.15831" lon="3.10386">
        <ele>399.2</ele>
        <time>2022-04-05T15:37:56Z</time>
      </trkpt>
      <trkpt lat="44.15829" lon="3.10379">
        <ele>399.4</ele>
        <time>2022-04-05T15:37:55Z</time>
      </trkpt>
      <trkpt lat="44.15828" lon="3.10371">
        <ele>399.4</ele>
        <time>2022-04-05T15:37:54Z</time>
      </trkpt>
      <trkpt lat="44.15827" lon="3.10364">
        <ele>399.4</ele>
        <time>2022-04-05T15:37:53Z</time>
      </trkpt>
      <trkpt lat="44.15826" lon="3.10356">
        <ele>399.4</ele>
        <time>2022-04-05T15:37:52Z</time>
      </trkpt>
      <trkpt lat="44.15825" lon="3.10349">
        <ele>399.4</ele>
        <time>2022-04-05T15:37:51Z</time>
      </trkpt>
      <trkpt lat="44.15824" lon="3.10341">
        <ele>399.4</ele>
        <time>2022-04-05T15:37:50Z</time>
      </trkpt>
      <trkpt lat="44.15823" lon="3.10333">
        <ele>399.4</ele>
        <time>2022-04-05T15:37:49Z</time>
      </trkpt>
      <trkpt lat="44.15822" lon="3.10326">
        <ele>399.4</ele>
        <time>2022-04-05T15:37:48Z</time>
      </trkpt>
      <trkpt lat="44.15821" lon="3.10318">
        <ele>399.4</ele>
        <time>2022-04-05T15:37:47Z</time>
      </trkpt>
      <trkpt lat="44.15819" lon="3.10311">
        <ele>399.4</ele>
        <time>2022-04-05T15:37:46Z</time>
      </trkpt>
      <trkpt lat="44.15818" lon="3.10303">
        <ele>399.4</ele>
        <time>2022-04-05T15:37:45Z</time>
      </trkpt>
      <trkpt lat="44.15817" lon="3.10296">
        <ele>399.4</ele>
        <time>2022-04-05T15:37:44Z</time>
      </trkpt>
      <trkpt lat="44.15816" lon="3.10289">
        <ele>399.4</ele>
        <time>2022-04-05T15:37:43Z</time>
      </trkpt>
      <trkpt lat="44.15815" lon="3.10281">
        <ele>399.4</ele>
        <time>2022-04-05T15:37:42Z</time>
      </trkpt>
      <trkpt lat="44.15813" lon="3.10274">
        <ele>399.4</ele>
        <time>2022-04-05T15:37:41Z</time>
      </trkpt>
      <trkpt lat="44.15812" lon="3.10266">
        <ele>399.4</ele>
        <time>2022-04-05T15:37:40Z</time>
      </trkpt>
      <trkpt lat="44.15811" lon="3.10259">
        <ele>399.4</ele>
        <time>2022-04-05T15:37:39Z</time>
      </trkpt>
      <trkpt lat="44.1581" lon="3.10251">
        <ele>399.4</ele>
        <time>2022-04-05T15:37:38Z</time>
      </trkpt>
      <trkpt lat="44.15809" lon="3.10244">
        <ele>399.4</ele>
        <time>2022-04-05T15:37:37Z</time>
      </trkpt>
      <trkpt lat="44.15808" lon="3.10236">
        <ele>399.4</ele>
        <time>2022-04-05T15:37:36Z</time>
      </trkpt>
      <trkpt lat="44.15807" lon="3.10229">
        <ele>399.4</ele>
        <time>2022-04-05T15:37:35Z</time>
      </trkpt>
      <trkpt lat="44.15807" lon="3.10223">
        <ele>399.4</ele>
        <time>2022-04-05T15:37:34Z</time>
      </trkpt>
      <trkpt lat="44.15806" lon="3.10213">
        <ele>399.2</ele>
        <time>2022-04-05T15:37:33Z</time>
      </trkpt>
      <trkpt lat="44.15805" lon="3.10206">
        <ele>399.2</ele>
        <time>2022-04-05T15:37:32Z</time>
      </trkpt>
      <trkpt lat="44.15804" lon="3.10198">
        <ele>399.2</ele>
        <time>2022-04-05T15:37:31Z</time>
      </trkpt>
      <trkpt lat="44.15803" lon="3.10191">
        <ele>398.8</ele>
        <time>2022-04-05T15:37:30Z</time>
      </trkpt>
      <trkpt lat="44.15802" lon="3.10183">
        <ele>398.8</ele>
        <time>2022-04-05T15:37:29Z</time>
      </trkpt>
      <trkpt lat="44.15801" lon="3.10176">
        <ele>398.8</ele>
        <time>2022-04-05T15:37:28Z</time>
      </trkpt>
      <trkpt lat="44.15799" lon="3.10169">
        <ele>398.8</ele>
        <time>2022-04-05T15:37:27Z</time>
      </trkpt>
      <trkpt lat="44.15799" lon="3.10161">
        <ele>398.8</ele>
        <time>2022-04-05T15:37:26Z</time>
      </trkpt>
      <trkpt lat="44.15798" lon="3.10154">
        <ele>398.8</ele>
        <time>2022-04-05T15:37:25Z</time>
      </trkpt>
      <trkpt lat="44.15797" lon="3.10147">
        <ele>398.8</ele>
        <time>2022-04-05T15:37:24Z</time>
      </trkpt>
      <trkpt lat="44.15796" lon="3.10139">
        <ele>398.8</ele>
        <time>2022-04-05T15:37:23Z</time>
      </trkpt>
      <trkpt lat="44.15794" lon="3.10132">
        <ele>399</ele>
        <time>2022-04-05T15:37:22Z</time>
      </trkpt>
      <trkpt lat="44.15793" lon="3.10125">
        <ele>399</ele>
        <time>2022-04-05T15:37:21Z</time>
      </trkpt>
      <trkpt lat="44.15792" lon="3.10118">
        <ele>399.2</ele>
        <time>2022-04-05T15:37:20Z</time>
      </trkpt>
      <trkpt lat="44.15791" lon="3.10111">
        <ele>399.2</ele>
        <time>2022-04-05T15:37:19Z</time>
      </trkpt>
      <trkpt lat="44.1579" lon="3.10104">
        <ele>399.2</ele>
        <time>2022-04-05T15:37:18Z</time>
      </trkpt>
      <trkpt lat="44.15789" lon="3.10097">
        <ele>399.2</ele>
        <time>2022-04-05T15:37:17Z</time>
      </trkpt>
      <trkpt lat="44.15788" lon="3.10091">
        <ele>399.2</ele>
        <time>2022-04-05T15:37:16Z</time>
      </trkpt>
      <trkpt lat="44.15787" lon="3.10084">
        <ele>399.2</ele>
        <time>2022-04-05T15:37:15Z</time>
      </trkpt>
      <trkpt lat="44.15786" lon="3.10077">
        <ele>399.2</ele>
        <time>2022-04-05T15:37:14Z</time>
      </trkpt>
      <trkpt lat="44.15786" lon="3.1007">
        <ele>399.2</ele>
        <time>2022-04-05T15:37:13Z</time>
      </trkpt>
      <trkpt lat="44.15785" lon="3.10064">
        <ele>399.2</ele>
        <time>2022-04-05T15:37:12Z</time>
      </trkpt>
      <trkpt lat="44.15784" lon="3.10058">
        <ele>399.4</ele>
        <time>2022-04-05T15:37:11Z</time>
      </trkpt>
      <trkpt lat="44.15782" lon="3.10051">
        <ele>399.4</ele>
        <time>2022-04-05T15:37:10Z</time>
      </trkpt>
      <trkpt lat="44.15781" lon="3.10045">
        <ele>399.4</ele>
        <time>2022-04-05T15:37:09Z</time>
      </trkpt>
      <trkpt lat="44.1578" lon="3.10038">
        <ele>399.4</ele>
        <time>2022-04-05T15:37:08Z</time>
      </trkpt>
      <trkpt lat="44.15779" lon="3.10032">
        <ele>399.4</ele>
        <time>2022-04-05T15:37:07Z</time>
      </trkpt>
      <trkpt lat="44.15777" lon="3.10026">
        <ele>399.4</ele>
        <time>2022-04-05T15:37:06Z</time>
      </trkpt>
      <trkpt lat="44.15776" lon="3.10019">
        <ele>399.4</ele>
        <time>2022-04-05T15:37:05Z</time>
      </trkpt>
      <trkpt lat="44.15774" lon="3.10014">
        <ele>399.2</ele>
        <time>2022-04-05T15:37:04Z</time>
      </trkpt>
      <trkpt lat="44.15772" lon="3.10008">
        <ele>399.2</ele>
        <time>2022-04-05T15:37:03Z</time>
      </trkpt>
      <trkpt lat="44.1577" lon="3.10003">
        <ele>399.2</ele>
        <time>2022-04-05T15:37:02Z</time>
      </trkpt>
      <trkpt lat="44.15768" lon="3.09998">
        <ele>399.2</ele>
        <time>2022-04-05T15:37:01Z</time>
      </trkpt>
      <trkpt lat="44.15767" lon="3.09993">
        <ele>398.8</ele>
        <time>2022-04-05T15:37:00Z</time>
      </trkpt>
      <trkpt lat="44.15765" lon="3.09989">
        <ele>398.8</ele>
        <time>2022-04-05T15:36:59Z</time>
      </trkpt>
      <trkpt lat="44.15763" lon="3.09984">
        <ele>398.6</ele>
        <time>2022-04-05T15:36:58Z</time>
      </trkpt>
      <trkpt lat="44.15762" lon="3.0998">
        <ele>398.4</ele>
        <time>2022-04-05T15:36:57Z</time>
      </trkpt>
      <trkpt lat="44.1576" lon="3.09976">
        <ele>398.4</ele>
        <time>2022-04-05T15:36:56Z</time>
      </trkpt>
      <trkpt lat="44.15758" lon="3.09971">
        <ele>398.2</ele>
        <time>2022-04-05T15:36:55Z</time>
      </trkpt>
      <trkpt lat="44.15758" lon="3.09968">
        <ele>398</ele>
        <time>2022-04-05T15:36:54Z</time>
      </trkpt>
      <trkpt lat="44.15758" lon="3.09964">
        <ele>398</ele>
        <time>2022-04-05T15:36:53Z</time>
      </trkpt>
      <trkpt lat="44.15759" lon="3.09962">
        <ele>398</ele>
        <time>2022-04-05T15:36:52Z</time>
      </trkpt>
      <trkpt lat="44.1576" lon="3.0996">
        <ele>398</ele>
        <time>2022-04-05T15:36:51Z</time>
      </trkpt>
      <trkpt lat="44.15761" lon="3.09957">
        <ele>398</ele>
        <time>2022-04-05T15:36:50Z</time>
      </trkpt>
      <trkpt lat="44.15763" lon="3.09954">
        <ele>398.2</ele>
        <time>2022-04-05T15:36:49Z</time>
      </trkpt>
      <trkpt lat="44.15765" lon="3.0995">
        <ele>398.2</ele>
        <time>2022-04-05T15:36:48Z</time>
      </trkpt>
      <trkpt lat="44.15767" lon="3.09946">
        <ele>398.4</ele>
        <time>2022-04-05T15:36:47Z</time>
      </trkpt>
      <trkpt lat="44.15768" lon="3.09941">
        <ele>398.6</ele>
        <time>2022-04-05T15:36:46Z</time>
      </trkpt>
      <trkpt lat="44.15771" lon="3.09935">
        <ele>398.8</ele>
        <time>2022-04-05T15:36:45Z</time>
      </trkpt>
      <trkpt lat="44.15775" lon="3.09928">
        <ele>399</ele>
        <time>2022-04-05T15:36:44Z</time>
      </trkpt>
      <trkpt lat="44.15781" lon="3.09925">
        <ele>399</ele>
        <time>2022-04-05T15:36:43Z</time>
      </trkpt>
      <trkpt lat="44.15786" lon="3.09923">
        <ele>399.2</ele>
        <time>2022-04-05T15:36:42Z</time>
      </trkpt>
      <trkpt lat="44.1579" lon="3.09918">
        <ele>399.2</ele>
        <time>2022-04-05T15:36:41Z</time>
      </trkpt>
      <trkpt lat="44.15794" lon="3.09913">
        <ele>399.4</ele>
        <time>2022-04-05T15:36:40Z</time>
      </trkpt>
      <trkpt lat="44.15799" lon="3.09906">
        <ele>399.6</ele>
        <time>2022-04-05T15:36:39Z</time>
      </trkpt>
      <trkpt lat="44.15803" lon="3.09902">
        <ele>399.6</ele>
        <time>2022-04-05T15:36:38Z</time>
      </trkpt>
      <trkpt lat="44.15807" lon="3.09897">
        <ele>399.6</ele>
        <time>2022-04-05T15:36:37Z</time>
      </trkpt>
      <trkpt lat="44.1581" lon="3.09891">
        <ele>399.8</ele>
        <time>2022-04-05T15:36:36Z</time>
      </trkpt>
      <trkpt lat="44.15814" lon="3.09886">
        <ele>399.8</ele>
        <time>2022-04-05T15:36:35Z</time>
      </trkpt>
      <trkpt lat="44.15819" lon="3.09883">
        <ele>400</ele>
        <time>2022-04-05T15:36:34Z</time>
      </trkpt>
      <trkpt lat="44.15823" lon="3.09881">
        <ele>400</ele>
        <time>2022-04-05T15:36:33Z</time>
      </trkpt>
      <trkpt lat="44.15827" lon="3.09877">
        <ele>400</ele>
        <time>2022-04-05T15:36:32Z</time>
      </trkpt>
      <trkpt lat="44.1583" lon="3.09874">
        <ele>400.2</ele>
        <time>2022-04-05T15:36:31Z</time>
      </trkpt>
      <trkpt lat="44.15834" lon="3.09868">
        <ele>400.2</ele>
        <time>2022-04-05T15:36:30Z</time>
      </trkpt>
      <trkpt lat="44.15837" lon="3.09863">
        <ele>400.4</ele>
        <time>2022-04-05T15:36:29Z</time>
      </trkpt>
      <trkpt lat="44.15841" lon="3.09859">
        <ele>400.4</ele>
        <time>2022-04-05T15:36:28Z</time>
      </trkpt>
      <trkpt lat="44.15844" lon="3.09855">
        <ele>400.6</ele>
        <time>2022-04-05T15:36:27Z</time>
      </trkpt>
      <trkpt lat="44.15846" lon="3.09853">
        <ele>400.6</ele>
        <time>2022-04-05T15:36:26Z</time>
      </trkpt>
      <trkpt lat="44.15848" lon="3.0985">
        <ele>400.6</ele>
        <time>2022-04-05T15:36:25Z</time>
      </trkpt>
      <trkpt lat="44.15851" lon="3.09847">
        <ele>400.6</ele>
        <time>2022-04-05T15:36:24Z</time>
      </trkpt>
      <trkpt lat="44.15853" lon="3.09844">
        <ele>400.8</ele>
        <time>2022-04-05T15:36:23Z</time>
      </trkpt>
      <trkpt lat="44.15856" lon="3.0984">
        <ele>400.8</ele>
        <time>2022-04-05T15:36:22Z</time>
      </trkpt>
      <trkpt lat="44.15859" lon="3.09836">
        <ele>400.8</ele>
        <time>2022-04-05T15:36:21Z</time>
      </trkpt>
      <trkpt lat="44.15862" lon="3.0983">
        <ele>400.8</ele>
        <time>2022-04-05T15:36:20Z</time>
      </trkpt>
      <trkpt lat="44.15864" lon="3.09826">
        <ele>400.8</ele>
        <time>2022-04-05T15:36:19Z</time>
      </trkpt>
      <trkpt lat="44.15867" lon="3.09821">
        <ele>400.8</ele>
        <time>2022-04-05T15:36:18Z</time>
      </trkpt>
      <trkpt lat="44.1587" lon="3.09815">
        <ele>400.8</ele>
        <time>2022-04-05T15:36:17Z</time>
      </trkpt>
      <trkpt lat="44.15873" lon="3.09809">
        <ele>400.8</ele>
        <time>2022-04-05T15:36:16Z</time>
      </trkpt>
      <trkpt lat="44.15876" lon="3.09803">
        <ele>401</ele>
        <time>2022-04-05T15:36:15Z</time>
      </trkpt>
      <trkpt lat="44.15878" lon="3.09797">
        <ele>401</ele>
        <time>2022-04-05T15:36:14Z</time>
      </trkpt>
      <trkpt lat="44.15881" lon="3.09792">
        <ele>401.2</ele>
        <time>2022-04-05T15:36:13Z</time>
      </trkpt>
      <trkpt lat="44.15883" lon="3.09786">
        <ele>401.2</ele>
        <time>2022-04-05T15:36:12Z</time>
      </trkpt>
      <trkpt lat="44.15885" lon="3.09781">
        <ele>401.2</ele>
        <time>2022-04-05T15:36:11Z</time>
      </trkpt>
      <trkpt lat="44.15888" lon="3.09776">
        <ele>401.2</ele>
        <time>2022-04-05T15:36:10Z</time>
      </trkpt>
      <trkpt lat="44.15891" lon="3.09772">
        <ele>401.6</ele>
        <time>2022-04-05T15:36:09Z</time>
      </trkpt>
      <trkpt lat="44.15893" lon="3.09769">
        <ele>401.6</ele>
        <time>2022-04-05T15:36:08Z</time>
      </trkpt>
      <trkpt lat="44.15894" lon="3.09765">
        <ele>401.8</ele>
        <time>2022-04-05T15:36:07Z</time>
      </trkpt>
      <trkpt lat="44.15896" lon="3.09759">
        <ele>402</ele>
        <time>2022-04-05T15:36:06Z</time>
      </trkpt>
      <trkpt lat="44.15898" lon="3.09755">
        <ele>402.2</ele>
        <time>2022-04-05T15:36:05Z</time>
      </trkpt>
      <trkpt lat="44.15901" lon="3.0975">
        <ele>402.4</ele>
        <time>2022-04-05T15:36:04Z</time>
      </trkpt>
      <trkpt lat="44.15905" lon="3.09744">
        <ele>402.4</ele>
        <time>2022-04-05T15:36:03Z</time>
      </trkpt>
      <trkpt lat="44.15908" lon="3.09738">
        <ele>402.4</ele>
        <time>2022-04-05T15:36:02Z</time>
      </trkpt>
      <trkpt lat="44.15911" lon="3.09733">
        <ele>402.4</ele>
        <time>2022-04-05T15:36:01Z</time>
      </trkpt>
      <trkpt lat="44.15914" lon="3.09727">
        <ele>402.4</ele>
        <time>2022-04-05T15:36:00Z</time>
      </trkpt>
      <trkpt lat="44.15918" lon="3.09721">
        <ele>402.6</ele>
        <time>2022-04-05T15:35:59Z</time>
      </trkpt>
      <trkpt lat="44.15921" lon="3.09716">
        <ele>402.6</ele>
        <time>2022-04-05T15:35:58Z</time>
      </trkpt>
      <trkpt lat="44.15924" lon="3.09709">
        <ele>402.6</ele>
        <time>2022-04-05T15:35:57Z</time>
      </trkpt>
      <trkpt lat="44.15926" lon="3.09703">
        <ele>402.6</ele>
        <time>2022-04-05T15:35:56Z</time>
      </trkpt>
      <trkpt lat="44.15927" lon="3.09697">
        <ele>402.4</ele>
        <time>2022-04-05T15:35:55Z</time>
      </trkpt>
      <trkpt lat="44.15928" lon="3.09692">
        <ele>402.4</ele>
        <time>2022-04-05T15:35:54Z</time>
      </trkpt>
      <trkpt lat="44.1593" lon="3.09685">
        <ele>402.4</ele>
        <time>2022-04-05T15:35:53Z</time>
      </trkpt>
      <trkpt lat="44.15932" lon="3.09678">
        <ele>402.6</ele>
        <time>2022-04-05T15:35:52Z</time>
      </trkpt>
      <trkpt lat="44.15934" lon="3.09669">
        <ele>402.6</ele>
        <time>2022-04-05T15:35:51Z</time>
      </trkpt>
      <trkpt lat="44.15935" lon="3.09663">
        <ele>402.4</ele>
        <time>2022-04-05T15:35:50Z</time>
      </trkpt>
      <trkpt lat="44.15937" lon="3.09658">
        <ele>402.4</ele>
        <time>2022-04-05T15:35:49Z</time>
      </trkpt>
      <trkpt lat="44.15938" lon="3.09652">
        <ele>402.6</ele>
        <time>2022-04-05T15:35:48Z</time>
      </trkpt>
      <trkpt lat="44.1594" lon="3.09643">
        <ele>402.8</ele>
        <time>2022-04-05T15:35:47Z</time>
      </trkpt>
      <trkpt lat="44.15941" lon="3.09636">
        <ele>402.6</ele>
        <time>2022-04-05T15:35:46Z</time>
      </trkpt>
      <trkpt lat="44.15944" lon="3.0963">
        <ele>402.6</ele>
        <time>2022-04-05T15:35:45Z</time>
      </trkpt>
      <trkpt lat="44.15946" lon="3.09626">
        <ele>402.6</ele>
        <time>2022-04-05T15:35:44Z</time>
      </trkpt>
      <trkpt lat="44.15947" lon="3.09622">
        <ele>402.6</ele>
        <time>2022-04-05T15:35:43Z</time>
      </trkpt>
      <trkpt lat="44.15948" lon="3.09617">
        <ele>402.6</ele>
        <time>2022-04-05T15:35:42Z</time>
      </trkpt>
      <trkpt lat="44.15948" lon="3.09611">
        <ele>402.6</ele>
        <time>2022-04-05T15:35:41Z</time>
      </trkpt>
      <trkpt lat="44.15949" lon="3.09606">
        <ele>402.8</ele>
        <time>2022-04-05T15:35:40Z</time>
      </trkpt>
      <trkpt lat="44.1595" lon="3.09601">
        <ele>402.8</ele>
        <time>2022-04-05T15:35:39Z</time>
      </trkpt>
      <trkpt lat="44.15951" lon="3.09596">
        <ele>402.8</ele>
        <time>2022-04-05T15:35:38Z</time>
      </trkpt>
      <trkpt lat="44.15954" lon="3.0959">
        <ele>402.8</ele>
        <time>2022-04-05T15:35:37Z</time>
      </trkpt>
      <trkpt lat="44.15956" lon="3.09585">
        <ele>402.8</ele>
        <time>2022-04-05T15:35:36Z</time>
      </trkpt>
      <trkpt lat="44.1596" lon="3.09578">
        <ele>402.8</ele>
        <time>2022-04-05T15:35:35Z</time>
      </trkpt>
      <trkpt lat="44.15963" lon="3.09572">
        <ele>402.8</ele>
        <time>2022-04-05T15:35:34Z</time>
      </trkpt>
      <trkpt lat="44.15965" lon="3.09567">
        <ele>403</ele>
        <time>2022-04-05T15:35:33Z</time>
      </trkpt>
      <trkpt lat="44.15968" lon="3.09559">
        <ele>403</ele>
        <time>2022-04-05T15:35:32Z</time>
      </trkpt>
      <trkpt lat="44.15971" lon="3.09552">
        <ele>403</ele>
        <time>2022-04-05T15:35:31Z</time>
      </trkpt>
      <trkpt lat="44.15974" lon="3.09545">
        <ele>403</ele>
        <time>2022-04-05T15:35:30Z</time>
      </trkpt>
      <trkpt lat="44.15976" lon="3.09537">
        <ele>403.2</ele>
        <time>2022-04-05T15:35:29Z</time>
      </trkpt>
      <trkpt lat="44.15979" lon="3.0953">
        <ele>403.2</ele>
        <time>2022-04-05T15:35:28Z</time>
      </trkpt>
      <trkpt lat="44.15982" lon="3.09524">
        <ele>403.4</ele>
        <time>2022-04-05T15:35:27Z</time>
      </trkpt>
      <trkpt lat="44.15985" lon="3.09518">
        <ele>403.4</ele>
        <time>2022-04-05T15:35:26Z</time>
      </trkpt>
      <trkpt lat="44.15987" lon="3.09512">
        <ele>403.4</ele>
        <time>2022-04-05T15:35:25Z</time>
      </trkpt>
      <trkpt lat="44.1599" lon="3.09505">
        <ele>403.4</ele>
        <time>2022-04-05T15:35:24Z</time>
      </trkpt>
      <trkpt lat="44.15993" lon="3.09497">
        <ele>403.4</ele>
        <time>2022-04-05T15:35:23Z</time>
      </trkpt>
      <trkpt lat="44.15995" lon="3.0949">
        <ele>403.4</ele>
        <time>2022-04-05T15:35:22Z</time>
      </trkpt>
      <trkpt lat="44.15998" lon="3.09482">
        <ele>403.6</ele>
        <time>2022-04-05T15:35:21Z</time>
      </trkpt>
      <trkpt lat="44.16" lon="3.09475">
        <ele>403.6</ele>
        <time>2022-04-05T15:35:20Z</time>
      </trkpt>
      <trkpt lat="44.16003" lon="3.09468">
        <ele>403.6</ele>
        <time>2022-04-05T15:35:19Z</time>
      </trkpt>
      <trkpt lat="44.16006" lon="3.09461">
        <ele>403.6</ele>
        <time>2022-04-05T15:35:18Z</time>
      </trkpt>
      <trkpt lat="44.1601" lon="3.09454">
        <ele>403.8</ele>
        <time>2022-04-05T15:35:17Z</time>
      </trkpt>
      <trkpt lat="44.16013" lon="3.09447">
        <ele>404</ele>
        <time>2022-04-05T15:35:16Z</time>
      </trkpt>
      <trkpt lat="44.16017" lon="3.0944">
        <ele>404.4</ele>
        <time>2022-04-05T15:35:15Z</time>
      </trkpt>
      <trkpt lat="44.16021" lon="3.09433">
        <ele>404.6</ele>
        <time>2022-04-05T15:35:14Z</time>
      </trkpt>
      <trkpt lat="44.16024" lon="3.09425">
        <ele>405</ele>
        <time>2022-04-05T15:35:13Z</time>
      </trkpt>
      <trkpt lat="44.16027" lon="3.09417">
        <ele>405.2</ele>
        <time>2022-04-05T15:35:12Z</time>
      </trkpt>
      <trkpt lat="44.1603" lon="3.09408">
        <ele>405.4</ele>
        <time>2022-04-05T15:35:11Z</time>
      </trkpt>
      <trkpt lat="44.16032" lon="3.094">
        <ele>405.6</ele>
        <time>2022-04-05T15:35:10Z</time>
      </trkpt>
      <trkpt lat="44.16035" lon="3.09391">
        <ele>406</ele>
        <time>2022-04-05T15:35:09Z</time>
      </trkpt>
      <trkpt lat="44.16038" lon="3.09382">
        <ele>406.4</ele>
        <time>2022-04-05T15:35:08Z</time>
      </trkpt>
      <trkpt lat="44.1604" lon="3.09376">
        <ele>407.4</ele>
        <time>2022-04-05T15:35:07Z</time>
      </trkpt>
      <trkpt lat="44.16044" lon="3.09367">
        <ele>407.6</ele>
        <time>2022-04-05T15:35:06Z</time>
      </trkpt>
      <trkpt lat="44.16048" lon="3.09359">
        <ele>408.2</ele>
        <time>2022-04-05T15:35:05Z</time>
      </trkpt>
      <trkpt lat="44.16053" lon="3.09352">
        <ele>409</ele>
        <time>2022-04-05T15:35:04Z</time>
      </trkpt>
      <trkpt lat="44.16058" lon="3.09345">
        <ele>409.4</ele>
        <time>2022-04-05T15:35:03Z</time>
      </trkpt>
      <trkpt lat="44.16064" lon="3.09341">
        <ele>410.4</ele>
        <time>2022-04-05T15:35:02Z</time>
      </trkpt>
      <trkpt lat="44.16071" lon="3.09337">
        <ele>410.8</ele>
        <time>2022-04-05T15:35:01Z</time>
      </trkpt>
      <trkpt lat="44.16078" lon="3.09334">
        <ele>411</ele>
        <time>2022-04-05T15:35:00Z</time>
      </trkpt>
      <trkpt lat="44.16085" lon="3.09332">
        <ele>411</ele>
        <time>2022-04-05T15:34:59Z</time>
      </trkpt>
      <trkpt lat="44.16092" lon="3.0933">
        <ele>411</ele>
        <time>2022-04-05T15:34:58Z</time>
      </trkpt>
      <trkpt lat="44.16099" lon="3.09328">
        <ele>411</ele>
        <time>2022-04-05T15:34:57Z</time>
      </trkpt>
      <trkpt lat="44.16105" lon="3.09326">
        <ele>411</ele>
        <time>2022-04-05T15:34:56Z</time>
      </trkpt>
      <trkpt lat="44.16111" lon="3.09323">
        <ele>411</ele>
        <time>2022-04-05T15:34:55Z</time>
      </trkpt>
      <trkpt lat="44.16117" lon="3.09321">
        <ele>410.8</ele>
        <time>2022-04-05T15:34:54Z</time>
      </trkpt>
      <trkpt lat="44.16121" lon="3.09318">
        <ele>410.6</ele>
        <time>2022-04-05T15:34:53Z</time>
      </trkpt>
      <trkpt lat="44.16124" lon="3.09316">
        <ele>410.6</ele>
        <time>2022-04-05T15:34:52Z</time>
      </trkpt>
      <trkpt lat="44.16126" lon="3.09314">
        <ele>410.4</ele>
        <time>2022-04-05T15:34:51Z</time>
      </trkpt>
      <trkpt lat="44.16127" lon="3.09311">
        <ele>410.4</ele>
        <time>2022-04-05T15:34:50Z</time>
      </trkpt>
      <trkpt lat="44.16127" lon="3.09307">
        <ele>410.2</ele>
        <time>2022-04-05T15:34:49Z</time>
      </trkpt>
      <trkpt lat="44.16127" lon="3.09302">
        <ele>410.2</ele>
        <time>2022-04-05T15:34:48Z</time>
      </trkpt>
      <trkpt lat="44.16127" lon="3.09297">
        <ele>409.8</ele>
        <time>2022-04-05T15:34:47Z</time>
      </trkpt>
      <trkpt lat="44.16127" lon="3.09292">
        <ele>409.8</ele>
        <time>2022-04-05T15:34:46Z</time>
      </trkpt>
      <trkpt lat="44.16127" lon="3.09288">
        <ele>409.8</ele>
        <time>2022-04-05T15:34:45Z</time>
      </trkpt>
      <trkpt lat="44.16128" lon="3.09283">
        <ele>409.8</ele>
        <time>2022-04-05T15:34:44Z</time>
      </trkpt>
      <trkpt lat="44.16128" lon="3.09278">
        <ele>409.8</ele>
        <time>2022-04-05T15:34:43Z</time>
      </trkpt>
      <trkpt lat="44.16129" lon="3.09272">
        <ele>409.8</ele>
        <time>2022-04-05T15:34:42Z</time>
      </trkpt>
      <trkpt lat="44.16129" lon="3.09266">
        <ele>409.8</ele>
        <time>2022-04-05T15:34:41Z</time>
      </trkpt>
      <trkpt lat="44.1613" lon="3.0926">
        <ele>409.8</ele>
        <time>2022-04-05T15:34:40Z</time>
      </trkpt>
      <trkpt lat="44.1613" lon="3.09253">
        <ele>409.8</ele>
        <time>2022-04-05T15:34:39Z</time>
      </trkpt>
      <trkpt lat="44.16129" lon="3.09246">
        <ele>409.8</ele>
        <time>2022-04-05T15:34:38Z</time>
      </trkpt>
      <trkpt lat="44.16128" lon="3.09239">
        <ele>409.8</ele>
        <time>2022-04-05T15:34:37Z</time>
      </trkpt>
      <trkpt lat="44.16127" lon="3.09232">
        <ele>410</ele>
        <time>2022-04-05T15:34:36Z</time>
      </trkpt>
      <trkpt lat="44.16126" lon="3.09224">
        <ele>410</ele>
        <time>2022-04-05T15:34:35Z</time>
      </trkpt>
      <trkpt lat="44.16124" lon="3.09216">
        <ele>410.2</ele>
        <time>2022-04-05T15:34:34Z</time>
      </trkpt>
      <trkpt lat="44.16124" lon="3.09208">
        <ele>410.2</ele>
        <time>2022-04-05T15:34:33Z</time>
      </trkpt>
      <trkpt lat="44.16124" lon="3.09198">
        <ele>410.4</ele>
        <time>2022-04-05T15:34:32Z</time>
      </trkpt>
      <trkpt lat="44.16124" lon="3.09189">
        <ele>410.4</ele>
        <time>2022-04-05T15:34:31Z</time>
      </trkpt>
      <trkpt lat="44.16125" lon="3.09179">
        <ele>410.6</ele>
        <time>2022-04-05T15:34:30Z</time>
      </trkpt>
      <trkpt lat="44.16126" lon="3.09169">
        <ele>410.8</ele>
        <time>2022-04-05T15:34:29Z</time>
      </trkpt>
      <trkpt lat="44.16127" lon="3.09159">
        <ele>411</ele>
        <time>2022-04-05T15:34:28Z</time>
      </trkpt>
      <trkpt lat="44.16128" lon="3.09149">
        <ele>411.4</ele>
        <time>2022-04-05T15:34:27Z</time>
      </trkpt>
      <trkpt lat="44.16128" lon="3.09138">
        <ele>411.4</ele>
        <time>2022-04-05T15:34:26Z</time>
      </trkpt>
      <trkpt lat="44.16129" lon="3.09127">
        <ele>411.6</ele>
        <time>2022-04-05T15:34:25Z</time>
      </trkpt>
      <trkpt lat="44.1613" lon="3.09115">
        <ele>412.2</ele>
        <time>2022-04-05T15:34:24Z</time>
      </trkpt>
      <trkpt lat="44.16131" lon="3.09104">
        <ele>412.4</ele>
        <time>2022-04-05T15:34:23Z</time>
      </trkpt>
      <trkpt lat="44.16132" lon="3.09092">
        <ele>413</ele>
        <time>2022-04-05T15:34:22Z</time>
      </trkpt>
      <trkpt lat="44.16133" lon="3.09081">
        <ele>413.4</ele>
        <time>2022-04-05T15:34:21Z</time>
      </trkpt>
      <trkpt lat="44.16134" lon="3.09069">
        <ele>414.8</ele>
        <time>2022-04-05T15:34:20Z</time>
      </trkpt>
      <trkpt lat="44.16136" lon="3.09058">
        <ele>415.2</ele>
        <time>2022-04-05T15:34:19Z</time>
      </trkpt>
      <trkpt lat="44.16137" lon="3.09047">
        <ele>415.6</ele>
        <time>2022-04-05T15:34:18Z</time>
      </trkpt>
      <trkpt lat="44.16138" lon="3.09036">
        <ele>415.6</ele>
        <time>2022-04-05T15:34:17Z</time>
      </trkpt>
      <trkpt lat="44.16139" lon="3.09026">
        <ele>415.6</ele>
        <time>2022-04-05T15:34:16Z</time>
      </trkpt>
      <trkpt lat="44.1614" lon="3.09017">
        <ele>415.8</ele>
        <time>2022-04-05T15:34:15Z</time>
      </trkpt>
      <trkpt lat="44.16141" lon="3.09008">
        <ele>415.8</ele>
        <time>2022-04-05T15:34:14Z</time>
      </trkpt>
      <trkpt lat="44.16142" lon="3.09">
        <ele>415.8</ele>
        <time>2022-04-05T15:34:13Z</time>
      </trkpt>
      <trkpt lat="44.16142" lon="3.08993">
        <ele>415.8</ele>
        <time>2022-04-05T15:34:12Z</time>
      </trkpt>
      <trkpt lat="44.16141" lon="3.08986">
        <ele>415.6</ele>
        <time>2022-04-05T15:34:11Z</time>
      </trkpt>
      <trkpt lat="44.16139" lon="3.0898">
        <ele>415.6</ele>
        <time>2022-04-05T15:34:10Z</time>
      </trkpt>
      <trkpt lat="44.16137" lon="3.08974">
        <ele>415.6</ele>
        <time>2022-04-05T15:34:09Z</time>
      </trkpt>
      <trkpt lat="44.16136" lon="3.08968">
        <ele>415.6</ele>
        <time>2022-04-05T15:34:08Z</time>
      </trkpt>
      <trkpt lat="44.16135" lon="3.08962">
        <ele>415.6</ele>
        <time>2022-04-05T15:34:07Z</time>
      </trkpt>
      <trkpt lat="44.16136" lon="3.08956">
        <ele>415.6</ele>
        <time>2022-04-05T15:34:06Z</time>
      </trkpt>
      <trkpt lat="44.16138" lon="3.0895">
        <ele>415.6</ele>
        <time>2022-04-05T15:34:05Z</time>
      </trkpt>
      <trkpt lat="44.1614" lon="3.08944">
        <ele>415.6</ele>
        <time>2022-04-05T15:34:04Z</time>
      </trkpt>
      <trkpt lat="44.16142" lon="3.08938">
        <ele>415.6</ele>
        <time>2022-04-05T15:34:03Z</time>
      </trkpt>
      <trkpt lat="44.16144" lon="3.08933">
        <ele>415.8</ele>
        <time>2022-04-05T15:34:02Z</time>
      </trkpt>
      <trkpt lat="44.16147" lon="3.08928">
        <ele>415.8</ele>
        <time>2022-04-05T15:34:01Z</time>
      </trkpt>
      <trkpt lat="44.1615" lon="3.08923">
        <ele>415.6</ele>
        <time>2022-04-05T15:34:00Z</time>
      </trkpt>
      <trkpt lat="44.16153" lon="3.08918">
        <ele>415.8</ele>
        <time>2022-04-05T15:33:59Z</time>
      </trkpt>
      <trkpt lat="44.16156" lon="3.08913">
        <ele>415.8</ele>
        <time>2022-04-05T15:33:58Z</time>
      </trkpt>
      <trkpt lat="44.1616" lon="3.08909">
        <ele>416</ele>
        <time>2022-04-05T15:33:57Z</time>
      </trkpt>
      <trkpt lat="44.16163" lon="3.08904">
        <ele>416.2</ele>
        <time>2022-04-05T15:33:56Z</time>
      </trkpt>
      <trkpt lat="44.16166" lon="3.089">
        <ele>416.2</ele>
        <time>2022-04-05T15:33:55Z</time>
      </trkpt>
      <trkpt lat="44.16169" lon="3.08896">
        <ele>416.4</ele>
        <time>2022-04-05T15:33:54Z</time>
      </trkpt>
      <trkpt lat="44.16172" lon="3.08892">
        <ele>416.6</ele>
        <time>2022-04-05T15:33:53Z</time>
      </trkpt>
      <trkpt lat="44.16175" lon="3.08888">
        <ele>416.8</ele>
        <time>2022-04-05T15:33:52Z</time>
      </trkpt>
      <trkpt lat="44.16177" lon="3.08884">
        <ele>417</ele>
        <time>2022-04-05T15:33:51Z</time>
      </trkpt>
      <trkpt lat="44.16179" lon="3.08878">
        <ele>419.8</ele>
        <time>2022-04-05T15:33:39Z</time>
      </trkpt>
      <trkpt lat="44.16179" lon="3.08876">
        <ele>420.4</ele>
        <time>2022-04-05T15:33:38Z</time>
      </trkpt>
      <trkpt lat="44.16179" lon="3.08872">
        <ele>420.8</ele>
        <time>2022-04-05T15:33:37Z</time>
      </trkpt>
      <trkpt lat="44.16177" lon="3.08868">
        <ele>421.6</ele>
        <time>2022-04-05T15:33:36Z</time>
      </trkpt>
      <trkpt lat="44.16177" lon="3.08867">
        <ele>397.6</ele>
      </trkpt>
      <trkpt lat="44.16173" lon="3.08864">
        <ele>397.6</ele>
      </trkpt>
      <trkpt lat="44.1617" lon="3.0886">
        <ele>397.2</ele>
      </trkpt>
      <trkpt lat="44.16168" lon="3.08857">
        <ele>397.2</ele>
      </trkpt>
      <trkpt lat="44.16165" lon="3.08854">
        <ele>396.8</ele>
      </trkpt>
      <trkpt lat="44.16163" lon="3.08852">
        <ele>396.8</ele>
      </trkpt>
      <trkpt lat="44.16161" lon="3.08849">
        <ele>397</ele>
      </trkpt>
      <trkpt lat="44.16159" lon="3.08847">
        <ele>397.4</ele>
      </trkpt>
      <trkpt lat="44.16157" lon="3.08843">
        <ele>397.8</ele>
      </trkpt>
      <trkpt lat="44.16156" lon="3.0884">
        <ele>398</ele>
      </trkpt>
      <trkpt lat="44.16157" lon="3.08837">
        <ele>398</ele>
      </trkpt>
      <trkpt lat="44.16159" lon="3.08835">
        <ele>397.8</ele>
      </trkpt>
      <trkpt lat="44.16161" lon="3.08835">
        <ele>398.2</ele>
      </trkpt>
      <trkpt lat="44.16164" lon="3.08837">
        <ele>398.4</ele>
      </trkpt>
      <trkpt lat="44.16166" lon="3.08839">
        <ele>399</ele>
      </trkpt>
      <trkpt lat="44.16168" lon="3.08841">
        <ele>399.4</ele>
      </trkpt>
      <trkpt lat="44.16171" lon="3.08842">
        <ele>400</ele>
      </trkpt>
      <trkpt lat="44.16174" lon="3.08842">
        <ele>400.8</ele>
      </trkpt>
      <trkpt lat="44.16176" lon="3.08842">
        <ele>400.8</ele>
      </trkpt>
      <trkpt lat="44.16179" lon="3.0884">
        <ele>401</ele>
      </trkpt>
      <trkpt lat="44.16181" lon="3.08838">
        <ele>401.4</ele>
      </trkpt>
      <trkpt lat="44.16183" lon="3.08835">
        <ele>401.4</ele>
      </trkpt>
      <trkpt lat="44.16184" lon="3.08833">
        <ele>401.4</ele>
      </trkpt>
      <trkpt lat="44.16186" lon="3.0883">
        <ele>401.8</ele>
      </trkpt>
      <trkpt lat="44.16187" lon="3.08827">
        <ele>401.8</ele>
      </trkpt>
      <trkpt lat="44.16188" lon="3.08825">
        <ele>402.2</ele>
      </trkpt>
      <trkpt lat="44.16189" lon="3.08822">
        <ele>402.2</ele>
      </trkpt>
      <trkpt lat="44.1619" lon="3.08819">
        <ele>402.4</ele>
      </trkpt>
      <trkpt lat="44.16191" lon="3.08817">
        <ele>402.6</ele>
      </trkpt>
      <trkpt lat="44.16192" lon="3.08814">
        <ele>403</ele>
      </trkpt>
      <trkpt lat="44.16193" lon="3.08811">
        <ele>403.4</ele>
      </trkpt>
      <trkpt lat="44.16194" lon="3.08808">
        <ele>403.6</ele>
      </trkpt>
      <trkpt lat="44.16195" lon="3.08806">
        <ele>403.6</ele>
      </trkpt>
      <trkpt lat="44.16196" lon="3.08803">
        <ele>404</ele>
      </trkpt>
      <trkpt lat="44.16197" lon="3.088">
        <ele>404.2</ele>
      </trkpt>
      <trkpt lat="44.16198" lon="3.08797">
        <ele>404.4</ele>
      </trkpt>
      <trkpt lat="44.16199" lon="3.08795">
        <ele>404.6</ele>
      </trkpt>
      <trkpt lat="44.16201" lon="3.08792">
        <ele>404.8</ele>
      </trkpt>
      <trkpt lat="44.16202" lon="3.0879">
        <ele>405.2</ele>
      </trkpt>
      <trkpt lat="44.16203" lon="3.08787">
        <ele>405.4</ele>
      </trkpt>
      <trkpt lat="44.16204" lon="3.08785">
        <ele>405.4</ele>
      </trkpt>
      <trkpt lat="44.16205" lon="3.08782">
        <ele>405.8</ele>
      </trkpt>
      <trkpt lat="44.16207" lon="3.0878">
        <ele>405.6</ele>
      </trkpt>
      <trkpt lat="44.16208" lon="3.08778">
        <ele>405.8</ele>
      </trkpt>
      <trkpt lat="44.1621" lon="3.08776">
        <ele>406.2</ele>
      </trkpt>
      <trkpt lat="44.16211" lon="3.08774">
        <ele>406.4</ele>
      </trkpt>
      <trkpt lat="44.16212" lon="3.08772">
        <ele>406.8</ele>
      </trkpt>
      <trkpt lat="44.16214" lon="3.0877">
        <ele>407</ele>
      </trkpt>
      <trkpt lat="44.16216" lon="3.08768">
        <ele>407.4</ele>
      </trkpt>
      <trkpt lat="44.16218" lon="3.08766">
        <ele>407.4</ele>
      </trkpt>
      <trkpt lat="44.16219" lon="3.08764">
        <ele>407.6</ele>
      </trkpt>
      <trkpt lat="44.1622" lon="3.08762">
        <ele>407.8</ele>
      </trkpt>
      <trkpt lat="44.16222" lon="3.0876">
        <ele>407.8</ele>
      </trkpt>
      <trkpt lat="44.16224" lon="3.08758">
        <ele>408.2</ele>
      </trkpt>
      <trkpt lat="44.16225" lon="3.08756">
        <ele>408.2</ele>
      </trkpt>
      <trkpt lat="44.16227" lon="3.08755">
        <ele>408.6</ele>
      </trkpt>
      <trkpt lat="44.16229" lon="3.08753">
        <ele>408.8</ele>
      </trkpt>
      <trkpt lat="44.16231" lon="3.08751">
        <ele>409</ele>
      </trkpt>
      <trkpt lat="44.16232" lon="3.08749">
        <ele>409</ele>
      </trkpt>
      <trkpt lat="44.16234" lon="3.08748">
        <ele>409</ele>
      </trkpt>
      <trkpt lat="44.16236" lon="3.08746">
        <ele>409.2</ele>
      </trkpt>
      <trkpt lat="44.16237" lon="3.08744">
        <ele>409.6</ele>
      </trkpt>
      <trkpt lat="44.16239" lon="3.08742">
        <ele>409.6</ele>
      </trkpt>
      <trkpt lat="44.1624" lon="3.0874">
        <ele>410</ele>
      </trkpt>
      <trkpt lat="44.16242" lon="3.08738">
        <ele>409.8</ele>
      </trkpt>
      <trkpt lat="44.16245" lon="3.08736">
        <ele>410.2</ele>
      </trkpt>
      <trkpt lat="44.16247" lon="3.08735">
        <ele>410</ele>
      </trkpt>
      <trkpt lat="44.16249" lon="3.08734">
        <ele>410.4</ele>
      </trkpt>
      <trkpt lat="44.16251" lon="3.08733">
        <ele>410.6</ele>
      </trkpt>
      <trkpt lat="44.16253" lon="3.08732">
        <ele>410.8</ele>
      </trkpt>
      <trkpt lat="44.16254" lon="3.0873">
        <ele>411.2</ele>
      </trkpt>
      <trkpt lat="44.16256" lon="3.08729">
        <ele>411.6</ele>
      </trkpt>
      <trkpt lat="44.16258" lon="3.08728">
        <ele>411.8</ele>
      </trkpt>
      <trkpt lat="44.1626" lon="3.08725">
        <ele>412</ele>
      </trkpt>
      <trkpt lat="44.16259" lon="3.08721">
        <ele>412.4</ele>
      </trkpt>
      <trkpt lat="44.16257" lon="3.0872">
        <ele>412.4</ele>
      </trkpt>
      <trkpt lat="44.16254" lon="3.08721">
        <ele>412.8</ele>
      </trkpt>
      <trkpt lat="44.16252" lon="3.08722">
        <ele>413</ele>
      </trkpt>
      <trkpt lat="44.16249" lon="3.08723">
        <ele>413.4</ele>
      </trkpt>
      <trkpt lat="44.16247" lon="3.08724">
        <ele>413.6</ele>
      </trkpt>
      <trkpt lat="44.16245" lon="3.08724">
        <ele>414</ele>
      </trkpt>
      <trkpt lat="44.16242" lon="3.08725">
        <ele>414.2</ele>
      </trkpt>
      <trkpt lat="44.1624" lon="3.08726">
        <ele>414.4</ele>
      </trkpt>
      <trkpt lat="44.16237" lon="3.08727">
        <ele>414.4</ele>
      </trkpt>
      <trkpt lat="44.16235" lon="3.08727">
        <ele>414.6</ele>
      </trkpt>
      <trkpt lat="44.16233" lon="3.08728">
        <ele>414.4</ele>
      </trkpt>
      <trkpt lat="44.1623" lon="3.08729">
        <ele>414.6</ele>
      </trkpt>
      <trkpt lat="44.16228" lon="3.0873">
        <ele>415</ele>
      </trkpt>
      <trkpt lat="44.16226" lon="3.08731">
        <ele>415.2</ele>
      </trkpt>
      <trkpt lat="44.16223" lon="3.08731">
        <ele>415.4</ele>
      </trkpt>
      <trkpt lat="44.16221" lon="3.08732">
        <ele>415.4</ele>
      </trkpt>
      <trkpt lat="44.16219" lon="3.08733">
        <ele>415.4</ele>
      </trkpt>
      <trkpt lat="44.16217" lon="3.08733">
        <ele>416</ele>
      </trkpt>
      <trkpt lat="44.16214" lon="3.08733">
        <ele>416.2</ele>
      </trkpt>
      <trkpt lat="44.16212" lon="3.08733">
        <ele>416.4</ele>
      </trkpt>
      <trkpt lat="44.1621" lon="3.08734">
        <ele>416.4</ele>
      </trkpt>
      <trkpt lat="44.16208" lon="3.08734">
        <ele>416.6</ele>
      </trkpt>
      <trkpt lat="44.16205" lon="3.08734">
        <ele>416.8</ele>
      </trkpt>
      <trkpt lat="44.16203" lon="3.08734">
        <ele>417.2</ele>
      </trkpt>
      <trkpt lat="44.16202" lon="3.08735">
        <ele>417.4</ele>
      </trkpt>
      <trkpt lat="44.162" lon="3.08736">
        <ele>417.4</ele>
      </trkpt>
      <trkpt lat="44.16197" lon="3.08736">
        <ele>417.4</ele>
      </trkpt>
      <trkpt lat="44.16195" lon="3.08736">
        <ele>417.8</ele>
      </trkpt>
      <trkpt lat="44.16193" lon="3.08736">
        <ele>418</ele>
      </trkpt>
      <trkpt lat="44.16191" lon="3.08736">
        <ele>418.4</ele>
      </trkpt>
      <trkpt lat="44.16189" lon="3.08736">
        <ele>418.6</ele>
      </trkpt>
      <trkpt lat="44.16187" lon="3.08737">
        <ele>418.6</ele>
      </trkpt>
      <trkpt lat="44.16185" lon="3.08736">
        <ele>419.2</ele>
      </trkpt>
      <trkpt lat="44.16183" lon="3.08736">
        <ele>419.2</ele>
      </trkpt>
      <trkpt lat="44.16181" lon="3.08736">
        <ele>419.4</ele>
      </trkpt>
      <trkpt lat="44.16179" lon="3.08736">
        <ele>419.8</ele>
      </trkpt>
      <trkpt lat="44.16177" lon="3.08736">
        <ele>420.2</ele>
      </trkpt>
      <trkpt lat="44.16175" lon="3.08735">
        <ele>420</ele>
      </trkpt>
      <trkpt lat="44.16174" lon="3.08734">
        <ele>420.2</ele>
      </trkpt>
      <trkpt lat="44.16172" lon="3.08733">
        <ele>420.4</ele>
      </trkpt>
      <trkpt lat="44.1617" lon="3.08732">
        <ele>420.8</ele>
      </trkpt>
      <trkpt lat="44.16168" lon="3.08732">
        <ele>420.8</ele>
      </trkpt>
      <trkpt lat="44.16166" lon="3.08731">
        <ele>421.2</ele>
      </trkpt>
      <trkpt lat="44.16164" lon="3.0873">
        <ele>421.2</ele>
      </trkpt>
      <trkpt lat="44.16162" lon="3.08729">
        <ele>421.4</ele>
      </trkpt>
      <trkpt lat="44.1616" lon="3.08728">
        <ele>421.6</ele>
      </trkpt>
      <trkpt lat="44.16158" lon="3.08727">
        <ele>421.8</ele>
      </trkpt>
      <trkpt lat="44.16156" lon="3.08725">
        <ele>422.2</ele>
      </trkpt>
      <trkpt lat="44.16154" lon="3.08723">
        <ele>422.2</ele>
      </trkpt>
      <trkpt lat="44.16152" lon="3.08721">
        <ele>422.4</ele>
      </trkpt>
      <trkpt lat="44.16151" lon="3.0872">
        <ele>422.6</ele>
      </trkpt>
      <trkpt lat="44.1615" lon="3.08717">
        <ele>423</ele>
      </trkpt>
      <trkpt lat="44.16148" lon="3.08714">
        <ele>423</ele>
      </trkpt>
      <trkpt lat="44.16148" lon="3.08712">
        <ele>423.2</ele>
      </trkpt>
      <trkpt lat="44.16147" lon="3.08709">
        <ele>423.4</ele>
      </trkpt>
      <trkpt lat="44.16146" lon="3.08707">
        <ele>423.4</ele>
      </trkpt>
      <trkpt lat="44.16145" lon="3.08704">
        <ele>423.6</ele>
      </trkpt>
      <trkpt lat="44.16144" lon="3.08701">
        <ele>423.8</ele>
      </trkpt>
      <trkpt lat="44.16143" lon="3.08699">
        <ele>423.6</ele>
      </trkpt>
      <trkpt lat="44.16142" lon="3.08696">
        <ele>423.4</ele>
      </trkpt>
      <trkpt lat="44.16141" lon="3.08693">
        <ele>423.8</ele>
      </trkpt>
      <trkpt lat="44.1614" lon="3.08691">
        <ele>424</ele>
      </trkpt>
      <trkpt lat="44.16139" lon="3.08689">
        <ele>424.4</ele>
      </trkpt>
      <trkpt lat="44.16138" lon="3.08686">
        <ele>424.6</ele>
      </trkpt>
      <trkpt lat="44.16136" lon="3.08684">
        <ele>424.8</ele>
      </trkpt>
      <trkpt lat="44.16135" lon="3.08681">
        <ele>425</ele>
      </trkpt>
      <trkpt lat="44.16134" lon="3.08678">
        <ele>425.2</ele>
      </trkpt>
      <trkpt lat="44.16133" lon="3.08676">
        <ele>425.4</ele>
      </trkpt>
      <trkpt lat="44.16132" lon="3.08674">
        <ele>425.6</ele>
      </trkpt>
      <trkpt lat="44.1613" lon="3.08671">
        <ele>425.8</ele>
      </trkpt>
      <trkpt lat="44.16129" lon="3.08669">
        <ele>426</ele>
      </trkpt>
      <trkpt lat="44.16128" lon="3.08666">
        <ele>426.2</ele>
      </trkpt>
      <trkpt lat="44.16127" lon="3.08664">
        <ele>426</ele>
      </trkpt>
      <trkpt lat="44.16126" lon="3.08661">
        <ele>426.2</ele>
      </trkpt>
      <trkpt lat="44.16125" lon="3.08657">
        <ele>426.8</ele>
      </trkpt>
      <trkpt lat="44.16123" lon="3.08654">
        <ele>427.6</ele>
      </trkpt>
      <trkpt lat="44.1612" lon="3.08651">
        <ele>427.6</ele>
      </trkpt>
      <trkpt lat="44.16117" lon="3.0865">
        <ele>428.2</ele>
      </trkpt>
      <trkpt lat="44.16115" lon="3.0865">
        <ele>428.4</ele>
      </trkpt>
      <trkpt lat="44.16113" lon="3.0865">
        <ele>428.6</ele>
      </trkpt>
      <trkpt lat="44.1611" lon="3.0865">
        <ele>428.8</ele>
      </trkpt>
      <trkpt lat="44.16107" lon="3.0865">
        <ele>428.2</ele>
      </trkpt>
      <trkpt lat="44.16105" lon="3.08652">
        <ele>425.6</ele>
      </trkpt>
      <trkpt lat="44.16101" lon="3.08652">
        <ele>425.6</ele>
      </trkpt>
      <trkpt lat="44.161" lon="3.0865">
        <ele>425.4</ele>
      </trkpt>
      <trkpt lat="44.16099" lon="3.08647">
        <ele>425.4</ele>
      </trkpt>
      <trkpt lat="44.16098" lon="3.08645">
        <ele>425.6</ele>
      </trkpt>
      <trkpt lat="44.16097" lon="3.08642">
        <ele>425.8</ele>
      </trkpt>
      <trkpt lat="44.16097" lon="3.08639">
        <ele>425.4</ele>
      </trkpt>
      <trkpt lat="44.16096" lon="3.08636">
        <ele>425.6</ele>
      </trkpt>
      <trkpt lat="44.16096" lon="3.08633">
        <ele>425.4</ele>
      </trkpt>
      <trkpt lat="44.16094" lon="3.0863">
        <ele>425.2</ele>
      </trkpt>
      <trkpt lat="44.16093" lon="3.08626">
        <ele>425.4</ele>
      </trkpt>
      <trkpt lat="44.16091" lon="3.08623">
        <ele>425.4</ele>
      </trkpt>
      <trkpt lat="44.1609" lon="3.0862">
        <ele>425.4</ele>
      </trkpt>
      <trkpt lat="44.16089" lon="3.08617">
        <ele>425.6</ele>
      </trkpt>
      <trkpt lat="44.16088" lon="3.08614">
        <ele>425.8</ele>
      </trkpt>
      <trkpt lat="44.16088" lon="3.08611">
        <ele>425.6</ele>
      </trkpt>
      <trkpt lat="44.16088" lon="3.08607">
        <ele>425.4</ele>
      </trkpt>
      <trkpt lat="44.16088" lon="3.08603">
        <ele>425</ele>
      </trkpt>
      <trkpt lat="44.16088" lon="3.086">
        <ele>425.4</ele>
      </trkpt>
      <trkpt lat="44.16088" lon="3.08597">
        <ele>425.4</ele>
      </trkpt>
      <trkpt lat="44.16089" lon="3.08593">
        <ele>425.6</ele>
      </trkpt>
      <trkpt lat="44.16089" lon="3.0859">
        <ele>426</ele>
      </trkpt>
      <trkpt lat="44.16091" lon="3.08587">
        <ele>426.4</ele>
      </trkpt>
      <trkpt lat="44.16092" lon="3.08584">
        <ele>426.8</ele>
      </trkpt>
      <trkpt lat="44.16093" lon="3.08581">
        <ele>427</ele>
      </trkpt>
      <trkpt lat="44.16095" lon="3.08579">
        <ele>427.2</ele>
      </trkpt>
      <trkpt lat="44.16097" lon="3.08577">
        <ele>427.8</ele>
      </trkpt>
      <trkpt lat="44.16099" lon="3.08575">
        <ele>427.6</ele>
      </trkpt>
      <trkpt lat="44.16101" lon="3.08574">
        <ele>427.8</ele>
      </trkpt>
      <trkpt lat="44.16103" lon="3.08572">
        <ele>427.8</ele>
      </trkpt>
      <trkpt lat="44.16105" lon="3.08571">
        <ele>428</ele>
      </trkpt>
      <trkpt lat="44.16107" lon="3.08569">
        <ele>428</ele>
      </trkpt>
      <trkpt lat="44.16108" lon="3.08567">
        <ele>428.4</ele>
      </trkpt>
      <trkpt lat="44.1611" lon="3.08566">
        <ele>428.4</ele>
      </trkpt>
      <trkpt lat="44.16112" lon="3.08564">
        <ele>428.2</ele>
      </trkpt>
      <trkpt lat="44.16113" lon="3.08562">
        <ele>429</ele>
      </trkpt>
      <trkpt lat="44.16114" lon="3.0856">
        <ele>428.4</ele>
      </trkpt>
      <trkpt lat="44.16115" lon="3.08558">
        <ele>429</ele>
      </trkpt>
      <trkpt lat="44.16116" lon="3.08555">
        <ele>429.2</ele>
      </trkpt>
      <trkpt lat="44.16118" lon="3.08552">
        <ele>429.6</ele>
      </trkpt>
      <trkpt lat="44.16119" lon="3.0855">
        <ele>429.8</ele>
      </trkpt>
      <trkpt lat="44.1612" lon="3.08547">
        <ele>430.2</ele>
      </trkpt>
      <trkpt lat="44.16121" lon="3.08545">
        <ele>430.6</ele>
      </trkpt>
      <trkpt lat="44.16123" lon="3.08544">
        <ele>430.8</ele>
      </trkpt>
      <trkpt lat="44.16125" lon="3.08543">
        <ele>431</ele>
      </trkpt>
      <trkpt lat="44.16127" lon="3.08542">
        <ele>431.4</ele>
      </trkpt>
      <trkpt lat="44.1613" lon="3.0854">
        <ele>431.4</ele>
      </trkpt>
      <trkpt lat="44.16133" lon="3.08539">
        <ele>431.2</ele>
      </trkpt>
      <trkpt lat="44.16135" lon="3.0854">
        <ele>432</ele>
      </trkpt>
      <trkpt lat="44.16137" lon="3.08542">
        <ele>432.2</ele>
      </trkpt>
      <trkpt lat="44.16139" lon="3.08541">
        <ele>433</ele>
      </trkpt>
      <trkpt lat="44.1614" lon="3.08539">
        <ele>434.2</ele>
      </trkpt>
      <trkpt lat="44.16139" lon="3.08536">
        <ele>435</ele>
      </trkpt>
      <trkpt lat="44.16139" lon="3.08533">
        <ele>434.8</ele>
      </trkpt>
      <trkpt lat="44.16138" lon="3.08528">
        <ele>434.8</ele>
      </trkpt>
      <trkpt lat="44.16137" lon="3.08526">
        <ele>434.6</ele>
      </trkpt>
      <trkpt lat="44.16137" lon="3.08522">
        <ele>434.6</ele>
      </trkpt>
      <trkpt lat="44.16138" lon="3.08519">
        <ele>434.4</ele>
      </trkpt>
      <trkpt lat="44.16138" lon="3.08517">
        <ele>434.8</ele>
      </trkpt>
      <trkpt lat="44.16138" lon="3.08514">
        <ele>434.6</ele>
      </trkpt>
      <trkpt lat="44.16139" lon="3.08509">
        <ele>434.8</ele>
      </trkpt>
      <trkpt lat="44.16139" lon="3.08505">
        <ele>435</ele>
      </trkpt>
      <trkpt lat="44.16139" lon="3.08502">
        <ele>435.2</ele>
      </trkpt>
      <trkpt lat="44.16139" lon="3.08499">
        <ele>435.2</ele>
      </trkpt>
      <trkpt lat="44.16139" lon="3.08496">
        <ele>435.4</ele>
      </trkpt>
      <trkpt lat="44.16139" lon="3.08493">
        <ele>435.6</ele>
      </trkpt>
      <trkpt lat="44.16139" lon="3.0849">
        <ele>435.8</ele>
      </trkpt>
      <trkpt lat="44.1614" lon="3.08487">
        <ele>436</ele>
      </trkpt>
      <trkpt lat="44.1614" lon="3.08482">
        <ele>436.4</ele>
      </trkpt>
      <trkpt lat="44.1614" lon="3.0848">
        <ele>436.6</ele>
      </trkpt>
      <trkpt lat="44.1614" lon="3.08477">
        <ele>436.6</ele>
      </trkpt>
      <trkpt lat="44.16141" lon="3.08474">
        <ele>436.8</ele>
      </trkpt>
      <trkpt lat="44.16141" lon="3.08471">
        <ele>436.8</ele>
      </trkpt>
      <trkpt lat="44.16142" lon="3.08467">
        <ele>436.6</ele>
      </trkpt>
      <trkpt lat="44.16143" lon="3.08464">
        <ele>436.8</ele>
      </trkpt>
      <trkpt lat="44.16143" lon="3.08461">
        <ele>436.8</ele>
      </trkpt>
      <trkpt lat="44.16143" lon="3.08458">
        <ele>436.8</ele>
      </trkpt>
      <trkpt lat="44.16143" lon="3.08455">
        <ele>437</ele>
      </trkpt>
      <trkpt lat="44.16144" lon="3.08452">
        <ele>437.2</ele>
      </trkpt>
      <trkpt lat="44.16144" lon="3.08449">
        <ele>437.4</ele>
      </trkpt>
      <trkpt lat="44.16144" lon="3.08446">
        <ele>437.4</ele>
      </trkpt>
      <trkpt lat="44.16144" lon="3.08442">
        <ele>437.6</ele>
      </trkpt>
      <trkpt lat="44.16144" lon="3.08438">
        <ele>437.6</ele>
      </trkpt>
      <trkpt lat="44.16143" lon="3.08434">
        <ele>437.8</ele>
      </trkpt>
      <trkpt lat="44.16143" lon="3.08429">
        <ele>437.8</ele>
      </trkpt>
      <trkpt lat="44.16142" lon="3.08425">
        <ele>437.4</ele>
      </trkpt>
      <trkpt lat="44.16141" lon="3.0842">
        <ele>437.4</ele>
      </trkpt>
      <trkpt lat="44.16141" lon="3.08417">
        <ele>437.4</ele>
      </trkpt>
      <trkpt lat="44.1614" lon="3.08413">
        <ele>437.2</ele>
      </trkpt>
      <trkpt lat="44.16138" lon="3.08409">
        <ele>437.2</ele>
      </trkpt>
      <trkpt lat="44.16137" lon="3.08406">
        <ele>437.4</ele>
      </trkpt>
      <trkpt lat="44.16136" lon="3.08403">
        <ele>437.2</ele>
      </trkpt>
      <trkpt lat="44.16135" lon="3.084">
        <ele>437</ele>
      </trkpt>
      <trkpt lat="44.16133" lon="3.08398">
        <ele>436.6</ele>
      </trkpt>
      <trkpt lat="44.16131" lon="3.08395">
        <ele>435.6</ele>
      </trkpt>
      <trkpt lat="44.16129" lon="3.08391">
        <ele>435.8</ele>
      </trkpt>
      <trkpt lat="44.16128" lon="3.08387">
        <ele>435.4</ele>
      </trkpt>
      <trkpt lat="44.16126" lon="3.08383">
        <ele>434.8</ele>
      </trkpt>
      <trkpt lat="44.16124" lon="3.08378">
        <ele>434.4</ele>
      </trkpt>
      <trkpt lat="44.16122" lon="3.08373">
        <ele>434.4</ele>
      </trkpt>
      <trkpt lat="44.1612" lon="3.08368">
        <ele>434.6</ele>
      </trkpt>
      <trkpt lat="44.16117" lon="3.08363">
        <ele>434.6</ele>
      </trkpt>
      <trkpt lat="44.16115" lon="3.08359">
        <ele>433.2</ele>
      </trkpt>
      <trkpt lat="44.16112" lon="3.08354">
        <ele>433</ele>
      </trkpt>
      <trkpt lat="44.16109" lon="3.0835">
        <ele>432.8</ele>
      </trkpt>
      <trkpt lat="44.16106" lon="3.08345">
        <ele>431.6</ele>
      </trkpt>
      <trkpt lat="44.16104" lon="3.08339">
        <ele>432.2</ele>
      </trkpt>
      <trkpt lat="44.16101" lon="3.08333">
        <ele>431.8</ele>
      </trkpt>
      <trkpt lat="44.16099" lon="3.08327">
        <ele>430.8</ele>
      </trkpt>
      <trkpt lat="44.16097" lon="3.08322">
        <ele>430.2</ele>
      </trkpt>
      <trkpt lat="44.16095" lon="3.08316">
        <ele>429.8</ele>
      </trkpt>
      <trkpt lat="44.16093" lon="3.08312">
        <ele>429.2</ele>
      </trkpt>
      <trkpt lat="44.16091" lon="3.08307">
        <ele>428.8</ele>
      </trkpt>
      <trkpt lat="44.1609" lon="3.08302">
        <ele>428.6</ele>
      </trkpt>
      <trkpt lat="44.16089" lon="3.08297">
        <ele>427.8</ele>
      </trkpt>
      <trkpt lat="44.16088" lon="3.08292">
        <ele>427.8</ele>
      </trkpt>
      <trkpt lat="44.16087" lon="3.08287">
        <ele>428.4</ele>
      </trkpt>
      <trkpt lat="44.16086" lon="3.08282">
        <ele>428.6</ele>
      </trkpt>
      <trkpt lat="44.16086" lon="3.08278">
        <ele>429</ele>
      </trkpt>
      <trkpt lat="44.16085" lon="3.08275">
        <ele>429</ele>
      </trkpt>
      <trkpt lat="44.16085" lon="3.08272">
        <ele>429.2</ele>
      </trkpt>
      <trkpt lat="44.16086" lon="3.08268">
        <ele>429.6</ele>
      </trkpt>
      <trkpt lat="44.16087" lon="3.08267">
        <ele>429.6</ele>
      </trkpt>
      <trkpt lat="44.16089" lon="3.08265">
        <ele>430</ele>
      </trkpt>
      <trkpt lat="44.16092" lon="3.08257">
        <ele>430</ele>
      </trkpt>
      <trkpt lat="44.16095" lon="3.08245">
        <ele>430</ele>
      </trkpt>
      <trkpt lat="44.16095" lon="3.08242">
        <ele>435.2</ele>
        <time>2022-04-05T12:27:02Z</time>
      </trkpt>
      <trkpt lat="44.16095" lon="3.08238">
        <ele>435.2</ele>
        <time>2022-04-05T12:27:03Z</time>
      </trkpt>
      <trkpt lat="44.16095" lon="3.08235">
        <ele>435.2</ele>
        <time>2022-04-05T12:27:04Z</time>
      </trkpt>
      <trkpt lat="44.16095" lon="3.08232">
        <ele>435.4</ele>
        <time>2022-04-05T12:27:05Z</time>
      </trkpt>
      <trkpt lat="44.16094" lon="3.08229">
        <ele>435.4</ele>
        <time>2022-04-05T12:27:06Z</time>
      </trkpt>
      <trkpt lat="44.16093" lon="3.08226">
        <ele>435.4</ele>
        <time>2022-04-05T12:27:07Z</time>
      </trkpt>
      <trkpt lat="44.16092" lon="3.08223">
        <ele>435.6</ele>
        <time>2022-04-05T12:27:08Z</time>
      </trkpt>
      <trkpt lat="44.16092" lon="3.0822">
        <ele>436.2</ele>
        <time>2022-04-05T12:27:09Z</time>
      </trkpt>
      <trkpt lat="44.16092" lon="3.08219">
        <ele>436</ele>
        <time>2022-04-05T12:27:10Z</time>
      </trkpt>
      <trkpt lat="44.16092" lon="3.08217">
        <ele>436.4</ele>
        <time>2022-04-05T12:27:11Z</time>
      </trkpt>
      <trkpt lat="44.16091" lon="3.08214">
        <ele>436.6</ele>
        <time>2022-04-05T12:27:13Z</time>
      </trkpt>
      <trkpt lat="44.16095" lon="3.08209">
        <ele>436.6</ele>
        <time>2022-04-05T12:27:14Z</time>
      </trkpt>
      <trkpt lat="44.16098" lon="3.08207">
        <ele>436.8</ele>
        <time>2022-04-05T12:27:15Z</time>
      </trkpt>
      <trkpt lat="44.161" lon="3.08206">
        <ele>437</ele>
        <time>2022-04-05T12:27:16Z</time>
      </trkpt>
      <trkpt lat="44.16101" lon="3.08203">
        <ele>437.2</ele>
        <time>2022-04-05T12:27:17Z</time>
      </trkpt>
      <trkpt lat="44.16103" lon="3.08201">
        <ele>437.2</ele>
        <time>2022-04-05T12:27:18Z</time>
      </trkpt>
      <trkpt lat="44.16104" lon="3.08199">
        <ele>437.4</ele>
        <time>2022-04-05T12:27:19Z</time>
      </trkpt>
      <trkpt lat="44.16106" lon="3.08198">
        <ele>437.6</ele>
        <time>2022-04-05T12:27:20Z</time>
      </trkpt>
      <trkpt lat="44.16108" lon="3.08196">
        <ele>437.8</ele>
        <time>2022-04-05T12:27:21Z</time>
      </trkpt>
      <trkpt lat="44.16109" lon="3.08195">
        <ele>438</ele>
        <time>2022-04-05T12:27:22Z</time>
      </trkpt>
      <trkpt lat="44.16111" lon="3.08193">
        <ele>438.2</ele>
        <time>2022-04-05T12:27:23Z</time>
      </trkpt>
      <trkpt lat="44.16112" lon="3.08191">
        <ele>438.4</ele>
        <time>2022-04-05T12:27:24Z</time>
      </trkpt>
      <trkpt lat="44.16113" lon="3.08189">
        <ele>438.8</ele>
        <time>2022-04-05T12:27:25Z</time>
      </trkpt>
      <trkpt lat="44.16115" lon="3.08187">
        <ele>439</ele>
        <time>2022-04-05T12:27:26Z</time>
      </trkpt>
      <trkpt lat="44.16116" lon="3.08184">
        <ele>439</ele>
        <time>2022-04-05T12:27:27Z</time>
      </trkpt>
      <trkpt lat="44.16118" lon="3.08183">
        <ele>439.4</ele>
        <time>2022-04-05T12:27:28Z</time>
      </trkpt>
      <trkpt lat="44.1612" lon="3.0818">
        <ele>439.6</ele>
        <time>2022-04-05T12:27:29Z</time>
      </trkpt>
      <trkpt lat="44.16121" lon="3.08179">
        <ele>439.6</ele>
        <time>2022-04-05T12:27:30Z</time>
      </trkpt>
      <trkpt lat="44.16123" lon="3.08178">
        <ele>439.8</ele>
        <time>2022-04-05T12:27:31Z</time>
      </trkpt>
      <trkpt lat="44.16124" lon="3.08176">
        <ele>439.8</ele>
        <time>2022-04-05T12:27:32Z</time>
      </trkpt>
      <trkpt lat="44.16125" lon="3.08174">
        <ele>440</ele>
        <time>2022-04-05T12:27:33Z</time>
      </trkpt>
      <trkpt lat="44.16127" lon="3.08173">
        <ele>440.4</ele>
        <time>2022-04-05T12:27:34Z</time>
      </trkpt>
      <trkpt lat="44.16129" lon="3.08171">
        <ele>440.8</ele>
        <time>2022-04-05T12:27:35Z</time>
      </trkpt>
      <trkpt lat="44.16131" lon="3.08169">
        <ele>441</ele>
        <time>2022-04-05T12:27:36Z</time>
      </trkpt>
      <trkpt lat="44.16132" lon="3.08168">
        <ele>441.2</ele>
        <time>2022-04-05T12:27:37Z</time>
      </trkpt>
      <trkpt lat="44.16133" lon="3.08167">
        <ele>441.4</ele>
        <time>2022-04-05T12:27:38Z</time>
      </trkpt>
      <trkpt lat="44.16134" lon="3.08165">
        <ele>441.6</ele>
        <time>2022-04-05T12:27:39Z</time>
      </trkpt>
      <trkpt lat="44.16135" lon="3.08163">
        <ele>442</ele>
        <time>2022-04-05T12:27:40Z</time>
      </trkpt>
      <trkpt lat="44.16137" lon="3.0816">
        <ele>442.4</ele>
        <time>2022-04-05T12:27:42Z</time>
      </trkpt>
      <trkpt lat="44.16137" lon="3.08158">
        <ele>442.6</ele>
        <time>2022-04-05T12:27:43Z</time>
      </trkpt>
      <trkpt lat="44.16137" lon="3.08156">
        <ele>442.8</ele>
        <time>2022-04-05T12:27:44Z</time>
      </trkpt>
      <trkpt lat="44.16137" lon="3.08156">
        <ele>442.8</ele>
        <time>2022-04-05T12:27:45Z</time>
      </trkpt>
      <trkpt lat="44.16135" lon="3.0815">
        <ele>436.6</ele>
      </trkpt>
      <trkpt lat="44.16135" lon="3.08145">
        <ele>434.5</ele>
      </trkpt>
      <trkpt lat="44.16136" lon="3.08142">
        <ele>434.1</ele>
      </trkpt>
      <trkpt lat="44.16137" lon="3.08139">
        <ele>433.9</ele>
      </trkpt>
      <trkpt lat="44.16136" lon="3.08134">
        <ele>432.1</ele>
      </trkpt>
      <trkpt lat="44.16134" lon="3.08132">
        <ele>430.9</ele>
      </trkpt>
      <trkpt lat="44.16134" lon="3.08129">
        <ele>430.1</ele>
      </trkpt>
      <trkpt lat="44.16133" lon="3.08126">
        <ele>428.9</ele>
      </trkpt>
      <trkpt lat="44.16132" lon="3.08127">
        <ele>428.5</ele>
      </trkpt>
      <trkpt lat="44.1613" lon="3.08126">
        <ele>427.6</ele>
      </trkpt>
      <trkpt lat="44.16129" lon="3.08126">
        <ele>426.9</ele>
      </trkpt>
      <trkpt lat="44.16128" lon="3.08125">
        <ele>427.2</ele>
      </trkpt>
      <trkpt lat="44.16126" lon="3.08124">
        <ele>426.2</ele>
      </trkpt>
      <trkpt lat="44.16125" lon="3.08126">
        <ele>425</ele>
      </trkpt>
      <trkpt lat="44.16123" lon="3.08125">
        <ele>423.2</ele>
      </trkpt>
      <trkpt lat="44.16121" lon="3.08126">
        <ele>422.6</ele>
      </trkpt>
      <trkpt lat="44.16119" lon="3.08126">
        <ele>422</ele>
      </trkpt>
      <trkpt lat="44.16117" lon="3.08125">
        <ele>421.2</ele>
      </trkpt>
      <trkpt lat="44.16119" lon="3.08123">
        <ele>419.6</ele>
      </trkpt>
      <trkpt lat="44.16121" lon="3.08122">
        <ele>418.6</ele>
      </trkpt>
      <trkpt lat="44.16123" lon="3.0812">
        <ele>418.8</ele>
      </trkpt>
      <trkpt lat="44.16125" lon="3.08118">
        <ele>418.8</ele>
      </trkpt>
      <trkpt lat="44.16126" lon="3.08116">
        <ele>417.2</ele>
      </trkpt>
      <trkpt lat="44.16126" lon="3.08113">
        <ele>417</ele>
      </trkpt>
      <trkpt lat="44.16126" lon="3.0811">
        <ele>417</ele>
      </trkpt>
      <trkpt lat="44.16127" lon="3.08107">
        <ele>415.8</ele>
      </trkpt>
      <trkpt lat="44.16128" lon="3.08105">
        <ele>412.8</ele>
      </trkpt>
      <trkpt lat="44.16126" lon="3.08104">
        <ele>411.8</ele>
      </trkpt>
      <trkpt lat="44.16125" lon="3.08102">
        <ele>411.8</ele>
      </trkpt>
      <trkpt lat="44.16121" lon="3.08103">
        <ele>415.4</ele>
        <time>2022-04-05T12:31:55Z</time>
      </trkpt>
      <trkpt lat="44.16118" lon="3.08103">
        <ele>415.4</ele>
        <time>2022-04-05T12:31:56Z</time>
      </trkpt>
      <trkpt lat="44.16117" lon="3.08104">
        <ele>415.2</ele>
        <time>2022-04-05T12:31:57Z</time>
      </trkpt>
      <trkpt lat="44.16115" lon="3.08104">
        <ele>415.2</ele>
        <time>2022-04-05T12:31:58Z</time>
      </trkpt>
      <trkpt lat="44.16113" lon="3.08104">
        <ele>411.8</ele>
        <time>2022-04-05T12:33:00Z</time>
      </trkpt>
      <trkpt lat="44.16111" lon="3.08105">
        <ele>411.6</ele>
        <time>2022-04-05T12:33:01Z</time>
      </trkpt>
      <trkpt lat="44.16109" lon="3.08105">
        <ele>411.6</ele>
        <time>2022-04-05T12:33:02Z</time>
      </trkpt>
      <trkpt lat="44.16107" lon="3.08106">
        <ele>411.6</ele>
        <time>2022-04-05T12:33:03Z</time>
      </trkpt>
      <trkpt lat="44.16105" lon="3.08106">
        <ele>411.2</ele>
        <time>2022-04-05T12:33:04Z</time>
      </trkpt>
      <trkpt lat="44.16102" lon="3.08107">
        <ele>411</ele>
        <time>2022-04-05T12:33:05Z</time>
      </trkpt>
      <trkpt lat="44.16098" lon="3.08107">
        <ele>410.8</ele>
        <time>2022-04-05T12:33:06Z</time>
      </trkpt>
      <trkpt lat="44.16095" lon="3.08107">
        <ele>410.8</ele>
        <time>2022-04-05T12:33:07Z</time>
      </trkpt>
      <trkpt lat="44.16093" lon="3.08106">
        <ele>410.2</ele>
        <time>2022-04-05T12:33:08Z</time>
      </trkpt>
      <trkpt lat="44.16091" lon="3.08105">
        <ele>409.8</ele>
        <time>2022-04-05T12:33:09Z</time>
      </trkpt>
      <trkpt lat="44.1609" lon="3.08105">
        <ele>409.4</ele>
        <time>2022-04-05T12:33:10Z</time>
      </trkpt>
      <trkpt lat="44.16089" lon="3.08105">
        <ele>409.2</ele>
        <time>2022-04-05T12:33:11Z</time>
      </trkpt>
      <trkpt lat="44.16085" lon="3.08105">
        <ele>408.4</ele>
        <time>2022-04-05T12:33:12Z</time>
      </trkpt>
      <trkpt lat="44.16082" lon="3.08105">
        <ele>407.8</ele>
        <time>2022-04-05T12:33:13Z</time>
      </trkpt>
      <trkpt lat="44.16079" lon="3.08105">
        <ele>407.6</ele>
        <time>2022-04-05T12:33:14Z</time>
      </trkpt>
      <trkpt lat="44.16076" lon="3.08105">
        <ele>407.2</ele>
        <time>2022-04-05T12:33:15Z</time>
      </trkpt>
      <trkpt lat="44.16072" lon="3.08105">
        <ele>407</ele>
        <time>2022-04-05T12:33:16Z</time>
      </trkpt>
      <trkpt lat="44.16068" lon="3.08105">
        <ele>406.4</ele>
        <time>2022-04-05T12:33:17Z</time>
      </trkpt>
      <trkpt lat="44.16065" lon="3.08105">
        <ele>406.4</ele>
        <time>2022-04-05T12:33:18Z</time>
      </trkpt>
      <trkpt lat="44.16062" lon="3.08104">
        <ele>405.8</ele>
        <time>2022-04-05T12:33:19Z</time>
      </trkpt>
      <trkpt lat="44.1606" lon="3.08104">
        <ele>405.8</ele>
        <time>2022-04-05T12:33:20Z</time>
      </trkpt>
      <trkpt lat="44.16059" lon="3.08102">
        <ele>405.4</ele>
        <time>2022-04-05T12:33:21Z</time>
      </trkpt>
      <trkpt lat="44.16057" lon="3.08102">
        <ele>405.4</ele>
        <time>2022-04-05T12:33:22Z</time>
      </trkpt>
      <trkpt lat="44.16054" lon="3.08103">
        <ele>405.2</ele>
        <time>2022-04-05T12:33:23Z</time>
      </trkpt>
      <trkpt lat="44.16052" lon="3.08105">
        <ele>408.3</ele>
      </trkpt>
      <trkpt lat="44.16049" lon="3.08106">
        <ele>409.1</ele>
      </trkpt>
      <trkpt lat="44.16045" lon="3.08108">
        <ele>410.4</ele>
      </trkpt>
      <trkpt lat="44.16042" lon="3.08108">
        <ele>411.4</ele>
      </trkpt>
      <trkpt lat="44.16034" lon="3.08104">
        <ele>414.6</ele>
      </trkpt>
      <trkpt lat="44.16028" lon="3.08097">
        <ele>417.9</ele>
      </trkpt>
      <trkpt lat="44.1602" lon="3.0808">
        <ele>438</ele>
        <time>2022-04-05T15:21:25Z</time>
      </trkpt>
      <trkpt lat="44.16018" lon="3.08073">
        <ele>438.4</ele>
        <time>2022-04-05T15:21:24Z</time>
      </trkpt>
      <trkpt lat="44.16017" lon="3.08067">
        <ele>438.4</ele>
        <time>2022-04-05T15:21:23Z</time>
      </trkpt>
      <trkpt lat="44.16014" lon="3.0806">
        <ele>438.6</ele>
        <time>2022-04-05T15:21:22Z</time>
      </trkpt>
      <trkpt lat="44.16012" lon="3.08055">
        <ele>438.8</ele>
        <time>2022-04-05T15:21:21Z</time>
      </trkpt>
      <trkpt lat="44.1601" lon="3.08049">
        <ele>439</ele>
        <time>2022-04-05T15:21:20Z</time>
      </trkpt>
      <trkpt lat="44.16009" lon="3.08042">
        <ele>439</ele>
        <time>2022-04-05T15:21:19Z</time>
      </trkpt>
      <trkpt lat="44.16008" lon="3.08035">
        <ele>439.2</ele>
        <time>2022-04-05T15:21:18Z</time>
      </trkpt>
      <trkpt lat="44.16007" lon="3.08028">
        <ele>439.2</ele>
        <time>2022-04-05T15:21:17Z</time>
      </trkpt>
      <trkpt lat="44.16006" lon="3.08022">
        <ele>439.2</ele>
        <time>2022-04-05T15:21:16Z</time>
      </trkpt>
      <trkpt lat="44.16005" lon="3.08016">
        <ele>439.4</ele>
        <time>2022-04-05T15:21:15Z</time>
      </trkpt>
      <trkpt lat="44.16004" lon="3.08011">
        <ele>439.4</ele>
        <time>2022-04-05T15:21:14Z</time>
      </trkpt>
      <trkpt lat="44.16003" lon="3.08006">
        <ele>439.4</ele>
        <time>2022-04-05T15:21:13Z</time>
      </trkpt>
      <trkpt lat="44.16002" lon="3.08001">
        <ele>439.6</ele>
        <time>2022-04-05T15:21:12Z</time>
      </trkpt>
      <trkpt lat="44.16001" lon="3.07997">
        <ele>440</ele>
        <time>2022-04-05T15:21:11Z</time>
      </trkpt>
      <trkpt lat="44.15999" lon="3.07993">
        <ele>440.2</ele>
        <time>2022-04-05T15:21:10Z</time>
      </trkpt>
      <trkpt lat="44.15997" lon="3.07989">
        <ele>441</ele>
        <time>2022-04-05T15:21:09Z</time>
      </trkpt>
      <trkpt lat="44.15996" lon="3.07985">
        <ele>441.2</ele>
        <time>2022-04-05T15:21:08Z</time>
      </trkpt>
      <trkpt lat="44.15995" lon="3.07981">
        <ele>441.8</ele>
        <time>2022-04-05T15:21:07Z</time>
      </trkpt>
      <trkpt lat="44.15995" lon="3.07977">
        <ele>442.4</ele>
        <time>2022-04-05T15:21:06Z</time>
      </trkpt>
      <trkpt lat="44.15994" lon="3.07973">
        <ele>442.8</ele>
        <time>2022-04-05T15:21:05Z</time>
      </trkpt>
      <trkpt lat="44.15993" lon="3.07969">
        <ele>443</ele>
        <time>2022-04-05T15:21:04Z</time>
      </trkpt>
      <trkpt lat="44.15992" lon="3.07966">
        <ele>443.2</ele>
        <time>2022-04-05T15:21:03Z</time>
      </trkpt>
      <trkpt lat="44.15991" lon="3.07962">
        <ele>443.4</ele>
        <time>2022-04-05T15:21:02Z</time>
      </trkpt>
      <trkpt lat="44.1599" lon="3.07957">
        <ele>443.6</ele>
        <time>2022-04-05T15:21:01Z</time>
      </trkpt>
      <trkpt lat="44.15988" lon="3.07951">
        <ele>444.4</ele>
        <time>2022-04-05T15:21:00Z</time>
      </trkpt>
      <trkpt lat="44.15987" lon="3.07945">
        <ele>444.6</ele>
        <time>2022-04-05T15:20:59Z</time>
      </trkpt>
      <trkpt lat="44.15986" lon="3.07939">
        <ele>445.2</ele>
        <time>2022-04-05T15:20:58Z</time>
      </trkpt>
      <trkpt lat="44.15984" lon="3.07931">
        <ele>445.4</ele>
        <time>2022-04-05T15:20:57Z</time>
      </trkpt>
      <trkpt lat="44.15982" lon="3.07925">
        <ele>446</ele>
        <time>2022-04-05T15:20:56Z</time>
      </trkpt>
      <trkpt lat="44.15981" lon="3.07919">
        <ele>446.4</ele>
        <time>2022-04-05T15:20:55Z</time>
      </trkpt>
      <trkpt lat="44.1598" lon="3.07914">
        <ele>446.8</ele>
        <time>2022-04-05T15:20:54Z</time>
      </trkpt>
      <trkpt lat="44.15978" lon="3.0791">
        <ele>447.6</ele>
        <time>2022-04-05T15:20:53Z</time>
      </trkpt>
      <trkpt lat="44.15975" lon="3.07907">
        <ele>448.2</ele>
        <time>2022-04-05T15:20:52Z</time>
      </trkpt>
      <trkpt lat="44.15973" lon="3.07903">
        <ele>449.2</ele>
        <time>2022-04-05T15:20:51Z</time>
      </trkpt>
      <trkpt lat="44.15971" lon="3.07901">
        <ele>449.8</ele>
        <time>2022-04-05T15:20:50Z</time>
      </trkpt>
      <trkpt lat="44.15969" lon="3.07897">
        <ele>451.4</ele>
        <time>2022-04-05T15:20:49Z</time>
      </trkpt>
      <trkpt lat="44.15968" lon="3.07894">
        <ele>452.2</ele>
        <time>2022-04-05T15:20:48Z</time>
      </trkpt>
      <trkpt lat="44.15967" lon="3.07892">
        <ele>454.2</ele>
        <time>2022-04-05T15:20:47Z</time>
      </trkpt>
      <trkpt lat="44.15965" lon="3.0789">
        <ele>454.6</ele>
        <time>2022-04-05T15:20:46Z</time>
      </trkpt>
      <trkpt lat="44.15964" lon="3.07889">
        <ele>455.4</ele>
        <time>2022-04-05T15:20:45Z</time>
      </trkpt>
      <trkpt lat="44.15963" lon="3.07889">
        <ele>456.2</ele>
        <time>2022-04-05T15:20:44Z</time>
      </trkpt>
      <trkpt lat="44.15963" lon="3.07889">
        <ele>456.4</ele>
        <time>2022-04-05T15:20:43Z</time>
      </trkpt>
      <trkpt lat="44.15962" lon="3.07886">
        <ele>457</ele>
        <time>2022-04-05T15:20:42Z</time>
      </trkpt>
      <trkpt lat="44.15961" lon="3.07883">
        <ele>457.2</ele>
        <time>2022-04-05T15:20:41Z</time>
      </trkpt>
      <trkpt lat="44.15959" lon="3.07879">
        <ele>457.8</ele>
        <time>2022-04-05T15:20:40Z</time>
      </trkpt>
      <trkpt lat="44.15958" lon="3.07876">
        <ele>458.2</ele>
        <time>2022-04-05T15:20:39Z</time>
      </trkpt>
      <trkpt lat="44.15957" lon="3.07873">
        <ele>458.8</ele>
        <time>2022-04-05T15:20:38Z</time>
      </trkpt>
      <trkpt lat="44.15958" lon="3.07872">
        <ele>459</ele>
        <time>2022-04-05T15:20:37Z</time>
      </trkpt>
      <trkpt lat="44.15959" lon="3.0787">
        <ele>459.8</ele>
        <time>2022-04-05T15:20:36Z</time>
      </trkpt>
      <trkpt lat="44.15959" lon="3.07868">
        <ele>460.2</ele>
        <time>2022-04-05T15:20:35Z</time>
      </trkpt>
      <trkpt lat="44.15958" lon="3.07866">
        <ele>460.8</ele>
        <time>2022-04-05T15:20:34Z</time>
      </trkpt>
      <trkpt lat="44.15956" lon="3.07864">
        <ele>461.4</ele>
        <time>2022-04-05T15:20:33Z</time>
      </trkpt>
      <trkpt lat="44.15954" lon="3.07862">
        <ele>462</ele>
        <time>2022-04-05T15:20:32Z</time>
      </trkpt>
      <trkpt lat="44.15954" lon="3.07861">
        <ele>462.8</ele>
        <time>2022-04-05T15:20:31Z</time>
      </trkpt>
      <trkpt lat="44.15954" lon="3.07858">
        <ele>462.8</ele>
        <time>2022-04-05T15:20:30Z</time>
      </trkpt>
      <trkpt lat="44.15954" lon="3.07856">
        <ele>463</ele>
        <time>2022-04-05T15:20:29Z</time>
      </trkpt>
      <trkpt lat="44.15955" lon="3.07853">
        <ele>463.2</ele>
        <time>2022-04-05T15:20:28Z</time>
      </trkpt>
      <trkpt lat="44.15955" lon="3.0785">
        <ele>463.2</ele>
        <time>2022-04-05T15:20:27Z</time>
      </trkpt>
      <trkpt lat="44.15955" lon="3.07849">
        <ele>463.2</ele>
        <time>2022-04-05T15:20:26Z</time>
      </trkpt>
      <trkpt lat="44.15953" lon="3.07848">
        <ele>463.2</ele>
        <time>2022-04-05T15:20:25Z</time>
      </trkpt>
      <trkpt lat="44.15952" lon="3.07847">
        <ele>463.2</ele>
        <time>2022-04-05T15:20:24Z</time>
      </trkpt>
      <trkpt lat="44.15951" lon="3.07846">
        <ele>463.2</ele>
        <time>2022-04-05T15:20:23Z</time>
      </trkpt>
      <trkpt lat="44.1595" lon="3.07845">
        <ele>463.2</ele>
        <time>2022-04-05T15:20:22Z</time>
      </trkpt>
      <trkpt lat="44.1595" lon="3.07843">
        <ele>463.2</ele>
        <time>2022-04-05T15:20:21Z</time>
      </trkpt>
      <trkpt lat="44.1595" lon="3.07841">
        <ele>463</ele>
        <time>2022-04-05T15:20:20Z</time>
      </trkpt>
      <trkpt lat="44.1595" lon="3.0784">
        <ele>463</ele>
        <time>2022-04-05T15:20:19Z</time>
      </trkpt>
      <trkpt lat="44.1595" lon="3.07837">
        <ele>462.8</ele>
        <time>2022-04-05T15:20:18Z</time>
      </trkpt>
      <trkpt lat="44.1595" lon="3.07835">
        <ele>462.8</ele>
        <time>2022-04-05T15:20:17Z</time>
      </trkpt>
      <trkpt lat="44.1595" lon="3.07833">
        <ele>462.8</ele>
        <time>2022-04-05T15:20:16Z</time>
      </trkpt>
      <trkpt lat="44.15951" lon="3.07831">
        <ele>462.8</ele>
        <time>2022-04-05T15:20:15Z</time>
      </trkpt>
      <trkpt lat="44.15952" lon="3.07829">
        <ele>462.8</ele>
        <time>2022-04-05T15:20:14Z</time>
      </trkpt>
      <trkpt lat="44.15952" lon="3.07827">
        <ele>462.8</ele>
        <time>2022-04-05T15:20:13Z</time>
      </trkpt>
      <trkpt lat="44.15953" lon="3.07825">
        <ele>462.8</ele>
        <time>2022-04-05T15:20:12Z</time>
      </trkpt>
      <trkpt lat="44.15953" lon="3.07822">
        <ele>462.8</ele>
        <time>2022-04-05T15:20:11Z</time>
      </trkpt>
      <trkpt lat="44.15954" lon="3.0782">
        <ele>462.8</ele>
        <time>2022-04-05T15:20:10Z</time>
      </trkpt>
      <trkpt lat="44.15955" lon="3.07817">
        <ele>462.6</ele>
        <time>2022-04-05T15:20:09Z</time>
      </trkpt>
      <trkpt lat="44.15955" lon="3.07815">
        <ele>462.6</ele>
        <time>2022-04-05T15:20:08Z</time>
      </trkpt>
      <trkpt lat="44.15956" lon="3.07813">
        <ele>462.6</ele>
        <time>2022-04-05T15:20:07Z</time>
      </trkpt>
      <trkpt lat="44.15957" lon="3.0781">
        <ele>462.6</ele>
        <time>2022-04-05T15:20:06Z</time>
      </trkpt>
      <trkpt lat="44.15959" lon="3.07806">
        <ele>462.6</ele>
        <time>2022-04-05T15:20:05Z</time>
      </trkpt>
      <trkpt lat="44.15959" lon="3.07803">
        <ele>462.6</ele>
        <time>2022-04-05T15:20:04Z</time>
      </trkpt>
      <trkpt lat="44.15959" lon="3.078">
        <ele>462.4</ele>
        <time>2022-04-05T15:20:03Z</time>
      </trkpt>
      <trkpt lat="44.15959" lon="3.07797">
        <ele>462.4</ele>
        <time>2022-04-05T15:20:02Z</time>
      </trkpt>
      <trkpt lat="44.15958" lon="3.07793">
        <ele>462.4</ele>
        <time>2022-04-05T15:20:01Z</time>
      </trkpt>
      <trkpt lat="44.15944" lon="3.07777">
        <ele>461.8</ele>
        <time>2022-04-05T15:11:35Z</time>
      </trkpt>
      <trkpt lat="44.15944" lon="3.07776">
        <ele>461.6</ele>
        <time>2022-04-05T15:11:34Z</time>
      </trkpt>
      <trkpt lat="44.15944" lon="3.07775">
        <ele>461.6</ele>
        <time>2022-04-05T15:11:33Z</time>
      </trkpt>
      <trkpt lat="44.15943" lon="3.07774">
        <ele>461.6</ele>
        <time>2022-04-05T15:11:32Z</time>
      </trkpt>
      <trkpt lat="44.15943" lon="3.07773">
        <ele>461.4</ele>
        <time>2022-04-05T15:11:31Z</time>
      </trkpt>
      <trkpt lat="44.15942" lon="3.07771">
        <ele>461.2</ele>
        <time>2022-04-05T15:11:30Z</time>
      </trkpt>
      <trkpt lat="44.15942" lon="3.07769">
        <ele>461.2</ele>
        <time>2022-04-05T15:11:29Z</time>
      </trkpt>
      <trkpt lat="44.15941" lon="3.07768">
        <ele>461</ele>
        <time>2022-04-05T15:11:28Z</time>
      </trkpt>
      <trkpt lat="44.15941" lon="3.07766">
        <ele>460.8</ele>
        <time>2022-04-05T15:11:27Z</time>
      </trkpt>
      <trkpt lat="44.1594" lon="3.07764">
        <ele>460.8</ele>
        <time>2022-04-05T15:11:26Z</time>
      </trkpt>
      <trkpt lat="44.1594" lon="3.07762">
        <ele>460.6</ele>
        <time>2022-04-05T15:11:25Z</time>
      </trkpt>
      <trkpt lat="44.1594" lon="3.0776">
        <ele>460.6</ele>
        <time>2022-04-05T15:11:24Z</time>
      </trkpt>
      <trkpt lat="44.15939" lon="3.07758">
        <ele>460.2</ele>
        <time>2022-04-05T15:11:23Z</time>
      </trkpt>
      <trkpt lat="44.15939" lon="3.07756">
        <ele>459.8</ele>
        <time>2022-04-05T15:11:22Z</time>
      </trkpt>
      <trkpt lat="44.15939" lon="3.07754">
        <ele>459.8</ele>
        <time>2022-04-05T15:11:21Z</time>
      </trkpt>
      <trkpt lat="44.15938" lon="3.07753">
        <ele>459.6</ele>
        <time>2022-04-05T15:11:20Z</time>
      </trkpt>
      <trkpt lat="44.15938" lon="3.07751">
        <ele>459.4</ele>
        <time>2022-04-05T15:11:19Z</time>
      </trkpt>
      <trkpt lat="44.15938" lon="3.07749">
        <ele>459.2</ele>
        <time>2022-04-05T15:11:18Z</time>
      </trkpt>
      <trkpt lat="44.15938" lon="3.07748">
        <ele>459.2</ele>
        <time>2022-04-05T15:11:17Z</time>
      </trkpt>
      <trkpt lat="44.15938" lon="3.07746">
        <ele>459</ele>
        <time>2022-04-05T15:11:16Z</time>
      </trkpt>
      <trkpt lat="44.15938" lon="3.07744">
        <ele>458.8</ele>
        <time>2022-04-05T15:11:15Z</time>
      </trkpt>
      <trkpt lat="44.15938" lon="3.07742">
        <ele>458.6</ele>
        <time>2022-04-05T15:11:14Z</time>
      </trkpt>
      <trkpt lat="44.15938" lon="3.0774">
        <ele>458.4</ele>
        <time>2022-04-05T15:11:13Z</time>
      </trkpt>
      <trkpt lat="44.15938" lon="3.07739">
        <ele>458.2</ele>
        <time>2022-04-05T15:11:12Z</time>
      </trkpt>
      <trkpt lat="44.15938" lon="3.07737">
        <ele>457.8</ele>
        <time>2022-04-05T15:11:11Z</time>
      </trkpt>
      <trkpt lat="44.15939" lon="3.07735">
        <ele>457.6</ele>
        <time>2022-04-05T15:11:10Z</time>
      </trkpt>
      <trkpt lat="44.15938" lon="3.07732">
        <ele>457.4</ele>
        <time>2022-04-05T15:11:09Z</time>
      </trkpt>
      <trkpt lat="44.15938" lon="3.0773">
        <ele>457.2</ele>
        <time>2022-04-05T15:11:08Z</time>
      </trkpt>
      <trkpt lat="44.15938" lon="3.07728">
        <ele>456.8</ele>
        <time>2022-04-05T15:11:07Z</time>
      </trkpt>
      <trkpt lat="44.15938" lon="3.07727">
        <ele>456.6</ele>
        <time>2022-04-05T15:11:06Z</time>
      </trkpt>
      <trkpt lat="44.15938" lon="3.07725">
        <ele>456.4</ele>
        <time>2022-04-05T15:11:05Z</time>
      </trkpt>
      <trkpt lat="44.15938" lon="3.07723">
        <ele>456.4</ele>
        <time>2022-04-05T15:11:04Z</time>
      </trkpt>
      <trkpt lat="44.15937" lon="3.07721">
        <ele>456.2</ele>
        <time>2022-04-05T15:11:03Z</time>
      </trkpt>
      <trkpt lat="44.15937" lon="3.0772">
        <ele>456</ele>
        <time>2022-04-05T15:11:02Z</time>
      </trkpt>
      <trkpt lat="44.15936" lon="3.07718">
        <ele>455.8</ele>
        <time>2022-04-05T15:11:01Z</time>
      </trkpt>
      <trkpt lat="44.15936" lon="3.07716">
        <ele>455.6</ele>
        <time>2022-04-05T15:11:00Z</time>
      </trkpt>
      <trkpt lat="44.15936" lon="3.07715">
        <ele>455.6</ele>
        <time>2022-04-05T15:10:59Z</time>
      </trkpt>
      <trkpt lat="44.15935" lon="3.07713">
        <ele>455.4</ele>
        <time>2022-04-05T15:10:58Z</time>
      </trkpt>
      <trkpt lat="44.15935" lon="3.07712">
        <ele>455.4</ele>
        <time>2022-04-05T15:10:57Z</time>
      </trkpt>
      <trkpt lat="44.15934" lon="3.0771">
        <ele>455.2</ele>
        <time>2022-04-05T15:10:56Z</time>
      </trkpt>
      <trkpt lat="44.15934" lon="3.07708">
        <ele>455</ele>
        <time>2022-04-05T15:10:55Z</time>
      </trkpt>
      <trkpt lat="44.15934" lon="3.07706">
        <ele>454.8</ele>
        <time>2022-04-05T15:10:54Z</time>
      </trkpt>
      <trkpt lat="44.15933" lon="3.07705">
        <ele>454.4</ele>
        <time>2022-04-05T15:10:53Z</time>
      </trkpt>
      <trkpt lat="44.15933" lon="3.07703">
        <ele>454.2</ele>
        <time>2022-04-05T15:10:52Z</time>
      </trkpt>
      <trkpt lat="44.15932" lon="3.07701">
        <ele>454.2</ele>
        <time>2022-04-05T15:10:51Z</time>
      </trkpt>
      <trkpt lat="44.15932" lon="3.07699">
        <ele>454</ele>
        <time>2022-04-05T15:10:50Z</time>
      </trkpt>
      <trkpt lat="44.15932" lon="3.07698">
        <ele>453.8</ele>
        <time>2022-04-05T15:10:49Z</time>
      </trkpt>
      <trkpt lat="44.15932" lon="3.07696">
        <ele>453.6</ele>
        <time>2022-04-05T15:10:48Z</time>
      </trkpt>
      <trkpt lat="44.15932" lon="3.07694">
        <ele>453.6</ele>
        <time>2022-04-05T15:10:47Z</time>
      </trkpt>
      <trkpt lat="44.15932" lon="3.07692">
        <ele>453.4</ele>
        <time>2022-04-05T15:10:46Z</time>
      </trkpt>
      <trkpt lat="44.15932" lon="3.0769">
        <ele>453</ele>
        <time>2022-04-05T15:10:45Z</time>
      </trkpt>
      <trkpt lat="44.15932" lon="3.07688">
        <ele>453</ele>
        <time>2022-04-05T15:10:44Z</time>
      </trkpt>
      <trkpt lat="44.15932" lon="3.07686">
        <ele>452.6</ele>
        <time>2022-04-05T15:10:43Z</time>
      </trkpt>
      <trkpt lat="44.15932" lon="3.07685">
        <ele>452.6</ele>
        <time>2022-04-05T15:10:42Z</time>
      </trkpt>
      <trkpt lat="44.15932" lon="3.07683">
        <ele>452.4</ele>
        <time>2022-04-05T15:10:41Z</time>
      </trkpt>
      <trkpt lat="44.15932" lon="3.07682">
        <ele>452</ele>
        <time>2022-04-05T15:10:40Z</time>
      </trkpt>
      <trkpt lat="44.15932" lon="3.0768">
        <ele>451.8</ele>
        <time>2022-04-05T15:10:39Z</time>
      </trkpt>
      <trkpt lat="44.15932" lon="3.07678">
        <ele>451.4</ele>
        <time>2022-04-05T15:10:38Z</time>
      </trkpt>
      <trkpt lat="44.15932" lon="3.07676">
        <ele>451.2</ele>
        <time>2022-04-05T15:10:37Z</time>
      </trkpt>
      <trkpt lat="44.15931" lon="3.07674">
        <ele>450.6</ele>
        <time>2022-04-05T15:10:36Z</time>
      </trkpt>
      <trkpt lat="44.15932" lon="3.07672">
        <ele>450.6</ele>
        <time>2022-04-05T15:10:35Z</time>
      </trkpt>
      <trkpt lat="44.15932" lon="3.0767">
        <ele>450.4</ele>
        <time>2022-04-05T15:10:34Z</time>
      </trkpt>
      <trkpt lat="44.15932" lon="3.07668">
        <ele>450.2</ele>
        <time>2022-04-05T15:10:33Z</time>
      </trkpt>
      <trkpt lat="44.15934" lon="3.0766">
        <ele>451</ele>
        <time>2022-04-05T15:10:01Z</time>
      </trkpt>
      <trkpt lat="44.15934" lon="3.0766">
        <ele>451</ele>
        <time>2022-04-05T15:10:00Z</time>
      </trkpt>
      <trkpt lat="44.15933" lon="3.0766">
        <ele>451</ele>
        <time>2022-04-05T15:09:59Z</time>
      </trkpt>
      <trkpt lat="44.15932" lon="3.0766">
        <ele>451</ele>
        <time>2022-04-05T15:09:58Z</time>
      </trkpt>
      <trkpt lat="44.15931" lon="3.07659">
        <ele>450.8</ele>
        <time>2022-04-05T15:09:57Z</time>
      </trkpt>
      <trkpt lat="44.15931" lon="3.07659">
        <ele>450.6</ele>
        <time>2022-04-05T15:09:56Z</time>
      </trkpt>
      <trkpt lat="44.15931" lon="3.07658">
        <ele>450.4</ele>
        <time>2022-04-05T15:09:55Z</time>
      </trkpt>
      <trkpt lat="44.15931" lon="3.07657">
        <ele>450.2</ele>
        <time>2022-04-05T15:09:54Z</time>
      </trkpt>
      <trkpt lat="44.1593" lon="3.07656">
        <ele>450</ele>
        <time>2022-04-05T15:09:53Z</time>
      </trkpt>
      <trkpt lat="44.1593" lon="3.07654">
        <ele>449.6</ele>
        <time>2022-04-05T15:09:52Z</time>
      </trkpt>
      <trkpt lat="44.1593" lon="3.07652">
        <ele>449.4</ele>
        <time>2022-04-05T15:09:51Z</time>
      </trkpt>
      <trkpt lat="44.15929" lon="3.07649">
        <ele>449.2</ele>
        <time>2022-04-05T15:09:50Z</time>
      </trkpt>
      <trkpt lat="44.15929" lon="3.07646">
        <ele>449</ele>
        <time>2022-04-05T15:09:49Z</time>
      </trkpt>
      <trkpt lat="44.1593" lon="3.07644">
        <ele>448.8</ele>
        <time>2022-04-05T15:09:48Z</time>
      </trkpt>
      <trkpt lat="44.1593" lon="3.07641">
        <ele>448.4</ele>
        <time>2022-04-05T15:09:47Z</time>
      </trkpt>
      <trkpt lat="44.15929" lon="3.07639">
        <ele>448.2</ele>
        <time>2022-04-05T15:09:46Z</time>
      </trkpt>
      <trkpt lat="44.15929" lon="3.07637">
        <ele>448</ele>
        <time>2022-04-05T15:09:45Z</time>
      </trkpt>
      <trkpt lat="44.15929" lon="3.07634">
        <ele>447.8</ele>
        <time>2022-04-05T15:09:44Z</time>
      </trkpt>
      <trkpt lat="44.15929" lon="3.07631">
        <ele>447.6</ele>
        <time>2022-04-05T15:09:43Z</time>
      </trkpt>
      <trkpt lat="44.15929" lon="3.07628">
        <ele>447.4</ele>
        <time>2022-04-05T15:09:42Z</time>
      </trkpt>
      <trkpt lat="44.15928" lon="3.07625">
        <ele>447</ele>
        <time>2022-04-05T15:09:41Z</time>
      </trkpt>
      <trkpt lat="44.15927" lon="3.07623">
        <ele>446.6</ele>
        <time>2022-04-05T15:09:40Z</time>
      </trkpt>
      <trkpt lat="44.15927" lon="3.0762">
        <ele>446.4</ele>
        <time>2022-04-05T15:09:39Z</time>
      </trkpt>
      <trkpt lat="44.15926" lon="3.07618">
        <ele>446.2</ele>
        <time>2022-04-05T15:09:38Z</time>
      </trkpt>
      <trkpt lat="44.15926" lon="3.07615">
        <ele>446</ele>
        <time>2022-04-05T15:09:37Z</time>
      </trkpt>
      <trkpt lat="44.15925" lon="3.07613">
        <ele>446</ele>
        <time>2022-04-05T15:09:36Z</time>
      </trkpt>
      <trkpt lat="44.15925" lon="3.0761">
        <ele>445.8</ele>
        <time>2022-04-05T15:09:35Z</time>
      </trkpt>
      <trkpt lat="44.15925" lon="3.07607">
        <ele>445.8</ele>
        <time>2022-04-05T15:09:34Z</time>
      </trkpt>
      <trkpt lat="44.15925" lon="3.07604">
        <ele>445.8</ele>
        <time>2022-04-05T15:09:33Z</time>
      </trkpt>
      <trkpt lat="44.15923" lon="3.076">
        <ele>445.8</ele>
        <time>2022-04-05T15:09:32Z</time>
      </trkpt>
      <trkpt lat="44.15923" lon="3.07596">
        <ele>445.8</ele>
        <time>2022-04-05T15:09:31Z</time>
      </trkpt>
      <trkpt lat="44.1592" lon="3.07592">
        <ele>446</ele>
        <time>2022-04-05T15:09:30Z</time>
      </trkpt>
      <trkpt lat="44.15917" lon="3.07589">
        <ele>446</ele>
        <time>2022-04-05T15:09:29Z</time>
      </trkpt>
      <trkpt lat="44.15914" lon="3.07585">
        <ele>446</ele>
        <time>2022-04-05T15:09:28Z</time>
      </trkpt>
      <trkpt lat="44.15911" lon="3.07582">
        <ele>446</ele>
        <time>2022-04-05T15:09:27Z</time>
      </trkpt>
      <trkpt lat="44.15908" lon="3.07578">
        <ele>446</ele>
        <time>2022-04-05T15:09:26Z</time>
      </trkpt>
      <trkpt lat="44.15904" lon="3.07575">
        <ele>446</ele>
        <time>2022-04-05T15:09:25Z</time>
      </trkpt>
      <trkpt lat="44.159" lon="3.07571">
        <ele>446</ele>
        <time>2022-04-05T15:09:24Z</time>
      </trkpt>
      <trkpt lat="44.15897" lon="3.07567">
        <ele>445.8</ele>
        <time>2022-04-05T15:09:23Z</time>
      </trkpt>
      <trkpt lat="44.15895" lon="3.07563">
        <ele>445.8</ele>
        <time>2022-04-05T15:09:22Z</time>
      </trkpt>
      <trkpt lat="44.15893" lon="3.07561">
        <ele>445.6</ele>
        <time>2022-04-05T15:09:21Z</time>
      </trkpt>
      <trkpt lat="44.15891" lon="3.0756">
        <ele>445.6</ele>
        <time>2022-04-05T15:09:20Z</time>
      </trkpt>
      <trkpt lat="44.15889" lon="3.07557">
        <ele>445.4</ele>
        <time>2022-04-05T15:09:19Z</time>
      </trkpt>
      <trkpt lat="44.15888" lon="3.07555">
        <ele>445.2</ele>
        <time>2022-04-05T15:09:18Z</time>
      </trkpt>
      <trkpt lat="44.15886" lon="3.07553">
        <ele>445</ele>
        <time>2022-04-05T15:09:17Z</time>
      </trkpt>
      <trkpt lat="44.15885" lon="3.0755">
        <ele>444.6</ele>
        <time>2022-04-05T15:09:16Z</time>
      </trkpt>
      <trkpt lat="44.15882" lon="3.07547">
        <ele>444.4</ele>
        <time>2022-04-05T15:09:15Z</time>
      </trkpt>
      <trkpt lat="44.15881" lon="3.07545">
        <ele>444.2</ele>
        <time>2022-04-05T15:09:14Z</time>
      </trkpt>
      <trkpt lat="44.15879" lon="3.07542">
        <ele>444.2</ele>
        <time>2022-04-05T15:09:13Z</time>
      </trkpt>
      <trkpt lat="44.15879" lon="3.07539">
        <ele>444</ele>
        <time>2022-04-05T15:09:12Z</time>
      </trkpt>
      <trkpt lat="44.15878" lon="3.07536">
        <ele>444</ele>
        <time>2022-04-05T15:09:11Z</time>
      </trkpt>
      <trkpt lat="44.15877" lon="3.07534">
        <ele>444</ele>
        <time>2022-04-05T15:09:10Z</time>
      </trkpt>
      <trkpt lat="44.15877" lon="3.07531">
        <ele>444</ele>
        <time>2022-04-05T15:09:09Z</time>
      </trkpt>
      <trkpt lat="44.15876" lon="3.07528">
        <ele>444</ele>
        <time>2022-04-05T15:09:08Z</time>
      </trkpt>
      <trkpt lat="44.15874" lon="3.07525">
        <ele>444</ele>
        <time>2022-04-05T15:09:07Z</time>
      </trkpt>
      <trkpt lat="44.15873" lon="3.07523">
        <ele>444</ele>
        <time>2022-04-05T15:09:06Z</time>
      </trkpt>
      <trkpt lat="44.15871" lon="3.07521">
        <ele>444</ele>
        <time>2022-04-05T15:09:05Z</time>
      </trkpt>
      <trkpt lat="44.15868" lon="3.07518">
        <ele>444</ele>
        <time>2022-04-05T15:09:04Z</time>
      </trkpt>
      <trkpt lat="44.15867" lon="3.07515">
        <ele>444</ele>
        <time>2022-04-05T15:09:03Z</time>
      </trkpt>
      <trkpt lat="44.15865" lon="3.07512">
        <ele>443.8</ele>
        <time>2022-04-05T15:09:02Z</time>
      </trkpt>
      <trkpt lat="44.15863" lon="3.0751">
        <ele>443.8</ele>
        <time>2022-04-05T15:09:01Z</time>
      </trkpt>
      <trkpt lat="44.15862" lon="3.07508">
        <ele>443.8</ele>
        <time>2022-04-05T15:09:00Z</time>
      </trkpt>
      <trkpt lat="44.15861" lon="3.07506">
        <ele>443.8</ele>
        <time>2022-04-05T15:08:59Z</time>
      </trkpt>
      <trkpt lat="44.15861" lon="3.07495">
        <ele>440.2</ele>
        <time>2022-04-05T15:08:26Z</time>
      </trkpt>
      <trkpt lat="44.15861" lon="3.07495">
        <ele>440</ele>
        <time>2022-04-05T15:08:25Z</time>
      </trkpt>
      <trkpt lat="44.15859" lon="3.07494">
        <ele>440</ele>
        <time>2022-04-05T15:08:24Z</time>
      </trkpt>
      <trkpt lat="44.15857" lon="3.07491">
        <ele>440</ele>
        <time>2022-04-05T15:08:23Z</time>
      </trkpt>
      <trkpt lat="44.15855" lon="3.07488">
        <ele>439.8</ele>
        <time>2022-04-05T15:08:22Z</time>
      </trkpt>
      <trkpt lat="44.15852" lon="3.07486">
        <ele>439.8</ele>
        <time>2022-04-05T15:08:21Z</time>
      </trkpt>
      <trkpt lat="44.1585" lon="3.07484">
        <ele>439.8</ele>
        <time>2022-04-05T15:08:20Z</time>
      </trkpt>
      <trkpt lat="44.15848" lon="3.07481">
        <ele>439.8</ele>
        <time>2022-04-05T15:08:19Z</time>
      </trkpt>
      <trkpt lat="44.15846" lon="3.0748">
        <ele>439.8</ele>
        <time>2022-04-05T15:08:18Z</time>
      </trkpt>
      <trkpt lat="44.15844" lon="3.07478">
        <ele>439.8</ele>
        <time>2022-04-05T15:08:17Z</time>
      </trkpt>
      <trkpt lat="44.15842" lon="3.07476">
        <ele>439.6</ele>
        <time>2022-04-05T15:08:16Z</time>
      </trkpt>
      <trkpt lat="44.1584" lon="3.07474">
        <ele>439.6</ele>
        <time>2022-04-05T15:08:15Z</time>
      </trkpt>
      <trkpt lat="44.15839" lon="3.07471">
        <ele>439.6</ele>
        <time>2022-04-05T15:08:14Z</time>
      </trkpt>
      <trkpt lat="44.15837" lon="3.07469">
        <ele>439.4</ele>
        <time>2022-04-05T15:08:13Z</time>
      </trkpt>
      <trkpt lat="44.15835" lon="3.07467">
        <ele>439.4</ele>
        <time>2022-04-05T15:08:12Z</time>
      </trkpt>
      <trkpt lat="44.15833" lon="3.07464">
        <ele>439.4</ele>
        <time>2022-04-05T15:08:11Z</time>
      </trkpt>
      <trkpt lat="44.15831" lon="3.07463">
        <ele>439.4</ele>
        <time>2022-04-05T15:08:10Z</time>
      </trkpt>
      <trkpt lat="44.15827" lon="3.0746">
        <ele>440.4</ele>
        <time>2022-04-05T15:07:49Z</time>
      </trkpt>
      <trkpt lat="44.15827" lon="3.07459">
        <ele>440.4</ele>
        <time>2022-04-05T15:07:48Z</time>
      </trkpt>
      <trkpt lat="44.15827" lon="3.07459">
        <ele>440.4</ele>
        <time>2022-04-05T15:07:47Z</time>
      </trkpt>
      <trkpt lat="44.15826" lon="3.07457">
        <ele>440.6</ele>
        <time>2022-04-05T15:07:46Z</time>
      </trkpt>
      <trkpt lat="44.15825" lon="3.07455">
        <ele>440.6</ele>
        <time>2022-04-05T15:07:45Z</time>
      </trkpt>
      <trkpt lat="44.15825" lon="3.07452">
        <ele>440.6</ele>
        <time>2022-04-05T15:07:44Z</time>
      </trkpt>
      <trkpt lat="44.15824" lon="3.07449">
        <ele>440.6</ele>
        <time>2022-04-05T15:07:43Z</time>
      </trkpt>
      <trkpt lat="44.15823" lon="3.07446">
        <ele>440.6</ele>
        <time>2022-04-05T15:07:42Z</time>
      </trkpt>
      <trkpt lat="44.15821" lon="3.07443">
        <ele>440.8</ele>
        <time>2022-04-05T15:07:41Z</time>
      </trkpt>
      <trkpt lat="44.1582" lon="3.07439">
        <ele>440.8</ele>
        <time>2022-04-05T15:07:40Z</time>
      </trkpt>
      <trkpt lat="44.15816" lon="3.07437">
        <ele>441</ele>
        <time>2022-04-05T15:07:39Z</time>
      </trkpt>
      <trkpt lat="44.15814" lon="3.07434">
        <ele>441</ele>
        <time>2022-04-05T15:07:38Z</time>
      </trkpt>
      <trkpt lat="44.15813" lon="3.07432">
        <ele>441</ele>
        <time>2022-04-05T15:07:37Z</time>
      </trkpt>
      <trkpt lat="44.15813" lon="3.0743">
        <ele>441.2</ele>
        <time>2022-04-05T15:07:36Z</time>
      </trkpt>
      <trkpt lat="44.15812" lon="3.07427">
        <ele>441.6</ele>
        <time>2022-04-05T15:07:35Z</time>
      </trkpt>
      <trkpt lat="44.15812" lon="3.07425">
        <ele>442</ele>
        <time>2022-04-05T15:07:34Z</time>
      </trkpt>
      <trkpt lat="44.15811" lon="3.07422">
        <ele>442.2</ele>
        <time>2022-04-05T15:07:33Z</time>
      </trkpt>
      <trkpt lat="44.1581" lon="3.0742">
        <ele>442.8</ele>
        <time>2022-04-05T15:07:32Z</time>
      </trkpt>
      <trkpt lat="44.1581" lon="3.07419">
        <ele>443.4</ele>
        <time>2022-04-05T15:07:31Z</time>
      </trkpt>
      <trkpt lat="44.1581" lon="3.07418">
        <ele>443.4</ele>
        <time>2022-04-05T15:07:30Z</time>
      </trkpt>
      <trkpt lat="44.15811" lon="3.07416">
        <ele>443.8</ele>
        <time>2022-04-05T15:07:29Z</time>
      </trkpt>
      <trkpt lat="44.15809" lon="3.07412">
        <ele>444</ele>
        <time>2022-04-05T15:07:28Z</time>
      </trkpt>
      <trkpt lat="44.15808" lon="3.07409">
        <ele>444</ele>
        <time>2022-04-05T15:07:27Z</time>
      </trkpt>
      <trkpt lat="44.15804" lon="3.07407">
        <ele>444</ele>
        <time>2022-04-05T15:07:26Z</time>
      </trkpt>
      <trkpt lat="44.15803" lon="3.07405">
        <ele>444.2</ele>
        <time>2022-04-05T15:07:25Z</time>
      </trkpt>
      <trkpt lat="44.15801" lon="3.07402">
        <ele>444.2</ele>
        <time>2022-04-05T15:07:24Z</time>
      </trkpt>
      <trkpt lat="44.15801" lon="3.07399">
        <ele>444.6</ele>
        <time>2022-04-05T15:07:23Z</time>
      </trkpt>
      <trkpt lat="44.15801" lon="3.07395">
        <ele>444.6</ele>
        <time>2022-04-05T15:07:22Z</time>
      </trkpt>
      <trkpt lat="44.15801" lon="3.07393">
        <ele>445</ele>
        <time>2022-04-05T15:07:21Z</time>
      </trkpt>
      <trkpt lat="44.15802" lon="3.0739">
        <ele>445</ele>
        <time>2022-04-05T15:07:20Z</time>
      </trkpt>
      <trkpt lat="44.15803" lon="3.07387">
        <ele>445</ele>
        <time>2022-04-05T15:07:19Z</time>
      </trkpt>
      <trkpt lat="44.15804" lon="3.07384">
        <ele>445</ele>
        <time>2022-04-05T15:07:18Z</time>
      </trkpt>
      <trkpt lat="44.15803" lon="3.0738">
        <ele>445</ele>
        <time>2022-04-05T15:07:17Z</time>
      </trkpt>
      <trkpt lat="44.15802" lon="3.07378">
        <ele>445</ele>
        <time>2022-04-05T15:07:16Z</time>
      </trkpt>
      <trkpt lat="44.158" lon="3.07375">
        <ele>445</ele>
        <time>2022-04-05T15:07:15Z</time>
      </trkpt>
      <trkpt lat="44.15785" lon="3.07351">
        <ele>442</ele>
        <time>2022-04-05T15:06:44Z</time>
      </trkpt>
      <trkpt lat="44.15785" lon="3.07351">
        <ele>442</ele>
        <time>2022-04-05T15:06:43Z</time>
      </trkpt>
      <trkpt lat="44.15783" lon="3.07349">
        <ele>442</ele>
        <time>2022-04-05T15:06:42Z</time>
      </trkpt>
      <trkpt lat="44.15782" lon="3.07347">
        <ele>442</ele>
        <time>2022-04-05T15:06:41Z</time>
      </trkpt>
      <trkpt lat="44.15754" lon="3.0734">
        <ele>446</ele>
        <time>2022-04-05T15:05:48Z</time>
      </trkpt>
      <trkpt lat="44.15754" lon="3.07339">
        <ele>446</ele>
        <time>2022-04-05T15:05:47Z</time>
      </trkpt>
      <trkpt lat="44.15753" lon="3.07338">
        <ele>446</ele>
        <time>2022-04-05T15:05:46Z</time>
      </trkpt>
      <trkpt lat="44.15751" lon="3.07336">
        <ele>446</ele>
        <time>2022-04-05T15:05:45Z</time>
      </trkpt>
      <trkpt lat="44.15748" lon="3.07332">
        <ele>446</ele>
        <time>2022-04-05T15:05:44Z</time>
      </trkpt>
      <trkpt lat="44.15747" lon="3.07329">
        <ele>446</ele>
        <time>2022-04-05T15:05:43Z</time>
      </trkpt>
      <trkpt lat="44.15745" lon="3.07326">
        <ele>446.2</ele>
        <time>2022-04-05T15:05:42Z</time>
      </trkpt>
      <trkpt lat="44.15743" lon="3.07322">
        <ele>446.2</ele>
        <time>2022-04-05T15:05:41Z</time>
      </trkpt>
      <trkpt lat="44.15741" lon="3.07319">
        <ele>446.2</ele>
        <time>2022-04-05T15:05:40Z</time>
      </trkpt>
      <trkpt lat="44.15739" lon="3.07316">
        <ele>446.2</ele>
        <time>2022-04-05T15:05:39Z</time>
      </trkpt>
      <trkpt lat="44.15737" lon="3.07312">
        <ele>446.4</ele>
        <time>2022-04-05T15:05:38Z</time>
      </trkpt>
      <trkpt lat="44.15735" lon="3.07309">
        <ele>446.4</ele>
        <time>2022-04-05T15:05:37Z</time>
      </trkpt>
      <trkpt lat="44.15732" lon="3.07304">
        <ele>446.4</ele>
        <time>2022-04-05T15:05:36Z</time>
      </trkpt>
      <trkpt lat="44.15727" lon="3.073">
        <ele>446.4</ele>
        <time>2022-04-05T15:05:35Z</time>
      </trkpt>
      <trkpt lat="44.15725" lon="3.07296">
        <ele>446.4</ele>
        <time>2022-04-05T15:05:34Z</time>
      </trkpt>
      <trkpt lat="44.15723" lon="3.07292">
        <ele>446.6</ele>
        <time>2022-04-05T15:05:33Z</time>
      </trkpt>
      <trkpt lat="44.15722" lon="3.07288">
        <ele>446.6</ele>
        <time>2022-04-05T15:05:32Z</time>
      </trkpt>
      <trkpt lat="44.15722" lon="3.07284">
        <ele>446.6</ele>
        <time>2022-04-05T15:05:31Z</time>
      </trkpt>
      <trkpt lat="44.15722" lon="3.07283">
        <ele>446.6</ele>
        <time>2022-04-05T15:05:30Z</time>
      </trkpt>
      <trkpt lat="44.15721" lon="3.0728">
        <ele>446.6</ele>
        <time>2022-04-05T15:05:29Z</time>
      </trkpt>
      <trkpt lat="44.15721" lon="3.07277">
        <ele>446.6</ele>
        <time>2022-04-05T15:05:28Z</time>
      </trkpt>
      <trkpt lat="44.1572" lon="3.07274">
        <ele>446.6</ele>
        <time>2022-04-05T15:05:27Z</time>
      </trkpt>
      <trkpt lat="44.15711" lon="3.07251">
        <ele>446.4</ele>
        <time>2022-04-05T15:04:58Z</time>
      </trkpt>
      <trkpt lat="44.15711" lon="3.0725">
        <ele>446.8</ele>
        <time>2022-04-05T15:04:57Z</time>
      </trkpt>
      <trkpt lat="44.15711" lon="3.07249">
        <ele>447</ele>
        <time>2022-04-05T15:04:56Z</time>
      </trkpt>
      <trkpt lat="44.15711" lon="3.07246">
        <ele>447</ele>
        <time>2022-04-05T15:04:55Z</time>
      </trkpt>
      <trkpt lat="44.1571" lon="3.07243">
        <ele>447.2</ele>
        <time>2022-04-05T15:04:54Z</time>
      </trkpt>
      <trkpt lat="44.15709" lon="3.0724">
        <ele>447.4</ele>
        <time>2022-04-05T15:04:53Z</time>
      </trkpt>
      <trkpt lat="44.15707" lon="3.07237">
        <ele>447.4</ele>
        <time>2022-04-05T15:04:52Z</time>
      </trkpt>
      <trkpt lat="44.15705" lon="3.07234">
        <ele>447.6</ele>
        <time>2022-04-05T15:04:51Z</time>
      </trkpt>
      <trkpt lat="44.15703" lon="3.07231">
        <ele>447.8</ele>
        <time>2022-04-05T15:04:50Z</time>
      </trkpt>
      <trkpt lat="44.15699" lon="3.07228">
        <ele>447.8</ele>
        <time>2022-04-05T15:04:49Z</time>
      </trkpt>
      <trkpt lat="44.15695" lon="3.07224">
        <ele>448</ele>
        <time>2022-04-05T15:04:48Z</time>
      </trkpt>
      <trkpt lat="44.15693" lon="3.0722">
        <ele>448.2</ele>
        <time>2022-04-05T15:04:47Z</time>
      </trkpt>
      <trkpt lat="44.1569" lon="3.07217">
        <ele>448.6</ele>
        <time>2022-04-05T15:04:46Z</time>
      </trkpt>
      <trkpt lat="44.15688" lon="3.07214">
        <ele>449</ele>
        <time>2022-04-05T15:04:45Z</time>
      </trkpt>
      <trkpt lat="44.15685" lon="3.0721">
        <ele>449.4</ele>
        <time>2022-04-05T15:04:44Z</time>
      </trkpt>
      <trkpt lat="44.15683" lon="3.07207">
        <ele>449.6</ele>
        <time>2022-04-05T15:04:43Z</time>
      </trkpt>
      <trkpt lat="44.1568" lon="3.07204">
        <ele>450</ele>
        <time>2022-04-05T15:04:42Z</time>
      </trkpt>
      <trkpt lat="44.15677" lon="3.072">
        <ele>450</ele>
        <time>2022-04-05T15:04:41Z</time>
      </trkpt>
      <trkpt lat="44.15674" lon="3.07196">
        <ele>450.4</ele>
        <time>2022-04-05T15:04:40Z</time>
      </trkpt>
      <trkpt lat="44.15671" lon="3.07192">
        <ele>450.6</ele>
        <time>2022-04-05T15:04:39Z</time>
      </trkpt>
      <trkpt lat="44.15669" lon="3.07187">
        <ele>450.8</ele>
        <time>2022-04-05T15:04:38Z</time>
      </trkpt>
      <trkpt lat="44.15667" lon="3.07182">
        <ele>451.2</ele>
        <time>2022-04-05T15:04:37Z</time>
      </trkpt>
      <trkpt lat="44.15665" lon="3.07178">
        <ele>451.6</ele>
        <time>2022-04-05T15:04:36Z</time>
      </trkpt>
      <trkpt lat="44.15663" lon="3.07174">
        <ele>452.8</ele>
        <time>2022-04-05T15:04:35Z</time>
      </trkpt>
      <trkpt lat="44.15659" lon="3.0717">
        <ele>453</ele>
        <time>2022-04-05T15:04:34Z</time>
      </trkpt>
      <trkpt lat="44.15656" lon="3.07165">
        <ele>453.4</ele>
        <time>2022-04-05T15:04:33Z</time>
      </trkpt>
      <trkpt lat="44.15653" lon="3.0716">
        <ele>453.4</ele>
        <time>2022-04-05T15:04:32Z</time>
      </trkpt>
      <trkpt lat="44.1565" lon="3.07154">
        <ele>453.6</ele>
        <time>2022-04-05T15:04:31Z</time>
      </trkpt>
      <trkpt lat="44.15648" lon="3.07148">
        <ele>453.6</ele>
        <time>2022-04-05T15:04:30Z</time>
      </trkpt>
      <trkpt lat="44.15647" lon="3.07142">
        <ele>453.6</ele>
        <time>2022-04-05T15:04:29Z</time>
      </trkpt>
      <trkpt lat="44.15645" lon="3.07139">
        <ele>453.6</ele>
        <time>2022-04-05T15:04:28Z</time>
      </trkpt>
      <trkpt lat="44.15643" lon="3.07136">
        <ele>449.8</ele>
        <time>2022-04-05T15:03:48Z</time>
      </trkpt>
      <trkpt lat="44.15642" lon="3.07133">
        <ele>450</ele>
        <time>2022-04-05T15:03:47Z</time>
      </trkpt>
      <trkpt lat="44.1564" lon="3.0713">
        <ele>450.6</ele>
        <time>2022-04-05T15:03:46Z</time>
      </trkpt>
      <trkpt lat="44.15638" lon="3.07128">
        <ele>450.8</ele>
        <time>2022-04-05T15:03:45Z</time>
      </trkpt>
      <trkpt lat="44.15637" lon="3.07125">
        <ele>451.2</ele>
        <time>2022-04-05T15:03:44Z</time>
      </trkpt>
      <trkpt lat="44.15635" lon="3.07122">
        <ele>451.6</ele>
        <time>2022-04-05T15:03:43Z</time>
      </trkpt>
      <trkpt lat="44.15633" lon="3.07119">
        <ele>452</ele>
        <time>2022-04-05T15:03:42Z</time>
      </trkpt>
      <trkpt lat="44.15632" lon="3.07116">
        <ele>452.2</ele>
        <time>2022-04-05T15:03:41Z</time>
      </trkpt>
      <trkpt lat="44.1563" lon="3.07114">
        <ele>453</ele>
        <time>2022-04-05T15:03:40Z</time>
      </trkpt>
      <trkpt lat="44.15628" lon="3.07109">
        <ele>453.6</ele>
        <time>2022-04-05T15:03:39Z</time>
      </trkpt>
      <trkpt lat="44.15627" lon="3.07106">
        <ele>454</ele>
        <time>2022-04-05T15:03:38Z</time>
      </trkpt>
      <trkpt lat="44.15626" lon="3.07103">
        <ele>454.4</ele>
        <time>2022-04-05T15:03:37Z</time>
      </trkpt>
      <trkpt lat="44.15626" lon="3.07099">
        <ele>454.6</ele>
        <time>2022-04-05T15:03:36Z</time>
      </trkpt>
      <trkpt lat="44.15626" lon="3.07094">
        <ele>455</ele>
        <time>2022-04-05T15:03:35Z</time>
      </trkpt>
      <trkpt lat="44.15625" lon="3.0709">
        <ele>455</ele>
        <time>2022-04-05T15:03:34Z</time>
      </trkpt>
      <trkpt lat="44.15623" lon="3.07084">
        <ele>455.2</ele>
        <time>2022-04-05T15:03:33Z</time>
      </trkpt>
      <trkpt lat="44.1562" lon="3.07079">
        <ele>455.2</ele>
        <time>2022-04-05T15:03:32Z</time>
      </trkpt>
      <trkpt lat="44.15617" lon="3.07075">
        <ele>455.2</ele>
        <time>2022-04-05T15:03:31Z</time>
      </trkpt>
      <trkpt lat="44.15616" lon="3.07071">
        <ele>455.2</ele>
        <time>2022-04-05T15:03:30Z</time>
      </trkpt>
      <trkpt lat="44.15615" lon="3.07068">
        <ele>455.2</ele>
        <time>2022-04-05T15:03:29Z</time>
      </trkpt>
      <trkpt lat="44.15615" lon="3.07065">
        <ele>455.4</ele>
        <time>2022-04-05T15:03:28Z</time>
      </trkpt>
      <trkpt lat="44.15615" lon="3.0706">
        <ele>455.4</ele>
        <time>2022-04-05T15:03:27Z</time>
      </trkpt>
      <trkpt lat="44.15614" lon="3.07056">
        <ele>455.6</ele>
        <time>2022-04-05T15:03:26Z</time>
      </trkpt>
      <trkpt lat="44.15614" lon="3.07052">
        <ele>455.6</ele>
        <time>2022-04-05T15:03:25Z</time>
      </trkpt>
      <trkpt lat="44.15614" lon="3.0705">
        <ele>456</ele>
        <time>2022-04-05T15:03:24Z</time>
      </trkpt>
      <trkpt lat="44.15614" lon="3.07049">
        <ele>456.4</ele>
        <time>2022-04-05T15:03:23Z</time>
      </trkpt>
      <trkpt lat="44.15614" lon="3.07046">
        <ele>456.6</ele>
        <time>2022-04-05T15:03:22Z</time>
      </trkpt>
      <trkpt lat="44.15614" lon="3.07044">
        <ele>456.8</ele>
        <time>2022-04-05T15:03:21Z</time>
      </trkpt>
      <trkpt lat="44.15615" lon="3.07041">
        <ele>457</ele>
        <time>2022-04-05T15:03:20Z</time>
      </trkpt>
      <trkpt lat="44.15615" lon="3.07037">
        <ele>457.2</ele>
        <time>2022-04-05T15:03:19Z</time>
      </trkpt>
      <trkpt lat="44.15614" lon="3.07031">
        <ele>457.2</ele>
        <time>2022-04-05T15:03:18Z</time>
      </trkpt>
      <trkpt lat="44.15613" lon="3.07025">
        <ele>457.2</ele>
        <time>2022-04-05T15:03:17Z</time>
      </trkpt>
      <trkpt lat="44.15611" lon="3.07021">
        <ele>457</ele>
        <time>2022-04-05T15:03:16Z</time>
      </trkpt>
      <trkpt lat="44.15609" lon="3.07017">
        <ele>457</ele>
        <time>2022-04-05T15:03:15Z</time>
      </trkpt>
      <trkpt lat="44.15608" lon="3.07015">
        <ele>457</ele>
        <time>2022-04-05T15:03:14Z</time>
      </trkpt>
      <trkpt lat="44.15607" lon="3.07013">
        <ele>457</ele>
        <time>2022-04-05T15:03:13Z</time>
      </trkpt>
      <trkpt lat="44.15606" lon="3.07011">
        <ele>457</ele>
        <time>2022-04-05T15:03:12Z</time>
      </trkpt>
      <trkpt lat="44.15605" lon="3.07002">
        <ele>455.8</ele>
        <time>2022-04-05T15:02:57Z</time>
      </trkpt>
      <trkpt lat="44.15604" lon="3.07002">
        <ele>455.6</ele>
        <time>2022-04-05T15:02:56Z</time>
      </trkpt>
      <trkpt lat="44.15604" lon="3.07">
        <ele>455.4</ele>
        <time>2022-04-05T15:02:55Z</time>
      </trkpt>
      <trkpt lat="44.15603" lon="3.06999">
        <ele>455.4</ele>
        <time>2022-04-05T15:02:54Z</time>
      </trkpt>
      <trkpt lat="44.15603" lon="3.06996">
        <ele>455.2</ele>
        <time>2022-04-05T15:02:53Z</time>
      </trkpt>
      <trkpt lat="44.15603" lon="3.06994">
        <ele>455</ele>
        <time>2022-04-05T15:02:52Z</time>
      </trkpt>
      <trkpt lat="44.15603" lon="3.06992">
        <ele>454.6</ele>
        <time>2022-04-05T15:02:51Z</time>
      </trkpt>
      <trkpt lat="44.15603" lon="3.0699">
        <ele>454.6</ele>
        <time>2022-04-05T15:02:50Z</time>
      </trkpt>
      <trkpt lat="44.15603" lon="3.06988">
        <ele>454.4</ele>
        <time>2022-04-05T15:02:49Z</time>
      </trkpt>
      <trkpt lat="44.15602" lon="3.06985">
        <ele>454.2</ele>
        <time>2022-04-05T15:02:48Z</time>
      </trkpt>
      <trkpt lat="44.15601" lon="3.06983">
        <ele>453.8</ele>
        <time>2022-04-05T15:02:47Z</time>
      </trkpt>
      <trkpt lat="44.156" lon="3.06981">
        <ele>453.6</ele>
        <time>2022-04-05T15:02:46Z</time>
      </trkpt>
      <trkpt lat="44.15599" lon="3.06979">
        <ele>453.4</ele>
        <time>2022-04-05T15:02:45Z</time>
      </trkpt>
      <trkpt lat="44.15597" lon="3.06977">
        <ele>453.2</ele>
        <time>2022-04-05T15:02:44Z</time>
      </trkpt>
      <trkpt lat="44.15596" lon="3.06976">
        <ele>453.2</ele>
        <time>2022-04-05T15:02:43Z</time>
      </trkpt>
      <trkpt lat="44.15595" lon="3.06974">
        <ele>453</ele>
        <time>2022-04-05T15:02:42Z</time>
      </trkpt>
      <trkpt lat="44.15594" lon="3.06972">
        <ele>453.2</ele>
        <time>2022-04-05T15:02:41Z</time>
      </trkpt>
      <trkpt lat="44.15593" lon="3.0697">
        <ele>453</ele>
        <time>2022-04-05T15:02:40Z</time>
      </trkpt>
      <trkpt lat="44.15592" lon="3.06968">
        <ele>452.8</ele>
        <time>2022-04-05T15:02:39Z</time>
      </trkpt>
      <trkpt lat="44.15591" lon="3.06966">
        <ele>452.6</ele>
        <time>2022-04-05T15:02:38Z</time>
      </trkpt>
      <trkpt lat="44.15588" lon="3.06958">
        <ele>455</ele>
        <time>2022-04-05T15:02:14Z</time>
      </trkpt>
      <trkpt lat="44.15588" lon="3.06957">
        <ele>455.2</ele>
        <time>2022-04-05T15:02:13Z</time>
      </trkpt>
      <trkpt lat="44.15588" lon="3.06955">
        <ele>455.4</ele>
        <time>2022-04-05T15:02:12Z</time>
      </trkpt>
      <trkpt lat="44.15587" lon="3.06952">
        <ele>456.2</ele>
        <time>2022-04-05T15:02:11Z</time>
      </trkpt>
      <trkpt lat="44.15587" lon="3.0695">
        <ele>456.8</ele>
        <time>2022-04-05T15:02:10Z</time>
      </trkpt>
      <trkpt lat="44.15586" lon="3.06948">
        <ele>458</ele>
        <time>2022-04-05T15:02:09Z</time>
      </trkpt>
      <trkpt lat="44.15585" lon="3.06946">
        <ele>458.4</ele>
        <time>2022-04-05T15:02:08Z</time>
      </trkpt>
      <trkpt lat="44.15585" lon="3.06944">
        <ele>459.6</ele>
        <time>2022-04-05T15:02:07Z</time>
      </trkpt>
      <trkpt lat="44.15582" lon="3.0694">
        <ele>460.4</ele>
        <time>2022-04-05T15:02:06Z</time>
      </trkpt>
      <trkpt lat="44.15578" lon="3.06935">
        <ele>462.2</ele>
        <time>2022-04-05T15:02:05Z</time>
      </trkpt>
      <trkpt lat="44.15573" lon="3.06927">
        <ele>463.4</ele>
        <time>2022-04-05T15:02:04Z</time>
      </trkpt>
      <trkpt lat="44.15567" lon="3.06919">
        <ele>464.2</ele>
        <time>2022-04-05T15:02:03Z</time>
      </trkpt>
      <trkpt lat="44.15562" lon="3.0691">
        <ele>465.2</ele>
        <time>2022-04-05T15:02:02Z</time>
      </trkpt>
      <trkpt lat="44.15558" lon="3.06899">
        <ele>465.6</ele>
        <time>2022-04-05T15:02:01Z</time>
      </trkpt>
      <trkpt lat="44.15553" lon="3.06888">
        <ele>466.4</ele>
        <time>2022-04-05T15:02:00Z</time>
      </trkpt>
      <trkpt lat="44.15548" lon="3.06877">
        <ele>466.4</ele>
        <time>2022-04-05T15:01:59Z</time>
      </trkpt>
      <trkpt lat="44.15543" lon="3.06867">
        <ele>467</ele>
        <time>2022-04-05T15:01:58Z</time>
      </trkpt>
      <trkpt lat="44.15538" lon="3.06857">
        <ele>467.2</ele>
        <time>2022-04-05T15:01:57Z</time>
      </trkpt>
      <trkpt lat="44.15533" lon="3.06847">
        <ele>467.6</ele>
        <time>2022-04-05T15:01:56Z</time>
      </trkpt>
      <trkpt lat="44.15528" lon="3.06837">
        <ele>467.8</ele>
        <time>2022-04-05T15:01:55Z</time>
      </trkpt>
      <trkpt lat="44.15523" lon="3.06828">
        <ele>468.4</ele>
        <time>2022-04-05T15:01:54Z</time>
      </trkpt>
      <trkpt lat="44.15518" lon="3.06818">
        <ele>469.4</ele>
        <time>2022-04-05T15:01:53Z</time>
      </trkpt>
      <trkpt lat="44.15513" lon="3.06808">
        <ele>469.6</ele>
        <time>2022-04-05T15:01:52Z</time>
      </trkpt>
      <trkpt lat="44.15509" lon="3.06798">
        <ele>470.4</ele>
        <time>2022-04-05T15:01:51Z</time>
      </trkpt>
      <trkpt lat="44.15506" lon="3.06787">
        <ele>470.8</ele>
        <time>2022-04-05T15:01:50Z</time>
      </trkpt>
      <trkpt lat="44.15503" lon="3.06775">
        <ele>471.6</ele>
        <time>2022-04-05T15:01:49Z</time>
      </trkpt>
      <trkpt lat="44.15501" lon="3.06763">
        <ele>472</ele>
        <time>2022-04-05T15:01:48Z</time>
      </trkpt>
      <trkpt lat="44.155" lon="3.0675">
        <ele>473</ele>
        <time>2022-04-05T15:01:47Z</time>
      </trkpt>
      <trkpt lat="44.15501" lon="3.06739">
        <ele>473.4</ele>
        <time>2022-04-05T15:01:46Z</time>
      </trkpt>
      <trkpt lat="44.15502" lon="3.06728">
        <ele>473.8</ele>
        <time>2022-04-05T15:01:45Z</time>
      </trkpt>
      <trkpt lat="44.15504" lon="3.06717">
        <ele>474.4</ele>
        <time>2022-04-05T15:01:44Z</time>
      </trkpt>
      <trkpt lat="44.15506" lon="3.06706">
        <ele>474.6</ele>
        <time>2022-04-05T15:01:43Z</time>
      </trkpt>
      <trkpt lat="44.15508" lon="3.06696">
        <ele>474.6</ele>
        <time>2022-04-05T15:01:42Z</time>
      </trkpt>
      <trkpt lat="44.1551" lon="3.06687">
        <ele>474.6</ele>
        <time>2022-04-05T15:01:41Z</time>
      </trkpt>
      <trkpt lat="44.15512" lon="3.06678">
        <ele>474.8</ele>
        <time>2022-04-05T15:01:40Z</time>
      </trkpt>
      <trkpt lat="44.15514" lon="3.0667">
        <ele>474.8</ele>
        <time>2022-04-05T15:01:39Z</time>
      </trkpt>
      <trkpt lat="44.15516" lon="3.06661">
        <ele>474.8</ele>
        <time>2022-04-05T15:01:38Z</time>
      </trkpt>
      <trkpt lat="44.15517" lon="3.06653">
        <ele>474.8</ele>
        <time>2022-04-05T15:01:37Z</time>
      </trkpt>
      <trkpt lat="44.15519" lon="3.06645">
        <ele>474.8</ele>
        <time>2022-04-05T15:01:36Z</time>
      </trkpt>
      <trkpt lat="44.1552" lon="3.06637">
        <ele>474.8</ele>
        <time>2022-04-05T15:01:35Z</time>
      </trkpt>
      <trkpt lat="44.15521" lon="3.0663">
        <ele>474.8</ele>
        <time>2022-04-05T15:01:34Z</time>
      </trkpt>
      <trkpt lat="44.15522" lon="3.06622">
        <ele>475</ele>
        <time>2022-04-05T15:01:33Z</time>
      </trkpt>
      <trkpt lat="44.15523" lon="3.06615">
        <ele>475</ele>
        <time>2022-04-05T15:01:32Z</time>
      </trkpt>
      <trkpt lat="44.15524" lon="3.06607">
        <ele>475.2</ele>
        <time>2022-04-05T15:01:31Z</time>
      </trkpt>
      <trkpt lat="44.15525" lon="3.066">
        <ele>475.2</ele>
        <time>2022-04-05T15:01:30Z</time>
      </trkpt>
      <trkpt lat="44.15525" lon="3.06592">
        <ele>475.2</ele>
        <time>2022-04-05T15:01:29Z</time>
      </trkpt>
      <trkpt lat="44.15526" lon="3.06585">
        <ele>475.2</ele>
        <time>2022-04-05T15:01:28Z</time>
      </trkpt>
      <trkpt lat="44.15527" lon="3.06578">
        <ele>475.4</ele>
        <time>2022-04-05T15:01:27Z</time>
      </trkpt>
      <trkpt lat="44.15527" lon="3.06571">
        <ele>475.4</ele>
        <time>2022-04-05T15:01:26Z</time>
      </trkpt>
      <trkpt lat="44.15527" lon="3.06564">
        <ele>475.4</ele>
        <time>2022-04-05T15:01:25Z</time>
      </trkpt>
      <trkpt lat="44.15527" lon="3.06558">
        <ele>475.4</ele>
        <time>2022-04-05T15:01:24Z</time>
      </trkpt>
      <trkpt lat="44.15528" lon="3.06551">
        <ele>475.4</ele>
        <time>2022-04-05T15:01:23Z</time>
      </trkpt>
      <trkpt lat="44.15528" lon="3.06544">
        <ele>475.4</ele>
        <time>2022-04-05T15:01:22Z</time>
      </trkpt>
      <trkpt lat="44.15528" lon="3.06538">
        <ele>475.4</ele>
        <time>2022-04-05T15:01:21Z</time>
      </trkpt>
      <trkpt lat="44.15528" lon="3.06531">
        <ele>475.4</ele>
        <time>2022-04-05T15:01:20Z</time>
      </trkpt>
      <trkpt lat="44.15528" lon="3.06524">
        <ele>475.4</ele>
        <time>2022-04-05T15:01:19Z</time>
      </trkpt>
      <trkpt lat="44.15528" lon="3.06518">
        <ele>475.6</ele>
        <time>2022-04-05T15:01:18Z</time>
      </trkpt>
      <trkpt lat="44.15528" lon="3.06511">
        <ele>475.6</ele>
        <time>2022-04-05T15:01:17Z</time>
      </trkpt>
      <trkpt lat="44.15527" lon="3.06505">
        <ele>475.8</ele>
        <time>2022-04-05T15:01:16Z</time>
      </trkpt>
      <trkpt lat="44.15527" lon="3.06498">
        <ele>475.8</ele>
        <time>2022-04-05T15:01:15Z</time>
      </trkpt>
      <trkpt lat="44.15528" lon="3.06492">
        <ele>476</ele>
        <time>2022-04-05T15:01:14Z</time>
      </trkpt>
      <trkpt lat="44.15528" lon="3.06485">
        <ele>476</ele>
        <time>2022-04-05T15:01:13Z</time>
      </trkpt>
      <trkpt lat="44.15528" lon="3.06478">
        <ele>476</ele>
        <time>2022-04-05T15:01:12Z</time>
      </trkpt>
      <trkpt lat="44.15528" lon="3.06472">
        <ele>476</ele>
        <time>2022-04-05T15:01:11Z</time>
      </trkpt>
      <trkpt lat="44.15528" lon="3.06465">
        <ele>476.2</ele>
        <time>2022-04-05T15:01:10Z</time>
      </trkpt>
      <trkpt lat="44.15528" lon="3.06458">
        <ele>475.8</ele>
        <time>2022-04-05T15:01:09Z</time>
      </trkpt>
      <trkpt lat="44.15528" lon="3.06451">
        <ele>475.8</ele>
        <time>2022-04-05T15:01:08Z</time>
      </trkpt>
      <trkpt lat="44.15528" lon="3.06444">
        <ele>475.8</ele>
        <time>2022-04-05T15:01:07Z</time>
      </trkpt>
      <trkpt lat="44.15527" lon="3.06438">
        <ele>475.8</ele>
        <time>2022-04-05T15:01:06Z</time>
      </trkpt>
      <trkpt lat="44.15527" lon="3.06431">
        <ele>475.6</ele>
        <time>2022-04-05T15:01:05Z</time>
      </trkpt>
      <trkpt lat="44.15526" lon="3.06424">
        <ele>475.6</ele>
        <time>2022-04-05T15:01:04Z</time>
      </trkpt>
      <trkpt lat="44.15526" lon="3.06418">
        <ele>475.8</ele>
        <time>2022-04-05T15:01:03Z</time>
      </trkpt>
      <trkpt lat="44.15526" lon="3.06412">
        <ele>475.4</ele>
        <time>2022-04-05T15:01:02Z</time>
      </trkpt>
      <trkpt lat="44.15526" lon="3.06406">
        <ele>475.4</ele>
        <time>2022-04-05T15:01:01Z</time>
      </trkpt>
      <trkpt lat="44.15526" lon="3.064">
        <ele>475.8</ele>
        <time>2022-04-05T15:01:00Z</time>
      </trkpt>
      <trkpt lat="44.15526" lon="3.06394">
        <ele>475.8</ele>
        <time>2022-04-05T15:00:59Z</time>
      </trkpt>
      <trkpt lat="44.15526" lon="3.06388">
        <ele>475.8</ele>
        <time>2022-04-05T15:00:58Z</time>
      </trkpt>
      <trkpt lat="44.15525" lon="3.06382">
        <ele>475.8</ele>
        <time>2022-04-05T15:00:57Z</time>
      </trkpt>
      <trkpt lat="44.15525" lon="3.06376">
        <ele>476</ele>
        <time>2022-04-05T15:00:56Z</time>
      </trkpt>
      <trkpt lat="44.15525" lon="3.06369">
        <ele>476</ele>
        <time>2022-04-05T15:00:55Z</time>
      </trkpt>
      <trkpt lat="44.15524" lon="3.06363">
        <ele>476</ele>
        <time>2022-04-05T15:00:54Z</time>
      </trkpt>
      <trkpt lat="44.15523" lon="3.06356">
        <ele>476</ele>
        <time>2022-04-05T15:00:53Z</time>
      </trkpt>
      <trkpt lat="44.15523" lon="3.0635">
        <ele>476.2</ele>
        <time>2022-04-05T15:00:52Z</time>
      </trkpt>
      <trkpt lat="44.15522" lon="3.06344">
        <ele>476.4</ele>
        <time>2022-04-05T15:00:51Z</time>
      </trkpt>
      <trkpt lat="44.15521" lon="3.06338">
        <ele>476.4</ele>
        <time>2022-04-05T15:00:50Z</time>
      </trkpt>
      <trkpt lat="44.1552" lon="3.06332">
        <ele>476.4</ele>
        <time>2022-04-05T15:00:49Z</time>
      </trkpt>
      <trkpt lat="44.15518" lon="3.06327">
        <ele>476.6</ele>
        <time>2022-04-05T15:00:48Z</time>
      </trkpt>
      <trkpt lat="44.15517" lon="3.06322">
        <ele>476.6</ele>
        <time>2022-04-05T15:00:47Z</time>
      </trkpt>
      <trkpt lat="44.15515" lon="3.06317">
        <ele>476.4</ele>
        <time>2022-04-05T15:00:46Z</time>
      </trkpt>
      <trkpt lat="44.15513" lon="3.06312">
        <ele>476.4</ele>
        <time>2022-04-05T15:00:45Z</time>
      </trkpt>
      <trkpt lat="44.15511" lon="3.06308">
        <ele>476.4</ele>
        <time>2022-04-05T15:00:44Z</time>
      </trkpt>
      <trkpt lat="44.15509" lon="3.06303">
        <ele>476.6</ele>
        <time>2022-04-05T15:00:43Z</time>
      </trkpt>
      <trkpt lat="44.15506" lon="3.06297">
        <ele>476.6</ele>
        <time>2022-04-05T15:00:42Z</time>
      </trkpt>
      <trkpt lat="44.15503" lon="3.06292">
        <ele>476.6</ele>
        <time>2022-04-05T15:00:41Z</time>
      </trkpt>
      <trkpt lat="44.155" lon="3.06286">
        <ele>476.6</ele>
        <time>2022-04-05T15:00:40Z</time>
      </trkpt>
      <trkpt lat="44.15497" lon="3.06281">
        <ele>476.8</ele>
        <time>2022-04-05T15:00:39Z</time>
      </trkpt>
      <trkpt lat="44.15494" lon="3.06275">
        <ele>476.8</ele>
        <time>2022-04-05T15:00:38Z</time>
      </trkpt>
      <trkpt lat="44.15491" lon="3.0627">
        <ele>476.8</ele>
        <time>2022-04-05T15:00:37Z</time>
      </trkpt>
      <trkpt lat="44.15487" lon="3.06265">
        <ele>476.8</ele>
        <time>2022-04-05T15:00:36Z</time>
      </trkpt>
      <trkpt lat="44.15484" lon="3.0626">
        <ele>476.8</ele>
        <time>2022-04-05T15:00:35Z</time>
      </trkpt>
      <trkpt lat="44.15482" lon="3.06256">
        <ele>476.8</ele>
        <time>2022-04-05T15:00:34Z</time>
      </trkpt>
      <trkpt lat="44.15479" lon="3.06251">
        <ele>476.8</ele>
        <time>2022-04-05T15:00:33Z</time>
      </trkpt>
      <trkpt lat="44.15476" lon="3.06247">
        <ele>476.8</ele>
        <time>2022-04-05T15:00:32Z</time>
      </trkpt>
      <trkpt lat="44.15474" lon="3.06242">
        <ele>476.6</ele>
        <time>2022-04-05T15:00:31Z</time>
      </trkpt>
      <trkpt lat="44.15472" lon="3.06239">
        <ele>476.6</ele>
        <time>2022-04-05T15:00:30Z</time>
      </trkpt>
      <trkpt lat="44.1547" lon="3.06235">
        <ele>476.6</ele>
        <time>2022-04-05T15:00:29Z</time>
      </trkpt>
      <trkpt lat="44.15469" lon="3.06232">
        <ele>476.6</ele>
        <time>2022-04-05T15:00:28Z</time>
      </trkpt>
      <trkpt lat="44.15468" lon="3.06228">
        <ele>476.4</ele>
        <time>2022-04-05T15:00:27Z</time>
      </trkpt>
      <trkpt lat="44.15466" lon="3.06226">
        <ele>476.4</ele>
        <time>2022-04-05T15:00:26Z</time>
      </trkpt>
      <trkpt lat="44.15464" lon="3.06224">
        <ele>476.4</ele>
        <time>2022-04-05T15:00:25Z</time>
      </trkpt>
      <trkpt lat="44.15462" lon="3.06222">
        <ele>476.4</ele>
        <time>2022-04-05T15:00:24Z</time>
      </trkpt>
      <trkpt lat="44.1546" lon="3.06221">
        <ele>476.2</ele>
        <time>2022-04-05T15:00:23Z</time>
      </trkpt>
      <trkpt lat="44.15459" lon="3.0622">
        <ele>476.2</ele>
        <time>2022-04-05T15:00:22Z</time>
      </trkpt>
      <trkpt lat="44.15457" lon="3.06219">
        <ele>476.2</ele>
        <time>2022-04-05T15:00:21Z</time>
      </trkpt>
      <trkpt lat="44.15454" lon="3.06218">
        <ele>478.8</ele>
        <time>2022-04-05T14:59:43Z</time>
      </trkpt>
      <trkpt lat="44.15454" lon="3.06217">
        <ele>479</ele>
        <time>2022-04-05T14:59:42Z</time>
      </trkpt>
      <trkpt lat="44.15454" lon="3.06216">
        <ele>479</ele>
        <time>2022-04-05T14:59:41Z</time>
      </trkpt>
      <trkpt lat="44.15454" lon="3.06213">
        <ele>479</ele>
        <time>2022-04-05T14:59:40Z</time>
      </trkpt>
      <trkpt lat="44.15454" lon="3.06209">
        <ele>479</ele>
        <time>2022-04-05T14:59:39Z</time>
      </trkpt>
      <trkpt lat="44.15455" lon="3.06206">
        <ele>479</ele>
        <time>2022-04-05T14:59:38Z</time>
      </trkpt>
      <trkpt lat="44.15455" lon="3.06204">
        <ele>479</ele>
        <time>2022-04-05T14:59:37Z</time>
      </trkpt>
      <trkpt lat="44.15455" lon="3.06202">
        <ele>479.2</ele>
        <time>2022-04-05T14:59:36Z</time>
      </trkpt>
      <trkpt lat="44.15455" lon="3.062">
        <ele>479.2</ele>
        <time>2022-04-05T14:59:35Z</time>
      </trkpt>
      <trkpt lat="44.15454" lon="3.06199">
        <ele>479.2</ele>
        <time>2022-04-05T14:59:34Z</time>
      </trkpt>
      <trkpt lat="44.15453" lon="3.06197">
        <ele>479.2</ele>
        <time>2022-04-05T14:59:33Z</time>
      </trkpt>
      <trkpt lat="44.15452" lon="3.06194">
        <ele>479.4</ele>
        <time>2022-04-05T14:59:32Z</time>
      </trkpt>
      <trkpt lat="44.15452" lon="3.06191">
        <ele>479.4</ele>
        <time>2022-04-05T14:59:31Z</time>
      </trkpt>
      <trkpt lat="44.15452" lon="3.06187">
        <ele>479.4</ele>
        <time>2022-04-05T14:59:30Z</time>
      </trkpt>
      <trkpt lat="44.15452" lon="3.06184">
        <ele>479.6</ele>
        <time>2022-04-05T14:59:29Z</time>
      </trkpt>
      <trkpt lat="44.15452" lon="3.0618">
        <ele>479.8</ele>
        <time>2022-04-05T14:59:28Z</time>
      </trkpt>
      <trkpt lat="44.15452" lon="3.06177">
        <ele>480.2</ele>
        <time>2022-04-05T14:59:27Z</time>
      </trkpt>
      <trkpt lat="44.15452" lon="3.06175">
        <ele>480.2</ele>
        <time>2022-04-05T14:59:26Z</time>
      </trkpt>
      <trkpt lat="44.15451" lon="3.06172">
        <ele>480.2</ele>
        <time>2022-04-05T14:59:25Z</time>
      </trkpt>
      <trkpt lat="44.15451" lon="3.06169">
        <ele>480.2</ele>
        <time>2022-04-05T14:59:24Z</time>
      </trkpt>
      <trkpt lat="44.15451" lon="3.06164">
        <ele>480.2</ele>
        <time>2022-04-05T14:59:23Z</time>
      </trkpt>
      <trkpt lat="44.15452" lon="3.0616">
        <ele>480.2</ele>
        <time>2022-04-05T14:59:22Z</time>
      </trkpt>
      <trkpt lat="44.15453" lon="3.06156">
        <ele>480.2</ele>
        <time>2022-04-05T14:59:21Z</time>
      </trkpt>
      <trkpt lat="44.15454" lon="3.06153">
        <ele>480.2</ele>
        <time>2022-04-05T14:59:20Z</time>
      </trkpt>
      <trkpt lat="44.15454" lon="3.06151">
        <ele>480.2</ele>
        <time>2022-04-05T14:59:19Z</time>
      </trkpt>
      <trkpt lat="44.15455" lon="3.06149">
        <ele>480</ele>
        <time>2022-04-05T14:59:18Z</time>
      </trkpt>
      <trkpt lat="44.15455" lon="3.06147">
        <ele>480</ele>
        <time>2022-04-05T14:59:17Z</time>
      </trkpt>
      <trkpt lat="44.15456" lon="3.06144">
        <ele>480</ele>
        <time>2022-04-05T14:59:16Z</time>
      </trkpt>
      <trkpt lat="44.15456" lon="3.06143">
        <ele>480</ele>
        <time>2022-04-05T14:59:15Z</time>
      </trkpt>
      <trkpt lat="44.15455" lon="3.0614">
        <ele>480</ele>
        <time>2022-04-05T14:59:14Z</time>
      </trkpt>
      <trkpt lat="44.15454" lon="3.06138">
        <ele>480</ele>
        <time>2022-04-05T14:59:13Z</time>
      </trkpt>
      <trkpt lat="44.15453" lon="3.06135">
        <ele>480.4</ele>
        <time>2022-04-05T14:59:12Z</time>
      </trkpt>
      <trkpt lat="44.15452" lon="3.06132">
        <ele>480.6</ele>
        <time>2022-04-05T14:59:11Z</time>
      </trkpt>
      <trkpt lat="44.15453" lon="3.06128">
        <ele>480.8</ele>
        <time>2022-04-05T14:59:10Z</time>
      </trkpt>
      <trkpt lat="44.15453" lon="3.06122">
        <ele>481.4</ele>
        <time>2022-04-05T14:59:09Z</time>
      </trkpt>
      <trkpt lat="44.15454" lon="3.06117">
        <ele>481.6</ele>
        <time>2022-04-05T14:59:08Z</time>
      </trkpt>
      <trkpt lat="44.15455" lon="3.0611">
        <ele>481.8</ele>
        <time>2022-04-05T14:59:07Z</time>
      </trkpt>
      <trkpt lat="44.15457" lon="3.06103">
        <ele>482</ele>
        <time>2022-04-05T14:59:06Z</time>
      </trkpt>
      <trkpt lat="44.15459" lon="3.06096">
        <ele>482.2</ele>
        <time>2022-04-05T14:59:05Z</time>
      </trkpt>
      <trkpt lat="44.1546" lon="3.06089">
        <ele>482.2</ele>
        <time>2022-04-05T14:59:04Z</time>
      </trkpt>
      <trkpt lat="44.15461" lon="3.06083">
        <ele>482.4</ele>
        <time>2022-04-05T14:59:03Z</time>
      </trkpt>
      <trkpt lat="44.15462" lon="3.06077">
        <ele>482.6</ele>
        <time>2022-04-05T14:59:02Z</time>
      </trkpt>
      <trkpt lat="44.15463" lon="3.06071">
        <ele>482.8</ele>
        <time>2022-04-05T14:59:01Z</time>
      </trkpt>
      <trkpt lat="44.15463" lon="3.06066">
        <ele>482.8</ele>
        <time>2022-04-05T14:59:00Z</time>
      </trkpt>
      <trkpt lat="44.15463" lon="3.06061">
        <ele>483</ele>
        <time>2022-04-05T14:58:59Z</time>
      </trkpt>
      <trkpt lat="44.15463" lon="3.06056">
        <ele>483</ele>
        <time>2022-04-05T14:58:58Z</time>
      </trkpt>
      <trkpt lat="44.15464" lon="3.0605">
        <ele>483</ele>
        <time>2022-04-05T14:58:57Z</time>
      </trkpt>
      <trkpt lat="44.15465" lon="3.06044">
        <ele>483.2</ele>
        <time>2022-04-05T14:58:56Z</time>
      </trkpt>
      <trkpt lat="44.15466" lon="3.0604">
        <ele>483.2</ele>
        <time>2022-04-05T14:58:55Z</time>
      </trkpt>
      <trkpt lat="44.15467" lon="3.06037">
        <ele>483.2</ele>
        <time>2022-04-05T14:58:54Z</time>
      </trkpt>
      <trkpt lat="44.15467" lon="3.06034">
        <ele>483.2</ele>
        <time>2022-04-05T14:58:53Z</time>
      </trkpt>
      <trkpt lat="44.15468" lon="3.06031">
        <ele>483.4</ele>
        <time>2022-04-05T14:58:52Z</time>
      </trkpt>
      <trkpt lat="44.15467" lon="3.06027">
        <ele>483.4</ele>
        <time>2022-04-05T14:58:51Z</time>
      </trkpt>
      <trkpt lat="44.15468" lon="3.06023">
        <ele>483.4</ele>
        <time>2022-04-05T14:58:50Z</time>
      </trkpt>
      <trkpt lat="44.15468" lon="3.06019">
        <ele>483.6</ele>
        <time>2022-04-05T14:58:49Z</time>
      </trkpt>
      <trkpt lat="44.15468" lon="3.06015">
        <ele>483.8</ele>
        <time>2022-04-05T14:58:48Z</time>
      </trkpt>
      <trkpt lat="44.15469" lon="3.06012">
        <ele>484.2</ele>
        <time>2022-04-05T14:58:47Z</time>
      </trkpt>
      <trkpt lat="44.15469" lon="3.06009">
        <ele>484.6</ele>
        <time>2022-04-05T14:58:46Z</time>
      </trkpt>
      <trkpt lat="44.15469" lon="3.06006">
        <ele>485.6</ele>
        <time>2022-04-05T14:58:45Z</time>
      </trkpt>
      <trkpt lat="44.15468" lon="3.06002">
        <ele>485.6</ele>
        <time>2022-04-05T14:58:44Z</time>
      </trkpt>
      <trkpt lat="44.15469" lon="3.05998">
        <ele>486</ele>
        <time>2022-04-05T14:58:43Z</time>
      </trkpt>
      <trkpt lat="44.1547" lon="3.05995">
        <ele>486.2</ele>
        <time>2022-04-05T14:58:42Z</time>
      </trkpt>
      <trkpt lat="44.15472" lon="3.05992">
        <ele>486.6</ele>
        <time>2022-04-05T14:58:41Z</time>
      </trkpt>
      <trkpt lat="44.15474" lon="3.05989">
        <ele>486.8</ele>
        <time>2022-04-05T14:58:40Z</time>
      </trkpt>
      <trkpt lat="44.15476" lon="3.05987">
        <ele>487.4</ele>
        <time>2022-04-05T14:58:39Z</time>
      </trkpt>
      <trkpt lat="44.15478" lon="3.05985">
        <ele>488.2</ele>
        <time>2022-04-05T14:58:38Z</time>
      </trkpt>
      <trkpt lat="44.1548" lon="3.05984">
        <ele>488.2</ele>
        <time>2022-04-05T14:58:37Z</time>
      </trkpt>
      <trkpt lat="44.15481" lon="3.05983">
        <ele>488.6</ele>
        <time>2022-04-05T14:58:36Z</time>
      </trkpt>
      <trkpt lat="44.15482" lon="3.0598">
        <ele>488.4</ele>
        <time>2022-04-05T14:58:35Z</time>
      </trkpt>
      <trkpt lat="44.15482" lon="3.05977">
        <ele>488.8</ele>
        <time>2022-04-05T14:58:34Z</time>
      </trkpt>
      <trkpt lat="44.15481" lon="3.05973">
        <ele>489</ele>
        <time>2022-04-05T14:58:33Z</time>
      </trkpt>
      <trkpt lat="44.15481" lon="3.05968">
        <ele>489.6</ele>
        <time>2022-04-05T14:58:32Z</time>
      </trkpt>
      <trkpt lat="44.15482" lon="3.05963">
        <ele>490</ele>
        <time>2022-04-05T14:58:31Z</time>
      </trkpt>
      <trkpt lat="44.15483" lon="3.05959">
        <ele>490.6</ele>
        <time>2022-04-05T14:58:30Z</time>
      </trkpt>
      <trkpt lat="44.15485" lon="3.05955">
        <ele>491</ele>
        <time>2022-04-05T14:58:29Z</time>
      </trkpt>
      <trkpt lat="44.15486" lon="3.05951">
        <ele>491</ele>
        <time>2022-04-05T14:58:28Z</time>
      </trkpt>
      <trkpt lat="44.15488" lon="3.05946">
        <ele>491.2</ele>
        <time>2022-04-05T14:58:27Z</time>
      </trkpt>
      <trkpt lat="44.1549" lon="3.05942">
        <ele>491.2</ele>
        <time>2022-04-05T14:58:26Z</time>
      </trkpt>
      <trkpt lat="44.15492" lon="3.05937">
        <ele>491.4</ele>
        <time>2022-04-05T14:58:25Z</time>
      </trkpt>
      <trkpt lat="44.15493" lon="3.05933">
        <ele>491.6</ele>
        <time>2022-04-05T14:58:24Z</time>
      </trkpt>
      <trkpt lat="44.15494" lon="3.05928">
        <ele>492.2</ele>
        <time>2022-04-05T14:58:23Z</time>
      </trkpt>
      <trkpt lat="44.15495" lon="3.05925">
        <ele>492.4</ele>
        <time>2022-04-05T14:58:22Z</time>
      </trkpt>
      <trkpt lat="44.15496" lon="3.05922">
        <ele>492.6</ele>
        <time>2022-04-05T14:58:21Z</time>
      </trkpt>
      <trkpt lat="44.15496" lon="3.05918">
        <ele>492.6</ele>
        <time>2022-04-05T14:58:20Z</time>
      </trkpt>
      <trkpt lat="44.15498" lon="3.05915">
        <ele>492.8</ele>
        <time>2022-04-05T14:58:19Z</time>
      </trkpt>
      <trkpt lat="44.155" lon="3.05912">
        <ele>492.8</ele>
        <time>2022-04-05T14:58:18Z</time>
      </trkpt>
      <trkpt lat="44.15501" lon="3.05909">
        <ele>492.8</ele>
        <time>2022-04-05T14:58:17Z</time>
      </trkpt>
      <trkpt lat="44.15502" lon="3.05906">
        <ele>492.8</ele>
        <time>2022-04-05T14:58:16Z</time>
      </trkpt>
      <trkpt lat="44.15502" lon="3.05903">
        <ele>492.8</ele>
        <time>2022-04-05T14:58:15Z</time>
      </trkpt>
      <trkpt lat="44.15501" lon="3.059">
        <ele>492.8</ele>
        <time>2022-04-05T14:58:14Z</time>
      </trkpt>
      <trkpt lat="44.155" lon="3.05896">
        <ele>492.8</ele>
        <time>2022-04-05T14:58:13Z</time>
      </trkpt>
      <trkpt lat="44.15499" lon="3.05892">
        <ele>492.8</ele>
        <time>2022-04-05T14:58:12Z</time>
      </trkpt>
      <trkpt lat="44.155" lon="3.05888">
        <ele>492.8</ele>
        <time>2022-04-05T14:58:11Z</time>
      </trkpt>
      <trkpt lat="44.155" lon="3.05884">
        <ele>492.8</ele>
        <time>2022-04-05T14:58:10Z</time>
      </trkpt>
      <trkpt lat="44.15499" lon="3.05882">
        <ele>493</ele>
        <time>2022-04-05T14:58:09Z</time>
      </trkpt>
      <trkpt lat="44.15499" lon="3.0588">
        <ele>493</ele>
        <time>2022-04-05T14:58:08Z</time>
      </trkpt>
      <trkpt lat="44.15499" lon="3.05877">
        <ele>493</ele>
        <time>2022-04-05T14:58:07Z</time>
      </trkpt>
      <trkpt lat="44.15499" lon="3.05875">
        <ele>493</ele>
        <time>2022-04-05T14:58:06Z</time>
      </trkpt>
      <trkpt lat="44.15498" lon="3.05871">
        <ele>493.2</ele>
        <time>2022-04-05T14:58:05Z</time>
      </trkpt>
      <trkpt lat="44.15497" lon="3.05868">
        <ele>493.2</ele>
        <time>2022-04-05T14:58:04Z</time>
      </trkpt>
      <trkpt lat="44.15497" lon="3.05864">
        <ele>493.2</ele>
        <time>2022-04-05T14:58:03Z</time>
      </trkpt>
      <trkpt lat="44.15496" lon="3.05862">
        <ele>493.2</ele>
        <time>2022-04-05T14:58:02Z</time>
      </trkpt>
      <trkpt lat="44.15495" lon="3.05861">
        <ele>493.2</ele>
        <time>2022-04-05T14:58:01Z</time>
      </trkpt>
      <trkpt lat="44.15494" lon="3.05859">
        <ele>493.2</ele>
        <time>2022-04-05T14:58:00Z</time>
      </trkpt>
      <trkpt lat="44.15493" lon="3.05856">
        <ele>493</ele>
        <time>2022-04-05T14:57:59Z</time>
      </trkpt>
      <trkpt lat="44.15493" lon="3.05853">
        <ele>492.6</ele>
        <time>2022-04-05T14:57:58Z</time>
      </trkpt>
      <trkpt lat="44.15492" lon="3.05851">
        <ele>492.4</ele>
        <time>2022-04-05T14:57:57Z</time>
      </trkpt>
      <trkpt lat="44.15491" lon="3.05849">
        <ele>492.2</ele>
        <time>2022-04-05T14:57:56Z</time>
      </trkpt>
      <trkpt lat="44.15491" lon="3.05847">
        <ele>492</ele>
        <time>2022-04-05T14:57:55Z</time>
      </trkpt>
      <trkpt lat="44.1549" lon="3.05846">
        <ele>492</ele>
        <time>2022-04-05T14:57:54Z</time>
      </trkpt>
      <trkpt lat="44.15488" lon="3.05844">
        <ele>491.8</ele>
        <time>2022-04-05T14:57:53Z</time>
      </trkpt>
      <trkpt lat="44.15488" lon="3.05843">
        <ele>491.6</ele>
        <time>2022-04-05T14:57:52Z</time>
      </trkpt>
      <trkpt lat="44.15487" lon="3.05841">
        <ele>491.6</ele>
        <time>2022-04-05T14:57:51Z</time>
      </trkpt>
      <trkpt lat="44.15486" lon="3.05839">
        <ele>491.2</ele>
        <time>2022-04-05T14:57:50Z</time>
      </trkpt>
      <trkpt lat="44.15485" lon="3.05838">
        <ele>491.2</ele>
        <time>2022-04-05T14:57:49Z</time>
      </trkpt>
      <trkpt lat="44.15483" lon="3.05837">
        <ele>491</ele>
        <time>2022-04-05T14:57:48Z</time>
      </trkpt>
      <trkpt lat="44.15482" lon="3.05836">
        <ele>491</ele>
        <time>2022-04-05T14:57:47Z</time>
      </trkpt>
      <trkpt lat="44.15481" lon="3.05835">
        <ele>490.6</ele>
        <time>2022-04-05T14:57:46Z</time>
      </trkpt>
      <trkpt lat="44.1548" lon="3.05833">
        <ele>490.2</ele>
        <time>2022-04-05T14:57:45Z</time>
      </trkpt>
      <trkpt lat="44.1548" lon="3.05832">
        <ele>490</ele>
        <time>2022-04-05T14:57:44Z</time>
      </trkpt>
      <trkpt lat="44.15479" lon="3.0583">
        <ele>490</ele>
        <time>2022-04-05T14:57:43Z</time>
      </trkpt>
      <trkpt lat="44.15479" lon="3.05828">
        <ele>489.8</ele>
        <time>2022-04-05T14:57:42Z</time>
      </trkpt>
      <trkpt lat="44.15478" lon="3.05827">
        <ele>489.6</ele>
        <time>2022-04-05T14:57:41Z</time>
      </trkpt>
      <trkpt lat="44.15477" lon="3.05826">
        <ele>489.4</ele>
        <time>2022-04-05T14:57:40Z</time>
      </trkpt>
      <trkpt lat="44.15475" lon="3.05825">
        <ele>489.4</ele>
        <time>2022-04-05T14:57:39Z</time>
      </trkpt>
      <trkpt lat="44.15473" lon="3.05824">
        <ele>489.2</ele>
        <time>2022-04-05T14:57:38Z</time>
      </trkpt>
      <trkpt lat="44.15472" lon="3.05823">
        <ele>489</ele>
        <time>2022-04-05T14:57:37Z</time>
      </trkpt>
      <trkpt lat="44.15471" lon="3.05822">
        <ele>489</ele>
        <time>2022-04-05T14:57:36Z</time>
      </trkpt>
      <trkpt lat="44.15469" lon="3.05821">
        <ele>488.8</ele>
        <time>2022-04-05T14:57:35Z</time>
      </trkpt>
      <trkpt lat="44.15467" lon="3.05819">
        <ele>488.6</ele>
        <time>2022-04-05T14:57:34Z</time>
      </trkpt>
      <trkpt lat="44.15465" lon="3.05816">
        <ele>488.6</ele>
        <time>2022-04-05T14:57:33Z</time>
      </trkpt>
      <trkpt lat="44.15463" lon="3.05813">
        <ele>488.4</ele>
        <time>2022-04-05T14:57:32Z</time>
      </trkpt>
      <trkpt lat="44.15462" lon="3.0581">
        <ele>488.4</ele>
        <time>2022-04-05T14:57:31Z</time>
      </trkpt>
      <trkpt lat="44.15462" lon="3.05806">
        <ele>488.2</ele>
        <time>2022-04-05T14:57:30Z</time>
      </trkpt>
      <trkpt lat="44.15461" lon="3.05803">
        <ele>488.2</ele>
        <time>2022-04-05T14:57:29Z</time>
      </trkpt>
      <trkpt lat="44.1546" lon="3.058">
        <ele>488</ele>
        <time>2022-04-05T14:57:28Z</time>
      </trkpt>
      <trkpt lat="44.15459" lon="3.05798">
        <ele>488</ele>
        <time>2022-04-05T14:57:27Z</time>
      </trkpt>
      <trkpt lat="44.15458" lon="3.05795">
        <ele>487.8</ele>
        <time>2022-04-05T14:57:26Z</time>
      </trkpt>
      <trkpt lat="44.15457" lon="3.05791">
        <ele>487.4</ele>
        <time>2022-04-05T14:57:25Z</time>
      </trkpt>
      <trkpt lat="44.15457" lon="3.05789">
        <ele>487.4</ele>
        <time>2022-04-05T14:57:24Z</time>
      </trkpt>
      <trkpt lat="44.15456" lon="3.05786">
        <ele>487.4</ele>
        <time>2022-04-05T14:57:23Z</time>
      </trkpt>
      <trkpt lat="44.15455" lon="3.05783">
        <ele>487.2</ele>
        <time>2022-04-05T14:57:22Z</time>
      </trkpt>
      <trkpt lat="44.15455" lon="3.0578">
        <ele>487</ele>
        <time>2022-04-05T14:57:21Z</time>
      </trkpt>
      <trkpt lat="44.15455" lon="3.05778">
        <ele>487</ele>
        <time>2022-04-05T14:57:20Z</time>
      </trkpt>
      <trkpt lat="44.15455" lon="3.05775">
        <ele>486.8</ele>
        <time>2022-04-05T14:57:19Z</time>
      </trkpt>
      <trkpt lat="44.15455" lon="3.05772">
        <ele>486.8</ele>
        <time>2022-04-05T14:57:18Z</time>
      </trkpt>
      <trkpt lat="44.15454" lon="3.0577">
        <ele>486.6</ele>
        <time>2022-04-05T14:57:17Z</time>
      </trkpt>
      <trkpt lat="44.15454" lon="3.05767">
        <ele>486.4</ele>
        <time>2022-04-05T14:57:16Z</time>
      </trkpt>
      <trkpt lat="44.15454" lon="3.05764">
        <ele>486</ele>
        <time>2022-04-05T14:57:15Z</time>
      </trkpt>
      <trkpt lat="44.15455" lon="3.05762">
        <ele>485.6</ele>
        <time>2022-04-05T14:57:14Z</time>
      </trkpt>
      <trkpt lat="44.15474" lon="3.05699">
        <ele>485.4</ele>
        <time>2022-04-05T14:56:45Z</time>
      </trkpt>
      <trkpt lat="44.15474" lon="3.05698">
        <ele>485.6</ele>
        <time>2022-04-05T14:56:44Z</time>
      </trkpt>
      <trkpt lat="44.15475" lon="3.05697">
        <ele>485.8</ele>
        <time>2022-04-05T14:56:43Z</time>
      </trkpt>
      <trkpt lat="44.15475" lon="3.05697">
        <ele>485.8</ele>
        <time>2022-04-05T14:56:42Z</time>
      </trkpt>
      <trkpt lat="44.15475" lon="3.05696">
        <ele>485.8</ele>
        <time>2022-04-05T14:56:41Z</time>
      </trkpt>
      <trkpt lat="44.15475" lon="3.05694">
        <ele>485.8</ele>
        <time>2022-04-05T14:56:40Z</time>
      </trkpt>
      <trkpt lat="44.15477" lon="3.05691">
        <ele>485.8</ele>
        <time>2022-04-05T14:56:39Z</time>
      </trkpt>
      <trkpt lat="44.15486" lon="3.05683">
        <ele>486.2</ele>
        <time>2022-04-05T14:56:21Z</time>
      </trkpt>
      <trkpt lat="44.15487" lon="3.05683">
        <ele>486.2</ele>
        <time>2022-04-05T14:56:20Z</time>
      </trkpt>
      <trkpt lat="44.15487" lon="3.05682">
        <ele>486.2</ele>
        <time>2022-04-05T14:56:19Z</time>
      </trkpt>
      <trkpt lat="44.15488" lon="3.05681">
        <ele>486.2</ele>
        <time>2022-04-05T14:56:18Z</time>
      </trkpt>
      <trkpt lat="44.15489" lon="3.05681">
        <ele>486.2</ele>
        <time>2022-04-05T14:56:17Z</time>
      </trkpt>
      <trkpt lat="44.1549" lon="3.05679">
        <ele>486.2</ele>
        <time>2022-04-05T14:56:16Z</time>
      </trkpt>
      <trkpt lat="44.1549" lon="3.05677">
        <ele>486</ele>
        <time>2022-04-05T14:56:15Z</time>
      </trkpt>
      <trkpt lat="44.15491" lon="3.05676">
        <ele>486</ele>
        <time>2022-04-05T14:56:14Z</time>
      </trkpt>
      <trkpt lat="44.15491" lon="3.05674">
        <ele>486</ele>
        <time>2022-04-05T14:56:13Z</time>
      </trkpt>
      <trkpt lat="44.15491" lon="3.05672">
        <ele>486</ele>
        <time>2022-04-05T14:56:12Z</time>
      </trkpt>
      <trkpt lat="44.15491" lon="3.05669">
        <ele>485.8</ele>
        <time>2022-04-05T14:56:11Z</time>
      </trkpt>
      <trkpt lat="44.15492" lon="3.05668">
        <ele>485.8</ele>
        <time>2022-04-05T14:56:10Z</time>
      </trkpt>
      <trkpt lat="44.15492" lon="3.05667">
        <ele>485.8</ele>
        <time>2022-04-05T14:56:09Z</time>
      </trkpt>
      <trkpt lat="44.15492" lon="3.05665">
        <ele>485.8</ele>
        <time>2022-04-05T14:56:08Z</time>
      </trkpt>
      <trkpt lat="44.1548" lon="3.05621">
        <ele>491.4</ele>
        <time>2022-04-05T14:53:16Z</time>
      </trkpt>
      <trkpt lat="44.1548" lon="3.05621">
        <ele>491.8</ele>
        <time>2022-04-05T14:53:15Z</time>
      </trkpt>
      <trkpt lat="44.15481" lon="3.0562">
        <ele>492.8</ele>
        <time>2022-04-05T14:53:14Z</time>
      </trkpt>
      <trkpt lat="44.15483" lon="3.05619">
        <ele>494</ele>
        <time>2022-04-05T14:53:13Z</time>
      </trkpt>
      <trkpt lat="44.15483" lon="3.05617">
        <ele>494.2</ele>
        <time>2022-04-05T14:53:12Z</time>
      </trkpt>
      <trkpt lat="44.15485" lon="3.05615">
        <ele>494.8</ele>
        <time>2022-04-05T14:53:11Z</time>
      </trkpt>
      <trkpt lat="44.15487" lon="3.05611">
        <ele>495.2</ele>
        <time>2022-04-05T14:53:10Z</time>
      </trkpt>
      <trkpt lat="44.15491" lon="3.05608">
        <ele>495.8</ele>
        <time>2022-04-05T14:53:09Z</time>
      </trkpt>
      <trkpt lat="44.15495" lon="3.05605">
        <ele>496.2</ele>
        <time>2022-04-05T14:53:08Z</time>
      </trkpt>
      <trkpt lat="44.15499" lon="3.05601">
        <ele>497.6</ele>
        <time>2022-04-05T14:53:07Z</time>
      </trkpt>
      <trkpt lat="44.15504" lon="3.05598">
        <ele>498.4</ele>
        <time>2022-04-05T14:53:06Z</time>
      </trkpt>
      <trkpt lat="44.15507" lon="3.05594">
        <ele>500.8</ele>
        <time>2022-04-05T14:53:05Z</time>
      </trkpt>
      <trkpt lat="44.15511" lon="3.05592">
        <ele>501.4</ele>
        <time>2022-04-05T14:53:04Z</time>
      </trkpt>
      <trkpt lat="44.15515" lon="3.05589">
        <ele>502.4</ele>
        <time>2022-04-05T14:53:03Z</time>
      </trkpt>
      <trkpt lat="44.15518" lon="3.05586">
        <ele>503.8</ele>
        <time>2022-04-05T14:53:02Z</time>
      </trkpt>
      <trkpt lat="44.15519" lon="3.05582">
        <ele>504.6</ele>
        <time>2022-04-05T14:53:01Z</time>
      </trkpt>
      <trkpt lat="44.15521" lon="3.05579">
        <ele>506.2</ele>
        <time>2022-04-05T14:53:00Z</time>
      </trkpt>
      <trkpt lat="44.15522" lon="3.05577">
        <ele>507.4</ele>
        <time>2022-04-05T14:52:59Z</time>
      </trkpt>
      <trkpt lat="44.15522" lon="3.05575">
        <ele>508.8</ele>
        <time>2022-04-05T14:52:58Z</time>
      </trkpt>
      <trkpt lat="44.15524" lon="3.05571">
        <ele>509.4</ele>
        <time>2022-04-05T14:52:57Z</time>
      </trkpt>
      <trkpt lat="44.15526" lon="3.05567">
        <ele>510.6</ele>
        <time>2022-04-05T14:52:56Z</time>
      </trkpt>
      <trkpt lat="44.15529" lon="3.05561">
        <ele>510.8</ele>
        <time>2022-04-05T14:52:55Z</time>
      </trkpt>
      <trkpt lat="44.15533" lon="3.05555">
        <ele>511.8</ele>
        <time>2022-04-05T14:52:54Z</time>
      </trkpt>
      <trkpt lat="44.15537" lon="3.05548">
        <ele>512.4</ele>
        <time>2022-04-05T14:52:53Z</time>
      </trkpt>
      <trkpt lat="44.1554" lon="3.05541">
        <ele>514</ele>
        <time>2022-04-05T14:52:52Z</time>
      </trkpt>
      <trkpt lat="44.15542" lon="3.05534">
        <ele>514.8</ele>
        <time>2022-04-05T14:52:51Z</time>
      </trkpt>
      <trkpt lat="44.15544" lon="3.05528">
        <ele>515.2</ele>
        <time>2022-04-05T14:52:50Z</time>
      </trkpt>
      <trkpt lat="44.15545" lon="3.05523">
        <ele>516.4</ele>
        <time>2022-04-05T14:52:49Z</time>
      </trkpt>
      <trkpt lat="44.15546" lon="3.0552">
        <ele>517.2</ele>
        <time>2022-04-05T14:52:48Z</time>
      </trkpt>
      <trkpt lat="44.15545" lon="3.05517">
        <ele>519</ele>
        <time>2022-04-05T14:52:47Z</time>
      </trkpt>
      <trkpt lat="44.15542" lon="3.05516">
        <ele>519.8</ele>
        <time>2022-04-05T14:52:46Z</time>
      </trkpt>
      <trkpt lat="44.15539" lon="3.05517">
        <ele>520.8</ele>
        <time>2022-04-05T14:52:45Z</time>
      </trkpt>
      <trkpt lat="44.15536" lon="3.05517">
        <ele>521</ele>
        <time>2022-04-05T14:52:44Z</time>
      </trkpt>
      <trkpt lat="44.15534" lon="3.05516">
        <ele>521.2</ele>
        <time>2022-04-05T14:52:43Z</time>
      </trkpt>
      <trkpt lat="44.15532" lon="3.05514">
        <ele>521.4</ele>
        <time>2022-04-05T14:52:42Z</time>
      </trkpt>
      <trkpt lat="44.1553" lon="3.05511">
        <ele>521.4</ele>
        <time>2022-04-05T14:52:41Z</time>
      </trkpt>
      <trkpt lat="44.15528" lon="3.05508">
        <ele>521.8</ele>
        <time>2022-04-05T14:52:40Z</time>
      </trkpt>
      <trkpt lat="44.15527" lon="3.05505">
        <ele>521.8</ele>
        <time>2022-04-05T14:52:39Z</time>
      </trkpt>
      <trkpt lat="44.15525" lon="3.05502">
        <ele>522</ele>
        <time>2022-04-05T14:52:38Z</time>
      </trkpt>
      <trkpt lat="44.15523" lon="3.055">
        <ele>522</ele>
        <time>2022-04-05T14:52:37Z</time>
      </trkpt>
      <trkpt lat="44.15521" lon="3.05499">
        <ele>522</ele>
        <time>2022-04-05T14:52:36Z</time>
      </trkpt>
      <trkpt lat="44.15518" lon="3.05498">
        <ele>521.8</ele>
        <time>2022-04-05T14:52:35Z</time>
      </trkpt>
      <trkpt lat="44.15516" lon="3.05496">
        <ele>522</ele>
        <time>2022-04-05T14:52:34Z</time>
      </trkpt>
      <trkpt lat="44.15513" lon="3.05493">
        <ele>522</ele>
        <time>2022-04-05T14:52:33Z</time>
      </trkpt>
      <trkpt lat="44.15511" lon="3.05488">
        <ele>522</ele>
        <time>2022-04-05T14:52:32Z</time>
      </trkpt>
      <trkpt lat="44.1551" lon="3.05484">
        <ele>522.2</ele>
        <time>2022-04-05T14:52:31Z</time>
      </trkpt>
      <trkpt lat="44.15508" lon="3.0548">
        <ele>522.2</ele>
        <time>2022-04-05T14:52:30Z</time>
      </trkpt>
      <trkpt lat="44.15506" lon="3.05476">
        <ele>522.2</ele>
        <time>2022-04-05T14:52:29Z</time>
      </trkpt>
      <trkpt lat="44.15503" lon="3.05472">
        <ele>522.2</ele>
        <time>2022-04-05T14:52:28Z</time>
      </trkpt>
      <trkpt lat="44.15502" lon="3.05468">
        <ele>522.2</ele>
        <time>2022-04-05T14:52:27Z</time>
      </trkpt>
      <trkpt lat="44.155" lon="3.05464">
        <ele>522.2</ele>
        <time>2022-04-05T14:52:26Z</time>
      </trkpt>
      <trkpt lat="44.15498" lon="3.0546">
        <ele>522.4</ele>
        <time>2022-04-05T14:52:25Z</time>
      </trkpt>
      <trkpt lat="44.15496" lon="3.05456">
        <ele>522.4</ele>
        <time>2022-04-05T14:52:24Z</time>
      </trkpt>
      <trkpt lat="44.15495" lon="3.05452">
        <ele>522.2</ele>
        <time>2022-04-05T14:52:23Z</time>
      </trkpt>
      <trkpt lat="44.15493" lon="3.05449">
        <ele>522.2</ele>
        <time>2022-04-05T14:52:22Z</time>
      </trkpt>
      <trkpt lat="44.15492" lon="3.05445">
        <ele>522.2</ele>
        <time>2022-04-05T14:52:21Z</time>
      </trkpt>
      <trkpt lat="44.1549" lon="3.05442">
        <ele>522.2</ele>
        <time>2022-04-05T14:52:20Z</time>
      </trkpt>
      <trkpt lat="44.15489" lon="3.05439">
        <ele>522.2</ele>
        <time>2022-04-05T14:52:19Z</time>
      </trkpt>
      <trkpt lat="44.15488" lon="3.05435">
        <ele>522.2</ele>
        <time>2022-04-05T14:52:18Z</time>
      </trkpt>
      <trkpt lat="44.15486" lon="3.05432">
        <ele>522.2</ele>
        <time>2022-04-05T14:52:17Z</time>
      </trkpt>
      <trkpt lat="44.15485" lon="3.05429">
        <ele>522.2</ele>
        <time>2022-04-05T14:52:16Z</time>
      </trkpt>
      <trkpt lat="44.15483" lon="3.05426">
        <ele>522.2</ele>
        <time>2022-04-05T14:52:15Z</time>
      </trkpt>
      <trkpt lat="44.15481" lon="3.05424">
        <ele>522</ele>
        <time>2022-04-05T14:52:14Z</time>
      </trkpt>
      <trkpt lat="44.15479" lon="3.05422">
        <ele>522</ele>
        <time>2022-04-05T14:52:13Z</time>
      </trkpt>
      <trkpt lat="44.15478" lon="3.05421">
        <ele>522</ele>
        <time>2022-04-05T14:52:12Z</time>
      </trkpt>
      <trkpt lat="44.15477" lon="3.05419">
        <ele>522</ele>
        <time>2022-04-05T14:52:11Z</time>
      </trkpt>
      <trkpt lat="44.15475" lon="3.05416">
        <ele>521.8</ele>
        <time>2022-04-05T14:52:10Z</time>
      </trkpt>
      <trkpt lat="44.15473" lon="3.05413">
        <ele>521.8</ele>
        <time>2022-04-05T14:52:09Z</time>
      </trkpt>
      <trkpt lat="44.15471" lon="3.05409">
        <ele>521.8</ele>
        <time>2022-04-05T14:52:08Z</time>
      </trkpt>
      <trkpt lat="44.15469" lon="3.05405">
        <ele>521.8</ele>
        <time>2022-04-05T14:52:07Z</time>
      </trkpt>
      <trkpt lat="44.15467" lon="3.05401">
        <ele>521.6</ele>
        <time>2022-04-05T14:52:06Z</time>
      </trkpt>
      <trkpt lat="44.15466" lon="3.05398">
        <ele>521.6</ele>
        <time>2022-04-05T14:52:05Z</time>
      </trkpt>
      <trkpt lat="44.15464" lon="3.05396">
        <ele>521.4</ele>
        <time>2022-04-05T14:52:04Z</time>
      </trkpt>
      <trkpt lat="44.15463" lon="3.05394">
        <ele>521.4</ele>
        <time>2022-04-05T14:52:03Z</time>
      </trkpt>
      <trkpt lat="44.15461" lon="3.05391">
        <ele>521.2</ele>
        <time>2022-04-05T14:52:02Z</time>
      </trkpt>
      <trkpt lat="44.1546" lon="3.05388">
        <ele>520.8</ele>
        <time>2022-04-05T14:52:01Z</time>
      </trkpt>
      <trkpt lat="44.15458" lon="3.05385">
        <ele>520.6</ele>
        <time>2022-04-05T14:52:00Z</time>
      </trkpt>
      <trkpt lat="44.15456" lon="3.05382">
        <ele>520.4</ele>
        <time>2022-04-05T14:51:59Z</time>
      </trkpt>
      <trkpt lat="44.15454" lon="3.0538">
        <ele>520.4</ele>
        <time>2022-04-05T14:51:58Z</time>
      </trkpt>
      <trkpt lat="44.15452" lon="3.05377">
        <ele>520.4</ele>
        <time>2022-04-05T14:51:57Z</time>
      </trkpt>
      <trkpt lat="44.1545" lon="3.05373">
        <ele>520</ele>
        <time>2022-04-05T14:51:56Z</time>
      </trkpt>
      <trkpt lat="44.15447" lon="3.05369">
        <ele>519.8</ele>
        <time>2022-04-05T14:51:55Z</time>
      </trkpt>
      <trkpt lat="44.15445" lon="3.05365">
        <ele>519.6</ele>
        <time>2022-04-05T14:51:54Z</time>
      </trkpt>
      <trkpt lat="44.15443" lon="3.0536">
        <ele>519.6</ele>
        <time>2022-04-05T14:51:53Z</time>
      </trkpt>
      <trkpt lat="44.15442" lon="3.05355">
        <ele>519.4</ele>
        <time>2022-04-05T14:51:52Z</time>
      </trkpt>
      <trkpt lat="44.1544" lon="3.05351">
        <ele>519.4</ele>
        <time>2022-04-05T14:51:51Z</time>
      </trkpt>
      <trkpt lat="44.15438" lon="3.05346">
        <ele>519.2</ele>
        <time>2022-04-05T14:51:50Z</time>
      </trkpt>
      <trkpt lat="44.15436" lon="3.05341">
        <ele>519.2</ele>
        <time>2022-04-05T14:51:49Z</time>
      </trkpt>
      <trkpt lat="44.15435" lon="3.05336">
        <ele>519.2</ele>
        <time>2022-04-05T14:51:48Z</time>
      </trkpt>
      <trkpt lat="44.15433" lon="3.05331">
        <ele>519.4</ele>
        <time>2022-04-05T14:51:47Z</time>
      </trkpt>
      <trkpt lat="44.15431" lon="3.05326">
        <ele>519.4</ele>
        <time>2022-04-05T14:51:46Z</time>
      </trkpt>
      <trkpt lat="44.15429" lon="3.0532">
        <ele>519.4</ele>
        <time>2022-04-05T14:51:45Z</time>
      </trkpt>
      <trkpt lat="44.15428" lon="3.05315">
        <ele>519.4</ele>
        <time>2022-04-05T14:51:44Z</time>
      </trkpt>
      <trkpt lat="44.15426" lon="3.05309">
        <ele>519.6</ele>
        <time>2022-04-05T14:51:43Z</time>
      </trkpt>
      <trkpt lat="44.15425" lon="3.05303">
        <ele>519.8</ele>
        <time>2022-04-05T14:51:42Z</time>
      </trkpt>
      <trkpt lat="44.15424" lon="3.05297">
        <ele>520.2</ele>
        <time>2022-04-05T14:51:41Z</time>
      </trkpt>
      <trkpt lat="44.15422" lon="3.05291">
        <ele>520.4</ele>
        <time>2022-04-05T14:51:40Z</time>
      </trkpt>
      <trkpt lat="44.15421" lon="3.05285">
        <ele>520.4</ele>
        <time>2022-04-05T14:51:39Z</time>
      </trkpt>
      <trkpt lat="44.15419" lon="3.05279">
        <ele>520.6</ele>
        <time>2022-04-05T14:51:38Z</time>
      </trkpt>
      <trkpt lat="44.15418" lon="3.05273">
        <ele>520.8</ele>
        <time>2022-04-05T14:51:37Z</time>
      </trkpt>
      <trkpt lat="44.15415" lon="3.05266">
        <ele>521.2</ele>
        <time>2022-04-05T14:51:36Z</time>
      </trkpt>
      <trkpt lat="44.15413" lon="3.05259">
        <ele>521.2</ele>
        <time>2022-04-05T14:51:35Z</time>
      </trkpt>
      <trkpt lat="44.15411" lon="3.05251">
        <ele>521.4</ele>
        <time>2022-04-05T14:51:34Z</time>
      </trkpt>
      <trkpt lat="44.15409" lon="3.05243">
        <ele>521.4</ele>
        <time>2022-04-05T14:51:33Z</time>
      </trkpt>
      <trkpt lat="44.15407" lon="3.05235">
        <ele>521.6</ele>
        <time>2022-04-05T14:51:32Z</time>
      </trkpt>
      <trkpt lat="44.15404" lon="3.05228">
        <ele>521.6</ele>
        <time>2022-04-05T14:51:31Z</time>
      </trkpt>
      <trkpt lat="44.15403" lon="3.05222">
        <ele>521.6</ele>
        <time>2022-04-05T14:51:30Z</time>
      </trkpt>
      <trkpt lat="44.154" lon="3.05215">
        <ele>521.6</ele>
        <time>2022-04-05T14:51:29Z</time>
      </trkpt>
      <trkpt lat="44.15399" lon="3.05209">
        <ele>521.8</ele>
        <time>2022-04-05T14:51:28Z</time>
      </trkpt>
      <trkpt lat="44.15397" lon="3.05202">
        <ele>521.8</ele>
        <time>2022-04-05T14:51:27Z</time>
      </trkpt>
      <trkpt lat="44.15395" lon="3.05194">
        <ele>521.8</ele>
        <time>2022-04-05T14:51:26Z</time>
      </trkpt>
      <trkpt lat="44.15393" lon="3.05189">
        <ele>521.8</ele>
        <time>2022-04-05T14:51:25Z</time>
      </trkpt>
      <trkpt lat="44.15392" lon="3.05183">
        <ele>521.8</ele>
        <time>2022-04-05T14:51:24Z</time>
      </trkpt>
      <trkpt lat="44.1539" lon="3.05177">
        <ele>521.8</ele>
        <time>2022-04-05T14:51:23Z</time>
      </trkpt>
      <trkpt lat="44.15388" lon="3.05171">
        <ele>521.8</ele>
        <time>2022-04-05T14:51:22Z</time>
      </trkpt>
      <trkpt lat="44.15387" lon="3.05165">
        <ele>521.8</ele>
        <time>2022-04-05T14:51:21Z</time>
      </trkpt>
      <trkpt lat="44.15386" lon="3.05159">
        <ele>521.6</ele>
        <time>2022-04-05T14:51:20Z</time>
      </trkpt>
      <trkpt lat="44.15384" lon="3.05153">
        <ele>521.6</ele>
        <time>2022-04-05T14:51:19Z</time>
      </trkpt>
      <trkpt lat="44.15383" lon="3.05148">
        <ele>521.4</ele>
        <time>2022-04-05T14:51:18Z</time>
      </trkpt>
      <trkpt lat="44.15382" lon="3.05142">
        <ele>521.2</ele>
        <time>2022-04-05T14:51:17Z</time>
      </trkpt>
      <trkpt lat="44.1538" lon="3.05135">
        <ele>521</ele>
        <time>2022-04-05T14:51:16Z</time>
      </trkpt>
      <trkpt lat="44.15379" lon="3.0513">
        <ele>521</ele>
        <time>2022-04-05T14:51:15Z</time>
      </trkpt>
      <trkpt lat="44.15377" lon="3.05123">
        <ele>521</ele>
        <time>2022-04-05T14:51:14Z</time>
      </trkpt>
      <trkpt lat="44.15375" lon="3.05117">
        <ele>521</ele>
        <time>2022-04-05T14:51:13Z</time>
      </trkpt>
      <trkpt lat="44.15373" lon="3.05111">
        <ele>521</ele>
        <time>2022-04-05T14:51:12Z</time>
      </trkpt>
      <trkpt lat="44.15372" lon="3.05105">
        <ele>521</ele>
        <time>2022-04-05T14:51:11Z</time>
      </trkpt>
      <trkpt lat="44.1537" lon="3.051">
        <ele>521</ele>
        <time>2022-04-05T14:51:10Z</time>
      </trkpt>
      <trkpt lat="44.15369" lon="3.05094">
        <ele>521</ele>
        <time>2022-04-05T14:51:09Z</time>
      </trkpt>
      <trkpt lat="44.15367" lon="3.05089">
        <ele>521</ele>
        <time>2022-04-05T14:51:08Z</time>
      </trkpt>
      <trkpt lat="44.15365" lon="3.05082">
        <ele>521</ele>
        <time>2022-04-05T14:51:07Z</time>
      </trkpt>
      <trkpt lat="44.15363" lon="3.05076">
        <ele>521.2</ele>
        <time>2022-04-05T14:51:06Z</time>
      </trkpt>
      <trkpt lat="44.15362" lon="3.0507">
        <ele>521.2</ele>
        <time>2022-04-05T14:51:05Z</time>
      </trkpt>
      <trkpt lat="44.1536" lon="3.05064">
        <ele>521.4</ele>
        <time>2022-04-05T14:51:04Z</time>
      </trkpt>
      <trkpt lat="44.15358" lon="3.05056">
        <ele>521.4</ele>
        <time>2022-04-05T14:51:03Z</time>
      </trkpt>
      <trkpt lat="44.15355" lon="3.05048">
        <ele>521.4</ele>
        <time>2022-04-05T14:51:02Z</time>
      </trkpt>
      <trkpt lat="44.15353" lon="3.05041">
        <ele>521.4</ele>
        <time>2022-04-05T14:51:01Z</time>
      </trkpt>
      <trkpt lat="44.1535" lon="3.05036">
        <ele>521.4</ele>
        <time>2022-04-05T14:51:00Z</time>
      </trkpt>
      <trkpt lat="44.15348" lon="3.0503">
        <ele>521.4</ele>
        <time>2022-04-05T14:50:59Z</time>
      </trkpt>
      <trkpt lat="44.15346" lon="3.05023">
        <ele>521.4</ele>
        <time>2022-04-05T14:50:58Z</time>
      </trkpt>
      <trkpt lat="44.15344" lon="3.05017">
        <ele>521.4</ele>
        <time>2022-04-05T14:50:57Z</time>
      </trkpt>
      <trkpt lat="44.15341" lon="3.0501">
        <ele>521.4</ele>
        <time>2022-04-05T14:50:56Z</time>
      </trkpt>
      <trkpt lat="44.1534" lon="3.05005">
        <ele>521.4</ele>
        <time>2022-04-05T14:50:55Z</time>
      </trkpt>
      <trkpt lat="44.15338" lon="3.05">
        <ele>521.6</ele>
        <time>2022-04-05T14:50:54Z</time>
      </trkpt>
      <trkpt lat="44.15336" lon="3.04994">
        <ele>521.6</ele>
        <time>2022-04-05T14:50:53Z</time>
      </trkpt>
      <trkpt lat="44.15335" lon="3.04989">
        <ele>521.6</ele>
        <time>2022-04-05T14:50:52Z</time>
      </trkpt>
      <trkpt lat="44.15333" lon="3.04984">
        <ele>521.6</ele>
        <time>2022-04-05T14:50:51Z</time>
      </trkpt>
      <trkpt lat="44.15332" lon="3.04979">
        <ele>521.6</ele>
        <time>2022-04-05T14:50:50Z</time>
      </trkpt>
      <trkpt lat="44.15331" lon="3.04974">
        <ele>521.6</ele>
        <time>2022-04-05T14:50:49Z</time>
      </trkpt>
      <trkpt lat="44.1533" lon="3.04967">
        <ele>521.6</ele>
        <time>2022-04-05T14:50:48Z</time>
      </trkpt>
      <trkpt lat="44.15329" lon="3.04961">
        <ele>521.6</ele>
        <time>2022-04-05T14:50:47Z</time>
      </trkpt>
      <trkpt lat="44.15329" lon="3.04955">
        <ele>521.6</ele>
        <time>2022-04-05T14:50:46Z</time>
      </trkpt>
      <trkpt lat="44.1533" lon="3.0495">
        <ele>521.6</ele>
        <time>2022-04-05T14:50:45Z</time>
      </trkpt>
      <trkpt lat="44.1533" lon="3.04944">
        <ele>521.4</ele>
        <time>2022-04-05T14:50:44Z</time>
      </trkpt>
      <trkpt lat="44.15331" lon="3.04939">
        <ele>521.4</ele>
        <time>2022-04-05T14:50:43Z</time>
      </trkpt>
      <trkpt lat="44.15332" lon="3.04935">
        <ele>521.4</ele>
        <time>2022-04-05T14:50:42Z</time>
      </trkpt>
      <trkpt lat="44.15332" lon="3.0493">
        <ele>521.4</ele>
        <time>2022-04-05T14:50:41Z</time>
      </trkpt>
      <trkpt lat="44.15332" lon="3.04925">
        <ele>521.4</ele>
        <time>2022-04-05T14:50:40Z</time>
      </trkpt>
      <trkpt lat="44.15331" lon="3.04921">
        <ele>521.2</ele>
        <time>2022-04-05T14:50:39Z</time>
      </trkpt>
      <trkpt lat="44.1533" lon="3.04916">
        <ele>521.4</ele>
        <time>2022-04-05T14:50:38Z</time>
      </trkpt>
      <trkpt lat="44.15328" lon="3.04912">
        <ele>521.2</ele>
        <time>2022-04-05T14:50:37Z</time>
      </trkpt>
      <trkpt lat="44.15326" lon="3.04907">
        <ele>521.2</ele>
        <time>2022-04-05T14:50:36Z</time>
      </trkpt>
      <trkpt lat="44.15325" lon="3.04903">
        <ele>521.2</ele>
        <time>2022-04-05T14:50:35Z</time>
      </trkpt>
      <trkpt lat="44.15324" lon="3.04897">
        <ele>521.2</ele>
        <time>2022-04-05T14:50:34Z</time>
      </trkpt>
      <trkpt lat="44.15324" lon="3.04892">
        <ele>521.2</ele>
        <time>2022-04-05T14:50:33Z</time>
      </trkpt>
      <trkpt lat="44.15323" lon="3.04887">
        <ele>521.2</ele>
        <time>2022-04-05T14:50:32Z</time>
      </trkpt>
      <trkpt lat="44.15323" lon="3.04883">
        <ele>521.2</ele>
        <time>2022-04-05T14:50:31Z</time>
      </trkpt>
      <trkpt lat="44.15322" lon="3.04878">
        <ele>521.4</ele>
        <time>2022-04-05T14:50:30Z</time>
      </trkpt>
      <trkpt lat="44.15322" lon="3.04872">
        <ele>521.4</ele>
        <time>2022-04-05T14:50:29Z</time>
      </trkpt>
      <trkpt lat="44.15321" lon="3.04865">
        <ele>521.6</ele>
        <time>2022-04-05T14:50:28Z</time>
      </trkpt>
      <trkpt lat="44.1532" lon="3.04859">
        <ele>521.8</ele>
        <time>2022-04-05T14:50:27Z</time>
      </trkpt>
      <trkpt lat="44.15319" lon="3.04854">
        <ele>522.2</ele>
        <time>2022-04-05T14:50:26Z</time>
      </trkpt>
      <trkpt lat="44.15319" lon="3.04848">
        <ele>522.2</ele>
        <time>2022-04-05T14:50:25Z</time>
      </trkpt>
      <trkpt lat="44.15319" lon="3.04842">
        <ele>522.2</ele>
        <time>2022-04-05T14:50:24Z</time>
      </trkpt>
      <trkpt lat="44.15318" lon="3.04836">
        <ele>522.4</ele>
        <time>2022-04-05T14:50:23Z</time>
      </trkpt>
      <trkpt lat="44.15317" lon="3.04831">
        <ele>522.4</ele>
        <time>2022-04-05T14:50:22Z</time>
      </trkpt>
      <trkpt lat="44.15316" lon="3.04825">
        <ele>522.4</ele>
        <time>2022-04-05T14:50:21Z</time>
      </trkpt>
      <trkpt lat="44.15315" lon="3.04819">
        <ele>522.4</ele>
        <time>2022-04-05T14:50:20Z</time>
      </trkpt>
      <trkpt lat="44.15314" lon="3.04813">
        <ele>522.4</ele>
        <time>2022-04-05T14:50:19Z</time>
      </trkpt>
      <trkpt lat="44.15313" lon="3.04807">
        <ele>522.4</ele>
        <time>2022-04-05T14:50:18Z</time>
      </trkpt>
      <trkpt lat="44.15313" lon="3.04802">
        <ele>522.4</ele>
        <time>2022-04-05T14:50:17Z</time>
      </trkpt>
      <trkpt lat="44.15313" lon="3.04796">
        <ele>522.4</ele>
        <time>2022-04-05T14:50:16Z</time>
      </trkpt>
      <trkpt lat="44.15313" lon="3.04791">
        <ele>522.4</ele>
        <time>2022-04-05T14:50:15Z</time>
      </trkpt>
      <trkpt lat="44.15313" lon="3.04786">
        <ele>522.2</ele>
        <time>2022-04-05T14:50:14Z</time>
      </trkpt>
      <trkpt lat="44.15313" lon="3.04782">
        <ele>522.2</ele>
        <time>2022-04-05T14:50:13Z</time>
      </trkpt>
      <trkpt lat="44.15312" lon="3.04778">
        <ele>522.2</ele>
        <time>2022-04-05T14:50:12Z</time>
      </trkpt>
      <trkpt lat="44.15312" lon="3.04774">
        <ele>522.2</ele>
        <time>2022-04-05T14:50:11Z</time>
      </trkpt>
      <trkpt lat="44.15312" lon="3.0477">
        <ele>522.2</ele>
        <time>2022-04-05T14:50:10Z</time>
      </trkpt>
      <trkpt lat="44.15311" lon="3.04766">
        <ele>522.2</ele>
        <time>2022-04-05T14:50:09Z</time>
      </trkpt>
      <trkpt lat="44.15311" lon="3.04762">
        <ele>522</ele>
        <time>2022-04-05T14:50:08Z</time>
      </trkpt>
      <trkpt lat="44.1531" lon="3.04758">
        <ele>521.8</ele>
        <time>2022-04-05T14:50:07Z</time>
      </trkpt>
      <trkpt lat="44.1531" lon="3.04754">
        <ele>521.4</ele>
        <time>2022-04-05T14:50:06Z</time>
      </trkpt>
      <trkpt lat="44.15309" lon="3.04751">
        <ele>521.2</ele>
        <time>2022-04-05T14:50:05Z</time>
      </trkpt>
      <trkpt lat="44.15308" lon="3.04748">
        <ele>521</ele>
        <time>2022-04-05T14:50:04Z</time>
      </trkpt>
      <trkpt lat="44.15307" lon="3.04745">
        <ele>520.8</ele>
        <time>2022-04-05T14:50:03Z</time>
      </trkpt>
      <trkpt lat="44.15306" lon="3.04741">
        <ele>520.6</ele>
        <time>2022-04-05T14:50:02Z</time>
      </trkpt>
      <trkpt lat="44.15305" lon="3.04738">
        <ele>520.4</ele>
        <time>2022-04-05T14:50:01Z</time>
      </trkpt>
      <trkpt lat="44.15305" lon="3.04735">
        <ele>520.4</ele>
        <time>2022-04-05T14:50:00Z</time>
      </trkpt>
      <trkpt lat="44.15303" lon="3.04731">
        <ele>520.2</ele>
        <time>2022-04-05T14:49:59Z</time>
      </trkpt>
      <trkpt lat="44.15302" lon="3.04727">
        <ele>520</ele>
        <time>2022-04-05T14:49:58Z</time>
      </trkpt>
      <trkpt lat="44.153" lon="3.04724">
        <ele>519.8</ele>
        <time>2022-04-05T14:49:57Z</time>
      </trkpt>
      <trkpt lat="44.15299" lon="3.04721">
        <ele>519.6</ele>
        <time>2022-04-05T14:49:56Z</time>
      </trkpt>
      <trkpt lat="44.15298" lon="3.04717">
        <ele>519.4</ele>
        <time>2022-04-05T14:49:55Z</time>
      </trkpt>
      <trkpt lat="44.15297" lon="3.04714">
        <ele>519.2</ele>
        <time>2022-04-05T14:49:54Z</time>
      </trkpt>
      <trkpt lat="44.15296" lon="3.0471">
        <ele>518.6</ele>
        <time>2022-04-05T14:49:53Z</time>
      </trkpt>
      <trkpt lat="44.15295" lon="3.04707">
        <ele>518</ele>
        <time>2022-04-05T14:49:52Z</time>
      </trkpt>
      <trkpt lat="44.15294" lon="3.04703">
        <ele>518</ele>
        <time>2022-04-05T14:49:51Z</time>
      </trkpt>
      <trkpt lat="44.15293" lon="3.047">
        <ele>517.8</ele>
        <time>2022-04-05T14:49:50Z</time>
      </trkpt>
      <trkpt lat="44.15293" lon="3.04697">
        <ele>517.8</ele>
        <time>2022-04-05T14:49:49Z</time>
      </trkpt>
      <trkpt lat="44.15293" lon="3.04694">
        <ele>517.8</ele>
        <time>2022-04-05T14:49:48Z</time>
      </trkpt>
      <trkpt lat="44.15292" lon="3.0469">
        <ele>517.6</ele>
        <time>2022-04-05T14:49:47Z</time>
      </trkpt>
      <trkpt lat="44.15292" lon="3.04687">
        <ele>517.6</ele>
        <time>2022-04-05T14:49:46Z</time>
      </trkpt>
      <trkpt lat="44.15292" lon="3.04684">
        <ele>517.6</ele>
        <time>2022-04-05T14:49:45Z</time>
      </trkpt>
      <trkpt lat="44.15291" lon="3.04681">
        <ele>517.4</ele>
        <time>2022-04-05T14:49:44Z</time>
      </trkpt>
      <trkpt lat="44.15291" lon="3.04678">
        <ele>517.4</ele>
        <time>2022-04-05T14:49:43Z</time>
      </trkpt>
      <trkpt lat="44.15292" lon="3.04675">
        <ele>517.4</ele>
        <time>2022-04-05T14:49:42Z</time>
      </trkpt>
      <trkpt lat="44.15292" lon="3.04673">
        <ele>517.4</ele>
        <time>2022-04-05T14:49:41Z</time>
      </trkpt>
      <trkpt lat="44.15292" lon="3.04671">
        <ele>517.4</ele>
        <time>2022-04-05T14:49:40Z</time>
      </trkpt>
      <trkpt lat="44.15292" lon="3.04669">
        <ele>517.4</ele>
        <time>2022-04-05T14:49:39Z</time>
      </trkpt>
      <trkpt lat="44.15292" lon="3.04667">
        <ele>517.4</ele>
        <time>2022-04-05T14:49:38Z</time>
      </trkpt>
      <trkpt lat="44.15291" lon="3.04663">
        <ele>518.8</ele>
        <time>2022-04-05T14:47:49Z</time>
      </trkpt>
      <trkpt lat="44.15291" lon="3.04663">
        <ele>518.8</ele>
        <time>2022-04-05T14:47:48Z</time>
      </trkpt>
      <trkpt lat="44.15291" lon="3.04662">
        <ele>519</ele>
        <time>2022-04-05T14:47:47Z</time>
      </trkpt>
      <trkpt lat="44.15291" lon="3.0466">
        <ele>519.2</ele>
        <time>2022-04-05T14:47:46Z</time>
      </trkpt>
      <trkpt lat="44.15291" lon="3.04658">
        <ele>519.4</ele>
        <time>2022-04-05T14:47:45Z</time>
      </trkpt>
      <trkpt lat="44.1529" lon="3.04654">
        <ele>519.4</ele>
        <time>2022-04-05T14:47:44Z</time>
      </trkpt>
      <trkpt lat="44.15289" lon="3.0465">
        <ele>519.6</ele>
        <time>2022-04-05T14:47:43Z</time>
      </trkpt>
      <trkpt lat="44.15287" lon="3.04646">
        <ele>519.6</ele>
        <time>2022-04-05T14:47:42Z</time>
      </trkpt>
      <trkpt lat="44.15285" lon="3.0464">
        <ele>519.8</ele>
        <time>2022-04-05T14:47:41Z</time>
      </trkpt>
      <trkpt lat="44.15283" lon="3.04635">
        <ele>519.8</ele>
        <time>2022-04-05T14:47:40Z</time>
      </trkpt>
      <trkpt lat="44.15282" lon="3.04629">
        <ele>519.8</ele>
        <time>2022-04-05T14:47:39Z</time>
      </trkpt>
      <trkpt lat="44.15281" lon="3.04622">
        <ele>519.8</ele>
        <time>2022-04-05T14:47:38Z</time>
      </trkpt>
      <trkpt lat="44.1528" lon="3.04614">
        <ele>519.8</ele>
        <time>2022-04-05T14:47:37Z</time>
      </trkpt>
      <trkpt lat="44.15278" lon="3.04608">
        <ele>519.8</ele>
        <time>2022-04-05T14:47:36Z</time>
      </trkpt>
      <trkpt lat="44.15277" lon="3.04603">
        <ele>520</ele>
        <time>2022-04-05T14:47:35Z</time>
      </trkpt>
      <trkpt lat="44.15275" lon="3.04597">
        <ele>520</ele>
        <time>2022-04-05T14:47:34Z</time>
      </trkpt>
      <trkpt lat="44.15273" lon="3.04591">
        <ele>520</ele>
        <time>2022-04-05T14:47:33Z</time>
      </trkpt>
      <trkpt lat="44.15272" lon="3.04584">
        <ele>520</ele>
        <time>2022-04-05T14:47:32Z</time>
      </trkpt>
      <trkpt lat="44.15271" lon="3.04577">
        <ele>520</ele>
        <time>2022-04-05T14:47:31Z</time>
      </trkpt>
      <trkpt lat="44.1527" lon="3.04571">
        <ele>520</ele>
        <time>2022-04-05T14:47:30Z</time>
      </trkpt>
      <trkpt lat="44.15268" lon="3.04564">
        <ele>520</ele>
        <time>2022-04-05T14:47:29Z</time>
      </trkpt>
      <trkpt lat="44.15265" lon="3.04558">
        <ele>520</ele>
        <time>2022-04-05T14:47:28Z</time>
      </trkpt>
      <trkpt lat="44.15263" lon="3.04552">
        <ele>520</ele>
        <time>2022-04-05T14:47:27Z</time>
      </trkpt>
      <trkpt lat="44.1526" lon="3.04544">
        <ele>520.2</ele>
        <time>2022-04-05T14:47:26Z</time>
      </trkpt>
      <trkpt lat="44.15258" lon="3.04538">
        <ele>520.2</ele>
        <time>2022-04-05T14:47:25Z</time>
      </trkpt>
      <trkpt lat="44.15256" lon="3.04533">
        <ele>520.2</ele>
        <time>2022-04-05T14:47:24Z</time>
      </trkpt>
      <trkpt lat="44.15252" lon="3.04527">
        <ele>520.4</ele>
        <time>2022-04-05T14:47:23Z</time>
      </trkpt>
      <trkpt lat="44.15249" lon="3.04521">
        <ele>520.4</ele>
        <time>2022-04-05T14:47:22Z</time>
      </trkpt>
      <trkpt lat="44.15245" lon="3.04516">
        <ele>520.4</ele>
        <time>2022-04-05T14:47:21Z</time>
      </trkpt>
      <trkpt lat="44.15242" lon="3.04512">
        <ele>520.8</ele>
        <time>2022-04-05T14:47:20Z</time>
      </trkpt>
      <trkpt lat="44.15239" lon="3.04507">
        <ele>520.8</ele>
        <time>2022-04-05T14:47:19Z</time>
      </trkpt>
      <trkpt lat="44.15235" lon="3.04502">
        <ele>520.8</ele>
        <time>2022-04-05T14:47:18Z</time>
      </trkpt>
      <trkpt lat="44.1523" lon="3.04497">
        <ele>521</ele>
        <time>2022-04-05T14:47:17Z</time>
      </trkpt>
      <trkpt lat="44.15226" lon="3.04492">
        <ele>521.2</ele>
        <time>2022-04-05T14:47:16Z</time>
      </trkpt>
      <trkpt lat="44.15223" lon="3.04486">
        <ele>521.2</ele>
        <time>2022-04-05T14:47:15Z</time>
      </trkpt>
      <trkpt lat="44.15219" lon="3.0448">
        <ele>521.6</ele>
        <time>2022-04-05T14:47:14Z</time>
      </trkpt>
      <trkpt lat="44.15215" lon="3.04474">
        <ele>521.8</ele>
        <time>2022-04-05T14:47:13Z</time>
      </trkpt>
      <trkpt lat="44.15212" lon="3.04468">
        <ele>522.2</ele>
        <time>2022-04-05T14:47:12Z</time>
      </trkpt>
      <trkpt lat="44.15208" lon="3.04462">
        <ele>522.6</ele>
        <time>2022-04-05T14:47:11Z</time>
      </trkpt>
      <trkpt lat="44.15205" lon="3.04456">
        <ele>522.6</ele>
        <time>2022-04-05T14:47:10Z</time>
      </trkpt>
      <trkpt lat="44.15203" lon="3.0445">
        <ele>522.6</ele>
        <time>2022-04-05T14:47:09Z</time>
      </trkpt>
      <trkpt lat="44.152" lon="3.04444">
        <ele>522.8</ele>
        <time>2022-04-05T14:47:08Z</time>
      </trkpt>
      <trkpt lat="44.15198" lon="3.04437">
        <ele>522.8</ele>
        <time>2022-04-05T14:47:07Z</time>
      </trkpt>
      <trkpt lat="44.15197" lon="3.0443">
        <ele>522.8</ele>
        <time>2022-04-05T14:47:06Z</time>
      </trkpt>
      <trkpt lat="44.15196" lon="3.04423">
        <ele>523.2</ele>
        <time>2022-04-05T14:47:05Z</time>
      </trkpt>
      <trkpt lat="44.15195" lon="3.04416">
        <ele>523.4</ele>
        <time>2022-04-05T14:47:04Z</time>
      </trkpt>
      <trkpt lat="44.15194" lon="3.04408">
        <ele>524</ele>
        <time>2022-04-05T14:47:03Z</time>
      </trkpt>
      <trkpt lat="44.15194" lon="3.04399">
        <ele>524.2</ele>
        <time>2022-04-05T14:47:02Z</time>
      </trkpt>
      <trkpt lat="44.15194" lon="3.0439">
        <ele>525.2</ele>
        <time>2022-04-05T14:47:01Z</time>
      </trkpt>
      <trkpt lat="44.15194" lon="3.04381">
        <ele>526</ele>
        <time>2022-04-05T14:47:00Z</time>
      </trkpt>
      <trkpt lat="44.15195" lon="3.04372">
        <ele>526.2</ele>
        <time>2022-04-05T14:46:59Z</time>
      </trkpt>
      <trkpt lat="44.15195" lon="3.04363">
        <ele>526.8</ele>
        <time>2022-04-05T14:46:58Z</time>
      </trkpt>
      <trkpt lat="44.15196" lon="3.04354">
        <ele>526.8</ele>
        <time>2022-04-05T14:46:57Z</time>
      </trkpt>
      <trkpt lat="44.15197" lon="3.04345">
        <ele>527.2</ele>
        <time>2022-04-05T14:46:56Z</time>
      </trkpt>
      <trkpt lat="44.15199" lon="3.04336">
        <ele>527.2</ele>
        <time>2022-04-05T14:46:55Z</time>
      </trkpt>
      <trkpt lat="44.152" lon="3.04327">
        <ele>527.4</ele>
        <time>2022-04-05T14:46:54Z</time>
      </trkpt>
      <trkpt lat="44.152" lon="3.04318">
        <ele>527.4</ele>
        <time>2022-04-05T14:46:53Z</time>
      </trkpt>
      <trkpt lat="44.15201" lon="3.04309">
        <ele>527.4</ele>
        <time>2022-04-05T14:46:52Z</time>
      </trkpt>
      <trkpt lat="44.15201" lon="3.04301">
        <ele>527.4</ele>
        <time>2022-04-05T14:46:51Z</time>
      </trkpt>
      <trkpt lat="44.15202" lon="3.04292">
        <ele>527.6</ele>
        <time>2022-04-05T14:46:50Z</time>
      </trkpt>
      <trkpt lat="44.15202" lon="3.04283">
        <ele>527.8</ele>
        <time>2022-04-05T14:46:49Z</time>
      </trkpt>
      <trkpt lat="44.15202" lon="3.04274">
        <ele>528</ele>
        <time>2022-04-05T14:46:48Z</time>
      </trkpt>
      <trkpt lat="44.15201" lon="3.04266">
        <ele>528.6</ele>
        <time>2022-04-05T14:46:47Z</time>
      </trkpt>
      <trkpt lat="44.152" lon="3.04257">
        <ele>529</ele>
        <time>2022-04-05T14:46:46Z</time>
      </trkpt>
      <trkpt lat="44.15198" lon="3.04248">
        <ele>529.4</ele>
        <time>2022-04-05T14:46:45Z</time>
      </trkpt>
      <trkpt lat="44.15195" lon="3.04239">
        <ele>529.6</ele>
        <time>2022-04-05T14:46:44Z</time>
      </trkpt>
      <trkpt lat="44.15193" lon="3.0423">
        <ele>529.8</ele>
        <time>2022-04-05T14:46:43Z</time>
      </trkpt>
      <trkpt lat="44.15191" lon="3.04221">
        <ele>530</ele>
        <time>2022-04-05T14:46:42Z</time>
      </trkpt>
      <trkpt lat="44.15189" lon="3.04212">
        <ele>530.4</ele>
        <time>2022-04-05T14:46:41Z</time>
      </trkpt>
      <trkpt lat="44.15186" lon="3.04204">
        <ele>530.8</ele>
        <time>2022-04-05T14:46:40Z</time>
      </trkpt>
      <trkpt lat="44.15183" lon="3.04196">
        <ele>531</ele>
        <time>2022-04-05T14:46:39Z</time>
      </trkpt>
      <trkpt lat="44.15179" lon="3.04189">
        <ele>531.2</ele>
        <time>2022-04-05T14:46:38Z</time>
      </trkpt>
      <trkpt lat="44.15174" lon="3.04183">
        <ele>531.4</ele>
        <time>2022-04-05T14:46:37Z</time>
      </trkpt>
      <trkpt lat="44.1517" lon="3.04178">
        <ele>531.6</ele>
        <time>2022-04-05T14:46:36Z</time>
      </trkpt>
      <trkpt lat="44.15165" lon="3.04172">
        <ele>531.8</ele>
        <time>2022-04-05T14:46:35Z</time>
      </trkpt>
      <trkpt lat="44.1516" lon="3.04166">
        <ele>531.8</ele>
        <time>2022-04-05T14:46:34Z</time>
      </trkpt>
      <trkpt lat="44.15156" lon="3.0416">
        <ele>531.8</ele>
        <time>2022-04-05T14:46:33Z</time>
      </trkpt>
      <trkpt lat="44.15152" lon="3.04154">
        <ele>532.2</ele>
        <time>2022-04-05T14:46:32Z</time>
      </trkpt>
      <trkpt lat="44.15148" lon="3.04147">
        <ele>532.2</ele>
        <time>2022-04-05T14:46:31Z</time>
      </trkpt>
      <trkpt lat="44.15146" lon="3.04139">
        <ele>532.4</ele>
        <time>2022-04-05T14:46:30Z</time>
      </trkpt>
      <trkpt lat="44.15144" lon="3.04131">
        <ele>532.4</ele>
        <time>2022-04-05T14:46:29Z</time>
      </trkpt>
      <trkpt lat="44.15142" lon="3.04124">
        <ele>532.4</ele>
        <time>2022-04-05T14:46:28Z</time>
      </trkpt>
      <trkpt lat="44.1514" lon="3.04117">
        <ele>532.6</ele>
        <time>2022-04-05T14:46:27Z</time>
      </trkpt>
      <trkpt lat="44.15139" lon="3.0411">
        <ele>532.8</ele>
        <time>2022-04-05T14:46:26Z</time>
      </trkpt>
      <trkpt lat="44.15137" lon="3.04103">
        <ele>533</ele>
        <time>2022-04-05T14:46:25Z</time>
      </trkpt>
      <trkpt lat="44.15135" lon="3.04096">
        <ele>533.4</ele>
        <time>2022-04-05T14:46:24Z</time>
      </trkpt>
      <trkpt lat="44.15133" lon="3.04089">
        <ele>534.4</ele>
        <time>2022-04-05T14:46:23Z</time>
      </trkpt>
      <trkpt lat="44.15132" lon="3.04081">
        <ele>535</ele>
        <time>2022-04-05T14:46:22Z</time>
      </trkpt>
      <trkpt lat="44.1513" lon="3.04074">
        <ele>536.4</ele>
        <time>2022-04-05T14:46:21Z</time>
      </trkpt>
      <trkpt lat="44.1513" lon="3.04066">
        <ele>536.8</ele>
        <time>2022-04-05T14:46:20Z</time>
      </trkpt>
      <trkpt lat="44.15128" lon="3.04058">
        <ele>538.4</ele>
        <time>2022-04-05T14:46:19Z</time>
      </trkpt>
      <trkpt lat="44.15125" lon="3.04052">
        <ele>539</ele>
        <time>2022-04-05T14:46:18Z</time>
      </trkpt>
      <trkpt lat="44.15121" lon="3.04046">
        <ele>540</ele>
        <time>2022-04-05T14:46:17Z</time>
      </trkpt>
      <trkpt lat="44.15116" lon="3.0404">
        <ele>541.2</ele>
        <time>2022-04-05T14:46:16Z</time>
      </trkpt>
      <trkpt lat="44.15111" lon="3.04031">
        <ele>541.4</ele>
        <time>2022-04-05T14:46:15Z</time>
      </trkpt>
      <trkpt lat="44.15108" lon="3.0402">
        <ele>541.8</ele>
        <time>2022-04-05T14:46:14Z</time>
      </trkpt>
      <trkpt lat="44.15104" lon="3.04009">
        <ele>542.2</ele>
        <time>2022-04-05T14:46:13Z</time>
      </trkpt>
      <trkpt lat="44.151" lon="3.03999">
        <ele>543.6</ele>
        <time>2022-04-05T14:46:12Z</time>
      </trkpt>
      <trkpt lat="44.15095" lon="3.03989">
        <ele>543.8</ele>
        <time>2022-04-05T14:46:11Z</time>
      </trkpt>
      <trkpt lat="44.15089" lon="3.0398">
        <ele>544.4</ele>
        <time>2022-04-05T14:46:10Z</time>
      </trkpt>
      <trkpt lat="44.15082" lon="3.03971">
        <ele>545</ele>
        <time>2022-04-05T14:46:09Z</time>
      </trkpt>
      <trkpt lat="44.15076" lon="3.03963">
        <ele>546.4</ele>
        <time>2022-04-05T14:46:08Z</time>
      </trkpt>
      <trkpt lat="44.15069" lon="3.03955">
        <ele>547</ele>
        <time>2022-04-05T14:46:07Z</time>
      </trkpt>
      <trkpt lat="44.15064" lon="3.03945">
        <ele>547.8</ele>
        <time>2022-04-05T14:46:06Z</time>
      </trkpt>
      <trkpt lat="44.1506" lon="3.03935">
        <ele>548.4</ele>
        <time>2022-04-05T14:46:05Z</time>
      </trkpt>
      <trkpt lat="44.15057" lon="3.03925">
        <ele>548.4</ele>
        <time>2022-04-05T14:46:04Z</time>
      </trkpt>
      <trkpt lat="44.15054" lon="3.03914">
        <ele>548.6</ele>
        <time>2022-04-05T14:46:03Z</time>
      </trkpt>
      <trkpt lat="44.1505" lon="3.03904">
        <ele>548.8</ele>
        <time>2022-04-05T14:46:02Z</time>
      </trkpt>
      <trkpt lat="44.15046" lon="3.03895">
        <ele>548.8</ele>
        <time>2022-04-05T14:46:01Z</time>
      </trkpt>
      <trkpt lat="44.15042" lon="3.03886">
        <ele>549</ele>
        <time>2022-04-05T14:46:00Z</time>
      </trkpt>
      <trkpt lat="44.15039" lon="3.03876">
        <ele>549.2</ele>
        <time>2022-04-05T14:45:59Z</time>
      </trkpt>
      <trkpt lat="44.15035" lon="3.03867">
        <ele>549.2</ele>
        <time>2022-04-05T14:45:58Z</time>
      </trkpt>
      <trkpt lat="44.15031" lon="3.03857">
        <ele>549.4</ele>
        <time>2022-04-05T14:45:57Z</time>
      </trkpt>
      <trkpt lat="44.15027" lon="3.03847">
        <ele>549.6</ele>
        <time>2022-04-05T14:45:56Z</time>
      </trkpt>
      <trkpt lat="44.15024" lon="3.03837">
        <ele>549.8</ele>
        <time>2022-04-05T14:45:55Z</time>
      </trkpt>
      <trkpt lat="44.15021" lon="3.03828">
        <ele>550.4</ele>
        <time>2022-04-05T14:45:54Z</time>
      </trkpt>
      <trkpt lat="44.15017" lon="3.03816">
        <ele>550.8</ele>
        <time>2022-04-05T14:45:53Z</time>
      </trkpt>
      <trkpt lat="44.15012" lon="3.03806">
        <ele>551.4</ele>
        <time>2022-04-05T14:45:52Z</time>
      </trkpt>
      <trkpt lat="44.15007" lon="3.03796">
        <ele>551.8</ele>
        <time>2022-04-05T14:45:51Z</time>
      </trkpt>
      <trkpt lat="44.15002" lon="3.03786">
        <ele>552.8</ele>
        <time>2022-04-05T14:45:50Z</time>
      </trkpt>
      <trkpt lat="44.14996" lon="3.03776">
        <ele>552.8</ele>
        <time>2022-04-05T14:45:49Z</time>
      </trkpt>
      <trkpt lat="44.1499" lon="3.03767">
        <ele>553.4</ele>
        <time>2022-04-05T14:45:48Z</time>
      </trkpt>
      <trkpt lat="44.14984" lon="3.03759">
        <ele>553.8</ele>
        <time>2022-04-05T14:45:47Z</time>
      </trkpt>
      <trkpt lat="44.14978" lon="3.03751">
        <ele>554.6</ele>
        <time>2022-04-05T14:45:46Z</time>
      </trkpt>
      <trkpt lat="44.14972" lon="3.03743">
        <ele>554.8</ele>
        <time>2022-04-05T14:45:45Z</time>
      </trkpt>
      <trkpt lat="44.14966" lon="3.03734">
        <ele>555</ele>
        <time>2022-04-05T14:45:44Z</time>
      </trkpt>
      <trkpt lat="44.14959" lon="3.03725">
        <ele>555.6</ele>
        <time>2022-04-05T14:45:43Z</time>
      </trkpt>
      <trkpt lat="44.14954" lon="3.03717">
        <ele>555.8</ele>
        <time>2022-04-05T14:45:42Z</time>
      </trkpt>
      <trkpt lat="44.14948" lon="3.03709">
        <ele>556.2</ele>
        <time>2022-04-05T14:45:41Z</time>
      </trkpt>
      <trkpt lat="44.14943" lon="3.037">
        <ele>556.2</ele>
        <time>2022-04-05T14:45:40Z</time>
      </trkpt>
      <trkpt lat="44.14938" lon="3.03692">
        <ele>556.6</ele>
        <time>2022-04-05T14:45:39Z</time>
      </trkpt>
      <trkpt lat="44.14933" lon="3.03683">
        <ele>556.8</ele>
        <time>2022-04-05T14:45:38Z</time>
      </trkpt>
      <trkpt lat="44.14929" lon="3.03673">
        <ele>557.6</ele>
        <time>2022-04-05T14:45:37Z</time>
      </trkpt>
      <trkpt lat="44.14925" lon="3.03663">
        <ele>558.2</ele>
        <time>2022-04-05T14:45:36Z</time>
      </trkpt>
      <trkpt lat="44.14921" lon="3.03652">
        <ele>559.8</ele>
        <time>2022-04-05T14:45:35Z</time>
      </trkpt>
      <trkpt lat="44.14917" lon="3.0364">
        <ele>561</ele>
        <time>2022-04-05T14:45:34Z</time>
      </trkpt>
      <trkpt lat="44.14913" lon="3.03628">
        <ele>561.4</ele>
        <time>2022-04-05T14:45:33Z</time>
      </trkpt>
      <trkpt lat="44.14907" lon="3.03617">
        <ele>562.2</ele>
        <time>2022-04-05T14:45:32Z</time>
      </trkpt>
      <trkpt lat="44.149" lon="3.03608">
        <ele>562.6</ele>
        <time>2022-04-05T14:45:31Z</time>
      </trkpt>
      <trkpt lat="44.14893" lon="3.036">
        <ele>563.4</ele>
        <time>2022-04-05T14:45:30Z</time>
      </trkpt>
      <trkpt lat="44.14884" lon="3.03593">
        <ele>564</ele>
        <time>2022-04-05T14:45:29Z</time>
      </trkpt>
      <trkpt lat="44.14876" lon="3.03587">
        <ele>565.4</ele>
        <time>2022-04-05T14:45:28Z</time>
      </trkpt>
      <trkpt lat="44.14869" lon="3.03581">
        <ele>566</ele>
        <time>2022-04-05T14:45:27Z</time>
      </trkpt>
      <trkpt lat="44.14862" lon="3.03574">
        <ele>566.6</ele>
        <time>2022-04-05T14:45:26Z</time>
      </trkpt>
      <trkpt lat="44.14855" lon="3.03567">
        <ele>566.8</ele>
        <time>2022-04-05T14:45:25Z</time>
      </trkpt>
      <trkpt lat="44.14849" lon="3.0356">
        <ele>567</ele>
        <time>2022-04-05T14:45:24Z</time>
      </trkpt>
      <trkpt lat="44.14842" lon="3.03553">
        <ele>567.2</ele>
        <time>2022-04-05T14:45:23Z</time>
      </trkpt>
      <trkpt lat="44.14836" lon="3.03547">
        <ele>567.2</ele>
        <time>2022-04-05T14:45:22Z</time>
      </trkpt>
      <trkpt lat="44.14831" lon="3.0354">
        <ele>567.2</ele>
        <time>2022-04-05T14:45:21Z</time>
      </trkpt>
      <trkpt lat="44.14826" lon="3.03535">
        <ele>567</ele>
        <time>2022-04-05T14:45:20Z</time>
      </trkpt>
      <trkpt lat="44.14821" lon="3.03529">
        <ele>567</ele>
        <time>2022-04-05T14:45:19Z</time>
      </trkpt>
      <trkpt lat="44.14817" lon="3.03525">
        <ele>567</ele>
        <time>2022-04-05T14:45:18Z</time>
      </trkpt>
      <trkpt lat="44.14812" lon="3.03521">
        <ele>567</ele>
        <time>2022-04-05T14:45:17Z</time>
      </trkpt>
      <trkpt lat="44.14808" lon="3.03518">
        <ele>567</ele>
        <time>2022-04-05T14:45:16Z</time>
      </trkpt>
      <trkpt lat="44.14805" lon="3.03515">
        <ele>567</ele>
        <time>2022-04-05T14:45:15Z</time>
      </trkpt>
      <trkpt lat="44.14801" lon="3.03513">
        <ele>567</ele>
        <time>2022-04-05T14:45:14Z</time>
      </trkpt>
      <trkpt lat="44.14797" lon="3.03511">
        <ele>566.8</ele>
        <time>2022-04-05T14:45:13Z</time>
      </trkpt>
      <trkpt lat="44.14794" lon="3.0351">
        <ele>566.8</ele>
        <time>2022-04-05T14:45:12Z</time>
      </trkpt>
      <trkpt lat="44.14791" lon="3.03509">
        <ele>566.8</ele>
        <time>2022-04-05T14:45:11Z</time>
      </trkpt>
      <trkpt lat="44.14788" lon="3.03508">
        <ele>566.8</ele>
        <time>2022-04-05T14:45:10Z</time>
      </trkpt>
      <trkpt lat="44.14785" lon="3.03507">
        <ele>566.8</ele>
        <time>2022-04-05T14:45:09Z</time>
      </trkpt>
      <trkpt lat="44.14781" lon="3.03506">
        <ele>567</ele>
        <time>2022-04-05T14:45:08Z</time>
      </trkpt>
      <trkpt lat="44.14778" lon="3.03506">
        <ele>567</ele>
        <time>2022-04-05T14:45:07Z</time>
      </trkpt>
      <trkpt lat="44.14775" lon="3.03505">
        <ele>567</ele>
        <time>2022-04-05T14:45:06Z</time>
      </trkpt>
      <trkpt lat="44.14772" lon="3.03505">
        <ele>567</ele>
        <time>2022-04-05T14:45:05Z</time>
      </trkpt>
      <trkpt lat="44.14769" lon="3.03504">
        <ele>567</ele>
        <time>2022-04-05T14:45:04Z</time>
      </trkpt>
      <trkpt lat="44.14766" lon="3.03504">
        <ele>567.2</ele>
        <time>2022-04-05T14:45:03Z</time>
      </trkpt>
      <trkpt lat="44.14762" lon="3.03503">
        <ele>567.2</ele>
        <time>2022-04-05T14:45:02Z</time>
      </trkpt>
      <trkpt lat="44.14759" lon="3.03503">
        <ele>567.4</ele>
        <time>2022-04-05T14:45:01Z</time>
      </trkpt>
      <trkpt lat="44.14755" lon="3.03503">
        <ele>567.6</ele>
        <time>2022-04-05T14:45:00Z</time>
      </trkpt>
      <trkpt lat="44.1475" lon="3.03504">
        <ele>568</ele>
        <time>2022-04-05T14:44:59Z</time>
      </trkpt>
      <trkpt lat="44.14745" lon="3.03504">
        <ele>568.2</ele>
        <time>2022-04-05T14:44:58Z</time>
      </trkpt>
      <trkpt lat="44.14739" lon="3.03504">
        <ele>568.8</ele>
        <time>2022-04-05T14:44:57Z</time>
      </trkpt>
      <trkpt lat="44.14734" lon="3.03505">
        <ele>569.2</ele>
        <time>2022-04-05T14:44:56Z</time>
      </trkpt>
      <trkpt lat="44.14729" lon="3.03506">
        <ele>570</ele>
        <time>2022-04-05T14:44:55Z</time>
      </trkpt>
      <trkpt lat="44.14725" lon="3.03507">
        <ele>570</ele>
        <time>2022-04-05T14:44:54Z</time>
      </trkpt>
      <trkpt lat="44.14721" lon="3.03507">
        <ele>571.2</ele>
        <time>2022-04-05T14:44:53Z</time>
      </trkpt>
      <trkpt lat="44.14718" lon="3.03505">
        <ele>572</ele>
        <time>2022-04-05T14:44:52Z</time>
      </trkpt>
      <trkpt lat="44.14716" lon="3.03502">
        <ele>572.4</ele>
        <time>2022-04-05T14:44:51Z</time>
      </trkpt>
      <trkpt lat="44.14715" lon="3.03498">
        <ele>572.6</ele>
        <time>2022-04-05T14:44:50Z</time>
      </trkpt>
      <trkpt lat="44.14717" lon="3.03494">
        <ele>572.8</ele>
        <time>2022-04-05T14:44:49Z</time>
      </trkpt>
      <trkpt lat="44.14722" lon="3.03491">
        <ele>573.2</ele>
        <time>2022-04-05T14:44:48Z</time>
      </trkpt>
      <trkpt lat="44.14728" lon="3.03487">
        <ele>573.4</ele>
        <time>2022-04-05T14:44:47Z</time>
      </trkpt>
      <trkpt lat="44.14735" lon="3.03482">
        <ele>573.6</ele>
        <time>2022-04-05T14:44:46Z</time>
      </trkpt>
      <trkpt lat="44.14742" lon="3.03477">
        <ele>573.8</ele>
        <time>2022-04-05T14:44:45Z</time>
      </trkpt>
      <trkpt lat="44.14748" lon="3.03472">
        <ele>573.8</ele>
        <time>2022-04-05T14:44:44Z</time>
      </trkpt>
      <trkpt lat="44.14754" lon="3.03467">
        <ele>574</ele>
        <time>2022-04-05T14:44:43Z</time>
      </trkpt>
      <trkpt lat="44.14759" lon="3.03463">
        <ele>574.4</ele>
        <time>2022-04-05T14:44:42Z</time>
      </trkpt>
      <trkpt lat="44.14763" lon="3.0346">
        <ele>574.8</ele>
        <time>2022-04-05T14:44:41Z</time>
      </trkpt>
      <trkpt lat="44.14767" lon="3.03457">
        <ele>575</ele>
        <time>2022-04-05T14:44:40Z</time>
      </trkpt>
      <trkpt lat="44.14771" lon="3.03456">
        <ele>575.2</ele>
        <time>2022-04-05T14:44:39Z</time>
      </trkpt>
      <trkpt lat="44.14774" lon="3.03455">
        <ele>575.2</ele>
        <time>2022-04-05T14:44:38Z</time>
      </trkpt>
      <trkpt lat="44.14776" lon="3.03454">
        <ele>575.2</ele>
        <time>2022-04-05T14:44:37Z</time>
      </trkpt>
      <trkpt lat="44.14778" lon="3.03454">
        <ele>575.4</ele>
        <time>2022-04-05T14:44:36Z</time>
      </trkpt>
      <trkpt lat="44.14779" lon="3.03454">
        <ele>575.6</ele>
        <time>2022-04-05T14:44:35Z</time>
      </trkpt>
      <trkpt lat="44.1478" lon="3.03453">
        <ele>575.8</ele>
        <time>2022-04-05T14:44:34Z</time>
      </trkpt>
      <trkpt lat="44.14781" lon="3.03452">
        <ele>576.2</ele>
        <time>2022-04-05T14:44:33Z</time>
      </trkpt>
      <trkpt lat="44.14782" lon="3.03452">
        <ele>576.4</ele>
        <time>2022-04-05T14:44:32Z</time>
      </trkpt>
      <trkpt lat="44.14784" lon="3.03451">
        <ele>577</ele>
        <time>2022-04-05T14:44:31Z</time>
      </trkpt>
      <trkpt lat="44.14785" lon="3.0345">
        <ele>577.4</ele>
        <time>2022-04-05T14:44:30Z</time>
      </trkpt>
      <trkpt lat="44.14786" lon="3.03449">
        <ele>577.8</ele>
        <time>2022-04-05T14:44:29Z</time>
      </trkpt>
      <trkpt lat="44.14786" lon="3.03447">
        <ele>579</ele>
        <time>2022-04-05T14:44:28Z</time>
      </trkpt>
      <trkpt lat="44.14786" lon="3.03446">
        <ele>579.6</ele>
        <time>2022-04-05T14:44:27Z</time>
      </trkpt>
      <trkpt lat="44.14783" lon="3.03445">
        <ele>580.6</ele>
        <time>2022-04-05T14:44:26Z</time>
      </trkpt>
      <trkpt lat="44.1478" lon="3.03444">
        <ele>581.2</ele>
        <time>2022-04-05T14:44:25Z</time>
      </trkpt>
      <trkpt lat="44.14777" lon="3.03445">
        <ele>582.8</ele>
        <time>2022-04-05T14:44:24Z</time>
      </trkpt>
      <trkpt lat="44.14773" lon="3.03446">
        <ele>583.4</ele>
        <time>2022-04-05T14:44:23Z</time>
      </trkpt>
      <trkpt lat="44.14768" lon="3.03447">
        <ele>584.4</ele>
        <time>2022-04-05T14:44:22Z</time>
      </trkpt>
      <trkpt lat="44.14764" lon="3.0345">
        <ele>585.2</ele>
        <time>2022-04-05T14:44:21Z</time>
      </trkpt>
      <trkpt lat="44.14759" lon="3.03453">
        <ele>586.6</ele>
        <time>2022-04-05T14:44:20Z</time>
      </trkpt>
      <trkpt lat="44.14752" lon="3.03455">
        <ele>587.8</ele>
        <time>2022-04-05T14:44:19Z</time>
      </trkpt>
      <trkpt lat="44.14744" lon="3.03457">
        <ele>588.2</ele>
        <time>2022-04-05T14:44:18Z</time>
      </trkpt>
      <trkpt lat="44.14736" lon="3.03459">
        <ele>588.8</ele>
        <time>2022-04-05T14:44:17Z</time>
      </trkpt>
      <trkpt lat="44.14728" lon="3.0346">
        <ele>589</ele>
        <time>2022-04-05T14:44:16Z</time>
      </trkpt>
      <trkpt lat="44.1472" lon="3.03461">
        <ele>589.6</ele>
        <time>2022-04-05T14:44:15Z</time>
      </trkpt>
      <trkpt lat="44.14712" lon="3.03462">
        <ele>590.2</ele>
        <time>2022-04-05T14:44:14Z</time>
      </trkpt>
      <trkpt lat="44.14705" lon="3.03463">
        <ele>590.4</ele>
        <time>2022-04-05T14:44:13Z</time>
      </trkpt>
      <trkpt lat="44.14698" lon="3.03463">
        <ele>590.8</ele>
        <time>2022-04-05T14:44:12Z</time>
      </trkpt>
      <trkpt lat="44.14691" lon="3.03463">
        <ele>591</ele>
        <time>2022-04-05T14:44:11Z</time>
      </trkpt>
      <trkpt lat="44.14684" lon="3.03464">
        <ele>591.2</ele>
        <time>2022-04-05T14:44:10Z</time>
      </trkpt>
      <trkpt lat="44.14678" lon="3.03464">
        <ele>591.2</ele>
        <time>2022-04-05T14:44:09Z</time>
      </trkpt>
      <trkpt lat="44.14672" lon="3.03465">
        <ele>591.6</ele>
        <time>2022-04-05T14:44:08Z</time>
      </trkpt>
      <trkpt lat="44.14667" lon="3.03465">
        <ele>591.6</ele>
        <time>2022-04-05T14:44:07Z</time>
      </trkpt>
      <trkpt lat="44.14662" lon="3.03466">
        <ele>591.8</ele>
        <time>2022-04-05T14:44:06Z</time>
      </trkpt>
      <trkpt lat="44.14657" lon="3.03466">
        <ele>591.8</ele>
        <time>2022-04-05T14:44:05Z</time>
      </trkpt>
      <trkpt lat="44.14652" lon="3.03467">
        <ele>592</ele>
        <time>2022-04-05T14:44:04Z</time>
      </trkpt>
      <trkpt lat="44.14647" lon="3.03468">
        <ele>592</ele>
        <time>2022-04-05T14:44:03Z</time>
      </trkpt>
      <trkpt lat="44.14642" lon="3.03469">
        <ele>592.2</ele>
        <time>2022-04-05T14:44:02Z</time>
      </trkpt>
      <trkpt lat="44.14637" lon="3.0347">
        <ele>592.2</ele>
        <time>2022-04-05T14:44:01Z</time>
      </trkpt>
      <trkpt lat="44.14631" lon="3.03472">
        <ele>592.4</ele>
        <time>2022-04-05T14:44:00Z</time>
      </trkpt>
      <trkpt lat="44.14626" lon="3.03473">
        <ele>592.6</ele>
        <time>2022-04-05T14:43:59Z</time>
      </trkpt>
      <trkpt lat="44.14621" lon="3.03474">
        <ele>592.6</ele>
        <time>2022-04-05T14:43:58Z</time>
      </trkpt>
      <trkpt lat="44.14616" lon="3.03475">
        <ele>592.8</ele>
        <time>2022-04-05T14:43:57Z</time>
      </trkpt>
      <trkpt lat="44.14612" lon="3.03475">
        <ele>592.8</ele>
        <time>2022-04-05T14:43:56Z</time>
      </trkpt>
      <trkpt lat="44.14607" lon="3.03475">
        <ele>593</ele>
        <time>2022-04-05T14:43:55Z</time>
      </trkpt>
      <trkpt lat="44.14603" lon="3.03475">
        <ele>593</ele>
        <time>2022-04-05T14:43:54Z</time>
      </trkpt>
      <trkpt lat="44.14598" lon="3.03474">
        <ele>593.2</ele>
        <time>2022-04-05T14:43:53Z</time>
      </trkpt>
      <trkpt lat="44.14594" lon="3.03474">
        <ele>593.6</ele>
        <time>2022-04-05T14:43:52Z</time>
      </trkpt>
      <trkpt lat="44.14592" lon="3.03473">
        <ele>593.8</ele>
        <time>2022-04-05T14:43:51Z</time>
      </trkpt>
      <trkpt lat="44.1459" lon="3.03471">
        <ele>593.8</ele>
        <time>2022-04-05T14:43:50Z</time>
      </trkpt>
      <trkpt lat="44.14589" lon="3.03468">
        <ele>593.8</ele>
        <time>2022-04-05T14:43:49Z</time>
      </trkpt>
      <trkpt lat="44.14592" lon="3.03465">
        <ele>593.8</ele>
        <time>2022-04-05T14:43:48Z</time>
      </trkpt>
      <trkpt lat="44.14595" lon="3.03464">
        <ele>593.8</ele>
        <time>2022-04-05T14:43:47Z</time>
      </trkpt>
      <trkpt lat="44.14598" lon="3.03464">
        <ele>594</ele>
        <time>2022-04-05T14:43:46Z</time>
      </trkpt>
      <trkpt lat="44.14602" lon="3.03463">
        <ele>594</ele>
        <time>2022-04-05T14:43:45Z</time>
      </trkpt>
      <trkpt lat="44.14606" lon="3.03462">
        <ele>594</ele>
        <time>2022-04-05T14:43:44Z</time>
      </trkpt>
      <trkpt lat="44.1461" lon="3.03461">
        <ele>594</ele>
        <time>2022-04-05T14:43:43Z</time>
      </trkpt>
      <trkpt lat="44.14613" lon="3.03461">
        <ele>594</ele>
        <time>2022-04-05T14:43:42Z</time>
      </trkpt>
      <trkpt lat="44.14617" lon="3.03461">
        <ele>594</ele>
        <time>2022-04-05T14:43:41Z</time>
      </trkpt>
      <trkpt lat="44.1462" lon="3.03461">
        <ele>594</ele>
        <time>2022-04-05T14:43:40Z</time>
      </trkpt>
      <trkpt lat="44.14623" lon="3.0346">
        <ele>594</ele>
        <time>2022-04-05T14:43:39Z</time>
      </trkpt>
      <trkpt lat="44.14626" lon="3.03459">
        <ele>593.8</ele>
        <time>2022-04-05T14:43:38Z</time>
      </trkpt>
      <trkpt lat="44.14629" lon="3.03458">
        <ele>593.8</ele>
        <time>2022-04-05T14:43:37Z</time>
      </trkpt>
      <trkpt lat="44.14633" lon="3.03457">
        <ele>593.8</ele>
        <time>2022-04-05T14:43:36Z</time>
      </trkpt>
      <trkpt lat="44.14636" lon="3.03456">
        <ele>593.8</ele>
        <time>2022-04-05T14:43:35Z</time>
      </trkpt>
      <trkpt lat="44.14639" lon="3.03455">
        <ele>593.6</ele>
        <time>2022-04-05T14:43:34Z</time>
      </trkpt>
      <trkpt lat="44.14642" lon="3.03454">
        <ele>593.4</ele>
        <time>2022-04-05T14:43:33Z</time>
      </trkpt>
      <trkpt lat="44.14645" lon="3.03453">
        <ele>593.2</ele>
        <time>2022-04-05T14:43:32Z</time>
      </trkpt>
      <trkpt lat="44.14648" lon="3.03452">
        <ele>593</ele>
        <time>2022-04-05T14:43:31Z</time>
      </trkpt>
      <trkpt lat="44.1465" lon="3.03451">
        <ele>593</ele>
        <time>2022-04-05T14:43:30Z</time>
      </trkpt>
      <trkpt lat="44.14653" lon="3.03449">
        <ele>592.8</ele>
        <time>2022-04-05T14:43:29Z</time>
      </trkpt>
      <trkpt lat="44.14655" lon="3.03448">
        <ele>592.8</ele>
        <time>2022-04-05T14:43:28Z</time>
      </trkpt>
      <trkpt lat="44.14657" lon="3.03447">
        <ele>592.8</ele>
        <time>2022-04-05T14:43:27Z</time>
      </trkpt>
      <trkpt lat="44.14658" lon="3.03447">
        <ele>592.6</ele>
        <time>2022-04-05T14:43:26Z</time>
      </trkpt>
      <trkpt lat="44.1466" lon="3.03446">
        <ele>592.6</ele>
        <time>2022-04-05T14:43:25Z</time>
      </trkpt>
      <trkpt lat="44.14662" lon="3.03445">
        <ele>592.2</ele>
        <time>2022-04-05T14:43:24Z</time>
      </trkpt>
      <trkpt lat="44.14664" lon="3.03444">
        <ele>592.2</ele>
        <time>2022-04-05T14:43:23Z</time>
      </trkpt>
      <trkpt lat="44.14666" lon="3.03444">
        <ele>592</ele>
        <time>2022-04-05T14:43:22Z</time>
      </trkpt>
      <trkpt lat="44.14669" lon="3.03443">
        <ele>592</ele>
        <time>2022-04-05T14:43:21Z</time>
      </trkpt>
      <trkpt lat="44.14671" lon="3.03443">
        <ele>591.8</ele>
        <time>2022-04-05T14:43:20Z</time>
      </trkpt>
      <trkpt lat="44.14674" lon="3.03443">
        <ele>591.6</ele>
        <time>2022-04-05T14:43:19Z</time>
      </trkpt>
      <trkpt lat="44.14677" lon="3.03442">
        <ele>591.4</ele>
        <time>2022-04-05T14:43:18Z</time>
      </trkpt>
      <trkpt lat="44.1468" lon="3.03442">
        <ele>591.4</ele>
        <time>2022-04-05T14:43:17Z</time>
      </trkpt>
      <trkpt lat="44.14683" lon="3.03441">
        <ele>591.2</ele>
        <time>2022-04-05T14:43:16Z</time>
      </trkpt>
      <trkpt lat="44.14685" lon="3.03441">
        <ele>591</ele>
        <time>2022-04-05T14:43:15Z</time>
      </trkpt>
      <trkpt lat="44.14688" lon="3.03441">
        <ele>591</ele>
        <time>2022-04-05T14:43:14Z</time>
      </trkpt>
      <trkpt lat="44.14691" lon="3.03441">
        <ele>590.8</ele>
        <time>2022-04-05T14:43:13Z</time>
      </trkpt>
      <trkpt lat="44.14694" lon="3.0344">
        <ele>590.8</ele>
        <time>2022-04-05T14:43:12Z</time>
      </trkpt>
      <trkpt lat="44.14697" lon="3.03439">
        <ele>590.8</ele>
        <time>2022-04-05T14:43:11Z</time>
      </trkpt>
      <trkpt lat="44.147" lon="3.03439">
        <ele>590.6</ele>
        <time>2022-04-05T14:43:10Z</time>
      </trkpt>
      <trkpt lat="44.14703" lon="3.03438">
        <ele>590.6</ele>
        <time>2022-04-05T14:43:09Z</time>
      </trkpt>
      <trkpt lat="44.14705" lon="3.03438">
        <ele>590.4</ele>
        <time>2022-04-05T14:43:08Z</time>
      </trkpt>
      <trkpt lat="44.14708" lon="3.03437">
        <ele>590.2</ele>
        <time>2022-04-05T14:43:07Z</time>
      </trkpt>
      <trkpt lat="44.14712" lon="3.03436">
        <ele>590.2</ele>
        <time>2022-04-05T14:43:06Z</time>
      </trkpt>
      <trkpt lat="44.14715" lon="3.03434">
        <ele>590</ele>
        <time>2022-04-05T14:43:05Z</time>
      </trkpt>
      <trkpt lat="44.14719" lon="3.03434">
        <ele>590</ele>
        <time>2022-04-05T14:43:04Z</time>
      </trkpt>
      <trkpt lat="44.14722" lon="3.03433">
        <ele>589.8</ele>
        <time>2022-04-05T14:43:03Z</time>
      </trkpt>
      <trkpt lat="44.14725" lon="3.03433">
        <ele>589.8</ele>
        <time>2022-04-05T14:43:02Z</time>
      </trkpt>
      <trkpt lat="44.14727" lon="3.03432">
        <ele>589.6</ele>
        <time>2022-04-05T14:43:01Z</time>
      </trkpt>
      <trkpt lat="44.14729" lon="3.03431">
        <ele>589.4</ele>
        <time>2022-04-05T14:43:00Z</time>
      </trkpt>
      <trkpt lat="44.14733" lon="3.03431">
        <ele>589.4</ele>
        <time>2022-04-05T14:42:59Z</time>
      </trkpt>
      <trkpt lat="44.14736" lon="3.0343">
        <ele>589</ele>
        <time>2022-04-05T14:42:58Z</time>
      </trkpt>
      <trkpt lat="44.14738" lon="3.03429">
        <ele>589</ele>
        <time>2022-04-05T14:42:57Z</time>
      </trkpt>
      <trkpt lat="44.14741" lon="3.03427">
        <ele>588.6</ele>
        <time>2022-04-05T14:42:56Z</time>
      </trkpt>
      <trkpt lat="44.14744" lon="3.03426">
        <ele>588.4</ele>
        <time>2022-04-05T14:42:55Z</time>
      </trkpt>
      <trkpt lat="44.14747" lon="3.03424">
        <ele>588</ele>
        <time>2022-04-05T14:42:54Z</time>
      </trkpt>
      <trkpt lat="44.1475" lon="3.03423">
        <ele>587.6</ele>
        <time>2022-04-05T14:42:53Z</time>
      </trkpt>
      <trkpt lat="44.14753" lon="3.03422">
        <ele>587.4</ele>
        <time>2022-04-05T14:42:52Z</time>
      </trkpt>
      <trkpt lat="44.14756" lon="3.03421">
        <ele>587</ele>
        <time>2022-04-05T14:42:51Z</time>
      </trkpt>
      <trkpt lat="44.14759" lon="3.0342">
        <ele>586.8</ele>
        <time>2022-04-05T14:42:50Z</time>
      </trkpt>
      <trkpt lat="44.14761" lon="3.03419">
        <ele>586.6</ele>
        <time>2022-04-05T14:42:49Z</time>
      </trkpt>
      <trkpt lat="44.14764" lon="3.03418">
        <ele>586.4</ele>
        <time>2022-04-05T14:42:48Z</time>
      </trkpt>
      <trkpt lat="44.14767" lon="3.03417">
        <ele>586</ele>
        <time>2022-04-05T14:42:47Z</time>
      </trkpt>
      <trkpt lat="44.14769" lon="3.03417">
        <ele>586</ele>
        <time>2022-04-05T14:42:46Z</time>
      </trkpt>
      <trkpt lat="44.14772" lon="3.03417">
        <ele>585.4</ele>
        <time>2022-04-05T14:42:45Z</time>
      </trkpt>
      <trkpt lat="44.14774" lon="3.03417">
        <ele>585.2</ele>
        <time>2022-04-05T14:42:44Z</time>
      </trkpt>
      <trkpt lat="44.14776" lon="3.03415">
        <ele>585</ele>
        <time>2022-04-05T14:42:43Z</time>
      </trkpt>
      <trkpt lat="44.14778" lon="3.03414">
        <ele>584.6</ele>
        <time>2022-04-05T14:42:42Z</time>
      </trkpt>
      <trkpt lat="44.1478" lon="3.03413">
        <ele>584.6</ele>
        <time>2022-04-05T14:42:41Z</time>
      </trkpt>
      <trkpt lat="44.14783" lon="3.03411">
        <ele>584.4</ele>
        <time>2022-04-05T14:42:40Z</time>
      </trkpt>
      <trkpt lat="44.14785" lon="3.0341">
        <ele>584.4</ele>
        <time>2022-04-05T14:42:39Z</time>
      </trkpt>
      <trkpt lat="44.14787" lon="3.03408">
        <ele>584.2</ele>
        <time>2022-04-05T14:42:38Z</time>
      </trkpt>
      <trkpt lat="44.1479" lon="3.03406">
        <ele>584.2</ele>
        <time>2022-04-05T14:42:37Z</time>
      </trkpt>
      <trkpt lat="44.14792" lon="3.03403">
        <ele>584.2</ele>
        <time>2022-04-05T14:42:36Z</time>
      </trkpt>
      <trkpt lat="44.14793" lon="3.03401">
        <ele>584.2</ele>
        <time>2022-04-05T14:42:35Z</time>
      </trkpt>
      <trkpt lat="44.14797" lon="3.03395">
        <ele>587.2</ele>
        <time>2022-04-05T14:41:56Z</time>
      </trkpt>
      <trkpt lat="44.14797" lon="3.03395">
        <ele>587.6</ele>
        <time>2022-04-05T14:41:55Z</time>
      </trkpt>
      <trkpt lat="44.14796" lon="3.03397">
        <ele>588.4</ele>
        <time>2022-04-05T14:41:54Z</time>
      </trkpt>
      <trkpt lat="44.14795" lon="3.03399">
        <ele>588.6</ele>
        <time>2022-04-05T14:41:53Z</time>
      </trkpt>
      <trkpt lat="44.14794" lon="3.03402">
        <ele>589.2</ele>
        <time>2022-04-05T14:41:52Z</time>
      </trkpt>
      <trkpt lat="44.14792" lon="3.03405">
        <ele>589.4</ele>
        <time>2022-04-05T14:41:51Z</time>
      </trkpt>
      <trkpt lat="44.1479" lon="3.03409">
        <ele>590</ele>
        <time>2022-04-05T14:41:50Z</time>
      </trkpt>
      <trkpt lat="44.14788" lon="3.03412">
        <ele>590.8</ele>
        <time>2022-04-05T14:41:49Z</time>
      </trkpt>
      <trkpt lat="44.14784" lon="3.03415">
        <ele>591</ele>
        <time>2022-04-05T14:41:48Z</time>
      </trkpt>
      <trkpt lat="44.1478" lon="3.03418">
        <ele>591.4</ele>
        <time>2022-04-05T14:41:47Z</time>
      </trkpt>
      <trkpt lat="44.14776" lon="3.0342">
        <ele>591.4</ele>
        <time>2022-04-05T14:41:46Z</time>
      </trkpt>
      <trkpt lat="44.14771" lon="3.03421">
        <ele>591.4</ele>
        <time>2022-04-05T14:41:45Z</time>
      </trkpt>
      <trkpt lat="44.14766" lon="3.03422">
        <ele>591.8</ele>
        <time>2022-04-05T14:41:44Z</time>
      </trkpt>
      <trkpt lat="44.14761" lon="3.03423">
        <ele>591.8</ele>
        <time>2022-04-05T14:41:43Z</time>
      </trkpt>
      <trkpt lat="44.14755" lon="3.03424">
        <ele>592</ele>
        <time>2022-04-05T14:41:42Z</time>
      </trkpt>
      <trkpt lat="44.1475" lon="3.03426">
        <ele>592</ele>
        <time>2022-04-05T14:41:41Z</time>
      </trkpt>
      <trkpt lat="44.14745" lon="3.03428">
        <ele>592.4</ele>
        <time>2022-04-05T14:41:40Z</time>
      </trkpt>
      <trkpt lat="44.14739" lon="3.0343">
        <ele>592.4</ele>
        <time>2022-04-05T14:41:39Z</time>
      </trkpt>
      <trkpt lat="44.14734" lon="3.03432">
        <ele>592.4</ele>
        <time>2022-04-05T14:41:38Z</time>
      </trkpt>
      <trkpt lat="44.14728" lon="3.03433">
        <ele>592.6</ele>
        <time>2022-04-05T14:41:37Z</time>
      </trkpt>
      <trkpt lat="44.14724" lon="3.03435">
        <ele>592.8</ele>
        <time>2022-04-05T14:41:36Z</time>
      </trkpt>
      <trkpt lat="44.14719" lon="3.03436">
        <ele>592.8</ele>
        <time>2022-04-05T14:41:35Z</time>
      </trkpt>
      <trkpt lat="44.14714" lon="3.03438">
        <ele>593</ele>
        <time>2022-04-05T14:41:34Z</time>
      </trkpt>
      <trkpt lat="44.14708" lon="3.0344">
        <ele>593.2</ele>
        <time>2022-04-05T14:41:33Z</time>
      </trkpt>
      <trkpt lat="44.14703" lon="3.03441">
        <ele>593.6</ele>
        <time>2022-04-05T14:41:32Z</time>
      </trkpt>
      <trkpt lat="44.14698" lon="3.03443">
        <ele>593.6</ele>
        <time>2022-04-05T14:41:31Z</time>
      </trkpt>
      <trkpt lat="44.14692" lon="3.03443">
        <ele>593.8</ele>
        <time>2022-04-05T14:41:30Z</time>
      </trkpt>
      <trkpt lat="44.14687" lon="3.03444">
        <ele>593.8</ele>
        <time>2022-04-05T14:41:29Z</time>
      </trkpt>
      <trkpt lat="44.14681" lon="3.03445">
        <ele>593.8</ele>
        <time>2022-04-05T14:41:28Z</time>
      </trkpt>
      <trkpt lat="44.14676" lon="3.03446">
        <ele>594</ele>
        <time>2022-04-05T14:41:27Z</time>
      </trkpt>
      <trkpt lat="44.14672" lon="3.03447">
        <ele>594</ele>
        <time>2022-04-05T14:41:26Z</time>
      </trkpt>
      <trkpt lat="44.14667" lon="3.03448">
        <ele>594.4</ele>
        <time>2022-04-05T14:41:25Z</time>
      </trkpt>
      <trkpt lat="44.14662" lon="3.03449">
        <ele>594.4</ele>
        <time>2022-04-05T14:41:24Z</time>
      </trkpt>
      <trkpt lat="44.14658" lon="3.03451">
        <ele>594.4</ele>
        <time>2022-04-05T14:41:23Z</time>
      </trkpt>
      <trkpt lat="44.14654" lon="3.03452">
        <ele>594.4</ele>
        <time>2022-04-05T14:41:22Z</time>
      </trkpt>
      <trkpt lat="44.14649" lon="3.03454">
        <ele>594.2</ele>
        <time>2022-04-05T14:41:21Z</time>
      </trkpt>
      <trkpt lat="44.14645" lon="3.03455">
        <ele>594.2</ele>
        <time>2022-04-05T14:41:20Z</time>
      </trkpt>
      <trkpt lat="44.14641" lon="3.03456">
        <ele>594.2</ele>
        <time>2022-04-05T14:41:19Z</time>
      </trkpt>
      <trkpt lat="44.14637" lon="3.03457">
        <ele>594.2</ele>
        <time>2022-04-05T14:41:18Z</time>
      </trkpt>
      <trkpt lat="44.14633" lon="3.03458">
        <ele>594.2</ele>
        <time>2022-04-05T14:41:17Z</time>
      </trkpt>
      <trkpt lat="44.14628" lon="3.03459">
        <ele>594.2</ele>
        <time>2022-04-05T14:41:16Z</time>
      </trkpt>
      <trkpt lat="44.14624" lon="3.0346">
        <ele>594.2</ele>
        <time>2022-04-05T14:41:15Z</time>
      </trkpt>
      <trkpt lat="44.14619" lon="3.03461">
        <ele>594.4</ele>
        <time>2022-04-05T14:41:14Z</time>
      </trkpt>
      <trkpt lat="44.14615" lon="3.03462">
        <ele>594.4</ele>
        <time>2022-04-05T14:41:13Z</time>
      </trkpt>
      <trkpt lat="44.14611" lon="3.03462">
        <ele>594.8</ele>
        <time>2022-04-05T14:41:12Z</time>
      </trkpt>
      <trkpt lat="44.14606" lon="3.03463">
        <ele>594.8</ele>
        <time>2022-04-05T14:41:11Z</time>
      </trkpt>
      <trkpt lat="44.14601" lon="3.03463">
        <ele>595.4</ele>
        <time>2022-04-05T14:41:10Z</time>
      </trkpt>
      <trkpt lat="44.14596" lon="3.03463">
        <ele>595.8</ele>
        <time>2022-04-05T14:41:09Z</time>
      </trkpt>
      <trkpt lat="44.1459" lon="3.03465">
        <ele>596.6</ele>
        <time>2022-04-05T14:41:08Z</time>
      </trkpt>
      <trkpt lat="44.14584" lon="3.03467">
        <ele>597.8</ele>
        <time>2022-04-05T14:41:07Z</time>
      </trkpt>
      <trkpt lat="44.14577" lon="3.0347">
        <ele>598.6</ele>
        <time>2022-04-05T14:41:06Z</time>
      </trkpt>
      <trkpt lat="44.14569" lon="3.03473">
        <ele>599.4</ele>
        <time>2022-04-05T14:41:05Z</time>
      </trkpt>
      <trkpt lat="44.14561" lon="3.03478">
        <ele>600</ele>
        <time>2022-04-05T14:41:04Z</time>
      </trkpt>
      <trkpt lat="44.14553" lon="3.03485">
        <ele>601</ele>
        <time>2022-04-05T14:41:03Z</time>
      </trkpt>
      <trkpt lat="44.14546" lon="3.03493">
        <ele>601.2</ele>
        <time>2022-04-05T14:41:02Z</time>
      </trkpt>
      <trkpt lat="44.14539" lon="3.03501">
        <ele>601.8</ele>
        <time>2022-04-05T14:41:01Z</time>
      </trkpt>
      <trkpt lat="44.14532" lon="3.03508">
        <ele>602</ele>
        <time>2022-04-05T14:41:00Z</time>
      </trkpt>
      <trkpt lat="44.14525" lon="3.03515">
        <ele>602.2</ele>
        <time>2022-04-05T14:40:59Z</time>
      </trkpt>
      <trkpt lat="44.14518" lon="3.03521">
        <ele>602.6</ele>
        <time>2022-04-05T14:40:58Z</time>
      </trkpt>
      <trkpt lat="44.14512" lon="3.03527">
        <ele>602.8</ele>
        <time>2022-04-05T14:40:57Z</time>
      </trkpt>
      <trkpt lat="44.14506" lon="3.03532">
        <ele>603</ele>
        <time>2022-04-05T14:40:56Z</time>
      </trkpt>
      <trkpt lat="44.145" lon="3.03538">
        <ele>603.2</ele>
        <time>2022-04-05T14:40:55Z</time>
      </trkpt>
      <trkpt lat="44.14494" lon="3.03543">
        <ele>603.6</ele>
        <time>2022-04-05T14:40:54Z</time>
      </trkpt>
      <trkpt lat="44.14489" lon="3.03548">
        <ele>603.8</ele>
        <time>2022-04-05T14:40:53Z</time>
      </trkpt>
      <trkpt lat="44.14483" lon="3.03552">
        <ele>604.4</ele>
        <time>2022-04-05T14:40:52Z</time>
      </trkpt>
      <trkpt lat="44.14477" lon="3.03557">
        <ele>604.6</ele>
        <time>2022-04-05T14:40:51Z</time>
      </trkpt>
      <trkpt lat="44.14471" lon="3.03561">
        <ele>605</ele>
        <time>2022-04-05T14:40:50Z</time>
      </trkpt>
      <trkpt lat="44.14464" lon="3.03564">
        <ele>605.2</ele>
        <time>2022-04-05T14:40:49Z</time>
      </trkpt>
      <trkpt lat="44.14457" lon="3.03568">
        <ele>606.2</ele>
        <time>2022-04-05T14:40:48Z</time>
      </trkpt>
      <trkpt lat="44.1445" lon="3.03571">
        <ele>607</ele>
        <time>2022-04-05T14:40:47Z</time>
      </trkpt>
      <trkpt lat="44.14443" lon="3.03576">
        <ele>607.6</ele>
        <time>2022-04-05T14:40:46Z</time>
      </trkpt>
      <trkpt lat="44.14436" lon="3.0358">
        <ele>608.6</ele>
        <time>2022-04-05T14:40:45Z</time>
      </trkpt>
      <trkpt lat="44.14429" lon="3.03584">
        <ele>608.8</ele>
        <time>2022-04-05T14:40:44Z</time>
      </trkpt>
      <trkpt lat="44.14421" lon="3.03587">
        <ele>609.2</ele>
        <time>2022-04-05T14:40:43Z</time>
      </trkpt>
      <trkpt lat="44.14414" lon="3.03591">
        <ele>609.4</ele>
        <time>2022-04-05T14:40:42Z</time>
      </trkpt>
      <trkpt lat="44.14407" lon="3.03596">
        <ele>609.6</ele>
        <time>2022-04-05T14:40:41Z</time>
      </trkpt>
      <trkpt lat="44.14401" lon="3.036">
        <ele>609.6</ele>
        <time>2022-04-05T14:40:40Z</time>
      </trkpt>
      <trkpt lat="44.14396" lon="3.03605">
        <ele>609.8</ele>
        <time>2022-04-05T14:40:39Z</time>
      </trkpt>
      <trkpt lat="44.1439" lon="3.0361">
        <ele>609.8</ele>
        <time>2022-04-05T14:40:38Z</time>
      </trkpt>
      <trkpt lat="44.14385" lon="3.03615">
        <ele>610</ele>
        <time>2022-04-05T14:40:37Z</time>
      </trkpt>
      <trkpt lat="44.1438" lon="3.0362">
        <ele>610</ele>
        <time>2022-04-05T14:40:36Z</time>
      </trkpt>
      <trkpt lat="44.14375" lon="3.03626">
        <ele>610</ele>
        <time>2022-04-05T14:40:35Z</time>
      </trkpt>
      <trkpt lat="44.1437" lon="3.03631">
        <ele>610</ele>
        <time>2022-04-05T14:40:34Z</time>
      </trkpt>
      <trkpt lat="44.14365" lon="3.03637">
        <ele>610.2</ele>
        <time>2022-04-05T14:40:33Z</time>
      </trkpt>
      <trkpt lat="44.14361" lon="3.03642">
        <ele>610.2</ele>
        <time>2022-04-05T14:40:32Z</time>
      </trkpt>
      <trkpt lat="44.14357" lon="3.03647">
        <ele>610.2</ele>
        <time>2022-04-05T14:40:31Z</time>
      </trkpt>
      <trkpt lat="44.14353" lon="3.03653">
        <ele>610.4</ele>
        <time>2022-04-05T14:40:30Z</time>
      </trkpt>
      <trkpt lat="44.14349" lon="3.03658">
        <ele>610.4</ele>
        <time>2022-04-05T14:40:29Z</time>
      </trkpt>
      <trkpt lat="44.14346" lon="3.03664">
        <ele>610.6</ele>
        <time>2022-04-05T14:40:28Z</time>
      </trkpt>
      <trkpt lat="44.14342" lon="3.03669">
        <ele>610.6</ele>
        <time>2022-04-05T14:40:27Z</time>
      </trkpt>
      <trkpt lat="44.14339" lon="3.03674">
        <ele>611</ele>
        <time>2022-04-05T14:40:26Z</time>
      </trkpt>
      <trkpt lat="44.14336" lon="3.0368">
        <ele>612</ele>
        <time>2022-04-05T14:40:25Z</time>
      </trkpt>
      <trkpt lat="44.14332" lon="3.03687">
        <ele>612.6</ele>
        <time>2022-04-05T14:40:24Z</time>
      </trkpt>
      <trkpt lat="44.14328" lon="3.03693">
        <ele>613.8</ele>
        <time>2022-04-05T14:40:23Z</time>
      </trkpt>
      <trkpt lat="44.14321" lon="3.03698">
        <ele>615</ele>
        <time>2022-04-05T14:40:22Z</time>
      </trkpt>
      <trkpt lat="44.14313" lon="3.03701">
        <ele>616.2</ele>
        <time>2022-04-05T14:40:21Z</time>
      </trkpt>
      <trkpt lat="44.14304" lon="3.03701">
        <ele>616.8</ele>
        <time>2022-04-05T14:40:20Z</time>
      </trkpt>
      <trkpt lat="44.14294" lon="3.037">
        <ele>618.4</ele>
        <time>2022-04-05T14:40:19Z</time>
      </trkpt>
      <trkpt lat="44.14285" lon="3.03697">
        <ele>619.4</ele>
        <time>2022-04-05T14:40:18Z</time>
      </trkpt>
      <trkpt lat="44.14277" lon="3.03695">
        <ele>620.6</ele>
        <time>2022-04-05T14:40:17Z</time>
      </trkpt>
      <trkpt lat="44.14266" lon="3.03689">
        <ele>621</ele>
        <time>2022-04-05T14:40:16Z</time>
      </trkpt>
      <trkpt lat="44.14257" lon="3.03684">
        <ele>621.2</ele>
        <time>2022-04-05T14:40:15Z</time>
      </trkpt>
      <trkpt lat="44.14248" lon="3.03679">
        <ele>622</ele>
        <time>2022-04-05T14:40:14Z</time>
      </trkpt>
      <trkpt lat="44.1424" lon="3.03676">
        <ele>622.4</ele>
        <time>2022-04-05T14:40:13Z</time>
      </trkpt>
      <trkpt lat="44.14231" lon="3.03675">
        <ele>623.4</ele>
        <time>2022-04-05T14:40:12Z</time>
      </trkpt>
      <trkpt lat="44.14222" lon="3.03676">
        <ele>623.6</ele>
        <time>2022-04-05T14:40:11Z</time>
      </trkpt>
      <trkpt lat="44.14214" lon="3.03678">
        <ele>624.2</ele>
        <time>2022-04-05T14:40:10Z</time>
      </trkpt>
      <trkpt lat="44.14205" lon="3.03681">
        <ele>624.6</ele>
        <time>2022-04-05T14:40:09Z</time>
      </trkpt>
      <trkpt lat="44.14197" lon="3.03685">
        <ele>625.6</ele>
        <time>2022-04-05T14:40:08Z</time>
      </trkpt>
      <trkpt lat="44.14189" lon="3.03689">
        <ele>626.4</ele>
        <time>2022-04-05T14:40:07Z</time>
      </trkpt>
      <trkpt lat="44.14181" lon="3.03694">
        <ele>627</ele>
        <time>2022-04-05T14:40:06Z</time>
      </trkpt>
      <trkpt lat="44.14174" lon="3.03699">
        <ele>627.4</ele>
        <time>2022-04-05T14:40:05Z</time>
      </trkpt>
      <trkpt lat="44.14166" lon="3.03704">
        <ele>627.8</ele>
        <time>2022-04-05T14:40:04Z</time>
      </trkpt>
      <trkpt lat="44.14158" lon="3.03708">
        <ele>628</ele>
        <time>2022-04-05T14:40:03Z</time>
      </trkpt>
      <trkpt lat="44.1415" lon="3.03713">
        <ele>628.2</ele>
        <time>2022-04-05T14:40:02Z</time>
      </trkpt>
      <trkpt lat="44.14143" lon="3.03717">
        <ele>628.8</ele>
        <time>2022-04-05T14:40:01Z</time>
      </trkpt>
      <trkpt lat="44.14135" lon="3.03721">
        <ele>629</ele>
        <time>2022-04-05T14:40:00Z</time>
      </trkpt>
      <trkpt lat="44.14127" lon="3.03724">
        <ele>630</ele>
        <time>2022-04-05T14:39:59Z</time>
      </trkpt>
      <trkpt lat="44.14119" lon="3.03727">
        <ele>630.4</ele>
        <time>2022-04-05T14:39:58Z</time>
      </trkpt>
      <trkpt lat="44.14112" lon="3.03729">
        <ele>631.2</ele>
        <time>2022-04-05T14:39:57Z</time>
      </trkpt>
      <trkpt lat="44.14104" lon="3.0373">
        <ele>631.6</ele>
        <time>2022-04-05T14:39:56Z</time>
      </trkpt>
      <trkpt lat="44.14096" lon="3.0373">
        <ele>632</ele>
        <time>2022-04-05T14:39:55Z</time>
      </trkpt>
      <trkpt lat="44.14088" lon="3.03729">
        <ele>632.4</ele>
        <time>2022-04-05T14:39:54Z</time>
      </trkpt>
      <trkpt lat="44.14081" lon="3.03726">
        <ele>632.6</ele>
        <time>2022-04-05T14:39:53Z</time>
      </trkpt>
      <trkpt lat="44.14073" lon="3.03723">
        <ele>633.2</ele>
        <time>2022-04-05T14:39:52Z</time>
      </trkpt>
      <trkpt lat="44.14066" lon="3.03719">
        <ele>633.4</ele>
        <time>2022-04-05T14:39:51Z</time>
      </trkpt>
      <trkpt lat="44.14058" lon="3.03716">
        <ele>633.8</ele>
        <time>2022-04-05T14:39:50Z</time>
      </trkpt>
      <trkpt lat="44.14051" lon="3.03713">
        <ele>634.2</ele>
        <time>2022-04-05T14:39:49Z</time>
      </trkpt>
      <trkpt lat="44.14043" lon="3.03711">
        <ele>635</ele>
        <time>2022-04-05T14:39:48Z</time>
      </trkpt>
      <trkpt lat="44.14035" lon="3.0371">
        <ele>635.2</ele>
        <time>2022-04-05T14:39:47Z</time>
      </trkpt>
      <trkpt lat="44.14028" lon="3.0371">
        <ele>635.6</ele>
        <time>2022-04-05T14:39:46Z</time>
      </trkpt>
      <trkpt lat="44.14021" lon="3.03712">
        <ele>636</ele>
        <time>2022-04-05T14:39:45Z</time>
      </trkpt>
      <trkpt lat="44.14014" lon="3.03714">
        <ele>637</ele>
        <time>2022-04-05T14:39:44Z</time>
      </trkpt>
      <trkpt lat="44.14007" lon="3.03716">
        <ele>637.8</ele>
        <time>2022-04-05T14:39:43Z</time>
      </trkpt>
      <trkpt lat="44.13999" lon="3.03718">
        <ele>638.6</ele>
        <time>2022-04-05T14:39:42Z</time>
      </trkpt>
      <trkpt lat="44.13992" lon="3.0372">
        <ele>639.2</ele>
        <time>2022-04-05T14:39:41Z</time>
      </trkpt>
      <trkpt lat="44.13985" lon="3.03722">
        <ele>639.6</ele>
        <time>2022-04-05T14:39:40Z</time>
      </trkpt>
      <trkpt lat="44.13977" lon="3.03724">
        <ele>640.8</ele>
        <time>2022-04-05T14:39:39Z</time>
      </trkpt>
      <trkpt lat="44.13969" lon="3.03726">
        <ele>641.4</ele>
        <time>2022-04-05T14:39:38Z</time>
      </trkpt>
      <trkpt lat="44.1396" lon="3.03728">
        <ele>642.2</ele>
        <time>2022-04-05T14:39:37Z</time>
      </trkpt>
      <trkpt lat="44.13952" lon="3.03731">
        <ele>643.2</ele>
        <time>2022-04-05T14:39:36Z</time>
      </trkpt>
      <trkpt lat="44.13943" lon="3.03735">
        <ele>643.6</ele>
        <time>2022-04-05T14:39:35Z</time>
      </trkpt>
      <trkpt lat="44.13935" lon="3.0374">
        <ele>644.2</ele>
        <time>2022-04-05T14:39:34Z</time>
      </trkpt>
      <trkpt lat="44.13927" lon="3.03745">
        <ele>644.6</ele>
        <time>2022-04-05T14:39:33Z</time>
      </trkpt>
      <trkpt lat="44.13918" lon="3.0375">
        <ele>645.4</ele>
        <time>2022-04-05T14:39:32Z</time>
      </trkpt>
      <trkpt lat="44.13911" lon="3.03754">
        <ele>645.4</ele>
        <time>2022-04-05T14:39:31Z</time>
      </trkpt>
      <trkpt lat="44.13903" lon="3.03758">
        <ele>645.6</ele>
        <time>2022-04-05T14:39:30Z</time>
      </trkpt>
      <trkpt lat="44.13897" lon="3.03762">
        <ele>645.8</ele>
        <time>2022-04-05T14:39:29Z</time>
      </trkpt>
      <trkpt lat="44.1389" lon="3.03766">
        <ele>646</ele>
        <time>2022-04-05T14:39:28Z</time>
      </trkpt>
      <trkpt lat="44.13885" lon="3.03771">
        <ele>646.2</ele>
        <time>2022-04-05T14:39:27Z</time>
      </trkpt>
      <trkpt lat="44.1388" lon="3.03775">
        <ele>646.4</ele>
        <time>2022-04-05T14:39:26Z</time>
      </trkpt>
      <trkpt lat="44.13875" lon="3.03781">
        <ele>646.6</ele>
        <time>2022-04-05T14:39:25Z</time>
      </trkpt>
      <trkpt lat="44.13871" lon="3.03786">
        <ele>647</ele>
        <time>2022-04-05T14:39:24Z</time>
      </trkpt>
      <trkpt lat="44.13868" lon="3.03791">
        <ele>647.2</ele>
        <time>2022-04-05T14:39:23Z</time>
      </trkpt>
      <trkpt lat="44.13864" lon="3.03795">
        <ele>647.2</ele>
        <time>2022-04-05T14:39:22Z</time>
      </trkpt>
      <trkpt lat="44.13861" lon="3.038">
        <ele>647.4</ele>
        <time>2022-04-05T14:39:21Z</time>
      </trkpt>
      <trkpt lat="44.13858" lon="3.03804">
        <ele>647.4</ele>
        <time>2022-04-05T14:39:20Z</time>
      </trkpt>
      <trkpt lat="44.13855" lon="3.03807">
        <ele>647.6</ele>
        <time>2022-04-05T14:39:19Z</time>
      </trkpt>
      <trkpt lat="44.13853" lon="3.03811">
        <ele>647.6</ele>
        <time>2022-04-05T14:39:18Z</time>
      </trkpt>
      <trkpt lat="44.1385" lon="3.03815">
        <ele>647.6</ele>
        <time>2022-04-05T14:39:17Z</time>
      </trkpt>
      <trkpt lat="44.13848" lon="3.03818">
        <ele>647.6</ele>
        <time>2022-04-05T14:39:16Z</time>
      </trkpt>
      <trkpt lat="44.13845" lon="3.03821">
        <ele>647.8</ele>
        <time>2022-04-05T14:39:15Z</time>
      </trkpt>
      <trkpt lat="44.13843" lon="3.03824">
        <ele>647.8</ele>
        <time>2022-04-05T14:39:14Z</time>
      </trkpt>
      <trkpt lat="44.1384" lon="3.03826">
        <ele>648</ele>
        <time>2022-04-05T14:39:13Z</time>
      </trkpt>
      <trkpt lat="44.13838" lon="3.03827">
        <ele>648</ele>
        <time>2022-04-05T14:39:12Z</time>
      </trkpt>
      <trkpt lat="44.13835" lon="3.03826">
        <ele>648</ele>
        <time>2022-04-05T14:39:11Z</time>
      </trkpt>
      <trkpt lat="44.13834" lon="3.03824">
        <ele>648</ele>
        <time>2022-04-05T14:39:10Z</time>
      </trkpt>
      <trkpt lat="44.13833" lon="3.03822">
        <ele>648.2</ele>
        <time>2022-04-05T14:39:09Z</time>
      </trkpt>
      <trkpt lat="44.13832" lon="3.03819">
        <ele>648.2</ele>
        <time>2022-04-05T14:39:08Z</time>
      </trkpt>
      <trkpt lat="44.13831" lon="3.03815">
        <ele>648.2</ele>
        <time>2022-04-05T14:39:07Z</time>
      </trkpt>
      <trkpt lat="44.13829" lon="3.03811">
        <ele>648.4</ele>
        <time>2022-04-05T14:39:06Z</time>
      </trkpt>
      <trkpt lat="44.13828" lon="3.03807">
        <ele>648.4</ele>
        <time>2022-04-05T14:39:05Z</time>
      </trkpt>
      <trkpt lat="44.13826" lon="3.03804">
        <ele>648.6</ele>
        <time>2022-04-05T14:39:04Z</time>
      </trkpt>
      <trkpt lat="44.13824" lon="3.03801">
        <ele>648.6</ele>
        <time>2022-04-05T14:39:03Z</time>
      </trkpt>
      <trkpt lat="44.13822" lon="3.03799">
        <ele>648.6</ele>
        <time>2022-04-05T14:39:02Z</time>
      </trkpt>
      <trkpt lat="44.13819" lon="3.03799">
        <ele>648.8</ele>
        <time>2022-04-05T14:39:01Z</time>
      </trkpt>
      <trkpt lat="44.13816" lon="3.038">
        <ele>648.8</ele>
        <time>2022-04-05T14:39:00Z</time>
      </trkpt>
      <trkpt lat="44.13813" lon="3.03802">
        <ele>648.8</ele>
        <time>2022-04-05T14:38:59Z</time>
      </trkpt>
      <trkpt lat="44.1381" lon="3.03802">
        <ele>648.8</ele>
        <time>2022-04-05T14:38:58Z</time>
      </trkpt>
      <trkpt lat="44.13806" lon="3.03802">
        <ele>648.8</ele>
        <time>2022-04-05T14:38:57Z</time>
      </trkpt>
      <trkpt lat="44.13787" lon="3.03806">
        <ele>648.8</ele>
        <time>2022-04-05T14:38:39Z</time>
      </trkpt>
      <trkpt lat="44.13785" lon="3.03806">
        <ele>648.8</ele>
        <time>2022-04-05T14:38:38Z</time>
      </trkpt>
      <trkpt lat="44.13781" lon="3.03807">
        <ele>649</ele>
        <time>2022-04-05T14:38:37Z</time>
      </trkpt>
      <trkpt lat="44.13778" lon="3.03807">
        <ele>649.2</ele>
        <time>2022-04-05T14:38:36Z</time>
      </trkpt>
      <trkpt lat="44.13776" lon="3.03807">
        <ele>649.4</ele>
        <time>2022-04-05T14:38:35Z</time>
      </trkpt>
      <trkpt lat="44.13774" lon="3.03807">
        <ele>649.4</ele>
        <time>2022-04-05T14:38:34Z</time>
      </trkpt>
      <trkpt lat="44.13771" lon="3.03805">
        <ele>649.8</ele>
        <time>2022-04-05T14:38:33Z</time>
      </trkpt>
      <trkpt lat="44.13768" lon="3.03802">
        <ele>650.2</ele>
        <time>2022-04-05T14:38:32Z</time>
      </trkpt>
      <trkpt lat="44.13766" lon="3.03798">
        <ele>650.4</ele>
        <time>2022-04-05T14:38:31Z</time>
      </trkpt>
      <trkpt lat="44.13764" lon="3.03793">
        <ele>650.6</ele>
        <time>2022-04-05T14:38:30Z</time>
      </trkpt>
      <trkpt lat="44.13763" lon="3.03788">
        <ele>650.6</ele>
        <time>2022-04-05T14:38:29Z</time>
      </trkpt>
      <trkpt lat="44.13762" lon="3.03783">
        <ele>650.8</ele>
        <time>2022-04-05T14:38:28Z</time>
      </trkpt>
      <trkpt lat="44.13761" lon="3.03779">
        <ele>650.8</ele>
        <time>2022-04-05T14:38:27Z</time>
      </trkpt>
      <trkpt lat="44.13759" lon="3.03775">
        <ele>650.8</ele>
        <time>2022-04-05T14:38:26Z</time>
      </trkpt>
      <trkpt lat="44.13756" lon="3.03772">
        <ele>650.8</ele>
        <time>2022-04-05T14:38:25Z</time>
      </trkpt>
      <trkpt lat="44.13753" lon="3.0377">
        <ele>650.8</ele>
        <time>2022-04-05T14:38:24Z</time>
      </trkpt>
      <trkpt lat="44.13749" lon="3.03767">
        <ele>650.8</ele>
        <time>2022-04-05T14:38:23Z</time>
      </trkpt>
      <trkpt lat="44.13746" lon="3.03764">
        <ele>650.8</ele>
        <time>2022-04-05T14:38:22Z</time>
      </trkpt>
      <trkpt lat="44.13743" lon="3.0376">
        <ele>650.8</ele>
        <time>2022-04-05T14:38:21Z</time>
      </trkpt>
      <trkpt lat="44.1374" lon="3.03756">
        <ele>651</ele>
        <time>2022-04-05T14:38:20Z</time>
      </trkpt>
      <trkpt lat="44.13737" lon="3.03752">
        <ele>651</ele>
        <time>2022-04-05T14:38:19Z</time>
      </trkpt>
      <trkpt lat="44.13735" lon="3.03748">
        <ele>651.2</ele>
        <time>2022-04-05T14:38:18Z</time>
      </trkpt>
      <trkpt lat="44.13732" lon="3.03744">
        <ele>651.2</ele>
        <time>2022-04-05T14:38:17Z</time>
      </trkpt>
      <trkpt lat="44.13729" lon="3.0374">
        <ele>651.2</ele>
        <time>2022-04-05T14:38:16Z</time>
      </trkpt>
      <trkpt lat="44.13726" lon="3.03736">
        <ele>651.4</ele>
        <time>2022-04-05T14:38:15Z</time>
      </trkpt>
      <trkpt lat="44.13723" lon="3.03732">
        <ele>651.4</ele>
        <time>2022-04-05T14:38:14Z</time>
      </trkpt>
      <trkpt lat="44.1372" lon="3.03729">
        <ele>651.4</ele>
        <time>2022-04-05T14:38:13Z</time>
      </trkpt>
      <trkpt lat="44.13717" lon="3.03726">
        <ele>651.6</ele>
        <time>2022-04-05T14:38:12Z</time>
      </trkpt>
      <trkpt lat="44.13713" lon="3.03723">
        <ele>651.6</ele>
        <time>2022-04-05T14:38:11Z</time>
      </trkpt>
      <trkpt lat="44.13709" lon="3.0372">
        <ele>651.6</ele>
        <time>2022-04-05T14:38:10Z</time>
      </trkpt>
      <trkpt lat="44.13705" lon="3.03717">
        <ele>651.6</ele>
        <time>2022-04-05T14:38:09Z</time>
      </trkpt>
      <trkpt lat="44.13701" lon="3.03714">
        <ele>651.8</ele>
        <time>2022-04-05T14:38:08Z</time>
      </trkpt>
      <trkpt lat="44.13697" lon="3.03712">
        <ele>651.8</ele>
        <time>2022-04-05T14:38:07Z</time>
      </trkpt>
      <trkpt lat="44.13693" lon="3.03709">
        <ele>652</ele>
        <time>2022-04-05T14:38:06Z</time>
      </trkpt>
      <trkpt lat="44.1369" lon="3.03706">
        <ele>652</ele>
        <time>2022-04-05T14:38:05Z</time>
      </trkpt>
      <trkpt lat="44.13686" lon="3.03704">
        <ele>652.2</ele>
        <time>2022-04-05T14:38:04Z</time>
      </trkpt>
      <trkpt lat="44.13683" lon="3.03701">
        <ele>652</ele>
        <time>2022-04-05T14:38:03Z</time>
      </trkpt>
      <trkpt lat="44.13679" lon="3.03698">
        <ele>652</ele>
        <time>2022-04-05T14:38:02Z</time>
      </trkpt>
      <trkpt lat="44.13676" lon="3.03695">
        <ele>652</ele>
        <time>2022-04-05T14:38:01Z</time>
      </trkpt>
      <trkpt lat="44.13673" lon="3.03691">
        <ele>652.2</ele>
        <time>2022-04-05T14:38:00Z</time>
      </trkpt>
      <trkpt lat="44.13669" lon="3.03688">
        <ele>652.4</ele>
        <time>2022-04-05T14:37:59Z</time>
      </trkpt>
      <trkpt lat="44.13666" lon="3.03684">
        <ele>652.4</ele>
        <time>2022-04-05T14:37:58Z</time>
      </trkpt>
      <trkpt lat="44.13663" lon="3.0368">
        <ele>652.4</ele>
        <time>2022-04-05T14:37:57Z</time>
      </trkpt>
      <trkpt lat="44.1366" lon="3.03677">
        <ele>652.4</ele>
        <time>2022-04-05T14:37:56Z</time>
      </trkpt>
      <trkpt lat="44.13657" lon="3.03674">
        <ele>652.4</ele>
        <time>2022-04-05T14:37:55Z</time>
      </trkpt>
      <trkpt lat="44.13654" lon="3.03672">
        <ele>652.4</ele>
        <time>2022-04-05T14:37:54Z</time>
      </trkpt>
      <trkpt lat="44.13651" lon="3.0367">
        <ele>652</ele>
        <time>2022-04-05T14:37:53Z</time>
      </trkpt>
      <trkpt lat="44.13648" lon="3.03668">
        <ele>652</ele>
        <time>2022-04-05T14:37:52Z</time>
      </trkpt>
      <trkpt lat="44.13645" lon="3.03666">
        <ele>651.8</ele>
        <time>2022-04-05T14:37:51Z</time>
      </trkpt>
      <trkpt lat="44.13642" lon="3.03664">
        <ele>651.8</ele>
        <time>2022-04-05T14:37:50Z</time>
      </trkpt>
      <trkpt lat="44.13639" lon="3.03662">
        <ele>651.8</ele>
        <time>2022-04-05T14:37:49Z</time>
      </trkpt>
      <trkpt lat="44.13635" lon="3.0366">
        <ele>651.6</ele>
        <time>2022-04-05T14:37:48Z</time>
      </trkpt>
      <trkpt lat="44.13632" lon="3.03659">
        <ele>651.6</ele>
        <time>2022-04-05T14:37:47Z</time>
      </trkpt>
      <trkpt lat="44.1363" lon="3.03657">
        <ele>651.6</ele>
        <time>2022-04-05T14:37:46Z</time>
      </trkpt>
      <trkpt lat="44.13627" lon="3.03655">
        <ele>651.6</ele>
        <time>2022-04-05T14:37:45Z</time>
      </trkpt>
      <trkpt lat="44.13624" lon="3.03653">
        <ele>651.6</ele>
        <time>2022-04-05T14:37:44Z</time>
      </trkpt>
      <trkpt lat="44.13622" lon="3.03651">
        <ele>651.6</ele>
        <time>2022-04-05T14:37:43Z</time>
      </trkpt>
      <trkpt lat="44.13619" lon="3.03646">
        <ele>634.8</ele>
      </trkpt>
      <trkpt lat="44.13617" lon="3.03644">
        <ele>634.9</ele>
      </trkpt>
      <trkpt lat="44.13608" lon="3.03642">
        <ele>644</ele>
        <time>2022-04-05T13:26:57Z</time>
      </trkpt>
      <trkpt lat="44.13605" lon="3.03641">
        <ele>644.2</ele>
        <time>2022-04-05T13:26:58Z</time>
      </trkpt>
      <trkpt lat="44.13603" lon="3.0364">
        <ele>644.2</ele>
        <time>2022-04-05T13:26:59Z</time>
      </trkpt>
      <trkpt lat="44.136" lon="3.03637">
        <ele>644.2</ele>
        <time>2022-04-05T13:27:00Z</time>
      </trkpt>
      <trkpt lat="44.13598" lon="3.03634">
        <ele>644.2</ele>
        <time>2022-04-05T13:27:01Z</time>
      </trkpt>
      <trkpt lat="44.13596" lon="3.03632">
        <ele>644.2</ele>
        <time>2022-04-05T13:27:02Z</time>
      </trkpt>
      <trkpt lat="44.13594" lon="3.03628">
        <ele>644.2</ele>
        <time>2022-04-05T13:27:03Z</time>
      </trkpt>
      <trkpt lat="44.13591" lon="3.03625">
        <ele>644.2</ele>
        <time>2022-04-05T13:27:04Z</time>
      </trkpt>
      <trkpt lat="44.13588" lon="3.03622">
        <ele>644.2</ele>
        <time>2022-04-05T13:27:05Z</time>
      </trkpt>
      <trkpt lat="44.13585" lon="3.03619">
        <ele>644.2</ele>
        <time>2022-04-05T13:27:06Z</time>
      </trkpt>
      <trkpt lat="44.13581" lon="3.03617">
        <ele>644</ele>
        <time>2022-04-05T13:27:07Z</time>
      </trkpt>
      <trkpt lat="44.13577" lon="3.03616">
        <ele>643.8</ele>
        <time>2022-04-05T13:27:08Z</time>
      </trkpt>
      <trkpt lat="44.13572" lon="3.03614">
        <ele>643.8</ele>
        <time>2022-04-05T13:27:09Z</time>
      </trkpt>
      <trkpt lat="44.13568" lon="3.03613">
        <ele>643.8</ele>
        <time>2022-04-05T13:27:10Z</time>
      </trkpt>
      <trkpt lat="44.13563" lon="3.03612">
        <ele>643.6</ele>
        <time>2022-04-05T13:27:11Z</time>
      </trkpt>
      <trkpt lat="44.13558" lon="3.03612">
        <ele>643.6</ele>
        <time>2022-04-05T13:27:12Z</time>
      </trkpt>
      <trkpt lat="44.13553" lon="3.03611">
        <ele>643.6</ele>
        <time>2022-04-05T13:27:13Z</time>
      </trkpt>
      <trkpt lat="44.13547" lon="3.03611">
        <ele>643.4</ele>
        <time>2022-04-05T13:27:14Z</time>
      </trkpt>
      <trkpt lat="44.13542" lon="3.0361">
        <ele>643.4</ele>
        <time>2022-04-05T13:27:15Z</time>
      </trkpt>
      <trkpt lat="44.13536" lon="3.03609">
        <ele>643.2</ele>
        <time>2022-04-05T13:27:16Z</time>
      </trkpt>
      <trkpt lat="44.13531" lon="3.03609">
        <ele>643.2</ele>
        <time>2022-04-05T13:27:17Z</time>
      </trkpt>
      <trkpt lat="44.13525" lon="3.03608">
        <ele>643</ele>
        <time>2022-04-05T13:27:18Z</time>
      </trkpt>
      <trkpt lat="44.13519" lon="3.03608">
        <ele>643</ele>
        <time>2022-04-05T13:27:19Z</time>
      </trkpt>
      <trkpt lat="44.13513" lon="3.03607">
        <ele>642.8</ele>
        <time>2022-04-05T13:27:20Z</time>
      </trkpt>
      <trkpt lat="44.13507" lon="3.03605">
        <ele>642.8</ele>
        <time>2022-04-05T13:27:21Z</time>
      </trkpt>
      <trkpt lat="44.13501" lon="3.03604">
        <ele>642.6</ele>
        <time>2022-04-05T13:27:22Z</time>
      </trkpt>
      <trkpt lat="44.13495" lon="3.03602">
        <ele>642.4</ele>
        <time>2022-04-05T13:27:23Z</time>
      </trkpt>
      <trkpt lat="44.13488" lon="3.03602">
        <ele>642</ele>
        <time>2022-04-05T13:27:24Z</time>
      </trkpt>
      <trkpt lat="44.13482" lon="3.03602">
        <ele>641.4</ele>
        <time>2022-04-05T13:27:25Z</time>
      </trkpt>
      <trkpt lat="44.13476" lon="3.03604">
        <ele>641.4</ele>
        <time>2022-04-05T13:27:26Z</time>
      </trkpt>
      <trkpt lat="44.1347" lon="3.03606">
        <ele>641</ele>
        <time>2022-04-05T13:27:27Z</time>
      </trkpt>
      <trkpt lat="44.13465" lon="3.03609">
        <ele>640.8</ele>
        <time>2022-04-05T13:27:28Z</time>
      </trkpt>
      <trkpt lat="44.13459" lon="3.03611">
        <ele>640.4</ele>
        <time>2022-04-05T13:27:29Z</time>
      </trkpt>
      <trkpt lat="44.13454" lon="3.03614">
        <ele>640.4</ele>
        <time>2022-04-05T13:27:30Z</time>
      </trkpt>
      <trkpt lat="44.13449" lon="3.03616">
        <ele>640.2</ele>
        <time>2022-04-05T13:27:31Z</time>
      </trkpt>
      <trkpt lat="44.13444" lon="3.03618">
        <ele>640.2</ele>
        <time>2022-04-05T13:27:32Z</time>
      </trkpt>
      <trkpt lat="44.13439" lon="3.0362">
        <ele>640</ele>
        <time>2022-04-05T13:27:33Z</time>
      </trkpt>
      <trkpt lat="44.13435" lon="3.03622">
        <ele>639.8</ele>
        <time>2022-04-05T13:27:34Z</time>
      </trkpt>
      <trkpt lat="44.1343" lon="3.03624">
        <ele>639.8</ele>
        <time>2022-04-05T13:27:35Z</time>
      </trkpt>
      <trkpt lat="44.13425" lon="3.03626">
        <ele>639.8</ele>
        <time>2022-04-05T13:27:36Z</time>
      </trkpt>
      <trkpt lat="44.13421" lon="3.03628">
        <ele>639.8</ele>
        <time>2022-04-05T13:27:37Z</time>
      </trkpt>
      <trkpt lat="44.13415" lon="3.0363">
        <ele>639.6</ele>
        <time>2022-04-05T13:27:38Z</time>
      </trkpt>
      <trkpt lat="44.1341" lon="3.03632">
        <ele>639.6</ele>
        <time>2022-04-05T13:27:39Z</time>
      </trkpt>
      <trkpt lat="44.13405" lon="3.03634">
        <ele>639.4</ele>
        <time>2022-04-05T13:27:40Z</time>
      </trkpt>
      <trkpt lat="44.13399" lon="3.03635">
        <ele>639.4</ele>
        <time>2022-04-05T13:27:41Z</time>
      </trkpt>
      <trkpt lat="44.13392" lon="3.03635">
        <ele>639.4</ele>
        <time>2022-04-05T13:27:42Z</time>
      </trkpt>
      <trkpt lat="44.13385" lon="3.03634">
        <ele>639.4</ele>
        <time>2022-04-05T13:27:43Z</time>
      </trkpt>
      <trkpt lat="44.13378" lon="3.03632">
        <ele>639.4</ele>
        <time>2022-04-05T13:27:44Z</time>
      </trkpt>
      <trkpt lat="44.1337" lon="3.03629">
        <ele>639.4</ele>
        <time>2022-04-05T13:27:45Z</time>
      </trkpt>
      <trkpt lat="44.13364" lon="3.03626">
        <ele>639</ele>
        <time>2022-04-05T13:27:46Z</time>
      </trkpt>
      <trkpt lat="44.13356" lon="3.03624">
        <ele>638.6</ele>
        <time>2022-04-05T13:27:47Z</time>
      </trkpt>
      <trkpt lat="44.13349" lon="3.03624">
        <ele>638.2</ele>
        <time>2022-04-05T13:27:48Z</time>
      </trkpt>
      <trkpt lat="44.13341" lon="3.03626">
        <ele>637.4</ele>
        <time>2022-04-05T13:27:49Z</time>
      </trkpt>
      <trkpt lat="44.13334" lon="3.03629">
        <ele>637.2</ele>
        <time>2022-04-05T13:27:50Z</time>
      </trkpt>
      <trkpt lat="44.13327" lon="3.03633">
        <ele>636.8</ele>
        <time>2022-04-05T13:27:51Z</time>
      </trkpt>
      <trkpt lat="44.1332" lon="3.03637">
        <ele>636.6</ele>
        <time>2022-04-05T13:27:52Z</time>
      </trkpt>
      <trkpt lat="44.13313" lon="3.0364">
        <ele>636.4</ele>
        <time>2022-04-05T13:27:53Z</time>
      </trkpt>
      <trkpt lat="44.13307" lon="3.0364">
        <ele>636.2</ele>
        <time>2022-04-05T13:27:54Z</time>
      </trkpt>
      <trkpt lat="44.13301" lon="3.03636">
        <ele>636</ele>
        <time>2022-04-05T13:27:55Z</time>
      </trkpt>
      <trkpt lat="44.13296" lon="3.03631">
        <ele>636</ele>
        <time>2022-04-05T13:27:56Z</time>
      </trkpt>
      <trkpt lat="44.13291" lon="3.03626">
        <ele>635.8</ele>
        <time>2022-04-05T13:27:57Z</time>
      </trkpt>
      <trkpt lat="44.13286" lon="3.03619">
        <ele>635.8</ele>
        <time>2022-04-05T13:27:58Z</time>
      </trkpt>
      <trkpt lat="44.13281" lon="3.03614">
        <ele>635.8</ele>
        <time>2022-04-05T13:27:59Z</time>
      </trkpt>
      <trkpt lat="44.13278" lon="3.0361">
        <ele>635.8</ele>
        <time>2022-04-05T13:28:00Z</time>
      </trkpt>
      <trkpt lat="44.13273" lon="3.03605">
        <ele>635.8</ele>
        <time>2022-04-05T13:28:01Z</time>
      </trkpt>
      <trkpt lat="44.13269" lon="3.03603">
        <ele>635.8</ele>
        <time>2022-04-05T13:28:02Z</time>
      </trkpt>
      <trkpt lat="44.13266" lon="3.03603">
        <ele>635.8</ele>
        <time>2022-04-05T13:28:03Z</time>
      </trkpt>
      <trkpt lat="44.13263" lon="3.03606">
        <ele>636</ele>
        <time>2022-04-05T13:28:04Z</time>
      </trkpt>
      <trkpt lat="44.1326" lon="3.0361">
        <ele>635.8</ele>
        <time>2022-04-05T13:28:05Z</time>
      </trkpt>
      <trkpt lat="44.13257" lon="3.03615">
        <ele>635.6</ele>
        <time>2022-04-05T13:28:06Z</time>
      </trkpt>
      <trkpt lat="44.13254" lon="3.0362">
        <ele>635.6</ele>
        <time>2022-04-05T13:28:07Z</time>
      </trkpt>
      <trkpt lat="44.1325" lon="3.03627">
        <ele>635.4</ele>
        <time>2022-04-05T13:28:08Z</time>
      </trkpt>
      <trkpt lat="44.13247" lon="3.03632">
        <ele>635.6</ele>
        <time>2022-04-05T13:28:09Z</time>
      </trkpt>
      <trkpt lat="44.13243" lon="3.03639">
        <ele>635.2</ele>
        <time>2022-04-05T13:28:10Z</time>
      </trkpt>
      <trkpt lat="44.13239" lon="3.03646">
        <ele>634.8</ele>
        <time>2022-04-05T13:28:11Z</time>
      </trkpt>
      <trkpt lat="44.13235" lon="3.03653">
        <ele>634.8</ele>
        <time>2022-04-05T13:28:12Z</time>
      </trkpt>
      <trkpt lat="44.13231" lon="3.03661">
        <ele>634.6</ele>
        <time>2022-04-05T13:28:13Z</time>
      </trkpt>
      <trkpt lat="44.13226" lon="3.03669">
        <ele>634.2</ele>
        <time>2022-04-05T13:28:14Z</time>
      </trkpt>
      <trkpt lat="44.13221" lon="3.03677">
        <ele>633.8</ele>
        <time>2022-04-05T13:28:15Z</time>
      </trkpt>
      <trkpt lat="44.13217" lon="3.03686">
        <ele>633.6</ele>
        <time>2022-04-05T13:28:16Z</time>
      </trkpt>
      <trkpt lat="44.13212" lon="3.03694">
        <ele>633.2</ele>
        <time>2022-04-05T13:28:17Z</time>
      </trkpt>
      <trkpt lat="44.13207" lon="3.03703">
        <ele>633</ele>
        <time>2022-04-05T13:28:18Z</time>
      </trkpt>
      <trkpt lat="44.13202" lon="3.03711">
        <ele>632.8</ele>
        <time>2022-04-05T13:28:19Z</time>
      </trkpt>
      <trkpt lat="44.13196" lon="3.0372">
        <ele>632.6</ele>
        <time>2022-04-05T13:28:20Z</time>
      </trkpt>
      <trkpt lat="44.13191" lon="3.03729">
        <ele>632.4</ele>
        <time>2022-04-05T13:28:21Z</time>
      </trkpt>
      <trkpt lat="44.13184" lon="3.03739">
        <ele>632</ele>
        <time>2022-04-05T13:28:22Z</time>
      </trkpt>
      <trkpt lat="44.13179" lon="3.03744">
        <ele>631.8</ele>
        <time>2022-04-05T13:28:23Z</time>
      </trkpt>
      <trkpt lat="44.13173" lon="3.0375">
        <ele>631</ele>
        <time>2022-04-05T13:28:24Z</time>
      </trkpt>
      <trkpt lat="44.13169" lon="3.03755">
        <ele>630.4</ele>
        <time>2022-04-05T13:28:25Z</time>
      </trkpt>
      <trkpt lat="44.13166" lon="3.0376">
        <ele>629.4</ele>
        <time>2022-04-05T13:28:26Z</time>
      </trkpt>
      <trkpt lat="44.13164" lon="3.03765">
        <ele>629.2</ele>
        <time>2022-04-05T13:28:27Z</time>
      </trkpt>
      <trkpt lat="44.13163" lon="3.0377">
        <ele>628.4</ele>
        <time>2022-04-05T13:28:28Z</time>
      </trkpt>
      <trkpt lat="44.13161" lon="3.03775">
        <ele>627.4</ele>
        <time>2022-04-05T13:28:29Z</time>
      </trkpt>
      <trkpt lat="44.13157" lon="3.03778">
        <ele>626.8</ele>
        <time>2022-04-05T13:28:30Z</time>
      </trkpt>
      <trkpt lat="44.13153" lon="3.03781">
        <ele>625.8</ele>
        <time>2022-04-05T13:28:31Z</time>
      </trkpt>
      <trkpt lat="44.13147" lon="3.03785">
        <ele>625.2</ele>
        <time>2022-04-05T13:28:32Z</time>
      </trkpt>
      <trkpt lat="44.13142" lon="3.03789">
        <ele>624.4</ele>
        <time>2022-04-05T13:28:33Z</time>
      </trkpt>
      <trkpt lat="44.13136" lon="3.03795">
        <ele>623.8</ele>
        <time>2022-04-05T13:28:34Z</time>
      </trkpt>
      <trkpt lat="44.1313" lon="3.03802">
        <ele>623.2</ele>
        <time>2022-04-05T13:28:35Z</time>
      </trkpt>
      <trkpt lat="44.13124" lon="3.03808">
        <ele>622.8</ele>
        <time>2022-04-05T13:28:36Z</time>
      </trkpt>
      <trkpt lat="44.13118" lon="3.03814">
        <ele>622.6</ele>
        <time>2022-04-05T13:28:37Z</time>
      </trkpt>
      <trkpt lat="44.13111" lon="3.03818">
        <ele>622.2</ele>
        <time>2022-04-05T13:28:38Z</time>
      </trkpt>
      <trkpt lat="44.13104" lon="3.03821">
        <ele>621.4</ele>
        <time>2022-04-05T13:28:39Z</time>
      </trkpt>
      <trkpt lat="44.13097" lon="3.03824">
        <ele>619.8</ele>
        <time>2022-04-05T13:28:40Z</time>
      </trkpt>
      <trkpt lat="44.1309" lon="3.03826">
        <ele>619.2</ele>
        <time>2022-04-05T13:28:41Z</time>
      </trkpt>
      <trkpt lat="44.13085" lon="3.03828">
        <ele>618.6</ele>
        <time>2022-04-05T13:28:42Z</time>
      </trkpt>
      <trkpt lat="44.13081" lon="3.03829">
        <ele>617.8</ele>
        <time>2022-04-05T13:28:43Z</time>
      </trkpt>
      <trkpt lat="44.13078" lon="3.03831">
        <ele>616.4</ele>
        <time>2022-04-05T13:28:44Z</time>
      </trkpt>
      <trkpt lat="44.13076" lon="3.03834">
        <ele>616</ele>
        <time>2022-04-05T13:28:45Z</time>
      </trkpt>
      <trkpt lat="44.13074" lon="3.03837">
        <ele>614.4</ele>
        <time>2022-04-05T13:28:46Z</time>
      </trkpt>
      <trkpt lat="44.13072" lon="3.03839">
        <ele>613.8</ele>
        <time>2022-04-05T13:28:47Z</time>
      </trkpt>
      <trkpt lat="44.13069" lon="3.03842">
        <ele>612.8</ele>
        <time>2022-04-05T13:28:48Z</time>
      </trkpt>
      <trkpt lat="44.13064" lon="3.03844">
        <ele>612</ele>
        <time>2022-04-05T13:28:49Z</time>
      </trkpt>
      <trkpt lat="44.13058" lon="3.03847">
        <ele>609.8</ele>
        <time>2022-04-05T13:28:50Z</time>
      </trkpt>
      <trkpt lat="44.13054" lon="3.03852">
        <ele>608.6</ele>
        <time>2022-04-05T13:28:51Z</time>
      </trkpt>
      <trkpt lat="44.1305" lon="3.03859">
        <ele>607.8</ele>
        <time>2022-04-05T13:28:52Z</time>
      </trkpt>
      <trkpt lat="44.13047" lon="3.03868">
        <ele>605.6</ele>
        <time>2022-04-05T13:28:53Z</time>
      </trkpt>
      <trkpt lat="44.13046" lon="3.03875">
        <ele>604.6</ele>
        <time>2022-04-05T13:28:54Z</time>
      </trkpt>
      <trkpt lat="44.13042" lon="3.03884">
        <ele>603.4</ele>
        <time>2022-04-05T13:28:55Z</time>
      </trkpt>
      <trkpt lat="44.13039" lon="3.03888">
        <ele>603</ele>
        <time>2022-04-05T13:28:56Z</time>
      </trkpt>
      <trkpt lat="44.13034" lon="3.03892">
        <ele>601.2</ele>
        <time>2022-04-05T13:28:57Z</time>
      </trkpt>
      <trkpt lat="44.13027" lon="3.03895">
        <ele>600</ele>
        <time>2022-04-05T13:28:58Z</time>
      </trkpt>
      <trkpt lat="44.13023" lon="3.03895">
        <ele>596.6</ele>
        <time>2022-04-05T13:28:59Z</time>
      </trkpt>
      <trkpt lat="44.13018" lon="3.03894">
        <ele>595</ele>
        <time>2022-04-05T13:29:00Z</time>
      </trkpt>
      <trkpt lat="44.13015" lon="3.03896">
        <ele>592.8</ele>
        <time>2022-04-05T13:29:01Z</time>
      </trkpt>
      <trkpt lat="44.13013" lon="3.03899">
        <ele>590.8</ele>
        <time>2022-04-05T13:29:02Z</time>
      </trkpt>
      <trkpt lat="44.13012" lon="3.03903">
        <ele>590.2</ele>
        <time>2022-04-05T13:29:03Z</time>
      </trkpt>
      <trkpt lat="44.13009" lon="3.03907">
        <ele>589.2</ele>
        <time>2022-04-05T13:29:04Z</time>
      </trkpt>
      <trkpt lat="44.13007" lon="3.03911">
        <ele>588.8</ele>
        <time>2022-04-05T13:29:05Z</time>
      </trkpt>
      <trkpt lat="44.13005" lon="3.03915">
        <ele>588</ele>
        <time>2022-04-05T13:29:06Z</time>
      </trkpt>
      <trkpt lat="44.13006" lon="3.03919">
        <ele>587.8</ele>
        <time>2022-04-05T13:29:07Z</time>
      </trkpt>
      <trkpt lat="44.13008" lon="3.03923">
        <ele>586.8</ele>
        <time>2022-04-05T13:29:08Z</time>
      </trkpt>
      <trkpt lat="44.13009" lon="3.03927">
        <ele>586</ele>
        <time>2022-04-05T13:29:09Z</time>
      </trkpt>
      <trkpt lat="44.13008" lon="3.0393">
        <ele>584.4</ele>
        <time>2022-04-05T13:29:10Z</time>
      </trkpt>
      <trkpt lat="44.13007" lon="3.03931">
        <ele>583.4</ele>
        <time>2022-04-05T13:29:11Z</time>
      </trkpt>
      <trkpt lat="44.13006" lon="3.03931">
        <ele>582.6</ele>
        <time>2022-04-05T13:29:12Z</time>
      </trkpt>
      <trkpt lat="44.13001" lon="3.03933">
        <ele>576.4</ele>
        <time>2022-04-05T13:30:00Z</time>
      </trkpt>
      <trkpt lat="44.12999" lon="3.03935">
        <ele>576</ele>
        <time>2022-04-05T13:30:01Z</time>
      </trkpt>
      <trkpt lat="44.12998" lon="3.03937">
        <ele>576</ele>
        <time>2022-04-05T13:30:02Z</time>
      </trkpt>
      <trkpt lat="44.12997" lon="3.0394">
        <ele>575.8</ele>
        <time>2022-04-05T13:30:03Z</time>
      </trkpt>
      <trkpt lat="44.12995" lon="3.03942">
        <ele>575.8</ele>
        <time>2022-04-05T13:30:04Z</time>
      </trkpt>
      <trkpt lat="44.12993" lon="3.03944">
        <ele>575.8</ele>
        <time>2022-04-05T13:30:05Z</time>
      </trkpt>
      <trkpt lat="44.12991" lon="3.03947">
        <ele>575.8</ele>
        <time>2022-04-05T13:30:06Z</time>
      </trkpt>
      <trkpt lat="44.12989" lon="3.03949">
        <ele>575.8</ele>
        <time>2022-04-05T13:30:07Z</time>
      </trkpt>
      <trkpt lat="44.12986" lon="3.03953">
        <ele>575.8</ele>
        <time>2022-04-05T13:30:08Z</time>
      </trkpt>
      <trkpt lat="44.12983" lon="3.03957">
        <ele>575.8</ele>
        <time>2022-04-05T13:30:09Z</time>
      </trkpt>
      <trkpt lat="44.1298" lon="3.03962">
        <ele>575.8</ele>
        <time>2022-04-05T13:30:10Z</time>
      </trkpt>
      <trkpt lat="44.12976" lon="3.03968">
        <ele>576</ele>
        <time>2022-04-05T13:30:11Z</time>
      </trkpt>
      <trkpt lat="44.12971" lon="3.03976">
        <ele>576.2</ele>
        <time>2022-04-05T13:30:12Z</time>
      </trkpt>
      <trkpt lat="44.12967" lon="3.03983">
        <ele>576.4</ele>
        <time>2022-04-05T13:30:13Z</time>
      </trkpt>
      <trkpt lat="44.12963" lon="3.0399">
        <ele>576.4</ele>
        <time>2022-04-05T13:30:14Z</time>
      </trkpt>
      <trkpt lat="44.12958" lon="3.03997">
        <ele>576.4</ele>
        <time>2022-04-05T13:30:15Z</time>
      </trkpt>
      <trkpt lat="44.12953" lon="3.04002">
        <ele>576.4</ele>
        <time>2022-04-05T13:30:16Z</time>
      </trkpt>
      <trkpt lat="44.12949" lon="3.04008">
        <ele>576.2</ele>
        <time>2022-04-05T13:30:17Z</time>
      </trkpt>
      <trkpt lat="44.12944" lon="3.04018">
        <ele>576.2</ele>
        <time>2022-04-05T13:30:18Z</time>
      </trkpt>
      <trkpt lat="44.1294" lon="3.04026">
        <ele>576</ele>
        <time>2022-04-05T13:30:19Z</time>
      </trkpt>
      <trkpt lat="44.12935" lon="3.04035">
        <ele>576</ele>
        <time>2022-04-05T13:30:20Z</time>
      </trkpt>
      <trkpt lat="44.12932" lon="3.04044">
        <ele>575.8</ele>
        <time>2022-04-05T13:30:21Z</time>
      </trkpt>
      <trkpt lat="44.12928" lon="3.04052">
        <ele>575.8</ele>
        <time>2022-04-05T13:30:22Z</time>
      </trkpt>
      <trkpt lat="44.12925" lon="3.04061">
        <ele>575.4</ele>
        <time>2022-04-05T13:30:23Z</time>
      </trkpt>
      <trkpt lat="44.12921" lon="3.04069">
        <ele>575.2</ele>
        <time>2022-04-05T13:30:24Z</time>
      </trkpt>
      <trkpt lat="44.12918" lon="3.04078">
        <ele>574.6</ele>
        <time>2022-04-05T13:30:25Z</time>
      </trkpt>
      <trkpt lat="44.12912" lon="3.04086">
        <ele>573.8</ele>
        <time>2022-04-05T13:30:26Z</time>
      </trkpt>
      <trkpt lat="44.12907" lon="3.04093">
        <ele>573.4</ele>
        <time>2022-04-05T13:30:27Z</time>
      </trkpt>
      <trkpt lat="44.12902" lon="3.041">
        <ele>573.2</ele>
        <time>2022-04-05T13:30:28Z</time>
      </trkpt>
      <trkpt lat="44.12898" lon="3.04106">
        <ele>573.2</ele>
        <time>2022-04-05T13:30:29Z</time>
      </trkpt>
      <trkpt lat="44.12894" lon="3.04115">
        <ele>572.8</ele>
        <time>2022-04-05T13:30:30Z</time>
      </trkpt>
      <trkpt lat="44.12891" lon="3.04121">
        <ele>572.8</ele>
        <time>2022-04-05T13:30:31Z</time>
      </trkpt>
      <trkpt lat="44.12885" lon="3.04129">
        <ele>572.6</ele>
        <time>2022-04-05T13:30:32Z</time>
      </trkpt>
      <trkpt lat="44.12878" lon="3.04136">
        <ele>572.4</ele>
        <time>2022-04-05T13:30:33Z</time>
      </trkpt>
      <trkpt lat="44.12872" lon="3.04142">
        <ele>572.2</ele>
        <time>2022-04-05T13:30:34Z</time>
      </trkpt>
      <trkpt lat="44.12866" lon="3.04149">
        <ele>572</ele>
        <time>2022-04-05T13:30:35Z</time>
      </trkpt>
      <trkpt lat="44.12859" lon="3.04156">
        <ele>571.4</ele>
        <time>2022-04-05T13:30:36Z</time>
      </trkpt>
      <trkpt lat="44.12853" lon="3.04161">
        <ele>570.8</ele>
        <time>2022-04-05T13:30:37Z</time>
      </trkpt>
      <trkpt lat="44.12847" lon="3.04167">
        <ele>570.6</ele>
        <time>2022-04-05T13:30:38Z</time>
      </trkpt>
      <trkpt lat="44.12841" lon="3.04172">
        <ele>570</ele>
        <time>2022-04-05T13:30:39Z</time>
      </trkpt>
      <trkpt lat="44.12836" lon="3.04179">
        <ele>569.4</ele>
        <time>2022-04-05T13:30:40Z</time>
      </trkpt>
      <trkpt lat="44.12832" lon="3.04184">
        <ele>568.8</ele>
        <time>2022-04-05T13:30:41Z</time>
      </trkpt>
      <trkpt lat="44.12829" lon="3.04188">
        <ele>568.4</ele>
        <time>2022-04-05T13:30:42Z</time>
      </trkpt>
      <trkpt lat="44.12825" lon="3.04193">
        <ele>568.2</ele>
        <time>2022-04-05T13:30:43Z</time>
      </trkpt>
      <trkpt lat="44.12823" lon="3.04197">
        <ele>568.2</ele>
        <time>2022-04-05T13:30:44Z</time>
      </trkpt>
      <trkpt lat="44.12821" lon="3.04201">
        <ele>568</ele>
        <time>2022-04-05T13:30:45Z</time>
      </trkpt>
      <trkpt lat="44.12819" lon="3.04208">
        <ele>567.8</ele>
        <time>2022-04-05T13:30:46Z</time>
      </trkpt>
      <trkpt lat="44.12816" lon="3.04216">
        <ele>567.8</ele>
        <time>2022-04-05T13:30:47Z</time>
      </trkpt>
      <trkpt lat="44.12813" lon="3.04223">
        <ele>567.8</ele>
        <time>2022-04-05T13:30:48Z</time>
      </trkpt>
      <trkpt lat="44.1281" lon="3.04234">
        <ele>567.8</ele>
        <time>2022-04-05T13:30:49Z</time>
      </trkpt>
      <trkpt lat="44.12806" lon="3.04245">
        <ele>567.8</ele>
        <time>2022-04-05T13:30:50Z</time>
      </trkpt>
      <trkpt lat="44.12804" lon="3.04256">
        <ele>567.8</ele>
        <time>2022-04-05T13:30:51Z</time>
      </trkpt>
      <trkpt lat="44.12801" lon="3.04266">
        <ele>567.8</ele>
        <time>2022-04-05T13:30:52Z</time>
      </trkpt>
      <trkpt lat="44.12797" lon="3.04273">
        <ele>567.6</ele>
        <time>2022-04-05T13:30:53Z</time>
      </trkpt>
      <trkpt lat="44.12791" lon="3.04282">
        <ele>567.4</ele>
        <time>2022-04-05T13:30:54Z</time>
      </trkpt>
      <trkpt lat="44.12785" lon="3.0429">
        <ele>567.2</ele>
        <time>2022-04-05T13:30:55Z</time>
      </trkpt>
      <trkpt lat="44.12779" lon="3.04297">
        <ele>566.4</ele>
        <time>2022-04-05T13:30:56Z</time>
      </trkpt>
      <trkpt lat="44.12774" lon="3.04301">
        <ele>564.8</ele>
        <time>2022-04-05T13:30:57Z</time>
      </trkpt>
      <trkpt lat="44.12768" lon="3.04307">
        <ele>564.2</ele>
        <time>2022-04-05T13:30:58Z</time>
      </trkpt>
      <trkpt lat="44.12761" lon="3.04313">
        <ele>563</ele>
        <time>2022-04-05T13:30:59Z</time>
      </trkpt>
      <trkpt lat="44.12756" lon="3.04318">
        <ele>562.4</ele>
        <time>2022-04-05T13:31:00Z</time>
      </trkpt>
      <trkpt lat="44.12751" lon="3.04321">
        <ele>560.6</ele>
        <time>2022-04-05T13:31:01Z</time>
      </trkpt>
      <trkpt lat="44.12745" lon="3.04324">
        <ele>559.6</ele>
        <time>2022-04-05T13:31:02Z</time>
      </trkpt>
      <trkpt lat="44.12738" lon="3.04328">
        <ele>558.6</ele>
        <time>2022-04-05T13:31:03Z</time>
      </trkpt>
      <trkpt lat="44.12732" lon="3.04332">
        <ele>558.2</ele>
        <time>2022-04-05T13:31:04Z</time>
      </trkpt>
      <trkpt lat="44.12727" lon="3.04335">
        <ele>558</ele>
        <time>2022-04-05T13:31:05Z</time>
      </trkpt>
      <trkpt lat="44.12723" lon="3.04338">
        <ele>557.8</ele>
        <time>2022-04-05T13:31:06Z</time>
      </trkpt>
      <trkpt lat="44.12719" lon="3.04342">
        <ele>557.8</ele>
        <time>2022-04-05T13:31:07Z</time>
      </trkpt>
      <trkpt lat="44.12714" lon="3.04348">
        <ele>557.6</ele>
        <time>2022-04-05T13:31:08Z</time>
      </trkpt>
      <trkpt lat="44.12708" lon="3.04353">
        <ele>557.4</ele>
        <time>2022-04-05T13:31:09Z</time>
      </trkpt>
      <trkpt lat="44.12702" lon="3.04359">
        <ele>557.2</ele>
        <time>2022-04-05T13:31:10Z</time>
      </trkpt>
      <trkpt lat="44.12697" lon="3.04364">
        <ele>557</ele>
        <time>2022-04-05T13:31:11Z</time>
      </trkpt>
      <trkpt lat="44.12691" lon="3.0437">
        <ele>556.6</ele>
        <time>2022-04-05T13:31:12Z</time>
      </trkpt>
      <trkpt lat="44.12684" lon="3.04376">
        <ele>556</ele>
        <time>2022-04-05T13:31:13Z</time>
      </trkpt>
      <trkpt lat="44.12678" lon="3.04381">
        <ele>555.6</ele>
        <time>2022-04-05T13:31:14Z</time>
      </trkpt>
      <trkpt lat="44.12674" lon="3.04386">
        <ele>555.4</ele>
        <time>2022-04-05T13:31:15Z</time>
      </trkpt>
      <trkpt lat="44.12669" lon="3.04393">
        <ele>555.4</ele>
        <time>2022-04-05T13:31:16Z</time>
      </trkpt>
      <trkpt lat="44.12665" lon="3.04398">
        <ele>555</ele>
        <time>2022-04-05T13:31:17Z</time>
      </trkpt>
      <trkpt lat="44.12661" lon="3.04406">
        <ele>554.8</ele>
        <time>2022-04-05T13:31:18Z</time>
      </trkpt>
      <trkpt lat="44.12657" lon="3.04413">
        <ele>554.8</ele>
        <time>2022-04-05T13:31:19Z</time>
      </trkpt>
      <trkpt lat="44.12653" lon="3.0442">
        <ele>554.8</ele>
        <time>2022-04-05T13:31:20Z</time>
      </trkpt>
      <trkpt lat="44.12649" lon="3.04428">
        <ele>554.6</ele>
        <time>2022-04-05T13:31:21Z</time>
      </trkpt>
      <trkpt lat="44.12644" lon="3.04433">
        <ele>554.6</ele>
        <time>2022-04-05T13:31:22Z</time>
      </trkpt>
      <trkpt lat="44.1264" lon="3.04437">
        <ele>554.6</ele>
        <time>2022-04-05T13:31:23Z</time>
      </trkpt>
      <trkpt lat="44.12635" lon="3.04441">
        <ele>554.8</ele>
        <time>2022-04-05T13:31:24Z</time>
      </trkpt>
      <trkpt lat="44.12631" lon="3.04445">
        <ele>554.8</ele>
        <time>2022-04-05T13:31:25Z</time>
      </trkpt>
      <trkpt lat="44.12626" lon="3.04449">
        <ele>554.8</ele>
        <time>2022-04-05T13:31:26Z</time>
      </trkpt>
      <trkpt lat="44.12622" lon="3.04454">
        <ele>554.8</ele>
        <time>2022-04-05T13:31:27Z</time>
      </trkpt>
      <trkpt lat="44.12615" lon="3.04462">
        <ele>554.8</ele>
        <time>2022-04-05T13:31:28Z</time>
      </trkpt>
      <trkpt lat="44.12608" lon="3.04468">
        <ele>554.8</ele>
        <time>2022-04-05T13:31:29Z</time>
      </trkpt>
      <trkpt lat="44.12601" lon="3.04475">
        <ele>554.8</ele>
        <time>2022-04-05T13:31:30Z</time>
      </trkpt>
      <trkpt lat="44.12598" lon="3.04478">
        <ele>554.8</ele>
        <time>2022-04-05T13:31:31Z</time>
      </trkpt>
      <trkpt lat="44.12591" lon="3.04485">
        <ele>554.6</ele>
        <time>2022-04-05T13:31:32Z</time>
      </trkpt>
      <trkpt lat="44.12585" lon="3.04489">
        <ele>554.4</ele>
        <time>2022-04-05T13:31:33Z</time>
      </trkpt>
      <trkpt lat="44.1258" lon="3.04492">
        <ele>554.2</ele>
        <time>2022-04-05T13:31:34Z</time>
      </trkpt>
      <trkpt lat="44.12575" lon="3.04496">
        <ele>553.8</ele>
        <time>2022-04-05T13:31:35Z</time>
      </trkpt>
      <trkpt lat="44.12571" lon="3.04501">
        <ele>553.6</ele>
        <time>2022-04-05T13:31:36Z</time>
      </trkpt>
      <trkpt lat="44.12566" lon="3.04508">
        <ele>553.4</ele>
        <time>2022-04-05T13:31:37Z</time>
      </trkpt>
      <trkpt lat="44.12562" lon="3.04512">
        <ele>553.2</ele>
        <time>2022-04-05T13:31:38Z</time>
      </trkpt>
      <trkpt lat="44.12559" lon="3.04517">
        <ele>553</ele>
        <time>2022-04-05T13:31:39Z</time>
      </trkpt>
      <trkpt lat="44.12556" lon="3.04521">
        <ele>552.8</ele>
        <time>2022-04-05T13:31:40Z</time>
      </trkpt>
      <trkpt lat="44.12552" lon="3.04527">
        <ele>552.6</ele>
        <time>2022-04-05T13:31:41Z</time>
      </trkpt>
      <trkpt lat="44.12548" lon="3.04532">
        <ele>552.6</ele>
        <time>2022-04-05T13:31:42Z</time>
      </trkpt>
      <trkpt lat="44.12544" lon="3.04536">
        <ele>552.4</ele>
        <time>2022-04-05T13:31:43Z</time>
      </trkpt>
      <trkpt lat="44.12538" lon="3.04541">
        <ele>552.4</ele>
        <time>2022-04-05T13:31:44Z</time>
      </trkpt>
      <trkpt lat="44.12532" lon="3.04545">
        <ele>552.2</ele>
        <time>2022-04-05T13:31:45Z</time>
      </trkpt>
      <trkpt lat="44.12525" lon="3.04548">
        <ele>552.2</ele>
        <time>2022-04-05T13:31:46Z</time>
      </trkpt>
      <trkpt lat="44.12519" lon="3.04549">
        <ele>551.6</ele>
        <time>2022-04-05T13:31:47Z</time>
      </trkpt>
      <trkpt lat="44.12511" lon="3.0455">
        <ele>551.4</ele>
        <time>2022-04-05T13:31:48Z</time>
      </trkpt>
      <trkpt lat="44.12505" lon="3.04551">
        <ele>549.4</ele>
        <time>2022-04-05T13:31:49Z</time>
      </trkpt>
      <trkpt lat="44.125" lon="3.04552">
        <ele>548.4</ele>
        <time>2022-04-05T13:31:50Z</time>
      </trkpt>
      <trkpt lat="44.12494" lon="3.04553">
        <ele>548</ele>
        <time>2022-04-05T13:31:51Z</time>
      </trkpt>
      <trkpt lat="44.12488" lon="3.04555">
        <ele>547.8</ele>
        <time>2022-04-05T13:31:52Z</time>
      </trkpt>
      <trkpt lat="44.12485" lon="3.04557">
        <ele>547.8</ele>
        <time>2022-04-05T13:31:53Z</time>
      </trkpt>
      <trkpt lat="44.12481" lon="3.0456">
        <ele>547.2</ele>
        <time>2022-04-05T13:31:54Z</time>
      </trkpt>
      <trkpt lat="44.12478" lon="3.04564">
        <ele>547</ele>
        <time>2022-04-05T13:31:55Z</time>
      </trkpt>
      <trkpt lat="44.12477" lon="3.04567">
        <ele>546.4</ele>
        <time>2022-04-05T13:31:56Z</time>
      </trkpt>
      <trkpt lat="44.12479" lon="3.0457">
        <ele>546.2</ele>
        <time>2022-04-05T13:31:57Z</time>
      </trkpt>
      <trkpt lat="44.12483" lon="3.04572">
        <ele>545.6</ele>
        <time>2022-04-05T13:31:58Z</time>
      </trkpt>
      <trkpt lat="44.12487" lon="3.04573">
        <ele>545</ele>
        <time>2022-04-05T13:31:59Z</time>
      </trkpt>
      <trkpt lat="44.12492" lon="3.04574">
        <ele>544.2</ele>
        <time>2022-04-05T13:32:00Z</time>
      </trkpt>
      <trkpt lat="44.12498" lon="3.04574">
        <ele>543.4</ele>
        <time>2022-04-05T13:32:01Z</time>
      </trkpt>
      <trkpt lat="44.12502" lon="3.04575">
        <ele>542.6</ele>
        <time>2022-04-05T13:32:02Z</time>
      </trkpt>
      <trkpt lat="44.12505" lon="3.04576">
        <ele>541.2</ele>
        <time>2022-04-05T13:32:03Z</time>
      </trkpt>
      <trkpt lat="44.12505" lon="3.04576">
        <ele>540.6</ele>
        <time>2022-04-05T13:32:04Z</time>
      </trkpt>
      <trkpt lat="44.12504" lon="3.04585">
        <ele>534.8</ele>
        <time>2022-04-05T13:32:41Z</time>
      </trkpt>
      <trkpt lat="44.12502" lon="3.04588">
        <ele>534.8</ele>
        <time>2022-04-05T13:32:42Z</time>
      </trkpt>
      <trkpt lat="44.12501" lon="3.04592">
        <ele>534.6</ele>
        <time>2022-04-05T13:32:43Z</time>
      </trkpt>
      <trkpt lat="44.125" lon="3.04597">
        <ele>534.2</ele>
        <time>2022-04-05T13:32:44Z</time>
      </trkpt>
      <trkpt lat="44.12498" lon="3.04602">
        <ele>533.4</ele>
        <time>2022-04-05T13:32:45Z</time>
      </trkpt>
      <trkpt lat="44.12496" lon="3.04607">
        <ele>532.6</ele>
        <time>2022-04-05T13:32:46Z</time>
      </trkpt>
      <trkpt lat="44.12492" lon="3.04612">
        <ele>531.2</ele>
        <time>2022-04-05T13:32:47Z</time>
      </trkpt>
      <trkpt lat="44.12489" lon="3.04616">
        <ele>530.8</ele>
        <time>2022-04-05T13:32:48Z</time>
      </trkpt>
      <trkpt lat="44.12485" lon="3.04618">
        <ele>529.2</ele>
        <time>2022-04-05T13:32:49Z</time>
      </trkpt>
      <trkpt lat="44.1248" lon="3.04623">
        <ele>528.6</ele>
        <time>2022-04-05T13:32:50Z</time>
      </trkpt>
      <trkpt lat="44.12475" lon="3.04627">
        <ele>527.2</ele>
        <time>2022-04-05T13:32:51Z</time>
      </trkpt>
      <trkpt lat="44.12471" lon="3.04631">
        <ele>526.4</ele>
        <time>2022-04-05T13:32:52Z</time>
      </trkpt>
      <trkpt lat="44.12467" lon="3.04635">
        <ele>525</ele>
        <time>2022-04-05T13:32:53Z</time>
      </trkpt>
      <trkpt lat="44.12462" lon="3.04639">
        <ele>523.8</ele>
        <time>2022-04-05T13:32:54Z</time>
      </trkpt>
      <trkpt lat="44.12457" lon="3.04645">
        <ele>523.4</ele>
        <time>2022-04-05T13:32:55Z</time>
      </trkpt>
      <trkpt lat="44.12451" lon="3.04651">
        <ele>522.8</ele>
        <time>2022-04-05T13:32:56Z</time>
      </trkpt>
      <trkpt lat="44.12445" lon="3.04658">
        <ele>522.4</ele>
        <time>2022-04-05T13:32:57Z</time>
      </trkpt>
      <trkpt lat="44.12441" lon="3.04662">
        <ele>521.8</ele>
        <time>2022-04-05T13:32:58Z</time>
      </trkpt>
      <trkpt lat="44.12435" lon="3.04666">
        <ele>521.8</ele>
        <time>2022-04-05T13:32:59Z</time>
      </trkpt>
      <trkpt lat="44.12429" lon="3.0467">
        <ele>521</ele>
        <time>2022-04-05T13:33:00Z</time>
      </trkpt>
      <trkpt lat="44.12424" lon="3.04673">
        <ele>520.6</ele>
        <time>2022-04-05T13:33:01Z</time>
      </trkpt>
      <trkpt lat="44.12421" lon="3.04676">
        <ele>519.8</ele>
        <time>2022-04-05T13:33:02Z</time>
      </trkpt>
      <trkpt lat="44.12418" lon="3.04678">
        <ele>519.2</ele>
        <time>2022-04-05T13:33:03Z</time>
      </trkpt>
      <trkpt lat="44.12415" lon="3.04681">
        <ele>519</ele>
        <time>2022-04-05T13:33:04Z</time>
      </trkpt>
      <trkpt lat="44.12412" lon="3.04685">
        <ele>518.6</ele>
        <time>2022-04-05T13:33:05Z</time>
      </trkpt>
      <trkpt lat="44.12409" lon="3.04689">
        <ele>518.4</ele>
        <time>2022-04-05T13:33:06Z</time>
      </trkpt>
      <trkpt lat="44.12407" lon="3.04692">
        <ele>518.4</ele>
        <time>2022-04-05T13:33:07Z</time>
      </trkpt>
      <trkpt lat="44.12404" lon="3.04696">
        <ele>518.4</ele>
        <time>2022-04-05T13:33:08Z</time>
      </trkpt>
      <trkpt lat="44.124" lon="3.047">
        <ele>518.4</ele>
        <time>2022-04-05T13:33:09Z</time>
      </trkpt>
      <trkpt lat="44.12398" lon="3.04703">
        <ele>518.6</ele>
        <time>2022-04-05T13:33:10Z</time>
      </trkpt>
      <trkpt lat="44.12395" lon="3.04706">
        <ele>518.8</ele>
        <time>2022-04-05T13:33:11Z</time>
      </trkpt>
      <trkpt lat="44.12392" lon="3.04709">
        <ele>519</ele>
        <time>2022-04-05T13:33:12Z</time>
      </trkpt>
      <trkpt lat="44.12389" lon="3.04712">
        <ele>519.2</ele>
        <time>2022-04-05T13:33:13Z</time>
      </trkpt>
      <trkpt lat="44.12386" lon="3.04716">
        <ele>519.2</ele>
        <time>2022-04-05T13:33:14Z</time>
      </trkpt>
      <trkpt lat="44.12384" lon="3.04719">
        <ele>519.4</ele>
        <time>2022-04-05T13:33:15Z</time>
      </trkpt>
      <trkpt lat="44.12381" lon="3.04724">
        <ele>519.8</ele>
        <time>2022-04-05T13:33:16Z</time>
      </trkpt>
      <trkpt lat="44.12378" lon="3.0473">
        <ele>519.8</ele>
        <time>2022-04-05T13:33:17Z</time>
      </trkpt>
      <trkpt lat="44.12373" lon="3.04737">
        <ele>520</ele>
        <time>2022-04-05T13:33:18Z</time>
      </trkpt>
      <trkpt lat="44.12369" lon="3.04746">
        <ele>520</ele>
        <time>2022-04-05T13:33:19Z</time>
      </trkpt>
      <trkpt lat="44.12366" lon="3.04751">
        <ele>520</ele>
        <time>2022-04-05T13:33:20Z</time>
      </trkpt>
      <trkpt lat="44.12362" lon="3.04755">
        <ele>520.2</ele>
        <time>2022-04-05T13:33:21Z</time>
      </trkpt>
      <trkpt lat="44.12358" lon="3.04758">
        <ele>520.2</ele>
        <time>2022-04-05T13:33:22Z</time>
      </trkpt>
      <trkpt lat="44.12354" lon="3.04764">
        <ele>520.2</ele>
        <time>2022-04-05T13:33:23Z</time>
      </trkpt>
      <trkpt lat="44.12348" lon="3.04773">
        <ele>519.6</ele>
        <time>2022-04-05T13:33:24Z</time>
      </trkpt>
      <trkpt lat="44.12343" lon="3.04781">
        <ele>519</ele>
        <time>2022-04-05T13:33:25Z</time>
      </trkpt>
      <trkpt lat="44.12339" lon="3.0479">
        <ele>518.8</ele>
        <time>2022-04-05T13:33:26Z</time>
      </trkpt>
      <trkpt lat="44.12335" lon="3.04798">
        <ele>518.6</ele>
        <time>2022-04-05T13:33:27Z</time>
      </trkpt>
      <trkpt lat="44.1233" lon="3.04811">
        <ele>518.4</ele>
        <time>2022-04-05T13:33:28Z</time>
      </trkpt>
      <trkpt lat="44.12326" lon="3.04823">
        <ele>517.8</ele>
        <time>2022-04-05T13:33:29Z</time>
      </trkpt>
      <trkpt lat="44.12323" lon="3.04831">
        <ele>517.6</ele>
        <time>2022-04-05T13:33:30Z</time>
      </trkpt>
      <trkpt lat="44.12318" lon="3.04839">
        <ele>517.2</ele>
        <time>2022-04-05T13:33:31Z</time>
      </trkpt>
      <trkpt lat="44.12312" lon="3.04846">
        <ele>516.6</ele>
        <time>2022-04-05T13:33:32Z</time>
      </trkpt>
      <trkpt lat="44.12307" lon="3.04853">
        <ele>515.6</ele>
        <time>2022-04-05T13:33:33Z</time>
      </trkpt>
      <trkpt lat="44.12301" lon="3.04861">
        <ele>515.2</ele>
        <time>2022-04-05T13:33:34Z</time>
      </trkpt>
      <trkpt lat="44.12294" lon="3.04869">
        <ele>513.4</ele>
        <time>2022-04-05T13:33:35Z</time>
      </trkpt>
      <trkpt lat="44.12288" lon="3.04875">
        <ele>511.4</ele>
        <time>2022-04-05T13:33:36Z</time>
      </trkpt>
      <trkpt lat="44.12284" lon="3.04879">
        <ele>510.6</ele>
        <time>2022-04-05T13:33:37Z</time>
      </trkpt>
      <trkpt lat="44.1228" lon="3.04885">
        <ele>509.6</ele>
        <time>2022-04-05T13:33:38Z</time>
      </trkpt>
      <trkpt lat="44.12276" lon="3.04892">
        <ele>509.4</ele>
        <time>2022-04-05T13:33:39Z</time>
      </trkpt>
      <trkpt lat="44.12271" lon="3.04901">
        <ele>508</ele>
        <time>2022-04-05T13:33:40Z</time>
      </trkpt>
      <trkpt lat="44.12267" lon="3.04907">
        <ele>507.6</ele>
        <time>2022-04-05T13:33:41Z</time>
      </trkpt>
      <trkpt lat="44.12263" lon="3.04913">
        <ele>507</ele>
        <time>2022-04-05T13:33:42Z</time>
      </trkpt>
      <trkpt lat="44.12258" lon="3.04918">
        <ele>506.6</ele>
        <time>2022-04-05T13:33:43Z</time>
      </trkpt>
      <trkpt lat="44.12253" lon="3.04923">
        <ele>505.8</ele>
        <time>2022-04-05T13:33:44Z</time>
      </trkpt>
      <trkpt lat="44.12247" lon="3.04928">
        <ele>505.6</ele>
        <time>2022-04-05T13:33:45Z</time>
      </trkpt>
      <trkpt lat="44.12243" lon="3.04932">
        <ele>505.2</ele>
        <time>2022-04-05T13:33:46Z</time>
      </trkpt>
      <trkpt lat="44.12238" lon="3.04936">
        <ele>504.8</ele>
        <time>2022-04-05T13:33:47Z</time>
      </trkpt>
      <trkpt lat="44.12234" lon="3.0494">
        <ele>504.8</ele>
        <time>2022-04-05T13:33:48Z</time>
      </trkpt>
      <trkpt lat="44.1223" lon="3.04943">
        <ele>504.6</ele>
        <time>2022-04-05T13:33:49Z</time>
      </trkpt>
      <trkpt lat="44.12227" lon="3.04946">
        <ele>504.2</ele>
        <time>2022-04-05T13:33:50Z</time>
      </trkpt>
      <trkpt lat="44.12224" lon="3.04949">
        <ele>504.2</ele>
        <time>2022-04-05T13:33:51Z</time>
      </trkpt>
      <trkpt lat="44.12221" lon="3.04952">
        <ele>504.2</ele>
        <time>2022-04-05T13:33:52Z</time>
      </trkpt>
      <trkpt lat="44.12217" lon="3.04955">
        <ele>504</ele>
        <time>2022-04-05T13:33:53Z</time>
      </trkpt>
      <trkpt lat="44.12215" lon="3.04958">
        <ele>504</ele>
        <time>2022-04-05T13:33:54Z</time>
      </trkpt>
      <trkpt lat="44.12213" lon="3.04961">
        <ele>504</ele>
        <time>2022-04-05T13:33:55Z</time>
      </trkpt>
      <trkpt lat="44.12211" lon="3.04964">
        <ele>504.2</ele>
        <time>2022-04-05T13:33:56Z</time>
      </trkpt>
      <trkpt lat="44.12209" lon="3.04968">
        <ele>504.2</ele>
        <time>2022-04-05T13:33:57Z</time>
      </trkpt>
      <trkpt lat="44.12206" lon="3.04973">
        <ele>504.4</ele>
        <time>2022-04-05T13:33:58Z</time>
      </trkpt>
      <trkpt lat="44.12203" lon="3.04977">
        <ele>504.4</ele>
        <time>2022-04-05T13:33:59Z</time>
      </trkpt>
      <trkpt lat="44.12201" lon="3.04982">
        <ele>504.4</ele>
        <time>2022-04-05T13:34:00Z</time>
      </trkpt>
      <trkpt lat="44.12198" lon="3.04988">
        <ele>504.4</ele>
        <time>2022-04-05T13:34:01Z</time>
      </trkpt>
      <trkpt lat="44.12195" lon="3.04996">
        <ele>504.6</ele>
        <time>2022-04-05T13:34:02Z</time>
      </trkpt>
      <trkpt lat="44.12191" lon="3.05004">
        <ele>504.6</ele>
        <time>2022-04-05T13:34:03Z</time>
      </trkpt>
      <trkpt lat="44.12187" lon="3.05014">
        <ele>504.6</ele>
        <time>2022-04-05T13:34:04Z</time>
      </trkpt>
      <trkpt lat="44.12185" lon="3.05022">
        <ele>504.6</ele>
        <time>2022-04-05T13:34:05Z</time>
      </trkpt>
      <trkpt lat="44.12183" lon="3.05031">
        <ele>504.6</ele>
        <time>2022-04-05T13:34:06Z</time>
      </trkpt>
      <trkpt lat="44.12182" lon="3.05042">
        <ele>504.2</ele>
        <time>2022-04-05T13:34:07Z</time>
      </trkpt>
      <trkpt lat="44.12181" lon="3.05052">
        <ele>504</ele>
        <time>2022-04-05T13:34:08Z</time>
      </trkpt>
      <trkpt lat="44.1218" lon="3.05061">
        <ele>502</ele>
        <time>2022-04-05T13:34:09Z</time>
      </trkpt>
      <trkpt lat="44.12179" lon="3.0507">
        <ele>501.2</ele>
        <time>2022-04-05T13:34:10Z</time>
      </trkpt>
      <trkpt lat="44.12177" lon="3.05081">
        <ele>499.2</ele>
        <time>2022-04-05T13:34:11Z</time>
      </trkpt>
      <trkpt lat="44.12175" lon="3.05092">
        <ele>498.4</ele>
        <time>2022-04-05T13:34:12Z</time>
      </trkpt>
      <trkpt lat="44.12171" lon="3.05099">
        <ele>497.8</ele>
        <time>2022-04-05T13:34:13Z</time>
      </trkpt>
      <trkpt lat="44.12166" lon="3.05107">
        <ele>497.6</ele>
        <time>2022-04-05T13:34:14Z</time>
      </trkpt>
      <trkpt lat="44.12161" lon="3.05111">
        <ele>495.8</ele>
        <time>2022-04-05T13:34:15Z</time>
      </trkpt>
      <trkpt lat="44.12156" lon="3.05116">
        <ele>495.2</ele>
        <time>2022-04-05T13:34:16Z</time>
      </trkpt>
      <trkpt lat="44.12151" lon="3.05119">
        <ele>492.6</ele>
        <time>2022-04-05T13:34:17Z</time>
      </trkpt>
      <trkpt lat="44.12148" lon="3.05123">
        <ele>490</ele>
        <time>2022-04-05T13:34:18Z</time>
      </trkpt>
      <trkpt lat="44.12146" lon="3.05127">
        <ele>489.2</ele>
        <time>2022-04-05T13:34:19Z</time>
      </trkpt>
      <trkpt lat="44.12146" lon="3.05131">
        <ele>487.8</ele>
        <time>2022-04-05T13:34:20Z</time>
      </trkpt>
      <trkpt lat="44.12142" lon="3.05136">
        <ele>487.2</ele>
        <time>2022-04-05T13:34:21Z</time>
      </trkpt>
      <trkpt lat="44.12137" lon="3.05141">
        <ele>486.6</ele>
        <time>2022-04-05T13:34:22Z</time>
      </trkpt>
      <trkpt lat="44.12133" lon="3.05147">
        <ele>486.2</ele>
        <time>2022-04-05T13:34:23Z</time>
      </trkpt>
      <trkpt lat="44.1213" lon="3.05151">
        <ele>485.8</ele>
        <time>2022-04-05T13:34:24Z</time>
      </trkpt>
      <trkpt lat="44.12125" lon="3.05157">
        <ele>485.8</ele>
        <time>2022-04-05T13:34:25Z</time>
      </trkpt>
      <trkpt lat="44.12119" lon="3.05162">
        <ele>485.4</ele>
        <time>2022-04-05T13:34:26Z</time>
      </trkpt>
      <trkpt lat="44.12113" lon="3.05165">
        <ele>485.4</ele>
        <time>2022-04-05T13:34:27Z</time>
      </trkpt>
      <trkpt lat="44.12105" lon="3.05166">
        <ele>484.8</ele>
        <time>2022-04-05T13:34:28Z</time>
      </trkpt>
      <trkpt lat="44.12098" lon="3.05165">
        <ele>484.4</ele>
        <time>2022-04-05T13:34:29Z</time>
      </trkpt>
      <trkpt lat="44.12093" lon="3.05162">
        <ele>484</ele>
        <time>2022-04-05T13:34:30Z</time>
      </trkpt>
      <trkpt lat="44.12087" lon="3.05158">
        <ele>483.2</ele>
        <time>2022-04-05T13:34:31Z</time>
      </trkpt>
      <trkpt lat="44.12082" lon="3.05155">
        <ele>482.8</ele>
        <time>2022-04-05T13:34:32Z</time>
      </trkpt>
      <trkpt lat="44.12077" lon="3.0515">
        <ele>481.8</ele>
        <time>2022-04-05T13:34:33Z</time>
      </trkpt>
      <trkpt lat="44.12074" lon="3.05147">
        <ele>481.4</ele>
        <time>2022-04-05T13:34:34Z</time>
      </trkpt>
      <trkpt lat="44.12069" lon="3.05145">
        <ele>481.2</ele>
        <time>2022-04-05T13:34:35Z</time>
      </trkpt>
      <trkpt lat="44.12065" lon="3.05142">
        <ele>481</ele>
        <time>2022-04-05T13:34:36Z</time>
      </trkpt>
      <trkpt lat="44.12061" lon="3.05141">
        <ele>480.8</ele>
        <time>2022-04-05T13:34:37Z</time>
      </trkpt>
      <trkpt lat="44.12056" lon="3.0514">
        <ele>480.8</ele>
        <time>2022-04-05T13:34:38Z</time>
      </trkpt>
      <trkpt lat="44.1205" lon="3.0514">
        <ele>480.8</ele>
        <time>2022-04-05T13:34:39Z</time>
      </trkpt>
      <trkpt lat="44.12046" lon="3.05138">
        <ele>480.6</ele>
        <time>2022-04-05T13:34:40Z</time>
      </trkpt>
      <trkpt lat="44.12042" lon="3.05136">
        <ele>480.6</ele>
        <time>2022-04-05T13:34:41Z</time>
      </trkpt>
      <trkpt lat="44.12038" lon="3.05135">
        <ele>480.6</ele>
        <time>2022-04-05T13:34:42Z</time>
      </trkpt>
      <trkpt lat="44.12033" lon="3.05135">
        <ele>480.6</ele>
        <time>2022-04-05T13:34:43Z</time>
      </trkpt>
      <trkpt lat="44.12028" lon="3.05135">
        <ele>480.6</ele>
        <time>2022-04-05T13:34:44Z</time>
      </trkpt>
      <trkpt lat="44.12022" lon="3.05134">
        <ele>480.6</ele>
        <time>2022-04-05T13:34:45Z</time>
      </trkpt>
      <trkpt lat="44.12016" lon="3.05133">
        <ele>480.4</ele>
        <time>2022-04-05T13:34:46Z</time>
      </trkpt>
      <trkpt lat="44.1201" lon="3.05133">
        <ele>480.4</ele>
        <time>2022-04-05T13:34:47Z</time>
      </trkpt>
      <trkpt lat="44.12004" lon="3.05132">
        <ele>480.4</ele>
        <time>2022-04-05T13:34:48Z</time>
      </trkpt>
      <trkpt lat="44.11998" lon="3.05132">
        <ele>480.4</ele>
        <time>2022-04-05T13:34:49Z</time>
      </trkpt>
      <trkpt lat="44.11992" lon="3.05132">
        <ele>479.8</ele>
        <time>2022-04-05T13:34:50Z</time>
      </trkpt>
      <trkpt lat="44.11988" lon="3.05134">
        <ele>479.6</ele>
        <time>2022-04-05T13:34:51Z</time>
      </trkpt>
      <trkpt lat="44.11983" lon="3.05135">
        <ele>479.4</ele>
        <time>2022-04-05T13:34:52Z</time>
      </trkpt>
      <trkpt lat="44.11977" lon="3.05135">
        <ele>479</ele>
        <time>2022-04-05T13:34:53Z</time>
      </trkpt>
      <trkpt lat="44.11974" lon="3.05135">
        <ele>478.8</ele>
        <time>2022-04-05T13:34:54Z</time>
      </trkpt>
      <trkpt lat="44.1197" lon="3.05135">
        <ele>478.6</ele>
        <time>2022-04-05T13:34:55Z</time>
      </trkpt>
      <trkpt lat="44.11966" lon="3.05134">
        <ele>478.2</ele>
        <time>2022-04-05T13:34:56Z</time>
      </trkpt>
      <trkpt lat="44.11963" lon="3.05134">
        <ele>477.8</ele>
        <time>2022-04-05T13:34:57Z</time>
      </trkpt>
      <trkpt lat="44.11961" lon="3.05134">
        <ele>477.6</ele>
        <time>2022-04-05T13:34:58Z</time>
      </trkpt>
      <trkpt lat="44.1196" lon="3.05135">
        <ele>476.6</ele>
        <time>2022-04-05T13:34:59Z</time>
      </trkpt>
      <trkpt lat="44.11957" lon="3.05139">
        <ele>463.4</ele>
      </trkpt>
      <trkpt lat="44.11955" lon="3.05144">
        <ele>463.3</ele>
      </trkpt>
      <trkpt lat="44.11953" lon="3.05148">
        <ele>463.2</ele>
      </trkpt>
      <trkpt lat="44.11952" lon="3.05151">
        <ele>463</ele>
      </trkpt>
      <trkpt lat="44.11947" lon="3.05155">
        <ele>462.7</ele>
      </trkpt>
      <trkpt lat="44.11944" lon="3.05157">
        <ele>462.4</ele>
      </trkpt>
      <trkpt lat="44.1194" lon="3.05161">
        <ele>462.7</ele>
      </trkpt>
      <trkpt lat="44.11938" lon="3.05163">
        <ele>462.9</ele>
      </trkpt>
      <trkpt lat="44.11936" lon="3.05165">
        <ele>463</ele>
      </trkpt>
      <trkpt lat="44.11933" lon="3.05167">
        <ele>463.2</ele>
      </trkpt>
      <trkpt lat="44.1193" lon="3.05169">
        <ele>463.6</ele>
      </trkpt>
      <trkpt lat="44.11927" lon="3.05171">
        <ele>463.8</ele>
      </trkpt>
      <trkpt lat="44.11924" lon="3.05172">
        <ele>464</ele>
      </trkpt>
      <trkpt lat="44.11916" lon="3.05179">
        <ele>464.3</ele>
      </trkpt>
      <trkpt lat="44.1191" lon="3.05184">
        <ele>465.4</ele>
      </trkpt>
      <trkpt lat="44.11903" lon="3.0519">
        <ele>466.1</ele>
      </trkpt>
      <trkpt lat="44.11894" lon="3.05199">
        <ele>466.3</ele>
      </trkpt>
      <trkpt lat="44.11887" lon="3.05207">
        <ele>466.4</ele>
      </trkpt>
      <trkpt lat="44.11882" lon="3.05213">
        <ele>466.8</ele>
      </trkpt>
      <trkpt lat="44.11876" lon="3.05219">
        <ele>467.2</ele>
      </trkpt>
      <trkpt lat="44.11859" lon="3.05243">
        <ele>466.5</ele>
      </trkpt>
      <trkpt lat="44.11852" lon="3.05254">
        <ele>466.8</ele>
      </trkpt>
      <trkpt lat="44.11843" lon="3.05275">
        <ele>465.6</ele>
      </trkpt>
      <trkpt lat="44.11833" lon="3.05294">
        <ele>463.5</ele>
      </trkpt>
      <trkpt lat="44.11827" lon="3.05315">
        <ele>461.6</ele>
      </trkpt>
      <trkpt lat="44.11817" lon="3.05347">
        <ele>457.9</ele>
      </trkpt>
      <trkpt lat="44.11809" lon="3.05367">
        <ele>454.4</ele>
      </trkpt>
      <trkpt lat="44.11803" lon="3.05376">
        <ele>453.5</ele>
      </trkpt>
      <trkpt lat="44.11793" lon="3.05387">
        <ele>453.3</ele>
      </trkpt>
      <trkpt lat="44.11779" lon="3.05403">
        <ele>451.9</ele>
      </trkpt>
      <trkpt lat="44.11769" lon="3.05416">
        <ele>452.2</ele>
      </trkpt>
      <trkpt lat="44.11759" lon="3.05428">
        <ele>452.9</ele>
      </trkpt>
      <trkpt lat="44.1175" lon="3.05446">
        <ele>450.8</ele>
      </trkpt>
      <trkpt lat="44.11743" lon="3.0546">
        <ele>450.7</ele>
      </trkpt>
      <trkpt lat="44.11735" lon="3.0548">
        <ele>449.4</ele>
      </trkpt>
      <trkpt lat="44.11728" lon="3.05499">
        <ele>447.6</ele>
      </trkpt>
      <trkpt lat="44.11724" lon="3.05519">
        <ele>445.2</ele>
      </trkpt>
      <trkpt lat="44.11718" lon="3.05547">
        <ele>443.5</ele>
      </trkpt>
      <trkpt lat="44.11715" lon="3.05573">
        <ele>442.7</ele>
      </trkpt>
      <trkpt lat="44.11712" lon="3.05591">
        <ele>442.1</ele>
      </trkpt>
      <trkpt lat="44.11708" lon="3.05602">
        <ele>441.5</ele>
      </trkpt>
      <trkpt lat="44.11703" lon="3.05609">
        <ele>440.8</ele>
      </trkpt>
      <trkpt lat="44.117" lon="3.0561">
        <ele>440.5</ele>
      </trkpt>
      <trkpt lat="44.11696" lon="3.05614">
        <ele>440</ele>
      </trkpt>
      <trkpt lat="44.11693" lon="3.05618">
        <ele>440</ele>
      </trkpt>
      <trkpt lat="44.11689" lon="3.05622">
        <ele>440.5</ele>
      </trkpt>
      <trkpt lat="44.11688" lon="3.05627">
        <ele>440.6</ele>
      </trkpt>
      <trkpt lat="44.11689" lon="3.05631">
        <ele>440.3</ele>
      </trkpt>
      <trkpt lat="44.11692" lon="3.05635">
        <ele>439.6</ele>
      </trkpt>
      <trkpt lat="44.11696" lon="3.05642">
        <ele>439.3</ele>
      </trkpt>
      <trkpt lat="44.11697" lon="3.0565">
        <ele>439.7</ele>
      </trkpt>
      <trkpt lat="44.11695" lon="3.05662">
        <ele>439.9</ele>
      </trkpt>
      <trkpt lat="44.11691" lon="3.05674">
        <ele>440.5</ele>
      </trkpt>
      <trkpt lat="44.11682" lon="3.05692">
        <ele>440.9</ele>
      </trkpt>
      <trkpt lat="44.11678" lon="3.057">
        <ele>441.1</ele>
      </trkpt>
      <trkpt lat="44.11673" lon="3.05706">
        <ele>441.2</ele>
      </trkpt>
      <trkpt lat="44.11663" lon="3.05718">
        <ele>442.2</ele>
      </trkpt>
      <trkpt lat="44.11658" lon="3.05724">
        <ele>443.2</ele>
      </trkpt>
      <trkpt lat="44.11655" lon="3.05737">
        <ele>442.7</ele>
      </trkpt>
      <trkpt lat="44.11649" lon="3.05746">
        <ele>442.9</ele>
      </trkpt>
      <trkpt lat="44.11644" lon="3.05765">
        <ele>441.4</ele>
      </trkpt>
      <trkpt lat="44.11637" lon="3.05781">
        <ele>441.3</ele>
      </trkpt>
      <trkpt lat="44.11624" lon="3.05807">
        <ele>443.3</ele>
      </trkpt>
      <trkpt lat="44.11615" lon="3.05825">
        <ele>445.5</ele>
      </trkpt>
      <trkpt lat="44.11604" lon="3.05846">
        <ele>448</ele>
      </trkpt>
      <trkpt lat="44.11598" lon="3.05857">
        <ele>449.4</ele>
      </trkpt>
      <trkpt lat="44.11588" lon="3.05871">
        <ele>451.2</ele>
      </trkpt>
      <trkpt lat="44.11583" lon="3.05881">
        <ele>451.6</ele>
      </trkpt>
      <trkpt lat="44.11573" lon="3.05898">
        <ele>453.4</ele>
      </trkpt>
      <trkpt lat="44.11571" lon="3.05903">
        <ele>453.7</ele>
      </trkpt>
      <trkpt lat="44.11567" lon="3.05913">
        <ele>453.8</ele>
      </trkpt>
      <trkpt lat="44.11563" lon="3.05927">
        <ele>454.2</ele>
      </trkpt>
      <trkpt lat="44.11559" lon="3.0594">
        <ele>454.5</ele>
      </trkpt>
      <trkpt lat="44.11556" lon="3.05951">
        <ele>455.4</ele>
      </trkpt>
      <trkpt lat="44.11555" lon="3.05957">
        <ele>455.3</ele>
      </trkpt>
      <trkpt lat="44.11554" lon="3.05962">
        <ele>455.3</ele>
      </trkpt>
      <trkpt lat="44.11553" lon="3.05967">
        <ele>455.6</ele>
      </trkpt>
      <trkpt lat="44.11551" lon="3.05972">
        <ele>456.1</ele>
      </trkpt>
      <trkpt lat="44.1155" lon="3.05977">
        <ele>456.7</ele>
      </trkpt>
      <trkpt lat="44.11548" lon="3.05981">
        <ele>457.5</ele>
      </trkpt>
      <trkpt lat="44.11548" lon="3.0599">
        <ele>457.4</ele>
      </trkpt>
      <trkpt lat="44.11548" lon="3.05999">
        <ele>457.5</ele>
      </trkpt>
      <trkpt lat="44.11547" lon="3.06009">
        <ele>457.6</ele>
      </trkpt>
      <trkpt lat="44.11546" lon="3.06019">
        <ele>457.3</ele>
      </trkpt>
      <trkpt lat="44.11546" lon="3.06025">
        <ele>457.3</ele>
      </trkpt>
      <trkpt lat="44.11545" lon="3.06031">
        <ele>457.1</ele>
      </trkpt>
      <trkpt lat="44.11545" lon="3.06037">
        <ele>456.7</ele>
      </trkpt>
      <trkpt lat="44.11545" lon="3.06041">
        <ele>456.6</ele>
      </trkpt>
      <trkpt lat="44.11544" lon="3.06046">
        <ele>456.5</ele>
      </trkpt>
      <trkpt lat="44.11542" lon="3.06054">
        <ele>456.5</ele>
      </trkpt>
      <trkpt lat="44.11541" lon="3.06063">
        <ele>455.7</ele>
      </trkpt>
      <trkpt lat="44.11538" lon="3.06075">
        <ele>454.8</ele>
      </trkpt>
      <trkpt lat="44.11537" lon="3.06084">
        <ele>454</ele>
      </trkpt>
      <trkpt lat="44.11534" lon="3.06097">
        <ele>453.3</ele>
      </trkpt>
      <trkpt lat="44.1153" lon="3.0611">
        <ele>452.7</ele>
      </trkpt>
      <trkpt lat="44.11527" lon="3.06119">
        <ele>451.5</ele>
      </trkpt>
      <trkpt lat="44.11526" lon="3.06124">
        <ele>450.8</ele>
      </trkpt>
      <trkpt lat="44.11522" lon="3.06134">
        <ele>449.6</ele>
      </trkpt>
      <trkpt lat="44.11519" lon="3.06147">
        <ele>447.6</ele>
      </trkpt>
      <trkpt lat="44.11515" lon="3.06158">
        <ele>445.7</ele>
      </trkpt>
      <trkpt lat="44.11512" lon="3.06171">
        <ele>443.5</ele>
      </trkpt>
      <trkpt lat="44.11509" lon="3.06179">
        <ele>441.9</ele>
      </trkpt>
      <trkpt lat="44.11507" lon="3.06185">
        <ele>440.7</ele>
      </trkpt>
      <trkpt lat="44.11506" lon="3.06189">
        <ele>439.6</ele>
      </trkpt>
      <trkpt lat="44.11503" lon="3.06194">
        <ele>438.7</ele>
      </trkpt>
      <trkpt lat="44.11501" lon="3.06197">
        <ele>438.5</ele>
      </trkpt>
      <trkpt lat="44.11496" lon="3.06202">
        <ele>438.6</ele>
      </trkpt>
      <trkpt lat="44.1149" lon="3.06208">
        <ele>438.6</ele>
      </trkpt>
      <trkpt lat="44.11483" lon="3.06214">
        <ele>438.1</ele>
      </trkpt>
      <trkpt lat="44.11476" lon="3.06218">
        <ele>437.9</ele>
      </trkpt>
      <trkpt lat="44.11469" lon="3.06223">
        <ele>437.7</ele>
      </trkpt>
      <trkpt lat="44.11461" lon="3.06228">
        <ele>439</ele>
      </trkpt>
      <trkpt lat="44.11456" lon="3.0623">
        <ele>439.7</ele>
      </trkpt>
      <trkpt lat="44.11449" lon="3.06233">
        <ele>440.6</ele>
      </trkpt>
      <trkpt lat="44.11441" lon="3.06235">
        <ele>441.2</ele>
      </trkpt>
      <trkpt lat="44.11435" lon="3.06236">
        <ele>441.7</ele>
      </trkpt>
      <trkpt lat="44.11423" lon="3.06239">
        <ele>442.4</ele>
      </trkpt>
      <trkpt lat="44.11415" lon="3.06242">
        <ele>442.5</ele>
      </trkpt>
      <trkpt lat="44.1141" lon="3.06243">
        <ele>442.9</ele>
      </trkpt>
      <trkpt lat="44.11405" lon="3.06246">
        <ele>442.7</ele>
      </trkpt>
      <trkpt lat="44.11403" lon="3.06249">
        <ele>442.2</ele>
      </trkpt>
      <trkpt lat="44.11399" lon="3.06252">
        <ele>442.2</ele>
      </trkpt>
      <trkpt lat="44.11396" lon="3.06255">
        <ele>442.3</ele>
      </trkpt>
      <trkpt lat="44.11386" lon="3.06258">
        <ele>443.1</ele>
      </trkpt>
      <trkpt lat="44.11368" lon="3.06262">
        <ele>444.5</ele>
      </trkpt>
      <trkpt lat="44.11357" lon="3.06265">
        <ele>445.2</ele>
      </trkpt>
      <trkpt lat="44.11338" lon="3.06271">
        <ele>445.4</ele>
      </trkpt>
      <trkpt lat="44.11323" lon="3.06277">
        <ele>444.6</ele>
      </trkpt>
      <trkpt lat="44.11311" lon="3.06282">
        <ele>444.6</ele>
      </trkpt>
      <trkpt lat="44.11297" lon="3.06288">
        <ele>444</ele>
      </trkpt>
      <trkpt lat="44.11257" lon="3.06309">
        <ele>440.1</ele>
      </trkpt>
      <trkpt lat="44.11236" lon="3.06318">
        <ele>440.4</ele>
      </trkpt>
      <trkpt lat="44.11217" lon="3.06324">
        <ele>440.7</ele>
      </trkpt>
      <trkpt lat="44.11203" lon="3.06327">
        <ele>441.4</ele>
      </trkpt>
      <trkpt lat="44.11189" lon="3.06326">
        <ele>442.5</ele>
      </trkpt>
      <trkpt lat="44.11177" lon="3.06324">
        <ele>443.7</ele>
      </trkpt>
      <trkpt lat="44.11167" lon="3.06321">
        <ele>444.7</ele>
      </trkpt>
      <trkpt lat="44.11151" lon="3.06318">
        <ele>445.2</ele>
      </trkpt>
      <trkpt lat="44.11141" lon="3.06316">
        <ele>445.2</ele>
      </trkpt>
      <trkpt lat="44.11132" lon="3.06316">
        <ele>445.4</ele>
      </trkpt>
      <trkpt lat="44.11115" lon="3.06317">
        <ele>445.5</ele>
      </trkpt>
      <trkpt lat="44.11102" lon="3.06319">
        <ele>446.3</ele>
      </trkpt>
      <trkpt lat="44.11096" lon="3.0632">
        <ele>446.8</ele>
      </trkpt>
      <trkpt lat="44.11089" lon="3.06321">
        <ele>447.4</ele>
      </trkpt>
      <trkpt lat="44.11078" lon="3.06325">
        <ele>448.8</ele>
      </trkpt>
      <trkpt lat="44.11072" lon="3.06328">
        <ele>449.9</ele>
      </trkpt>
      <trkpt lat="44.11064" lon="3.06336">
        <ele>450.8</ele>
      </trkpt>
      <trkpt lat="44.11059" lon="3.0634">
        <ele>451.2</ele>
      </trkpt>
      <trkpt lat="44.11055" lon="3.06344">
        <ele>451.5</ele>
      </trkpt>
      <trkpt lat="44.11053" lon="3.06346">
        <ele>451.8</ele>
      </trkpt>
      <trkpt lat="44.11052" lon="3.06345">
        <ele>452.2</ele>
      </trkpt>
      <trkpt lat="44.11051" lon="3.06339">
        <ele>453.2</ele>
      </trkpt>
      <trkpt lat="44.11049" lon="3.06326">
        <ele>455.1</ele>
      </trkpt>
      <trkpt lat="44.11048" lon="3.06318">
        <ele>455.8</ele>
      </trkpt>
      <trkpt lat="44.11048" lon="3.06302">
        <ele>457.2</ele>
      </trkpt>
      <trkpt lat="44.1105" lon="3.06289">
        <ele>458.2</ele>
      </trkpt>
      <trkpt lat="44.11052" lon="3.06272">
        <ele>459.7</ele>
      </trkpt>
      <trkpt lat="44.11053" lon="3.0626">
        <ele>461</ele>
      </trkpt>
      <trkpt lat="44.11055" lon="3.06249">
        <ele>462.4</ele>
      </trkpt>
      <trkpt lat="44.11057" lon="3.06243">
        <ele>462.9</ele>
      </trkpt>
      <trkpt lat="44.11061" lon="3.06233">
        <ele>463.6</ele>
      </trkpt>
      <trkpt lat="44.11064" lon="3.06224">
        <ele>464.4</ele>
      </trkpt>
      <trkpt lat="44.11066" lon="3.06219">
        <ele>464.5</ele>
      </trkpt>
      <trkpt lat="44.11067" lon="3.06214">
        <ele>465.1</ele>
      </trkpt>
      <trkpt lat="44.11066" lon="3.06208">
        <ele>466.2</ele>
      </trkpt>
      <trkpt lat="44.11066" lon="3.06203">
        <ele>467</ele>
      </trkpt>
      <trkpt lat="44.11068" lon="3.06197">
        <ele>467.5</ele>
      </trkpt>
      <trkpt lat="44.11079" lon="3.0617">
        <ele>470</ele>
      </trkpt>
      <trkpt lat="44.11089" lon="3.06147">
        <ele>472.3</ele>
      </trkpt>
      <trkpt lat="44.11105" lon="3.06117">
        <ele>474.3</ele>
      </trkpt>
      <trkpt lat="44.11124" lon="3.06078">
        <ele>476.4</ele>
      </trkpt>
      <trkpt lat="44.11137" lon="3.06051">
        <ele>477.8</ele>
      </trkpt>
      <trkpt lat="44.11153" lon="3.06015">
        <ele>478.9</ele>
      </trkpt>
      <trkpt lat="44.11166" lon="3.05989">
        <ele>479.8</ele>
      </trkpt>
      <trkpt lat="44.11198" lon="3.05919">
        <ele>483.5</ele>
      </trkpt>
      <trkpt lat="44.11204" lon="3.05905">
        <ele>485.7</ele>
      </trkpt>
      <trkpt lat="44.11212" lon="3.05893">
        <ele>487.4</ele>
      </trkpt>
      <trkpt lat="44.11217" lon="3.05882">
        <ele>488.9</ele>
      </trkpt>
      <trkpt lat="44.11223" lon="3.05873">
        <ele>490.3</ele>
      </trkpt>
      <trkpt lat="44.11236" lon="3.05858">
        <ele>494</ele>
      </trkpt>
      <trkpt lat="44.11247" lon="3.0585">
        <ele>496.2</ele>
      </trkpt>
      <trkpt lat="44.11267" lon="3.05831">
        <ele>501.6</ele>
      </trkpt>
      <trkpt lat="44.11267" lon="3.05828">
        <ele>501.9</ele>
      </trkpt>
      <trkpt lat="44.11267" lon="3.05824">
        <ele>502.2</ele>
      </trkpt>
      <trkpt lat="44.11265" lon="3.05818">
        <ele>502.5</ele>
      </trkpt>
      <trkpt lat="44.11262" lon="3.05812">
        <ele>502.8</ele>
      </trkpt>
      <trkpt lat="44.11252" lon="3.05794">
        <ele>503</ele>
      </trkpt>
      <trkpt lat="44.11233" lon="3.0576">
        <ele>504</ele>
      </trkpt>
      <trkpt lat="44.11206" lon="3.05706">
        <ele>504.7</ele>
      </trkpt>
      <trkpt lat="44.11195" lon="3.05686">
        <ele>504.1</ele>
      </trkpt>
      <trkpt lat="44.11193" lon="3.05679">
        <ele>503.9</ele>
      </trkpt>
      <trkpt lat="44.11193" lon="3.05672">
        <ele>503.8</ele>
      </trkpt>
      <trkpt lat="44.11192" lon="3.05663">
        <ele>503.8</ele>
      </trkpt>
      <trkpt lat="44.11193" lon="3.05657">
        <ele>503.8</ele>
      </trkpt>
      <trkpt lat="44.11195" lon="3.05651">
        <ele>504</ele>
      </trkpt>
      <trkpt lat="44.112" lon="3.05641">
        <ele>504.8</ele>
      </trkpt>
      <trkpt lat="44.11208" lon="3.05627">
        <ele>505.7</ele>
      </trkpt>
      <trkpt lat="44.11211" lon="3.05617">
        <ele>506.1</ele>
      </trkpt>
      <trkpt lat="44.11216" lon="3.05602">
        <ele>506.4</ele>
      </trkpt>
      <trkpt lat="44.11222" lon="3.05582">
        <ele>506.8</ele>
      </trkpt>
      <trkpt lat="44.11224" lon="3.0557">
        <ele>506.9</ele>
      </trkpt>
      <trkpt lat="44.11226" lon="3.05557">
        <ele>506.8</ele>
      </trkpt>
      <trkpt lat="44.1123" lon="3.05532">
        <ele>507</ele>
      </trkpt>
      <trkpt lat="44.11234" lon="3.05509">
        <ele>508.3</ele>
      </trkpt>
      <trkpt lat="44.11237" lon="3.05489">
        <ele>510</ele>
      </trkpt>
      <trkpt lat="44.11242" lon="3.05462">
        <ele>512.6</ele>
      </trkpt>
      <trkpt lat="44.11247" lon="3.05441">
        <ele>514.7</ele>
      </trkpt>
      <trkpt lat="44.1125" lon="3.05426">
        <ele>516.4</ele>
      </trkpt>
      <trkpt lat="44.11262" lon="3.05377">
        <ele>519.9</ele>
      </trkpt>
      <trkpt lat="44.11272" lon="3.05347">
        <ele>522.8</ele>
      </trkpt>
      <trkpt lat="44.11275" lon="3.05335">
        <ele>523.6</ele>
      </trkpt>
      <trkpt lat="44.1128" lon="3.05306">
        <ele>526.1</ele>
      </trkpt>
      <trkpt lat="44.11283" lon="3.05282">
        <ele>527.4</ele>
      </trkpt>
      <trkpt lat="44.11285" lon="3.05271">
        <ele>528.3</ele>
      </trkpt>
      <trkpt lat="44.11288" lon="3.05249">
        <ele>530.5</ele>
      </trkpt>
      <trkpt lat="44.1129" lon="3.05233">
        <ele>532</ele>
      </trkpt>
      <trkpt lat="44.11289" lon="3.05224">
        <ele>532.5</ele>
      </trkpt>
      <trkpt lat="44.11289" lon="3.05216">
        <ele>532.8</ele>
      </trkpt>
      <trkpt lat="44.11287" lon="3.05206">
        <ele>533.1</ele>
      </trkpt>
      <trkpt lat="44.11283" lon="3.05183">
        <ele>534.2</ele>
      </trkpt>
      <trkpt lat="44.11281" lon="3.05169">
        <ele>535.1</ele>
      </trkpt>
      <trkpt lat="44.11281" lon="3.05156">
        <ele>536.1</ele>
      </trkpt>
      <trkpt lat="44.11283" lon="3.05141">
        <ele>537.4</ele>
      </trkpt>
      <trkpt lat="44.11288" lon="3.05108">
        <ele>539.1</ele>
      </trkpt>
      <trkpt lat="44.11291" lon="3.05088">
        <ele>539.9</ele>
      </trkpt>
      <trkpt lat="44.11296" lon="3.05067">
        <ele>540.2</ele>
      </trkpt>
      <trkpt lat="44.11301" lon="3.05049">
        <ele>541.1</ele>
      </trkpt>
      <trkpt lat="44.11303" lon="3.05032">
        <ele>541.6</ele>
      </trkpt>
      <trkpt lat="44.11308" lon="3.05006">
        <ele>542.4</ele>
      </trkpt>
      <trkpt lat="44.11313" lon="3.04987">
        <ele>543.4</ele>
      </trkpt>
      <trkpt lat="44.11319" lon="3.04958">
        <ele>544</ele>
      </trkpt>
      <trkpt lat="44.11323" lon="3.04949">
        <ele>544.3</ele>
      </trkpt>
      <trkpt lat="44.1133" lon="3.04933">
        <ele>544.9</ele>
      </trkpt>
      <trkpt lat="44.11334" lon="3.04923">
        <ele>545.3</ele>
      </trkpt>
      <trkpt lat="44.11337" lon="3.04915">
        <ele>545.6</ele>
      </trkpt>
      <trkpt lat="44.11341" lon="3.04899">
        <ele>546.3</ele>
      </trkpt>
      <trkpt lat="44.11345" lon="3.04881">
        <ele>547</ele>
      </trkpt>
      <trkpt lat="44.11346" lon="3.04875">
        <ele>547.2</ele>
      </trkpt>
      <trkpt lat="44.11347" lon="3.04863">
        <ele>547.5</ele>
      </trkpt>
      <trkpt lat="44.1135" lon="3.04848">
        <ele>548.1</ele>
      </trkpt>
      <trkpt lat="44.11354" lon="3.04828">
        <ele>548.4</ele>
      </trkpt>
      <trkpt lat="44.11369" lon="3.0477">
        <ele>550.2</ele>
      </trkpt>
      <trkpt lat="44.11378" lon="3.04723">
        <ele>551.3</ele>
      </trkpt>
      <trkpt lat="44.11386" lon="3.04686">
        <ele>552.2</ele>
      </trkpt>
      <trkpt lat="44.11392" lon="3.04654">
        <ele>553.6</ele>
      </trkpt>
      <trkpt lat="44.11401" lon="3.04621">
        <ele>555.2</ele>
      </trkpt>
      <trkpt lat="44.11411" lon="3.04579">
        <ele>557.6</ele>
      </trkpt>
      <trkpt lat="44.11417" lon="3.0455">
        <ele>559</ele>
      </trkpt>
      <trkpt lat="44.11422" lon="3.04524">
        <ele>559.7</ele>
      </trkpt>
      <trkpt lat="44.11428" lon="3.0449">
        <ele>561.3</ele>
      </trkpt>
      <trkpt lat="44.11431" lon="3.04472">
        <ele>562.1</ele>
      </trkpt>
      <trkpt lat="44.11433" lon="3.04456">
        <ele>563.2</ele>
      </trkpt>
      <trkpt lat="44.11434" lon="3.04445">
        <ele>564.1</ele>
      </trkpt>
      <trkpt lat="44.11435" lon="3.04437">
        <ele>564.7</ele>
      </trkpt>
      <trkpt lat="44.11436" lon="3.04431">
        <ele>565.2</ele>
      </trkpt>
      <trkpt lat="44.11435" lon="3.04423">
        <ele>565.5</ele>
      </trkpt>
      <trkpt lat="44.11433" lon="3.04413">
        <ele>566</ele>
      </trkpt>
      <trkpt lat="44.11429" lon="3.04393">
        <ele>566.6</ele>
      </trkpt>
      <trkpt lat="44.11425" lon="3.04379">
        <ele>567.3</ele>
      </trkpt>
      <trkpt lat="44.11419" lon="3.04354">
        <ele>568.4</ele>
      </trkpt>
      <trkpt lat="44.11413" lon="3.04335">
        <ele>568.9</ele>
      </trkpt>
      <trkpt lat="44.11411" lon="3.04326">
        <ele>569.8</ele>
      </trkpt>
      <trkpt lat="44.11411" lon="3.04318">
        <ele>570.6</ele>
      </trkpt>
      <trkpt lat="44.11411" lon="3.04311">
        <ele>571.4</ele>
      </trkpt>
      <trkpt lat="44.11408" lon="3.04293">
        <ele>573.3</ele>
      </trkpt>
      <trkpt lat="44.11404" lon="3.04275">
        <ele>575.2</ele>
      </trkpt>
      <trkpt lat="44.11399" lon="3.04242">
        <ele>577.5</ele>
      </trkpt>
      <trkpt lat="44.11393" lon="3.04189">
        <ele>581.4</ele>
      </trkpt>
      <trkpt lat="44.11389" lon="3.04139">
        <ele>585</ele>
      </trkpt>
      <trkpt lat="44.11386" lon="3.04111">
        <ele>587</ele>
      </trkpt>
      <trkpt lat="44.11382" lon="3.04081">
        <ele>588.4</ele>
      </trkpt>
      <trkpt lat="44.11383" lon="3.04078">
        <ele>588.6</ele>
      </trkpt>
      <trkpt lat="44.11382" lon="3.04072">
        <ele>589</ele>
      </trkpt>
      <trkpt lat="44.11381" lon="3.04069">
        <ele>589.2</ele>
      </trkpt>
      <trkpt lat="44.1138" lon="3.04065">
        <ele>589.5</ele>
      </trkpt>
      <trkpt lat="44.1138" lon="3.0406">
        <ele>589.8</ele>
      </trkpt>
      <trkpt lat="44.11379" lon="3.04056">
        <ele>590</ele>
      </trkpt>
      <trkpt lat="44.11378" lon="3.04053">
        <ele>590.1</ele>
      </trkpt>
      <trkpt lat="44.11376" lon="3.04051">
        <ele>590.3</ele>
      </trkpt>
      <trkpt lat="44.11374" lon="3.04049">
        <ele>590.4</ele>
      </trkpt>
      <trkpt lat="44.11371" lon="3.04048">
        <ele>590.4</ele>
      </trkpt>
      <trkpt lat="44.1137" lon="3.04047">
        <ele>590.4</ele>
      </trkpt>
      <trkpt lat="44.11367" lon="3.04045">
        <ele>590.5</ele>
      </trkpt>
      <trkpt lat="44.11364" lon="3.04043">
        <ele>590.5</ele>
      </trkpt>
      <trkpt lat="44.11363" lon="3.04042">
        <ele>590.5</ele>
      </trkpt>
      <trkpt lat="44.11361" lon="3.04039">
        <ele>590.6</ele>
      </trkpt>
      <trkpt lat="44.1136" lon="3.04036">
        <ele>590.7</ele>
      </trkpt>
      <trkpt lat="44.11359" lon="3.04034">
        <ele>590.7</ele>
      </trkpt>
      <trkpt lat="44.11358" lon="3.04029">
        <ele>590.8</ele>
      </trkpt>
      <trkpt lat="44.11356" lon="3.04023">
        <ele>591</ele>
      </trkpt>
      <trkpt lat="44.11355" lon="3.0402">
        <ele>591.1</ele>
      </trkpt>
      <trkpt lat="44.11355" lon="3.04018">
        <ele>591.1</ele>
      </trkpt>
      <trkpt lat="44.11354" lon="3.04015">
        <ele>591.2</ele>
      </trkpt>
      <trkpt lat="44.11353" lon="3.04011">
        <ele>591.3</ele>
      </trkpt>
      <trkpt lat="44.1135" lon="3.04008">
        <ele>591.3</ele>
      </trkpt>
      <trkpt lat="44.11348" lon="3.04004">
        <ele>591.4</ele>
      </trkpt>
      <trkpt lat="44.11345" lon="3.04">
        <ele>591.4</ele>
      </trkpt>
      <trkpt lat="44.11343" lon="3.03996">
        <ele>591.4</ele>
      </trkpt>
      <trkpt lat="44.11341" lon="3.03993">
        <ele>591.4</ele>
      </trkpt>
      <trkpt lat="44.1134" lon="3.03988">
        <ele>591.5</ele>
      </trkpt>
      <trkpt lat="44.11339" lon="3.03983">
        <ele>591.5</ele>
      </trkpt>
      <trkpt lat="44.11339" lon="3.03971">
        <ele>591.7</ele>
      </trkpt>
      <trkpt lat="44.11339" lon="3.03957">
        <ele>592.7</ele>
      </trkpt>
      <trkpt lat="44.1134" lon="3.03931">
        <ele>606.4</ele>
        <time>2022-04-05T13:55:22Z</time>
      </trkpt>
      <trkpt lat="44.11341" lon="3.03929">
        <ele>606.6</ele>
        <time>2022-04-05T13:55:23Z</time>
      </trkpt>
      <trkpt lat="44.11341" lon="3.03926">
        <ele>606.8</ele>
        <time>2022-04-05T13:55:24Z</time>
      </trkpt>
      <trkpt lat="44.11341" lon="3.03924">
        <ele>607</ele>
        <time>2022-04-05T13:55:25Z</time>
      </trkpt>
      <trkpt lat="44.11342" lon="3.03921">
        <ele>607</ele>
        <time>2022-04-05T13:55:26Z</time>
      </trkpt>
      <trkpt lat="44.11342" lon="3.03919">
        <ele>607.2</ele>
        <time>2022-04-05T13:55:27Z</time>
      </trkpt>
      <trkpt lat="44.11343" lon="3.03917">
        <ele>607.2</ele>
        <time>2022-04-05T13:55:28Z</time>
      </trkpt>
      <trkpt lat="44.11343" lon="3.03914">
        <ele>607.4</ele>
        <time>2022-04-05T13:55:29Z</time>
      </trkpt>
      <trkpt lat="44.11343" lon="3.03912">
        <ele>607.6</ele>
        <time>2022-04-05T13:55:30Z</time>
      </trkpt>
      <trkpt lat="44.11344" lon="3.03909">
        <ele>607.8</ele>
        <time>2022-04-05T13:55:31Z</time>
      </trkpt>
      <trkpt lat="44.11344" lon="3.03907">
        <ele>608</ele>
        <time>2022-04-05T13:55:32Z</time>
      </trkpt>
      <trkpt lat="44.11345" lon="3.03905">
        <ele>608.4</ele>
        <time>2022-04-05T13:55:33Z</time>
      </trkpt>
      <trkpt lat="44.11345" lon="3.03902">
        <ele>608.6</ele>
        <time>2022-04-05T13:55:34Z</time>
      </trkpt>
      <trkpt lat="44.11346" lon="3.039">
        <ele>608.6</ele>
        <time>2022-04-05T13:55:35Z</time>
      </trkpt>
      <trkpt lat="44.11346" lon="3.03898">
        <ele>608.8</ele>
        <time>2022-04-05T13:55:36Z</time>
      </trkpt>
      <trkpt lat="44.11346" lon="3.03896">
        <ele>609</ele>
        <time>2022-04-05T13:55:37Z</time>
      </trkpt>
      <trkpt lat="44.11347" lon="3.03894">
        <ele>609.4</ele>
        <time>2022-04-05T13:55:38Z</time>
      </trkpt>
      <trkpt lat="44.11347" lon="3.03891">
        <ele>609.4</ele>
        <time>2022-04-05T13:55:39Z</time>
      </trkpt>
      <trkpt lat="44.11348" lon="3.03889">
        <ele>609.6</ele>
        <time>2022-04-05T13:55:40Z</time>
      </trkpt>
      <trkpt lat="44.11348" lon="3.03886">
        <ele>609.8</ele>
        <time>2022-04-05T13:55:41Z</time>
      </trkpt>
      <trkpt lat="44.11348" lon="3.03884">
        <ele>610</ele>
        <time>2022-04-05T13:55:42Z</time>
      </trkpt>
      <trkpt lat="44.11349" lon="3.03882">
        <ele>610</ele>
        <time>2022-04-05T13:55:43Z</time>
      </trkpt>
      <trkpt lat="44.11349" lon="3.03879">
        <ele>610.2</ele>
        <time>2022-04-05T13:55:44Z</time>
      </trkpt>
      <trkpt lat="44.11349" lon="3.03876">
        <ele>610.2</ele>
        <time>2022-04-05T13:55:45Z</time>
      </trkpt>
      <trkpt lat="44.11349" lon="3.03874">
        <ele>610.4</ele>
        <time>2022-04-05T13:55:46Z</time>
      </trkpt>
      <trkpt lat="44.11348" lon="3.03872">
        <ele>610.6</ele>
        <time>2022-04-05T13:55:47Z</time>
      </trkpt>
      <trkpt lat="44.11347" lon="3.0387">
        <ele>610.6</ele>
        <time>2022-04-05T13:55:48Z</time>
      </trkpt>
      <trkpt lat="44.11345" lon="3.03868">
        <ele>610.8</ele>
        <time>2022-04-05T13:55:49Z</time>
      </trkpt>
      <trkpt lat="44.11343" lon="3.03867">
        <ele>610.8</ele>
        <time>2022-04-05T13:55:50Z</time>
      </trkpt>
      <trkpt lat="44.11341" lon="3.03866">
        <ele>610.8</ele>
        <time>2022-04-05T13:55:51Z</time>
      </trkpt>
      <trkpt lat="44.11339" lon="3.03866">
        <ele>610.8</ele>
        <time>2022-04-05T13:55:52Z</time>
      </trkpt>
      <trkpt lat="44.11337" lon="3.03865">
        <ele>610.8</ele>
        <time>2022-04-05T13:55:53Z</time>
      </trkpt>
      <trkpt lat="44.11335" lon="3.03866">
        <ele>610.8</ele>
        <time>2022-04-05T13:55:54Z</time>
      </trkpt>
      <trkpt lat="44.11334" lon="3.03866">
        <ele>610.8</ele>
        <time>2022-04-05T13:55:55Z</time>
      </trkpt>
      <trkpt lat="44.11332" lon="3.03867">
        <ele>610.8</ele>
        <time>2022-04-05T13:55:56Z</time>
      </trkpt>
      <trkpt lat="44.11331" lon="3.03868">
        <ele>610.8</ele>
        <time>2022-04-05T13:55:57Z</time>
      </trkpt>
      <trkpt lat="44.1133" lon="3.03869">
        <ele>610.8</ele>
        <time>2022-04-05T13:55:58Z</time>
      </trkpt>
      <trkpt lat="44.11329" lon="3.0387">
        <ele>610.6</ele>
        <time>2022-04-05T13:55:59Z</time>
      </trkpt>
      <trkpt lat="44.11329" lon="3.0387">
        <ele>610.6</ele>
        <time>2022-04-05T13:56:00Z</time>
      </trkpt>
      <trkpt lat="44.11326" lon="3.03866">
        <ele>610.2</ele>
        <time>2022-04-05T13:57:53Z</time>
      </trkpt>
      <trkpt lat="44.11324" lon="3.03865">
        <ele>610.2</ele>
        <time>2022-04-05T13:57:54Z</time>
      </trkpt>
      <trkpt lat="44.11323" lon="3.03864">
        <ele>610.2</ele>
        <time>2022-04-05T13:57:55Z</time>
      </trkpt>
      <trkpt lat="44.11322" lon="3.03864">
        <ele>610.2</ele>
        <time>2022-04-05T13:57:56Z</time>
      </trkpt>
      <trkpt lat="44.1132" lon="3.03863">
        <ele>610.2</ele>
        <time>2022-04-05T13:57:57Z</time>
      </trkpt>
      <trkpt lat="44.11319" lon="3.03862">
        <ele>610.2</ele>
        <time>2022-04-05T13:57:58Z</time>
      </trkpt>
      <trkpt lat="44.11318" lon="3.0386">
        <ele>610.2</ele>
        <time>2022-04-05T13:57:59Z</time>
      </trkpt>
      <trkpt lat="44.11317" lon="3.03859">
        <ele>610.2</ele>
        <time>2022-04-05T13:58:00Z</time>
      </trkpt>
      <trkpt lat="44.11317" lon="3.03857">
        <ele>610.2</ele>
        <time>2022-04-05T13:58:01Z</time>
      </trkpt>
      <trkpt lat="44.11317" lon="3.03854">
        <ele>610.2</ele>
        <time>2022-04-05T13:58:02Z</time>
      </trkpt>
      <trkpt lat="44.11318" lon="3.03852">
        <ele>610.2</ele>
        <time>2022-04-05T13:58:03Z</time>
      </trkpt>
      <trkpt lat="44.11318" lon="3.03851">
        <ele>610</ele>
        <time>2022-04-05T13:58:04Z</time>
      </trkpt>
      <trkpt lat="44.11319" lon="3.03849">
        <ele>610</ele>
        <time>2022-04-05T13:58:05Z</time>
      </trkpt>
      <trkpt lat="44.1132" lon="3.03848">
        <ele>610</ele>
        <time>2022-04-05T13:58:06Z</time>
      </trkpt>
      <trkpt lat="44.11321" lon="3.03846">
        <ele>610</ele>
        <time>2022-04-05T13:58:07Z</time>
      </trkpt>
      <trkpt lat="44.11321" lon="3.03844">
        <ele>610</ele>
        <time>2022-04-05T13:58:08Z</time>
      </trkpt>
      <trkpt lat="44.11321" lon="3.03842">
        <ele>610</ele>
        <time>2022-04-05T13:58:09Z</time>
      </trkpt>
      <trkpt lat="44.11321" lon="3.03839">
        <ele>610.2</ele>
        <time>2022-04-05T13:58:10Z</time>
      </trkpt>
      <trkpt lat="44.11322" lon="3.03837">
        <ele>610.6</ele>
        <time>2022-04-05T13:58:11Z</time>
      </trkpt>
      <trkpt lat="44.11322" lon="3.03835">
        <ele>610.6</ele>
        <time>2022-04-05T13:58:12Z</time>
      </trkpt>
      <trkpt lat="44.11322" lon="3.03833">
        <ele>611</ele>
        <time>2022-04-05T13:58:13Z</time>
      </trkpt>
      <trkpt lat="44.11323" lon="3.0383">
        <ele>611</ele>
        <time>2022-04-05T13:58:14Z</time>
      </trkpt>
      <trkpt lat="44.11324" lon="3.03828">
        <ele>611.6</ele>
        <time>2022-04-05T13:58:15Z</time>
      </trkpt>
      <trkpt lat="44.11324" lon="3.03826">
        <ele>612</ele>
        <time>2022-04-05T13:58:16Z</time>
      </trkpt>
      <trkpt lat="44.11324" lon="3.03824">
        <ele>612</ele>
        <time>2022-04-05T13:58:17Z</time>
      </trkpt>
      <trkpt lat="44.11325" lon="3.03822">
        <ele>612.2</ele>
        <time>2022-04-05T13:58:18Z</time>
      </trkpt>
      <trkpt lat="44.11326" lon="3.0382">
        <ele>612.4</ele>
        <time>2022-04-05T13:58:19Z</time>
      </trkpt>
      <trkpt lat="44.11326" lon="3.03818">
        <ele>612.6</ele>
        <time>2022-04-05T13:58:20Z</time>
      </trkpt>
      <trkpt lat="44.11326" lon="3.03816">
        <ele>612.8</ele>
        <time>2022-04-05T13:58:21Z</time>
      </trkpt>
      <trkpt lat="44.11327" lon="3.03813">
        <ele>613.2</ele>
        <time>2022-04-05T13:58:22Z</time>
      </trkpt>
      <trkpt lat="44.11327" lon="3.03811">
        <ele>613.2</ele>
        <time>2022-04-05T13:58:23Z</time>
      </trkpt>
      <trkpt lat="44.11328" lon="3.03809">
        <ele>613.6</ele>
        <time>2022-04-05T13:58:24Z</time>
      </trkpt>
      <trkpt lat="44.11328" lon="3.03806">
        <ele>613.6</ele>
        <time>2022-04-05T13:58:25Z</time>
      </trkpt>
      <trkpt lat="44.11329" lon="3.03804">
        <ele>613.8</ele>
        <time>2022-04-05T13:58:26Z</time>
      </trkpt>
      <trkpt lat="44.1133" lon="3.03801">
        <ele>614</ele>
        <time>2022-04-05T13:58:27Z</time>
      </trkpt>
      <trkpt lat="44.1133" lon="3.03799">
        <ele>614</ele>
        <time>2022-04-05T13:58:28Z</time>
      </trkpt>
      <trkpt lat="44.11331" lon="3.03797">
        <ele>614.2</ele>
        <time>2022-04-05T13:58:29Z</time>
      </trkpt>
      <trkpt lat="44.11332" lon="3.03794">
        <ele>614.4</ele>
        <time>2022-04-05T13:58:30Z</time>
      </trkpt>
      <trkpt lat="44.11332" lon="3.03792">
        <ele>614.6</ele>
        <time>2022-04-05T13:58:31Z</time>
      </trkpt>
      <trkpt lat="44.11332" lon="3.0379">
        <ele>614.6</ele>
        <time>2022-04-05T13:58:32Z</time>
      </trkpt>
      <trkpt lat="44.11333" lon="3.03788">
        <ele>614.8</ele>
        <time>2022-04-05T13:58:33Z</time>
      </trkpt>
      <trkpt lat="44.11333" lon="3.03785">
        <ele>614.8</ele>
        <time>2022-04-05T13:58:34Z</time>
      </trkpt>
      <trkpt lat="44.11334" lon="3.03783">
        <ele>615.2</ele>
        <time>2022-04-05T13:58:35Z</time>
      </trkpt>
      <trkpt lat="44.11334" lon="3.0378">
        <ele>615.2</ele>
        <time>2022-04-05T13:58:36Z</time>
      </trkpt>
      <trkpt lat="44.11335" lon="3.03778">
        <ele>615.4</ele>
        <time>2022-04-05T13:58:37Z</time>
      </trkpt>
      <trkpt lat="44.11336" lon="3.03776">
        <ele>615.4</ele>
        <time>2022-04-05T13:58:38Z</time>
      </trkpt>
      <trkpt lat="44.11336" lon="3.03774">
        <ele>615.4</ele>
        <time>2022-04-05T13:58:39Z</time>
      </trkpt>
      <trkpt lat="44.11337" lon="3.03772">
        <ele>615.8</ele>
        <time>2022-04-05T13:58:40Z</time>
      </trkpt>
      <trkpt lat="44.11337" lon="3.0377">
        <ele>615.8</ele>
        <time>2022-04-05T13:58:41Z</time>
      </trkpt>
      <trkpt lat="44.11338" lon="3.03768">
        <ele>616.4</ele>
        <time>2022-04-05T13:58:42Z</time>
      </trkpt>
      <trkpt lat="44.11339" lon="3.03766">
        <ele>616.6</ele>
        <time>2022-04-05T13:58:43Z</time>
      </trkpt>
      <trkpt lat="44.11339" lon="3.03763">
        <ele>616.8</ele>
        <time>2022-04-05T13:58:44Z</time>
      </trkpt>
      <trkpt lat="44.1134" lon="3.03761">
        <ele>617</ele>
        <time>2022-04-05T13:58:45Z</time>
      </trkpt>
      <trkpt lat="44.11341" lon="3.03759">
        <ele>617.2</ele>
        <time>2022-04-05T13:58:46Z</time>
      </trkpt>
      <trkpt lat="44.11341" lon="3.03756">
        <ele>617.4</ele>
        <time>2022-04-05T13:58:47Z</time>
      </trkpt>
      <trkpt lat="44.11342" lon="3.03754">
        <ele>617.6</ele>
        <time>2022-04-05T13:58:48Z</time>
      </trkpt>
      <trkpt lat="44.11343" lon="3.03752">
        <ele>618</ele>
        <time>2022-04-05T13:58:49Z</time>
      </trkpt>
      <trkpt lat="44.11343" lon="3.0375">
        <ele>618.2</ele>
        <time>2022-04-05T13:58:50Z</time>
      </trkpt>
      <trkpt lat="44.11344" lon="3.03747">
        <ele>618.2</ele>
        <time>2022-04-05T13:58:51Z</time>
      </trkpt>
      <trkpt lat="44.11345" lon="3.03745">
        <ele>618.2</ele>
        <time>2022-04-05T13:58:52Z</time>
      </trkpt>
      <trkpt lat="44.11345" lon="3.03743">
        <ele>618.6</ele>
        <time>2022-04-05T13:58:53Z</time>
      </trkpt>
      <trkpt lat="44.11346" lon="3.03741">
        <ele>618.8</ele>
        <time>2022-04-05T13:58:54Z</time>
      </trkpt>
      <trkpt lat="44.11347" lon="3.03739">
        <ele>619</ele>
        <time>2022-04-05T13:58:55Z</time>
      </trkpt>
      <trkpt lat="44.11348" lon="3.03737">
        <ele>619</ele>
        <time>2022-04-05T13:58:56Z</time>
      </trkpt>
      <trkpt lat="44.11349" lon="3.03734">
        <ele>619</ele>
        <time>2022-04-05T13:58:57Z</time>
      </trkpt>
      <trkpt lat="44.11349" lon="3.03732">
        <ele>619.6</ele>
        <time>2022-04-05T13:58:58Z</time>
      </trkpt>
      <trkpt lat="44.1135" lon="3.0373">
        <ele>619.6</ele>
        <time>2022-04-05T13:58:59Z</time>
      </trkpt>
      <trkpt lat="44.11351" lon="3.03728">
        <ele>619.6</ele>
        <time>2022-04-05T13:59:00Z</time>
      </trkpt>
      <trkpt lat="44.11352" lon="3.03726">
        <ele>619.6</ele>
        <time>2022-04-05T13:59:01Z</time>
      </trkpt>
      <trkpt lat="44.11352" lon="3.03723">
        <ele>620</ele>
        <time>2022-04-05T13:59:02Z</time>
      </trkpt>
      <trkpt lat="44.11353" lon="3.03721">
        <ele>620.2</ele>
        <time>2022-04-05T13:59:03Z</time>
      </trkpt>
      <trkpt lat="44.11353" lon="3.03719">
        <ele>620.4</ele>
        <time>2022-04-05T13:59:04Z</time>
      </trkpt>
      <trkpt lat="44.11354" lon="3.03717">
        <ele>620.6</ele>
        <time>2022-04-05T13:59:05Z</time>
      </trkpt>
      <trkpt lat="44.11354" lon="3.03716">
        <ele>621</ele>
        <time>2022-04-05T13:59:06Z</time>
      </trkpt>
      <trkpt lat="44.11355" lon="3.03714">
        <ele>621.2</ele>
        <time>2022-04-05T13:59:07Z</time>
      </trkpt>
      <trkpt lat="44.11355" lon="3.03712">
        <ele>621.2</ele>
        <time>2022-04-05T13:59:08Z</time>
      </trkpt>
      <trkpt lat="44.11356" lon="3.0371">
        <ele>621.4</ele>
        <time>2022-04-05T13:59:09Z</time>
      </trkpt>
      <trkpt lat="44.11357" lon="3.03709">
        <ele>621.4</ele>
        <time>2022-04-05T13:59:10Z</time>
      </trkpt>
      <trkpt lat="44.11357" lon="3.03707">
        <ele>621.6</ele>
        <time>2022-04-05T13:59:11Z</time>
      </trkpt>
      <trkpt lat="44.11358" lon="3.03705">
        <ele>621.6</ele>
        <time>2022-04-05T13:59:12Z</time>
      </trkpt>
      <trkpt lat="44.11359" lon="3.03703">
        <ele>621.8</ele>
        <time>2022-04-05T13:59:13Z</time>
      </trkpt>
      <trkpt lat="44.1136" lon="3.03701">
        <ele>622</ele>
        <time>2022-04-05T13:59:14Z</time>
      </trkpt>
      <trkpt lat="44.11361" lon="3.037">
        <ele>622</ele>
        <time>2022-04-05T13:59:15Z</time>
      </trkpt>
      <trkpt lat="44.11362" lon="3.03698">
        <ele>622.4</ele>
        <time>2022-04-05T13:59:16Z</time>
      </trkpt>
      <trkpt lat="44.11362" lon="3.03696">
        <ele>622.4</ele>
        <time>2022-04-05T13:59:17Z</time>
      </trkpt>
      <trkpt lat="44.11363" lon="3.03694">
        <ele>622.8</ele>
        <time>2022-04-05T13:59:18Z</time>
      </trkpt>
      <trkpt lat="44.11364" lon="3.03692">
        <ele>622.8</ele>
        <time>2022-04-05T13:59:19Z</time>
      </trkpt>
      <trkpt lat="44.11365" lon="3.03691">
        <ele>623.2</ele>
        <time>2022-04-05T13:59:20Z</time>
      </trkpt>
      <trkpt lat="44.11366" lon="3.03689">
        <ele>623.2</ele>
        <time>2022-04-05T13:59:21Z</time>
      </trkpt>
      <trkpt lat="44.11367" lon="3.03687">
        <ele>623.6</ele>
        <time>2022-04-05T13:59:22Z</time>
      </trkpt>
      <trkpt lat="44.11368" lon="3.03685">
        <ele>623.8</ele>
        <time>2022-04-05T13:59:23Z</time>
      </trkpt>
      <trkpt lat="44.11369" lon="3.03684">
        <ele>624.6</ele>
        <time>2022-04-05T13:59:24Z</time>
      </trkpt>
      <trkpt lat="44.11369" lon="3.03682">
        <ele>624.8</ele>
        <time>2022-04-05T13:59:25Z</time>
      </trkpt>
      <trkpt lat="44.1137" lon="3.0368">
        <ele>625</ele>
        <time>2022-04-05T13:59:26Z</time>
      </trkpt>
      <trkpt lat="44.11371" lon="3.03678">
        <ele>625.2</ele>
        <time>2022-04-05T13:59:27Z</time>
      </trkpt>
      <trkpt lat="44.11371" lon="3.03676">
        <ele>625.4</ele>
        <time>2022-04-05T13:59:28Z</time>
      </trkpt>
      <trkpt lat="44.11372" lon="3.03674">
        <ele>625.6</ele>
        <time>2022-04-05T13:59:29Z</time>
      </trkpt>
      <trkpt lat="44.11373" lon="3.03672">
        <ele>625.6</ele>
        <time>2022-04-05T13:59:30Z</time>
      </trkpt>
      <trkpt lat="44.11374" lon="3.0367">
        <ele>625.8</ele>
        <time>2022-04-05T13:59:31Z</time>
      </trkpt>
      <trkpt lat="44.11374" lon="3.03668">
        <ele>625.8</ele>
        <time>2022-04-05T13:59:32Z</time>
      </trkpt>
      <trkpt lat="44.11375" lon="3.03666">
        <ele>626.2</ele>
        <time>2022-04-05T13:59:33Z</time>
      </trkpt>
      <trkpt lat="44.11376" lon="3.03663">
        <ele>626.4</ele>
        <time>2022-04-05T13:59:34Z</time>
      </trkpt>
      <trkpt lat="44.11376" lon="3.03661">
        <ele>626.6</ele>
        <time>2022-04-05T13:59:35Z</time>
      </trkpt>
      <trkpt lat="44.11377" lon="3.03659">
        <ele>626.8</ele>
        <time>2022-04-05T13:59:36Z</time>
      </trkpt>
      <trkpt lat="44.11377" lon="3.03657">
        <ele>627</ele>
        <time>2022-04-05T13:59:37Z</time>
      </trkpt>
      <trkpt lat="44.11378" lon="3.03655">
        <ele>627.2</ele>
        <time>2022-04-05T13:59:38Z</time>
      </trkpt>
      <trkpt lat="44.11378" lon="3.03652">
        <ele>627.2</ele>
        <time>2022-04-05T13:59:39Z</time>
      </trkpt>
      <trkpt lat="44.11379" lon="3.0365">
        <ele>627.4</ele>
        <time>2022-04-05T13:59:40Z</time>
      </trkpt>
      <trkpt lat="44.1138" lon="3.03648">
        <ele>627.6</ele>
        <time>2022-04-05T13:59:41Z</time>
      </trkpt>
      <trkpt lat="44.11381" lon="3.03646">
        <ele>627.8</ele>
        <time>2022-04-05T13:59:42Z</time>
      </trkpt>
      <trkpt lat="44.11382" lon="3.03644">
        <ele>627.8</ele>
        <time>2022-04-05T13:59:43Z</time>
      </trkpt>
      <trkpt lat="44.11382" lon="3.03642">
        <ele>628.4</ele>
        <time>2022-04-05T13:59:44Z</time>
      </trkpt>
      <trkpt lat="44.11383" lon="3.0364">
        <ele>628.6</ele>
        <time>2022-04-05T13:59:45Z</time>
      </trkpt>
      <trkpt lat="44.11384" lon="3.03638">
        <ele>628.8</ele>
        <time>2022-04-05T13:59:46Z</time>
      </trkpt>
      <trkpt lat="44.11385" lon="3.03636">
        <ele>628.8</ele>
        <time>2022-04-05T13:59:47Z</time>
      </trkpt>
      <trkpt lat="44.11386" lon="3.03634">
        <ele>628.8</ele>
        <time>2022-04-05T13:59:48Z</time>
      </trkpt>
      <trkpt lat="44.11386" lon="3.03632">
        <ele>629</ele>
        <time>2022-04-05T13:59:49Z</time>
      </trkpt>
      <trkpt lat="44.11387" lon="3.03631">
        <ele>629.2</ele>
        <time>2022-04-05T13:59:50Z</time>
      </trkpt>
      <trkpt lat="44.11388" lon="3.03629">
        <ele>629.2</ele>
        <time>2022-04-05T13:59:51Z</time>
      </trkpt>
      <trkpt lat="44.11389" lon="3.03627">
        <ele>629.4</ele>
        <time>2022-04-05T13:59:52Z</time>
      </trkpt>
      <trkpt lat="44.11389" lon="3.03625">
        <ele>629.6</ele>
        <time>2022-04-05T13:59:53Z</time>
      </trkpt>
      <trkpt lat="44.1139" lon="3.03624">
        <ele>629.6</ele>
        <time>2022-04-05T13:59:54Z</time>
      </trkpt>
      <trkpt lat="44.11391" lon="3.03623">
        <ele>629.8</ele>
        <time>2022-04-05T13:59:55Z</time>
      </trkpt>
      <trkpt lat="44.11391" lon="3.03621">
        <ele>629.8</ele>
        <time>2022-04-05T13:59:56Z</time>
      </trkpt>
      <trkpt lat="44.11392" lon="3.03619">
        <ele>630.2</ele>
        <time>2022-04-05T13:59:57Z</time>
      </trkpt>
      <trkpt lat="44.11393" lon="3.03618">
        <ele>630.4</ele>
        <time>2022-04-05T13:59:58Z</time>
      </trkpt>
      <trkpt lat="44.11394" lon="3.03616">
        <ele>630.6</ele>
        <time>2022-04-05T13:59:59Z</time>
      </trkpt>
      <trkpt lat="44.11394" lon="3.03615">
        <ele>630.8</ele>
        <time>2022-04-05T14:00:00Z</time>
      </trkpt>
      <trkpt lat="44.11395" lon="3.03613">
        <ele>630.8</ele>
        <time>2022-04-05T14:00:01Z</time>
      </trkpt>
      <trkpt lat="44.11396" lon="3.03611">
        <ele>631</ele>
        <time>2022-04-05T14:00:02Z</time>
      </trkpt>
      <trkpt lat="44.11397" lon="3.0361">
        <ele>631</ele>
        <time>2022-04-05T14:00:03Z</time>
      </trkpt>
      <trkpt lat="44.11398" lon="3.03608">
        <ele>631.2</ele>
        <time>2022-04-05T14:00:04Z</time>
      </trkpt>
      <trkpt lat="44.11399" lon="3.03606">
        <ele>631.4</ele>
        <time>2022-04-05T14:00:05Z</time>
      </trkpt>
      <trkpt lat="44.11401" lon="3.03604">
        <ele>631.4</ele>
        <time>2022-04-05T14:00:06Z</time>
      </trkpt>
      <trkpt lat="44.11402" lon="3.03603">
        <ele>631.6</ele>
        <time>2022-04-05T14:00:07Z</time>
      </trkpt>
      <trkpt lat="44.11403" lon="3.03601">
        <ele>631.8</ele>
        <time>2022-04-05T14:00:08Z</time>
      </trkpt>
      <trkpt lat="44.11404" lon="3.03599">
        <ele>632</ele>
        <time>2022-04-05T14:00:09Z</time>
      </trkpt>
      <trkpt lat="44.11405" lon="3.03597">
        <ele>632.2</ele>
        <time>2022-04-05T14:00:10Z</time>
      </trkpt>
      <trkpt lat="44.11406" lon="3.03596">
        <ele>632.6</ele>
        <time>2022-04-05T14:00:11Z</time>
      </trkpt>
      <trkpt lat="44.11407" lon="3.03594">
        <ele>633</ele>
        <time>2022-04-05T14:00:12Z</time>
      </trkpt>
      <trkpt lat="44.11408" lon="3.03593">
        <ele>633.2</ele>
        <time>2022-04-05T14:00:13Z</time>
      </trkpt>
      <trkpt lat="44.11409" lon="3.03591">
        <ele>633.4</ele>
        <time>2022-04-05T14:00:14Z</time>
      </trkpt>
      <trkpt lat="44.1141" lon="3.0359">
        <ele>633.6</ele>
        <time>2022-04-05T14:00:15Z</time>
      </trkpt>
      <trkpt lat="44.11412" lon="3.03589">
        <ele>634</ele>
        <time>2022-04-05T14:00:16Z</time>
      </trkpt>
      <trkpt lat="44.11413" lon="3.03587">
        <ele>634.2</ele>
        <time>2022-04-05T14:00:17Z</time>
      </trkpt>
      <trkpt lat="44.11414" lon="3.03585">
        <ele>634.4</ele>
        <time>2022-04-05T14:00:18Z</time>
      </trkpt>
      <trkpt lat="44.11415" lon="3.03584">
        <ele>634.4</ele>
        <time>2022-04-05T14:00:19Z</time>
      </trkpt>
      <trkpt lat="44.11417" lon="3.03582">
        <ele>634.8</ele>
        <time>2022-04-05T14:00:20Z</time>
      </trkpt>
      <trkpt lat="44.11418" lon="3.0358">
        <ele>635</ele>
        <time>2022-04-05T14:00:21Z</time>
      </trkpt>
      <trkpt lat="44.11419" lon="3.03579">
        <ele>635.4</ele>
        <time>2022-04-05T14:00:22Z</time>
      </trkpt>
      <trkpt lat="44.11421" lon="3.03578">
        <ele>635.6</ele>
        <time>2022-04-05T14:00:23Z</time>
      </trkpt>
      <trkpt lat="44.11422" lon="3.03576">
        <ele>635.8</ele>
        <time>2022-04-05T14:00:24Z</time>
      </trkpt>
      <trkpt lat="44.11424" lon="3.03575">
        <ele>635.8</ele>
        <time>2022-04-05T14:00:25Z</time>
      </trkpt>
      <trkpt lat="44.11425" lon="3.03574">
        <ele>636</ele>
        <time>2022-04-05T14:00:26Z</time>
      </trkpt>
      <trkpt lat="44.11427" lon="3.03572">
        <ele>636.2</ele>
        <time>2022-04-05T14:00:27Z</time>
      </trkpt>
      <trkpt lat="44.11428" lon="3.03572">
        <ele>636.2</ele>
        <time>2022-04-05T14:00:28Z</time>
      </trkpt>
      <trkpt lat="44.1143" lon="3.03571">
        <ele>636.4</ele>
        <time>2022-04-05T14:00:29Z</time>
      </trkpt>
      <trkpt lat="44.11432" lon="3.0357">
        <ele>636.6</ele>
        <time>2022-04-05T14:00:30Z</time>
      </trkpt>
      <trkpt lat="44.11433" lon="3.03569">
        <ele>636.8</ele>
        <time>2022-04-05T14:00:31Z</time>
      </trkpt>
      <trkpt lat="44.11435" lon="3.03568">
        <ele>636.8</ele>
        <time>2022-04-05T14:00:32Z</time>
      </trkpt>
      <trkpt lat="44.11436" lon="3.03567">
        <ele>637</ele>
        <time>2022-04-05T14:00:33Z</time>
      </trkpt>
      <trkpt lat="44.11438" lon="3.03566">
        <ele>637</ele>
        <time>2022-04-05T14:00:34Z</time>
      </trkpt>
      <trkpt lat="44.11439" lon="3.03565">
        <ele>637</ele>
        <time>2022-04-05T14:00:35Z</time>
      </trkpt>
      <trkpt lat="44.11441" lon="3.03564">
        <ele>637</ele>
        <time>2022-04-05T14:00:36Z</time>
      </trkpt>
      <trkpt lat="44.11443" lon="3.03563">
        <ele>637.2</ele>
        <time>2022-04-05T14:00:37Z</time>
      </trkpt>
      <trkpt lat="44.11444" lon="3.03561">
        <ele>637.4</ele>
        <time>2022-04-05T14:00:38Z</time>
      </trkpt>
      <trkpt lat="44.11445" lon="3.03559">
        <ele>637.6</ele>
        <time>2022-04-05T14:00:39Z</time>
      </trkpt>
      <trkpt lat="44.11447" lon="3.03558">
        <ele>637.8</ele>
        <time>2022-04-05T14:00:40Z</time>
      </trkpt>
      <trkpt lat="44.11448" lon="3.03556">
        <ele>638</ele>
        <time>2022-04-05T14:00:41Z</time>
      </trkpt>
      <trkpt lat="44.11449" lon="3.03555">
        <ele>638.2</ele>
        <time>2022-04-05T14:00:42Z</time>
      </trkpt>
      <trkpt lat="44.11451" lon="3.03554">
        <ele>638.4</ele>
        <time>2022-04-05T14:00:43Z</time>
      </trkpt>
      <trkpt lat="44.11452" lon="3.03552">
        <ele>638.8</ele>
        <time>2022-04-05T14:00:44Z</time>
      </trkpt>
      <trkpt lat="44.11454" lon="3.03551">
        <ele>639</ele>
        <time>2022-04-05T14:00:45Z</time>
      </trkpt>
      <trkpt lat="44.11455" lon="3.0355">
        <ele>639.2</ele>
        <time>2022-04-05T14:00:46Z</time>
      </trkpt>
      <trkpt lat="44.11457" lon="3.03548">
        <ele>639.6</ele>
        <time>2022-04-05T14:00:47Z</time>
      </trkpt>
      <trkpt lat="44.11458" lon="3.03547">
        <ele>639.6</ele>
        <time>2022-04-05T14:00:48Z</time>
      </trkpt>
      <trkpt lat="44.11459" lon="3.03546">
        <ele>639.8</ele>
        <time>2022-04-05T14:00:49Z</time>
      </trkpt>
      <trkpt lat="44.11461" lon="3.03544">
        <ele>640</ele>
        <time>2022-04-05T14:00:50Z</time>
      </trkpt>
      <trkpt lat="44.11462" lon="3.03543">
        <ele>640.2</ele>
        <time>2022-04-05T14:00:51Z</time>
      </trkpt>
      <trkpt lat="44.11463" lon="3.03541">
        <ele>640.2</ele>
        <time>2022-04-05T14:00:52Z</time>
      </trkpt>
      <trkpt lat="44.11465" lon="3.0354">
        <ele>640.4</ele>
        <time>2022-04-05T14:00:53Z</time>
      </trkpt>
      <trkpt lat="44.11466" lon="3.03538">
        <ele>640.4</ele>
        <time>2022-04-05T14:00:54Z</time>
      </trkpt>
      <trkpt lat="44.11467" lon="3.03537">
        <ele>640.6</ele>
        <time>2022-04-05T14:00:55Z</time>
      </trkpt>
      <trkpt lat="44.11468" lon="3.03536">
        <ele>640.8</ele>
        <time>2022-04-05T14:00:56Z</time>
      </trkpt>
      <trkpt lat="44.11469" lon="3.03535">
        <ele>641</ele>
        <time>2022-04-05T14:00:57Z</time>
      </trkpt>
      <trkpt lat="44.11471" lon="3.03534">
        <ele>641.2</ele>
        <time>2022-04-05T14:00:58Z</time>
      </trkpt>
      <trkpt lat="44.11472" lon="3.03533">
        <ele>641.4</ele>
        <time>2022-04-05T14:00:59Z</time>
      </trkpt>
      <trkpt lat="44.11473" lon="3.03532">
        <ele>641.4</ele>
        <time>2022-04-05T14:01:00Z</time>
      </trkpt>
      <trkpt lat="44.11474" lon="3.0353">
        <ele>641.4</ele>
        <time>2022-04-05T14:01:01Z</time>
      </trkpt>
      <trkpt lat="44.11475" lon="3.03529">
        <ele>641.6</ele>
        <time>2022-04-05T14:01:02Z</time>
      </trkpt>
      <trkpt lat="44.11477" lon="3.03528">
        <ele>641.6</ele>
        <time>2022-04-05T14:01:03Z</time>
      </trkpt>
      <trkpt lat="44.11478" lon="3.03526">
        <ele>641.8</ele>
        <time>2022-04-05T14:01:04Z</time>
      </trkpt>
      <trkpt lat="44.11479" lon="3.03525">
        <ele>641.8</ele>
        <time>2022-04-05T14:01:05Z</time>
      </trkpt>
      <trkpt lat="44.1148" lon="3.03524">
        <ele>642</ele>
        <time>2022-04-05T14:01:06Z</time>
      </trkpt>
      <trkpt lat="44.11481" lon="3.03523">
        <ele>642.2</ele>
        <time>2022-04-05T14:01:07Z</time>
      </trkpt>
      <trkpt lat="44.11482" lon="3.03522">
        <ele>642.2</ele>
        <time>2022-04-05T14:01:08Z</time>
      </trkpt>
      <trkpt lat="44.11482" lon="3.03522">
        <ele>642.4</ele>
        <time>2022-04-05T14:01:09Z</time>
      </trkpt>
      <trkpt lat="44.11482" lon="3.03522">
        <ele>642.4</ele>
        <time>2022-04-05T14:01:10Z</time>
      </trkpt>
      <trkpt lat="44.11482" lon="3.03522">
        <ele>642.6</ele>
        <time>2022-04-05T14:01:11Z</time>
      </trkpt>
      <trkpt lat="44.11483" lon="3.03523">
        <ele>642.8</ele>
        <time>2022-04-05T14:01:12Z</time>
      </trkpt>
      <trkpt lat="44.11484" lon="3.03523">
        <ele>642.8</ele>
        <time>2022-04-05T14:01:13Z</time>
      </trkpt>
      <trkpt lat="44.11487" lon="3.03517">
        <ele>642.6</ele>
        <time>2022-04-05T14:01:30Z</time>
      </trkpt>
      <trkpt lat="44.11488" lon="3.03516">
        <ele>642.6</ele>
        <time>2022-04-05T14:01:31Z</time>
      </trkpt>
      <trkpt lat="44.11489" lon="3.03514">
        <ele>642.8</ele>
        <time>2022-04-05T14:01:32Z</time>
      </trkpt>
      <trkpt lat="44.1149" lon="3.03512">
        <ele>643</ele>
        <time>2022-04-05T14:01:33Z</time>
      </trkpt>
      <trkpt lat="44.11491" lon="3.03511">
        <ele>643.2</ele>
        <time>2022-04-05T14:01:34Z</time>
      </trkpt>
      <trkpt lat="44.11493" lon="3.03509">
        <ele>643.2</ele>
        <time>2022-04-05T14:01:35Z</time>
      </trkpt>
      <trkpt lat="44.11494" lon="3.03507">
        <ele>643.4</ele>
        <time>2022-04-05T14:01:36Z</time>
      </trkpt>
      <trkpt lat="44.11495" lon="3.03505">
        <ele>643.6</ele>
        <time>2022-04-05T14:01:37Z</time>
      </trkpt>
      <trkpt lat="44.11496" lon="3.03503">
        <ele>643.8</ele>
        <time>2022-04-05T14:01:38Z</time>
      </trkpt>
      <trkpt lat="44.11497" lon="3.03502">
        <ele>643.8</ele>
        <time>2022-04-05T14:01:39Z</time>
      </trkpt>
      <trkpt lat="44.11498" lon="3.035">
        <ele>644</ele>
        <time>2022-04-05T14:01:40Z</time>
      </trkpt>
      <trkpt lat="44.115" lon="3.03498">
        <ele>644</ele>
        <time>2022-04-05T14:01:41Z</time>
      </trkpt>
      <trkpt lat="44.11501" lon="3.03496">
        <ele>644.2</ele>
        <time>2022-04-05T14:01:42Z</time>
      </trkpt>
      <trkpt lat="44.11502" lon="3.03495">
        <ele>644.4</ele>
        <time>2022-04-05T14:01:43Z</time>
      </trkpt>
      <trkpt lat="44.11504" lon="3.03493">
        <ele>644.4</ele>
        <time>2022-04-05T14:01:44Z</time>
      </trkpt>
      <trkpt lat="44.11505" lon="3.03492">
        <ele>644.6</ele>
        <time>2022-04-05T14:01:45Z</time>
      </trkpt>
      <trkpt lat="44.11506" lon="3.0349">
        <ele>644.8</ele>
        <time>2022-04-05T14:01:46Z</time>
      </trkpt>
      <trkpt lat="44.11507" lon="3.03488">
        <ele>645.2</ele>
        <time>2022-04-05T14:01:47Z</time>
      </trkpt>
      <trkpt lat="44.11508" lon="3.03487">
        <ele>645.2</ele>
        <time>2022-04-05T14:01:48Z</time>
      </trkpt>
      <trkpt lat="44.11509" lon="3.03485">
        <ele>645.4</ele>
        <time>2022-04-05T14:01:49Z</time>
      </trkpt>
      <trkpt lat="44.1151" lon="3.03484">
        <ele>645.6</ele>
        <time>2022-04-05T14:01:50Z</time>
      </trkpt>
      <trkpt lat="44.11512" lon="3.03482">
        <ele>646</ele>
        <time>2022-04-05T14:01:51Z</time>
      </trkpt>
      <trkpt lat="44.11513" lon="3.0348">
        <ele>646.2</ele>
        <time>2022-04-05T14:01:52Z</time>
      </trkpt>
      <trkpt lat="44.11514" lon="3.03479">
        <ele>646.4</ele>
        <time>2022-04-05T14:01:53Z</time>
      </trkpt>
      <trkpt lat="44.11515" lon="3.03477">
        <ele>646.6</ele>
        <time>2022-04-05T14:01:54Z</time>
      </trkpt>
      <trkpt lat="44.11516" lon="3.03475">
        <ele>647</ele>
        <time>2022-04-05T14:01:55Z</time>
      </trkpt>
      <trkpt lat="44.11517" lon="3.03473">
        <ele>647.4</ele>
        <time>2022-04-05T14:01:56Z</time>
      </trkpt>
      <trkpt lat="44.11518" lon="3.03471">
        <ele>647.6</ele>
        <time>2022-04-05T14:01:57Z</time>
      </trkpt>
      <trkpt lat="44.11519" lon="3.0347">
        <ele>648.2</ele>
        <time>2022-04-05T14:01:58Z</time>
      </trkpt>
      <trkpt lat="44.1152" lon="3.03468">
        <ele>648.6</ele>
        <time>2022-04-05T14:01:59Z</time>
      </trkpt>
      <trkpt lat="44.11521" lon="3.03466">
        <ele>649</ele>
        <time>2022-04-05T14:02:00Z</time>
      </trkpt>
      <trkpt lat="44.11522" lon="3.03464">
        <ele>649.2</ele>
        <time>2022-04-05T14:02:01Z</time>
      </trkpt>
      <trkpt lat="44.11524" lon="3.03462">
        <ele>649.4</ele>
        <time>2022-04-05T14:02:02Z</time>
      </trkpt>
      <trkpt lat="44.11525" lon="3.0346">
        <ele>649.6</ele>
        <time>2022-04-05T14:02:03Z</time>
      </trkpt>
      <trkpt lat="44.11526" lon="3.03458">
        <ele>650</ele>
        <time>2022-04-05T14:02:04Z</time>
      </trkpt>
      <trkpt lat="44.11527" lon="3.03457">
        <ele>650</ele>
        <time>2022-04-05T14:02:05Z</time>
      </trkpt>
      <trkpt lat="44.11528" lon="3.03455">
        <ele>650</ele>
        <time>2022-04-05T14:02:06Z</time>
      </trkpt>
      <trkpt lat="44.11529" lon="3.03453">
        <ele>650.4</ele>
        <time>2022-04-05T14:02:07Z</time>
      </trkpt>
      <trkpt lat="44.1153" lon="3.03451">
        <ele>650.4</ele>
        <time>2022-04-05T14:02:08Z</time>
      </trkpt>
      <trkpt lat="44.11531" lon="3.03449">
        <ele>650.6</ele>
        <time>2022-04-05T14:02:09Z</time>
      </trkpt>
      <trkpt lat="44.11532" lon="3.03447">
        <ele>650.8</ele>
        <time>2022-04-05T14:02:10Z</time>
      </trkpt>
      <trkpt lat="44.11533" lon="3.03445">
        <ele>650.8</ele>
        <time>2022-04-05T14:02:11Z</time>
      </trkpt>
      <trkpt lat="44.11534" lon="3.03443">
        <ele>651</ele>
        <time>2022-04-05T14:02:12Z</time>
      </trkpt>
      <trkpt lat="44.11535" lon="3.03441">
        <ele>651</ele>
        <time>2022-04-05T14:02:13Z</time>
      </trkpt>
      <trkpt lat="44.11536" lon="3.03439">
        <ele>651.2</ele>
        <time>2022-04-05T14:02:14Z</time>
      </trkpt>
      <trkpt lat="44.11537" lon="3.03437">
        <ele>651.2</ele>
        <time>2022-04-05T14:02:15Z</time>
      </trkpt>
      <trkpt lat="44.11538" lon="3.03435">
        <ele>651.6</ele>
        <time>2022-04-05T14:02:16Z</time>
      </trkpt>
      <trkpt lat="44.11539" lon="3.03433">
        <ele>651.6</ele>
        <time>2022-04-05T14:02:17Z</time>
      </trkpt>
      <trkpt lat="44.11541" lon="3.03431">
        <ele>651.8</ele>
        <time>2022-04-05T14:02:18Z</time>
      </trkpt>
      <trkpt lat="44.11542" lon="3.03429">
        <ele>652</ele>
        <time>2022-04-05T14:02:19Z</time>
      </trkpt>
      <trkpt lat="44.11543" lon="3.03427">
        <ele>652.2</ele>
        <time>2022-04-05T14:02:20Z</time>
      </trkpt>
      <trkpt lat="44.11543" lon="3.03425">
        <ele>652.4</ele>
        <time>2022-04-05T14:02:21Z</time>
      </trkpt>
      <trkpt lat="44.11543" lon="3.03422">
        <ele>652.6</ele>
        <time>2022-04-05T14:02:22Z</time>
      </trkpt>
      <trkpt lat="44.11544" lon="3.0342">
        <ele>652.6</ele>
        <time>2022-04-05T14:02:23Z</time>
      </trkpt>
      <trkpt lat="44.11546" lon="3.03418">
        <ele>653</ele>
        <time>2022-04-05T14:02:24Z</time>
      </trkpt>
      <trkpt lat="44.11546" lon="3.03416">
        <ele>653</ele>
        <time>2022-04-05T14:02:25Z</time>
      </trkpt>
      <trkpt lat="44.11547" lon="3.03414">
        <ele>653.2</ele>
        <time>2022-04-05T14:02:26Z</time>
      </trkpt>
      <trkpt lat="44.11548" lon="3.03412">
        <ele>653.6</ele>
        <time>2022-04-05T14:02:27Z</time>
      </trkpt>
      <trkpt lat="44.11549" lon="3.0341">
        <ele>653.6</ele>
        <time>2022-04-05T14:02:28Z</time>
      </trkpt>
      <trkpt lat="44.1155" lon="3.03408">
        <ele>653.8</ele>
        <time>2022-04-05T14:02:29Z</time>
      </trkpt>
      <trkpt lat="44.11551" lon="3.03405">
        <ele>653.8</ele>
        <time>2022-04-05T14:02:30Z</time>
      </trkpt>
      <trkpt lat="44.11553" lon="3.03403">
        <ele>654.4</ele>
        <time>2022-04-05T14:02:31Z</time>
      </trkpt>
      <trkpt lat="44.11554" lon="3.03401">
        <ele>654.4</ele>
        <time>2022-04-05T14:02:32Z</time>
      </trkpt>
      <trkpt lat="44.11555" lon="3.03399">
        <ele>654.6</ele>
        <time>2022-04-05T14:02:33Z</time>
      </trkpt>
      <trkpt lat="44.11556" lon="3.03397">
        <ele>654.8</ele>
        <time>2022-04-05T14:02:34Z</time>
      </trkpt>
      <trkpt lat="44.11557" lon="3.03394">
        <ele>655.4</ele>
        <time>2022-04-05T14:02:35Z</time>
      </trkpt>
      <trkpt lat="44.11558" lon="3.03392">
        <ele>655.8</ele>
        <time>2022-04-05T14:02:36Z</time>
      </trkpt>
      <trkpt lat="44.11559" lon="3.0339">
        <ele>656</ele>
        <time>2022-04-05T14:02:37Z</time>
      </trkpt>
      <trkpt lat="44.1156" lon="3.03387">
        <ele>656.2</ele>
        <time>2022-04-05T14:02:38Z</time>
      </trkpt>
      <trkpt lat="44.11561" lon="3.03385">
        <ele>656.2</ele>
        <time>2022-04-05T14:02:39Z</time>
      </trkpt>
      <trkpt lat="44.11562" lon="3.03383">
        <ele>656.4</ele>
        <time>2022-04-05T14:02:40Z</time>
      </trkpt>
      <trkpt lat="44.11563" lon="3.0338">
        <ele>656.6</ele>
        <time>2022-04-05T14:02:41Z</time>
      </trkpt>
      <trkpt lat="44.11564" lon="3.03378">
        <ele>656.6</ele>
        <time>2022-04-05T14:02:42Z</time>
      </trkpt>
      <trkpt lat="44.11565" lon="3.03376">
        <ele>656.6</ele>
        <time>2022-04-05T14:02:43Z</time>
      </trkpt>
      <trkpt lat="44.11566" lon="3.03374">
        <ele>657</ele>
        <time>2022-04-05T14:02:44Z</time>
      </trkpt>
      <trkpt lat="44.11567" lon="3.03371">
        <ele>657.2</ele>
        <time>2022-04-05T14:02:45Z</time>
      </trkpt>
      <trkpt lat="44.11567" lon="3.03369">
        <ele>657.4</ele>
        <time>2022-04-05T14:02:46Z</time>
      </trkpt>
      <trkpt lat="44.11568" lon="3.03367">
        <ele>657.8</ele>
        <time>2022-04-05T14:02:47Z</time>
      </trkpt>
      <trkpt lat="44.11569" lon="3.03364">
        <ele>658</ele>
        <time>2022-04-05T14:02:48Z</time>
      </trkpt>
      <trkpt lat="44.1157" lon="3.03362">
        <ele>658.2</ele>
        <time>2022-04-05T14:02:49Z</time>
      </trkpt>
      <trkpt lat="44.11571" lon="3.0336">
        <ele>658.4</ele>
        <time>2022-04-05T14:02:50Z</time>
      </trkpt>
      <trkpt lat="44.11572" lon="3.03358">
        <ele>658.6</ele>
        <time>2022-04-05T14:02:51Z</time>
      </trkpt>
      <trkpt lat="44.11573" lon="3.03355">
        <ele>658.8</ele>
        <time>2022-04-05T14:02:52Z</time>
      </trkpt>
      <trkpt lat="44.11574" lon="3.03353">
        <ele>659</ele>
        <time>2022-04-05T14:02:53Z</time>
      </trkpt>
      <trkpt lat="44.11575" lon="3.03351">
        <ele>659</ele>
        <time>2022-04-05T14:02:54Z</time>
      </trkpt>
      <trkpt lat="44.11576" lon="3.03348">
        <ele>659.2</ele>
        <time>2022-04-05T14:02:55Z</time>
      </trkpt>
      <trkpt lat="44.11577" lon="3.03346">
        <ele>659.4</ele>
        <time>2022-04-05T14:02:56Z</time>
      </trkpt>
      <trkpt lat="44.11578" lon="3.03344">
        <ele>659.6</ele>
        <time>2022-04-05T14:02:57Z</time>
      </trkpt>
      <trkpt lat="44.11579" lon="3.03342">
        <ele>659.8</ele>
        <time>2022-04-05T14:02:58Z</time>
      </trkpt>
      <trkpt lat="44.1158" lon="3.03339">
        <ele>660</ele>
        <time>2022-04-05T14:02:59Z</time>
      </trkpt>
      <trkpt lat="44.11581" lon="3.03337">
        <ele>660.2</ele>
        <time>2022-04-05T14:03:00Z</time>
      </trkpt>
      <trkpt lat="44.11582" lon="3.03335">
        <ele>660.2</ele>
        <time>2022-04-05T14:03:01Z</time>
      </trkpt>
      <trkpt lat="44.11583" lon="3.03332">
        <ele>660.4</ele>
        <time>2022-04-05T14:03:02Z</time>
      </trkpt>
      <trkpt lat="44.11584" lon="3.0333">
        <ele>660.6</ele>
        <time>2022-04-05T14:03:03Z</time>
      </trkpt>
      <trkpt lat="44.11585" lon="3.03327">
        <ele>660.6</ele>
        <time>2022-04-05T14:03:04Z</time>
      </trkpt>
      <trkpt lat="44.11586" lon="3.03325">
        <ele>660.8</ele>
        <time>2022-04-05T14:03:05Z</time>
      </trkpt>
      <trkpt lat="44.11587" lon="3.03322">
        <ele>660.8</ele>
        <time>2022-04-05T14:03:06Z</time>
      </trkpt>
      <trkpt lat="44.11588" lon="3.03319">
        <ele>661</ele>
        <time>2022-04-05T14:03:07Z</time>
      </trkpt>
      <trkpt lat="44.1159" lon="3.03317">
        <ele>661</ele>
        <time>2022-04-05T14:03:08Z</time>
      </trkpt>
      <trkpt lat="44.1159" lon="3.03314">
        <ele>661</ele>
        <time>2022-04-05T14:03:09Z</time>
      </trkpt>
      <trkpt lat="44.11591" lon="3.03311">
        <ele>661</ele>
        <time>2022-04-05T14:03:10Z</time>
      </trkpt>
      <trkpt lat="44.11592" lon="3.03308">
        <ele>661</ele>
        <time>2022-04-05T14:03:11Z</time>
      </trkpt>
      <trkpt lat="44.11593" lon="3.03305">
        <ele>661.2</ele>
        <time>2022-04-05T14:03:12Z</time>
      </trkpt>
      <trkpt lat="44.11594" lon="3.03302">
        <ele>661.4</ele>
        <time>2022-04-05T14:03:13Z</time>
      </trkpt>
      <trkpt lat="44.11595" lon="3.03299">
        <ele>661.4</ele>
        <time>2022-04-05T14:03:14Z</time>
      </trkpt>
      <trkpt lat="44.11597" lon="3.03296">
        <ele>661.6</ele>
        <time>2022-04-05T14:03:15Z</time>
      </trkpt>
      <trkpt lat="44.11598" lon="3.03293">
        <ele>661.6</ele>
        <time>2022-04-05T14:03:16Z</time>
      </trkpt>
      <trkpt lat="44.11599" lon="3.0329">
        <ele>661.6</ele>
        <time>2022-04-05T14:03:17Z</time>
      </trkpt>
      <trkpt lat="44.116" lon="3.03286">
        <ele>661.8</ele>
        <time>2022-04-05T14:03:18Z</time>
      </trkpt>
      <trkpt lat="44.11601" lon="3.03283">
        <ele>662</ele>
        <time>2022-04-05T14:03:19Z</time>
      </trkpt>
      <trkpt lat="44.11602" lon="3.0328">
        <ele>662.2</ele>
        <time>2022-04-05T14:03:20Z</time>
      </trkpt>
      <trkpt lat="44.11604" lon="3.03277">
        <ele>662.2</ele>
        <time>2022-04-05T14:03:21Z</time>
      </trkpt>
      <trkpt lat="44.11605" lon="3.03274">
        <ele>662.4</ele>
        <time>2022-04-05T14:03:22Z</time>
      </trkpt>
      <trkpt lat="44.11606" lon="3.03271">
        <ele>662.4</ele>
        <time>2022-04-05T14:03:23Z</time>
      </trkpt>
      <trkpt lat="44.11608" lon="3.03268">
        <ele>662.4</ele>
        <time>2022-04-05T14:03:24Z</time>
      </trkpt>
      <trkpt lat="44.1161" lon="3.03266">
        <ele>662.6</ele>
        <time>2022-04-05T14:03:25Z</time>
      </trkpt>
      <trkpt lat="44.11611" lon="3.03263">
        <ele>662.8</ele>
        <time>2022-04-05T14:03:26Z</time>
      </trkpt>
      <trkpt lat="44.11612" lon="3.0326">
        <ele>663</ele>
        <time>2022-04-05T14:03:27Z</time>
      </trkpt>
      <trkpt lat="44.11614" lon="3.03257">
        <ele>663</ele>
        <time>2022-04-05T14:03:28Z</time>
      </trkpt>
      <trkpt lat="44.11615" lon="3.03254">
        <ele>663</ele>
        <time>2022-04-05T14:03:29Z</time>
      </trkpt>
      <trkpt lat="44.11616" lon="3.03251">
        <ele>663.2</ele>
        <time>2022-04-05T14:03:30Z</time>
      </trkpt>
      <trkpt lat="44.11618" lon="3.03248">
        <ele>663.4</ele>
        <time>2022-04-05T14:03:31Z</time>
      </trkpt>
      <trkpt lat="44.11619" lon="3.03246">
        <ele>663.6</ele>
        <time>2022-04-05T14:03:32Z</time>
      </trkpt>
      <trkpt lat="44.1162" lon="3.03243">
        <ele>663.8</ele>
        <time>2022-04-05T14:03:33Z</time>
      </trkpt>
      <trkpt lat="44.11622" lon="3.0324">
        <ele>664</ele>
        <time>2022-04-05T14:03:34Z</time>
      </trkpt>
      <trkpt lat="44.11623" lon="3.03237">
        <ele>664.4</ele>
        <time>2022-04-05T14:03:35Z</time>
      </trkpt>
      <trkpt lat="44.11625" lon="3.03235">
        <ele>664.4</ele>
        <time>2022-04-05T14:03:36Z</time>
      </trkpt>
      <trkpt lat="44.11626" lon="3.03232">
        <ele>664.6</ele>
        <time>2022-04-05T14:03:37Z</time>
      </trkpt>
      <trkpt lat="44.11628" lon="3.03229">
        <ele>664.8</ele>
        <time>2022-04-05T14:03:38Z</time>
      </trkpt>
      <trkpt lat="44.11629" lon="3.03227">
        <ele>664.8</ele>
        <time>2022-04-05T14:03:39Z</time>
      </trkpt>
      <trkpt lat="44.11631" lon="3.03224">
        <ele>665</ele>
        <time>2022-04-05T14:03:40Z</time>
      </trkpt>
      <trkpt lat="44.11632" lon="3.03221">
        <ele>665</ele>
        <time>2022-04-05T14:03:41Z</time>
      </trkpt>
      <trkpt lat="44.11633" lon="3.03218">
        <ele>665.2</ele>
        <time>2022-04-05T14:03:42Z</time>
      </trkpt>
      <trkpt lat="44.11634" lon="3.03215">
        <ele>665.4</ele>
        <time>2022-04-05T14:03:43Z</time>
      </trkpt>
      <trkpt lat="44.11636" lon="3.03212">
        <ele>665.8</ele>
        <time>2022-04-05T14:03:44Z</time>
      </trkpt>
      <trkpt lat="44.11638" lon="3.0321">
        <ele>665.8</ele>
        <time>2022-04-05T14:03:45Z</time>
      </trkpt>
      <trkpt lat="44.1164" lon="3.03207">
        <ele>666</ele>
        <time>2022-04-05T14:03:46Z</time>
      </trkpt>
      <trkpt lat="44.11642" lon="3.03204">
        <ele>666.2</ele>
        <time>2022-04-05T14:03:47Z</time>
      </trkpt>
      <trkpt lat="44.11643" lon="3.03201">
        <ele>666.2</ele>
        <time>2022-04-05T14:03:48Z</time>
      </trkpt>
      <trkpt lat="44.11645" lon="3.03198">
        <ele>666.2</ele>
        <time>2022-04-05T14:03:49Z</time>
      </trkpt>
      <trkpt lat="44.11646" lon="3.03196">
        <ele>666.4</ele>
        <time>2022-04-05T14:03:50Z</time>
      </trkpt>
      <trkpt lat="44.11648" lon="3.03193">
        <ele>666.6</ele>
        <time>2022-04-05T14:03:51Z</time>
      </trkpt>
      <trkpt lat="44.1165" lon="3.03191">
        <ele>666.8</ele>
        <time>2022-04-05T14:03:52Z</time>
      </trkpt>
      <trkpt lat="44.11652" lon="3.03189">
        <ele>666.8</ele>
        <time>2022-04-05T14:03:53Z</time>
      </trkpt>
      <trkpt lat="44.11654" lon="3.03186">
        <ele>666.8</ele>
        <time>2022-04-05T14:03:54Z</time>
      </trkpt>
      <trkpt lat="44.11656" lon="3.03184">
        <ele>666.8</ele>
        <time>2022-04-05T14:03:55Z</time>
      </trkpt>
      <trkpt lat="44.11658" lon="3.03182">
        <ele>667</ele>
        <time>2022-04-05T14:03:56Z</time>
      </trkpt>
      <trkpt lat="44.1166" lon="3.0318">
        <ele>667</ele>
        <time>2022-04-05T14:03:57Z</time>
      </trkpt>
      <trkpt lat="44.11662" lon="3.03178">
        <ele>667.2</ele>
        <time>2022-04-05T14:03:58Z</time>
      </trkpt>
      <trkpt lat="44.11664" lon="3.03176">
        <ele>667.2</ele>
        <time>2022-04-05T14:03:59Z</time>
      </trkpt>
      <trkpt lat="44.11666" lon="3.03174">
        <ele>667.6</ele>
        <time>2022-04-05T14:04:00Z</time>
      </trkpt>
      <trkpt lat="44.11668" lon="3.03172">
        <ele>667.6</ele>
        <time>2022-04-05T14:04:01Z</time>
      </trkpt>
      <trkpt lat="44.1167" lon="3.03171">
        <ele>667.8</ele>
        <time>2022-04-05T14:04:02Z</time>
      </trkpt>
      <trkpt lat="44.11672" lon="3.03169">
        <ele>668</ele>
        <time>2022-04-05T14:04:03Z</time>
      </trkpt>
      <trkpt lat="44.11674" lon="3.03166">
        <ele>668.4</ele>
        <time>2022-04-05T14:04:04Z</time>
      </trkpt>
      <trkpt lat="44.11676" lon="3.03164">
        <ele>668.4</ele>
        <time>2022-04-05T14:04:05Z</time>
      </trkpt>
      <trkpt lat="44.11677" lon="3.03162">
        <ele>668.6</ele>
        <time>2022-04-05T14:04:06Z</time>
      </trkpt>
      <trkpt lat="44.11679" lon="3.0316">
        <ele>668.6</ele>
        <time>2022-04-05T14:04:07Z</time>
      </trkpt>
      <trkpt lat="44.11681" lon="3.03158">
        <ele>668.8</ele>
        <time>2022-04-05T14:04:08Z</time>
      </trkpt>
      <trkpt lat="44.11683" lon="3.03155">
        <ele>669</ele>
        <time>2022-04-05T14:04:09Z</time>
      </trkpt>
      <trkpt lat="44.11684" lon="3.03154">
        <ele>669</ele>
        <time>2022-04-05T14:04:10Z</time>
      </trkpt>
      <trkpt lat="44.11686" lon="3.03151">
        <ele>669.4</ele>
        <time>2022-04-05T14:04:11Z</time>
      </trkpt>
      <trkpt lat="44.11687" lon="3.03149">
        <ele>669.4</ele>
        <time>2022-04-05T14:04:12Z</time>
      </trkpt>
      <trkpt lat="44.11688" lon="3.03146">
        <ele>669.6</ele>
        <time>2022-04-05T14:04:13Z</time>
      </trkpt>
      <trkpt lat="44.1169" lon="3.03144">
        <ele>669.6</ele>
        <time>2022-04-05T14:04:14Z</time>
      </trkpt>
      <trkpt lat="44.11692" lon="3.03142">
        <ele>670</ele>
        <time>2022-04-05T14:04:15Z</time>
      </trkpt>
      <trkpt lat="44.11694" lon="3.0314">
        <ele>670.2</ele>
        <time>2022-04-05T14:04:16Z</time>
      </trkpt>
      <trkpt lat="44.11695" lon="3.03138">
        <ele>670.2</ele>
        <time>2022-04-05T14:04:17Z</time>
      </trkpt>
      <trkpt lat="44.11697" lon="3.03135">
        <ele>670.4</ele>
        <time>2022-04-05T14:04:18Z</time>
      </trkpt>
      <trkpt lat="44.11699" lon="3.03132">
        <ele>670.4</ele>
        <time>2022-04-05T14:04:19Z</time>
      </trkpt>
      <trkpt lat="44.117" lon="3.0313">
        <ele>670.4</ele>
        <time>2022-04-05T14:04:20Z</time>
      </trkpt>
      <trkpt lat="44.11702" lon="3.03127">
        <ele>670.4</ele>
        <time>2022-04-05T14:04:21Z</time>
      </trkpt>
      <trkpt lat="44.11704" lon="3.03125">
        <ele>670.4</ele>
        <time>2022-04-05T14:04:22Z</time>
      </trkpt>
      <trkpt lat="44.11706" lon="3.03122">
        <ele>670.4</ele>
        <time>2022-04-05T14:04:23Z</time>
      </trkpt>
      <trkpt lat="44.11708" lon="3.0312">
        <ele>670.4</ele>
        <time>2022-04-05T14:04:24Z</time>
      </trkpt>
      <trkpt lat="44.11709" lon="3.03118">
        <ele>670.4</ele>
        <time>2022-04-05T14:04:25Z</time>
      </trkpt>
      <trkpt lat="44.11711" lon="3.03115">
        <ele>670.4</ele>
        <time>2022-04-05T14:04:26Z</time>
      </trkpt>
      <trkpt lat="44.11713" lon="3.03113">
        <ele>670.4</ele>
        <time>2022-04-05T14:04:27Z</time>
      </trkpt>
      <trkpt lat="44.11714" lon="3.0311">
        <ele>670.4</ele>
        <time>2022-04-05T14:04:28Z</time>
      </trkpt>
      <trkpt lat="44.11716" lon="3.03108">
        <ele>670.4</ele>
        <time>2022-04-05T14:04:29Z</time>
      </trkpt>
      <trkpt lat="44.11718" lon="3.03105">
        <ele>670.4</ele>
        <time>2022-04-05T14:04:30Z</time>
      </trkpt>
      <trkpt lat="44.11719" lon="3.03102">
        <ele>670.4</ele>
        <time>2022-04-05T14:04:31Z</time>
      </trkpt>
      <trkpt lat="44.11721" lon="3.03099">
        <ele>670.6</ele>
        <time>2022-04-05T14:04:32Z</time>
      </trkpt>
      <trkpt lat="44.11722" lon="3.03096">
        <ele>670.6</ele>
        <time>2022-04-05T14:04:33Z</time>
      </trkpt>
      <trkpt lat="44.11724" lon="3.03094">
        <ele>670.8</ele>
        <time>2022-04-05T14:04:34Z</time>
      </trkpt>
      <trkpt lat="44.11726" lon="3.03091">
        <ele>671</ele>
        <time>2022-04-05T14:04:35Z</time>
      </trkpt>
      <trkpt lat="44.11727" lon="3.03088">
        <ele>671.4</ele>
        <time>2022-04-05T14:04:36Z</time>
      </trkpt>
      <trkpt lat="44.11729" lon="3.03085">
        <ele>671.4</ele>
        <time>2022-04-05T14:04:37Z</time>
      </trkpt>
      <trkpt lat="44.1173" lon="3.03082">
        <ele>671.6</ele>
        <time>2022-04-05T14:04:38Z</time>
      </trkpt>
      <trkpt lat="44.11732" lon="3.0308">
        <ele>671.6</ele>
        <time>2022-04-05T14:04:39Z</time>
      </trkpt>
      <trkpt lat="44.11734" lon="3.03077">
        <ele>671.8</ele>
        <time>2022-04-05T14:04:40Z</time>
      </trkpt>
      <trkpt lat="44.11735" lon="3.03074">
        <ele>672</ele>
        <time>2022-04-05T14:04:41Z</time>
      </trkpt>
      <trkpt lat="44.11737" lon="3.0307">
        <ele>672</ele>
        <time>2022-04-05T14:04:42Z</time>
      </trkpt>
      <trkpt lat="44.11738" lon="3.03067">
        <ele>672</ele>
        <time>2022-04-05T14:04:43Z</time>
      </trkpt>
      <trkpt lat="44.11739" lon="3.03065">
        <ele>672.2</ele>
        <time>2022-04-05T14:04:44Z</time>
      </trkpt>
      <trkpt lat="44.11741" lon="3.03062">
        <ele>672.4</ele>
        <time>2022-04-05T14:04:45Z</time>
      </trkpt>
      <trkpt lat="44.11743" lon="3.03059">
        <ele>672.6</ele>
        <time>2022-04-05T14:04:46Z</time>
      </trkpt>
      <trkpt lat="44.11744" lon="3.03057">
        <ele>672.6</ele>
        <time>2022-04-05T14:04:47Z</time>
      </trkpt>
      <trkpt lat="44.11746" lon="3.03054">
        <ele>672.6</ele>
        <time>2022-04-05T14:04:48Z</time>
      </trkpt>
      <trkpt lat="44.11747" lon="3.03051">
        <ele>672.8</ele>
        <time>2022-04-05T14:04:49Z</time>
      </trkpt>
      <trkpt lat="44.11749" lon="3.03049">
        <ele>672.8</ele>
        <time>2022-04-05T14:04:50Z</time>
      </trkpt>
      <trkpt lat="44.11751" lon="3.03047">
        <ele>672.8</ele>
        <time>2022-04-05T14:04:51Z</time>
      </trkpt>
      <trkpt lat="44.11752" lon="3.03044">
        <ele>672.8</ele>
        <time>2022-04-05T14:04:52Z</time>
      </trkpt>
      <trkpt lat="44.11754" lon="3.03042">
        <ele>672.8</ele>
        <time>2022-04-05T14:04:53Z</time>
      </trkpt>
      <trkpt lat="44.11756" lon="3.0304">
        <ele>672.8</ele>
        <time>2022-04-05T14:04:54Z</time>
      </trkpt>
      <trkpt lat="44.11758" lon="3.03039">
        <ele>673</ele>
        <time>2022-04-05T14:04:55Z</time>
      </trkpt>
      <trkpt lat="44.1176" lon="3.03037">
        <ele>673.6</ele>
        <time>2022-04-05T14:04:56Z</time>
      </trkpt>
      <trkpt lat="44.11763" lon="3.03036">
        <ele>673.6</ele>
        <time>2022-04-05T14:04:57Z</time>
      </trkpt>
      <trkpt lat="44.11765" lon="3.03035">
        <ele>673.8</ele>
        <time>2022-04-05T14:04:58Z</time>
      </trkpt>
      <trkpt lat="44.11768" lon="3.03035">
        <ele>673.8</ele>
        <time>2022-04-05T14:04:59Z</time>
      </trkpt>
      <trkpt lat="44.11771" lon="3.03034">
        <ele>673.8</ele>
        <time>2022-04-05T14:05:00Z</time>
      </trkpt>
      <trkpt lat="44.11774" lon="3.03034">
        <ele>674</ele>
        <time>2022-04-05T14:05:01Z</time>
      </trkpt>
      <trkpt lat="44.11777" lon="3.03033">
        <ele>674</ele>
        <time>2022-04-05T14:05:02Z</time>
      </trkpt>
      <trkpt lat="44.1178" lon="3.03032">
        <ele>674</ele>
        <time>2022-04-05T14:05:03Z</time>
      </trkpt>
      <trkpt lat="44.11783" lon="3.03031">
        <ele>674</ele>
        <time>2022-04-05T14:05:04Z</time>
      </trkpt>
      <trkpt lat="44.11786" lon="3.03031">
        <ele>674</ele>
        <time>2022-04-05T14:05:05Z</time>
      </trkpt>
      <trkpt lat="44.11789" lon="3.0303">
        <ele>674</ele>
        <time>2022-04-05T14:05:06Z</time>
      </trkpt>
      <trkpt lat="44.11791" lon="3.03029">
        <ele>673.8</ele>
        <time>2022-04-05T14:05:07Z</time>
      </trkpt>
      <trkpt lat="44.11794" lon="3.03029">
        <ele>673.8</ele>
        <time>2022-04-05T14:05:08Z</time>
      </trkpt>
      <trkpt lat="44.11797" lon="3.03028">
        <ele>673.6</ele>
        <time>2022-04-05T14:05:09Z</time>
      </trkpt>
      <trkpt lat="44.11799" lon="3.03027">
        <ele>673.4</ele>
        <time>2022-04-05T14:05:10Z</time>
      </trkpt>
      <trkpt lat="44.11802" lon="3.03027">
        <ele>673.2</ele>
        <time>2022-04-05T14:05:11Z</time>
      </trkpt>
      <trkpt lat="44.11805" lon="3.03026">
        <ele>673</ele>
        <time>2022-04-05T14:05:12Z</time>
      </trkpt>
      <trkpt lat="44.11808" lon="3.03025">
        <ele>672.8</ele>
        <time>2022-04-05T14:05:13Z</time>
      </trkpt>
      <trkpt lat="44.1181" lon="3.03024">
        <ele>672.8</ele>
        <time>2022-04-05T14:05:14Z</time>
      </trkpt>
      <trkpt lat="44.11813" lon="3.03024">
        <ele>672.6</ele>
        <time>2022-04-05T14:05:15Z</time>
      </trkpt>
      <trkpt lat="44.11816" lon="3.03023">
        <ele>672.6</ele>
        <time>2022-04-05T14:05:16Z</time>
      </trkpt>
      <trkpt lat="44.1182" lon="3.03022">
        <ele>672.4</ele>
        <time>2022-04-05T14:05:17Z</time>
      </trkpt>
      <trkpt lat="44.11823" lon="3.03022">
        <ele>672.4</ele>
        <time>2022-04-05T14:05:18Z</time>
      </trkpt>
      <trkpt lat="44.11825" lon="3.03023">
        <ele>672.2</ele>
        <time>2022-04-05T14:05:19Z</time>
      </trkpt>
      <trkpt lat="44.11827" lon="3.03024">
        <ele>672.2</ele>
        <time>2022-04-05T14:05:20Z</time>
      </trkpt>
      <trkpt lat="44.11828" lon="3.03024">
        <ele>672</ele>
        <time>2022-04-05T14:05:21Z</time>
      </trkpt>
      <trkpt lat="44.1183" lon="3.03021">
        <ele>670.2</ele>
        <time>2022-04-05T14:06:39Z</time>
      </trkpt>
      <trkpt lat="44.11831" lon="3.0302">
        <ele>670.2</ele>
        <time>2022-04-05T14:06:40Z</time>
      </trkpt>
      <trkpt lat="44.11832" lon="3.03018">
        <ele>670.2</ele>
        <time>2022-04-05T14:06:41Z</time>
      </trkpt>
      <trkpt lat="44.11833" lon="3.03017">
        <ele>670.2</ele>
        <time>2022-04-05T14:06:42Z</time>
      </trkpt>
      <trkpt lat="44.11835" lon="3.03016">
        <ele>670.2</ele>
        <time>2022-04-05T14:06:43Z</time>
      </trkpt>
      <trkpt lat="44.11836" lon="3.03014">
        <ele>670.2</ele>
        <time>2022-04-05T14:06:44Z</time>
      </trkpt>
      <trkpt lat="44.11838" lon="3.03012">
        <ele>670.2</ele>
        <time>2022-04-05T14:06:45Z</time>
      </trkpt>
      <trkpt lat="44.11839" lon="3.0301">
        <ele>670.2</ele>
        <time>2022-04-05T14:06:46Z</time>
      </trkpt>
      <trkpt lat="44.1184" lon="3.03007">
        <ele>670.2</ele>
        <time>2022-04-05T14:06:47Z</time>
      </trkpt>
      <trkpt lat="44.1184" lon="3.03005">
        <ele>670.2</ele>
        <time>2022-04-05T14:06:48Z</time>
      </trkpt>
      <trkpt lat="44.11841" lon="3.03002">
        <ele>670.2</ele>
        <time>2022-04-05T14:06:49Z</time>
      </trkpt>
      <trkpt lat="44.11842" lon="3.02999">
        <ele>670.4</ele>
        <time>2022-04-05T14:06:50Z</time>
      </trkpt>
      <trkpt lat="44.11843" lon="3.02996">
        <ele>670.4</ele>
        <time>2022-04-05T14:06:51Z</time>
      </trkpt>
      <trkpt lat="44.11843" lon="3.02993">
        <ele>670.6</ele>
        <time>2022-04-05T14:06:52Z</time>
      </trkpt>
      <trkpt lat="44.11844" lon="3.0299">
        <ele>670.6</ele>
        <time>2022-04-05T14:06:53Z</time>
      </trkpt>
      <trkpt lat="44.11844" lon="3.02987">
        <ele>670.8</ele>
        <time>2022-04-05T14:06:54Z</time>
      </trkpt>
      <trkpt lat="44.11845" lon="3.02984">
        <ele>671</ele>
        <time>2022-04-05T14:06:55Z</time>
      </trkpt>
      <trkpt lat="44.11845" lon="3.0298">
        <ele>671</ele>
        <time>2022-04-05T14:06:56Z</time>
      </trkpt>
      <trkpt lat="44.11845" lon="3.02977">
        <ele>671.2</ele>
        <time>2022-04-05T14:06:57Z</time>
      </trkpt>
      <trkpt lat="44.11845" lon="3.02973">
        <ele>671.4</ele>
        <time>2022-04-05T14:06:58Z</time>
      </trkpt>
      <trkpt lat="44.11845" lon="3.0297">
        <ele>671.4</ele>
        <time>2022-04-05T14:06:59Z</time>
      </trkpt>
      <trkpt lat="44.11845" lon="3.02967">
        <ele>671.8</ele>
        <time>2022-04-05T14:07:00Z</time>
      </trkpt>
      <trkpt lat="44.11845" lon="3.02963">
        <ele>671.8</ele>
        <time>2022-04-05T14:07:01Z</time>
      </trkpt>
      <trkpt lat="44.11845" lon="3.0296">
        <ele>672.2</ele>
        <time>2022-04-05T14:07:02Z</time>
      </trkpt>
      <trkpt lat="44.11846" lon="3.02957">
        <ele>672.6</ele>
        <time>2022-04-05T14:07:03Z</time>
      </trkpt>
      <trkpt lat="44.11846" lon="3.02953">
        <ele>672.8</ele>
        <time>2022-04-05T14:07:04Z</time>
      </trkpt>
      <trkpt lat="44.11846" lon="3.0295">
        <ele>673</ele>
        <time>2022-04-05T14:07:05Z</time>
      </trkpt>
      <trkpt lat="44.11846" lon="3.02947">
        <ele>673.4</ele>
        <time>2022-04-05T14:07:06Z</time>
      </trkpt>
      <trkpt lat="44.11846" lon="3.02944">
        <ele>673.8</ele>
        <time>2022-04-05T14:07:07Z</time>
      </trkpt>
      <trkpt lat="44.11847" lon="3.02941">
        <ele>674</ele>
        <time>2022-04-05T14:07:08Z</time>
      </trkpt>
      <trkpt lat="44.11847" lon="3.02937">
        <ele>674.2</ele>
        <time>2022-04-05T14:07:09Z</time>
      </trkpt>
      <trkpt lat="44.11847" lon="3.02934">
        <ele>674.4</ele>
        <time>2022-04-05T14:07:10Z</time>
      </trkpt>
      <trkpt lat="44.11847" lon="3.02931">
        <ele>674.6</ele>
        <time>2022-04-05T14:07:11Z</time>
      </trkpt>
      <trkpt lat="44.11848" lon="3.02927">
        <ele>674.6</ele>
        <time>2022-04-05T14:07:12Z</time>
      </trkpt>
      <trkpt lat="44.11848" lon="3.02924">
        <ele>675</ele>
        <time>2022-04-05T14:07:13Z</time>
      </trkpt>
      <trkpt lat="44.11849" lon="3.0292">
        <ele>675</ele>
        <time>2022-04-05T14:07:14Z</time>
      </trkpt>
      <trkpt lat="44.11849" lon="3.02919">
        <ele>675</ele>
        <time>2022-04-05T14:07:15Z</time>
      </trkpt>
      <trkpt lat="44.11849" lon="3.02918">
        <ele>675.2</ele>
        <time>2022-04-05T14:07:16Z</time>
      </trkpt>
      <trkpt lat="44.11848" lon="3.02916">
        <ele>675.2</ele>
        <time>2022-04-05T14:07:17Z</time>
      </trkpt>
      <trkpt lat="44.11848" lon="3.02915">
        <ele>675.2</ele>
        <time>2022-04-05T14:07:18Z</time>
      </trkpt>
      <trkpt lat="44.11848" lon="3.02914">
        <ele>675.4</ele>
        <time>2022-04-05T14:07:19Z</time>
      </trkpt>
      <trkpt lat="44.11848" lon="3.02912">
        <ele>675.4</ele>
        <time>2022-04-05T14:07:20Z</time>
      </trkpt>
      <trkpt lat="44.11848" lon="3.02911">
        <ele>675.4</ele>
        <time>2022-04-05T14:07:21Z</time>
      </trkpt>
      <trkpt lat="44.11848" lon="3.0291">
        <ele>675.4</ele>
        <time>2022-04-05T14:07:22Z</time>
      </trkpt>
      <trkpt lat="44.11848" lon="3.02908">
        <ele>675.4</ele>
        <time>2022-04-05T14:07:23Z</time>
      </trkpt>
      <trkpt lat="44.11848" lon="3.02907">
        <ele>675.4</ele>
        <time>2022-04-05T14:07:24Z</time>
      </trkpt>
      <trkpt lat="44.11848" lon="3.02906">
        <ele>675.4</ele>
        <time>2022-04-05T14:07:25Z</time>
      </trkpt>
      <trkpt lat="44.11846" lon="3.02891">
        <ele>675.4</ele>
        <time>2022-04-05T14:07:26Z</time>
      </trkpt>
      <trkpt lat="44.11844" lon="3.0289">
        <ele>675.4</ele>
        <time>2022-04-05T14:07:27Z</time>
      </trkpt>
      <trkpt lat="44.1184" lon="3.02888">
        <ele>675.2</ele>
        <time>2022-04-05T14:07:28Z</time>
      </trkpt>
      <trkpt lat="44.11837" lon="3.02887">
        <ele>675.2</ele>
        <time>2022-04-05T14:07:29Z</time>
      </trkpt>
      <trkpt lat="44.11835" lon="3.02886">
        <ele>675.2</ele>
        <time>2022-04-05T14:07:30Z</time>
      </trkpt>
      <trkpt lat="44.11832" lon="3.02885">
        <ele>675.2</ele>
        <time>2022-04-05T14:07:31Z</time>
      </trkpt>
      <trkpt lat="44.11831" lon="3.02884">
        <ele>675.2</ele>
        <time>2022-04-05T14:07:32Z</time>
      </trkpt>
      <trkpt lat="44.11829" lon="3.02883">
        <ele>675.2</ele>
        <time>2022-04-05T14:07:33Z</time>
      </trkpt>
      <trkpt lat="44.11828" lon="3.02882">
        <ele>675.2</ele>
        <time>2022-04-05T14:07:34Z</time>
      </trkpt>
      <trkpt lat="44.11826" lon="3.02881">
        <ele>675.4</ele>
        <time>2022-04-05T14:07:35Z</time>
      </trkpt>
      <trkpt lat="44.11825" lon="3.0288">
        <ele>676</ele>
        <time>2022-04-05T14:07:36Z</time>
      </trkpt>
      <trkpt lat="44.11824" lon="3.0288">
        <ele>676</ele>
        <time>2022-04-05T14:07:37Z</time>
      </trkpt>
      <trkpt lat="44.11823" lon="3.02878">
        <ele>676.6</ele>
        <time>2022-04-05T14:07:38Z</time>
      </trkpt>
      <trkpt lat="44.11821" lon="3.02878">
        <ele>676.8</ele>
        <time>2022-04-05T14:07:39Z</time>
      </trkpt>
      <trkpt lat="44.11819" lon="3.02877">
        <ele>677.6</ele>
        <time>2022-04-05T14:07:40Z</time>
      </trkpt>
      <trkpt lat="44.11817" lon="3.02876">
        <ele>678.2</ele>
        <time>2022-04-05T14:07:41Z</time>
      </trkpt>
      <trkpt lat="44.11815" lon="3.02876">
        <ele>678.6</ele>
        <time>2022-04-05T14:07:42Z</time>
      </trkpt>
      <trkpt lat="44.11812" lon="3.02876">
        <ele>678.8</ele>
        <time>2022-04-05T14:07:43Z</time>
      </trkpt>
      <trkpt lat="44.1181" lon="3.02876">
        <ele>679.2</ele>
        <time>2022-04-05T14:07:44Z</time>
      </trkpt>
      <trkpt lat="44.11807" lon="3.02876">
        <ele>679.2</ele>
        <time>2022-04-05T14:07:45Z</time>
      </trkpt>
      <trkpt lat="44.11805" lon="3.02876">
        <ele>679.4</ele>
        <time>2022-04-05T14:07:46Z</time>
      </trkpt>
      <trkpt lat="44.11802" lon="3.02875">
        <ele>679.4</ele>
        <time>2022-04-05T14:07:47Z</time>
      </trkpt>
      <trkpt lat="44.11799" lon="3.02875">
        <ele>679.4</ele>
        <time>2022-04-05T14:07:48Z</time>
      </trkpt>
      <trkpt lat="44.11796" lon="3.02875">
        <ele>679.4</ele>
        <time>2022-04-05T14:07:49Z</time>
      </trkpt>
      <trkpt lat="44.11793" lon="3.02875">
        <ele>679.4</ele>
        <time>2022-04-05T14:07:50Z</time>
      </trkpt>
      <trkpt lat="44.1179" lon="3.02874">
        <ele>679.4</ele>
        <time>2022-04-05T14:07:51Z</time>
      </trkpt>
      <trkpt lat="44.11788" lon="3.02873">
        <ele>679.2</ele>
        <time>2022-04-05T14:07:52Z</time>
      </trkpt>
      <trkpt lat="44.11785" lon="3.02872">
        <ele>679.2</ele>
        <time>2022-04-05T14:07:53Z</time>
      </trkpt>
      <trkpt lat="44.11783" lon="3.02869">
        <ele>679</ele>
        <time>2022-04-05T14:07:54Z</time>
      </trkpt>
      <trkpt lat="44.11781" lon="3.02867">
        <ele>679</ele>
        <time>2022-04-05T14:07:55Z</time>
      </trkpt>
      <trkpt lat="44.1178" lon="3.02865">
        <ele>678.8</ele>
        <time>2022-04-05T14:07:56Z</time>
      </trkpt>
      <trkpt lat="44.11779" lon="3.02863">
        <ele>678.8</ele>
        <time>2022-04-05T14:07:57Z</time>
      </trkpt>
      <trkpt lat="44.11779" lon="3.02861">
        <ele>678.6</ele>
        <time>2022-04-05T14:07:58Z</time>
      </trkpt>
      <trkpt lat="44.1178" lon="3.02859">
        <ele>678.6</ele>
        <time>2022-04-05T14:07:59Z</time>
      </trkpt>
      <trkpt lat="44.1178" lon="3.02858">
        <ele>678.4</ele>
        <time>2022-04-05T14:08:00Z</time>
      </trkpt>
      <trkpt lat="44.11781" lon="3.02857">
        <ele>678.4</ele>
        <time>2022-04-05T14:08:01Z</time>
      </trkpt>
      <trkpt lat="44.11781" lon="3.02854">
        <ele>678.4</ele>
        <time>2022-04-05T14:08:02Z</time>
      </trkpt>
      <trkpt lat="44.11782" lon="3.02852">
        <ele>678.2</ele>
        <time>2022-04-05T14:08:03Z</time>
      </trkpt>
      <trkpt lat="44.11783" lon="3.0285">
        <ele>678.2</ele>
        <time>2022-04-05T14:08:04Z</time>
      </trkpt>
      <trkpt lat="44.11784" lon="3.02848">
        <ele>678.2</ele>
        <time>2022-04-05T14:08:05Z</time>
      </trkpt>
      <trkpt lat="44.11786" lon="3.02846">
        <ele>678.2</ele>
        <time>2022-04-05T14:08:06Z</time>
      </trkpt>
      <trkpt lat="44.11787" lon="3.02844">
        <ele>678.2</ele>
        <time>2022-04-05T14:08:07Z</time>
      </trkpt>
      <trkpt lat="44.11789" lon="3.02842">
        <ele>678.2</ele>
        <time>2022-04-05T14:08:08Z</time>
      </trkpt>
      <trkpt lat="44.11792" lon="3.02841">
        <ele>678.4</ele>
        <time>2022-04-05T14:08:09Z</time>
      </trkpt>
      <trkpt lat="44.11794" lon="3.0284">
        <ele>678.4</ele>
        <time>2022-04-05T14:08:10Z</time>
      </trkpt>
      <trkpt lat="44.11796" lon="3.02839">
        <ele>678.6</ele>
        <time>2022-04-05T14:08:11Z</time>
      </trkpt>
      <trkpt lat="44.11798" lon="3.02839">
        <ele>678.8</ele>
        <time>2022-04-05T14:08:12Z</time>
      </trkpt>
      <trkpt lat="44.11801" lon="3.02838">
        <ele>679</ele>
        <time>2022-04-05T14:08:13Z</time>
      </trkpt>
      <trkpt lat="44.11803" lon="3.02838">
        <ele>679.2</ele>
        <time>2022-04-05T14:08:14Z</time>
      </trkpt>
      <trkpt lat="44.11805" lon="3.02837">
        <ele>679.2</ele>
        <time>2022-04-05T14:08:15Z</time>
      </trkpt>
      <trkpt lat="44.11808" lon="3.02837">
        <ele>679.4</ele>
        <time>2022-04-05T14:08:16Z</time>
      </trkpt>
      <trkpt lat="44.11811" lon="3.02836">
        <ele>679.4</ele>
        <time>2022-04-05T14:08:17Z</time>
      </trkpt>
      <trkpt lat="44.11813" lon="3.02836">
        <ele>679.6</ele>
        <time>2022-04-05T14:08:18Z</time>
      </trkpt>
      <trkpt lat="44.11815" lon="3.02836">
        <ele>679.6</ele>
        <time>2022-04-05T14:08:19Z</time>
      </trkpt>
      <trkpt lat="44.11818" lon="3.02835">
        <ele>679.8</ele>
        <time>2022-04-05T14:08:20Z</time>
      </trkpt>
      <trkpt lat="44.1182" lon="3.02835">
        <ele>679.8</ele>
        <time>2022-04-05T14:08:21Z</time>
      </trkpt>
      <trkpt lat="44.11822" lon="3.02835">
        <ele>680.2</ele>
        <time>2022-04-05T14:08:22Z</time>
      </trkpt>
      <trkpt lat="44.11825" lon="3.02835">
        <ele>680.2</ele>
        <time>2022-04-05T14:08:23Z</time>
      </trkpt>
      <trkpt lat="44.11828" lon="3.02834">
        <ele>680.4</ele>
        <time>2022-04-05T14:08:24Z</time>
      </trkpt>
      <trkpt lat="44.1183" lon="3.02835">
        <ele>680.6</ele>
        <time>2022-04-05T14:08:25Z</time>
      </trkpt>
      <trkpt lat="44.11832" lon="3.02835">
        <ele>680.8</ele>
        <time>2022-04-05T14:08:26Z</time>
      </trkpt>
      <trkpt lat="44.11835" lon="3.02835">
        <ele>680.8</ele>
        <time>2022-04-05T14:08:27Z</time>
      </trkpt>
      <trkpt lat="44.11837" lon="3.02835">
        <ele>681</ele>
        <time>2022-04-05T14:08:28Z</time>
      </trkpt>
      <trkpt lat="44.1184" lon="3.02836">
        <ele>681</ele>
        <time>2022-04-05T14:08:29Z</time>
      </trkpt>
      <trkpt lat="44.11842" lon="3.02836">
        <ele>681</ele>
        <time>2022-04-05T14:08:30Z</time>
      </trkpt>
      <trkpt lat="44.11844" lon="3.02837">
        <ele>681.2</ele>
        <time>2022-04-05T14:08:31Z</time>
      </trkpt>
      <trkpt lat="44.11847" lon="3.02838">
        <ele>681.4</ele>
        <time>2022-04-05T14:08:32Z</time>
      </trkpt>
      <trkpt lat="44.11849" lon="3.02839">
        <ele>681.4</ele>
        <time>2022-04-05T14:08:33Z</time>
      </trkpt>
      <trkpt lat="44.11852" lon="3.02839">
        <ele>681.4</ele>
        <time>2022-04-05T14:08:34Z</time>
      </trkpt>
      <trkpt lat="44.11854" lon="3.0284">
        <ele>681.6</ele>
        <time>2022-04-05T14:08:35Z</time>
      </trkpt>
      <trkpt lat="44.11857" lon="3.0284">
        <ele>681.8</ele>
        <time>2022-04-05T14:08:36Z</time>
      </trkpt>
      <trkpt lat="44.11859" lon="3.02841">
        <ele>681.8</ele>
        <time>2022-04-05T14:08:37Z</time>
      </trkpt>
      <trkpt lat="44.11861" lon="3.02842">
        <ele>681.8</ele>
        <time>2022-04-05T14:08:38Z</time>
      </trkpt>
      <trkpt lat="44.11863" lon="3.02843">
        <ele>682</ele>
        <time>2022-04-05T14:08:39Z</time>
      </trkpt>
      <trkpt lat="44.11866" lon="3.02844">
        <ele>682</ele>
        <time>2022-04-05T14:08:40Z</time>
      </trkpt>
      <trkpt lat="44.11867" lon="3.02843">
        <ele>682.2</ele>
        <time>2022-04-05T14:08:41Z</time>
      </trkpt>
      <trkpt lat="44.11869" lon="3.02843">
        <ele>682.2</ele>
        <time>2022-04-05T14:08:42Z</time>
      </trkpt>
      <trkpt lat="44.1187" lon="3.02842">
        <ele>682.2</ele>
        <time>2022-04-05T14:08:43Z</time>
      </trkpt>
      <trkpt lat="44.11871" lon="3.02842">
        <ele>682.2</ele>
        <time>2022-04-05T14:08:44Z</time>
      </trkpt>
      <trkpt lat="44.11871" lon="3.02842">
        <ele>682.2</ele>
        <time>2022-04-05T14:08:46Z</time>
      </trkpt>
      <trkpt lat="44.11877" lon="3.02839">
        <ele>681.8</ele>
        <time>2022-04-05T14:08:59Z</time>
      </trkpt>
      <trkpt lat="44.11879" lon="3.02838">
        <ele>681.8</ele>
        <time>2022-04-05T14:09:00Z</time>
      </trkpt>
      <trkpt lat="44.11881" lon="3.02838">
        <ele>681.8</ele>
        <time>2022-04-05T14:09:01Z</time>
      </trkpt>
      <trkpt lat="44.11883" lon="3.02837">
        <ele>681.8</ele>
        <time>2022-04-05T14:09:02Z</time>
      </trkpt>
      <trkpt lat="44.11885" lon="3.02836">
        <ele>681.8</ele>
        <time>2022-04-05T14:09:03Z</time>
      </trkpt>
      <trkpt lat="44.11887" lon="3.02836">
        <ele>681.8</ele>
        <time>2022-04-05T14:09:04Z</time>
      </trkpt>
      <trkpt lat="44.1189" lon="3.02835">
        <ele>681.8</ele>
        <time>2022-04-05T14:09:05Z</time>
      </trkpt>
      <trkpt lat="44.11893" lon="3.02835">
        <ele>681.8</ele>
        <time>2022-04-05T14:09:06Z</time>
      </trkpt>
      <trkpt lat="44.11895" lon="3.02834">
        <ele>681.8</ele>
        <time>2022-04-05T14:09:07Z</time>
      </trkpt>
      <trkpt lat="44.11898" lon="3.02833">
        <ele>682</ele>
        <time>2022-04-05T14:09:08Z</time>
      </trkpt>
      <trkpt lat="44.119" lon="3.02831">
        <ele>682.2</ele>
        <time>2022-04-05T14:09:09Z</time>
      </trkpt>
      <trkpt lat="44.11901" lon="3.02829">
        <ele>682.2</ele>
        <time>2022-04-05T14:09:10Z</time>
      </trkpt>
      <trkpt lat="44.11903" lon="3.02826">
        <ele>682.4</ele>
        <time>2022-04-05T14:09:11Z</time>
      </trkpt>
      <trkpt lat="44.11904" lon="3.02824">
        <ele>682.4</ele>
        <time>2022-04-05T14:09:12Z</time>
      </trkpt>
      <trkpt lat="44.11906" lon="3.02822">
        <ele>682.6</ele>
        <time>2022-04-05T14:09:13Z</time>
      </trkpt>
      <trkpt lat="44.11908" lon="3.0282">
        <ele>682.8</ele>
        <time>2022-04-05T14:09:14Z</time>
      </trkpt>
      <trkpt lat="44.1191" lon="3.02818">
        <ele>683</ele>
        <time>2022-04-05T14:09:15Z</time>
      </trkpt>
      <trkpt lat="44.11912" lon="3.02817">
        <ele>683.2</ele>
        <time>2022-04-05T14:09:16Z</time>
      </trkpt>
      <trkpt lat="44.11914" lon="3.02815">
        <ele>683.6</ele>
        <time>2022-04-05T14:09:17Z</time>
      </trkpt>
      <trkpt lat="44.11916" lon="3.02813">
        <ele>684.2</ele>
        <time>2022-04-05T14:09:18Z</time>
      </trkpt>
      <trkpt lat="44.11917" lon="3.02811">
        <ele>684.4</ele>
        <time>2022-04-05T14:09:19Z</time>
      </trkpt>
      <trkpt lat="44.11919" lon="3.02809">
        <ele>684.8</ele>
        <time>2022-04-05T14:09:20Z</time>
      </trkpt>
      <trkpt lat="44.11921" lon="3.02807">
        <ele>685.2</ele>
        <time>2022-04-05T14:09:21Z</time>
      </trkpt>
      <trkpt lat="44.11923" lon="3.02805">
        <ele>685.8</ele>
        <time>2022-04-05T14:09:22Z</time>
      </trkpt>
      <trkpt lat="44.11924" lon="3.02804">
        <ele>686</ele>
        <time>2022-04-05T14:09:23Z</time>
      </trkpt>
      <trkpt lat="44.11926" lon="3.02802">
        <ele>686.2</ele>
        <time>2022-04-05T14:09:24Z</time>
      </trkpt>
      <trkpt lat="44.11928" lon="3.028">
        <ele>686.2</ele>
        <time>2022-04-05T14:09:25Z</time>
      </trkpt>
      <trkpt lat="44.1193" lon="3.02798">
        <ele>686.4</ele>
        <time>2022-04-05T14:09:26Z</time>
      </trkpt>
      <trkpt lat="44.11932" lon="3.02796">
        <ele>686.6</ele>
        <time>2022-04-05T14:09:27Z</time>
      </trkpt>
      <trkpt lat="44.11934" lon="3.02794">
        <ele>686.6</ele>
        <time>2022-04-05T14:09:28Z</time>
      </trkpt>
      <trkpt lat="44.11936" lon="3.02792">
        <ele>686.8</ele>
        <time>2022-04-05T14:09:29Z</time>
      </trkpt>
      <trkpt lat="44.11938" lon="3.0279">
        <ele>686.8</ele>
        <time>2022-04-05T14:09:30Z</time>
      </trkpt>
      <trkpt lat="44.1194" lon="3.02789">
        <ele>686.8</ele>
        <time>2022-04-05T14:09:31Z</time>
      </trkpt>
      <trkpt lat="44.11942" lon="3.02788">
        <ele>686.8</ele>
        <time>2022-04-05T14:09:32Z</time>
      </trkpt>
      <trkpt lat="44.11944" lon="3.02786">
        <ele>687</ele>
        <time>2022-04-05T14:09:33Z</time>
      </trkpt>
      <trkpt lat="44.11945" lon="3.02784">
        <ele>687</ele>
        <time>2022-04-05T14:09:34Z</time>
      </trkpt>
      <trkpt lat="44.11946" lon="3.02781">
        <ele>687.2</ele>
        <time>2022-04-05T14:09:35Z</time>
      </trkpt>
      <trkpt lat="44.11947" lon="3.02779">
        <ele>687.2</ele>
        <time>2022-04-05T14:09:36Z</time>
      </trkpt>
      <trkpt lat="44.11948" lon="3.02777">
        <ele>687.2</ele>
        <time>2022-04-05T14:09:37Z</time>
      </trkpt>
      <trkpt lat="44.1195" lon="3.02774">
        <ele>687.6</ele>
        <time>2022-04-05T14:09:38Z</time>
      </trkpt>
      <trkpt lat="44.11952" lon="3.02772">
        <ele>687.8</ele>
        <time>2022-04-05T14:09:39Z</time>
      </trkpt>
      <trkpt lat="44.11954" lon="3.0277">
        <ele>688</ele>
        <time>2022-04-05T14:09:40Z</time>
      </trkpt>
      <trkpt lat="44.11956" lon="3.02769">
        <ele>688</ele>
        <time>2022-04-05T14:09:41Z</time>
      </trkpt>
      <trkpt lat="44.11958" lon="3.02767">
        <ele>688.2</ele>
        <time>2022-04-05T14:09:42Z</time>
      </trkpt>
      <trkpt lat="44.1196" lon="3.02767">
        <ele>688.2</ele>
        <time>2022-04-05T14:09:43Z</time>
      </trkpt>
      <trkpt lat="44.11962" lon="3.02765">
        <ele>688.4</ele>
        <time>2022-04-05T14:09:44Z</time>
      </trkpt>
      <trkpt lat="44.11964" lon="3.02763">
        <ele>688.6</ele>
        <time>2022-04-05T14:09:45Z</time>
      </trkpt>
      <trkpt lat="44.11965" lon="3.02761">
        <ele>688.6</ele>
        <time>2022-04-05T14:09:46Z</time>
      </trkpt>
      <trkpt lat="44.11967" lon="3.02758">
        <ele>688.6</ele>
        <time>2022-04-05T14:09:47Z</time>
      </trkpt>
      <trkpt lat="44.11968" lon="3.02756">
        <ele>688.8</ele>
        <time>2022-04-05T14:09:48Z</time>
      </trkpt>
      <trkpt lat="44.1197" lon="3.02754">
        <ele>689</ele>
        <time>2022-04-05T14:09:49Z</time>
      </trkpt>
      <trkpt lat="44.11972" lon="3.02752">
        <ele>689</ele>
        <time>2022-04-05T14:09:50Z</time>
      </trkpt>
      <trkpt lat="44.11974" lon="3.0275">
        <ele>689.2</ele>
        <time>2022-04-05T14:09:51Z</time>
      </trkpt>
      <trkpt lat="44.11976" lon="3.02748">
        <ele>689.2</ele>
        <time>2022-04-05T14:09:52Z</time>
      </trkpt>
      <trkpt lat="44.11978" lon="3.02746">
        <ele>689.4</ele>
        <time>2022-04-05T14:09:53Z</time>
      </trkpt>
      <trkpt lat="44.1198" lon="3.02744">
        <ele>689.4</ele>
        <time>2022-04-05T14:09:54Z</time>
      </trkpt>
      <trkpt lat="44.11982" lon="3.02743">
        <ele>689.6</ele>
        <time>2022-04-05T14:09:55Z</time>
      </trkpt>
      <trkpt lat="44.11984" lon="3.02741">
        <ele>689.8</ele>
        <time>2022-04-05T14:09:56Z</time>
      </trkpt>
      <trkpt lat="44.11985" lon="3.02738">
        <ele>690</ele>
        <time>2022-04-05T14:09:57Z</time>
      </trkpt>
      <trkpt lat="44.11987" lon="3.02736">
        <ele>690.4</ele>
        <time>2022-04-05T14:09:58Z</time>
      </trkpt>
      <trkpt lat="44.11989" lon="3.02734">
        <ele>690.4</ele>
        <time>2022-04-05T14:09:59Z</time>
      </trkpt>
      <trkpt lat="44.11991" lon="3.02732">
        <ele>690.8</ele>
        <time>2022-04-05T14:10:00Z</time>
      </trkpt>
      <trkpt lat="44.11992" lon="3.0273">
        <ele>690.8</ele>
        <time>2022-04-05T14:10:01Z</time>
      </trkpt>
      <trkpt lat="44.11994" lon="3.02727">
        <ele>691</ele>
        <time>2022-04-05T14:10:02Z</time>
      </trkpt>
      <trkpt lat="44.11995" lon="3.02724">
        <ele>691.2</ele>
        <time>2022-04-05T14:10:03Z</time>
      </trkpt>
      <trkpt lat="44.11997" lon="3.02722">
        <ele>691.2</ele>
        <time>2022-04-05T14:10:04Z</time>
      </trkpt>
      <trkpt lat="44.11998" lon="3.02718">
        <ele>691.4</ele>
        <time>2022-04-05T14:10:05Z</time>
      </trkpt>
      <trkpt lat="44.12" lon="3.02715">
        <ele>691.6</ele>
        <time>2022-04-05T14:10:06Z</time>
      </trkpt>
      <trkpt lat="44.12001" lon="3.02712">
        <ele>691.6</ele>
        <time>2022-04-05T14:10:07Z</time>
      </trkpt>
      <trkpt lat="44.12003" lon="3.02708">
        <ele>691.8</ele>
        <time>2022-04-05T14:10:08Z</time>
      </trkpt>
      <trkpt lat="44.12004" lon="3.02705">
        <ele>691.8</ele>
        <time>2022-04-05T14:10:09Z</time>
      </trkpt>
      <trkpt lat="44.12006" lon="3.02702">
        <ele>691.8</ele>
        <time>2022-04-05T14:10:10Z</time>
      </trkpt>
      <trkpt lat="44.12008" lon="3.02699">
        <ele>692</ele>
        <time>2022-04-05T14:10:11Z</time>
      </trkpt>
      <trkpt lat="44.1201" lon="3.02695">
        <ele>692.4</ele>
        <time>2022-04-05T14:10:12Z</time>
      </trkpt>
      <trkpt lat="44.12011" lon="3.02692">
        <ele>692.6</ele>
        <time>2022-04-05T14:10:13Z</time>
      </trkpt>
      <trkpt lat="44.12013" lon="3.02689">
        <ele>692.8</ele>
        <time>2022-04-05T14:10:14Z</time>
      </trkpt>
      <trkpt lat="44.12015" lon="3.02686">
        <ele>692.8</ele>
        <time>2022-04-05T14:10:15Z</time>
      </trkpt>
      <trkpt lat="44.12016" lon="3.02682">
        <ele>693</ele>
        <time>2022-04-05T14:10:16Z</time>
      </trkpt>
      <trkpt lat="44.12017" lon="3.02678">
        <ele>693.2</ele>
        <time>2022-04-05T14:10:17Z</time>
      </trkpt>
      <trkpt lat="44.12018" lon="3.02674">
        <ele>693.2</ele>
        <time>2022-04-05T14:10:18Z</time>
      </trkpt>
      <trkpt lat="44.12018" lon="3.0267">
        <ele>693.2</ele>
        <time>2022-04-05T14:10:19Z</time>
      </trkpt>
      <trkpt lat="44.12019" lon="3.02665">
        <ele>693.4</ele>
        <time>2022-04-05T14:10:20Z</time>
      </trkpt>
      <trkpt lat="44.1202" lon="3.02661">
        <ele>693.4</ele>
        <time>2022-04-05T14:10:21Z</time>
      </trkpt>
      <trkpt lat="44.12021" lon="3.02658">
        <ele>693.4</ele>
        <time>2022-04-05T14:10:22Z</time>
      </trkpt>
      <trkpt lat="44.12022" lon="3.02654">
        <ele>693.4</ele>
        <time>2022-04-05T14:10:23Z</time>
      </trkpt>
      <trkpt lat="44.12023" lon="3.0265">
        <ele>693.4</ele>
        <time>2022-04-05T14:10:24Z</time>
      </trkpt>
      <trkpt lat="44.12024" lon="3.02645">
        <ele>693.2</ele>
        <time>2022-04-05T14:10:25Z</time>
      </trkpt>
      <trkpt lat="44.12025" lon="3.02641">
        <ele>693.2</ele>
        <time>2022-04-05T14:10:26Z</time>
      </trkpt>
      <trkpt lat="44.12026" lon="3.02637">
        <ele>693.2</ele>
        <time>2022-04-05T14:10:27Z</time>
      </trkpt>
      <trkpt lat="44.12026" lon="3.02633">
        <ele>693.2</ele>
        <time>2022-04-05T14:10:28Z</time>
      </trkpt>
      <trkpt lat="44.12027" lon="3.02628">
        <ele>693.2</ele>
        <time>2022-04-05T14:10:29Z</time>
      </trkpt>
      <trkpt lat="44.12028" lon="3.02624">
        <ele>693.2</ele>
        <time>2022-04-05T14:10:30Z</time>
      </trkpt>
      <trkpt lat="44.12029" lon="3.0262">
        <ele>693.2</ele>
        <time>2022-04-05T14:10:31Z</time>
      </trkpt>
      <trkpt lat="44.12029" lon="3.02615">
        <ele>693.2</ele>
        <time>2022-04-05T14:10:32Z</time>
      </trkpt>
      <trkpt lat="44.12029" lon="3.0261">
        <ele>693.2</ele>
        <time>2022-04-05T14:10:33Z</time>
      </trkpt>
      <trkpt lat="44.12029" lon="3.02606">
        <ele>693.4</ele>
        <time>2022-04-05T14:10:34Z</time>
      </trkpt>
      <trkpt lat="44.12028" lon="3.02601">
        <ele>693.4</ele>
        <time>2022-04-05T14:10:35Z</time>
      </trkpt>
      <trkpt lat="44.12026" lon="3.02596">
        <ele>693.4</ele>
        <time>2022-04-05T14:10:36Z</time>
      </trkpt>
      <trkpt lat="44.12024" lon="3.02592">
        <ele>693.6</ele>
        <time>2022-04-05T14:10:37Z</time>
      </trkpt>
      <trkpt lat="44.12021" lon="3.02589">
        <ele>693.6</ele>
        <time>2022-04-05T14:10:38Z</time>
      </trkpt>
      <trkpt lat="44.12018" lon="3.02586">
        <ele>693.6</ele>
        <time>2022-04-05T14:10:39Z</time>
      </trkpt>
      <trkpt lat="44.12015" lon="3.02582">
        <ele>693.6</ele>
        <time>2022-04-05T14:10:40Z</time>
      </trkpt>
      <trkpt lat="44.12012" lon="3.02579">
        <ele>693.6</ele>
        <time>2022-04-05T14:10:41Z</time>
      </trkpt>
      <trkpt lat="44.12009" lon="3.02575">
        <ele>693.8</ele>
        <time>2022-04-05T14:10:42Z</time>
      </trkpt>
      <trkpt lat="44.12006" lon="3.02572">
        <ele>693.8</ele>
        <time>2022-04-05T14:10:43Z</time>
      </trkpt>
      <trkpt lat="44.12003" lon="3.02569">
        <ele>693.8</ele>
        <time>2022-04-05T14:10:44Z</time>
      </trkpt>
      <trkpt lat="44.12" lon="3.02566">
        <ele>693.8</ele>
        <time>2022-04-05T14:10:45Z</time>
      </trkpt>
      <trkpt lat="44.11997" lon="3.02563">
        <ele>693.8</ele>
        <time>2022-04-05T14:10:46Z</time>
      </trkpt>
      <trkpt lat="44.11993" lon="3.02559">
        <ele>693.8</ele>
        <time>2022-04-05T14:10:47Z</time>
      </trkpt>
      <trkpt lat="44.1199" lon="3.02556">
        <ele>693.8</ele>
        <time>2022-04-05T14:10:48Z</time>
      </trkpt>
      <trkpt lat="44.11988" lon="3.02553">
        <ele>693.6</ele>
        <time>2022-04-05T14:10:49Z</time>
      </trkpt>
      <trkpt lat="44.11985" lon="3.0255">
        <ele>693.6</ele>
        <time>2022-04-05T14:10:50Z</time>
      </trkpt>
      <trkpt lat="44.11982" lon="3.02546">
        <ele>693.6</ele>
        <time>2022-04-05T14:10:51Z</time>
      </trkpt>
      <trkpt lat="44.1198" lon="3.02543">
        <ele>693.6</ele>
        <time>2022-04-05T14:10:52Z</time>
      </trkpt>
      <trkpt lat="44.11978" lon="3.0254">
        <ele>693.6</ele>
        <time>2022-04-05T14:10:53Z</time>
      </trkpt>
      <trkpt lat="44.11975" lon="3.02537">
        <ele>693.6</ele>
        <time>2022-04-05T14:10:54Z</time>
      </trkpt>
      <trkpt lat="44.11973" lon="3.02534">
        <ele>693.4</ele>
        <time>2022-04-05T14:10:55Z</time>
      </trkpt>
      <trkpt lat="44.11971" lon="3.0253">
        <ele>693.4</ele>
        <time>2022-04-05T14:10:56Z</time>
      </trkpt>
      <trkpt lat="44.11969" lon="3.02527">
        <ele>693.4</ele>
        <time>2022-04-05T14:10:57Z</time>
      </trkpt>
      <trkpt lat="44.11968" lon="3.02524">
        <ele>693.6</ele>
        <time>2022-04-05T14:10:58Z</time>
      </trkpt>
      <trkpt lat="44.11967" lon="3.02522">
        <ele>693.8</ele>
        <time>2022-04-05T14:10:59Z</time>
      </trkpt>
      <trkpt lat="44.11966" lon="3.02519">
        <ele>694</ele>
        <time>2022-04-05T14:11:00Z</time>
      </trkpt>
      <trkpt lat="44.11965" lon="3.02517">
        <ele>694</ele>
        <time>2022-04-05T14:11:01Z</time>
      </trkpt>
      <trkpt lat="44.11964" lon="3.02515">
        <ele>694</ele>
        <time>2022-04-05T14:11:02Z</time>
      </trkpt>
      <trkpt lat="44.11963" lon="3.02513">
        <ele>694.2</ele>
        <time>2022-04-05T14:11:03Z</time>
      </trkpt>
      <trkpt lat="44.11962" lon="3.0251">
        <ele>694.4</ele>
        <time>2022-04-05T14:11:04Z</time>
      </trkpt>
      <trkpt lat="44.11961" lon="3.02508">
        <ele>694.4</ele>
        <time>2022-04-05T14:11:05Z</time>
      </trkpt>
      <trkpt lat="44.1196" lon="3.02506">
        <ele>694.6</ele>
        <time>2022-04-05T14:11:06Z</time>
      </trkpt>
      <trkpt lat="44.11959" lon="3.02504">
        <ele>694.8</ele>
        <time>2022-04-05T14:11:07Z</time>
      </trkpt>
      <trkpt lat="44.11958" lon="3.02502">
        <ele>695</ele>
        <time>2022-04-05T14:11:08Z</time>
      </trkpt>
      <trkpt lat="44.11957" lon="3.025">
        <ele>695</ele>
        <time>2022-04-05T14:11:09Z</time>
      </trkpt>
      <trkpt lat="44.11956" lon="3.02498">
        <ele>695.2</ele>
        <time>2022-04-05T14:11:10Z</time>
      </trkpt>
      <trkpt lat="44.11955" lon="3.02496">
        <ele>695.4</ele>
        <time>2022-04-05T14:11:11Z</time>
      </trkpt>
      <trkpt lat="44.11954" lon="3.02494">
        <ele>695.6</ele>
        <time>2022-04-05T14:11:12Z</time>
      </trkpt>
      <trkpt lat="44.11954" lon="3.02492">
        <ele>696</ele>
        <time>2022-04-05T14:11:13Z</time>
      </trkpt>
      <trkpt lat="44.11953" lon="3.02491">
        <ele>696.2</ele>
        <time>2022-04-05T14:11:14Z</time>
      </trkpt>
      <trkpt lat="44.11952" lon="3.02489">
        <ele>696.6</ele>
        <time>2022-04-05T14:11:15Z</time>
      </trkpt>
      <trkpt lat="44.11951" lon="3.02488">
        <ele>696.8</ele>
        <time>2022-04-05T14:11:16Z</time>
      </trkpt>
      <trkpt lat="44.1195" lon="3.02486">
        <ele>697</ele>
        <time>2022-04-05T14:11:17Z</time>
      </trkpt>
      <trkpt lat="44.11949" lon="3.02484">
        <ele>697.2</ele>
        <time>2022-04-05T14:11:18Z</time>
      </trkpt>
      <trkpt lat="44.11948" lon="3.02483">
        <ele>697.6</ele>
        <time>2022-04-05T14:11:19Z</time>
      </trkpt>
      <trkpt lat="44.11947" lon="3.02481">
        <ele>697.8</ele>
        <time>2022-04-05T14:11:20Z</time>
      </trkpt>
      <trkpt lat="44.11947" lon="3.02479">
        <ele>697.8</ele>
        <time>2022-04-05T14:11:21Z</time>
      </trkpt>
      <trkpt lat="44.11946" lon="3.02477">
        <ele>698</ele>
        <time>2022-04-05T14:11:22Z</time>
      </trkpt>
      <trkpt lat="44.11945" lon="3.02475">
        <ele>698.2</ele>
        <time>2022-04-05T14:11:23Z</time>
      </trkpt>
      <trkpt lat="44.11944" lon="3.02473">
        <ele>698.2</ele>
        <time>2022-04-05T14:11:24Z</time>
      </trkpt>
      <trkpt lat="44.11944" lon="3.02471">
        <ele>698.4</ele>
        <time>2022-04-05T14:11:25Z</time>
      </trkpt>
      <trkpt lat="44.11943" lon="3.02469">
        <ele>698.8</ele>
        <time>2022-04-05T14:11:26Z</time>
      </trkpt>
      <trkpt lat="44.11942" lon="3.02467">
        <ele>699</ele>
        <time>2022-04-05T14:11:27Z</time>
      </trkpt>
      <trkpt lat="44.11941" lon="3.02466">
        <ele>699.2</ele>
        <time>2022-04-05T14:11:28Z</time>
      </trkpt>
      <trkpt lat="44.1194" lon="3.02464">
        <ele>699.2</ele>
        <time>2022-04-05T14:11:29Z</time>
      </trkpt>
      <trkpt lat="44.1194" lon="3.02462">
        <ele>699.4</ele>
        <time>2022-04-05T14:11:30Z</time>
      </trkpt>
      <trkpt lat="44.11939" lon="3.0246">
        <ele>699.6</ele>
        <time>2022-04-05T14:11:31Z</time>
      </trkpt>
      <trkpt lat="44.11938" lon="3.02459">
        <ele>699.8</ele>
        <time>2022-04-05T14:11:32Z</time>
      </trkpt>
      <trkpt lat="44.11938" lon="3.02457">
        <ele>700</ele>
        <time>2022-04-05T14:11:33Z</time>
      </trkpt>
      <trkpt lat="44.11936" lon="3.02455">
        <ele>700.2</ele>
        <time>2022-04-05T14:11:34Z</time>
      </trkpt>
      <trkpt lat="44.11935" lon="3.02454">
        <ele>700.4</ele>
        <time>2022-04-05T14:11:35Z</time>
      </trkpt>
      <trkpt lat="44.11934" lon="3.02452">
        <ele>700.6</ele>
        <time>2022-04-05T14:11:36Z</time>
      </trkpt>
      <trkpt lat="44.11934" lon="3.0245">
        <ele>701</ele>
        <time>2022-04-05T14:11:37Z</time>
      </trkpt>
      <trkpt lat="44.11933" lon="3.02449">
        <ele>701</ele>
        <time>2022-04-05T14:11:38Z</time>
      </trkpt>
      <trkpt lat="44.11932" lon="3.02447">
        <ele>701.4</ele>
        <time>2022-04-05T14:11:39Z</time>
      </trkpt>
      <trkpt lat="44.11931" lon="3.02446">
        <ele>701.6</ele>
        <time>2022-04-05T14:11:40Z</time>
      </trkpt>
      <trkpt lat="44.11931" lon="3.02444">
        <ele>702</ele>
        <time>2022-04-05T14:11:41Z</time>
      </trkpt>
      <trkpt lat="44.1193" lon="3.02442">
        <ele>702.2</ele>
        <time>2022-04-05T14:11:42Z</time>
      </trkpt>
      <trkpt lat="44.11929" lon="3.0244">
        <ele>702.4</ele>
        <time>2022-04-05T14:11:43Z</time>
      </trkpt>
      <trkpt lat="44.11928" lon="3.02438">
        <ele>702.8</ele>
        <time>2022-04-05T14:11:44Z</time>
      </trkpt>
      <trkpt lat="44.11927" lon="3.02437">
        <ele>702.8</ele>
        <time>2022-04-05T14:11:45Z</time>
      </trkpt>
      <trkpt lat="44.11926" lon="3.02435">
        <ele>703.2</ele>
        <time>2022-04-05T14:11:46Z</time>
      </trkpt>
      <trkpt lat="44.11925" lon="3.02434">
        <ele>703.4</ele>
        <time>2022-04-05T14:11:47Z</time>
      </trkpt>
      <trkpt lat="44.11925" lon="3.02432">
        <ele>703.6</ele>
        <time>2022-04-05T14:11:48Z</time>
      </trkpt>
      <trkpt lat="44.11924" lon="3.0243">
        <ele>703.6</ele>
        <time>2022-04-05T14:11:49Z</time>
      </trkpt>
      <trkpt lat="44.11923" lon="3.02428">
        <ele>703.8</ele>
        <time>2022-04-05T14:11:50Z</time>
      </trkpt>
      <trkpt lat="44.11923" lon="3.02427">
        <ele>704</ele>
        <time>2022-04-05T14:11:51Z</time>
      </trkpt>
      <trkpt lat="44.11922" lon="3.02425">
        <ele>704.2</ele>
        <time>2022-04-05T14:11:52Z</time>
      </trkpt>
      <trkpt lat="44.11921" lon="3.02424">
        <ele>704.4</ele>
        <time>2022-04-05T14:11:53Z</time>
      </trkpt>
      <trkpt lat="44.1192" lon="3.02422">
        <ele>704.6</ele>
        <time>2022-04-05T14:11:54Z</time>
      </trkpt>
      <trkpt lat="44.11919" lon="3.0242">
        <ele>704.8</ele>
        <time>2022-04-05T14:11:55Z</time>
      </trkpt>
      <trkpt lat="44.11919" lon="3.02418">
        <ele>705</ele>
        <time>2022-04-05T14:11:56Z</time>
      </trkpt>
      <trkpt lat="44.11918" lon="3.02417">
        <ele>705.2</ele>
        <time>2022-04-05T14:11:57Z</time>
      </trkpt>
      <trkpt lat="44.11917" lon="3.02415">
        <ele>705.4</ele>
        <time>2022-04-05T14:11:58Z</time>
      </trkpt>
      <trkpt lat="44.11917" lon="3.02413">
        <ele>705.4</ele>
        <time>2022-04-05T14:11:59Z</time>
      </trkpt>
      <trkpt lat="44.11916" lon="3.02412">
        <ele>705.4</ele>
        <time>2022-04-05T14:12:00Z</time>
      </trkpt>
      <trkpt lat="44.11914" lon="3.0241">
        <ele>705.6</ele>
        <time>2022-04-05T14:12:01Z</time>
      </trkpt>
      <trkpt lat="44.11914" lon="3.02409">
        <ele>705.6</ele>
        <time>2022-04-05T14:12:02Z</time>
      </trkpt>
      <trkpt lat="44.11913" lon="3.02407">
        <ele>705.6</ele>
        <time>2022-04-05T14:12:03Z</time>
      </trkpt>
      <trkpt lat="44.11912" lon="3.02405">
        <ele>705.8</ele>
        <time>2022-04-05T14:12:04Z</time>
      </trkpt>
      <trkpt lat="44.11911" lon="3.02404">
        <ele>706</ele>
        <time>2022-04-05T14:12:05Z</time>
      </trkpt>
      <trkpt lat="44.1191" lon="3.02402">
        <ele>706.2</ele>
        <time>2022-04-05T14:12:06Z</time>
      </trkpt>
      <trkpt lat="44.1191" lon="3.024">
        <ele>706.2</ele>
        <time>2022-04-05T14:12:07Z</time>
      </trkpt>
      <trkpt lat="44.11909" lon="3.02399">
        <ele>706.4</ele>
        <time>2022-04-05T14:12:08Z</time>
      </trkpt>
      <trkpt lat="44.11908" lon="3.02397">
        <ele>706.6</ele>
        <time>2022-04-05T14:12:09Z</time>
      </trkpt>
      <trkpt lat="44.11907" lon="3.02395">
        <ele>707</ele>
        <time>2022-04-05T14:12:10Z</time>
      </trkpt>
      <trkpt lat="44.11906" lon="3.02393">
        <ele>707.2</ele>
        <time>2022-04-05T14:12:11Z</time>
      </trkpt>
      <trkpt lat="44.11906" lon="3.02392">
        <ele>707.4</ele>
        <time>2022-04-05T14:12:12Z</time>
      </trkpt>
      <trkpt lat="44.11905" lon="3.0239">
        <ele>707.6</ele>
        <time>2022-04-05T14:12:13Z</time>
      </trkpt>
      <trkpt lat="44.11904" lon="3.02388">
        <ele>707.6</ele>
        <time>2022-04-05T14:12:14Z</time>
      </trkpt>
      <trkpt lat="44.11903" lon="3.02387">
        <ele>707.8</ele>
        <time>2022-04-05T14:12:15Z</time>
      </trkpt>
      <trkpt lat="44.11903" lon="3.02385">
        <ele>707.8</ele>
        <time>2022-04-05T14:12:16Z</time>
      </trkpt>
      <trkpt lat="44.11902" lon="3.02384">
        <ele>708</ele>
        <time>2022-04-05T14:12:17Z</time>
      </trkpt>
      <trkpt lat="44.11901" lon="3.02382">
        <ele>708.2</ele>
        <time>2022-04-05T14:12:18Z</time>
      </trkpt>
      <trkpt lat="44.11901" lon="3.0238">
        <ele>708.4</ele>
        <time>2022-04-05T14:12:19Z</time>
      </trkpt>
      <trkpt lat="44.119" lon="3.02378">
        <ele>708.4</ele>
        <time>2022-04-05T14:12:20Z</time>
      </trkpt>
      <trkpt lat="44.11899" lon="3.02376">
        <ele>708.6</ele>
        <time>2022-04-05T14:12:21Z</time>
      </trkpt>
      <trkpt lat="44.11898" lon="3.02375">
        <ele>708.6</ele>
        <time>2022-04-05T14:12:22Z</time>
      </trkpt>
      <trkpt lat="44.11897" lon="3.02373">
        <ele>708.6</ele>
        <time>2022-04-05T14:12:23Z</time>
      </trkpt>
      <trkpt lat="44.11896" lon="3.02371">
        <ele>708.6</ele>
        <time>2022-04-05T14:12:24Z</time>
      </trkpt>
      <trkpt lat="44.11896" lon="3.0237">
        <ele>708.8</ele>
        <time>2022-04-05T14:12:25Z</time>
      </trkpt>
      <trkpt lat="44.11895" lon="3.02368">
        <ele>708.8</ele>
        <time>2022-04-05T14:12:26Z</time>
      </trkpt>
      <trkpt lat="44.11895" lon="3.02366">
        <ele>709</ele>
        <time>2022-04-05T14:12:27Z</time>
      </trkpt>
      <trkpt lat="44.11894" lon="3.02364">
        <ele>709</ele>
        <time>2022-04-05T14:12:28Z</time>
      </trkpt>
      <trkpt lat="44.11893" lon="3.02362">
        <ele>709.2</ele>
        <time>2022-04-05T14:12:29Z</time>
      </trkpt>
      <trkpt lat="44.11892" lon="3.02361">
        <ele>709.4</ele>
        <time>2022-04-05T14:12:30Z</time>
      </trkpt>
      <trkpt lat="44.11891" lon="3.02359">
        <ele>709.6</ele>
        <time>2022-04-05T14:12:31Z</time>
      </trkpt>
      <trkpt lat="44.1189" lon="3.02357">
        <ele>709.8</ele>
        <time>2022-04-05T14:12:32Z</time>
      </trkpt>
      <trkpt lat="44.1189" lon="3.02356">
        <ele>710</ele>
        <time>2022-04-05T14:12:33Z</time>
      </trkpt>
      <trkpt lat="44.11889" lon="3.02354">
        <ele>710.2</ele>
        <time>2022-04-05T14:12:34Z</time>
      </trkpt>
      <trkpt lat="44.11888" lon="3.02353">
        <ele>710.6</ele>
        <time>2022-04-05T14:12:35Z</time>
      </trkpt>
      <trkpt lat="44.11887" lon="3.02351">
        <ele>710.8</ele>
        <time>2022-04-05T14:12:36Z</time>
      </trkpt>
      <trkpt lat="44.11887" lon="3.02349">
        <ele>711</ele>
        <time>2022-04-05T14:12:37Z</time>
      </trkpt>
      <trkpt lat="44.11886" lon="3.02348">
        <ele>711</ele>
        <time>2022-04-05T14:12:38Z</time>
      </trkpt>
      <trkpt lat="44.11885" lon="3.02347">
        <ele>711</ele>
        <time>2022-04-05T14:12:39Z</time>
      </trkpt>
      <trkpt lat="44.11884" lon="3.02345">
        <ele>711.2</ele>
        <time>2022-04-05T14:12:40Z</time>
      </trkpt>
      <trkpt lat="44.11883" lon="3.02343">
        <ele>711.2</ele>
        <time>2022-04-05T14:12:41Z</time>
      </trkpt>
      <trkpt lat="44.11882" lon="3.02341">
        <ele>711.2</ele>
        <time>2022-04-05T14:12:42Z</time>
      </trkpt>
      <trkpt lat="44.11881" lon="3.02339">
        <ele>711.6</ele>
        <time>2022-04-05T14:12:43Z</time>
      </trkpt>
      <trkpt lat="44.11881" lon="3.02337">
        <ele>712</ele>
        <time>2022-04-05T14:12:44Z</time>
      </trkpt>
      <trkpt lat="44.1188" lon="3.02335">
        <ele>712.2</ele>
        <time>2022-04-05T14:12:45Z</time>
      </trkpt>
      <trkpt lat="44.11879" lon="3.02333">
        <ele>712.4</ele>
        <time>2022-04-05T14:12:46Z</time>
      </trkpt>
      <trkpt lat="44.11878" lon="3.02331">
        <ele>712.6</ele>
        <time>2022-04-05T14:12:47Z</time>
      </trkpt>
      <trkpt lat="44.11877" lon="3.02329">
        <ele>712.8</ele>
        <time>2022-04-05T14:12:48Z</time>
      </trkpt>
      <trkpt lat="44.11876" lon="3.02327">
        <ele>712.8</ele>
        <time>2022-04-05T14:12:49Z</time>
      </trkpt>
      <trkpt lat="44.11875" lon="3.02326">
        <ele>713</ele>
        <time>2022-04-05T14:12:50Z</time>
      </trkpt>
      <trkpt lat="44.11875" lon="3.02324">
        <ele>713</ele>
        <time>2022-04-05T14:12:51Z</time>
      </trkpt>
      <trkpt lat="44.11874" lon="3.02322">
        <ele>713.2</ele>
        <time>2022-04-05T14:12:52Z</time>
      </trkpt>
      <trkpt lat="44.11873" lon="3.0232">
        <ele>713.4</ele>
        <time>2022-04-05T14:12:53Z</time>
      </trkpt>
      <trkpt lat="44.11872" lon="3.02318">
        <ele>713.4</ele>
        <time>2022-04-05T14:12:54Z</time>
      </trkpt>
      <trkpt lat="44.11871" lon="3.02316">
        <ele>713.8</ele>
        <time>2022-04-05T14:12:55Z</time>
      </trkpt>
      <trkpt lat="44.1187" lon="3.02314">
        <ele>713.8</ele>
        <time>2022-04-05T14:12:56Z</time>
      </trkpt>
      <trkpt lat="44.1187" lon="3.02312">
        <ele>714.2</ele>
        <time>2022-04-05T14:12:57Z</time>
      </trkpt>
      <trkpt lat="44.11869" lon="3.0231">
        <ele>714.2</ele>
        <time>2022-04-05T14:12:58Z</time>
      </trkpt>
      <trkpt lat="44.11868" lon="3.02308">
        <ele>714.4</ele>
        <time>2022-04-05T14:12:59Z</time>
      </trkpt>
      <trkpt lat="44.11867" lon="3.02306">
        <ele>714.8</ele>
        <time>2022-04-05T14:13:00Z</time>
      </trkpt>
      <trkpt lat="44.11866" lon="3.02304">
        <ele>715</ele>
        <time>2022-04-05T14:13:01Z</time>
      </trkpt>
      <trkpt lat="44.11865" lon="3.02301">
        <ele>715</ele>
        <time>2022-04-05T14:13:02Z</time>
      </trkpt>
      <trkpt lat="44.11865" lon="3.02299">
        <ele>715.2</ele>
        <time>2022-04-05T14:13:03Z</time>
      </trkpt>
      <trkpt lat="44.11864" lon="3.02298">
        <ele>715.4</ele>
        <time>2022-04-05T14:13:04Z</time>
      </trkpt>
      <trkpt lat="44.11863" lon="3.02296">
        <ele>715.6</ele>
        <time>2022-04-05T14:13:05Z</time>
      </trkpt>
      <trkpt lat="44.11862" lon="3.02294">
        <ele>715.8</ele>
        <time>2022-04-05T14:13:06Z</time>
      </trkpt>
      <trkpt lat="44.11861" lon="3.02292">
        <ele>715.8</ele>
        <time>2022-04-05T14:13:07Z</time>
      </trkpt>
      <trkpt lat="44.1186" lon="3.0229">
        <ele>716.2</ele>
        <time>2022-04-05T14:13:08Z</time>
      </trkpt>
      <trkpt lat="44.1186" lon="3.02288">
        <ele>716.2</ele>
        <time>2022-04-05T14:13:09Z</time>
      </trkpt>
      <trkpt lat="44.11859" lon="3.02286">
        <ele>716.6</ele>
        <time>2022-04-05T14:13:10Z</time>
      </trkpt>
      <trkpt lat="44.11858" lon="3.02284">
        <ele>716.6</ele>
        <time>2022-04-05T14:13:11Z</time>
      </trkpt>
      <trkpt lat="44.11857" lon="3.02282">
        <ele>716.8</ele>
        <time>2022-04-05T14:13:12Z</time>
      </trkpt>
      <trkpt lat="44.11856" lon="3.02281">
        <ele>716.8</ele>
        <time>2022-04-05T14:13:13Z</time>
      </trkpt>
      <trkpt lat="44.11855" lon="3.02279">
        <ele>717</ele>
        <time>2022-04-05T14:13:14Z</time>
      </trkpt>
      <trkpt lat="44.11854" lon="3.02277">
        <ele>717.2</ele>
        <time>2022-04-05T14:13:15Z</time>
      </trkpt>
      <trkpt lat="44.11853" lon="3.02275">
        <ele>717.4</ele>
        <time>2022-04-05T14:13:16Z</time>
      </trkpt>
      <trkpt lat="44.11852" lon="3.02272">
        <ele>717.4</ele>
        <time>2022-04-05T14:13:17Z</time>
      </trkpt>
      <trkpt lat="44.11851" lon="3.0227">
        <ele>717.4</ele>
        <time>2022-04-05T14:13:18Z</time>
      </trkpt>
      <trkpt lat="44.1185" lon="3.02268">
        <ele>717.6</ele>
        <time>2022-04-05T14:13:19Z</time>
      </trkpt>
      <trkpt lat="44.11849" lon="3.02266">
        <ele>717.8</ele>
        <time>2022-04-05T14:13:20Z</time>
      </trkpt>
      <trkpt lat="44.11848" lon="3.02264">
        <ele>718.2</ele>
        <time>2022-04-05T14:13:21Z</time>
      </trkpt>
      <trkpt lat="44.11847" lon="3.02262">
        <ele>718.4</ele>
        <time>2022-04-05T14:13:22Z</time>
      </trkpt>
      <trkpt lat="44.11845" lon="3.02259">
        <ele>718.6</ele>
        <time>2022-04-05T14:13:23Z</time>
      </trkpt>
      <trkpt lat="44.11844" lon="3.02257">
        <ele>718.8</ele>
        <time>2022-04-05T14:13:24Z</time>
      </trkpt>
      <trkpt lat="44.11843" lon="3.02254">
        <ele>719</ele>
        <time>2022-04-05T14:13:25Z</time>
      </trkpt>
      <trkpt lat="44.11842" lon="3.02251">
        <ele>719</ele>
        <time>2022-04-05T14:13:26Z</time>
      </trkpt>
      <trkpt lat="44.1184" lon="3.02249">
        <ele>719</ele>
        <time>2022-04-05T14:13:27Z</time>
      </trkpt>
      <trkpt lat="44.11839" lon="3.02246">
        <ele>719.2</ele>
        <time>2022-04-05T14:13:28Z</time>
      </trkpt>
      <trkpt lat="44.11838" lon="3.02244">
        <ele>719.2</ele>
        <time>2022-04-05T14:13:29Z</time>
      </trkpt>
      <trkpt lat="44.11837" lon="3.02241">
        <ele>719.4</ele>
        <time>2022-04-05T14:13:30Z</time>
      </trkpt>
      <trkpt lat="44.11835" lon="3.02239">
        <ele>719.4</ele>
        <time>2022-04-05T14:13:31Z</time>
      </trkpt>
      <trkpt lat="44.11834" lon="3.02236">
        <ele>719.4</ele>
        <time>2022-04-05T14:13:32Z</time>
      </trkpt>
      <trkpt lat="44.11833" lon="3.02233">
        <ele>719.6</ele>
        <time>2022-04-05T14:13:33Z</time>
      </trkpt>
      <trkpt lat="44.11832" lon="3.02231">
        <ele>720</ele>
        <time>2022-04-05T14:13:34Z</time>
      </trkpt>
      <trkpt lat="44.11831" lon="3.02228">
        <ele>720.2</ele>
        <time>2022-04-05T14:13:35Z</time>
      </trkpt>
      <trkpt lat="44.11829" lon="3.02226">
        <ele>720.2</ele>
        <time>2022-04-05T14:13:36Z</time>
      </trkpt>
      <trkpt lat="44.11828" lon="3.02223">
        <ele>720.4</ele>
        <time>2022-04-05T14:13:37Z</time>
      </trkpt>
      <trkpt lat="44.11827" lon="3.02221">
        <ele>720.4</ele>
        <time>2022-04-05T14:13:38Z</time>
      </trkpt>
      <trkpt lat="44.11826" lon="3.02219">
        <ele>720.6</ele>
        <time>2022-04-05T14:13:39Z</time>
      </trkpt>
      <trkpt lat="44.11825" lon="3.02216">
        <ele>720.6</ele>
        <time>2022-04-05T14:13:40Z</time>
      </trkpt>
      <trkpt lat="44.11824" lon="3.02214">
        <ele>720.8</ele>
        <time>2022-04-05T14:13:41Z</time>
      </trkpt>
      <trkpt lat="44.11823" lon="3.02212">
        <ele>721</ele>
        <time>2022-04-05T14:13:42Z</time>
      </trkpt>
      <trkpt lat="44.11822" lon="3.02209">
        <ele>721.2</ele>
        <time>2022-04-05T14:13:43Z</time>
      </trkpt>
      <trkpt lat="44.11821" lon="3.02206">
        <ele>721.2</ele>
        <time>2022-04-05T14:13:44Z</time>
      </trkpt>
      <trkpt lat="44.1182" lon="3.02203">
        <ele>721.4</ele>
        <time>2022-04-05T14:13:45Z</time>
      </trkpt>
      <trkpt lat="44.11819" lon="3.02201">
        <ele>721.6</ele>
        <time>2022-04-05T14:13:46Z</time>
      </trkpt>
      <trkpt lat="44.11819" lon="3.02199">
        <ele>721.6</ele>
        <time>2022-04-05T14:13:47Z</time>
      </trkpt>
      <trkpt lat="44.11818" lon="3.02197">
        <ele>722</ele>
        <time>2022-04-05T14:13:48Z</time>
      </trkpt>
      <trkpt lat="44.11817" lon="3.02195">
        <ele>722</ele>
        <time>2022-04-05T14:13:49Z</time>
      </trkpt>
      <trkpt lat="44.11817" lon="3.02193">
        <ele>722.2</ele>
        <time>2022-04-05T14:13:50Z</time>
      </trkpt>
      <trkpt lat="44.11815" lon="3.02191">
        <ele>722.2</ele>
        <time>2022-04-05T14:13:51Z</time>
      </trkpt>
      <trkpt lat="44.11814" lon="3.02189">
        <ele>722.4</ele>
        <time>2022-04-05T14:13:52Z</time>
      </trkpt>
      <trkpt lat="44.11813" lon="3.02187">
        <ele>722.4</ele>
        <time>2022-04-05T14:13:53Z</time>
      </trkpt>
      <trkpt lat="44.11811" lon="3.02184">
        <ele>722.6</ele>
        <time>2022-04-05T14:13:54Z</time>
      </trkpt>
      <trkpt lat="44.1181" lon="3.02182">
        <ele>722.6</ele>
        <time>2022-04-05T14:13:55Z</time>
      </trkpt>
      <trkpt lat="44.11809" lon="3.02179">
        <ele>722.6</ele>
        <time>2022-04-05T14:13:56Z</time>
      </trkpt>
      <trkpt lat="44.11808" lon="3.02177">
        <ele>722.8</ele>
        <time>2022-04-05T14:13:57Z</time>
      </trkpt>
      <trkpt lat="44.11806" lon="3.02174">
        <ele>723</ele>
        <time>2022-04-05T14:13:58Z</time>
      </trkpt>
      <trkpt lat="44.11805" lon="3.02171">
        <ele>723</ele>
        <time>2022-04-05T14:13:59Z</time>
      </trkpt>
      <trkpt lat="44.11804" lon="3.02169">
        <ele>723</ele>
        <time>2022-04-05T14:14:00Z</time>
      </trkpt>
      <trkpt lat="44.11803" lon="3.02166">
        <ele>723</ele>
        <time>2022-04-05T14:14:01Z</time>
      </trkpt>
      <trkpt lat="44.11802" lon="3.02163">
        <ele>723.2</ele>
        <time>2022-04-05T14:14:02Z</time>
      </trkpt>
      <trkpt lat="44.11801" lon="3.0216">
        <ele>723.2</ele>
        <time>2022-04-05T14:14:03Z</time>
      </trkpt>
      <trkpt lat="44.118" lon="3.02157">
        <ele>723.2</ele>
        <time>2022-04-05T14:14:04Z</time>
      </trkpt>
      <trkpt lat="44.11798" lon="3.02154">
        <ele>723.2</ele>
        <time>2022-04-05T14:14:05Z</time>
      </trkpt>
      <trkpt lat="44.11796" lon="3.02152">
        <ele>723.4</ele>
        <time>2022-04-05T14:14:06Z</time>
      </trkpt>
      <trkpt lat="44.11795" lon="3.02149">
        <ele>723.4</ele>
        <time>2022-04-05T14:14:07Z</time>
      </trkpt>
      <trkpt lat="44.11793" lon="3.02146">
        <ele>723.2</ele>
        <time>2022-04-05T14:14:08Z</time>
      </trkpt>
      <trkpt lat="44.11791" lon="3.02144">
        <ele>723.2</ele>
        <time>2022-04-05T14:14:09Z</time>
      </trkpt>
      <trkpt lat="44.1179" lon="3.02141">
        <ele>723.2</ele>
        <time>2022-04-05T14:14:10Z</time>
      </trkpt>
      <trkpt lat="44.11788" lon="3.02138">
        <ele>723.2</ele>
        <time>2022-04-05T14:14:11Z</time>
      </trkpt>
      <trkpt lat="44.11786" lon="3.02136">
        <ele>723.2</ele>
        <time>2022-04-05T14:14:12Z</time>
      </trkpt>
      <trkpt lat="44.11785" lon="3.02133">
        <ele>723</ele>
        <time>2022-04-05T14:14:13Z</time>
      </trkpt>
      <trkpt lat="44.11783" lon="3.0213">
        <ele>723</ele>
        <time>2022-04-05T14:14:14Z</time>
      </trkpt>
      <trkpt lat="44.11781" lon="3.02127">
        <ele>722.8</ele>
        <time>2022-04-05T14:14:15Z</time>
      </trkpt>
      <trkpt lat="44.11779" lon="3.02125">
        <ele>722.8</ele>
        <time>2022-04-05T14:14:16Z</time>
      </trkpt>
      <trkpt lat="44.11777" lon="3.02121">
        <ele>722.6</ele>
        <time>2022-04-05T14:14:17Z</time>
      </trkpt>
      <trkpt lat="44.11776" lon="3.02117">
        <ele>722.6</ele>
        <time>2022-04-05T14:14:18Z</time>
      </trkpt>
      <trkpt lat="44.11776" lon="3.02112">
        <ele>722.6</ele>
        <time>2022-04-05T14:14:19Z</time>
      </trkpt>
      <trkpt lat="44.11776" lon="3.02108">
        <ele>722.4</ele>
        <time>2022-04-05T14:14:20Z</time>
      </trkpt>
      <trkpt lat="44.11777" lon="3.02105">
        <ele>722.2</ele>
        <time>2022-04-05T14:14:21Z</time>
      </trkpt>
      <trkpt lat="44.11778" lon="3.02101">
        <ele>722</ele>
        <time>2022-04-05T14:14:22Z</time>
      </trkpt>
      <trkpt lat="44.11778" lon="3.02097">
        <ele>722</ele>
        <time>2022-04-05T14:14:23Z</time>
      </trkpt>
      <trkpt lat="44.11778" lon="3.02093">
        <ele>722</ele>
        <time>2022-04-05T14:14:24Z</time>
      </trkpt>
      <trkpt lat="44.11779" lon="3.0209">
        <ele>721.8</ele>
        <time>2022-04-05T14:14:25Z</time>
      </trkpt>
      <trkpt lat="44.11779" lon="3.02086">
        <ele>721.8</ele>
        <time>2022-04-05T14:14:26Z</time>
      </trkpt>
      <trkpt lat="44.11779" lon="3.02082">
        <ele>722</ele>
        <time>2022-04-05T14:14:27Z</time>
      </trkpt>
      <trkpt lat="44.11779" lon="3.02078">
        <ele>722</ele>
        <time>2022-04-05T14:14:28Z</time>
      </trkpt>
      <trkpt lat="44.11779" lon="3.02074">
        <ele>722.2</ele>
        <time>2022-04-05T14:14:29Z</time>
      </trkpt>
      <trkpt lat="44.11779" lon="3.02069">
        <ele>722.2</ele>
        <time>2022-04-05T14:14:30Z</time>
      </trkpt>
      <trkpt lat="44.11779" lon="3.02065">
        <ele>722.2</ele>
        <time>2022-04-05T14:14:31Z</time>
      </trkpt>
      <trkpt lat="44.11779" lon="3.02061">
        <ele>722.2</ele>
        <time>2022-04-05T14:14:32Z</time>
      </trkpt>
      <trkpt lat="44.11779" lon="3.02057">
        <ele>722.4</ele>
        <time>2022-04-05T14:14:33Z</time>
      </trkpt>
      <trkpt lat="44.11779" lon="3.02052">
        <ele>722.4</ele>
        <time>2022-04-05T14:14:34Z</time>
      </trkpt>
      <trkpt lat="44.11779" lon="3.02048">
        <ele>722.4</ele>
        <time>2022-04-05T14:14:35Z</time>
      </trkpt>
      <trkpt lat="44.11779" lon="3.02044">
        <ele>722.4</ele>
        <time>2022-04-05T14:14:36Z</time>
      </trkpt>
      <trkpt lat="44.11779" lon="3.0204">
        <ele>722.4</ele>
        <time>2022-04-05T14:14:37Z</time>
      </trkpt>
      <trkpt lat="44.11779" lon="3.02036">
        <ele>722.6</ele>
        <time>2022-04-05T14:14:38Z</time>
      </trkpt>
      <trkpt lat="44.11779" lon="3.02032">
        <ele>722.6</ele>
        <time>2022-04-05T14:14:39Z</time>
      </trkpt>
      <trkpt lat="44.1178" lon="3.02028">
        <ele>722.6</ele>
        <time>2022-04-05T14:14:40Z</time>
      </trkpt>
      <trkpt lat="44.1178" lon="3.02024">
        <ele>722.6</ele>
        <time>2022-04-05T14:14:41Z</time>
      </trkpt>
      <trkpt lat="44.11781" lon="3.0202">
        <ele>722.6</ele>
        <time>2022-04-05T14:14:42Z</time>
      </trkpt>
      <trkpt lat="44.11782" lon="3.02016">
        <ele>722.6</ele>
        <time>2022-04-05T14:14:43Z</time>
      </trkpt>
      <trkpt lat="44.11784" lon="3.02013">
        <ele>722.8</ele>
        <time>2022-04-05T14:14:44Z</time>
      </trkpt>
      <trkpt lat="44.11785" lon="3.0201">
        <ele>723</ele>
        <time>2022-04-05T14:14:45Z</time>
      </trkpt>
      <trkpt lat="44.11786" lon="3.02007">
        <ele>723.2</ele>
        <time>2022-04-05T14:14:46Z</time>
      </trkpt>
      <trkpt lat="44.11787" lon="3.02004">
        <ele>723.2</ele>
        <time>2022-04-05T14:14:47Z</time>
      </trkpt>
      <trkpt lat="44.11788" lon="3.02">
        <ele>723.4</ele>
        <time>2022-04-05T14:14:48Z</time>
      </trkpt>
      <trkpt lat="44.11789" lon="3.01997">
        <ele>723.4</ele>
        <time>2022-04-05T14:14:49Z</time>
      </trkpt>
      <trkpt lat="44.1179" lon="3.01993">
        <ele>723.6</ele>
        <time>2022-04-05T14:14:50Z</time>
      </trkpt>
      <trkpt lat="44.11791" lon="3.0199">
        <ele>723.6</ele>
        <time>2022-04-05T14:14:51Z</time>
      </trkpt>
      <trkpt lat="44.11792" lon="3.01986">
        <ele>723.8</ele>
        <time>2022-04-05T14:14:52Z</time>
      </trkpt>
      <trkpt lat="44.11793" lon="3.01983">
        <ele>723.8</ele>
        <time>2022-04-05T14:14:53Z</time>
      </trkpt>
      <trkpt lat="44.11794" lon="3.01979">
        <ele>724</ele>
        <time>2022-04-05T14:14:54Z</time>
      </trkpt>
      <trkpt lat="44.11795" lon="3.01976">
        <ele>724</ele>
        <time>2022-04-05T14:14:55Z</time>
      </trkpt>
      <trkpt lat="44.11796" lon="3.01972">
        <ele>724.4</ele>
        <time>2022-04-05T14:14:56Z</time>
      </trkpt>
      <trkpt lat="44.11797" lon="3.01968">
        <ele>724.6</ele>
        <time>2022-04-05T14:14:57Z</time>
      </trkpt>
      <trkpt lat="44.11798" lon="3.01965">
        <ele>724.6</ele>
        <time>2022-04-05T14:14:58Z</time>
      </trkpt>
      <trkpt lat="44.11799" lon="3.01961">
        <ele>724.8</ele>
        <time>2022-04-05T14:14:59Z</time>
      </trkpt>
      <trkpt lat="44.118" lon="3.01957">
        <ele>725</ele>
        <time>2022-04-05T14:15:00Z</time>
      </trkpt>
      <trkpt lat="44.11801" lon="3.01953">
        <ele>725.6</ele>
        <time>2022-04-05T14:15:01Z</time>
      </trkpt>
      <trkpt lat="44.11802" lon="3.01949">
        <ele>725.8</ele>
        <time>2022-04-05T14:15:02Z</time>
      </trkpt>
      <trkpt lat="44.11803" lon="3.01945">
        <ele>726</ele>
        <time>2022-04-05T14:15:03Z</time>
      </trkpt>
      <trkpt lat="44.11804" lon="3.01942">
        <ele>726.2</ele>
        <time>2022-04-05T14:15:04Z</time>
      </trkpt>
      <trkpt lat="44.11806" lon="3.01938">
        <ele>726.2</ele>
        <time>2022-04-05T14:15:05Z</time>
      </trkpt>
      <trkpt lat="44.11807" lon="3.01935">
        <ele>726.4</ele>
        <time>2022-04-05T14:15:06Z</time>
      </trkpt>
      <trkpt lat="44.11808" lon="3.01931">
        <ele>726.6</ele>
        <time>2022-04-05T14:15:07Z</time>
      </trkpt>
      <trkpt lat="44.11809" lon="3.01927">
        <ele>726.8</ele>
        <time>2022-04-05T14:15:08Z</time>
      </trkpt>
      <trkpt lat="44.1181" lon="3.01924">
        <ele>726.8</ele>
        <time>2022-04-05T14:15:09Z</time>
      </trkpt>
      <trkpt lat="44.1181" lon="3.01921">
        <ele>727</ele>
        <time>2022-04-05T14:15:10Z</time>
      </trkpt>
      <trkpt lat="44.11811" lon="3.01916">
        <ele>727</ele>
        <time>2022-04-05T14:15:11Z</time>
      </trkpt>
      <trkpt lat="44.11811" lon="3.01913">
        <ele>727.2</ele>
        <time>2022-04-05T14:15:12Z</time>
      </trkpt>
      <trkpt lat="44.11812" lon="3.01909">
        <ele>727.2</ele>
        <time>2022-04-05T14:15:13Z</time>
      </trkpt>
      <trkpt lat="44.11812" lon="3.01905">
        <ele>727.2</ele>
        <time>2022-04-05T14:15:14Z</time>
      </trkpt>
      <trkpt lat="44.11813" lon="3.01901">
        <ele>727.2</ele>
        <time>2022-04-05T14:15:15Z</time>
      </trkpt>
      <trkpt lat="44.11813" lon="3.01896">
        <ele>727.2</ele>
        <time>2022-04-05T14:15:16Z</time>
      </trkpt>
      <trkpt lat="44.11812" lon="3.01889">
        <ele>727</ele>
        <time>2022-04-05T14:15:17Z</time>
      </trkpt>
      <trkpt lat="44.11811" lon="3.01885">
        <ele>727</ele>
        <time>2022-04-05T14:15:18Z</time>
      </trkpt>
      <trkpt lat="44.11809" lon="3.01878">
        <ele>727</ele>
        <time>2022-04-05T14:15:19Z</time>
      </trkpt>
      <trkpt lat="44.11807" lon="3.01871">
        <ele>727</ele>
        <time>2022-04-05T14:15:20Z</time>
      </trkpt>
      <trkpt lat="44.11805" lon="3.01865">
        <ele>726.8</ele>
        <time>2022-04-05T14:15:21Z</time>
      </trkpt>
      <trkpt lat="44.11802" lon="3.01857">
        <ele>726.6</ele>
        <time>2022-04-05T14:15:22Z</time>
      </trkpt>
      <trkpt lat="44.11799" lon="3.01848">
        <ele>726</ele>
        <time>2022-04-05T14:15:23Z</time>
      </trkpt>
      <trkpt lat="44.11796" lon="3.01839">
        <ele>725.8</ele>
        <time>2022-04-05T14:15:24Z</time>
      </trkpt>
      <trkpt lat="44.11794" lon="3.0183">
        <ele>725.4</ele>
        <time>2022-04-05T14:15:25Z</time>
      </trkpt>
      <trkpt lat="44.11791" lon="3.01822">
        <ele>725.4</ele>
        <time>2022-04-05T14:15:26Z</time>
      </trkpt>
      <trkpt lat="44.11787" lon="3.01815">
        <ele>724.6</ele>
        <time>2022-04-05T14:15:27Z</time>
      </trkpt>
      <trkpt lat="44.11782" lon="3.0181">
        <ele>723.8</ele>
        <time>2022-04-05T14:15:28Z</time>
      </trkpt>
      <trkpt lat="44.11777" lon="3.01807">
        <ele>723.4</ele>
        <time>2022-04-05T14:15:29Z</time>
      </trkpt>
      <trkpt lat="44.11775" lon="3.01806">
        <ele>722</ele>
        <time>2022-04-05T14:15:30Z</time>
      </trkpt>
      <trkpt lat="44.11773" lon="3.01806">
        <ele>721</ele>
        <time>2022-04-05T14:15:31Z</time>
      </trkpt>
      <trkpt lat="44.11772" lon="3.01805">
        <ele>719.6</ele>
        <time>2022-04-05T14:15:32Z</time>
      </trkpt>
      <trkpt lat="44.1177" lon="3.01804">
        <ele>718.6</ele>
        <time>2022-04-05T14:15:33Z</time>
      </trkpt>
      <trkpt lat="44.11769" lon="3.01802">
        <ele>717.2</ele>
        <time>2022-04-05T14:15:34Z</time>
      </trkpt>
      <trkpt lat="44.11767" lon="3.01801">
        <ele>716.6</ele>
        <time>2022-04-05T14:15:35Z</time>
      </trkpt>
      <trkpt lat="44.11766" lon="3.01801">
        <ele>715.4</ele>
        <time>2022-04-05T14:15:36Z</time>
      </trkpt>
      <trkpt lat="44.11763" lon="3.01801">
        <ele>714.8</ele>
        <time>2022-04-05T14:15:37Z</time>
      </trkpt>
      <trkpt lat="44.11761" lon="3.018">
        <ele>714.6</ele>
        <time>2022-04-05T14:15:38Z</time>
      </trkpt>
      <trkpt lat="44.11758" lon="3.01799">
        <ele>714.2</ele>
        <time>2022-04-05T14:15:39Z</time>
      </trkpt>
      <trkpt lat="44.11755" lon="3.01797">
        <ele>714</ele>
        <time>2022-04-05T14:15:40Z</time>
      </trkpt>
      <trkpt lat="44.11752" lon="3.01796">
        <ele>713.8</ele>
        <time>2022-04-05T14:15:41Z</time>
      </trkpt>
      <trkpt lat="44.11749" lon="3.01795">
        <ele>713.8</ele>
        <time>2022-04-05T14:15:42Z</time>
      </trkpt>
      <trkpt lat="44.11745" lon="3.01793">
        <ele>713</ele>
        <time>2022-04-05T14:15:43Z</time>
      </trkpt>
      <trkpt lat="44.11743" lon="3.01792">
        <ele>713</ele>
        <time>2022-04-05T14:15:44Z</time>
      </trkpt>
      <trkpt lat="44.11741" lon="3.0179">
        <ele>712.6</ele>
        <time>2022-04-05T14:15:45Z</time>
      </trkpt>
      <trkpt lat="44.11739" lon="3.01788">
        <ele>712.6</ele>
        <time>2022-04-05T14:15:46Z</time>
      </trkpt>
      <trkpt lat="44.11736" lon="3.01786">
        <ele>712.2</ele>
        <time>2022-04-05T14:15:47Z</time>
      </trkpt>
      <trkpt lat="44.11736" lon="3.01786">
        <ele>711.8</ele>
        <time>2022-04-05T14:15:48Z</time>
      </trkpt>
      <trkpt lat="44.11735" lon="3.01785">
        <ele>711.6</ele>
        <time>2022-04-05T14:15:49Z</time>
      </trkpt>
      <trkpt lat="44.11734" lon="3.01783">
        <ele>711.6</ele>
        <time>2022-04-05T14:15:50Z</time>
      </trkpt>
      <trkpt lat="44.11731" lon="3.01781">
        <ele>711.6</ele>
        <time>2022-04-05T14:15:51Z</time>
      </trkpt>
      <trkpt lat="44.11729" lon="3.01779">
        <ele>711.4</ele>
        <time>2022-04-05T14:15:52Z</time>
      </trkpt>
      <trkpt lat="44.11726" lon="3.01776">
        <ele>711.4</ele>
        <time>2022-04-05T14:15:53Z</time>
      </trkpt>
      <trkpt lat="44.11723" lon="3.01774">
        <ele>711.2</ele>
        <time>2022-04-05T14:15:54Z</time>
      </trkpt>
      <trkpt lat="44.1172" lon="3.01769">
        <ele>711.4</ele>
        <time>2022-04-05T14:15:55Z</time>
      </trkpt>
      <trkpt lat="44.11717" lon="3.01765">
        <ele>711.4</ele>
        <time>2022-04-05T14:15:56Z</time>
      </trkpt>
      <trkpt lat="44.11715" lon="3.0176">
        <ele>711.4</ele>
        <time>2022-04-05T14:15:57Z</time>
      </trkpt>
      <trkpt lat="44.11713" lon="3.01757">
        <ele>711.2</ele>
        <time>2022-04-05T14:15:58Z</time>
      </trkpt>
      <trkpt lat="44.1171" lon="3.01752">
        <ele>711</ele>
        <time>2022-04-05T14:15:59Z</time>
      </trkpt>
      <trkpt lat="44.11707" lon="3.01748">
        <ele>711</ele>
        <time>2022-04-05T14:16:00Z</time>
      </trkpt>
      <trkpt lat="44.11692" lon="3.01727">
        <ele>693.1</ele>
      </trkpt>
      <trkpt lat="44.11684" lon="3.01719">
        <ele>692.5</ele>
      </trkpt>
      <trkpt lat="44.11675" lon="3.01709">
        <ele>692.6</ele>
        <time>2021-03-06T13:56:13Z</time>
      </trkpt>
      <trkpt lat="44.11673" lon="3.01703">
        <ele>692.6</ele>
        <time>2021-03-06T13:56:14Z</time>
      </trkpt>
      <trkpt lat="44.11673" lon="3.01697">
        <ele>692.5</ele>
        <time>2021-03-06T13:56:15Z</time>
      </trkpt>
      <trkpt lat="44.11671" lon="3.01683">
        <ele>692.5</ele>
        <time>2021-03-06T13:56:17Z</time>
      </trkpt>
      <trkpt lat="44.11669" lon="3.01676">
        <ele>692.3</ele>
        <time>2021-03-06T13:56:18Z</time>
      </trkpt>
      <trkpt lat="44.11666" lon="3.0167">
        <ele>692.4</ele>
        <time>2021-03-06T13:56:19Z</time>
      </trkpt>
      <trkpt lat="44.11664" lon="3.01664">
        <ele>692.4</ele>
        <time>2021-03-06T13:56:20Z</time>
      </trkpt>
      <trkpt lat="44.11659" lon="3.0166">
        <ele>692.4</ele>
        <time>2021-03-06T13:56:21Z</time>
      </trkpt>
      <trkpt lat="44.11649" lon="3.01653">
        <ele>692.6</ele>
        <time>2021-03-06T13:56:23Z</time>
      </trkpt>
      <trkpt lat="44.11645" lon="3.01649">
        <ele>692.6</ele>
        <time>2021-03-06T13:56:24Z</time>
      </trkpt>
      <trkpt lat="44.11642" lon="3.01644">
        <ele>692.5</ele>
        <time>2021-03-06T13:56:25Z</time>
      </trkpt>
      <trkpt lat="44.11637" lon="3.01635">
        <ele>692.4</ele>
        <time>2021-03-06T13:56:27Z</time>
      </trkpt>
      <trkpt lat="44.1163" lon="3.01624">
        <ele>692.6</ele>
        <time>2021-03-06T13:56:29Z</time>
      </trkpt>
      <trkpt lat="44.11628" lon="3.01618">
        <ele>692.5</ele>
        <time>2021-03-06T13:56:30Z</time>
      </trkpt>
      <trkpt lat="44.11622" lon="3.01608">
        <ele>692.5</ele>
        <time>2021-03-06T13:56:32Z</time>
      </trkpt>
      <trkpt lat="44.11617" lon="3.01601">
        <ele>692.5</ele>
        <time>2021-03-06T13:56:34Z</time>
      </trkpt>
      <trkpt lat="44.11612" lon="3.01597">
        <ele>692.6</ele>
        <time>2021-03-06T13:56:35Z</time>
      </trkpt>
      <trkpt lat="44.11603" lon="3.01591">
        <ele>692.8</ele>
        <time>2021-03-06T13:56:37Z</time>
      </trkpt>
      <trkpt lat="44.11601" lon="3.01579">
        <ele>692.9</ele>
        <time>2021-03-06T13:56:39Z</time>
      </trkpt>
      <trkpt lat="44.11605" lon="3.01575">
        <ele>692.7</ele>
        <time>2021-03-06T13:56:40Z</time>
      </trkpt>
      <trkpt lat="44.11605" lon="3.01569">
        <ele>692.7</ele>
        <time>2021-03-06T13:56:41Z</time>
      </trkpt>
      <trkpt lat="44.11602" lon="3.01563">
        <ele>692.9</ele>
        <time>2021-03-06T13:56:43Z</time>
      </trkpt>
      <trkpt lat="44.11599" lon="3.01558">
        <ele>693.1</ele>
        <time>2021-03-06T13:56:44Z</time>
      </trkpt>
      <trkpt lat="44.11592" lon="3.01549">
        <ele>693.6</ele>
        <time>2021-03-06T13:56:46Z</time>
      </trkpt>
      <trkpt lat="44.11588" lon="3.01542">
        <ele>693.9</ele>
        <time>2021-03-06T13:56:47Z</time>
      </trkpt>
      <trkpt lat="44.11586" lon="3.01535">
        <ele>694.1</ele>
        <time>2021-03-06T13:56:48Z</time>
      </trkpt>
      <trkpt lat="44.11582" lon="3.01526">
        <ele>694.3</ele>
        <time>2021-03-06T13:56:50Z</time>
      </trkpt>
      <trkpt lat="44.11579" lon="3.01521">
        <ele>694.5</ele>
        <time>2021-03-06T13:56:51Z</time>
      </trkpt>
      <trkpt lat="44.11575" lon="3.01514">
        <ele>694.7</ele>
        <time>2021-03-06T13:56:52Z</time>
      </trkpt>
      <trkpt lat="44.11574" lon="3.0151">
        <ele>694.7</ele>
        <time>2021-03-06T13:56:53Z</time>
      </trkpt>
      <trkpt lat="44.11572" lon="3.01504">
        <ele>694.7</ele>
        <time>2021-03-06T13:56:55Z</time>
      </trkpt>
      <trkpt lat="44.1157" lon="3.01498">
        <ele>694.7</ele>
        <time>2021-03-06T13:56:56Z</time>
      </trkpt>
      <trkpt lat="44.1157" lon="3.01492">
        <ele>694.6</ele>
        <time>2021-03-06T13:56:57Z</time>
      </trkpt>
      <trkpt lat="44.11567" lon="3.01486">
        <ele>694.6</ele>
        <time>2021-03-06T13:56:58Z</time>
      </trkpt>
      <trkpt lat="44.11566" lon="3.0148">
        <ele>694.5</ele>
        <time>2021-03-06T13:56:59Z</time>
      </trkpt>
      <trkpt lat="44.11565" lon="3.01471">
        <ele>694.4</ele>
        <time>2021-03-06T13:57:01Z</time>
      </trkpt>
      <trkpt lat="44.11563" lon="3.01462">
        <ele>694.4</ele>
        <time>2021-03-06T13:57:02Z</time>
      </trkpt>
      <trkpt lat="44.11559" lon="3.01456">
        <ele>694.4</ele>
        <time>2021-03-06T13:57:04Z</time>
      </trkpt>
      <trkpt lat="44.11557" lon="3.01452">
        <ele>694.3</ele>
        <time>2021-03-06T13:57:05Z</time>
      </trkpt>
      <trkpt lat="44.11556" lon="3.01447">
        <ele>694.3</ele>
        <time>2021-03-06T13:57:06Z</time>
      </trkpt>
      <trkpt lat="44.11555" lon="3.0144">
        <ele>694.3</ele>
        <time>2021-03-06T13:57:07Z</time>
      </trkpt>
      <trkpt lat="44.11554" lon="3.01435">
        <ele>694.2</ele>
        <time>2021-03-06T13:57:08Z</time>
      </trkpt>
      <trkpt lat="44.11552" lon="3.0143">
        <ele>694.2</ele>
        <time>2021-03-06T13:57:09Z</time>
      </trkpt>
      <trkpt lat="44.11551" lon="3.01424">
        <ele>694</ele>
        <time>2021-03-06T13:57:10Z</time>
      </trkpt>
      <trkpt lat="44.11549" lon="3.0142">
        <ele>694</ele>
        <time>2021-03-06T13:57:11Z</time>
      </trkpt>
      <trkpt lat="44.11546" lon="3.01412">
        <ele>693.9</ele>
        <time>2021-03-06T13:57:13Z</time>
      </trkpt>
      <trkpt lat="44.11544" lon="3.01406">
        <ele>693.7</ele>
        <time>2021-03-06T13:57:14Z</time>
      </trkpt>
      <trkpt lat="44.1154" lon="3.01399">
        <ele>693.6</ele>
        <time>2021-03-06T13:57:15Z</time>
      </trkpt>
      <trkpt lat="44.11536" lon="3.01393">
        <ele>693.5</ele>
        <time>2021-03-06T13:57:17Z</time>
      </trkpt>
      <trkpt lat="44.1153" lon="3.01384">
        <ele>693.3</ele>
        <time>2021-03-06T13:57:19Z</time>
      </trkpt>
      <trkpt lat="44.11528" lon="3.0138">
        <ele>693.2</ele>
        <time>2021-03-06T13:57:20Z</time>
      </trkpt>
      <trkpt lat="44.11524" lon="3.01377">
        <ele>693.1</ele>
        <time>2021-03-06T13:57:21Z</time>
      </trkpt>
      <trkpt lat="44.11521" lon="3.01374">
        <ele>693</ele>
        <time>2021-03-06T13:57:22Z</time>
      </trkpt>
      <trkpt lat="44.11518" lon="3.0137">
        <ele>692.9</ele>
        <time>2021-03-06T13:57:23Z</time>
      </trkpt>
      <trkpt lat="44.11513" lon="3.01365">
        <ele>692.7</ele>
        <time>2021-03-06T13:57:24Z</time>
      </trkpt>
      <trkpt lat="44.1151" lon="3.01359">
        <ele>692.6</ele>
        <time>2021-03-06T13:57:25Z</time>
      </trkpt>
      <trkpt lat="44.11502" lon="3.01357">
        <ele>692.6</ele>
        <time>2021-03-06T13:57:27Z</time>
      </trkpt>
      <trkpt lat="44.11497" lon="3.01355">
        <ele>692.6</ele>
        <time>2021-03-06T13:57:28Z</time>
      </trkpt>
      <trkpt lat="44.11491" lon="3.01355">
        <ele>692.5</ele>
        <time>2021-03-06T13:57:29Z</time>
      </trkpt>
      <trkpt lat="44.11481" lon="3.01356">
        <ele>692.4</ele>
        <time>2021-03-06T13:57:31Z</time>
      </trkpt>
      <trkpt lat="44.11474" lon="3.01355">
        <ele>692.2</ele>
        <time>2021-03-06T13:57:32Z</time>
      </trkpt>
      <trkpt lat="44.11468" lon="3.01353">
        <ele>692.1</ele>
        <time>2021-03-06T13:57:33Z</time>
      </trkpt>
      <trkpt lat="44.11462" lon="3.0135">
        <ele>691.9</ele>
        <time>2021-03-06T13:57:34Z</time>
      </trkpt>
      <trkpt lat="44.11452" lon="3.01343">
        <ele>691.7</ele>
        <time>2021-03-06T13:57:36Z</time>
      </trkpt>
      <trkpt lat="44.11442" lon="3.01334">
        <ele>691.5</ele>
        <time>2021-03-06T13:57:38Z</time>
      </trkpt>
      <trkpt lat="44.11438" lon="3.0133">
        <ele>691.5</ele>
        <time>2021-03-06T13:57:39Z</time>
      </trkpt>
      <trkpt lat="44.11428" lon="3.0132">
        <ele>691.3</ele>
        <time>2021-03-06T13:57:41Z</time>
      </trkpt>
      <trkpt lat="44.11423" lon="3.01315">
        <ele>691.1</ele>
        <time>2021-03-06T13:57:42Z</time>
      </trkpt>
      <trkpt lat="44.11413" lon="3.01309">
        <ele>690.9</ele>
        <time>2021-03-06T13:57:44Z</time>
      </trkpt>
      <trkpt lat="44.11403" lon="3.013">
        <ele>690.6</ele>
        <time>2021-03-06T13:57:46Z</time>
      </trkpt>
      <trkpt lat="44.11398" lon="3.01295">
        <ele>690.5</ele>
        <time>2021-03-06T13:57:47Z</time>
      </trkpt>
      <trkpt lat="44.11394" lon="3.01289">
        <ele>690.4</ele>
        <time>2021-03-06T13:57:48Z</time>
      </trkpt>
      <trkpt lat="44.11386" lon="3.01277">
        <ele>690.3</ele>
        <time>2021-03-06T13:57:50Z</time>
      </trkpt>
      <trkpt lat="44.11382" lon="3.01271">
        <ele>690.2</ele>
        <time>2021-03-06T13:57:51Z</time>
      </trkpt>
      <trkpt lat="44.11372" lon="3.01262">
        <ele>689.8</ele>
        <time>2021-03-06T13:57:53Z</time>
      </trkpt>
      <trkpt lat="44.11363" lon="3.01251">
        <ele>689.3</ele>
        <time>2021-03-06T13:57:55Z</time>
      </trkpt>
      <trkpt lat="44.1136" lon="3.01244">
        <ele>689.1</ele>
        <time>2021-03-06T13:57:56Z</time>
      </trkpt>
      <trkpt lat="44.11352" lon="3.01233">
        <ele>688.4</ele>
        <time>2021-03-06T13:57:58Z</time>
      </trkpt>
      <trkpt lat="44.11347" lon="3.01221">
        <ele>688.1</ele>
        <time>2021-03-06T13:58:00Z</time>
      </trkpt>
      <trkpt lat="44.11348" lon="3.01213">
        <ele>688.3</ele>
        <time>2021-03-06T13:58:01Z</time>
      </trkpt>
      <trkpt lat="44.11352" lon="3.01199">
        <ele>688.5</ele>
        <time>2021-03-06T13:58:03Z</time>
      </trkpt>
      <trkpt lat="44.11352" lon="3.01193">
        <ele>688.6</ele>
        <time>2021-03-06T13:58:04Z</time>
      </trkpt>
      <trkpt lat="44.11352" lon="3.01179">
        <ele>688.6</ele>
        <time>2021-03-06T13:58:06Z</time>
      </trkpt>
      <trkpt lat="44.11351" lon="3.01172">
        <ele>688.7</ele>
        <time>2021-03-06T13:58:07Z</time>
      </trkpt>
      <trkpt lat="44.11348" lon="3.01156">
        <ele>688.6</ele>
        <time>2021-03-06T13:58:09Z</time>
      </trkpt>
      <trkpt lat="44.11348" lon="3.01148">
        <ele>688.5</ele>
        <time>2021-03-06T13:58:10Z</time>
      </trkpt>
      <trkpt lat="44.11345" lon="3.01133">
        <ele>688.2</ele>
        <time>2021-03-06T13:58:12Z</time>
      </trkpt>
      <trkpt lat="44.11344" lon="3.01126">
        <ele>688.1</ele>
        <time>2021-03-06T13:58:13Z</time>
      </trkpt>
      <trkpt lat="44.11343" lon="3.01119">
        <ele>687.9</ele>
        <time>2021-03-06T13:58:14Z</time>
      </trkpt>
      <trkpt lat="44.11339" lon="3.01105">
        <ele>687.5</ele>
        <time>2021-03-06T13:58:16Z</time>
      </trkpt>
      <trkpt lat="44.11338" lon="3.01089">
        <ele>687</ele>
        <time>2021-03-06T13:58:18Z</time>
      </trkpt>
      <trkpt lat="44.11335" lon="3.01073">
        <ele>686.4</ele>
        <time>2021-03-06T13:58:20Z</time>
      </trkpt>
      <trkpt lat="44.11335" lon="3.01065">
        <ele>686.1</ele>
        <time>2021-03-06T13:58:21Z</time>
      </trkpt>
      <trkpt lat="44.11334" lon="3.01048">
        <ele>685.6</ele>
        <time>2021-03-06T13:58:23Z</time>
      </trkpt>
      <trkpt lat="44.11333" lon="3.0104">
        <ele>685.5</ele>
        <time>2021-03-06T13:58:24Z</time>
      </trkpt>
      <trkpt lat="44.1133" lon="3.01021">
        <ele>684.7</ele>
        <time>2021-03-06T13:58:26Z</time>
      </trkpt>
      <trkpt lat="44.11324" lon="3.01004">
        <ele>683.7</ele>
        <time>2021-03-06T13:58:28Z</time>
      </trkpt>
      <trkpt lat="44.11322" lon="3.00994">
        <ele>683.1</ele>
        <time>2021-03-06T13:58:29Z</time>
      </trkpt>
      <trkpt lat="44.11317" lon="3.00975">
        <ele>682.1</ele>
        <time>2021-03-06T13:58:31Z</time>
      </trkpt>
      <trkpt lat="44.11311" lon="3.0096">
        <ele>681.2</ele>
        <time>2021-03-06T13:58:33Z</time>
      </trkpt>
      <trkpt lat="44.11311" lon="3.00953">
        <ele>680.8</ele>
        <time>2021-03-06T13:58:34Z</time>
      </trkpt>
      <trkpt lat="44.11312" lon="3.00946">
        <ele>680.5</ele>
        <time>2021-03-06T13:58:35Z</time>
      </trkpt>
      <trkpt lat="44.11307" lon="3.00933">
        <ele>679.7</ele>
        <time>2021-03-06T13:58:37Z</time>
      </trkpt>
      <trkpt lat="44.11304" lon="3.00926">
        <ele>679.3</ele>
        <time>2021-03-06T13:58:38Z</time>
      </trkpt>
      <trkpt lat="44.11299" lon="3.0091">
        <ele>678.4</ele>
        <time>2021-03-06T13:58:40Z</time>
      </trkpt>
      <trkpt lat="44.11297" lon="3.00901">
        <ele>677.8</ele>
        <time>2021-03-06T13:58:41Z</time>
      </trkpt>
      <trkpt lat="44.11294" lon="3.00891">
        <ele>677.1</ele>
        <time>2021-03-06T13:58:42Z</time>
      </trkpt>
      <trkpt lat="44.11289" lon="3.0087">
        <ele>675.4</ele>
        <time>2021-03-06T13:58:44Z</time>
      </trkpt>
      <trkpt lat="44.11283" lon="3.0085">
        <ele>673.3</ele>
        <time>2021-03-06T13:58:46Z</time>
      </trkpt>
      <trkpt lat="44.11282" lon="3.00838">
        <ele>672.1</ele>
        <time>2021-03-06T13:58:47Z</time>
      </trkpt>
      <trkpt lat="44.11282" lon="3.00814">
        <ele>669.4</ele>
        <time>2021-03-06T13:58:49Z</time>
      </trkpt>
      <trkpt lat="44.11283" lon="3.00792">
        <ele>665.9</ele>
        <time>2021-03-06T13:58:51Z</time>
      </trkpt>
      <trkpt lat="44.1128" lon="3.00776">
        <ele>663.3</ele>
        <time>2021-03-06T13:58:53Z</time>
      </trkpt>
      <trkpt lat="44.11278" lon="3.00769">
        <ele>661.9</ele>
        <time>2021-03-06T13:58:55Z</time>
      </trkpt>
      <trkpt lat="44.11279" lon="3.00761">
        <ele>660.6</ele>
        <time>2021-03-06T13:58:56Z</time>
      </trkpt>
      <trkpt lat="44.11278" lon="3.00748">
        <ele>658.4</ele>
        <time>2021-03-06T13:58:58Z</time>
      </trkpt>
      <trkpt lat="44.11274" lon="3.00742">
        <ele>657</ele>
        <time>2021-03-06T13:58:59Z</time>
      </trkpt>
      <trkpt lat="44.11271" lon="3.00736">
        <ele>655.7</ele>
        <time>2021-03-06T13:59:00Z</time>
      </trkpt>
      <trkpt lat="44.11271" lon="3.0073">
        <ele>654.8</ele>
        <time>2021-03-06T13:59:01Z</time>
      </trkpt>
      <trkpt lat="44.11275" lon="3.0072">
        <ele>652.8</ele>
        <time>2021-03-06T13:59:03Z</time>
      </trkpt>
      <trkpt lat="44.11278" lon="3.00713">
        <ele>651.5</ele>
        <time>2021-03-06T13:59:04Z</time>
      </trkpt>
      <trkpt lat="44.11282" lon="3.00701">
        <ele>649.2</ele>
        <time>2021-03-06T13:59:06Z</time>
      </trkpt>
      <trkpt lat="44.11284" lon="3.00694">
        <ele>647.9</ele>
        <time>2021-03-06T13:59:07Z</time>
      </trkpt>
      <trkpt lat="44.11286" lon="3.00687">
        <ele>646.5</ele>
        <time>2021-03-06T13:59:08Z</time>
      </trkpt>
      <trkpt lat="44.11287" lon="3.0068">
        <ele>645.2</ele>
        <time>2021-03-06T13:59:09Z</time>
      </trkpt>
      <trkpt lat="44.11285" lon="3.00677">
        <ele>644.7</ele>
        <time>2021-03-06T13:59:11Z</time>
      </trkpt>
      <trkpt lat="44.11282" lon="3.00674">
        <ele>644.2</ele>
        <time>2021-03-06T13:59:12Z</time>
      </trkpt>
      <trkpt lat="44.11282" lon="3.00672">
        <ele>643.9</ele>
        <time>2021-03-06T13:59:13Z</time>
      </trkpt>
      <trkpt lat="44.11282" lon="3.00672">
        <ele>643.9</ele>
        <time>2021-03-06T13:59:15Z</time>
      </trkpt>
      <trkpt lat="44.11283" lon="3.00671">
        <ele>643.7</ele>
        <time>2021-03-06T13:59:16Z</time>
      </trkpt>
      <trkpt lat="44.11283" lon="3.0067">
        <ele>643.6</ele>
        <time>2021-03-06T13:59:17Z</time>
      </trkpt>
      <trkpt lat="44.11282" lon="3.0067">
        <ele>643.5</ele>
        <time>2021-03-06T13:59:19Z</time>
      </trkpt>
      <trkpt lat="44.11281" lon="3.0067">
        <ele>643.4</ele>
        <time>2021-03-06T13:59:20Z</time>
      </trkpt>
      <trkpt lat="44.1128" lon="3.0067">
        <ele>643.2</ele>
        <time>2021-03-06T13:59:22Z</time>
      </trkpt>
      <trkpt lat="44.11279" lon="3.0067">
        <ele>643.1</ele>
        <time>2021-03-06T13:59:23Z</time>
      </trkpt>
      <trkpt lat="44.11277" lon="3.0067">
        <ele>642.9</ele>
        <time>2021-03-06T13:59:25Z</time>
      </trkpt>
      <trkpt lat="44.11276" lon="3.0067">
        <ele>642.8</ele>
        <time>2021-03-06T13:59:27Z</time>
      </trkpt>
      <trkpt lat="44.11275" lon="3.0067">
        <ele>642.6</ele>
        <time>2021-03-06T13:59:35Z</time>
      </trkpt>
      <trkpt lat="44.11274" lon="3.0067">
        <ele>642.5</ele>
        <time>2021-03-06T13:59:36Z</time>
      </trkpt>
      <trkpt lat="44.11263" lon="3.00668">
        <ele>641.3</ele>
        <time>2021-03-06T13:59:38Z</time>
      </trkpt>
      <trkpt lat="44.11256" lon="3.00666">
        <ele>640.5</ele>
        <time>2021-03-06T13:59:39Z</time>
      </trkpt>
      <trkpt lat="44.11239" lon="3.00664">
        <ele>638.3</ele>
        <time>2021-03-06T13:59:41Z</time>
      </trkpt>
      <trkpt lat="44.1123" lon="3.00663">
        <ele>637.1</ele>
        <time>2021-03-06T13:59:42Z</time>
      </trkpt>
      <trkpt lat="44.11221" lon="3.0066">
        <ele>635.9</ele>
        <time>2021-03-06T13:59:43Z</time>
      </trkpt>
      <trkpt lat="44.11203" lon="3.00653">
        <ele>634.1</ele>
        <time>2021-03-06T13:59:45Z</time>
      </trkpt>
      <trkpt lat="44.11195" lon="3.00647">
        <ele>633.4</ele>
        <time>2021-03-06T13:59:46Z</time>
      </trkpt>
      <trkpt lat="44.11179" lon="3.00631">
        <ele>632.1</ele>
        <time>2021-03-06T13:59:48Z</time>
      </trkpt>
      <trkpt lat="44.11167" lon="3.00613">
        <ele>630.9</ele>
        <time>2021-03-06T13:59:50Z</time>
      </trkpt>
      <trkpt lat="44.11162" lon="3.00602">
        <ele>630.1</ele>
        <time>2021-03-06T13:59:51Z</time>
      </trkpt>
      <trkpt lat="44.11154" lon="3.00577">
        <ele>628.3</ele>
        <time>2021-03-06T13:59:53Z</time>
      </trkpt>
      <trkpt lat="44.11151" lon="3.00565">
        <ele>627.5</ele>
        <time>2021-03-06T13:59:54Z</time>
      </trkpt>
      <trkpt lat="44.11148" lon="3.00552">
        <ele>626.8</ele>
        <time>2021-03-06T13:59:55Z</time>
      </trkpt>
      <trkpt lat="44.11145" lon="3.0054">
        <ele>626.2</ele>
        <time>2021-03-06T13:59:56Z</time>
      </trkpt>
      <trkpt lat="44.11141" lon="3.00516">
        <ele>625</ele>
        <time>2021-03-06T13:59:58Z</time>
      </trkpt>
      <trkpt lat="44.11139" lon="3.00504">
        <ele>624.4</ele>
        <time>2021-03-06T13:59:59Z</time>
      </trkpt>
      <trkpt lat="44.11134" lon="3.00478">
        <ele>623.1</ele>
        <time>2021-03-06T14:00:01Z</time>
      </trkpt>
      <trkpt lat="44.1113" lon="3.00451">
        <ele>621.6</ele>
        <time>2021-03-06T14:00:03Z</time>
      </trkpt>
      <trkpt lat="44.11127" lon="3.00423">
        <ele>620.1</ele>
        <time>2021-03-06T14:00:05Z</time>
      </trkpt>
      <trkpt lat="44.11123" lon="3.00396">
        <ele>618.9</ele>
        <time>2021-03-06T14:00:07Z</time>
      </trkpt>
      <trkpt lat="44.11118" lon="3.0037">
        <ele>617.6</ele>
        <time>2021-03-06T14:00:09Z</time>
      </trkpt>
      <trkpt lat="44.11114" lon="3.00343">
        <ele>615.8</ele>
        <time>2021-03-06T14:00:11Z</time>
      </trkpt>
      <trkpt lat="44.11108" lon="3.00318">
        <ele>614.2</ele>
        <time>2021-03-06T14:00:13Z</time>
      </trkpt>
      <trkpt lat="44.11105" lon="3.00306">
        <ele>613.4</ele>
        <time>2021-03-06T14:00:14Z</time>
      </trkpt>
      <trkpt lat="44.11098" lon="3.00282">
        <ele>611.7</ele>
        <time>2021-03-06T14:00:16Z</time>
      </trkpt>
      <trkpt lat="44.1109" lon="3.00259">
        <ele>610.3</ele>
        <time>2021-03-06T14:00:18Z</time>
      </trkpt>
      <trkpt lat="44.11087" lon="3.00247">
        <ele>609.7</ele>
        <time>2021-03-06T14:00:19Z</time>
      </trkpt>
      <trkpt lat="44.1108" lon="3.00222">
        <ele>608.3</ele>
        <time>2021-03-06T14:00:21Z</time>
      </trkpt>
      <trkpt lat="44.11072" lon="3.00199">
        <ele>606.9</ele>
        <time>2021-03-06T14:00:23Z</time>
      </trkpt>
      <trkpt lat="44.11064" lon="3.00174">
        <ele>605.1</ele>
        <time>2021-03-06T14:00:25Z</time>
      </trkpt>
      <trkpt lat="44.11059" lon="3.00161">
        <ele>604.3</ele>
        <time>2021-03-06T14:00:26Z</time>
      </trkpt>
      <trkpt lat="44.11052" lon="3.00134">
        <ele>602.8</ele>
        <time>2021-03-06T14:00:28Z</time>
      </trkpt>
      <trkpt lat="44.11044" lon="3.00109">
        <ele>601.5</ele>
        <time>2021-03-06T14:00:30Z</time>
      </trkpt>
      <trkpt lat="44.11038" lon="3.00085">
        <ele>600.4</ele>
        <time>2021-03-06T14:00:32Z</time>
      </trkpt>
      <trkpt lat="44.1103" lon="3.00062">
        <ele>599.2</ele>
        <time>2021-03-06T14:00:34Z</time>
      </trkpt>
      <trkpt lat="44.11021" lon="3.00039">
        <ele>598.1</ele>
        <time>2021-03-06T14:00:36Z</time>
      </trkpt>
      <trkpt lat="44.11015" lon="3.00029">
        <ele>597.7</ele>
        <time>2021-03-06T14:00:37Z</time>
      </trkpt>
      <trkpt lat="44.11006" lon="3.0001">
        <ele>597.9</ele>
        <time>2021-03-06T14:00:39Z</time>
      </trkpt>
      <trkpt lat="44.11002" lon="2.99998">
        <ele>598.4</ele>
        <time>2021-03-06T14:00:41Z</time>
      </trkpt>
      <trkpt lat="44.10999" lon="2.99992">
        <ele>598.7</ele>
        <time>2021-03-06T14:00:43Z</time>
      </trkpt>
      <trkpt lat="44.10997" lon="2.99987">
        <ele>598.9</ele>
        <time>2021-03-06T14:00:44Z</time>
      </trkpt>
      <trkpt lat="44.10993" lon="2.99984">
        <ele>599.2</ele>
        <time>2021-03-06T14:00:46Z</time>
      </trkpt>
      <trkpt lat="44.1099" lon="2.99981">
        <ele>599.4</ele>
        <time>2021-03-06T14:00:47Z</time>
      </trkpt>
      <trkpt lat="44.10987" lon="2.99976">
        <ele>599.6</ele>
        <time>2021-03-06T14:00:49Z</time>
      </trkpt>
      <trkpt lat="44.10986" lon="2.99975">
        <ele>599.7</ele>
        <time>2021-03-06T14:00:50Z</time>
      </trkpt>
      <trkpt lat="44.10984" lon="2.99974">
        <ele>599.8</ele>
        <time>2021-03-06T14:00:51Z</time>
      </trkpt>
      <trkpt lat="44.10983" lon="2.99969">
        <ele>600</ele>
        <time>2021-03-06T14:00:53Z</time>
      </trkpt>
      <trkpt lat="44.10982" lon="2.99967">
        <ele>600</ele>
        <time>2021-03-06T14:00:54Z</time>
      </trkpt>
      <trkpt lat="44.1098" lon="2.99963">
        <ele>600.2</ele>
        <time>2021-03-06T14:00:55Z</time>
      </trkpt>
      <trkpt lat="44.10979" lon="2.99958">
        <ele>600.3</ele>
        <time>2021-03-06T14:00:56Z</time>
      </trkpt>
      <trkpt lat="44.10978" lon="2.99954">
        <ele>600.5</ele>
        <time>2021-03-06T14:00:58Z</time>
      </trkpt>
      <trkpt lat="44.10976" lon="2.99947">
        <ele>600.6</ele>
        <time>2021-03-06T14:00:59Z</time>
      </trkpt>
      <trkpt lat="44.10973" lon="2.99942">
        <ele>600.9</ele>
        <time>2021-03-06T14:01:00Z</time>
      </trkpt>
      <trkpt lat="44.10968" lon="2.99933">
        <ele>601.2</ele>
        <time>2021-03-06T14:01:02Z</time>
      </trkpt>
      <trkpt lat="44.10962" lon="2.99925">
        <ele>601.6</ele>
        <time>2021-03-06T14:01:04Z</time>
      </trkpt>
      <trkpt lat="44.10958" lon="2.9992">
        <ele>602</ele>
        <time>2021-03-06T14:01:06Z</time>
      </trkpt>
      <trkpt lat="44.10956" lon="2.99916">
        <ele>602.2</ele>
        <time>2021-03-06T14:01:07Z</time>
      </trkpt>
      <trkpt lat="44.1095" lon="2.99909">
        <ele>602.7</ele>
        <time>2021-03-06T14:01:09Z</time>
      </trkpt>
      <trkpt lat="44.10948" lon="2.99906">
        <ele>602.9</ele>
        <time>2021-03-06T14:01:10Z</time>
      </trkpt>
      <trkpt lat="44.10945" lon="2.999">
        <ele>603.2</ele>
        <time>2021-03-06T14:01:12Z</time>
      </trkpt>
      <trkpt lat="44.10942" lon="2.99894">
        <ele>603.5</ele>
        <time>2021-03-06T14:01:14Z</time>
      </trkpt>
      <trkpt lat="44.1094" lon="2.99891">
        <ele>603.6</ele>
        <time>2021-03-06T14:01:15Z</time>
      </trkpt>
      <trkpt lat="44.10936" lon="2.99885">
        <ele>603.8</ele>
        <time>2021-03-06T14:01:17Z</time>
      </trkpt>
      <trkpt lat="44.10934" lon="2.99882">
        <ele>604</ele>
        <time>2021-03-06T14:01:18Z</time>
      </trkpt>
      <trkpt lat="44.10933" lon="2.99881">
        <ele>604</ele>
        <time>2021-03-06T14:01:19Z</time>
      </trkpt>
      <trkpt lat="44.10928" lon="2.99878">
        <ele>604.1</ele>
        <time>2021-03-06T14:01:21Z</time>
      </trkpt>
      <trkpt lat="44.10925" lon="2.99877">
        <ele>604.3</ele>
        <time>2021-03-06T14:01:22Z</time>
      </trkpt>
      <trkpt lat="44.10921" lon="2.99875">
        <ele>604.5</ele>
        <time>2021-03-06T14:01:24Z</time>
      </trkpt>
      <trkpt lat="44.10918" lon="2.99874">
        <ele>604.7</ele>
        <time>2021-03-06T14:01:25Z</time>
      </trkpt>
      <trkpt lat="44.10915" lon="2.99872">
        <ele>604.9</ele>
        <time>2021-03-06T14:01:26Z</time>
      </trkpt>
      <trkpt lat="44.10911" lon="2.99869">
        <ele>605.3</ele>
        <time>2021-03-06T14:01:28Z</time>
      </trkpt>
      <trkpt lat="44.10908" lon="2.99866">
        <ele>605.6</ele>
        <time>2021-03-06T14:01:30Z</time>
      </trkpt>
      <trkpt lat="44.10905" lon="2.99865">
        <ele>605.9</ele>
        <time>2021-03-06T14:01:31Z</time>
      </trkpt>
      <trkpt lat="44.10902" lon="2.99864">
        <ele>606.1</ele>
        <time>2021-03-06T14:01:32Z</time>
      </trkpt>
      <trkpt lat="44.10899" lon="2.99864">
        <ele>606.5</ele>
        <time>2021-03-06T14:01:33Z</time>
      </trkpt>
      <trkpt lat="44.10897" lon="2.99864">
        <ele>606.7</ele>
        <time>2021-03-06T14:01:34Z</time>
      </trkpt>
      <trkpt lat="44.10895" lon="2.99863">
        <ele>606.9</ele>
        <time>2021-03-06T14:01:36Z</time>
      </trkpt>
      <trkpt lat="44.10894" lon="2.99863">
        <ele>607.1</ele>
        <time>2021-03-06T14:01:37Z</time>
      </trkpt>
      <trkpt lat="44.10891" lon="2.99861">
        <ele>607.5</ele>
        <time>2021-03-06T14:01:38Z</time>
      </trkpt>
      <trkpt lat="44.10888" lon="2.99861">
        <ele>607.9</ele>
        <time>2021-03-06T14:01:40Z</time>
      </trkpt>
      <trkpt lat="44.10887" lon="2.99861">
        <ele>608</ele>
        <time>2021-03-06T14:01:41Z</time>
      </trkpt>
      <trkpt lat="44.10885" lon="2.99861">
        <ele>608.3</ele>
        <time>2021-03-06T14:01:42Z</time>
      </trkpt>
      <trkpt lat="44.10882" lon="2.99863">
        <ele>608.6</ele>
        <time>2021-03-06T14:01:44Z</time>
      </trkpt>
      <trkpt lat="44.10881" lon="2.99864">
        <ele>608.9</ele>
        <time>2021-03-06T14:01:45Z</time>
      </trkpt>
      <trkpt lat="44.10879" lon="2.99867">
        <ele>609.1</ele>
        <time>2021-03-06T14:01:47Z</time>
      </trkpt>
      <trkpt lat="44.10878" lon="2.99867">
        <ele>609.2</ele>
        <time>2021-03-06T14:01:48Z</time>
      </trkpt>
      <trkpt lat="44.10878" lon="2.99868">
        <ele>609.3</ele>
        <time>2021-03-06T14:01:50Z</time>
      </trkpt>
      <trkpt lat="44.10877" lon="2.99867">
        <ele>609.3</ele>
        <time>2021-03-06T14:01:51Z</time>
      </trkpt>
      <trkpt lat="44.10877" lon="2.99867">
        <ele>609.4</ele>
        <time>2021-03-06T14:01:52Z</time>
      </trkpt>
      <trkpt lat="44.10877" lon="2.99866">
        <ele>609.4</ele>
        <time>2021-03-06T14:01:53Z</time>
      </trkpt>
      <trkpt lat="44.10877" lon="2.99866">
        <ele>609.4</ele>
        <time>2021-03-06T14:01:55Z</time>
      </trkpt>
      <trkpt lat="44.10877" lon="2.99866">
        <ele>609.4</ele>
        <time>2021-03-06T14:01:57Z</time>
      </trkpt>
      <trkpt lat="44.10877" lon="2.99866">
        <ele>609.5</ele>
        <time>2021-03-06T14:01:58Z</time>
      </trkpt>
      <trkpt lat="44.10872" lon="2.9987">
        <ele>609.8</ele>
        <time>2021-03-06T14:03:19Z</time>
      </trkpt>
      <trkpt lat="44.10869" lon="2.99875">
        <ele>610</ele>
        <time>2021-03-06T14:03:21Z</time>
      </trkpt>
      <trkpt lat="44.10867" lon="2.99878">
        <ele>610.1</ele>
        <time>2021-03-06T14:03:22Z</time>
      </trkpt>
      <trkpt lat="44.10865" lon="2.99881">
        <ele>610.2</ele>
        <time>2021-03-06T14:03:23Z</time>
      </trkpt>
      <trkpt lat="44.10862" lon="2.99884">
        <ele>610.3</ele>
        <time>2021-03-06T14:03:24Z</time>
      </trkpt>
      <trkpt lat="44.1086" lon="2.99888">
        <ele>610.4</ele>
        <time>2021-03-06T14:03:25Z</time>
      </trkpt>
      <trkpt lat="44.10859" lon="2.99894">
        <ele>610.5</ele>
        <time>2021-03-06T14:03:27Z</time>
      </trkpt>
      <trkpt lat="44.10858" lon="2.999">
        <ele>610.7</ele>
        <time>2021-03-06T14:03:28Z</time>
      </trkpt>
      <trkpt lat="44.10857" lon="2.99905">
        <ele>611</ele>
        <time>2021-03-06T14:03:29Z</time>
      </trkpt>
      <trkpt lat="44.10856" lon="2.99912">
        <ele>611.2</ele>
        <time>2021-03-06T14:03:31Z</time>
      </trkpt>
      <trkpt lat="44.10855" lon="2.99916">
        <ele>611.4</ele>
        <time>2021-03-06T14:03:32Z</time>
      </trkpt>
      <trkpt lat="44.10854" lon="2.99918">
        <ele>611.5</ele>
        <time>2021-03-06T14:03:33Z</time>
      </trkpt>
      <trkpt lat="44.10852" lon="2.99924">
        <ele>611.9</ele>
        <time>2021-03-06T14:03:34Z</time>
      </trkpt>
      <trkpt lat="44.1085" lon="2.99928">
        <ele>612.1</ele>
        <time>2021-03-06T14:03:36Z</time>
      </trkpt>
      <trkpt lat="44.10847" lon="2.99933">
        <ele>612.3</ele>
        <time>2021-03-06T14:03:37Z</time>
      </trkpt>
      <trkpt lat="44.10844" lon="2.99937">
        <ele>612.4</ele>
        <time>2021-03-06T14:03:39Z</time>
      </trkpt>
      <trkpt lat="44.1084" lon="2.99943">
        <ele>612.6</ele>
        <time>2021-03-06T14:03:40Z</time>
      </trkpt>
      <trkpt lat="44.10838" lon="2.99948">
        <ele>612.8</ele>
        <time>2021-03-06T14:03:41Z</time>
      </trkpt>
      <trkpt lat="44.10837" lon="2.99952">
        <ele>613</ele>
        <time>2021-03-06T14:03:42Z</time>
      </trkpt>
      <trkpt lat="44.10837" lon="2.99956">
        <ele>613.2</ele>
        <time>2021-03-06T14:03:43Z</time>
      </trkpt>
      <trkpt lat="44.10836" lon="2.99959">
        <ele>613.4</ele>
        <time>2021-03-06T14:03:44Z</time>
      </trkpt>
      <trkpt lat="44.10836" lon="2.99962">
        <ele>613.6</ele>
        <time>2021-03-06T14:03:46Z</time>
      </trkpt>
      <trkpt lat="44.10835" lon="2.99967">
        <ele>614</ele>
        <time>2021-03-06T14:03:47Z</time>
      </trkpt>
      <trkpt lat="44.10834" lon="2.99969">
        <ele>614.1</ele>
        <time>2021-03-06T14:03:48Z</time>
      </trkpt>
      <trkpt lat="44.1083" lon="2.99971">
        <ele>614.6</ele>
        <time>2021-03-06T14:03:50Z</time>
      </trkpt>
      <trkpt lat="44.10827" lon="2.99975">
        <ele>614.9</ele>
        <time>2021-03-06T14:03:51Z</time>
      </trkpt>
      <trkpt lat="44.10827" lon="2.99976">
        <ele>615.1</ele>
        <time>2021-03-06T14:03:52Z</time>
      </trkpt>
      <trkpt lat="44.10825" lon="2.99979">
        <ele>615.3</ele>
        <time>2021-03-06T14:03:53Z</time>
      </trkpt>
      <trkpt lat="44.10824" lon="2.99983">
        <ele>615.6</ele>
        <time>2021-03-06T14:03:55Z</time>
      </trkpt>
      <trkpt lat="44.10822" lon="2.99987">
        <ele>615.9</ele>
        <time>2021-03-06T14:03:56Z</time>
      </trkpt>
      <trkpt lat="44.10822" lon="2.99989">
        <ele>616.1</ele>
        <time>2021-03-06T14:03:57Z</time>
      </trkpt>
      <trkpt lat="44.1082" lon="2.99991">
        <ele>616.3</ele>
        <time>2021-03-06T14:03:58Z</time>
      </trkpt>
      <trkpt lat="44.10816" lon="2.99995">
        <ele>616.8</ele>
        <time>2021-03-06T14:04:00Z</time>
      </trkpt>
      <trkpt lat="44.10814" lon="2.99998">
        <ele>617.1</ele>
        <time>2021-03-06T14:04:01Z</time>
      </trkpt>
      <trkpt lat="44.10812" lon="3.00002">
        <ele>617.5</ele>
        <time>2021-03-06T14:04:03Z</time>
      </trkpt>
      <trkpt lat="44.1081" lon="3.00005">
        <ele>617.8</ele>
        <time>2021-03-06T14:04:04Z</time>
      </trkpt>
      <trkpt lat="44.10808" lon="3.00009">
        <ele>618.1</ele>
        <time>2021-03-06T14:04:05Z</time>
      </trkpt>
      <trkpt lat="44.10808" lon="3.0001">
        <ele>618.2</ele>
        <time>2021-03-06T14:04:06Z</time>
      </trkpt>
      <trkpt lat="44.10806" lon="3.00014">
        <ele>618.5</ele>
        <time>2021-03-06T14:04:08Z</time>
      </trkpt>
      <trkpt lat="44.10806" lon="3.00015">
        <ele>618.5</ele>
        <time>2021-03-06T14:04:09Z</time>
      </trkpt>
      <trkpt lat="44.10805" lon="3.00018">
        <ele>618.8</ele>
        <time>2021-03-06T14:04:11Z</time>
      </trkpt>
      <trkpt lat="44.10804" lon="3.00019">
        <ele>618.9</ele>
        <time>2021-03-06T14:04:12Z</time>
      </trkpt>
      <trkpt lat="44.10803" lon="3.00021">
        <ele>619.1</ele>
        <time>2021-03-06T14:04:13Z</time>
      </trkpt>
      <trkpt lat="44.10802" lon="3.00024">
        <ele>619.3</ele>
        <time>2021-03-06T14:04:15Z</time>
      </trkpt>
      <trkpt lat="44.10801" lon="3.00027">
        <ele>619.6</ele>
        <time>2021-03-06T14:04:16Z</time>
      </trkpt>
      <trkpt lat="44.108" lon="3.00028">
        <ele>619.7</ele>
        <time>2021-03-06T14:04:17Z</time>
      </trkpt>
      <trkpt lat="44.10796" lon="3.00032">
        <ele>620.1</ele>
        <time>2021-03-06T14:04:19Z</time>
      </trkpt>
      <trkpt lat="44.10794" lon="3.00034">
        <ele>620.4</ele>
        <time>2021-03-06T14:04:20Z</time>
      </trkpt>
      <trkpt lat="44.1079" lon="3.00036">
        <ele>620.6</ele>
        <time>2021-03-06T14:04:22Z</time>
      </trkpt>
      <trkpt lat="44.10785" lon="3.00039">
        <ele>620.8</ele>
        <time>2021-03-06T14:04:23Z</time>
      </trkpt>
      <trkpt lat="44.10783" lon="3.0004">
        <ele>620.9</ele>
        <time>2021-03-06T14:04:24Z</time>
      </trkpt>
      <trkpt lat="44.1078" lon="3.00041">
        <ele>621</ele>
        <time>2021-03-06T14:04:25Z</time>
      </trkpt>
      <trkpt lat="44.10777" lon="3.00042">
        <ele>621.1</ele>
        <time>2021-03-06T14:04:27Z</time>
      </trkpt>
      <trkpt lat="44.10774" lon="3.00044">
        <ele>621.2</ele>
        <time>2021-03-06T14:04:28Z</time>
      </trkpt>
      <trkpt lat="44.10769" lon="3.00046">
        <ele>621.4</ele>
        <time>2021-03-06T14:04:30Z</time>
      </trkpt>
      <trkpt lat="44.10765" lon="3.00047">
        <ele>621.6</ele>
        <time>2021-03-06T14:04:31Z</time>
      </trkpt>
      <trkpt lat="44.10764" lon="3.00047">
        <ele>621.7</ele>
        <time>2021-03-06T14:04:33Z</time>
      </trkpt>
      <trkpt lat="44.10762" lon="3.00049">
        <ele>621.8</ele>
        <time>2021-03-06T14:04:34Z</time>
      </trkpt>
      <trkpt lat="44.1076" lon="3.00052">
        <ele>622</ele>
        <time>2021-03-06T14:04:35Z</time>
      </trkpt>
      <trkpt lat="44.1076" lon="3.00054">
        <ele>622.2</ele>
        <time>2021-03-06T14:04:36Z</time>
      </trkpt>
      <trkpt lat="44.1076" lon="3.00056">
        <ele>622.3</ele>
        <time>2021-03-06T14:04:38Z</time>
      </trkpt>
      <trkpt lat="44.10758" lon="3.0006">
        <ele>622.6</ele>
        <time>2021-03-06T14:04:39Z</time>
      </trkpt>
      <trkpt lat="44.10757" lon="3.00062">
        <ele>622.8</ele>
        <time>2021-03-06T14:04:40Z</time>
      </trkpt>
      <trkpt lat="44.10755" lon="3.00063">
        <ele>623</ele>
        <time>2021-03-06T14:04:42Z</time>
      </trkpt>
      <trkpt lat="44.10751" lon="3.00064">
        <ele>623.3</ele>
        <time>2021-03-06T14:04:43Z</time>
      </trkpt>
      <trkpt lat="44.1075" lon="3.00065">
        <ele>623.4</ele>
        <time>2021-03-06T14:04:44Z</time>
      </trkpt>
      <trkpt lat="44.10747" lon="3.00066">
        <ele>623.5</ele>
        <time>2021-03-06T14:04:45Z</time>
      </trkpt>
      <trkpt lat="44.10744" lon="3.00066">
        <ele>623.6</ele>
        <time>2021-03-06T14:04:47Z</time>
      </trkpt>
      <trkpt lat="44.10742" lon="3.00062">
        <ele>623.7</ele>
        <time>2021-03-06T14:04:48Z</time>
      </trkpt>
      <trkpt lat="44.10738" lon="3.0006">
        <ele>623.6</ele>
        <time>2021-03-06T14:04:49Z</time>
      </trkpt>
      <trkpt lat="44.10733" lon="3.0006">
        <ele>623.2</ele>
        <time>2021-03-06T14:04:51Z</time>
      </trkpt>
      <trkpt lat="44.10725" lon="3.00049">
        <ele>622.1</ele>
        <time>2021-03-06T14:04:52Z</time>
      </trkpt>
      <trkpt lat="44.10722" lon="3.00042">
        <ele>621.3</ele>
        <time>2021-03-06T14:04:53Z</time>
      </trkpt>
      <trkpt lat="44.10718" lon="3.00037">
        <ele>620.7</ele>
        <time>2021-03-06T14:04:54Z</time>
      </trkpt>
      <trkpt lat="44.10708" lon="3.00036">
        <ele>619.9</ele>
        <time>2021-03-06T14:04:56Z</time>
      </trkpt>
      <trkpt lat="44.10701" lon="3.0004">
        <ele>619.8</ele>
        <time>2021-03-06T14:04:58Z</time>
      </trkpt>
      <trkpt lat="44.10699" lon="3.00042">
        <ele>619.9</ele>
        <time>2021-03-06T14:04:59Z</time>
      </trkpt>
      <trkpt lat="44.10693" lon="3.00044">
        <ele>620.1</ele>
        <time>2021-03-06T14:05:01Z</time>
      </trkpt>
      <trkpt lat="44.10688" lon="3.00044">
        <ele>620.3</ele>
        <time>2021-03-06T14:05:02Z</time>
      </trkpt>
      <trkpt lat="44.10683" lon="3.00047">
        <ele>620.4</ele>
        <time>2021-03-06T14:05:03Z</time>
      </trkpt>
      <trkpt lat="44.10681" lon="3.00051">
        <ele>620.5</ele>
        <time>2021-03-06T14:05:05Z</time>
      </trkpt>
      <trkpt lat="44.10679" lon="3.00055">
        <ele>620.6</ele>
        <time>2021-03-06T14:05:06Z</time>
      </trkpt>
      <trkpt lat="44.10676" lon="3.00058">
        <ele>620.8</ele>
        <time>2021-03-06T14:05:08Z</time>
      </trkpt>
      <trkpt lat="44.10674" lon="3.00062">
        <ele>620.9</ele>
        <time>2021-03-06T14:05:09Z</time>
      </trkpt>
      <trkpt lat="44.1067" lon="3.00067">
        <ele>621</ele>
        <time>2021-03-06T14:05:11Z</time>
      </trkpt>
      <trkpt lat="44.10669" lon="3.00069">
        <ele>621</ele>
        <time>2021-03-06T14:05:12Z</time>
      </trkpt>
      <trkpt lat="44.10668" lon="3.0007">
        <ele>621</ele>
        <time>2021-03-06T14:05:13Z</time>
      </trkpt>
      <trkpt lat="44.10666" lon="3.00072">
        <ele>621</ele>
        <time>2021-03-06T14:05:15Z</time>
      </trkpt>
      <trkpt lat="44.10659" lon="3.00074">
        <ele>621</ele>
        <time>2021-03-06T14:05:17Z</time>
      </trkpt>
      <trkpt lat="44.10654" lon="3.00076">
        <ele>621.1</ele>
        <time>2021-03-06T14:05:19Z</time>
      </trkpt>
      <trkpt lat="44.10649" lon="3.00079">
        <ele>621.2</ele>
        <time>2021-03-06T14:05:20Z</time>
      </trkpt>
      <trkpt lat="44.10646" lon="3.00083">
        <ele>621.3</ele>
        <time>2021-03-06T14:05:22Z</time>
      </trkpt>
      <trkpt lat="44.10643" lon="3.00086">
        <ele>621.4</ele>
        <time>2021-03-06T14:05:23Z</time>
      </trkpt>
      <trkpt lat="44.1064" lon="3.00088">
        <ele>621.5</ele>
        <time>2021-03-06T14:05:24Z</time>
      </trkpt>
      <trkpt lat="44.10637" lon="3.00093">
        <ele>621.7</ele>
        <time>2021-03-06T14:05:25Z</time>
      </trkpt>
      <trkpt lat="44.10636" lon="3.00096">
        <ele>621.8</ele>
        <time>2021-03-06T14:05:26Z</time>
      </trkpt>
      <trkpt lat="44.10633" lon="3.00101">
        <ele>621.9</ele>
        <time>2021-03-06T14:05:28Z</time>
      </trkpt>
      <trkpt lat="44.1063" lon="3.00108">
        <ele>622.1</ele>
        <time>2021-03-06T14:05:29Z</time>
      </trkpt>
      <trkpt lat="44.10628" lon="3.00113">
        <ele>622.1</ele>
        <time>2021-03-06T14:05:31Z</time>
      </trkpt>
      <trkpt lat="44.10626" lon="3.00116">
        <ele>622.2</ele>
        <time>2021-03-06T14:05:32Z</time>
      </trkpt>
      <trkpt lat="44.10625" lon="3.0012">
        <ele>622.3</ele>
        <time>2021-03-06T14:05:33Z</time>
      </trkpt>
      <trkpt lat="44.10623" lon="3.00125">
        <ele>622.3</ele>
        <time>2021-03-06T14:05:35Z</time>
      </trkpt>
      <trkpt lat="44.10621" lon="3.00131">
        <ele>622.4</ele>
        <time>2021-03-06T14:05:36Z</time>
      </trkpt>
      <trkpt lat="44.1062" lon="3.00138">
        <ele>622.5</ele>
        <time>2021-03-06T14:05:38Z</time>
      </trkpt>
      <trkpt lat="44.10619" lon="3.00143">
        <ele>622.5</ele>
        <time>2021-03-06T14:05:39Z</time>
      </trkpt>
      <trkpt lat="44.10618" lon="3.00149">
        <ele>622.5</ele>
        <time>2021-03-06T14:05:41Z</time>
      </trkpt>
      <trkpt lat="44.10617" lon="3.00153">
        <ele>622.5</ele>
        <time>2021-03-06T14:05:42Z</time>
      </trkpt>
      <trkpt lat="44.10615" lon="3.00156">
        <ele>622.6</ele>
        <time>2021-03-06T14:05:43Z</time>
      </trkpt>
      <trkpt lat="44.10612" lon="3.0016">
        <ele>622.6</ele>
        <time>2021-03-06T14:05:44Z</time>
      </trkpt>
      <trkpt lat="44.10608" lon="3.00165">
        <ele>622.8</ele>
        <time>2021-03-06T14:05:45Z</time>
      </trkpt>
      <trkpt lat="44.10606" lon="3.0017">
        <ele>623</ele>
        <time>2021-03-06T14:05:47Z</time>
      </trkpt>
      <trkpt lat="44.10604" lon="3.00176">
        <ele>623.2</ele>
        <time>2021-03-06T14:05:48Z</time>
      </trkpt>
      <trkpt lat="44.10603" lon="3.00181">
        <ele>623.4</ele>
        <time>2021-03-06T14:05:49Z</time>
      </trkpt>
      <trkpt lat="44.10601" lon="3.00186">
        <ele>623.7</ele>
        <time>2021-03-06T14:05:50Z</time>
      </trkpt>
      <trkpt lat="44.10599" lon="3.00192">
        <ele>623.9</ele>
        <time>2021-03-06T14:05:52Z</time>
      </trkpt>
      <trkpt lat="44.10598" lon="3.002">
        <ele>624.3</ele>
        <time>2021-03-06T14:05:54Z</time>
      </trkpt>
      <trkpt lat="44.10598" lon="3.00204">
        <ele>624.9</ele>
        <time>2021-03-06T14:05:55Z</time>
      </trkpt>
      <trkpt lat="44.10599" lon="3.00209">
        <ele>625.6</ele>
        <time>2021-03-06T14:05:56Z</time>
      </trkpt>
      <trkpt lat="44.10599" lon="3.00211">
        <ele>625.8</ele>
        <time>2021-03-06T14:05:57Z</time>
      </trkpt>
      <trkpt lat="44.10601" lon="3.00217">
        <ele>626.6</ele>
        <time>2021-03-06T14:05:59Z</time>
      </trkpt>
      <trkpt lat="44.10602" lon="3.0022">
        <ele>626.9</ele>
        <time>2021-03-06T14:06:01Z</time>
      </trkpt>
      <trkpt lat="44.10603" lon="3.00222">
        <ele>627.2</ele>
        <time>2021-03-06T14:06:02Z</time>
      </trkpt>
      <trkpt lat="44.10603" lon="3.00224">
        <ele>627.5</ele>
        <time>2021-03-06T14:06:03Z</time>
      </trkpt>
      <trkpt lat="44.10605" lon="3.00229">
        <ele>628.1</ele>
        <time>2021-03-06T14:06:05Z</time>
      </trkpt>
      <trkpt lat="44.10605" lon="3.0023">
        <ele>628.3</ele>
        <time>2021-03-06T14:06:06Z</time>
      </trkpt>
      <trkpt lat="44.10606" lon="3.00232">
        <ele>628.5</ele>
        <time>2021-03-06T14:06:07Z</time>
      </trkpt>
      <trkpt lat="44.10606" lon="3.00234">
        <ele>628.7</ele>
        <time>2021-03-06T14:06:08Z</time>
      </trkpt>
      <trkpt lat="44.10606" lon="3.00237">
        <ele>629.1</ele>
        <time>2021-03-06T14:06:09Z</time>
      </trkpt>
      <trkpt lat="44.10607" lon="3.0024">
        <ele>629.5</ele>
        <time>2021-03-06T14:06:11Z</time>
      </trkpt>
      <trkpt lat="44.10607" lon="3.00242">
        <ele>629.7</ele>
        <time>2021-03-06T14:06:12Z</time>
      </trkpt>
      <trkpt lat="44.10608" lon="3.00244">
        <ele>630</ele>
        <time>2021-03-06T14:06:13Z</time>
      </trkpt>
      <trkpt lat="44.10609" lon="3.00248">
        <ele>630.5</ele>
        <time>2021-03-06T14:06:15Z</time>
      </trkpt>
      <trkpt lat="44.1061" lon="3.00249">
        <ele>630.6</ele>
        <time>2021-03-06T14:06:16Z</time>
      </trkpt>
      <trkpt lat="44.10611" lon="3.00254">
        <ele>631.2</ele>
        <time>2021-03-06T14:06:18Z</time>
      </trkpt>
      <trkpt lat="44.10612" lon="3.00258">
        <ele>631.7</ele>
        <time>2021-03-06T14:06:20Z</time>
      </trkpt>
      <trkpt lat="44.10613" lon="3.00261">
        <ele>632.1</ele>
        <time>2021-03-06T14:06:21Z</time>
      </trkpt>
      <trkpt lat="44.10614" lon="3.00267">
        <ele>632.7</ele>
        <time>2021-03-06T14:06:23Z</time>
      </trkpt>
      <trkpt lat="44.10615" lon="3.00268">
        <ele>632.9</ele>
        <time>2021-03-06T14:06:24Z</time>
      </trkpt>
      <trkpt lat="44.10616" lon="3.00273">
        <ele>633.5</ele>
        <time>2021-03-06T14:06:26Z</time>
      </trkpt>
      <trkpt lat="44.10618" lon="3.00276">
        <ele>633.9</ele>
        <time>2021-03-06T14:06:27Z</time>
      </trkpt>
      <trkpt lat="44.1062" lon="3.00281">
        <ele>634.5</ele>
        <time>2021-03-06T14:06:29Z</time>
      </trkpt>
      <trkpt lat="44.10621" lon="3.00283">
        <ele>634.7</ele>
        <time>2021-03-06T14:06:30Z</time>
      </trkpt>
      <trkpt lat="44.10624" lon="3.00288">
        <ele>635.4</ele>
        <time>2021-03-06T14:06:32Z</time>
      </trkpt>
      <trkpt lat="44.10625" lon="3.0029">
        <ele>635.7</ele>
        <time>2021-03-06T14:06:33Z</time>
      </trkpt>
      <trkpt lat="44.10627" lon="3.00291">
        <ele>635.9</ele>
        <time>2021-03-06T14:06:34Z</time>
      </trkpt>
      <trkpt lat="44.10629" lon="3.00295">
        <ele>637.9</ele>
        <time>2021-03-06T14:06:35Z</time>
      </trkpt>
      <trkpt lat="44.1063" lon="3.00295">
        <ele>638</ele>
        <time>2021-03-06T14:06:36Z</time>
      </trkpt>
      <trkpt lat="44.10632" lon="3.00299">
        <ele>638.3</ele>
        <time>2021-03-06T14:06:38Z</time>
      </trkpt>
      <trkpt lat="44.10633" lon="3.003">
        <ele>638.4</ele>
        <time>2021-03-06T14:06:39Z</time>
      </trkpt>
      <trkpt lat="44.10635" lon="3.00303">
        <ele>638.6</ele>
        <time>2021-03-06T14:06:40Z</time>
      </trkpt>
      <trkpt lat="44.10636" lon="3.00305">
        <ele>638.7</ele>
        <time>2021-03-06T14:06:42Z</time>
      </trkpt>
      <trkpt lat="44.10637" lon="3.00306">
        <ele>638.8</ele>
        <time>2021-03-06T14:06:43Z</time>
      </trkpt>
      <trkpt lat="44.10638" lon="3.00308">
        <ele>638.9</ele>
        <time>2021-03-06T14:06:44Z</time>
      </trkpt>
      <trkpt lat="44.10639" lon="3.0031">
        <ele>639.1</ele>
        <time>2021-03-06T14:06:46Z</time>
      </trkpt>
      <trkpt lat="44.10642" lon="3.00313">
        <ele>639.3</ele>
        <time>2021-03-06T14:06:48Z</time>
      </trkpt>
      <trkpt lat="44.10643" lon="3.00317">
        <ele>639.4</ele>
        <time>2021-03-06T14:06:49Z</time>
      </trkpt>
      <trkpt lat="44.10643" lon="3.00319">
        <ele>639.4</ele>
        <time>2021-03-06T14:06:50Z</time>
      </trkpt>
      <trkpt lat="44.10644" lon="3.00324">
        <ele>639.5</ele>
        <time>2021-03-06T14:06:52Z</time>
      </trkpt>
      <trkpt lat="44.10644" lon="3.00325">
        <ele>639.5</ele>
        <time>2021-03-06T14:06:53Z</time>
      </trkpt>
      <trkpt lat="44.10645" lon="3.00328">
        <ele>639.5</ele>
        <time>2021-03-06T14:06:54Z</time>
      </trkpt>
      <trkpt lat="44.10646" lon="3.00331">
        <ele>639.5</ele>
        <time>2021-03-06T14:06:56Z</time>
      </trkpt>
      <trkpt lat="44.10648" lon="3.00335">
        <ele>639.5</ele>
        <time>2021-03-06T14:06:57Z</time>
      </trkpt>
      <trkpt lat="44.10649" lon="3.00338">
        <ele>639.4</ele>
        <time>2021-03-06T14:06:58Z</time>
      </trkpt>
      <trkpt lat="44.10652" lon="3.00341">
        <ele>639.3</ele>
        <time>2021-03-06T14:06:59Z</time>
      </trkpt>
      <trkpt lat="44.10655" lon="3.00347">
        <ele>639.2</ele>
        <time>2021-03-06T14:07:01Z</time>
      </trkpt>
      <trkpt lat="44.10656" lon="3.00352">
        <ele>639.1</ele>
        <time>2021-03-06T14:07:02Z</time>
      </trkpt>
      <trkpt lat="44.10657" lon="3.00356">
        <ele>638.9</ele>
        <time>2021-03-06T14:07:03Z</time>
      </trkpt>
      <trkpt lat="44.10661" lon="3.00373">
        <ele>638.4</ele>
        <time>2021-03-06T14:07:05Z</time>
      </trkpt>
      <trkpt lat="44.10663" lon="3.0038">
        <ele>638.1</ele>
        <time>2021-03-06T14:07:06Z</time>
      </trkpt>
      <trkpt lat="44.10668" lon="3.00397">
        <ele>637.5</ele>
        <time>2021-03-06T14:07:08Z</time>
      </trkpt>
      <trkpt lat="44.10673" lon="3.00413">
        <ele>636.9</ele>
        <time>2021-03-06T14:07:10Z</time>
      </trkpt>
      <trkpt lat="44.10676" lon="3.00429">
        <ele>636.5</ele>
        <time>2021-03-06T14:07:12Z</time>
      </trkpt>
      <trkpt lat="44.10677" lon="3.00438">
        <ele>636.4</ele>
        <time>2021-03-06T14:07:13Z</time>
      </trkpt>
      <trkpt lat="44.10679" lon="3.00454">
        <ele>636.4</ele>
        <time>2021-03-06T14:07:15Z</time>
      </trkpt>
      <trkpt lat="44.10679" lon="3.00461">
        <ele>636.5</ele>
        <time>2021-03-06T14:07:16Z</time>
      </trkpt>
      <trkpt lat="44.1068" lon="3.0047">
        <ele>636.8</ele>
        <time>2021-03-06T14:07:18Z</time>
      </trkpt>
      <trkpt lat="44.10681" lon="3.00483">
        <ele>637.2</ele>
        <time>2021-03-06T14:07:20Z</time>
      </trkpt>
      <trkpt lat="44.10681" lon="3.00494">
        <ele>637.6</ele>
        <time>2021-03-06T14:07:22Z</time>
      </trkpt>
      <trkpt lat="44.1068" lon="3.00499">
        <ele>637.8</ele>
        <time>2021-03-06T14:07:23Z</time>
      </trkpt>
      <trkpt lat="44.1068" lon="3.00504">
        <ele>637.9</ele>
        <time>2021-03-06T14:07:24Z</time>
      </trkpt>
      <trkpt lat="44.10679" lon="3.00509">
        <ele>638.1</ele>
        <time>2021-03-06T14:07:25Z</time>
      </trkpt>
      <trkpt lat="44.10678" lon="3.00514">
        <ele>638.2</ele>
        <time>2021-03-06T14:07:26Z</time>
      </trkpt>
      <trkpt lat="44.10676" lon="3.00519">
        <ele>638.4</ele>
        <time>2021-03-06T14:07:28Z</time>
      </trkpt>
      <trkpt lat="44.10675" lon="3.00523">
        <ele>638.5</ele>
        <time>2021-03-06T14:07:29Z</time>
      </trkpt>
      <trkpt lat="44.10673" lon="3.00531">
        <ele>638.7</ele>
        <time>2021-03-06T14:07:30Z</time>
      </trkpt>
      <trkpt lat="44.10672" lon="3.00538">
        <ele>638.9</ele>
        <time>2021-03-06T14:07:31Z</time>
      </trkpt>
      <trkpt lat="44.10672" lon="3.00545">
        <ele>639.2</ele>
        <time>2021-03-06T14:07:33Z</time>
      </trkpt>
      <trkpt lat="44.10672" lon="3.00553">
        <ele>639.6</ele>
        <time>2021-03-06T14:07:35Z</time>
      </trkpt>
      <trkpt lat="44.10671" lon="3.00558">
        <ele>639.8</ele>
        <time>2021-03-06T14:07:36Z</time>
      </trkpt>
      <trkpt lat="44.10671" lon="3.00564">
        <ele>640.2</ele>
        <time>2021-03-06T14:07:38Z</time>
      </trkpt>
      <trkpt lat="44.1067" lon="3.00569">
        <ele>640.5</ele>
        <time>2021-03-06T14:07:39Z</time>
      </trkpt>
      <trkpt lat="44.1067" lon="3.00575">
        <ele>640.8</ele>
        <time>2021-03-06T14:07:40Z</time>
      </trkpt>
      <trkpt lat="44.10669" lon="3.0058">
        <ele>641.1</ele>
        <time>2021-03-06T14:07:41Z</time>
      </trkpt>
      <trkpt lat="44.10669" lon="3.00586">
        <ele>641.5</ele>
        <time>2021-03-06T14:07:43Z</time>
      </trkpt>
      <trkpt lat="44.1067" lon="3.00592">
        <ele>641.8</ele>
        <time>2021-03-06T14:07:44Z</time>
      </trkpt>
      <trkpt lat="44.1067" lon="3.00598">
        <ele>642.2</ele>
        <time>2021-03-06T14:07:45Z</time>
      </trkpt>
      <trkpt lat="44.10671" lon="3.00604">
        <ele>642.5</ele>
        <time>2021-03-06T14:07:46Z</time>
      </trkpt>
      <trkpt lat="44.10672" lon="3.0061">
        <ele>642.9</ele>
        <time>2021-03-06T14:07:48Z</time>
      </trkpt>
      <trkpt lat="44.10673" lon="3.00615">
        <ele>643.2</ele>
        <time>2021-03-06T14:07:49Z</time>
      </trkpt>
      <trkpt lat="44.10674" lon="3.00619">
        <ele>643.5</ele>
        <time>2021-03-06T14:07:50Z</time>
      </trkpt>
      <trkpt lat="44.10675" lon="3.00623">
        <ele>643.8</ele>
        <time>2021-03-06T14:07:51Z</time>
      </trkpt>
      <trkpt lat="44.10677" lon="3.00629">
        <ele>644.2</ele>
        <time>2021-03-06T14:07:53Z</time>
      </trkpt>
      <trkpt lat="44.10677" lon="3.00631">
        <ele>644.4</ele>
        <time>2021-03-06T14:07:54Z</time>
      </trkpt>
      <trkpt lat="44.10678" lon="3.00633">
        <ele>644.6</ele>
        <time>2021-03-06T14:07:55Z</time>
      </trkpt>
      <trkpt lat="44.10679" lon="3.00638">
        <ele>644.8</ele>
        <time>2021-03-06T14:07:56Z</time>
      </trkpt>
      <trkpt lat="44.1068" lon="3.00642">
        <ele>645.1</ele>
        <time>2021-03-06T14:07:57Z</time>
      </trkpt>
      <trkpt lat="44.1068" lon="3.00644">
        <ele>645.2</ele>
        <time>2021-03-06T14:07:58Z</time>
      </trkpt>
      <trkpt lat="44.10681" lon="3.00648">
        <ele>645.4</ele>
        <time>2021-03-06T14:08:00Z</time>
      </trkpt>
      <trkpt lat="44.10682" lon="3.00655">
        <ele>645.8</ele>
        <time>2021-03-06T14:08:02Z</time>
      </trkpt>
      <trkpt lat="44.10683" lon="3.0066">
        <ele>646</ele>
        <time>2021-03-06T14:08:03Z</time>
      </trkpt>
      <trkpt lat="44.10684" lon="3.00664">
        <ele>646.2</ele>
        <time>2021-03-06T14:08:04Z</time>
      </trkpt>
      <trkpt lat="44.10684" lon="3.00669">
        <ele>646.3</ele>
        <time>2021-03-06T14:08:06Z</time>
      </trkpt>
      <trkpt lat="44.10685" lon="3.00673">
        <ele>646.4</ele>
        <time>2021-03-06T14:08:07Z</time>
      </trkpt>
      <trkpt lat="44.10687" lon="3.00677">
        <ele>646.5</ele>
        <time>2021-03-06T14:08:08Z</time>
      </trkpt>
      <trkpt lat="44.10688" lon="3.0068">
        <ele>646.5</ele>
        <time>2021-03-06T14:08:09Z</time>
      </trkpt>
      <trkpt lat="44.10691" lon="3.00684">
        <ele>646.5</ele>
        <time>2021-03-06T14:08:11Z</time>
      </trkpt>
      <trkpt lat="44.10692" lon="3.00689">
        <ele>646.5</ele>
        <time>2021-03-06T14:08:12Z</time>
      </trkpt>
      <trkpt lat="44.10694" lon="3.00699">
        <ele>646.5</ele>
        <time>2021-03-06T14:08:14Z</time>
      </trkpt>
      <trkpt lat="44.10692" lon="3.0071">
        <ele>646.1</ele>
        <time>2021-03-06T14:08:15Z</time>
      </trkpt>
      <trkpt lat="44.10692" lon="3.0072">
        <ele>645.8</ele>
        <time>2021-03-06T14:08:16Z</time>
      </trkpt>
      <trkpt lat="44.10689" lon="3.00738">
        <ele>644.8</ele>
        <time>2021-03-06T14:08:18Z</time>
      </trkpt>
      <trkpt lat="44.10688" lon="3.00747">
        <ele>644.4</ele>
        <time>2021-03-06T14:08:19Z</time>
      </trkpt>
      <trkpt lat="44.10686" lon="3.00764">
        <ele>643.9</ele>
        <time>2021-03-06T14:08:21Z</time>
      </trkpt>
      <trkpt lat="44.10684" lon="3.00782">
        <ele>643.6</ele>
        <time>2021-03-06T14:08:23Z</time>
      </trkpt>
      <trkpt lat="44.10682" lon="3.00789">
        <ele>643.6</ele>
        <time>2021-03-06T14:08:24Z</time>
      </trkpt>
      <trkpt lat="44.10681" lon="3.00795">
        <ele>643.7</ele>
        <time>2021-03-06T14:08:25Z</time>
      </trkpt>
      <trkpt lat="44.10681" lon="3.00801">
        <ele>643.8</ele>
        <time>2021-03-06T14:08:26Z</time>
      </trkpt>
      <trkpt lat="44.10681" lon="3.00805">
        <ele>644</ele>
        <time>2021-03-06T14:08:27Z</time>
      </trkpt>
      <trkpt lat="44.1068" lon="3.00813">
        <ele>644.2</ele>
        <time>2021-03-06T14:08:29Z</time>
      </trkpt>
      <trkpt lat="44.1068" lon="3.00819">
        <ele>644.5</ele>
        <time>2021-03-06T14:08:31Z</time>
      </trkpt>
      <trkpt lat="44.1068" lon="3.00821">
        <ele>644.5</ele>
        <time>2021-03-06T14:08:32Z</time>
      </trkpt>
      <trkpt lat="44.10681" lon="3.00823">
        <ele>644.6</ele>
        <time>2021-03-06T14:08:33Z</time>
      </trkpt>
      <trkpt lat="44.10681" lon="3.00827">
        <ele>645</ele>
        <time>2021-03-06T14:08:34Z</time>
      </trkpt>
      <trkpt lat="44.10681" lon="3.00829">
        <ele>645.1</ele>
        <time>2021-03-06T14:08:35Z</time>
      </trkpt>
      <trkpt lat="44.10683" lon="3.0083">
        <ele>645.4</ele>
        <time>2021-03-06T14:08:37Z</time>
      </trkpt>
      <trkpt lat="44.10683" lon="3.00833">
        <ele>645.7</ele>
        <time>2021-03-06T14:08:38Z</time>
      </trkpt>
      <trkpt lat="44.10683" lon="3.00836">
        <ele>646</ele>
        <time>2021-03-06T14:08:39Z</time>
      </trkpt>
      <trkpt lat="44.10684" lon="3.00838">
        <ele>646.2</ele>
        <time>2021-03-06T14:08:40Z</time>
      </trkpt>
      <trkpt lat="44.10684" lon="3.00841">
        <ele>646.6</ele>
        <time>2021-03-06T14:08:41Z</time>
      </trkpt>
      <trkpt lat="44.10685" lon="3.00844">
        <ele>646.9</ele>
        <time>2021-03-06T14:08:43Z</time>
      </trkpt>
      <trkpt lat="44.10686" lon="3.00846">
        <ele>647.2</ele>
        <time>2021-03-06T14:08:44Z</time>
      </trkpt>
      <trkpt lat="44.10686" lon="3.00848">
        <ele>647.4</ele>
        <time>2021-03-06T14:08:45Z</time>
      </trkpt>
      <trkpt lat="44.10687" lon="3.00852">
        <ele>647.8</ele>
        <time>2021-03-06T14:08:46Z</time>
      </trkpt>
      <trkpt lat="44.10688" lon="3.00856">
        <ele>648.1</ele>
        <time>2021-03-06T14:08:47Z</time>
      </trkpt>
      <trkpt lat="44.10689" lon="3.00859">
        <ele>648.5</ele>
        <time>2021-03-06T14:08:49Z</time>
      </trkpt>
      <trkpt lat="44.1069" lon="3.00862">
        <ele>648.8</ele>
        <time>2021-03-06T14:08:50Z</time>
      </trkpt>
      <trkpt lat="44.10691" lon="3.00866">
        <ele>649.1</ele>
        <time>2021-03-06T14:08:52Z</time>
      </trkpt>
      <trkpt lat="44.10691" lon="3.00867">
        <ele>649.2</ele>
        <time>2021-03-06T14:08:53Z</time>
      </trkpt>
      <trkpt lat="44.10691" lon="3.0087">
        <ele>649.5</ele>
        <time>2021-03-06T14:08:54Z</time>
      </trkpt>
      <trkpt lat="44.10692" lon="3.00874">
        <ele>649.7</ele>
        <time>2021-03-06T14:08:55Z</time>
      </trkpt>
      <trkpt lat="44.10693" lon="3.00879">
        <ele>650.1</ele>
        <time>2021-03-06T14:08:57Z</time>
      </trkpt>
      <trkpt lat="44.10694" lon="3.00884">
        <ele>650.4</ele>
        <time>2021-03-06T14:08:59Z</time>
      </trkpt>
      <trkpt lat="44.10694" lon="3.00886">
        <ele>650.5</ele>
        <time>2021-03-06T14:09:00Z</time>
      </trkpt>
      <trkpt lat="44.10695" lon="3.00892">
        <ele>650.8</ele>
        <time>2021-03-06T14:09:02Z</time>
      </trkpt>
      <trkpt lat="44.10696" lon="3.00894">
        <ele>650.9</ele>
        <time>2021-03-06T14:09:03Z</time>
      </trkpt>
      <trkpt lat="44.10697" lon="3.00896">
        <ele>651</ele>
        <time>2021-03-06T14:09:04Z</time>
      </trkpt>
      <trkpt lat="44.10698" lon="3.009">
        <ele>651.1</ele>
        <time>2021-03-06T14:09:06Z</time>
      </trkpt>
      <trkpt lat="44.10698" lon="3.00904">
        <ele>651.2</ele>
        <time>2021-03-06T14:09:07Z</time>
      </trkpt>
      <trkpt lat="44.10699" lon="3.00909">
        <ele>651.4</ele>
        <time>2021-03-06T14:09:08Z</time>
      </trkpt>
      <trkpt lat="44.107" lon="3.00915">
        <ele>651.5</ele>
        <time>2021-03-06T14:09:10Z</time>
      </trkpt>
      <trkpt lat="44.107" lon="3.00921">
        <ele>651.6</ele>
        <time>2021-03-06T14:09:11Z</time>
      </trkpt>
      <trkpt lat="44.107" lon="3.00926">
        <ele>651.7</ele>
        <time>2021-03-06T14:09:13Z</time>
      </trkpt>
      <trkpt lat="44.10699" lon="3.00933">
        <ele>651.8</ele>
        <time>2021-03-06T14:09:14Z</time>
      </trkpt>
      <trkpt lat="44.10698" lon="3.0094">
        <ele>651.8</ele>
        <time>2021-03-06T14:09:16Z</time>
      </trkpt>
      <trkpt lat="44.10697" lon="3.00947">
        <ele>651.8</ele>
        <time>2021-03-06T14:09:17Z</time>
      </trkpt>
      <trkpt lat="44.10696" lon="3.00954">
        <ele>651.8</ele>
        <time>2021-03-06T14:09:19Z</time>
      </trkpt>
      <trkpt lat="44.10695" lon="3.00958">
        <ele>651.7</ele>
        <time>2021-03-06T14:09:20Z</time>
      </trkpt>
      <trkpt lat="44.10695" lon="3.00965">
        <ele>651.7</ele>
        <time>2021-03-06T14:09:21Z</time>
      </trkpt>
      <trkpt lat="44.10695" lon="3.00971">
        <ele>651.6</ele>
        <time>2021-03-06T14:09:22Z</time>
      </trkpt>
      <trkpt lat="44.10693" lon="3.0098">
        <ele>651.4</ele>
        <time>2021-03-06T14:09:24Z</time>
      </trkpt>
      <trkpt lat="44.10691" lon="3.00991">
        <ele>651.2</ele>
        <time>2021-03-06T14:09:25Z</time>
      </trkpt>
      <trkpt lat="44.10689" lon="3.00999">
        <ele>651</ele>
        <time>2021-03-06T14:09:27Z</time>
      </trkpt>
      <trkpt lat="44.10687" lon="3.01019">
        <ele>650.5</ele>
        <time>2021-03-06T14:09:29Z</time>
      </trkpt>
      <trkpt lat="44.10693" lon="3.01032">
        <ele>650.3</ele>
        <time>2021-03-06T14:09:31Z</time>
      </trkpt>
      <trkpt lat="44.10699" lon="3.01037">
        <ele>650.2</ele>
        <time>2021-03-06T14:09:33Z</time>
      </trkpt>
      <trkpt lat="44.10703" lon="3.01038">
        <ele>650.2</ele>
        <time>2021-03-06T14:09:34Z</time>
      </trkpt>
      <trkpt lat="44.10707" lon="3.01041">
        <ele>650.3</ele>
        <time>2021-03-06T14:09:35Z</time>
      </trkpt>
      <trkpt lat="44.10713" lon="3.01043">
        <ele>650.5</ele>
        <time>2021-03-06T14:09:36Z</time>
      </trkpt>
      <trkpt lat="44.10717" lon="3.01047">
        <ele>650.6</ele>
        <time>2021-03-06T14:09:37Z</time>
      </trkpt>
      <trkpt lat="44.10721" lon="3.0105">
        <ele>650.9</ele>
        <time>2021-03-06T14:09:38Z</time>
      </trkpt>
      <trkpt lat="44.10724" lon="3.01053">
        <ele>651.1</ele>
        <time>2021-03-06T14:09:40Z</time>
      </trkpt>
      <trkpt lat="44.10727" lon="3.01056">
        <ele>651.3</ele>
        <time>2021-03-06T14:09:41Z</time>
      </trkpt>
      <trkpt lat="44.10731" lon="3.01058">
        <ele>651.6</ele>
        <time>2021-03-06T14:09:42Z</time>
      </trkpt>
      <trkpt lat="44.10734" lon="3.01061">
        <ele>651.8</ele>
        <time>2021-03-06T14:09:43Z</time>
      </trkpt>
      <trkpt lat="44.10737" lon="3.01063">
        <ele>652.1</ele>
        <time>2021-03-06T14:09:44Z</time>
      </trkpt>
      <trkpt lat="44.1074" lon="3.01066">
        <ele>652.3</ele>
        <time>2021-03-06T14:09:46Z</time>
      </trkpt>
      <trkpt lat="44.10745" lon="3.01068">
        <ele>652.6</ele>
        <time>2021-03-06T14:09:48Z</time>
      </trkpt>
      <trkpt lat="44.10751" lon="3.0107">
        <ele>653</ele>
        <time>2021-03-06T14:09:49Z</time>
      </trkpt>
      <trkpt lat="44.10755" lon="3.01071">
        <ele>653.2</ele>
        <time>2021-03-06T14:09:51Z</time>
      </trkpt>
      <trkpt lat="44.10759" lon="3.01073">
        <ele>653.4</ele>
        <time>2021-03-06T14:09:52Z</time>
      </trkpt>
      <trkpt lat="44.10763" lon="3.01075">
        <ele>653.5</ele>
        <time>2021-03-06T14:09:53Z</time>
      </trkpt>
      <trkpt lat="44.10766" lon="3.01076">
        <ele>653.7</ele>
        <time>2021-03-06T14:09:54Z</time>
      </trkpt>
      <trkpt lat="44.1077" lon="3.01077">
        <ele>653.9</ele>
        <time>2021-03-06T14:09:55Z</time>
      </trkpt>
      <trkpt lat="44.10774" lon="3.01079">
        <ele>654.1</ele>
        <time>2021-03-06T14:09:57Z</time>
      </trkpt>
      <trkpt lat="44.10777" lon="3.01081">
        <ele>654.2</ele>
        <time>2021-03-06T14:09:58Z</time>
      </trkpt>
      <trkpt lat="44.10782" lon="3.01084">
        <ele>654.5</ele>
        <time>2021-03-06T14:10:00Z</time>
      </trkpt>
      <trkpt lat="44.10785" lon="3.01087">
        <ele>654.6</ele>
        <time>2021-03-06T14:10:01Z</time>
      </trkpt>
      <trkpt lat="44.10787" lon="3.01094">
        <ele>654.8</ele>
        <time>2021-03-06T14:10:03Z</time>
      </trkpt>
      <trkpt lat="44.10787" lon="3.01098">
        <ele>654</ele>
        <time>2021-03-06T14:10:04Z</time>
      </trkpt>
      <trkpt lat="44.10787" lon="3.01102">
        <ele>653.8</ele>
        <time>2021-03-06T14:10:05Z</time>
      </trkpt>
      <trkpt lat="44.1079" lon="3.01108">
        <ele>653.5</ele>
        <time>2021-03-06T14:10:07Z</time>
      </trkpt>
      <trkpt lat="44.10793" lon="3.01114">
        <ele>653.3</ele>
        <time>2021-03-06T14:10:08Z</time>
      </trkpt>
      <trkpt lat="44.10799" lon="3.01123">
        <ele>653.1</ele>
        <time>2021-03-06T14:10:10Z</time>
      </trkpt>
      <trkpt lat="44.10803" lon="3.01126">
        <ele>653</ele>
        <time>2021-03-06T14:10:11Z</time>
      </trkpt>
      <trkpt lat="44.10809" lon="3.01133">
        <ele>652.9</ele>
        <time>2021-03-06T14:10:12Z</time>
      </trkpt>
      <trkpt lat="44.10812" lon="3.01144">
        <ele>652.8</ele>
        <time>2021-03-06T14:10:14Z</time>
      </trkpt>
      <trkpt lat="44.10814" lon="3.01151">
        <ele>652.6</ele>
        <time>2021-03-06T14:10:15Z</time>
      </trkpt>
      <trkpt lat="44.10818" lon="3.01159">
        <ele>652.3</ele>
        <time>2021-03-06T14:10:16Z</time>
      </trkpt>
      <trkpt lat="44.10824" lon="3.01173">
        <ele>651.3</ele>
        <time>2021-03-06T14:10:18Z</time>
      </trkpt>
      <trkpt lat="44.1083" lon="3.01188">
        <ele>649.7</ele>
        <time>2021-03-06T14:10:20Z</time>
      </trkpt>
      <trkpt lat="44.10834" lon="3.01194">
        <ele>648.6</ele>
        <time>2021-03-06T14:10:21Z</time>
      </trkpt>
      <trkpt lat="44.10836" lon="3.01199">
        <ele>647.6</ele>
        <time>2021-03-06T14:10:23Z</time>
      </trkpt>
      <trkpt lat="44.10838" lon="3.01205">
        <ele>646.3</ele>
        <time>2021-03-06T14:10:24Z</time>
      </trkpt>
      <trkpt lat="44.10842" lon="3.01214">
        <ele>644.4</ele>
        <time>2021-03-06T14:10:26Z</time>
      </trkpt>
      <trkpt lat="44.10848" lon="3.0122">
        <ele>642.5</ele>
        <time>2021-03-06T14:10:27Z</time>
      </trkpt>
      <trkpt lat="44.10855" lon="3.01229">
        <ele>640.2</ele>
        <time>2021-03-06T14:10:29Z</time>
      </trkpt>
      <trkpt lat="44.10857" lon="3.01235">
        <ele>639.2</ele>
        <time>2021-03-06T14:10:30Z</time>
      </trkpt>
      <trkpt lat="44.10861" lon="3.01244">
        <ele>637.7</ele>
        <time>2021-03-06T14:10:31Z</time>
      </trkpt>
      <trkpt lat="44.10869" lon="3.01261">
        <ele>635.2</ele>
        <time>2021-03-06T14:10:33Z</time>
      </trkpt>
      <trkpt lat="44.10874" lon="3.01277">
        <ele>633.1</ele>
        <time>2021-03-06T14:10:35Z</time>
      </trkpt>
      <trkpt lat="44.10876" lon="3.01287">
        <ele>632</ele>
        <time>2021-03-06T14:10:36Z</time>
      </trkpt>
      <trkpt lat="44.10879" lon="3.01307">
        <ele>630.1</ele>
        <time>2021-03-06T14:10:38Z</time>
      </trkpt>
      <trkpt lat="44.10879" lon="3.01329">
        <ele>628.1</ele>
        <time>2021-03-06T14:10:40Z</time>
      </trkpt>
      <trkpt lat="44.10876" lon="3.01347">
        <ele>626.1</ele>
        <time>2021-03-06T14:10:42Z</time>
      </trkpt>
      <trkpt lat="44.10871" lon="3.01353">
        <ele>625.1</ele>
        <time>2021-03-06T14:10:43Z</time>
      </trkpt>
      <trkpt lat="44.10856" lon="3.01361">
        <ele>622.7</ele>
        <time>2021-03-06T14:10:45Z</time>
      </trkpt>
      <trkpt lat="44.10841" lon="3.01366">
        <ele>621.2</ele>
        <time>2021-03-06T14:10:47Z</time>
      </trkpt>
      <trkpt lat="44.10832" lon="3.01369">
        <ele>620.7</ele>
        <time>2021-03-06T14:10:48Z</time>
      </trkpt>
      <trkpt lat="44.10825" lon="3.01372">
        <ele>620.3</ele>
        <time>2021-03-06T14:10:49Z</time>
      </trkpt>
      <trkpt lat="44.10817" lon="3.01376">
        <ele>620</ele>
        <time>2021-03-06T14:10:50Z</time>
      </trkpt>
      <trkpt lat="44.10804" lon="3.01387">
        <ele>619.5</ele>
        <time>2021-03-06T14:10:52Z</time>
      </trkpt>
      <trkpt lat="44.10798" lon="3.01392">
        <ele>619.3</ele>
        <time>2021-03-06T14:10:53Z</time>
      </trkpt>
      <trkpt lat="44.10789" lon="3.01406">
        <ele>619</ele>
        <time>2021-03-06T14:10:55Z</time>
      </trkpt>
      <trkpt lat="44.10783" lon="3.01423">
        <ele>619</ele>
        <time>2021-03-06T14:10:57Z</time>
      </trkpt>
      <trkpt lat="44.10781" lon="3.01436">
        <ele>619.1</ele>
        <time>2021-03-06T14:10:59Z</time>
      </trkpt>
      <trkpt lat="44.10782" lon="3.01443">
        <ele>619.1</ele>
        <time>2021-03-06T14:11:01Z</time>
      </trkpt>
      <trkpt lat="44.10784" lon="3.01446">
        <ele>619.2</ele>
        <time>2021-03-06T14:11:02Z</time>
      </trkpt>
      <trkpt lat="44.10785" lon="3.01449">
        <ele>619.3</ele>
        <time>2021-03-06T14:11:04Z</time>
      </trkpt>
      <trkpt lat="44.10785" lon="3.0145">
        <ele>619.3</ele>
        <time>2021-03-06T14:11:05Z</time>
      </trkpt>
      <trkpt lat="44.10785" lon="3.01451">
        <ele>619.3</ele>
        <time>2021-03-06T14:11:07Z</time>
      </trkpt>
      <trkpt lat="44.10785" lon="3.01451">
        <ele>619.3</ele>
        <time>2021-03-06T14:11:08Z</time>
      </trkpt>
      <trkpt lat="44.10785" lon="3.0145">
        <ele>619.3</ele>
        <time>2021-03-06T14:11:10Z</time>
      </trkpt>
      <trkpt lat="44.10785" lon="3.0145">
        <ele>619.3</ele>
        <time>2021-03-06T14:11:11Z</time>
      </trkpt>
      <trkpt lat="44.10785" lon="3.0145">
        <ele>619.3</ele>
        <time>2021-03-06T14:11:13Z</time>
      </trkpt>
      <trkpt lat="44.10786" lon="3.01455">
        <ele>619.5</ele>
        <time>2021-03-06T14:11:15Z</time>
      </trkpt>
      <trkpt lat="44.10786" lon="3.0146">
        <ele>619.6</ele>
        <time>2021-03-06T14:11:16Z</time>
      </trkpt>
      <trkpt lat="44.10787" lon="3.01468">
        <ele>619.7</ele>
        <time>2021-03-06T14:11:17Z</time>
      </trkpt>
      <trkpt lat="44.10786" lon="3.01481">
        <ele>619.6</ele>
        <time>2021-03-06T14:11:19Z</time>
      </trkpt>
      <trkpt lat="44.10785" lon="3.01489">
        <ele>619.2</ele>
        <time>2021-03-06T14:11:20Z</time>
      </trkpt>
      <trkpt lat="44.10783" lon="3.01506">
        <ele>617.8</ele>
        <time>2021-03-06T14:11:22Z</time>
      </trkpt>
      <trkpt lat="44.10784" lon="3.01513">
        <ele>616.9</ele>
        <time>2021-03-06T14:11:23Z</time>
      </trkpt>
      <trkpt lat="44.10786" lon="3.01521">
        <ele>615.9</ele>
        <time>2021-03-06T14:11:24Z</time>
      </trkpt>
      <trkpt lat="44.10785" lon="3.01526">
        <ele>615.1</ele>
        <time>2021-03-06T14:11:25Z</time>
      </trkpt>
      <trkpt lat="44.10784" lon="3.01529">
        <ele>614.7</ele>
        <time>2021-03-06T14:11:27Z</time>
      </trkpt>
      <trkpt lat="44.10784" lon="3.01527">
        <ele>614.5</ele>
        <time>2021-03-06T14:11:29Z</time>
      </trkpt>
      <trkpt lat="44.10783" lon="3.01526">
        <ele>614.3</ele>
        <time>2021-03-06T14:11:31Z</time>
      </trkpt>
      <trkpt lat="44.10783" lon="3.01525">
        <ele>614.2</ele>
        <time>2021-03-06T14:11:33Z</time>
      </trkpt>
      <trkpt lat="44.10783" lon="3.01525">
        <ele>614.2</ele>
        <time>2021-03-06T14:11:34Z</time>
      </trkpt>
      <trkpt lat="44.10783" lon="3.01525">
        <ele>614.1</ele>
        <time>2021-03-06T14:11:35Z</time>
      </trkpt>
      <trkpt lat="44.10783" lon="3.01525">
        <ele>614.1</ele>
        <time>2021-03-06T14:11:36Z</time>
      </trkpt>
      <trkpt lat="44.10783" lon="3.01525">
        <ele>614.1</ele>
        <time>2021-03-06T14:11:38Z</time>
      </trkpt>
      <trkpt lat="44.10783" lon="3.01524">
        <ele>614</ele>
        <time>2021-03-06T14:11:40Z</time>
      </trkpt>
      <trkpt lat="44.10783" lon="3.01524">
        <ele>613.9</ele>
        <time>2021-03-06T14:11:41Z</time>
      </trkpt>
      <trkpt lat="44.10783" lon="3.01524">
        <ele>613.9</ele>
        <time>2021-03-06T14:11:44Z</time>
      </trkpt>
      <trkpt lat="44.10783" lon="3.01524">
        <ele>613.9</ele>
        <time>2021-03-06T14:11:46Z</time>
      </trkpt>
      <trkpt lat="44.10783" lon="3.01524">
        <ele>613.9</ele>
        <time>2021-03-06T14:11:48Z</time>
      </trkpt>
      <trkpt lat="44.10785" lon="3.01527">
        <ele>613.4</ele>
        <time>2021-03-06T14:12:26Z</time>
      </trkpt>
      <trkpt lat="44.10787" lon="3.0153">
        <ele>613</ele>
        <time>2021-03-06T14:12:27Z</time>
      </trkpt>
      <trkpt lat="44.10785" lon="3.01534">
        <ele>612.5</ele>
        <time>2021-03-06T14:12:29Z</time>
      </trkpt>
      <trkpt lat="44.10784" lon="3.01539">
        <ele>611.8</ele>
        <time>2021-03-06T14:12:30Z</time>
      </trkpt>
      <trkpt lat="44.10776" lon="3.01543">
        <ele>611.2</ele>
        <time>2021-03-06T14:12:32Z</time>
      </trkpt>
      <trkpt lat="44.10767" lon="3.01532">
        <ele>610.3</ele>
        <time>2021-03-06T14:12:33Z</time>
      </trkpt>
      <trkpt lat="44.10763" lon="3.01525">
        <ele>609.8</ele>
        <time>2021-03-06T14:12:34Z</time>
      </trkpt>
      <trkpt lat="44.10756" lon="3.01509">
        <ele>608.8</ele>
        <time>2021-03-06T14:12:36Z</time>
      </trkpt>
      <trkpt lat="44.10747" lon="3.01498">
        <ele>607.9</ele>
        <time>2021-03-06T14:12:38Z</time>
      </trkpt>
      <trkpt lat="44.10733" lon="3.01487">
        <ele>606.6</ele>
        <time>2021-03-06T14:12:40Z</time>
      </trkpt>
      <trkpt lat="44.10725" lon="3.0148">
        <ele>605.9</ele>
        <time>2021-03-06T14:12:41Z</time>
      </trkpt>
      <trkpt lat="44.10712" lon="3.01464">
        <ele>604.6</ele>
        <time>2021-03-06T14:12:43Z</time>
      </trkpt>
      <trkpt lat="44.10704" lon="3.0146">
        <ele>604</ele>
        <time>2021-03-06T14:12:44Z</time>
      </trkpt>
      <trkpt lat="44.10692" lon="3.01451">
        <ele>603</ele>
        <time>2021-03-06T14:12:46Z</time>
      </trkpt>
      <trkpt lat="44.10683" lon="3.01437">
        <ele>602</ele>
        <time>2021-03-06T14:12:48Z</time>
      </trkpt>
      <trkpt lat="44.10678" lon="3.01432">
        <ele>601.5</ele>
        <time>2021-03-06T14:12:49Z</time>
      </trkpt>
      <trkpt lat="44.10669" lon="3.01421">
        <ele>600.6</ele>
        <time>2021-03-06T14:12:51Z</time>
      </trkpt>
      <trkpt lat="44.10669" lon="3.01411">
        <ele>600.1</ele>
        <time>2021-03-06T14:12:52Z</time>
      </trkpt>
      <trkpt lat="44.10668" lon="3.014">
        <ele>599.4</ele>
        <time>2021-03-06T14:12:53Z</time>
      </trkpt>
      <trkpt lat="44.10669" lon="3.01389">
        <ele>598.9</ele>
        <time>2021-03-06T14:12:54Z</time>
      </trkpt>
      <trkpt lat="44.10669" lon="3.0138">
        <ele>598.3</ele>
        <time>2021-03-06T14:12:55Z</time>
      </trkpt>
      <trkpt lat="44.10666" lon="3.01367">
        <ele>597.6</ele>
        <time>2021-03-06T14:12:57Z</time>
      </trkpt>
      <trkpt lat="44.10658" lon="3.01365">
        <ele>597</ele>
        <time>2021-03-06T14:12:59Z</time>
      </trkpt>
      <trkpt lat="44.1065" lon="3.01363">
        <ele>596.4</ele>
        <time>2021-03-06T14:13:00Z</time>
      </trkpt>
      <trkpt lat="44.10642" lon="3.01361">
        <ele>595.7</ele>
        <time>2021-03-06T14:13:01Z</time>
      </trkpt>
      <trkpt lat="44.10627" lon="3.01357">
        <ele>594.6</ele>
        <time>2021-03-06T14:13:03Z</time>
      </trkpt>
      <trkpt lat="44.10621" lon="3.01355">
        <ele>594.1</ele>
        <time>2021-03-06T14:13:04Z</time>
      </trkpt>
      <trkpt lat="44.10616" lon="3.01352">
        <ele>593.7</ele>
        <time>2021-03-06T14:13:05Z</time>
      </trkpt>
      <trkpt lat="44.1061" lon="3.01349">
        <ele>593.2</ele>
        <time>2021-03-06T14:13:06Z</time>
      </trkpt>
      <trkpt lat="44.10601" lon="3.01345">
        <ele>592.5</ele>
        <time>2021-03-06T14:13:08Z</time>
      </trkpt>
      <trkpt lat="44.10593" lon="3.01342">
        <ele>591.9</ele>
        <time>2021-03-06T14:13:10Z</time>
      </trkpt>
      <trkpt lat="44.1059" lon="3.01342">
        <ele>591.6</ele>
        <time>2021-03-06T14:13:11Z</time>
      </trkpt>
      <trkpt lat="44.10585" lon="3.01341">
        <ele>591.3</ele>
        <time>2021-03-06T14:13:12Z</time>
      </trkpt>
      <trkpt lat="44.10573" lon="3.01337">
        <ele>590.4</ele>
        <time>2021-03-06T14:13:14Z</time>
      </trkpt>
      <trkpt lat="44.10562" lon="3.01331">
        <ele>589.4</ele>
        <time>2021-03-06T14:13:16Z</time>
      </trkpt>
      <trkpt lat="44.10551" lon="3.01328">
        <ele>588.6</ele>
        <time>2021-03-06T14:13:18Z</time>
      </trkpt>
      <trkpt lat="44.10541" lon="3.01325">
        <ele>587.8</ele>
        <time>2021-03-06T14:13:20Z</time>
      </trkpt>
      <trkpt lat="44.10531" lon="3.01322">
        <ele>587.1</ele>
        <time>2021-03-06T14:13:22Z</time>
      </trkpt>
      <trkpt lat="44.10521" lon="3.0132">
        <ele>586.3</ele>
        <time>2021-03-06T14:13:24Z</time>
      </trkpt>
      <trkpt lat="44.10515" lon="3.01319">
        <ele>585.9</ele>
        <time>2021-03-06T14:13:25Z</time>
      </trkpt>
      <trkpt lat="44.10509" lon="3.01317">
        <ele>585.4</ele>
        <time>2021-03-06T14:13:26Z</time>
      </trkpt>
      <trkpt lat="44.10503" lon="3.01316">
        <ele>584.9</ele>
        <time>2021-03-06T14:13:27Z</time>
      </trkpt>
      <trkpt lat="44.10495" lon="3.01314">
        <ele>584.4</ele>
        <time>2021-03-06T14:13:28Z</time>
      </trkpt>
      <trkpt lat="44.10482" lon="3.01311">
        <ele>583.3</ele>
        <time>2021-03-06T14:13:30Z</time>
      </trkpt>
      <trkpt lat="44.10468" lon="3.01308">
        <ele>582.3</ele>
        <time>2021-03-06T14:13:32Z</time>
      </trkpt>
      <trkpt lat="44.1046" lon="3.01306">
        <ele>581.7</ele>
        <time>2021-03-06T14:13:33Z</time>
      </trkpt>
      <trkpt lat="44.10454" lon="3.01304">
        <ele>581.2</ele>
        <time>2021-03-06T14:13:34Z</time>
      </trkpt>
      <trkpt lat="44.1044" lon="3.01299">
        <ele>580.1</ele>
        <time>2021-03-06T14:13:36Z</time>
      </trkpt>
      <trkpt lat="44.10432" lon="3.01296">
        <ele>579.5</ele>
        <time>2021-03-06T14:13:37Z</time>
      </trkpt>
      <trkpt lat="44.10417" lon="3.0129">
        <ele>578.3</ele>
        <time>2021-03-06T14:13:39Z</time>
      </trkpt>
      <trkpt lat="44.1041" lon="3.01285">
        <ele>577.7</ele>
        <time>2021-03-06T14:13:40Z</time>
      </trkpt>
      <trkpt lat="44.10397" lon="3.01278">
        <ele>576.7</ele>
        <time>2021-03-06T14:13:42Z</time>
      </trkpt>
      <trkpt lat="44.10388" lon="3.0127">
        <ele>575.8</ele>
        <time>2021-03-06T14:13:44Z</time>
      </trkpt>
      <trkpt lat="44.10383" lon="3.01266">
        <ele>575.4</ele>
        <time>2021-03-06T14:13:45Z</time>
      </trkpt>
      <trkpt lat="44.10378" lon="3.01263">
        <ele>575</ele>
        <time>2021-03-06T14:13:46Z</time>
      </trkpt>
      <trkpt lat="44.10372" lon="3.01256">
        <ele>574.4</ele>
        <time>2021-03-06T14:13:48Z</time>
      </trkpt>
      <trkpt lat="44.1037" lon="3.01251">
        <ele>574.1</ele>
        <time>2021-03-06T14:13:49Z</time>
      </trkpt>
      <trkpt lat="44.10365" lon="3.01248">
        <ele>573.7</ele>
        <time>2021-03-06T14:13:50Z</time>
      </trkpt>
      <trkpt lat="44.10355" lon="3.01242">
        <ele>572.9</ele>
        <time>2021-03-06T14:13:52Z</time>
      </trkpt>
      <trkpt lat="44.10346" lon="3.01237">
        <ele>572.2</ele>
        <time>2021-03-06T14:13:54Z</time>
      </trkpt>
      <trkpt lat="44.10337" lon="3.01233">
        <ele>571.5</ele>
        <time>2021-03-06T14:13:55Z</time>
      </trkpt>
      <trkpt lat="44.10331" lon="3.0123">
        <ele>571</ele>
        <time>2021-03-06T14:13:57Z</time>
      </trkpt>
      <trkpt lat="44.10317" lon="3.01223">
        <ele>569.9</ele>
        <time>2021-03-06T14:13:59Z</time>
      </trkpt>
      <trkpt lat="44.10306" lon="3.01214">
        <ele>568.9</ele>
        <time>2021-03-06T14:14:01Z</time>
      </trkpt>
      <trkpt lat="44.10294" lon="3.01205">
        <ele>567.9</ele>
        <time>2021-03-06T14:14:03Z</time>
      </trkpt>
      <trkpt lat="44.10289" lon="3.01201">
        <ele>567.5</ele>
        <time>2021-03-06T14:14:04Z</time>
      </trkpt>
      <trkpt lat="44.10277" lon="3.01193">
        <ele>566.4</ele>
        <time>2021-03-06T14:14:06Z</time>
      </trkpt>
      <trkpt lat="44.10271" lon="3.01187">
        <ele>565.9</ele>
        <time>2021-03-06T14:14:07Z</time>
      </trkpt>
      <trkpt lat="44.10265" lon="3.01181">
        <ele>565.3</ele>
        <time>2021-03-06T14:14:08Z</time>
      </trkpt>
      <trkpt lat="44.10251" lon="3.01172">
        <ele>564.2</ele>
        <time>2021-03-06T14:14:10Z</time>
      </trkpt>
      <trkpt lat="44.10244" lon="3.01166">
        <ele>563.6</ele>
        <time>2021-03-06T14:14:11Z</time>
      </trkpt>
      <trkpt lat="44.1023" lon="3.01156">
        <ele>562.3</ele>
        <time>2021-03-06T14:14:13Z</time>
      </trkpt>
      <trkpt lat="44.10222" lon="3.01151">
        <ele>561.7</ele>
        <time>2021-03-06T14:14:14Z</time>
      </trkpt>
      <trkpt lat="44.10209" lon="3.01138">
        <ele>560.5</ele>
        <time>2021-03-06T14:14:16Z</time>
      </trkpt>
      <trkpt lat="44.10202" lon="3.01131">
        <ele>559.8</ele>
        <time>2021-03-06T14:14:17Z</time>
      </trkpt>
      <trkpt lat="44.10188" lon="3.01117">
        <ele>558.6</ele>
        <time>2021-03-06T14:14:19Z</time>
      </trkpt>
      <trkpt lat="44.10183" lon="3.01107">
        <ele>557.9</ele>
        <time>2021-03-06T14:14:20Z</time>
      </trkpt>
      <trkpt lat="44.10172" lon="3.01087">
        <ele>556.6</ele>
        <time>2021-03-06T14:14:22Z</time>
      </trkpt>
      <trkpt lat="44.10164" lon="3.01066">
        <ele>555.3</ele>
        <time>2021-03-06T14:14:24Z</time>
      </trkpt>
      <trkpt lat="44.1016" lon="3.01056">
        <ele>554.6</ele>
        <time>2021-03-06T14:14:25Z</time>
      </trkpt>
      <trkpt lat="44.10157" lon="3.01049">
        <ele>554.2</ele>
        <time>2021-03-06T14:14:26Z</time>
      </trkpt>
      <trkpt lat="44.10153" lon="3.01044">
        <ele>553.8</ele>
        <time>2021-03-06T14:14:28Z</time>
      </trkpt>
      <trkpt lat="44.10149" lon="3.01039">
        <ele>553.4</ele>
        <time>2021-03-06T14:14:30Z</time>
      </trkpt>
      <trkpt lat="44.10146" lon="3.01037">
        <ele>553.1</ele>
        <time>2021-03-06T14:14:31Z</time>
      </trkpt>
      <trkpt lat="44.10144" lon="3.01037">
        <ele>553</ele>
        <time>2021-03-06T14:14:32Z</time>
      </trkpt>
      <trkpt lat="44.1014" lon="3.01031">
        <ele>552.6</ele>
        <time>2021-03-06T14:14:34Z</time>
      </trkpt>
      <trkpt lat="44.1014" lon="3.01032">
        <ele>552.5</ele>
        <time>2021-03-06T14:14:35Z</time>
      </trkpt>
      <trkpt lat="44.10139" lon="3.01025">
        <ele>552.1</ele>
        <time>2021-03-06T14:14:37Z</time>
      </trkpt>
      <trkpt lat="44.10137" lon="3.01018">
        <ele>551.7</ele>
        <time>2021-03-06T14:14:38Z</time>
      </trkpt>
      <trkpt lat="44.10136" lon="3.01013">
        <ele>551.4</ele>
        <time>2021-03-06T14:14:39Z</time>
      </trkpt>
      <trkpt lat="44.10133" lon="3.01008">
        <ele>551.1</ele>
        <time>2021-03-06T14:14:41Z</time>
      </trkpt>
      <trkpt lat="44.1013" lon="3.01001">
        <ele>550.7</ele>
        <time>2021-03-06T14:14:42Z</time>
      </trkpt>
      <trkpt lat="44.10128" lon="3.00995">
        <ele>550.3</ele>
        <time>2021-03-06T14:14:44Z</time>
      </trkpt>
      <trkpt lat="44.10126" lon="3.00989">
        <ele>550</ele>
        <time>2021-03-06T14:14:45Z</time>
      </trkpt>
      <trkpt lat="44.10124" lon="3.00986">
        <ele>549.7</ele>
        <time>2021-03-06T14:14:46Z</time>
      </trkpt>
      <trkpt lat="44.10123" lon="3.0098">
        <ele>549.4</ele>
        <time>2021-03-06T14:14:48Z</time>
      </trkpt>
      <trkpt lat="44.10122" lon="3.00975">
        <ele>549.1</ele>
        <time>2021-03-06T14:14:49Z</time>
      </trkpt>
      <trkpt lat="44.10119" lon="3.0097">
        <ele>548.8</ele>
        <time>2021-03-06T14:14:51Z</time>
      </trkpt>
      <trkpt lat="44.10116" lon="3.00964">
        <ele>548.4</ele>
        <time>2021-03-06T14:14:52Z</time>
      </trkpt>
      <trkpt lat="44.10114" lon="3.00959">
        <ele>548.1</ele>
        <time>2021-03-06T14:14:54Z</time>
      </trkpt>
      <trkpt lat="44.10111" lon="3.00952">
        <ele>547.7</ele>
        <time>2021-03-06T14:14:55Z</time>
      </trkpt>
      <trkpt lat="44.10108" lon="3.00947">
        <ele>547.3</ele>
        <time>2021-03-06T14:14:57Z</time>
      </trkpt>
      <trkpt lat="44.10105" lon="3.00942">
        <ele>546.9</ele>
        <time>2021-03-06T14:14:59Z</time>
      </trkpt>
      <trkpt lat="44.10102" lon="3.00938">
        <ele>546.6</ele>
        <time>2021-03-06T14:15:00Z</time>
      </trkpt>
      <trkpt lat="44.10099" lon="3.00935">
        <ele>546.3</ele>
        <time>2021-03-06T14:15:02Z</time>
      </trkpt>
      <trkpt lat="44.10096" lon="3.00933">
        <ele>546.1</ele>
        <time>2021-03-06T14:15:03Z</time>
      </trkpt>
      <trkpt lat="44.10091" lon="3.00929">
        <ele>545.7</ele>
        <time>2021-03-06T14:15:04Z</time>
      </trkpt>
      <trkpt lat="44.10086" lon="3.00926">
        <ele>545.3</ele>
        <time>2021-03-06T14:15:06Z</time>
      </trkpt>
      <trkpt lat="44.10083" lon="3.00925">
        <ele>545.1</ele>
        <time>2021-03-06T14:15:07Z</time>
      </trkpt>
      <trkpt lat="44.10079" lon="3.00924">
        <ele>544.9</ele>
        <time>2021-03-06T14:15:08Z</time>
      </trkpt>
      <trkpt lat="44.10076" lon="3.00923">
        <ele>544.6</ele>
        <time>2021-03-06T14:15:10Z</time>
      </trkpt>
      <trkpt lat="44.10068" lon="3.00927">
        <ele>543.9</ele>
        <time>2021-03-06T14:15:11Z</time>
      </trkpt>
      <trkpt lat="44.10057" lon="3.00928">
        <ele>542.7</ele>
        <time>2021-03-06T14:15:13Z</time>
      </trkpt>
      <trkpt lat="44.10052" lon="3.00927">
        <ele>542.2</ele>
        <time>2021-03-06T14:15:14Z</time>
      </trkpt>
      <trkpt lat="44.10044" lon="3.00932">
        <ele>541.2</ele>
        <time>2021-03-06T14:15:16Z</time>
      </trkpt>
      <trkpt lat="44.10039" lon="3.00934">
        <ele>540.8</ele>
        <time>2021-03-06T14:15:17Z</time>
      </trkpt>
      <trkpt lat="44.10028" lon="3.00937">
        <ele>540.5</ele>
        <time>2021-03-06T14:15:19Z</time>
      </trkpt>
      <trkpt lat="44.10027" lon="3.00934">
        <ele>540.5</ele>
        <time>2021-03-06T14:15:20Z</time>
      </trkpt>
      <trkpt lat="44.10026" lon="3.00932">
        <ele>540.4</ele>
        <time>2021-03-06T14:15:21Z</time>
      </trkpt>
      <trkpt lat="44.10024" lon="3.00932">
        <ele>540.3</ele>
        <time>2021-03-06T14:15:23Z</time>
      </trkpt>
      <trkpt lat="44.10023" lon="3.00931">
        <ele>540.3</ele>
        <time>2021-03-06T14:15:24Z</time>
      </trkpt>
      <trkpt lat="44.10021" lon="3.00931">
        <ele>540.2</ele>
        <time>2021-03-06T14:15:25Z</time>
      </trkpt>
      <trkpt lat="44.10017" lon="3.00928">
        <ele>539.9</ele>
        <time>2021-03-06T14:15:26Z</time>
      </trkpt>
      <trkpt lat="44.10016" lon="3.00926">
        <ele>539.8</ele>
        <time>2021-03-06T14:15:27Z</time>
      </trkpt>
      <trkpt lat="44.10013" lon="3.00924">
        <ele>539.5</ele>
        <time>2021-03-06T14:15:28Z</time>
      </trkpt>
      <trkpt lat="44.1001" lon="3.00922">
        <ele>539.2</ele>
        <time>2021-03-06T14:15:30Z</time>
      </trkpt>
      <trkpt lat="44.10007" lon="3.00921">
        <ele>538.9</ele>
        <time>2021-03-06T14:15:31Z</time>
      </trkpt>
      <trkpt lat="44.10002" lon="3.00921">
        <ele>538.4</ele>
        <time>2021-03-06T14:15:32Z</time>
      </trkpt>
      <trkpt lat="44.09996" lon="3.00921">
        <ele>538</ele>
        <time>2021-03-06T14:15:34Z</time>
      </trkpt>
      <trkpt lat="44.09993" lon="3.0092">
        <ele>537.6</ele>
        <time>2021-03-06T14:15:35Z</time>
      </trkpt>
      <trkpt lat="44.0999" lon="3.00915">
        <ele>537.2</ele>
        <time>2021-03-06T14:15:36Z</time>
      </trkpt>
      <trkpt lat="44.09987" lon="3.0091">
        <ele>536.6</ele>
        <time>2021-03-06T14:15:38Z</time>
      </trkpt>
      <trkpt lat="44.09985" lon="3.00909">
        <ele>536.3</ele>
        <time>2021-03-06T14:15:39Z</time>
      </trkpt>
      <trkpt lat="44.09983" lon="3.00908">
        <ele>536</ele>
        <time>2021-03-06T14:15:40Z</time>
      </trkpt>
      <trkpt lat="44.09977" lon="3.00905">
        <ele>535</ele>
        <time>2021-03-06T14:15:42Z</time>
      </trkpt>
      <trkpt lat="44.09971" lon="3.00901">
        <ele>534</ele>
        <time>2021-03-06T14:15:44Z</time>
      </trkpt>
      <trkpt lat="44.09968" lon="3.00895">
        <ele>533.3</ele>
        <time>2021-03-06T14:15:45Z</time>
      </trkpt>
      <trkpt lat="44.09963" lon="3.00891">
        <ele>532.6</ele>
        <time>2021-03-06T14:15:46Z</time>
      </trkpt>
      <trkpt lat="44.09954" lon="3.00884">
        <ele>531.4</ele>
        <time>2021-03-06T14:15:48Z</time>
      </trkpt>
      <trkpt lat="44.09949" lon="3.00879">
        <ele>531.1</ele>
        <time>2021-03-06T14:15:49Z</time>
      </trkpt>
      <trkpt lat="44.09945" lon="3.00874">
        <ele>530.9</ele>
        <time>2021-03-06T14:15:50Z</time>
      </trkpt>
      <trkpt lat="44.0994" lon="3.00861">
        <ele>530.9</ele>
        <time>2021-03-06T14:15:52Z</time>
      </trkpt>
      <trkpt lat="44.09939" lon="3.00858">
        <ele>530.9</ele>
        <time>2021-03-06T14:15:53Z</time>
      </trkpt>
      <trkpt lat="44.09937" lon="3.0085">
        <ele>530.9</ele>
        <time>2021-03-06T14:15:55Z</time>
      </trkpt>
      <trkpt lat="44.0993" lon="3.00834">
        <ele>530.7</ele>
        <time>2021-03-06T14:15:57Z</time>
      </trkpt>
      <trkpt lat="44.09928" lon="3.00827">
        <ele>530.7</ele>
        <time>2021-03-06T14:15:58Z</time>
      </trkpt>
      <trkpt lat="44.09924" lon="3.00815">
        <ele>530.6</ele>
        <time>2021-03-06T14:16:00Z</time>
      </trkpt>
      <trkpt lat="44.09921" lon="3.00805">
        <ele>530.5</ele>
        <time>2021-03-06T14:16:02Z</time>
      </trkpt>
      <trkpt lat="44.09922" lon="3.00798">
        <ele>530.3</ele>
        <time>2021-03-06T14:16:03Z</time>
      </trkpt>
      <trkpt lat="44.0992" lon="3.00791">
        <ele>530.1</ele>
        <time>2021-03-06T14:16:05Z</time>
      </trkpt>
      <trkpt lat="44.09917" lon="3.00783">
        <ele>529.9</ele>
        <time>2021-03-06T14:16:06Z</time>
      </trkpt>
      <trkpt lat="44.09914" lon="3.00776">
        <ele>529.9</ele>
        <time>2021-03-06T14:16:08Z</time>
      </trkpt>
      <trkpt lat="44.09912" lon="3.00767">
        <ele>529.9</ele>
        <time>2021-03-06T14:16:09Z</time>
      </trkpt>
      <trkpt lat="44.0991" lon="3.00761">
        <ele>530</ele>
        <time>2021-03-06T14:16:10Z</time>
      </trkpt>
      <trkpt lat="44.09907" lon="3.00754">
        <ele>530.2</ele>
        <time>2021-03-06T14:16:11Z</time>
      </trkpt>
      <trkpt lat="44.09906" lon="3.00747">
        <ele>530.2</ele>
        <time>2021-03-06T14:16:12Z</time>
      </trkpt>
      <trkpt lat="44.09906" lon="3.0074">
        <ele>530.1</ele>
        <time>2021-03-06T14:16:14Z</time>
      </trkpt>
      <trkpt lat="44.09906" lon="3.00735">
        <ele>530</ele>
        <time>2021-03-06T14:16:15Z</time>
      </trkpt>
      <trkpt lat="44.09905" lon="3.00729">
        <ele>529.8</ele>
        <time>2021-03-06T14:16:16Z</time>
      </trkpt>
      <trkpt lat="44.09901" lon="3.0072">
        <ele>529.4</ele>
        <time>2021-03-06T14:16:17Z</time>
      </trkpt>
      <trkpt lat="44.09901" lon="3.00712">
        <ele>528.9</ele>
        <time>2021-03-06T14:16:19Z</time>
      </trkpt>
      <trkpt lat="44.099" lon="3.007">
        <ele>528</ele>
        <time>2021-03-06T14:16:21Z</time>
      </trkpt>
      <trkpt lat="44.09897" lon="3.00693">
        <ele>527.3</ele>
        <time>2021-03-06T14:16:22Z</time>
      </trkpt>
      <trkpt lat="44.09894" lon="3.00686">
        <ele>526.7</ele>
        <time>2021-03-06T14:16:23Z</time>
      </trkpt>
      <trkpt lat="44.09889" lon="3.00671">
        <ele>525.8</ele>
        <time>2021-03-06T14:16:25Z</time>
      </trkpt>
      <trkpt lat="44.09887" lon="3.00657">
        <ele>525</ele>
        <time>2021-03-06T14:16:27Z</time>
      </trkpt>
      <trkpt lat="44.09889" lon="3.00651">
        <ele>524.6</ele>
        <time>2021-03-06T14:16:28Z</time>
      </trkpt>
      <trkpt lat="44.0989" lon="3.00642">
        <ele>523.9</ele>
        <time>2021-03-06T14:16:30Z</time>
      </trkpt>
      <trkpt lat="44.09889" lon="3.00628">
        <ele>522.6</ele>
        <time>2021-03-06T14:16:32Z</time>
      </trkpt>
      <trkpt lat="44.09889" lon="3.0062">
        <ele>521.9</ele>
        <time>2021-03-06T14:16:33Z</time>
      </trkpt>
      <trkpt lat="44.0989" lon="3.00613">
        <ele>521.1</ele>
        <time>2021-03-06T14:16:34Z</time>
      </trkpt>
      <trkpt lat="44.09891" lon="3.00606">
        <ele>520.1</ele>
        <time>2021-03-06T14:16:35Z</time>
      </trkpt>
      <trkpt lat="44.09896" lon="3.00593">
        <ele>518.4</ele>
        <time>2021-03-06T14:16:37Z</time>
      </trkpt>
      <trkpt lat="44.09898" lon="3.00587">
        <ele>517.6</ele>
        <time>2021-03-06T14:16:38Z</time>
      </trkpt>
      <trkpt lat="44.099" lon="3.00581">
        <ele>516.9</ele>
        <time>2021-03-06T14:16:40Z</time>
      </trkpt>
      <trkpt lat="44.09903" lon="3.00572">
        <ele>516</ele>
        <time>2021-03-06T14:16:41Z</time>
      </trkpt>
      <trkpt lat="44.09901" lon="3.00567">
        <ele>515.6</ele>
        <time>2021-03-06T14:16:42Z</time>
      </trkpt>
      <trkpt lat="44.09904" lon="3.00562">
        <ele>515.3</ele>
        <time>2021-03-06T14:16:44Z</time>
      </trkpt>
      <trkpt lat="44.09909" lon="3.00559">
        <ele>514.8</ele>
        <time>2021-03-06T14:16:45Z</time>
      </trkpt>
      <trkpt lat="44.09912" lon="3.00556">
        <ele>514.5</ele>
        <time>2021-03-06T14:16:46Z</time>
      </trkpt>
      <trkpt lat="44.09916" lon="3.00551">
        <ele>513.8</ele>
        <time>2021-03-06T14:16:48Z</time>
      </trkpt>
      <trkpt lat="44.0992" lon="3.00548">
        <ele>513.1</ele>
        <time>2021-03-06T14:16:49Z</time>
      </trkpt>
      <trkpt lat="44.09924" lon="3.00545">
        <ele>512.2</ele>
        <time>2021-03-06T14:16:50Z</time>
      </trkpt>
      <trkpt lat="44.0993" lon="3.00536">
        <ele>509.9</ele>
        <time>2021-03-06T14:16:52Z</time>
      </trkpt>
      <trkpt lat="44.09932" lon="3.00531">
        <ele>508.7</ele>
        <time>2021-03-06T14:16:53Z</time>
      </trkpt>
      <trkpt lat="44.0993" lon="3.0052">
        <ele>506.7</ele>
        <time>2021-03-06T14:16:55Z</time>
      </trkpt>
      <trkpt lat="44.09928" lon="3.00515">
        <ele>505.8</ele>
        <time>2021-03-06T14:16:56Z</time>
      </trkpt>
      <trkpt lat="44.09926" lon="3.00505">
        <ele>504.3</ele>
        <time>2021-03-06T14:16:58Z</time>
      </trkpt>
      <trkpt lat="44.09921" lon="3.005">
        <ele>503.3</ele>
        <time>2021-03-06T14:16:59Z</time>
      </trkpt>
      <trkpt lat="44.09911" lon="3.00489">
        <ele>501.4</ele>
        <time>2021-03-06T14:17:01Z</time>
      </trkpt>
      <trkpt lat="44.09904" lon="3.0048">
        <ele>500.2</ele>
        <time>2021-03-06T14:17:03Z</time>
      </trkpt>
      <trkpt lat="44.09903" lon="3.00475">
        <ele>499.8</ele>
        <time>2021-03-06T14:17:04Z</time>
      </trkpt>
      <trkpt lat="44.09891" lon="3.00466">
        <ele>498</ele>
        <time>2021-03-06T14:17:06Z</time>
      </trkpt>
      <trkpt lat="44.09885" lon="3.0046">
        <ele>497.1</ele>
        <time>2021-03-06T14:17:07Z</time>
      </trkpt>
      <trkpt lat="44.09875" lon="3.00453">
        <ele>495.5</ele>
        <time>2021-03-06T14:17:09Z</time>
      </trkpt>
      <trkpt lat="44.09869" lon="3.00449">
        <ele>494.6</ele>
        <time>2021-03-06T14:17:10Z</time>
      </trkpt>
      <trkpt lat="44.09856" lon="3.00441">
        <ele>493</ele>
        <time>2021-03-06T14:17:12Z</time>
      </trkpt>
      <trkpt lat="44.09851" lon="3.00437">
        <ele>492.4</ele>
        <time>2021-03-06T14:17:13Z</time>
      </trkpt>
      <trkpt lat="44.09846" lon="3.00434">
        <ele>492</ele>
        <time>2021-03-06T14:17:14Z</time>
      </trkpt>
      <trkpt lat="44.09836" lon="3.00426">
        <ele>491.5</ele>
        <time>2021-03-06T14:17:16Z</time>
      </trkpt>
      <trkpt lat="44.09825" lon="3.0042">
        <ele>491.2</ele>
        <time>2021-03-06T14:17:18Z</time>
      </trkpt>
      <trkpt lat="44.09818" lon="3.00414">
        <ele>490.7</ele>
        <time>2021-03-06T14:17:20Z</time>
      </trkpt>
      <trkpt lat="44.09815" lon="3.00413">
        <ele>490.5</ele>
        <time>2021-03-06T14:17:21Z</time>
      </trkpt>
      <trkpt lat="44.09809" lon="3.00408">
        <ele>489.8</ele>
        <time>2021-03-06T14:17:23Z</time>
      </trkpt>
      <trkpt lat="44.09803" lon="3.00407">
        <ele>489.3</ele>
        <time>2021-03-06T14:17:24Z</time>
      </trkpt>
      <trkpt lat="44.0979" lon="3.00405">
        <ele>488.9</ele>
        <time>2021-03-06T14:17:26Z</time>
      </trkpt>
      <trkpt lat="44.09783" lon="3.00403">
        <ele>489.2</ele>
        <time>2021-03-06T14:17:27Z</time>
      </trkpt>
      <trkpt lat="44.09776" lon="3.00397">
        <ele>489.8</ele>
        <time>2021-03-06T14:17:29Z</time>
      </trkpt>
      <trkpt lat="44.09774" lon="3.00402">
        <ele>490.1</ele>
        <time>2021-03-06T14:17:30Z</time>
      </trkpt>
      <trkpt lat="44.09772" lon="3.00398">
        <ele>490.3</ele>
        <time>2021-03-06T14:17:31Z</time>
      </trkpt>
      <trkpt lat="44.0977" lon="3.00395">
        <ele>490.3</ele>
        <time>2021-03-06T14:17:32Z</time>
      </trkpt>
      <trkpt lat="44.09769" lon="3.00391">
        <ele>490.3</ele>
        <time>2021-03-06T14:17:33Z</time>
      </trkpt>
      <trkpt lat="44.09766" lon="3.00389">
        <ele>490.2</ele>
        <time>2021-03-06T14:17:34Z</time>
      </trkpt>
      <trkpt lat="44.09762" lon="3.00388">
        <ele>490</ele>
        <time>2021-03-06T14:17:36Z</time>
      </trkpt>
      <trkpt lat="44.09758" lon="3.00387">
        <ele>489.7</ele>
        <time>2021-03-06T14:17:37Z</time>
      </trkpt>
      <trkpt lat="44.09751" lon="3.00387">
        <ele>489.2</ele>
        <time>2021-03-06T14:17:38Z</time>
      </trkpt>
      <trkpt lat="44.09746" lon="3.00387">
        <ele>488.9</ele>
        <time>2021-03-06T14:17:40Z</time>
      </trkpt>
      <trkpt lat="44.09741" lon="3.00387">
        <ele>488.6</ele>
        <time>2021-03-06T14:17:41Z</time>
      </trkpt>
      <trkpt lat="44.09734" lon="3.00385">
        <ele>488.1</ele>
        <time>2021-03-06T14:17:42Z</time>
      </trkpt>
      <trkpt lat="44.0973" lon="3.00384">
        <ele>487.8</ele>
        <time>2021-03-06T14:17:44Z</time>
      </trkpt>
      <trkpt lat="44.09726" lon="3.00382">
        <ele>487.5</ele>
        <time>2021-03-06T14:17:45Z</time>
      </trkpt>
      <trkpt lat="44.0972" lon="3.00381">
        <ele>487.1</ele>
        <time>2021-03-06T14:17:46Z</time>
      </trkpt>
      <trkpt lat="44.09709" lon="3.0038">
        <ele>486.6</ele>
        <time>2021-03-06T14:17:48Z</time>
      </trkpt>
      <trkpt lat="44.09704" lon="3.00378">
        <ele>486.4</ele>
        <time>2021-03-06T14:17:49Z</time>
      </trkpt>
      <trkpt lat="44.09697" lon="3.00375">
        <ele>486.1</ele>
        <time>2021-03-06T14:17:51Z</time>
      </trkpt>
      <trkpt lat="44.09693" lon="3.00376">
        <ele>485.9</ele>
        <time>2021-03-06T14:17:52Z</time>
      </trkpt>
      <trkpt lat="44.09688" lon="3.00377">
        <ele>485.7</ele>
        <time>2021-03-06T14:17:54Z</time>
      </trkpt>
      <trkpt lat="44.0968" lon="3.00379">
        <ele>485.6</ele>
        <time>2021-03-06T14:17:55Z</time>
      </trkpt>
      <trkpt lat="44.09675" lon="3.0038">
        <ele>485.6</ele>
        <time>2021-03-06T14:17:56Z</time>
      </trkpt>
      <trkpt lat="44.09667" lon="3.00379">
        <ele>485.7</ele>
        <time>2021-03-06T14:17:58Z</time>
      </trkpt>
      <trkpt lat="44.09662" lon="3.00378">
        <ele>485.7</ele>
        <time>2021-03-06T14:17:59Z</time>
      </trkpt>
      <trkpt lat="44.09658" lon="3.00379">
        <ele>485.7</ele>
        <time>2021-03-06T14:18:01Z</time>
      </trkpt>
      <trkpt lat="44.09653" lon="3.00377">
        <ele>485.6</ele>
        <time>2021-03-06T14:18:02Z</time>
      </trkpt>
      <trkpt lat="44.09647" lon="3.00376">
        <ele>485.3</ele>
        <time>2021-03-06T14:18:03Z</time>
      </trkpt>
      <trkpt lat="44.09639" lon="3.00376">
        <ele>484.9</ele>
        <time>2021-03-06T14:18:05Z</time>
      </trkpt>
      <trkpt lat="44.09632" lon="3.00374">
        <ele>484.5</ele>
        <time>2021-03-06T14:18:06Z</time>
      </trkpt>
      <trkpt lat="44.0962" lon="3.00372">
        <ele>484.1</ele>
        <time>2021-03-06T14:18:08Z</time>
      </trkpt>
      <trkpt lat="44.09612" lon="3.00369">
        <ele>483.9</ele>
        <time>2021-03-06T14:18:10Z</time>
      </trkpt>
      <trkpt lat="44.09606" lon="3.00365">
        <ele>483.7</ele>
        <time>2021-03-06T14:18:11Z</time>
      </trkpt>
      <trkpt lat="44.09597" lon="3.00358">
        <ele>483.3</ele>
        <time>2021-03-06T14:18:13Z</time>
      </trkpt>
      <trkpt lat="44.09593" lon="3.00354">
        <ele>483.2</ele>
        <time>2021-03-06T14:18:14Z</time>
      </trkpt>
      <trkpt lat="44.09586" lon="3.00346">
        <ele>483.1</ele>
        <time>2021-03-06T14:18:16Z</time>
      </trkpt>
      <trkpt lat="44.09583" lon="3.00341">
        <ele>483</ele>
        <time>2021-03-06T14:18:17Z</time>
      </trkpt>
      <trkpt lat="44.09579" lon="3.00337">
        <ele>483</ele>
        <time>2021-03-06T14:18:18Z</time>
      </trkpt>
      <trkpt lat="44.09572" lon="3.0033">
        <ele>483</ele>
        <time>2021-03-06T14:18:20Z</time>
      </trkpt>
      <trkpt lat="44.09565" lon="3.00324">
        <ele>483</ele>
        <time>2021-03-06T14:18:22Z</time>
      </trkpt>
      <trkpt lat="44.09562" lon="3.00319">
        <ele>483</ele>
        <time>2021-03-06T14:18:23Z</time>
      </trkpt>
      <trkpt lat="44.09557" lon="3.00311">
        <ele>482.8</ele>
        <time>2021-03-06T14:18:25Z</time>
      </trkpt>
      <trkpt lat="44.09555" lon="3.00306">
        <ele>482.6</ele>
        <time>2021-03-06T14:18:26Z</time>
      </trkpt>
      <trkpt lat="44.09552" lon="3.003">
        <ele>482.2</ele>
        <time>2021-03-06T14:18:28Z</time>
      </trkpt>
      <trkpt lat="44.09549" lon="3.00297">
        <ele>481.9</ele>
        <time>2021-03-06T14:18:29Z</time>
      </trkpt>
      <trkpt lat="44.09547" lon="3.00291">
        <ele>481.4</ele>
        <time>2021-03-06T14:18:30Z</time>
      </trkpt>
      <trkpt lat="44.09541" lon="3.0028">
        <ele>480.5</ele>
        <time>2021-03-06T14:18:32Z</time>
      </trkpt>
      <trkpt lat="44.09537" lon="3.00276">
        <ele>480</ele>
        <time>2021-03-06T14:18:33Z</time>
      </trkpt>
      <trkpt lat="44.09534" lon="3.00274">
        <ele>479.8</ele>
        <time>2021-03-06T14:18:34Z</time>
      </trkpt>
      <trkpt lat="44.09524" lon="3.00266">
        <ele>479.1</ele>
        <time>2021-03-06T14:18:36Z</time>
      </trkpt>
      <trkpt lat="44.09519" lon="3.00261">
        <ele>478.9</ele>
        <time>2021-03-06T14:18:37Z</time>
      </trkpt>
      <trkpt lat="44.09515" lon="3.00257">
        <ele>478.8</ele>
        <time>2021-03-06T14:18:38Z</time>
      </trkpt>
      <trkpt lat="44.09509" lon="3.00249">
        <ele>478.9</ele>
        <time>2021-03-06T14:18:40Z</time>
      </trkpt>
      <trkpt lat="44.09505" lon="3.00244">
        <ele>479</ele>
        <time>2021-03-06T14:18:41Z</time>
      </trkpt>
      <trkpt lat="44.09501" lon="3.00239">
        <ele>478.9</ele>
        <time>2021-03-06T14:18:43Z</time>
      </trkpt>
      <trkpt lat="44.095" lon="3.00238">
        <ele>478.8</ele>
        <time>2021-03-06T14:18:44Z</time>
      </trkpt>
      <trkpt lat="44.09498" lon="3.00236">
        <ele>478.7</ele>
        <time>2021-03-06T14:18:45Z</time>
      </trkpt>
      <trkpt lat="44.09495" lon="3.00232">
        <ele>478.5</ele>
        <time>2021-03-06T14:18:46Z</time>
      </trkpt>
      <trkpt lat="44.09492" lon="3.00228">
        <ele>478.1</ele>
        <time>2021-03-06T14:18:48Z</time>
      </trkpt>
      <trkpt lat="44.09489" lon="3.00221">
        <ele>477.5</ele>
        <time>2021-03-06T14:18:49Z</time>
      </trkpt>
      <trkpt lat="44.09489" lon="3.00215">
        <ele>477.1</ele>
        <time>2021-03-06T14:18:50Z</time>
      </trkpt>
      <trkpt lat="44.09489" lon="3.0021">
        <ele>476.7</ele>
        <time>2021-03-06T14:18:52Z</time>
      </trkpt>
      <trkpt lat="44.09487" lon="3.00204">
        <ele>476.2</ele>
        <time>2021-03-06T14:18:54Z</time>
      </trkpt>
      <trkpt lat="44.09485" lon="3.00196">
        <ele>475.6</ele>
        <time>2021-03-06T14:18:56Z</time>
      </trkpt>
      <trkpt lat="44.09484" lon="3.00191">
        <ele>475.1</ele>
        <time>2021-03-06T14:18:57Z</time>
      </trkpt>
      <trkpt lat="44.09483" lon="3.00177">
        <ele>473.9</ele>
        <time>2021-03-06T14:18:59Z</time>
      </trkpt>
      <trkpt lat="44.09482" lon="3.00169">
        <ele>473</ele>
        <time>2021-03-06T14:19:00Z</time>
      </trkpt>
      <trkpt lat="44.09479" lon="3.00151">
        <ele>470.4</ele>
        <time>2021-03-06T14:19:02Z</time>
      </trkpt>
      <trkpt lat="44.09474" lon="3.00134">
        <ele>467.8</ele>
        <time>2021-03-06T14:19:04Z</time>
      </trkpt>
      <trkpt lat="44.09475" lon="3.00126">
        <ele>466.7</ele>
        <time>2021-03-06T14:19:05Z</time>
      </trkpt>
      <trkpt lat="44.09475" lon="3.00118">
        <ele>465.5</ele>
        <time>2021-03-06T14:19:06Z</time>
      </trkpt>
      <trkpt lat="44.09475" lon="3.00098">
        <ele>462.8</ele>
        <time>2021-03-06T14:19:08Z</time>
      </trkpt>
      <trkpt lat="44.09479" lon="3.00076">
        <ele>460</ele>
        <time>2021-03-06T14:19:10Z</time>
      </trkpt>
      <trkpt lat="44.0948" lon="3.00065">
        <ele>459</ele>
        <time>2021-03-06T14:19:11Z</time>
      </trkpt>
      <trkpt lat="44.09478" lon="3.00047">
        <ele>457.5</ele>
        <time>2021-03-06T14:19:13Z</time>
      </trkpt>
      <trkpt lat="44.09476" lon="3.00038">
        <ele>456.7</ele>
        <time>2021-03-06T14:19:14Z</time>
      </trkpt>
      <trkpt lat="44.09473" lon="3.00031">
        <ele>456</ele>
        <time>2021-03-06T14:19:15Z</time>
      </trkpt>
      <trkpt lat="44.09469" lon="3.00024">
        <ele>455.2</ele>
        <time>2021-03-06T14:19:16Z</time>
      </trkpt>
      <trkpt lat="44.09463" lon="3.00016">
        <ele>454.2</ele>
        <time>2021-03-06T14:19:17Z</time>
      </trkpt>
      <trkpt lat="44.09454" lon="2.99998">
        <ele>452.1</ele>
        <time>2021-03-06T14:19:19Z</time>
      </trkpt>
      <trkpt lat="44.09445" lon="2.99978">
        <ele>450</ele>
        <time>2021-03-06T14:19:21Z</time>
      </trkpt>
      <trkpt lat="44.09441" lon="2.99969">
        <ele>448.9</ele>
        <time>2021-03-06T14:19:22Z</time>
      </trkpt>
      <trkpt lat="44.09438" lon="2.99959">
        <ele>447.7</ele>
        <time>2021-03-06T14:19:23Z</time>
      </trkpt>
      <trkpt lat="44.0943" lon="2.99941">
        <ele>445.1</ele>
        <time>2021-03-06T14:19:25Z</time>
      </trkpt>
      <trkpt lat="44.09423" lon="2.99928">
        <ele>442.2</ele>
        <time>2021-03-06T14:19:27Z</time>
      </trkpt>
      <trkpt lat="44.09418" lon="2.99922">
        <ele>441.1</ele>
        <time>2021-03-06T14:19:28Z</time>
      </trkpt>
      <trkpt lat="44.09414" lon="2.99917">
        <ele>440.4</ele>
        <time>2021-03-06T14:19:29Z</time>
      </trkpt>
      <trkpt lat="44.09406" lon="2.99909">
        <ele>439.1</ele>
        <time>2021-03-06T14:19:31Z</time>
      </trkpt>
      <trkpt lat="44.09394" lon="2.99908">
        <ele>436.6</ele>
        <time>2021-03-06T14:19:33Z</time>
      </trkpt>
      <trkpt lat="44.09381" lon="2.99903">
        <ele>433.7</ele>
        <time>2021-03-06T14:19:35Z</time>
      </trkpt>
      <trkpt lat="44.09374" lon="2.99898">
        <ele>432.5</ele>
        <time>2021-03-06T14:19:36Z</time>
      </trkpt>
      <trkpt lat="44.09368" lon="2.9989">
        <ele>431.1</ele>
        <time>2021-03-06T14:19:37Z</time>
      </trkpt>
      <trkpt lat="44.09356" lon="2.99873">
        <ele>428.7</ele>
        <time>2021-03-06T14:19:39Z</time>
      </trkpt>
      <trkpt lat="44.09352" lon="2.99861">
        <ele>427.5</ele>
        <time>2021-03-06T14:19:40Z</time>
      </trkpt>
      <trkpt lat="44.0935" lon="2.99848">
        <ele>426.5</ele>
        <time>2021-03-06T14:19:41Z</time>
      </trkpt>
      <trkpt lat="44.09343" lon="2.99823">
        <ele>424.3</ele>
        <time>2021-03-06T14:19:43Z</time>
      </trkpt>
      <trkpt lat="44.0934" lon="2.99811">
        <ele>423.5</ele>
        <time>2021-03-06T14:19:44Z</time>
      </trkpt>
      <trkpt lat="44.09336" lon="2.99799">
        <ele>423.5</ele>
        <time>2021-03-06T14:19:45Z</time>
      </trkpt>
      <trkpt lat="44.09333" lon="2.99789">
        <ele>423.5</ele>
        <time>2021-03-06T14:19:46Z</time>
      </trkpt>
      <trkpt lat="44.09331" lon="2.99776">
        <ele>423.7</ele>
        <time>2021-03-06T14:19:48Z</time>
      </trkpt>
      <trkpt lat="44.0933" lon="2.99776">
        <ele>423.6</ele>
        <time>2021-03-06T14:19:49Z</time>
      </trkpt>
      <trkpt lat="44.09331" lon="2.99776">
        <ele>423.6</ele>
        <time>2021-03-06T14:19:51Z</time>
      </trkpt>
      <trkpt lat="44.09332" lon="2.99776">
        <ele>423.6</ele>
        <time>2021-03-06T14:19:52Z</time>
      </trkpt>
      <trkpt lat="44.09331" lon="2.99777">
        <ele>423.6</ele>
        <time>2021-03-06T14:19:53Z</time>
      </trkpt>
      <trkpt lat="44.09331" lon="2.99777">
        <ele>423.6</ele>
        <time>2021-03-06T14:19:54Z</time>
      </trkpt>
      <trkpt lat="44.09331" lon="2.99777">
        <ele>423.6</ele>
        <time>2021-03-06T14:19:55Z</time>
      </trkpt>
      <trkpt lat="44.09331" lon="2.99777">
        <ele>423.6</ele>
        <time>2021-03-06T14:19:57Z</time>
      </trkpt>
      <trkpt lat="44.09331" lon="2.99777">
        <ele>423.6</ele>
        <time>2021-03-06T14:19:58Z</time>
      </trkpt>
      <trkpt lat="44.09331" lon="2.99777">
        <ele>423.6</ele>
        <time>2021-03-06T14:20:00Z</time>
      </trkpt>
      <trkpt lat="44.09331" lon="2.99777">
        <ele>423.6</ele>
        <time>2021-03-06T14:20:01Z</time>
      </trkpt>
      <trkpt lat="44.09331" lon="2.99777">
        <ele>423.6</ele>
        <time>2021-03-06T14:20:03Z</time>
      </trkpt>
      <trkpt lat="44.09331" lon="2.99777">
        <ele>423.6</ele>
        <time>2021-03-06T14:20:04Z</time>
      </trkpt>
      <trkpt lat="44.09331" lon="2.99777">
        <ele>423.6</ele>
        <time>2021-03-06T14:20:06Z</time>
      </trkpt>
      <trkpt lat="44.09331" lon="2.99782">
        <ele>423.5</ele>
        <time>2021-03-06T14:20:58Z</time>
      </trkpt>
      <trkpt lat="44.09333" lon="2.99786">
        <ele>423.5</ele>
        <time>2021-03-06T14:20:59Z</time>
      </trkpt>
      <trkpt lat="44.09334" lon="2.99791">
        <ele>423.5</ele>
        <time>2021-03-06T14:21:01Z</time>
      </trkpt>
      <trkpt lat="44.09335" lon="2.99795">
        <ele>423.5</ele>
        <time>2021-03-06T14:21:02Z</time>
      </trkpt>
      <trkpt lat="44.09337" lon="2.99803">
        <ele>423.5</ele>
        <time>2021-03-06T14:21:04Z</time>
      </trkpt>
      <trkpt lat="44.09338" lon="2.99807">
        <ele>423.5</ele>
        <time>2021-03-06T14:21:05Z</time>
      </trkpt>
      <trkpt lat="44.09339" lon="2.99811">
        <ele>423.5</ele>
        <time>2021-03-06T14:21:07Z</time>
      </trkpt>
      <trkpt lat="44.09336" lon="2.99817">
        <ele>423.5</ele>
        <time>2021-03-06T14:21:09Z</time>
      </trkpt>
      <trkpt lat="44.09334" lon="2.99822">
        <ele>423.3</ele>
        <time>2021-03-06T14:21:10Z</time>
      </trkpt>
      <trkpt lat="44.09331" lon="2.9983">
        <ele>423.2</ele>
        <time>2021-03-06T14:21:12Z</time>
      </trkpt>
      <trkpt lat="44.09329" lon="2.99836">
        <ele>423.1</ele>
        <time>2021-03-06T14:21:13Z</time>
      </trkpt>
      <trkpt lat="44.09326" lon="2.99844">
        <ele>422.9</ele>
        <time>2021-03-06T14:21:14Z</time>
      </trkpt>
      <trkpt lat="44.09321" lon="2.99859">
        <ele>421.7</ele>
        <time>2021-03-06T14:21:16Z</time>
      </trkpt>
      <trkpt lat="44.09319" lon="2.99866">
        <ele>421</ele>
        <time>2021-03-06T14:21:17Z</time>
      </trkpt>
      <trkpt lat="44.09319" lon="2.99871">
        <ele>420.5</ele>
        <time>2021-03-06T14:21:18Z</time>
      </trkpt>
      <trkpt lat="44.09318" lon="2.99877">
        <ele>419.9</ele>
        <time>2021-03-06T14:21:19Z</time>
      </trkpt>
      <trkpt lat="44.0931" lon="2.99889">
        <ele>418.1</ele>
        <time>2021-03-06T14:21:21Z</time>
      </trkpt>
      <trkpt lat="44.09301" lon="2.99894">
        <ele>416.6</ele>
        <time>2021-03-06T14:21:23Z</time>
      </trkpt>
      <trkpt lat="44.09298" lon="2.99894">
        <ele>416.1</ele>
        <time>2021-03-06T14:21:24Z</time>
      </trkpt>
      <trkpt lat="44.09302" lon="2.99904">
        <ele>414.5</ele>
        <time>2021-03-06T14:21:26Z</time>
      </trkpt>
      <trkpt lat="44.09303" lon="2.99912">
        <ele>413.3</ele>
        <time>2021-03-06T14:21:27Z</time>
      </trkpt>
      <trkpt lat="44.09308" lon="2.9993">
        <ele>410.5</ele>
        <time>2021-03-06T14:21:29Z</time>
      </trkpt>
      <trkpt lat="44.09312" lon="2.99948">
        <ele>408.1</ele>
        <time>2021-03-06T14:21:31Z</time>
      </trkpt>
      <trkpt lat="44.09313" lon="2.99968">
        <ele>405.7</ele>
        <time>2021-03-06T14:21:33Z</time>
      </trkpt>
      <trkpt lat="44.09314" lon="2.9999">
        <ele>403.4</ele>
        <time>2021-03-06T14:21:35Z</time>
      </trkpt>
      <trkpt lat="44.0932" lon="3.00011">
        <ele>402.8</ele>
        <time>2021-03-06T14:21:37Z</time>
      </trkpt>
      <trkpt lat="44.09323" lon="3.00028">
        <ele>403</ele>
        <time>2021-03-06T14:21:39Z</time>
      </trkpt>
      <trkpt lat="44.09321" lon="3.00043">
        <ele>402.2</ele>
        <time>2021-03-06T14:21:41Z</time>
      </trkpt>
      <trkpt lat="44.09318" lon="3.00051">
        <ele>401.7</ele>
        <time>2021-03-06T14:21:42Z</time>
      </trkpt>
      <trkpt lat="44.09311" lon="3.00065">
        <ele>400</ele>
        <time>2021-03-06T14:21:44Z</time>
      </trkpt>
      <trkpt lat="44.09306" lon="3.00063">
        <ele>399.3</ele>
        <time>2021-03-06T14:21:46Z</time>
      </trkpt>
      <trkpt lat="44.09303" lon="3.00064">
        <ele>398.7</ele>
        <time>2021-03-06T14:21:47Z</time>
      </trkpt>
      <trkpt lat="44.09298" lon="3.00068">
        <ele>397.9</ele>
        <time>2021-03-06T14:21:48Z</time>
      </trkpt>
      <trkpt lat="44.09292" lon="3.00074">
        <ele>396.9</ele>
        <time>2021-03-06T14:21:49Z</time>
      </trkpt>
      <trkpt lat="44.09285" lon="3.00081">
        <ele>395.5</ele>
        <time>2021-03-06T14:21:51Z</time>
      </trkpt>
      <trkpt lat="44.09284" lon="3.00077">
        <ele>395.1</ele>
        <time>2021-03-06T14:21:52Z</time>
      </trkpt>
      <trkpt lat="44.09285" lon="3.00077">
        <ele>395</ele>
        <time>2021-03-06T14:21:54Z</time>
      </trkpt>
      <trkpt lat="44.09286" lon="3.00079">
        <ele>394.8</ele>
        <time>2021-03-06T14:21:55Z</time>
      </trkpt>
      <trkpt lat="44.09286" lon="3.00079">
        <ele>394.7</ele>
        <time>2021-03-06T14:21:57Z</time>
      </trkpt>
      <trkpt lat="44.09286" lon="3.00079">
        <ele>394.7</ele>
        <time>2021-03-06T14:21:58Z</time>
      </trkpt>
      <trkpt lat="44.09285" lon="3.00082">
        <ele>394.4</ele>
        <time>2021-03-06T14:22:00Z</time>
      </trkpt>
      <trkpt lat="44.09284" lon="3.00084">
        <ele>394.1</ele>
        <time>2021-03-06T14:22:01Z</time>
      </trkpt>
      <trkpt lat="44.09282" lon="3.00086">
        <ele>393.8</ele>
        <time>2021-03-06T14:22:02Z</time>
      </trkpt>
      <trkpt lat="44.09281" lon="3.00088">
        <ele>393.5</ele>
        <time>2021-03-06T14:22:58Z</time>
      </trkpt>
      <trkpt lat="44.09279" lon="3.0009">
        <ele>393.2</ele>
        <time>2021-03-06T14:23:00Z</time>
      </trkpt>
      <trkpt lat="44.09278" lon="3.00093">
        <ele>392.9</ele>
        <time>2021-03-06T14:23:01Z</time>
      </trkpt>
      <trkpt lat="44.09273" lon="3.00099">
        <ele>392.1</ele>
        <time>2021-03-06T14:23:02Z</time>
      </trkpt>
      <trkpt lat="44.09263" lon="3.00112">
        <ele>390.3</ele>
        <time>2021-03-06T14:23:04Z</time>
      </trkpt>
      <trkpt lat="44.09258" lon="3.0012">
        <ele>389.3</ele>
        <time>2021-03-06T14:23:05Z</time>
      </trkpt>
      <trkpt lat="44.09254" lon="3.0013">
        <ele>388.2</ele>
        <time>2021-03-06T14:23:06Z</time>
      </trkpt>
      <trkpt lat="44.09248" lon="3.00151">
        <ele>386.4</ele>
        <time>2021-03-06T14:23:08Z</time>
      </trkpt>
      <trkpt lat="44.09238" lon="3.00171">
        <ele>384.6</ele>
        <time>2021-03-06T14:23:10Z</time>
      </trkpt>
      <trkpt lat="44.09232" lon="3.00182">
        <ele>383.4</ele>
        <time>2021-03-06T14:23:11Z</time>
      </trkpt>
      <trkpt lat="44.0922" lon="3.00204">
        <ele>381</ele>
        <time>2021-03-06T14:23:13Z</time>
      </trkpt>
      <trkpt lat="44.09215" lon="3.00216">
        <ele>380</ele>
        <time>2021-03-06T14:23:14Z</time>
      </trkpt>
      <trkpt lat="44.09203" lon="3.00238">
        <ele>378.1</ele>
        <time>2021-03-06T14:23:16Z</time>
      </trkpt>
      <trkpt lat="44.09198" lon="3.0025">
        <ele>377.1</ele>
        <time>2021-03-06T14:23:17Z</time>
      </trkpt>
      <trkpt lat="44.09193" lon="3.00276">
        <ele>374.9</ele>
        <time>2021-03-06T14:23:19Z</time>
      </trkpt>
      <trkpt lat="44.09191" lon="3.00287">
        <ele>373.8</ele>
        <time>2021-03-06T14:23:20Z</time>
      </trkpt>
      <trkpt lat="44.09188" lon="3.00296">
        <ele>372.7</ele>
        <time>2021-03-06T14:23:21Z</time>
      </trkpt>
      <trkpt lat="44.09186" lon="3.00304">
        <ele>371.7</ele>
        <time>2021-03-06T14:23:22Z</time>
      </trkpt>
      <trkpt lat="44.09187" lon="3.00313">
        <ele>370.5</ele>
        <time>2021-03-06T14:23:24Z</time>
      </trkpt>
      <trkpt lat="44.09187" lon="3.00315">
        <ele>370.2</ele>
        <time>2021-03-06T14:23:25Z</time>
      </trkpt>
      <trkpt lat="44.09182" lon="3.00314">
        <ele>369</ele>
        <time>2021-03-06T14:23:27Z</time>
      </trkpt>
      <trkpt lat="44.09178" lon="3.00312">
        <ele>367.8</ele>
        <time>2021-03-06T14:23:28Z</time>
      </trkpt>
      <trkpt lat="44.09178" lon="3.00315">
        <ele>367.3</ele>
        <time>2021-03-06T14:23:30Z</time>
      </trkpt>
      <trkpt lat="44.09178" lon="3.00315">
        <ele>367.2</ele>
        <time>2021-03-06T14:23:31Z</time>
      </trkpt>
      <trkpt lat="44.0918" lon="3.00321">
        <ele>365.9</ele>
        <time>2021-03-06T14:23:33Z</time>
      </trkpt>
      <trkpt lat="44.09182" lon="3.00329">
        <ele>364.3</ele>
        <time>2021-03-06T14:23:35Z</time>
      </trkpt>
      <trkpt lat="44.0918" lon="3.00329">
        <ele>363.7</ele>
        <time>2021-03-06T14:23:36Z</time>
      </trkpt>
      <trkpt lat="44.09178" lon="3.00328">
        <ele>363.2</ele>
        <time>2021-03-06T14:23:37Z</time>
      </trkpt>
      <trkpt lat="44.09173" lon="3.00326">
        <ele>362.1</ele>
        <time>2021-03-06T14:23:38Z</time>
      </trkpt>
      <trkpt lat="44.09167" lon="3.00326">
        <ele>360.8</ele>
        <time>2021-03-06T14:23:40Z</time>
      </trkpt>
      <trkpt lat="44.09164" lon="3.00327">
        <ele>360</ele>
        <time>2021-03-06T14:23:41Z</time>
      </trkpt>
      <trkpt lat="44.09164" lon="3.00332">
        <ele>360</ele>
        <time>2021-03-06T14:23:42Z</time>
      </trkpt>
      <trkpt lat="44.09165" lon="3.00335">
        <ele>359.9</ele>
        <time>2021-03-06T14:23:43Z</time>
      </trkpt>
      <trkpt lat="44.09172" lon="3.00345">
        <ele>359.5</ele>
        <time>2021-03-06T14:23:45Z</time>
      </trkpt>
      <trkpt lat="44.0918" lon="3.00361">
        <ele>358.6</ele>
        <time>2021-03-06T14:23:47Z</time>
      </trkpt>
      <trkpt lat="44.09186" lon="3.00374">
        <ele>358.3</ele>
        <time>2021-03-06T14:23:49Z</time>
      </trkpt>
      <trkpt lat="44.09189" lon="3.0038">
        <ele>358.4</ele>
        <time>2021-03-06T14:23:50Z</time>
      </trkpt>
      <trkpt lat="44.09192" lon="3.00379">
        <ele>358.4</ele>
        <time>2021-03-06T14:23:51Z</time>
      </trkpt>
      <trkpt lat="44.09195" lon="3.0038">
        <ele>358.5</ele>
        <time>2021-03-06T14:23:52Z</time>
      </trkpt>
      <trkpt lat="44.09199" lon="3.00384">
        <ele>358.7</ele>
        <time>2021-03-06T14:23:54Z</time>
      </trkpt>
      <trkpt lat="44.09203" lon="3.0039">
        <ele>358.9</ele>
        <time>2021-03-06T14:23:56Z</time>
      </trkpt>
      <trkpt lat="44.09206" lon="3.00392">
        <ele>359</ele>
        <time>2021-03-06T14:23:57Z</time>
      </trkpt>
      <trkpt lat="44.09209" lon="3.00395">
        <ele>359.2</ele>
        <time>2021-03-06T14:23:58Z</time>
      </trkpt>
      <trkpt lat="44.09211" lon="3.00399">
        <ele>359.4</ele>
        <time>2021-03-06T14:23:59Z</time>
      </trkpt>
      <trkpt lat="44.09213" lon="3.00402">
        <ele>359.7</ele>
        <time>2021-03-06T14:24:01Z</time>
      </trkpt>
      <trkpt lat="44.09216" lon="3.00406">
        <ele>360</ele>
        <time>2021-03-06T14:24:02Z</time>
      </trkpt>
      <trkpt lat="44.09218" lon="3.0041">
        <ele>360.3</ele>
        <time>2021-03-06T14:24:04Z</time>
      </trkpt>
      <trkpt lat="44.0922" lon="3.00413">
        <ele>360.6</ele>
        <time>2021-03-06T14:24:05Z</time>
      </trkpt>
      <trkpt lat="44.09222" lon="3.00416">
        <ele>361</ele>
        <time>2021-03-06T14:24:07Z</time>
      </trkpt>
      <trkpt lat="44.09223" lon="3.00417">
        <ele>361.1</ele>
        <time>2021-03-06T14:24:08Z</time>
      </trkpt>
      <trkpt lat="44.09224" lon="3.00418">
        <ele>361.3</ele>
        <time>2021-03-06T14:24:09Z</time>
      </trkpt>
      <trkpt lat="44.09225" lon="3.00419">
        <ele>361.4</ele>
        <time>2021-03-06T14:24:10Z</time>
      </trkpt>
      <trkpt lat="44.09226" lon="3.00421">
        <ele>361.7</ele>
        <time>2021-03-06T14:24:11Z</time>
      </trkpt>
      <trkpt lat="44.09228" lon="3.00423">
        <ele>362</ele>
        <time>2021-03-06T14:24:12Z</time>
      </trkpt>
      <trkpt lat="44.09229" lon="3.00425">
        <ele>362.3</ele>
        <time>2021-03-06T14:24:14Z</time>
      </trkpt>
      <trkpt lat="44.0923" lon="3.00426">
        <ele>362.5</ele>
        <time>2021-03-06T14:24:15Z</time>
      </trkpt>
      <trkpt lat="44.09233" lon="3.0043">
        <ele>363.1</ele>
        <time>2021-03-06T14:24:16Z</time>
      </trkpt>
      <trkpt lat="44.09233" lon="3.00431">
        <ele>363.3</ele>
        <time>2021-03-06T14:24:17Z</time>
      </trkpt>
      <trkpt lat="44.09234" lon="3.00433">
        <ele>363.6</ele>
        <time>2021-03-06T14:24:18Z</time>
      </trkpt>
      <trkpt lat="44.09236" lon="3.00436">
        <ele>364</ele>
        <time>2021-03-06T14:24:20Z</time>
      </trkpt>
      <trkpt lat="44.09238" lon="3.00437">
        <ele>364.3</ele>
        <time>2021-03-06T14:24:21Z</time>
      </trkpt>
      <trkpt lat="44.09239" lon="3.0044">
        <ele>364.6</ele>
        <time>2021-03-06T14:24:23Z</time>
      </trkpt>
      <trkpt lat="44.0924" lon="3.00441">
        <ele>364.8</ele>
        <time>2021-03-06T14:24:24Z</time>
      </trkpt>
      <trkpt lat="44.09242" lon="3.00443">
        <ele>365.1</ele>
        <time>2021-03-06T14:24:25Z</time>
      </trkpt>
      <trkpt lat="44.09245" lon="3.00445">
        <ele>365.5</ele>
        <time>2021-03-06T14:24:26Z</time>
      </trkpt>
      <trkpt lat="44.09246" lon="3.00445">
        <ele>365.6</ele>
        <time>2021-03-06T14:24:27Z</time>
      </trkpt>
      <trkpt lat="44.09248" lon="3.00446">
        <ele>365.8</ele>
        <time>2021-03-06T14:24:28Z</time>
      </trkpt>
      <trkpt lat="44.0925" lon="3.00447">
        <ele>366</ele>
        <time>2021-03-06T14:24:30Z</time>
      </trkpt>
      <trkpt lat="44.09253" lon="3.0045">
        <ele>366.3</ele>
        <time>2021-03-06T14:24:31Z</time>
      </trkpt>
      <trkpt lat="44.09255" lon="3.00451">
        <ele>366.5</ele>
        <time>2021-03-06T14:24:32Z</time>
      </trkpt>
      <trkpt lat="44.09257" lon="3.00453">
        <ele>366.7</ele>
        <time>2021-03-06T14:24:33Z</time>
      </trkpt>
      <trkpt lat="44.09261" lon="3.00455">
        <ele>366.9</ele>
        <time>2021-03-06T14:24:35Z</time>
      </trkpt>
      <trkpt lat="44.09262" lon="3.00456">
        <ele>367</ele>
        <time>2021-03-06T14:24:36Z</time>
      </trkpt>
      <trkpt lat="44.09265" lon="3.00457">
        <ele>367.2</ele>
        <time>2021-03-06T14:24:37Z</time>
      </trkpt>
      <trkpt lat="44.09267" lon="3.00458">
        <ele>367.4</ele>
        <time>2021-03-06T14:24:38Z</time>
      </trkpt>
      <trkpt lat="44.0927" lon="3.00459">
        <ele>367.5</ele>
        <time>2021-03-06T14:24:40Z</time>
      </trkpt>
      <trkpt lat="44.09273" lon="3.00462">
        <ele>367.8</ele>
        <time>2021-03-06T14:24:41Z</time>
      </trkpt>
      <trkpt lat="44.09275" lon="3.00463">
        <ele>367.9</ele>
        <time>2021-03-06T14:24:42Z</time>
      </trkpt>
      <trkpt lat="44.09277" lon="3.00464">
        <ele>368</ele>
        <time>2021-03-06T14:24:43Z</time>
      </trkpt>
      <trkpt lat="44.09279" lon="3.00465">
        <ele>368.1</ele>
        <time>2021-03-06T14:24:45Z</time>
      </trkpt>
      <trkpt lat="44.09281" lon="3.00466">
        <ele>368.3</ele>
        <time>2021-03-06T14:24:46Z</time>
      </trkpt>
      <trkpt lat="44.09285" lon="3.00468">
        <ele>368.4</ele>
        <time>2021-03-06T14:24:48Z</time>
      </trkpt>
      <trkpt lat="44.09289" lon="3.00469">
        <ele>368.6</ele>
        <time>2021-03-06T14:24:49Z</time>
      </trkpt>
      <trkpt lat="44.09293" lon="3.0047">
        <ele>368.8</ele>
        <time>2021-03-06T14:24:51Z</time>
      </trkpt>
      <trkpt lat="44.09296" lon="3.00471">
        <ele>368.9</ele>
        <time>2021-03-06T14:24:52Z</time>
      </trkpt>
      <trkpt lat="44.09298" lon="3.00471">
        <ele>369</ele>
        <time>2021-03-06T14:24:53Z</time>
      </trkpt>
      <trkpt lat="44.09303" lon="3.00472">
        <ele>369.1</ele>
        <time>2021-03-06T14:24:54Z</time>
      </trkpt>
      <trkpt lat="44.09308" lon="3.00473">
        <ele>369.2</ele>
        <time>2021-03-06T14:24:56Z</time>
      </trkpt>
      <trkpt lat="44.09311" lon="3.00474">
        <ele>369.3</ele>
        <time>2021-03-06T14:24:58Z</time>
      </trkpt>
      <trkpt lat="44.09315" lon="3.00476">
        <ele>369.4</ele>
        <time>2021-03-06T14:24:59Z</time>
      </trkpt>
      <trkpt lat="44.09315" lon="3.00477">
        <ele>369.5</ele>
        <time>2021-03-06T14:25:00Z</time>
      </trkpt>
      <trkpt lat="44.09319" lon="3.0048">
        <ele>369.6</ele>
        <time>2021-03-06T14:25:01Z</time>
      </trkpt>
      <trkpt lat="44.0932" lon="3.00481">
        <ele>369.7</ele>
        <time>2021-03-06T14:25:02Z</time>
      </trkpt>
      <trkpt lat="44.09323" lon="3.00483">
        <ele>369.8</ele>
        <time>2021-03-06T14:25:03Z</time>
      </trkpt>
      <trkpt lat="44.09327" lon="3.00485">
        <ele>370.1</ele>
        <time>2021-03-06T14:25:05Z</time>
      </trkpt>
      <trkpt lat="44.09329" lon="3.00486">
        <ele>370.2</ele>
        <time>2021-03-06T14:25:06Z</time>
      </trkpt>
      <trkpt lat="44.0933" lon="3.00487">
        <ele>370.3</ele>
        <time>2021-03-06T14:25:07Z</time>
      </trkpt>
      <trkpt lat="44.09332" lon="3.00488">
        <ele>370.4</ele>
        <time>2021-03-06T14:25:08Z</time>
      </trkpt>
      <trkpt lat="44.09335" lon="3.00489">
        <ele>370.6</ele>
        <time>2021-03-06T14:25:10Z</time>
      </trkpt>
      <trkpt lat="44.09338" lon="3.0049">
        <ele>370.8</ele>
        <time>2021-03-06T14:25:11Z</time>
      </trkpt>
      <trkpt lat="44.09341" lon="3.00492">
        <ele>371</ele>
        <time>2021-03-06T14:25:13Z</time>
      </trkpt>
      <trkpt lat="44.09343" lon="3.00493">
        <ele>371.1</ele>
        <time>2021-03-06T14:25:14Z</time>
      </trkpt>
      <trkpt lat="44.09345" lon="3.00494">
        <ele>371.2</ele>
        <time>2021-03-06T14:25:16Z</time>
      </trkpt>
      <trkpt lat="44.09348" lon="3.00495">
        <ele>371.3</ele>
        <time>2021-03-06T14:25:17Z</time>
      </trkpt>
      <trkpt lat="44.09349" lon="3.00496">
        <ele>371.3</ele>
        <time>2021-03-06T14:25:18Z</time>
      </trkpt>
      <trkpt lat="44.09354" lon="3.00497">
        <ele>371.5</ele>
        <time>2021-03-06T14:25:19Z</time>
      </trkpt>
      <trkpt lat="44.09356" lon="3.00497">
        <ele>371.6</ele>
        <time>2021-03-06T14:25:20Z</time>
      </trkpt>
      <trkpt lat="44.09359" lon="3.00498">
        <ele>371.7</ele>
        <time>2021-03-06T14:25:22Z</time>
      </trkpt>
      <trkpt lat="44.09365" lon="3.00499">
        <ele>371.8</ele>
        <time>2021-03-06T14:25:24Z</time>
      </trkpt>
      <trkpt lat="44.09368" lon="3.005">
        <ele>371.9</ele>
        <time>2021-03-06T14:25:25Z</time>
      </trkpt>
      <trkpt lat="44.09375" lon="3.00502">
        <ele>372</ele>
        <time>2021-03-06T14:25:26Z</time>
      </trkpt>
      <trkpt lat="44.0938" lon="3.00504">
        <ele>372.1</ele>
        <time>2021-03-06T14:25:27Z</time>
      </trkpt>
      <trkpt lat="44.09384" lon="3.00506">
        <ele>372.2</ele>
        <time>2021-03-06T14:25:29Z</time>
      </trkpt>
      <trkpt lat="44.09387" lon="3.00507">
        <ele>372.3</ele>
        <time>2021-03-06T14:25:30Z</time>
      </trkpt>
      <trkpt lat="44.09389" lon="3.00509">
        <ele>372.4</ele>
        <time>2021-03-06T14:25:31Z</time>
      </trkpt>
      <trkpt lat="44.09392" lon="3.00511">
        <ele>372.5</ele>
        <time>2021-03-06T14:25:32Z</time>
      </trkpt>
      <trkpt lat="44.09397" lon="3.00513">
        <ele>372.7</ele>
        <time>2021-03-06T14:25:34Z</time>
      </trkpt>
      <trkpt lat="44.094" lon="3.00513">
        <ele>372.9</ele>
        <time>2021-03-06T14:25:35Z</time>
      </trkpt>
      <trkpt lat="44.09403" lon="3.00513">
        <ele>373</ele>
        <time>2021-03-06T14:25:36Z</time>
      </trkpt>
      <trkpt lat="44.09406" lon="3.00513">
        <ele>373.1</ele>
        <time>2021-03-06T14:25:37Z</time>
      </trkpt>
      <trkpt lat="44.0941" lon="3.00514">
        <ele>373.3</ele>
        <time>2021-03-06T14:25:39Z</time>
      </trkpt>
      <trkpt lat="44.09414" lon="3.00515">
        <ele>373.4</ele>
        <time>2021-03-06T14:25:40Z</time>
      </trkpt>
      <trkpt lat="44.09415" lon="3.00515">
        <ele>373.5</ele>
        <time>2021-03-06T14:25:41Z</time>
      </trkpt>
      <trkpt lat="44.09418" lon="3.00516">
        <ele>373.6</ele>
        <time>2021-03-06T14:25:43Z</time>
      </trkpt>
      <trkpt lat="44.09422" lon="3.00516">
        <ele>373.8</ele>
        <time>2021-03-06T14:25:44Z</time>
      </trkpt>
      <trkpt lat="44.09426" lon="3.00518">
        <ele>374</ele>
        <time>2021-03-06T14:25:45Z</time>
      </trkpt>
      <trkpt lat="44.09429" lon="3.00519">
        <ele>374.1</ele>
        <time>2021-03-06T14:25:47Z</time>
      </trkpt>
      <trkpt lat="44.0943" lon="3.00519">
        <ele>374.2</ele>
        <time>2021-03-06T14:25:48Z</time>
      </trkpt>
      <trkpt lat="44.09433" lon="3.00521">
        <ele>374.4</ele>
        <time>2021-03-06T14:25:49Z</time>
      </trkpt>
      <trkpt lat="44.09435" lon="3.00523">
        <ele>374.5</ele>
        <time>2021-03-06T14:25:50Z</time>
      </trkpt>
      <trkpt lat="44.09438" lon="3.00524">
        <ele>374.7</ele>
        <time>2021-03-06T14:25:52Z</time>
      </trkpt>
      <trkpt lat="44.09439" lon="3.00525">
        <ele>374.7</ele>
        <time>2021-03-06T14:25:53Z</time>
      </trkpt>
      <trkpt lat="44.09442" lon="3.00526">
        <ele>375</ele>
        <time>2021-03-06T14:25:54Z</time>
      </trkpt>
      <trkpt lat="44.09443" lon="3.00526">
        <ele>375</ele>
        <time>2021-03-06T14:25:55Z</time>
      </trkpt>
      <trkpt lat="44.09447" lon="3.00528">
        <ele>375.3</ele>
        <time>2021-03-06T14:25:56Z</time>
      </trkpt>
      <trkpt lat="44.0945" lon="3.00528">
        <ele>375.5</ele>
        <time>2021-03-06T14:25:58Z</time>
      </trkpt>
      <trkpt lat="44.09452" lon="3.00529">
        <ele>375.6</ele>
        <time>2021-03-06T14:25:59Z</time>
      </trkpt>
      <trkpt lat="44.09455" lon="3.00531">
        <ele>375.8</ele>
        <time>2021-03-06T14:26:00Z</time>
      </trkpt>
      <trkpt lat="44.09457" lon="3.00532">
        <ele>376</ele>
        <time>2021-03-06T14:26:01Z</time>
      </trkpt>
      <trkpt lat="44.0946" lon="3.00534">
        <ele>376.2</ele>
        <time>2021-03-06T14:26:03Z</time>
      </trkpt>
      <trkpt lat="44.09463" lon="3.00535">
        <ele>376.3</ele>
        <time>2021-03-06T14:26:04Z</time>
      </trkpt>
      <trkpt lat="44.09466" lon="3.00537">
        <ele>376.5</ele>
        <time>2021-03-06T14:26:05Z</time>
      </trkpt>
      <trkpt lat="44.09469" lon="3.00539">
        <ele>376.8</ele>
        <time>2021-03-06T14:26:06Z</time>
      </trkpt>
      <trkpt lat="44.09472" lon="3.00541">
        <ele>377</ele>
        <time>2021-03-06T14:26:08Z</time>
      </trkpt>
      <trkpt lat="44.09475" lon="3.00544">
        <ele>377.2</ele>
        <time>2021-03-06T14:26:09Z</time>
      </trkpt>
      <trkpt lat="44.09477" lon="3.00547">
        <ele>377.5</ele>
        <time>2021-03-06T14:26:11Z</time>
      </trkpt>
      <trkpt lat="44.09479" lon="3.00549">
        <ele>377.6</ele>
        <time>2021-03-06T14:26:12Z</time>
      </trkpt>
      <trkpt lat="44.09481" lon="3.00552">
        <ele>377.8</ele>
        <time>2021-03-06T14:26:14Z</time>
      </trkpt>
      <trkpt lat="44.09484" lon="3.00554">
        <ele>378.1</ele>
        <time>2021-03-06T14:26:16Z</time>
      </trkpt>
      <trkpt lat="44.09487" lon="3.00557">
        <ele>378.4</ele>
        <time>2021-03-06T14:26:17Z</time>
      </trkpt>
      <trkpt lat="44.09491" lon="3.00559">
        <ele>378.7</ele>
        <time>2021-03-06T14:26:19Z</time>
      </trkpt>
      <trkpt lat="44.09493" lon="3.0056">
        <ele>378.8</ele>
        <time>2021-03-06T14:26:21Z</time>
      </trkpt>
      <trkpt lat="44.09494" lon="3.0056">
        <ele>379</ele>
        <time>2021-03-06T14:26:22Z</time>
      </trkpt>
      <trkpt lat="44.09496" lon="3.00561">
        <ele>379.1</ele>
        <time>2021-03-06T14:26:23Z</time>
      </trkpt>
      <trkpt lat="44.09498" lon="3.00562">
        <ele>379.2</ele>
        <time>2021-03-06T14:26:24Z</time>
      </trkpt>
      <trkpt lat="44.095" lon="3.00562">
        <ele>379.4</ele>
        <time>2021-03-06T14:26:25Z</time>
      </trkpt>
      <trkpt lat="44.09502" lon="3.00564">
        <ele>379.6</ele>
        <time>2021-03-06T14:26:27Z</time>
      </trkpt>
      <trkpt lat="44.09505" lon="3.00566">
        <ele>379.8</ele>
        <time>2021-03-06T14:26:28Z</time>
      </trkpt>
      <trkpt lat="44.09507" lon="3.00569">
        <ele>380.1</ele>
        <time>2021-03-06T14:26:29Z</time>
      </trkpt>
      <trkpt lat="44.09508" lon="3.0057">
        <ele>380.2</ele>
        <time>2021-03-06T14:26:30Z</time>
      </trkpt>
      <trkpt lat="44.0951" lon="3.00573">
        <ele>380.5</ele>
        <time>2021-03-06T14:26:32Z</time>
      </trkpt>
      <trkpt lat="44.09511" lon="3.00574">
        <ele>380.5</ele>
        <time>2021-03-06T14:26:33Z</time>
      </trkpt>
      <trkpt lat="44.09513" lon="3.00576">
        <ele>380.8</ele>
        <time>2021-03-06T14:26:34Z</time>
      </trkpt>
      <trkpt lat="44.09515" lon="3.00579">
        <ele>381.1</ele>
        <time>2021-03-06T14:26:36Z</time>
      </trkpt>
      <trkpt lat="44.09516" lon="3.0058">
        <ele>381.1</ele>
        <time>2021-03-06T14:26:37Z</time>
      </trkpt>
      <trkpt lat="44.09518" lon="3.00583">
        <ele>381.4</ele>
        <time>2021-03-06T14:26:38Z</time>
      </trkpt>
      <trkpt lat="44.0952" lon="3.00584">
        <ele>381.5</ele>
        <time>2021-03-06T14:26:39Z</time>
      </trkpt>
      <trkpt lat="44.09523" lon="3.00588">
        <ele>381.9</ele>
        <time>2021-03-06T14:26:41Z</time>
      </trkpt>
      <trkpt lat="44.09524" lon="3.0059">
        <ele>382</ele>
        <time>2021-03-06T14:26:42Z</time>
      </trkpt>
      <trkpt lat="44.09526" lon="3.00591">
        <ele>382.2</ele>
        <time>2021-03-06T14:26:43Z</time>
      </trkpt>
      <trkpt lat="44.09529" lon="3.00595">
        <ele>382.6</ele>
        <time>2021-03-06T14:26:45Z</time>
      </trkpt>
      <trkpt lat="44.0953" lon="3.00596">
        <ele>382.7</ele>
        <time>2021-03-06T14:26:46Z</time>
      </trkpt>
      <trkpt lat="44.09531" lon="3.00598">
        <ele>382.8</ele>
        <time>2021-03-06T14:26:47Z</time>
      </trkpt>
      <trkpt lat="44.09533" lon="3.00601">
        <ele>383.1</ele>
        <time>2021-03-06T14:26:49Z</time>
      </trkpt>
      <trkpt lat="44.09535" lon="3.00603">
        <ele>383.3</ele>
        <time>2021-03-06T14:26:50Z</time>
      </trkpt>
      <trkpt lat="44.09538" lon="3.00607">
        <ele>383.7</ele>
        <time>2021-03-06T14:26:51Z</time>
      </trkpt>
      <trkpt lat="44.09538" lon="3.00608">
        <ele>383.8</ele>
        <time>2021-03-06T14:26:52Z</time>
      </trkpt>
      <trkpt lat="44.0954" lon="3.00609">
        <ele>384</ele>
        <time>2021-03-06T14:26:53Z</time>
      </trkpt>
      <trkpt lat="44.09541" lon="3.0061">
        <ele>384.1</ele>
        <time>2021-03-06T14:26:55Z</time>
      </trkpt>
      <trkpt lat="44.09542" lon="3.00611">
        <ele>384.2</ele>
        <time>2021-03-06T14:26:56Z</time>
      </trkpt>
      <trkpt lat="44.09544" lon="3.00612">
        <ele>384.5</ele>
        <time>2021-03-06T14:26:57Z</time>
      </trkpt>
      <trkpt lat="44.09546" lon="3.00613">
        <ele>384.7</ele>
        <time>2021-03-06T14:26:59Z</time>
      </trkpt>
      <trkpt lat="44.09548" lon="3.00614">
        <ele>384.9</ele>
        <time>2021-03-06T14:27:00Z</time>
      </trkpt>
      <trkpt lat="44.0955" lon="3.00613">
        <ele>385.1</ele>
        <time>2021-03-06T14:27:01Z</time>
      </trkpt>
      <trkpt lat="44.09551" lon="3.00614">
        <ele>385.3</ele>
        <time>2021-03-06T14:27:03Z</time>
      </trkpt>
      <trkpt lat="44.09554" lon="3.00615">
        <ele>385.6</ele>
        <time>2021-03-06T14:27:05Z</time>
      </trkpt>
      <trkpt lat="44.09556" lon="3.00616">
        <ele>385.8</ele>
        <time>2021-03-06T14:27:06Z</time>
      </trkpt>
      <trkpt lat="44.09558" lon="3.00616">
        <ele>386</ele>
        <time>2021-03-06T14:27:08Z</time>
      </trkpt>
      <trkpt lat="44.0956" lon="3.00617">
        <ele>386.1</ele>
        <time>2021-03-06T14:27:10Z</time>
      </trkpt>
      <trkpt lat="44.09561" lon="3.00618">
        <ele>386.2</ele>
        <time>2021-03-06T14:27:11Z</time>
      </trkpt>
      <trkpt lat="44.09562" lon="3.00619">
        <ele>386.3</ele>
        <time>2021-03-06T14:27:13Z</time>
      </trkpt>
      <trkpt lat="44.09563" lon="3.00619">
        <ele>386.4</ele>
        <time>2021-03-06T14:27:15Z</time>
      </trkpt>
      <trkpt lat="44.09564" lon="3.0062">
        <ele>386.4</ele>
        <time>2021-03-06T14:27:16Z</time>
      </trkpt>
      <trkpt lat="44.09565" lon="3.00621">
        <ele>386.5</ele>
        <time>2021-03-06T14:27:18Z</time>
      </trkpt>
      <trkpt lat="44.09566" lon="3.00622">
        <ele>386.6</ele>
        <time>2021-03-06T14:29:12Z</time>
      </trkpt>
      <trkpt lat="44.09567" lon="3.00622">
        <ele>386.6</ele>
        <time>2021-03-06T14:29:14Z</time>
      </trkpt>
      <trkpt lat="44.09568" lon="3.00623">
        <ele>386.7</ele>
        <time>2021-03-06T14:29:15Z</time>
      </trkpt>
      <trkpt lat="44.09569" lon="3.00624">
        <ele>386.7</ele>
        <time>2021-03-06T14:29:16Z</time>
      </trkpt>
      <trkpt lat="44.09572" lon="3.00623">
        <ele>386.9</ele>
        <time>2021-03-06T14:29:18Z</time>
      </trkpt>
      <trkpt lat="44.09573" lon="3.00624">
        <ele>387</ele>
        <time>2021-03-06T14:29:19Z</time>
      </trkpt>
      <trkpt lat="44.09574" lon="3.00625">
        <ele>387</ele>
        <time>2021-03-06T14:29:20Z</time>
      </trkpt>
      <trkpt lat="44.09577" lon="3.00626">
        <ele>387.2</ele>
        <time>2021-03-06T14:29:22Z</time>
      </trkpt>
      <trkpt lat="44.09578" lon="3.00626">
        <ele>387.2</ele>
        <time>2021-03-06T14:29:23Z</time>
      </trkpt>
      <trkpt lat="44.09581" lon="3.00628">
        <ele>387.4</ele>
        <time>2021-03-06T14:29:25Z</time>
      </trkpt>
      <trkpt lat="44.09584" lon="3.0063">
        <ele>387.5</ele>
        <time>2021-03-06T14:29:26Z</time>
      </trkpt>
      <trkpt lat="44.09586" lon="3.00632">
        <ele>387.7</ele>
        <time>2021-03-06T14:29:28Z</time>
      </trkpt>
      <trkpt lat="44.09589" lon="3.00635">
        <ele>387.8</ele>
        <time>2021-03-06T14:29:29Z</time>
      </trkpt>
      <trkpt lat="44.09593" lon="3.00637">
        <ele>388</ele>
        <time>2021-03-06T14:29:31Z</time>
      </trkpt>
      <trkpt lat="44.09595" lon="3.00639">
        <ele>388</ele>
        <time>2021-03-06T14:29:32Z</time>
      </trkpt>
      <trkpt lat="44.09597" lon="3.00641">
        <ele>388.2</ele>
        <time>2021-03-06T14:29:33Z</time>
      </trkpt>
      <trkpt lat="44.096" lon="3.00645">
        <ele>388.4</ele>
        <time>2021-03-06T14:29:35Z</time>
      </trkpt>
      <trkpt lat="44.09603" lon="3.00648">
        <ele>388.6</ele>
        <time>2021-03-06T14:29:37Z</time>
      </trkpt>
      <trkpt lat="44.09604" lon="3.00649">
        <ele>388.6</ele>
        <time>2021-03-06T14:29:38Z</time>
      </trkpt>
      <trkpt lat="44.09605" lon="3.00652">
        <ele>388.8</ele>
        <time>2021-03-06T14:29:39Z</time>
      </trkpt>
      <trkpt lat="44.09606" lon="3.00655">
        <ele>389</ele>
        <time>2021-03-06T14:29:41Z</time>
      </trkpt>
      <trkpt lat="44.09608" lon="3.00658">
        <ele>389.3</ele>
        <time>2021-03-06T14:29:42Z</time>
      </trkpt>
      <trkpt lat="44.09609" lon="3.00659">
        <ele>389.4</ele>
        <time>2021-03-06T14:29:43Z</time>
      </trkpt>
      <trkpt lat="44.09611" lon="3.00662">
        <ele>389.6</ele>
        <time>2021-03-06T14:29:44Z</time>
      </trkpt>
      <trkpt lat="44.09612" lon="3.00663">
        <ele>389.7</ele>
        <time>2021-03-06T14:29:45Z</time>
      </trkpt>
      <trkpt lat="44.09613" lon="3.00665">
        <ele>389.9</ele>
        <time>2021-03-06T14:29:46Z</time>
      </trkpt>
      <trkpt lat="44.09615" lon="3.00667">
        <ele>390.2</ele>
        <time>2021-03-06T14:29:48Z</time>
      </trkpt>
      <trkpt lat="44.09617" lon="3.00671">
        <ele>390.5</ele>
        <time>2021-03-06T14:29:50Z</time>
      </trkpt>
      <trkpt lat="44.0962" lon="3.00674">
        <ele>390.8</ele>
        <time>2021-03-06T14:29:52Z</time>
      </trkpt>
      <trkpt lat="44.09623" lon="3.00679">
        <ele>391.2</ele>
        <time>2021-03-06T14:29:54Z</time>
      </trkpt>
      <trkpt lat="44.09626" lon="3.00683">
        <ele>391.4</ele>
        <time>2021-03-06T14:29:55Z</time>
      </trkpt>
      <trkpt lat="44.09627" lon="3.00687">
        <ele>391.6</ele>
        <time>2021-03-06T14:29:56Z</time>
      </trkpt>
      <trkpt lat="44.09629" lon="3.0069">
        <ele>391.8</ele>
        <time>2021-03-06T14:29:58Z</time>
      </trkpt>
      <trkpt lat="44.0963" lon="3.00693">
        <ele>392</ele>
        <time>2021-03-06T14:29:59Z</time>
      </trkpt>
      <trkpt lat="44.09632" lon="3.00695">
        <ele>392.2</ele>
        <time>2021-03-06T14:30:01Z</time>
      </trkpt>
      <trkpt lat="44.09634" lon="3.00698">
        <ele>392.4</ele>
        <time>2021-03-06T14:30:02Z</time>
      </trkpt>
      <trkpt lat="44.09636" lon="3.007">
        <ele>392.6</ele>
        <time>2021-03-06T14:30:03Z</time>
      </trkpt>
      <trkpt lat="44.09638" lon="3.00703">
        <ele>392.9</ele>
        <time>2021-03-06T14:30:05Z</time>
      </trkpt>
      <trkpt lat="44.09641" lon="3.00707">
        <ele>393.2</ele>
        <time>2021-03-06T14:30:06Z</time>
      </trkpt>
      <trkpt lat="44.09642" lon="3.00708">
        <ele>393.3</ele>
        <time>2021-03-06T14:30:07Z</time>
      </trkpt>
      <trkpt lat="44.09644" lon="3.00713">
        <ele>393.8</ele>
        <time>2021-03-06T14:30:09Z</time>
      </trkpt>
      <trkpt lat="44.09645" lon="3.00715">
        <ele>393.9</ele>
        <time>2021-03-06T14:30:11Z</time>
      </trkpt>
      <trkpt lat="44.09646" lon="3.00717">
        <ele>394</ele>
        <time>2021-03-06T14:30:12Z</time>
      </trkpt>
      <trkpt lat="44.09649" lon="3.00719">
        <ele>394.3</ele>
        <time>2021-03-06T14:30:13Z</time>
      </trkpt>
      <trkpt lat="44.09649" lon="3.0072">
        <ele>394.4</ele>
        <time>2021-03-06T14:30:14Z</time>
      </trkpt>
      <trkpt lat="44.09652" lon="3.00725">
        <ele>394.8</ele>
        <time>2021-03-06T14:30:16Z</time>
      </trkpt>
      <trkpt lat="44.09653" lon="3.00726">
        <ele>394.9</ele>
        <time>2021-03-06T14:30:17Z</time>
      </trkpt>
      <trkpt lat="44.09653" lon="3.00728">
        <ele>395</ele>
        <time>2021-03-06T14:30:18Z</time>
      </trkpt>
      <trkpt lat="44.09655" lon="3.00731">
        <ele>395.2</ele>
        <time>2021-03-06T14:30:20Z</time>
      </trkpt>
      <trkpt lat="44.09656" lon="3.00737">
        <ele>395.5</ele>
        <time>2021-03-06T14:30:22Z</time>
      </trkpt>
      <trkpt lat="44.09657" lon="3.00741">
        <ele>395.7</ele>
        <time>2021-03-06T14:30:23Z</time>
      </trkpt>
      <trkpt lat="44.09658" lon="3.00742">
        <ele>395.7</ele>
        <time>2021-03-06T14:30:24Z</time>
      </trkpt>
      <trkpt lat="44.09659" lon="3.00746">
        <ele>395.9</ele>
        <time>2021-03-06T14:30:25Z</time>
      </trkpt>
      <trkpt lat="44.09661" lon="3.00752">
        <ele>396.1</ele>
        <time>2021-03-06T14:30:27Z</time>
      </trkpt>
      <trkpt lat="44.09663" lon="3.00757">
        <ele>396.2</ele>
        <time>2021-03-06T14:30:28Z</time>
      </trkpt>
      <trkpt lat="44.09665" lon="3.00762">
        <ele>396.3</ele>
        <time>2021-03-06T14:30:30Z</time>
      </trkpt>
      <trkpt lat="44.09667" lon="3.00767">
        <ele>396.4</ele>
        <time>2021-03-06T14:30:31Z</time>
      </trkpt>
      <trkpt lat="44.09667" lon="3.00768">
        <ele>396.4</ele>
        <time>2021-03-06T14:30:32Z</time>
      </trkpt>
      <trkpt lat="44.09669" lon="3.00774">
        <ele>396.6</ele>
        <time>2021-03-06T14:30:33Z</time>
      </trkpt>
      <trkpt lat="44.0967" lon="3.00776">
        <ele>396.7</ele>
        <time>2021-03-06T14:30:34Z</time>
      </trkpt>
      <trkpt lat="44.09672" lon="3.00781">
        <ele>396.9</ele>
        <time>2021-03-06T14:30:36Z</time>
      </trkpt>
      <trkpt lat="44.09673" lon="3.00787">
        <ele>397.2</ele>
        <time>2021-03-06T14:30:38Z</time>
      </trkpt>
      <trkpt lat="44.09674" lon="3.0079">
        <ele>397.4</ele>
        <time>2021-03-06T14:30:39Z</time>
      </trkpt>
      <trkpt lat="44.09674" lon="3.00792">
        <ele>397.5</ele>
        <time>2021-03-06T14:30:40Z</time>
      </trkpt>
      <trkpt lat="44.09677" lon="3.00797">
        <ele>397.9</ele>
        <time>2021-03-06T14:30:42Z</time>
      </trkpt>
      <trkpt lat="44.09677" lon="3.00799">
        <ele>398.1</ele>
        <time>2021-03-06T14:30:43Z</time>
      </trkpt>
      <trkpt lat="44.09678" lon="3.00801">
        <ele>398.3</ele>
        <time>2021-03-06T14:30:44Z</time>
      </trkpt>
      <trkpt lat="44.09679" lon="3.00805">
        <ele>398.6</ele>
        <time>2021-03-06T14:30:45Z</time>
      </trkpt>
      <trkpt lat="44.0968" lon="3.00806">
        <ele>398.7</ele>
        <time>2021-03-06T14:30:46Z</time>
      </trkpt>
      <trkpt lat="44.09681" lon="3.00811">
        <ele>399</ele>
        <time>2021-03-06T14:30:48Z</time>
      </trkpt>
      <trkpt lat="44.09682" lon="3.00813">
        <ele>399.2</ele>
        <time>2021-03-06T14:30:49Z</time>
      </trkpt>
      <trkpt lat="44.09684" lon="3.00818">
        <ele>399.5</ele>
        <time>2021-03-06T14:30:51Z</time>
      </trkpt>
      <trkpt lat="44.09685" lon="3.00819">
        <ele>399.6</ele>
        <time>2021-03-06T14:30:52Z</time>
      </trkpt>
      <trkpt lat="44.09685" lon="3.00821">
        <ele>399.6</ele>
        <time>2021-03-06T14:30:53Z</time>
      </trkpt>
      <trkpt lat="44.09687" lon="3.00825">
        <ele>399.8</ele>
        <time>2021-03-06T14:30:55Z</time>
      </trkpt>
      <trkpt lat="44.09688" lon="3.00827">
        <ele>399.9</ele>
        <time>2021-03-06T14:30:56Z</time>
      </trkpt>
      <trkpt lat="44.09689" lon="3.00829">
        <ele>400</ele>
        <time>2021-03-06T14:30:57Z</time>
      </trkpt>
      <trkpt lat="44.09691" lon="3.00831">
        <ele>400.1</ele>
        <time>2021-03-06T14:30:59Z</time>
      </trkpt>
      <trkpt lat="44.09693" lon="3.00834">
        <ele>400.2</ele>
        <time>2021-03-06T14:31:00Z</time>
      </trkpt>
      <trkpt lat="44.09693" lon="3.00836">
        <ele>400.2</ele>
        <time>2021-03-06T14:31:01Z</time>
      </trkpt>
      <trkpt lat="44.09695" lon="3.00839">
        <ele>400.3</ele>
        <time>2021-03-06T14:31:02Z</time>
      </trkpt>
      <trkpt lat="44.09696" lon="3.00843">
        <ele>400.4</ele>
        <time>2021-03-06T14:31:04Z</time>
      </trkpt>
      <trkpt lat="44.09697" lon="3.00845">
        <ele>400.4</ele>
        <time>2021-03-06T14:31:05Z</time>
      </trkpt>
      <trkpt lat="44.09698" lon="3.00848">
        <ele>400.5</ele>
        <time>2021-03-06T14:31:06Z</time>
      </trkpt>
      <trkpt lat="44.097" lon="3.00853">
        <ele>400.6</ele>
        <time>2021-03-06T14:31:08Z</time>
      </trkpt>
      <trkpt lat="44.09701" lon="3.00858">
        <ele>400.8</ele>
        <time>2021-03-06T14:31:09Z</time>
      </trkpt>
      <trkpt lat="44.09701" lon="3.00859">
        <ele>400.8</ele>
        <time>2021-03-06T14:31:10Z</time>
      </trkpt>
      <trkpt lat="44.09702" lon="3.00861">
        <ele>400.9</ele>
        <time>2021-03-06T14:31:11Z</time>
      </trkpt>
      <trkpt lat="44.09702" lon="3.00864">
        <ele>401</ele>
        <time>2021-03-06T14:31:13Z</time>
      </trkpt>
      <trkpt lat="44.09703" lon="3.00869">
        <ele>401.1</ele>
        <time>2021-03-06T14:31:14Z</time>
      </trkpt>
      <trkpt lat="44.09704" lon="3.00872">
        <ele>401.3</ele>
        <time>2021-03-06T14:31:15Z</time>
      </trkpt>
      <trkpt lat="44.09704" lon="3.00876">
        <ele>401.4</ele>
        <time>2021-03-06T14:31:17Z</time>
      </trkpt>
      <trkpt lat="44.09705" lon="3.00878">
        <ele>401.5</ele>
        <time>2021-03-06T14:31:18Z</time>
      </trkpt>
      <trkpt lat="44.09705" lon="3.00879">
        <ele>401.6</ele>
        <time>2021-03-06T14:31:19Z</time>
      </trkpt>
      <trkpt lat="44.09707" lon="3.00884">
        <ele>401.8</ele>
        <time>2021-03-06T14:31:21Z</time>
      </trkpt>
      <trkpt lat="44.09709" lon="3.00887">
        <ele>402</ele>
        <time>2021-03-06T14:31:22Z</time>
      </trkpt>
      <trkpt lat="44.0971" lon="3.00889">
        <ele>402.1</ele>
        <time>2021-03-06T14:31:23Z</time>
      </trkpt>
      <trkpt lat="44.09712" lon="3.00895">
        <ele>402.4</ele>
        <time>2021-03-06T14:31:25Z</time>
      </trkpt>
      <trkpt lat="44.09712" lon="3.00897">
        <ele>402.5</ele>
        <time>2021-03-06T14:31:26Z</time>
      </trkpt>
      <trkpt lat="44.09713" lon="3.00899">
        <ele>402.6</ele>
        <time>2021-03-06T14:31:27Z</time>
      </trkpt>
      <trkpt lat="44.09715" lon="3.00902">
        <ele>402.8</ele>
        <time>2021-03-06T14:31:28Z</time>
      </trkpt>
      <trkpt lat="44.09716" lon="3.00908">
        <ele>403.1</ele>
        <time>2021-03-06T14:31:30Z</time>
      </trkpt>
      <trkpt lat="44.09717" lon="3.00914">
        <ele>403.4</ele>
        <time>2021-03-06T14:31:31Z</time>
      </trkpt>
      <trkpt lat="44.09719" lon="3.00918">
        <ele>403.6</ele>
        <time>2021-03-06T14:31:33Z</time>
      </trkpt>
      <trkpt lat="44.0972" lon="3.0092">
        <ele>403.7</ele>
        <time>2021-03-06T14:31:34Z</time>
      </trkpt>
      <trkpt lat="44.09721" lon="3.00924">
        <ele>404</ele>
        <time>2021-03-06T14:31:36Z</time>
      </trkpt>
      <trkpt lat="44.09722" lon="3.00925">
        <ele>404.1</ele>
        <time>2021-03-06T14:31:37Z</time>
      </trkpt>
      <trkpt lat="44.09723" lon="3.00928">
        <ele>404.3</ele>
        <time>2021-03-06T14:31:39Z</time>
      </trkpt>
      <trkpt lat="44.09724" lon="3.00932">
        <ele>404.6</ele>
        <time>2021-03-06T14:31:40Z</time>
      </trkpt>
      <trkpt lat="44.09724" lon="3.00933">
        <ele>404.7</ele>
        <time>2021-03-06T14:31:41Z</time>
      </trkpt>
      <trkpt lat="44.09725" lon="3.00935">
        <ele>404.9</ele>
        <time>2021-03-06T14:31:43Z</time>
      </trkpt>
      <trkpt lat="44.09726" lon="3.00937">
        <ele>405</ele>
        <time>2021-03-06T14:31:44Z</time>
      </trkpt>
      <trkpt lat="44.09726" lon="3.0094">
        <ele>405.2</ele>
        <time>2021-03-06T14:31:46Z</time>
      </trkpt>
      <trkpt lat="44.09727" lon="3.00941">
        <ele>405.4</ele>
        <time>2021-03-06T14:31:47Z</time>
      </trkpt>
      <trkpt lat="44.09728" lon="3.00945">
        <ele>405.7</ele>
        <time>2021-03-06T14:31:48Z</time>
      </trkpt>
      <trkpt lat="44.09729" lon="3.00946">
        <ele>405.8</ele>
        <time>2021-03-06T14:31:49Z</time>
      </trkpt>
      <trkpt lat="44.0973" lon="3.00948">
        <ele>406</ele>
        <time>2021-03-06T14:31:50Z</time>
      </trkpt>
      <trkpt lat="44.09731" lon="3.00951">
        <ele>406.3</ele>
        <time>2021-03-06T14:31:52Z</time>
      </trkpt>
      <trkpt lat="44.09733" lon="3.00954">
        <ele>406.6</ele>
        <time>2021-03-06T14:31:53Z</time>
      </trkpt>
      <trkpt lat="44.09736" lon="3.00959">
        <ele>407.2</ele>
        <time>2021-03-06T14:31:55Z</time>
      </trkpt>
      <trkpt lat="44.09738" lon="3.00964">
        <ele>407.6</ele>
        <time>2021-03-06T14:31:56Z</time>
      </trkpt>
      <trkpt lat="44.0974" lon="3.00967">
        <ele>407.9</ele>
        <time>2021-03-06T14:31:58Z</time>
      </trkpt>
      <trkpt lat="44.09741" lon="3.00969">
        <ele>408.1</ele>
        <time>2021-03-06T14:31:59Z</time>
      </trkpt>
      <trkpt lat="44.09742" lon="3.00971">
        <ele>408.3</ele>
        <time>2021-03-06T14:32:00Z</time>
      </trkpt>
      <trkpt lat="44.09745" lon="3.00978">
        <ele>408.8</ele>
        <time>2021-03-06T14:32:01Z</time>
      </trkpt>
      <trkpt lat="44.09748" lon="3.00982">
        <ele>409.1</ele>
        <time>2021-03-06T14:32:03Z</time>
      </trkpt>
      <trkpt lat="44.09748" lon="3.00983">
        <ele>409.3</ele>
        <time>2021-03-06T14:32:04Z</time>
      </trkpt>
      <trkpt lat="44.0975" lon="3.00987">
        <ele>409.5</ele>
        <time>2021-03-06T14:32:05Z</time>
      </trkpt>
      <trkpt lat="44.09751" lon="3.00988">
        <ele>409.6</ele>
        <time>2021-03-06T14:32:06Z</time>
      </trkpt>
      <trkpt lat="44.09753" lon="3.00991">
        <ele>409.8</ele>
        <time>2021-03-06T14:32:07Z</time>
      </trkpt>
      <trkpt lat="44.09753" lon="3.00992">
        <ele>409.9</ele>
        <time>2021-03-06T14:32:08Z</time>
      </trkpt>
      <trkpt lat="44.09755" lon="3.00996">
        <ele>410.2</ele>
        <time>2021-03-06T14:32:10Z</time>
      </trkpt>
      <trkpt lat="44.09756" lon="3.00997">
        <ele>410.2</ele>
        <time>2021-03-06T14:32:11Z</time>
      </trkpt>
      <trkpt lat="44.09759" lon="3.01">
        <ele>410.5</ele>
        <time>2021-03-06T14:32:13Z</time>
      </trkpt>
      <trkpt lat="44.0976" lon="3.01001">
        <ele>410.6</ele>
        <time>2021-03-06T14:32:14Z</time>
      </trkpt>
      <trkpt lat="44.09762" lon="3.01002">
        <ele>410.7</ele>
        <time>2021-03-06T14:32:16Z</time>
      </trkpt>
      <trkpt lat="44.09763" lon="3.01003">
        <ele>410.9</ele>
        <time>2021-03-06T14:32:17Z</time>
      </trkpt>
      <trkpt lat="44.09766" lon="3.01007">
        <ele>411.2</ele>
        <time>2021-03-06T14:32:19Z</time>
      </trkpt>
      <trkpt lat="44.09766" lon="3.01009">
        <ele>411.3</ele>
        <time>2021-03-06T14:32:20Z</time>
      </trkpt>
      <trkpt lat="44.09767" lon="3.01011">
        <ele>411.4</ele>
        <time>2021-03-06T14:32:21Z</time>
      </trkpt>
      <trkpt lat="44.09768" lon="3.01013">
        <ele>411.6</ele>
        <time>2021-03-06T14:32:23Z</time>
      </trkpt>
      <trkpt lat="44.09769" lon="3.01014">
        <ele>411.8</ele>
        <time>2021-03-06T14:32:24Z</time>
      </trkpt>
      <trkpt lat="44.09771" lon="3.01017">
        <ele>412.1</ele>
        <time>2021-03-06T14:32:25Z</time>
      </trkpt>
      <trkpt lat="44.09772" lon="3.01018">
        <ele>412.2</ele>
        <time>2021-03-06T14:32:26Z</time>
      </trkpt>
      <trkpt lat="44.09773" lon="3.0102">
        <ele>412.3</ele>
        <time>2021-03-06T14:32:27Z</time>
      </trkpt>
      <trkpt lat="44.09775" lon="3.01022">
        <ele>412.6</ele>
        <time>2021-03-06T14:32:29Z</time>
      </trkpt>
      <trkpt lat="44.09776" lon="3.01023">
        <ele>412.8</ele>
        <time>2021-03-06T14:32:30Z</time>
      </trkpt>
      <trkpt lat="44.09777" lon="3.01024">
        <ele>413</ele>
        <time>2021-03-06T14:32:31Z</time>
      </trkpt>
      <trkpt lat="44.09779" lon="3.01024">
        <ele>413.1</ele>
        <time>2021-03-06T14:32:33Z</time>
      </trkpt>
      <trkpt lat="44.0978" lon="3.01025">
        <ele>413.3</ele>
        <time>2021-03-06T14:32:34Z</time>
      </trkpt>
      <trkpt lat="44.09782" lon="3.01025">
        <ele>413.5</ele>
        <time>2021-03-06T14:32:35Z</time>
      </trkpt>
      <trkpt lat="44.09783" lon="3.01025">
        <ele>413.6</ele>
        <time>2021-03-06T14:32:36Z</time>
      </trkpt>
      <trkpt lat="44.09784" lon="3.01025">
        <ele>413.7</ele>
        <time>2021-03-06T14:32:38Z</time>
      </trkpt>
      <trkpt lat="44.09785" lon="3.01025">
        <ele>413.8</ele>
        <time>2021-03-06T14:32:39Z</time>
      </trkpt>
      <trkpt lat="44.09786" lon="3.01025">
        <ele>414</ele>
        <time>2021-03-06T14:32:40Z</time>
      </trkpt>
      <trkpt lat="44.09787" lon="3.01026">
        <ele>414.2</ele>
        <time>2021-03-06T14:32:41Z</time>
      </trkpt>
      <trkpt lat="44.09789" lon="3.01027">
        <ele>414.3</ele>
        <time>2021-03-06T14:32:43Z</time>
      </trkpt>
      <trkpt lat="44.0979" lon="3.01028">
        <ele>414.5</ele>
        <time>2021-03-06T14:32:44Z</time>
      </trkpt>
      <trkpt lat="44.09792" lon="3.01031">
        <ele>414.7</ele>
        <time>2021-03-06T14:32:45Z</time>
      </trkpt>
      <trkpt lat="44.09793" lon="3.01032">
        <ele>414.9</ele>
        <time>2021-03-06T14:32:46Z</time>
      </trkpt>
      <trkpt lat="44.09795" lon="3.01035">
        <ele>415.1</ele>
        <time>2021-03-06T14:32:48Z</time>
      </trkpt>
      <trkpt lat="44.09795" lon="3.01037">
        <ele>415.2</ele>
        <time>2021-03-06T14:32:49Z</time>
      </trkpt>
      <trkpt lat="44.09797" lon="3.01038">
        <ele>415.4</ele>
        <time>2021-03-06T14:32:50Z</time>
      </trkpt>
      <trkpt lat="44.09798" lon="3.0104">
        <ele>415.5</ele>
        <time>2021-03-06T14:32:52Z</time>
      </trkpt>
      <trkpt lat="44.09799" lon="3.01044">
        <ele>415.7</ele>
        <time>2021-03-06T14:32:53Z</time>
      </trkpt>
      <trkpt lat="44.098" lon="3.01045">
        <ele>415.8</ele>
        <time>2021-03-06T14:32:54Z</time>
      </trkpt>
      <trkpt lat="44.09802" lon="3.01049">
        <ele>416</ele>
        <time>2021-03-06T14:32:56Z</time>
      </trkpt>
      <trkpt lat="44.09802" lon="3.0105">
        <ele>416.1</ele>
        <time>2021-03-06T14:32:57Z</time>
      </trkpt>
      <trkpt lat="44.09804" lon="3.01055">
        <ele>416.4</ele>
        <time>2021-03-06T14:32:59Z</time>
      </trkpt>
      <trkpt lat="44.09805" lon="3.01057">
        <ele>416.5</ele>
        <time>2021-03-06T14:33:00Z</time>
      </trkpt>
      <trkpt lat="44.09807" lon="3.01067">
        <ele>417.1</ele>
        <time>2021-03-06T14:33:02Z</time>
      </trkpt>
      <trkpt lat="44.09808" lon="3.01071">
        <ele>417.4</ele>
        <time>2021-03-06T14:33:03Z</time>
      </trkpt>
      <trkpt lat="44.09808" lon="3.01072">
        <ele>417.4</ele>
        <time>2021-03-06T14:33:04Z</time>
      </trkpt>
      <trkpt lat="44.09811" lon="3.01076">
        <ele>417.8</ele>
        <time>2021-03-06T14:33:06Z</time>
      </trkpt>
      <trkpt lat="44.09811" lon="3.01077">
        <ele>417.9</ele>
        <time>2021-03-06T14:33:07Z</time>
      </trkpt>
      <trkpt lat="44.09813" lon="3.01079">
        <ele>418.1</ele>
        <time>2021-03-06T14:33:08Z</time>
      </trkpt>
      <trkpt lat="44.09815" lon="3.01083">
        <ele>418.4</ele>
        <time>2021-03-06T14:33:10Z</time>
      </trkpt>
      <trkpt lat="44.09816" lon="3.01085">
        <ele>418.6</ele>
        <time>2021-03-06T14:33:11Z</time>
      </trkpt>
      <trkpt lat="44.09817" lon="3.01086">
        <ele>418.8</ele>
        <time>2021-03-06T14:33:12Z</time>
      </trkpt>
      <trkpt lat="44.09818" lon="3.01087">
        <ele>419</ele>
        <time>2021-03-06T14:33:13Z</time>
      </trkpt>
      <trkpt lat="44.0982" lon="3.01089">
        <ele>419.2</ele>
        <time>2021-03-06T14:33:15Z</time>
      </trkpt>
      <trkpt lat="44.09821" lon="3.0109">
        <ele>419.4</ele>
        <time>2021-03-06T14:33:16Z</time>
      </trkpt>
      <trkpt lat="44.09822" lon="3.01091">
        <ele>419.5</ele>
        <time>2021-03-06T14:33:17Z</time>
      </trkpt>
      <trkpt lat="44.09823" lon="3.01092">
        <ele>419.7</ele>
        <time>2021-03-06T14:33:19Z</time>
      </trkpt>
      <trkpt lat="44.09824" lon="3.01094">
        <ele>419.9</ele>
        <time>2021-03-06T14:33:20Z</time>
      </trkpt>
      <trkpt lat="44.09826" lon="3.01096">
        <ele>420.1</ele>
        <time>2021-03-06T14:33:21Z</time>
      </trkpt>
      <trkpt lat="44.09827" lon="3.01099">
        <ele>420.5</ele>
        <time>2021-03-06T14:33:22Z</time>
      </trkpt>
      <trkpt lat="44.09828" lon="3.01101">
        <ele>420.6</ele>
        <time>2021-03-06T14:33:23Z</time>
      </trkpt>
      <trkpt lat="44.09829" lon="3.01105">
        <ele>421</ele>
        <time>2021-03-06T14:33:24Z</time>
      </trkpt>
      <trkpt lat="44.09831" lon="3.01108">
        <ele>421.2</ele>
        <time>2021-03-06T14:33:25Z</time>
      </trkpt>
      <trkpt lat="44.09833" lon="3.0111">
        <ele>421.5</ele>
        <time>2021-03-06T14:33:27Z</time>
      </trkpt>
      <trkpt lat="44.09835" lon="3.01113">
        <ele>421.8</ele>
        <time>2021-03-06T14:33:29Z</time>
      </trkpt>
      <trkpt lat="44.09836" lon="3.01115">
        <ele>421.9</ele>
        <time>2021-03-06T14:33:30Z</time>
      </trkpt>
      <trkpt lat="44.09837" lon="3.01116">
        <ele>422.1</ele>
        <time>2021-03-06T14:33:31Z</time>
      </trkpt>
      <trkpt lat="44.09841" lon="3.0112">
        <ele>422.4</ele>
        <time>2021-03-06T14:33:33Z</time>
      </trkpt>
      <trkpt lat="44.09842" lon="3.01121">
        <ele>422.6</ele>
        <time>2021-03-06T14:33:34Z</time>
      </trkpt>
      <trkpt lat="44.09843" lon="3.01122">
        <ele>422.7</ele>
        <time>2021-03-06T14:33:35Z</time>
      </trkpt>
      <trkpt lat="44.09845" lon="3.01125">
        <ele>423</ele>
        <time>2021-03-06T14:33:37Z</time>
      </trkpt>
      <trkpt lat="44.09846" lon="3.01125">
        <ele>423.1</ele>
        <time>2021-03-06T14:33:38Z</time>
      </trkpt>
      <trkpt lat="44.09848" lon="3.01127">
        <ele>423.4</ele>
        <time>2021-03-06T14:33:39Z</time>
      </trkpt>
      <trkpt lat="44.0985" lon="3.01129">
        <ele>423.6</ele>
        <time>2021-03-06T14:33:41Z</time>
      </trkpt>
      <trkpt lat="44.09851" lon="3.0113">
        <ele>423.8</ele>
        <time>2021-03-06T14:33:43Z</time>
      </trkpt>
      <trkpt lat="44.09852" lon="3.01131">
        <ele>424</ele>
        <time>2021-03-06T14:33:44Z</time>
      </trkpt>
      <trkpt lat="44.09853" lon="3.01132">
        <ele>424.1</ele>
        <time>2021-03-06T14:33:46Z</time>
      </trkpt>
      <trkpt lat="44.09854" lon="3.01134">
        <ele>424.3</ele>
        <time>2021-03-06T14:33:47Z</time>
      </trkpt>
      <trkpt lat="44.09855" lon="3.01135">
        <ele>424.5</ele>
        <time>2021-03-06T14:33:49Z</time>
      </trkpt>
      <trkpt lat="44.09856" lon="3.01136">
        <ele>424.7</ele>
        <time>2021-03-06T14:33:50Z</time>
      </trkpt>
      <trkpt lat="44.09858" lon="3.01137">
        <ele>424.9</ele>
        <time>2021-03-06T14:33:52Z</time>
      </trkpt>
      <trkpt lat="44.09859" lon="3.01138">
        <ele>425.1</ele>
        <time>2021-03-06T14:33:53Z</time>
      </trkpt>
      <trkpt lat="44.09861" lon="3.01138">
        <ele>425.4</ele>
        <time>2021-03-06T14:33:54Z</time>
      </trkpt>
      <trkpt lat="44.09864" lon="3.01139">
        <ele>425.8</ele>
        <time>2021-03-06T14:33:56Z</time>
      </trkpt>
      <trkpt lat="44.09865" lon="3.01139">
        <ele>425.9</ele>
        <time>2021-03-06T14:33:57Z</time>
      </trkpt>
      <trkpt lat="44.09868" lon="3.01139">
        <ele>426.3</ele>
        <time>2021-03-06T14:33:59Z</time>
      </trkpt>
      <trkpt lat="44.09871" lon="3.01139">
        <ele>426.8</ele>
        <time>2021-03-06T14:34:00Z</time>
      </trkpt>
      <trkpt lat="44.09875" lon="3.01139">
        <ele>427.3</ele>
        <time>2021-03-06T14:34:01Z</time>
      </trkpt>
      <trkpt lat="44.09876" lon="3.01139">
        <ele>427.5</ele>
        <time>2021-03-06T14:34:03Z</time>
      </trkpt>
      <trkpt lat="44.09878" lon="3.01139">
        <ele>427.7</ele>
        <time>2021-03-06T14:34:05Z</time>
      </trkpt>
      <trkpt lat="44.09879" lon="3.01138">
        <ele>427.9</ele>
        <time>2021-03-06T14:34:06Z</time>
      </trkpt>
      <trkpt lat="44.09881" lon="3.01138">
        <ele>428.2</ele>
        <time>2021-03-06T14:34:08Z</time>
      </trkpt>
      <trkpt lat="44.09883" lon="3.01138">
        <ele>428.3</ele>
        <time>2021-03-06T14:34:09Z</time>
      </trkpt>
      <trkpt lat="44.09884" lon="3.01138">
        <ele>428.6</ele>
        <time>2021-03-06T14:34:10Z</time>
      </trkpt>
      <trkpt lat="44.09887" lon="3.01138">
        <ele>428.9</ele>
        <time>2021-03-06T14:34:12Z</time>
      </trkpt>
      <trkpt lat="44.09889" lon="3.01138">
        <ele>429.1</ele>
        <time>2021-03-06T14:34:13Z</time>
      </trkpt>
      <trkpt lat="44.09891" lon="3.01138">
        <ele>429.4</ele>
        <time>2021-03-06T14:34:15Z</time>
      </trkpt>
      <trkpt lat="44.09896" lon="3.01138">
        <ele>430</ele>
        <time>2021-03-06T14:34:17Z</time>
      </trkpt>
      <trkpt lat="44.09897" lon="3.01138">
        <ele>430.1</ele>
        <time>2021-03-06T14:34:18Z</time>
      </trkpt>
      <trkpt lat="44.09898" lon="3.01138">
        <ele>430.3</ele>
        <time>2021-03-06T14:34:19Z</time>
      </trkpt>
      <trkpt lat="44.099" lon="3.01138">
        <ele>430.6</ele>
        <time>2021-03-06T14:34:21Z</time>
      </trkpt>
      <trkpt lat="44.09902" lon="3.01138">
        <ele>430.8</ele>
        <time>2021-03-06T14:34:22Z</time>
      </trkpt>
      <trkpt lat="44.09905" lon="3.01139">
        <ele>431.2</ele>
        <time>2021-03-06T14:34:23Z</time>
      </trkpt>
      <trkpt lat="44.09906" lon="3.01139">
        <ele>431.3</ele>
        <time>2021-03-06T14:34:24Z</time>
      </trkpt>
      <trkpt lat="44.09908" lon="3.01138">
        <ele>431.6</ele>
        <time>2021-03-06T14:34:26Z</time>
      </trkpt>
      <trkpt lat="44.09908" lon="3.01138">
        <ele>431.7</ele>
        <time>2021-03-06T14:34:27Z</time>
      </trkpt>
      <trkpt lat="44.09909" lon="3.01137">
        <ele>431.8</ele>
        <time>2021-03-06T14:34:28Z</time>
      </trkpt>
      <trkpt lat="44.09912" lon="3.01136">
        <ele>432.3</ele>
        <time>2021-03-06T14:34:30Z</time>
      </trkpt>
      <trkpt lat="44.09913" lon="3.01136">
        <ele>432.5</ele>
        <time>2021-03-06T14:34:31Z</time>
      </trkpt>
      <trkpt lat="44.09914" lon="3.01135">
        <ele>432.7</ele>
        <time>2021-03-06T14:34:32Z</time>
      </trkpt>
      <trkpt lat="44.09916" lon="3.01134">
        <ele>433</ele>
        <time>2021-03-06T14:34:34Z</time>
      </trkpt>
      <trkpt lat="44.09917" lon="3.01134">
        <ele>433.2</ele>
        <time>2021-03-06T14:34:35Z</time>
      </trkpt>
      <trkpt lat="44.09919" lon="3.01134">
        <ele>433.6</ele>
        <time>2021-03-06T14:34:36Z</time>
      </trkpt>
      <trkpt lat="44.0992" lon="3.01134">
        <ele>433.7</ele>
        <time>2021-03-06T14:34:37Z</time>
      </trkpt>
      <trkpt lat="44.09921" lon="3.01134">
        <ele>433.9</ele>
        <time>2021-03-06T14:34:38Z</time>
      </trkpt>
      <trkpt lat="44.09922" lon="3.01135">
        <ele>434.1</ele>
        <time>2021-03-06T14:34:39Z</time>
      </trkpt>
      <trkpt lat="44.09924" lon="3.01136">
        <ele>434.4</ele>
        <time>2021-03-06T14:34:41Z</time>
      </trkpt>
      <trkpt lat="44.09925" lon="3.01137">
        <ele>434.7</ele>
        <time>2021-03-06T14:34:42Z</time>
      </trkpt>
      <trkpt lat="44.09926" lon="3.01137">
        <ele>434.9</ele>
        <time>2021-03-06T14:34:44Z</time>
      </trkpt>
      <trkpt lat="44.09927" lon="3.01137">
        <ele>435</ele>
        <time>2021-03-06T14:34:45Z</time>
      </trkpt>
      <trkpt lat="44.09929" lon="3.01137">
        <ele>435.5</ele>
        <time>2021-03-06T14:34:46Z</time>
      </trkpt>
      <trkpt lat="44.09931" lon="3.01138">
        <ele>435.7</ele>
        <time>2021-03-06T14:34:48Z</time>
      </trkpt>
      <trkpt lat="44.09932" lon="3.01138">
        <ele>435.9</ele>
        <time>2021-03-06T14:34:50Z</time>
      </trkpt>
      <trkpt lat="44.09934" lon="3.01138">
        <ele>436.2</ele>
        <time>2021-03-06T14:34:51Z</time>
      </trkpt>
      <trkpt lat="44.09936" lon="3.01138">
        <ele>436.5</ele>
        <time>2021-03-06T14:34:53Z</time>
      </trkpt>
      <trkpt lat="44.09939" lon="3.01138">
        <ele>437</ele>
        <time>2021-03-06T14:34:55Z</time>
      </trkpt>
      <trkpt lat="44.09942" lon="3.01139">
        <ele>437.2</ele>
        <time>2021-03-06T14:34:56Z</time>
      </trkpt>
      <trkpt lat="44.09945" lon="3.0114">
        <ele>437.6</ele>
        <time>2021-03-06T14:34:58Z</time>
      </trkpt>
      <trkpt lat="44.09947" lon="3.0114">
        <ele>437.8</ele>
        <time>2021-03-06T14:34:59Z</time>
      </trkpt>
      <trkpt lat="44.09948" lon="3.0114">
        <ele>437.9</ele>
        <time>2021-03-06T14:35:01Z</time>
      </trkpt>
      <trkpt lat="44.09952" lon="3.01139">
        <ele>438.1</ele>
        <time>2021-03-06T14:35:03Z</time>
      </trkpt>
      <trkpt lat="44.09953" lon="3.01139">
        <ele>438.2</ele>
        <time>2021-03-06T14:35:04Z</time>
      </trkpt>
      <trkpt lat="44.09954" lon="3.01139">
        <ele>438.3</ele>
        <time>2021-03-06T14:35:06Z</time>
      </trkpt>
      <trkpt lat="44.09957" lon="3.0114">
        <ele>438.5</ele>
        <time>2021-03-06T14:35:08Z</time>
      </trkpt>
      <trkpt lat="44.09959" lon="3.01141">
        <ele>438.6</ele>
        <time>2021-03-06T14:35:09Z</time>
      </trkpt>
      <trkpt lat="44.09961" lon="3.01144">
        <ele>438.8</ele>
        <time>2021-03-06T14:35:11Z</time>
      </trkpt>
      <trkpt lat="44.09964" lon="3.01146">
        <ele>439</ele>
        <time>2021-03-06T14:35:12Z</time>
      </trkpt>
      <trkpt lat="44.09964" lon="3.01147">
        <ele>439</ele>
        <time>2021-03-06T14:35:13Z</time>
      </trkpt>
      <trkpt lat="44.09966" lon="3.0115">
        <ele>439.2</ele>
        <time>2021-03-06T14:35:14Z</time>
      </trkpt>
      <trkpt lat="44.09968" lon="3.01153">
        <ele>439.3</ele>
        <time>2021-03-06T14:35:15Z</time>
      </trkpt>
      <trkpt lat="44.09969" lon="3.01156">
        <ele>439.4</ele>
        <time>2021-03-06T14:35:17Z</time>
      </trkpt>
      <trkpt lat="44.0997" lon="3.01157">
        <ele>439.5</ele>
        <time>2021-03-06T14:35:18Z</time>
      </trkpt>
      <trkpt lat="44.09973" lon="3.0116">
        <ele>439.7</ele>
        <time>2021-03-06T14:35:19Z</time>
      </trkpt>
      <trkpt lat="44.09974" lon="3.01162">
        <ele>439.8</ele>
        <time>2021-03-06T14:35:21Z</time>
      </trkpt>
      <trkpt lat="44.09976" lon="3.01163">
        <ele>439.9</ele>
        <time>2021-03-06T14:35:23Z</time>
      </trkpt>
      <trkpt lat="44.09977" lon="3.01165">
        <ele>440</ele>
        <time>2021-03-06T14:35:24Z</time>
      </trkpt>
      <trkpt lat="44.09978" lon="3.01166">
        <ele>440</ele>
        <time>2021-03-06T14:35:25Z</time>
      </trkpt>
      <trkpt lat="44.0998" lon="3.01168">
        <ele>440.2</ele>
        <time>2021-03-06T14:35:28Z</time>
      </trkpt>
      <trkpt lat="44.09982" lon="3.01169">
        <ele>440.4</ele>
        <time>2021-03-06T14:35:29Z</time>
      </trkpt>
      <trkpt lat="44.09984" lon="3.0117">
        <ele>440.5</ele>
        <time>2021-03-06T14:35:30Z</time>
      </trkpt>
      <trkpt lat="44.09985" lon="3.01171">
        <ele>440.6</ele>
        <time>2021-03-06T14:35:31Z</time>
      </trkpt>
      <trkpt lat="44.09987" lon="3.01172">
        <ele>440.8</ele>
        <time>2021-03-06T14:35:33Z</time>
      </trkpt>
      <trkpt lat="44.09989" lon="3.01172">
        <ele>440.9</ele>
        <time>2021-03-06T14:35:34Z</time>
      </trkpt>
      <trkpt lat="44.0999" lon="3.01173">
        <ele>441.1</ele>
        <time>2021-03-06T14:35:35Z</time>
      </trkpt>
      <trkpt lat="44.09991" lon="3.01174">
        <ele>441.2</ele>
        <time>2021-03-06T14:35:36Z</time>
      </trkpt>
      <trkpt lat="44.09993" lon="3.01175">
        <ele>441.3</ele>
        <time>2021-03-06T14:35:37Z</time>
      </trkpt>
      <trkpt lat="44.09994" lon="3.01176">
        <ele>441.5</ele>
        <time>2021-03-06T14:35:39Z</time>
      </trkpt>
      <trkpt lat="44.09996" lon="3.01178">
        <ele>441.7</ele>
        <time>2021-03-06T14:35:41Z</time>
      </trkpt>
      <trkpt lat="44.09997" lon="3.01178">
        <ele>441.8</ele>
        <time>2021-03-06T14:35:42Z</time>
      </trkpt>
      <trkpt lat="44.09999" lon="3.01179">
        <ele>442</ele>
        <time>2021-03-06T14:35:43Z</time>
      </trkpt>
      <trkpt lat="44.10002" lon="3.01181">
        <ele>442.3</ele>
        <time>2021-03-06T14:35:45Z</time>
      </trkpt>
      <trkpt lat="44.10002" lon="3.01182">
        <ele>442.4</ele>
        <time>2021-03-06T14:35:47Z</time>
      </trkpt>
      <trkpt lat="44.10003" lon="3.01183">
        <ele>442.5</ele>
        <time>2021-03-06T14:35:48Z</time>
      </trkpt>
      <trkpt lat="44.10004" lon="3.01184">
        <ele>442.7</ele>
        <time>2021-03-06T14:35:49Z</time>
      </trkpt>
      <trkpt lat="44.10005" lon="3.01185">
        <ele>442.8</ele>
        <time>2021-03-06T14:35:50Z</time>
      </trkpt>
      <trkpt lat="44.10006" lon="3.01187">
        <ele>443</ele>
        <time>2021-03-06T14:35:51Z</time>
      </trkpt>
      <trkpt lat="44.10007" lon="3.01189">
        <ele>443.2</ele>
        <time>2021-03-06T14:35:53Z</time>
      </trkpt>
      <trkpt lat="44.10008" lon="3.01191">
        <ele>443.4</ele>
        <time>2021-03-06T14:35:54Z</time>
      </trkpt>
      <trkpt lat="44.10009" lon="3.01192">
        <ele>443.6</ele>
        <time>2021-03-06T14:35:55Z</time>
      </trkpt>
      <trkpt lat="44.1001" lon="3.01194">
        <ele>443.7</ele>
        <time>2021-03-06T14:35:56Z</time>
      </trkpt>
      <trkpt lat="44.10011" lon="3.01195">
        <ele>443.9</ele>
        <time>2021-03-06T14:35:57Z</time>
      </trkpt>
      <trkpt lat="44.10013" lon="3.01198">
        <ele>444.3</ele>
        <time>2021-03-06T14:35:59Z</time>
      </trkpt>
      <trkpt lat="44.10014" lon="3.01199">
        <ele>444.4</ele>
        <time>2021-03-06T14:36:00Z</time>
      </trkpt>
      <trkpt lat="44.10015" lon="3.012">
        <ele>444.6</ele>
        <time>2021-03-06T14:36:01Z</time>
      </trkpt>
      <trkpt lat="44.10016" lon="3.01201">
        <ele>444.8</ele>
        <time>2021-03-06T14:36:02Z</time>
      </trkpt>
      <trkpt lat="44.10017" lon="3.01203">
        <ele>445</ele>
        <time>2021-03-06T14:36:03Z</time>
      </trkpt>
      <trkpt lat="44.10019" lon="3.01204">
        <ele>445.2</ele>
        <time>2021-03-06T14:36:04Z</time>
      </trkpt>
      <trkpt lat="44.1002" lon="3.01205">
        <ele>445.4</ele>
        <time>2021-03-06T14:36:05Z</time>
      </trkpt>
      <trkpt lat="44.10022" lon="3.01207">
        <ele>445.7</ele>
        <time>2021-03-06T14:36:07Z</time>
      </trkpt>
      <trkpt lat="44.10023" lon="3.01208">
        <ele>445.9</ele>
        <time>2021-03-06T14:36:08Z</time>
      </trkpt>
      <trkpt lat="44.10024" lon="3.01209">
        <ele>446.1</ele>
        <time>2021-03-06T14:36:09Z</time>
      </trkpt>
      <trkpt lat="44.10027" lon="3.0121">
        <ele>446.5</ele>
        <time>2021-03-06T14:36:11Z</time>
      </trkpt>
      <trkpt lat="44.10029" lon="3.01212">
        <ele>446.8</ele>
        <time>2021-03-06T14:36:12Z</time>
      </trkpt>
      <trkpt lat="44.1003" lon="3.01213">
        <ele>447</ele>
        <time>2021-03-06T14:36:14Z</time>
      </trkpt>
      <trkpt lat="44.10032" lon="3.01214">
        <ele>447.3</ele>
        <time>2021-03-06T14:36:15Z</time>
      </trkpt>
      <trkpt lat="44.10033" lon="3.01215">
        <ele>447.5</ele>
        <time>2021-03-06T14:36:16Z</time>
      </trkpt>
      <trkpt lat="44.10034" lon="3.01215">
        <ele>447.5</ele>
        <time>2021-03-06T14:36:17Z</time>
      </trkpt>
      <trkpt lat="44.10035" lon="3.01216">
        <ele>447.8</ele>
        <time>2021-03-06T14:36:18Z</time>
      </trkpt>
      <trkpt lat="44.10037" lon="3.01217">
        <ele>448</ele>
        <time>2021-03-06T14:36:19Z</time>
      </trkpt>
      <trkpt lat="44.10039" lon="3.01217">
        <ele>448.4</ele>
        <time>2021-03-06T14:36:21Z</time>
      </trkpt>
      <trkpt lat="44.1004" lon="3.01218">
        <ele>448.5</ele>
        <time>2021-03-06T14:36:22Z</time>
      </trkpt>
      <trkpt lat="44.10041" lon="3.01218">
        <ele>448.6</ele>
        <time>2021-03-06T14:36:23Z</time>
      </trkpt>
      <trkpt lat="44.10043" lon="3.01219">
        <ele>449</ele>
        <time>2021-03-06T14:36:25Z</time>
      </trkpt>
      <trkpt lat="44.10044" lon="3.01219">
        <ele>449.1</ele>
        <time>2021-03-06T14:36:26Z</time>
      </trkpt>
      <trkpt lat="44.10044" lon="3.0122">
        <ele>449.2</ele>
        <time>2021-03-06T14:36:27Z</time>
      </trkpt>
      <trkpt lat="44.10045" lon="3.01221">
        <ele>449.4</ele>
        <time>2021-03-06T14:36:29Z</time>
      </trkpt>
      <trkpt lat="44.10046" lon="3.01221">
        <ele>449.5</ele>
        <time>2021-03-06T14:36:30Z</time>
      </trkpt>
      <trkpt lat="44.10047" lon="3.01223">
        <ele>449.7</ele>
        <time>2021-03-06T14:36:31Z</time>
      </trkpt>
      <trkpt lat="44.10048" lon="3.01223">
        <ele>449.9</ele>
        <time>2021-03-06T14:36:33Z</time>
      </trkpt>
      <trkpt lat="44.10051" lon="3.01225">
        <ele>450.2</ele>
        <time>2021-03-06T14:36:35Z</time>
      </trkpt>
      <trkpt lat="44.10051" lon="3.01226">
        <ele>450.4</ele>
        <time>2021-03-06T14:36:36Z</time>
      </trkpt>
      <trkpt lat="44.10052" lon="3.01227">
        <ele>450.5</ele>
        <time>2021-03-06T14:36:37Z</time>
      </trkpt>
      <trkpt lat="44.10053" lon="3.01229">
        <ele>450.7</ele>
        <time>2021-03-06T14:36:38Z</time>
      </trkpt>
      <trkpt lat="44.10053" lon="3.0123">
        <ele>450.9</ele>
        <time>2021-03-06T14:36:39Z</time>
      </trkpt>
      <trkpt lat="44.10054" lon="3.01232">
        <ele>451</ele>
        <time>2021-03-06T14:36:41Z</time>
      </trkpt>
      <trkpt lat="44.10054" lon="3.01233">
        <ele>451.1</ele>
        <time>2021-03-06T14:36:42Z</time>
      </trkpt>
      <trkpt lat="44.10055" lon="3.01234">
        <ele>451.3</ele>
        <time>2021-03-06T14:36:43Z</time>
      </trkpt>
      <trkpt lat="44.10056" lon="3.01235">
        <ele>451.4</ele>
        <time>2021-03-06T14:36:45Z</time>
      </trkpt>
      <trkpt lat="44.10057" lon="3.01236">
        <ele>451.5</ele>
        <time>2021-03-06T14:36:46Z</time>
      </trkpt>
      <trkpt lat="44.10058" lon="3.01236">
        <ele>451.7</ele>
        <time>2021-03-06T14:36:48Z</time>
      </trkpt>
      <trkpt lat="44.10059" lon="3.01236">
        <ele>451.8</ele>
        <time>2021-03-06T14:36:50Z</time>
      </trkpt>
      <trkpt lat="44.10059" lon="3.01236">
        <ele>451.9</ele>
        <time>2021-03-06T14:36:51Z</time>
      </trkpt>
      <trkpt lat="44.1006" lon="3.01237">
        <ele>452</ele>
        <time>2021-03-06T14:36:52Z</time>
      </trkpt>
      <trkpt lat="44.10061" lon="3.01238">
        <ele>452.1</ele>
        <time>2021-03-06T14:36:54Z</time>
      </trkpt>
      <trkpt lat="44.10062" lon="3.01239">
        <ele>452.3</ele>
        <time>2021-03-06T14:36:55Z</time>
      </trkpt>
      <trkpt lat="44.10063" lon="3.01241">
        <ele>452.5</ele>
        <time>2021-03-06T14:36:57Z</time>
      </trkpt>
      <trkpt lat="44.10064" lon="3.01243">
        <ele>452.7</ele>
        <time>2021-03-06T14:36:59Z</time>
      </trkpt>
      <trkpt lat="44.10066" lon="3.01247">
        <ele>453</ele>
        <time>2021-03-06T14:37:01Z</time>
      </trkpt>
      <trkpt lat="44.10069" lon="3.01251">
        <ele>453.3</ele>
        <time>2021-03-06T14:37:02Z</time>
      </trkpt>
      <trkpt lat="44.10071" lon="3.01254">
        <ele>453.7</ele>
        <time>2021-03-06T14:37:05Z</time>
      </trkpt>
      <trkpt lat="44.10072" lon="3.01256">
        <ele>453.9</ele>
        <time>2021-03-06T14:37:06Z</time>
      </trkpt>
      <trkpt lat="44.10074" lon="3.01257">
        <ele>454.1</ele>
        <time>2021-03-06T14:37:07Z</time>
      </trkpt>
      <trkpt lat="44.10075" lon="3.01258">
        <ele>454.2</ele>
        <time>2021-03-06T14:37:08Z</time>
      </trkpt>
      <trkpt lat="44.10077" lon="3.01258">
        <ele>454.5</ele>
        <time>2021-03-06T14:37:09Z</time>
      </trkpt>
      <trkpt lat="44.1008" lon="3.01259">
        <ele>454.9</ele>
        <time>2021-03-06T14:37:11Z</time>
      </trkpt>
      <trkpt lat="44.10081" lon="3.01259">
        <ele>455</ele>
        <time>2021-03-06T14:37:12Z</time>
      </trkpt>
      <trkpt lat="44.10082" lon="3.01259">
        <ele>455.2</ele>
        <time>2021-03-06T14:37:13Z</time>
      </trkpt>
      <trkpt lat="44.10084" lon="3.01259">
        <ele>455.4</ele>
        <time>2021-03-06T14:37:15Z</time>
      </trkpt>
      <trkpt lat="44.10086" lon="3.0126">
        <ele>455.7</ele>
        <time>2021-03-06T14:37:16Z</time>
      </trkpt>
      <trkpt lat="44.10087" lon="3.0126">
        <ele>455.9</ele>
        <time>2021-03-06T14:37:17Z</time>
      </trkpt>
      <trkpt lat="44.1009" lon="3.01262">
        <ele>456.2</ele>
        <time>2021-03-06T14:37:19Z</time>
      </trkpt>
      <trkpt lat="44.1009" lon="3.01263">
        <ele>456.3</ele>
        <time>2021-03-06T14:37:20Z</time>
      </trkpt>
      <trkpt lat="44.1009" lon="3.01264">
        <ele>456.4</ele>
        <time>2021-03-06T14:37:21Z</time>
      </trkpt>
      <trkpt lat="44.10091" lon="3.01266">
        <ele>456.8</ele>
        <time>2021-03-06T14:37:22Z</time>
      </trkpt>
      <trkpt lat="44.10092" lon="3.01268">
        <ele>457</ele>
        <time>2021-03-06T14:37:24Z</time>
      </trkpt>
      <trkpt lat="44.10094" lon="3.01269">
        <ele>457.3</ele>
        <time>2021-03-06T14:37:25Z</time>
      </trkpt>
      <trkpt lat="44.10095" lon="3.01271">
        <ele>457.6</ele>
        <time>2021-03-06T14:37:26Z</time>
      </trkpt>
      <trkpt lat="44.10098" lon="3.01274">
        <ele>458.2</ele>
        <time>2021-03-06T14:37:28Z</time>
      </trkpt>
      <trkpt lat="44.10099" lon="3.01275">
        <ele>458.3</ele>
        <time>2021-03-06T14:37:29Z</time>
      </trkpt>
      <trkpt lat="44.101" lon="3.01277">
        <ele>458.5</ele>
        <time>2021-03-06T14:37:30Z</time>
      </trkpt>
      <trkpt lat="44.10102" lon="3.01278">
        <ele>458.8</ele>
        <time>2021-03-06T14:37:32Z</time>
      </trkpt>
      <trkpt lat="44.10103" lon="3.01279">
        <ele>458.9</ele>
        <time>2021-03-06T14:37:33Z</time>
      </trkpt>
      <trkpt lat="44.10104" lon="3.01281">
        <ele>459.1</ele>
        <time>2021-03-06T14:37:34Z</time>
      </trkpt>
      <trkpt lat="44.10106" lon="3.01283">
        <ele>459.4</ele>
        <time>2021-03-06T14:37:36Z</time>
      </trkpt>
      <trkpt lat="44.10106" lon="3.01284">
        <ele>459.5</ele>
        <time>2021-03-06T14:37:37Z</time>
      </trkpt>
      <trkpt lat="44.10108" lon="3.01285">
        <ele>459.7</ele>
        <time>2021-03-06T14:37:38Z</time>
      </trkpt>
      <trkpt lat="44.10109" lon="3.01286">
        <ele>459.9</ele>
        <time>2021-03-06T14:37:40Z</time>
      </trkpt>
      <trkpt lat="44.10112" lon="3.01289">
        <ele>460.3</ele>
        <time>2021-03-06T14:37:42Z</time>
      </trkpt>
      <trkpt lat="44.10112" lon="3.01289">
        <ele>460.4</ele>
        <time>2021-03-06T14:37:43Z</time>
      </trkpt>
      <trkpt lat="44.10114" lon="3.0129">
        <ele>460.5</ele>
        <time>2021-03-06T14:37:44Z</time>
      </trkpt>
      <trkpt lat="44.10115" lon="3.01291">
        <ele>460.7</ele>
        <time>2021-03-06T14:37:46Z</time>
      </trkpt>
      <trkpt lat="44.10116" lon="3.01291">
        <ele>460.9</ele>
        <time>2021-03-06T14:37:47Z</time>
      </trkpt>
      <trkpt lat="44.10116" lon="3.01291">
        <ele>461</ele>
        <time>2021-03-06T14:37:48Z</time>
      </trkpt>
      <trkpt lat="44.10117" lon="3.01291">
        <ele>461</ele>
        <time>2021-03-06T14:37:49Z</time>
      </trkpt>
      <trkpt lat="44.10117" lon="3.01291">
        <ele>461.1</ele>
        <time>2021-03-06T14:37:50Z</time>
      </trkpt>
      <trkpt lat="44.10118" lon="3.01291">
        <ele>461.2</ele>
        <time>2021-03-06T14:37:52Z</time>
      </trkpt>
      <trkpt lat="44.10118" lon="3.01291">
        <ele>461.2</ele>
        <time>2021-03-06T14:37:53Z</time>
      </trkpt>
      <trkpt lat="44.10119" lon="3.01291">
        <ele>461.3</ele>
        <time>2021-03-06T14:37:54Z</time>
      </trkpt>
      <trkpt lat="44.1012" lon="3.01291">
        <ele>461.5</ele>
        <time>2021-03-06T14:37:55Z</time>
      </trkpt>
      <trkpt lat="44.10121" lon="3.01292">
        <ele>461.7</ele>
        <time>2021-03-06T14:37:57Z</time>
      </trkpt>
      <trkpt lat="44.10122" lon="3.01293">
        <ele>461.9</ele>
        <time>2021-03-06T14:37:58Z</time>
      </trkpt>
      <trkpt lat="44.10124" lon="3.01294">
        <ele>462.1</ele>
        <time>2021-03-06T14:37:59Z</time>
      </trkpt>
      <trkpt lat="44.10126" lon="3.01294">
        <ele>462.4</ele>
        <time>2021-03-06T14:38:01Z</time>
      </trkpt>
      <trkpt lat="44.10127" lon="3.01294">
        <ele>462.6</ele>
        <time>2021-03-06T14:38:02Z</time>
      </trkpt>
      <trkpt lat="44.10129" lon="3.01295">
        <ele>462.9</ele>
        <time>2021-03-06T14:38:03Z</time>
      </trkpt>
      <trkpt lat="44.1013" lon="3.01296">
        <ele>463</ele>
        <time>2021-03-06T14:38:04Z</time>
      </trkpt>
      <trkpt lat="44.1013" lon="3.01296">
        <ele>463.2</ele>
        <time>2021-03-06T14:38:05Z</time>
      </trkpt>
      <trkpt lat="44.10133" lon="3.01298">
        <ele>463.6</ele>
        <time>2021-03-06T14:38:06Z</time>
      </trkpt>
      <trkpt lat="44.10134" lon="3.01299">
        <ele>463.8</ele>
        <time>2021-03-06T14:38:08Z</time>
      </trkpt>
      <trkpt lat="44.10135" lon="3.013">
        <ele>464</ele>
        <time>2021-03-06T14:38:09Z</time>
      </trkpt>
      <trkpt lat="44.10136" lon="3.01301">
        <ele>464.2</ele>
        <time>2021-03-06T14:38:10Z</time>
      </trkpt>
      <trkpt lat="44.10137" lon="3.01302">
        <ele>464.4</ele>
        <time>2021-03-06T14:38:12Z</time>
      </trkpt>
      <trkpt lat="44.10139" lon="3.01304">
        <ele>464.6</ele>
        <time>2021-03-06T14:38:13Z</time>
      </trkpt>
      <trkpt lat="44.1014" lon="3.01305">
        <ele>464.9</ele>
        <time>2021-03-06T14:38:15Z</time>
      </trkpt>
      <trkpt lat="44.10141" lon="3.01307">
        <ele>465.2</ele>
        <time>2021-03-06T14:38:16Z</time>
      </trkpt>
      <trkpt lat="44.10142" lon="3.01308">
        <ele>465.5</ele>
        <time>2021-03-06T14:38:18Z</time>
      </trkpt>
      <trkpt lat="44.10143" lon="3.01308">
        <ele>465.6</ele>
        <time>2021-03-06T14:38:19Z</time>
      </trkpt>
      <trkpt lat="44.10144" lon="3.01309">
        <ele>465.7</ele>
        <time>2021-03-06T14:38:20Z</time>
      </trkpt>
      <trkpt lat="44.10144" lon="3.01309">
        <ele>465.9</ele>
        <time>2021-03-06T14:38:21Z</time>
      </trkpt>
      <trkpt lat="44.10145" lon="3.0131">
        <ele>466.1</ele>
        <time>2021-03-06T14:38:22Z</time>
      </trkpt>
      <trkpt lat="44.10146" lon="3.01311">
        <ele>466.2</ele>
        <time>2021-03-06T14:38:24Z</time>
      </trkpt>
      <trkpt lat="44.10148" lon="3.01312">
        <ele>466.5</ele>
        <time>2021-03-06T14:38:25Z</time>
      </trkpt>
      <trkpt lat="44.10149" lon="3.01313">
        <ele>466.7</ele>
        <time>2021-03-06T14:38:26Z</time>
      </trkpt>
      <trkpt lat="44.1015" lon="3.01315">
        <ele>467</ele>
        <time>2021-03-06T14:38:27Z</time>
      </trkpt>
      <trkpt lat="44.10151" lon="3.01316">
        <ele>467.1</ele>
        <time>2021-03-06T14:38:28Z</time>
      </trkpt>
      <trkpt lat="44.10153" lon="3.01319">
        <ele>467.7</ele>
        <time>2021-03-06T14:38:31Z</time>
      </trkpt>
      <trkpt lat="44.10154" lon="3.01321">
        <ele>468</ele>
        <time>2021-03-06T14:38:32Z</time>
      </trkpt>
      <trkpt lat="44.10155" lon="3.01323">
        <ele>468.3</ele>
        <time>2021-03-06T14:38:34Z</time>
      </trkpt>
      <trkpt lat="44.10156" lon="3.01324">
        <ele>468.4</ele>
        <time>2021-03-06T14:38:35Z</time>
      </trkpt>
      <trkpt lat="44.10156" lon="3.01324">
        <ele>468.5</ele>
        <time>2021-03-06T14:38:36Z</time>
      </trkpt>
      <trkpt lat="44.10157" lon="3.01325">
        <ele>468.6</ele>
        <time>2021-03-06T14:38:37Z</time>
      </trkpt>
      <trkpt lat="44.10157" lon="3.01325">
        <ele>468.7</ele>
        <time>2021-03-06T14:38:39Z</time>
      </trkpt>
      <trkpt lat="44.10158" lon="3.01326">
        <ele>468.8</ele>
        <time>2021-03-06T14:38:40Z</time>
      </trkpt>
      <trkpt lat="44.10158" lon="3.01326">
        <ele>468.9</ele>
        <time>2021-03-06T14:38:42Z</time>
      </trkpt>
      <trkpt lat="44.10158" lon="3.01327">
        <ele>468.9</ele>
        <time>2021-03-06T14:38:44Z</time>
      </trkpt>
      <trkpt lat="44.10158" lon="3.01327">
        <ele>469</ele>
        <time>2021-03-06T14:38:45Z</time>
      </trkpt>
      <trkpt lat="44.10158" lon="3.01327">
        <ele>469.1</ele>
        <time>2021-03-06T14:38:47Z</time>
      </trkpt>
      <trkpt lat="44.10158" lon="3.01327">
        <ele>469.1</ele>
        <time>2021-03-06T14:38:48Z</time>
      </trkpt>
      <trkpt lat="44.1016" lon="3.01328">
        <ele>469.5</ele>
        <time>2021-03-06T14:39:10Z</time>
      </trkpt>
      <trkpt lat="44.10161" lon="3.01329">
        <ele>469.8</ele>
        <time>2021-03-06T14:39:12Z</time>
      </trkpt>
      <trkpt lat="44.10163" lon="3.0133">
        <ele>470.1</ele>
        <time>2021-03-06T14:39:13Z</time>
      </trkpt>
      <trkpt lat="44.10164" lon="3.0133">
        <ele>470.3</ele>
        <time>2021-03-06T14:39:14Z</time>
      </trkpt>
      <trkpt lat="44.10166" lon="3.0133">
        <ele>470.6</ele>
        <time>2021-03-06T14:39:15Z</time>
      </trkpt>
      <trkpt lat="44.10167" lon="3.01331">
        <ele>470.9</ele>
        <time>2021-03-06T14:39:17Z</time>
      </trkpt>
      <trkpt lat="44.10168" lon="3.01331">
        <ele>471</ele>
        <time>2021-03-06T14:39:18Z</time>
      </trkpt>
      <trkpt lat="44.10168" lon="3.01331">
        <ele>471.1</ele>
        <time>2021-03-06T14:39:19Z</time>
      </trkpt>
      <trkpt lat="44.10168" lon="3.01331">
        <ele>471.2</ele>
        <time>2021-03-06T14:39:20Z</time>
      </trkpt>
      <trkpt lat="44.10169" lon="3.01331">
        <ele>471.2</ele>
        <time>2021-03-06T14:39:22Z</time>
      </trkpt>
      <trkpt lat="44.10169" lon="3.01331">
        <ele>471.3</ele>
        <time>2021-03-06T14:39:23Z</time>
      </trkpt>
      <trkpt lat="44.10169" lon="3.01331">
        <ele>471.4</ele>
        <time>2021-03-06T14:39:24Z</time>
      </trkpt>
      <trkpt lat="44.1017" lon="3.0133">
        <ele>471.4</ele>
        <time>2021-03-06T14:39:25Z</time>
      </trkpt>
      <trkpt lat="44.1017" lon="3.0133">
        <ele>471.5</ele>
        <time>2021-03-06T14:39:26Z</time>
      </trkpt>
      <trkpt lat="44.10171" lon="3.0133">
        <ele>471.8</ele>
        <time>2021-03-06T14:39:28Z</time>
      </trkpt>
      <trkpt lat="44.10173" lon="3.01329">
        <ele>472.2</ele>
        <time>2021-03-06T14:39:29Z</time>
      </trkpt>
      <trkpt lat="44.10174" lon="3.01329">
        <ele>472.4</ele>
        <time>2021-03-06T14:39:31Z</time>
      </trkpt>
      <trkpt lat="44.10175" lon="3.01328">
        <ele>472.6</ele>
        <time>2021-03-06T14:39:32Z</time>
      </trkpt>
      <trkpt lat="44.10176" lon="3.01328">
        <ele>472.8</ele>
        <time>2021-03-06T14:39:34Z</time>
      </trkpt>
      <trkpt lat="44.10177" lon="3.01327">
        <ele>473</ele>
        <time>2021-03-06T14:39:35Z</time>
      </trkpt>
      <trkpt lat="44.10181" lon="3.01328">
        <ele>473.8</ele>
        <time>2021-03-06T14:39:38Z</time>
      </trkpt>
      <trkpt lat="44.10182" lon="3.01328">
        <ele>474</ele>
        <time>2021-03-06T14:39:39Z</time>
      </trkpt>
      <trkpt lat="44.10183" lon="3.01328">
        <ele>474.3</ele>
        <time>2021-03-06T14:39:41Z</time>
      </trkpt>
      <trkpt lat="44.10183" lon="3.01328">
        <ele>474.4</ele>
        <time>2021-03-06T14:39:42Z</time>
      </trkpt>
      <trkpt lat="44.10184" lon="3.01329">
        <ele>474.6</ele>
        <time>2021-03-06T14:39:44Z</time>
      </trkpt>
      <trkpt lat="44.10184" lon="3.0133">
        <ele>474.7</ele>
        <time>2021-03-06T14:39:46Z</time>
      </trkpt>
      <trkpt lat="44.10184" lon="3.01331">
        <ele>474.9</ele>
        <time>2021-03-06T14:39:48Z</time>
      </trkpt>
      <trkpt lat="44.10185" lon="3.01332">
        <ele>474.9</ele>
        <time>2021-03-06T14:39:49Z</time>
      </trkpt>
      <trkpt lat="44.10186" lon="3.01333">
        <ele>475.4</ele>
        <time>2021-03-06T14:40:00Z</time>
      </trkpt>
      <trkpt lat="44.10187" lon="3.01334">
        <ele>475.6</ele>
        <time>2021-03-06T14:40:01Z</time>
      </trkpt>
      <trkpt lat="44.10188" lon="3.01333">
        <ele>475.7</ele>
        <time>2021-03-06T14:40:02Z</time>
      </trkpt>
      <trkpt lat="44.10188" lon="3.01333">
        <ele>475.7</ele>
        <time>2021-03-06T14:40:04Z</time>
      </trkpt>
      <trkpt lat="44.10189" lon="3.01334">
        <ele>475.9</ele>
        <time>2021-03-06T14:40:05Z</time>
      </trkpt>
      <trkpt lat="44.1019" lon="3.01334">
        <ele>476.1</ele>
        <time>2021-03-06T14:40:07Z</time>
      </trkpt>
      <trkpt lat="44.1019" lon="3.01334">
        <ele>476.2</ele>
        <time>2021-03-06T14:40:08Z</time>
      </trkpt>
      <trkpt lat="44.10192" lon="3.01335">
        <ele>476.5</ele>
        <time>2021-03-06T14:40:10Z</time>
      </trkpt>
      <trkpt lat="44.10193" lon="3.01335">
        <ele>476.7</ele>
        <time>2021-03-06T14:40:11Z</time>
      </trkpt>
      <trkpt lat="44.10194" lon="3.01336">
        <ele>477</ele>
        <time>2021-03-06T14:40:12Z</time>
      </trkpt>
      <trkpt lat="44.10196" lon="3.01336">
        <ele>477.3</ele>
        <time>2021-03-06T14:40:13Z</time>
      </trkpt>
      <trkpt lat="44.10199" lon="3.01338">
        <ele>478</ele>
        <time>2021-03-06T14:40:15Z</time>
      </trkpt>
      <trkpt lat="44.10199" lon="3.01339">
        <ele>478.1</ele>
        <time>2021-03-06T14:40:16Z</time>
      </trkpt>
      <trkpt lat="44.10201" lon="3.0134">
        <ele>478.4</ele>
        <time>2021-03-06T14:40:17Z</time>
      </trkpt>
      <trkpt lat="44.10201" lon="3.01341">
        <ele>478.6</ele>
        <time>2021-03-06T14:40:19Z</time>
      </trkpt>
      <trkpt lat="44.10202" lon="3.01341">
        <ele>478.8</ele>
        <time>2021-03-06T14:40:20Z</time>
      </trkpt>
      <trkpt lat="44.10204" lon="3.01342">
        <ele>479.1</ele>
        <time>2021-03-06T14:40:21Z</time>
      </trkpt>
      <trkpt lat="44.10205" lon="3.01343">
        <ele>479.3</ele>
        <time>2021-03-06T14:40:23Z</time>
      </trkpt>
      <trkpt lat="44.10206" lon="3.01343">
        <ele>479.5</ele>
        <time>2021-03-06T14:40:24Z</time>
      </trkpt>
      <trkpt lat="44.10208" lon="3.01343">
        <ele>479.8</ele>
        <time>2021-03-06T14:40:25Z</time>
      </trkpt>
      <trkpt lat="44.10211" lon="3.01344">
        <ele>480.4</ele>
        <time>2021-03-06T14:40:27Z</time>
      </trkpt>
      <trkpt lat="44.10213" lon="3.01345">
        <ele>480.9</ele>
        <time>2021-03-06T14:40:29Z</time>
      </trkpt>
      <trkpt lat="44.10216" lon="3.01345">
        <ele>481.3</ele>
        <time>2021-03-06T14:40:31Z</time>
      </trkpt>
      <trkpt lat="44.10217" lon="3.01346">
        <ele>481.6</ele>
        <time>2021-03-06T14:40:32Z</time>
      </trkpt>
      <trkpt lat="44.10218" lon="3.01346">
        <ele>481.9</ele>
        <time>2021-03-06T14:40:33Z</time>
      </trkpt>
      <trkpt lat="44.10221" lon="3.01347">
        <ele>482.3</ele>
        <time>2021-03-06T14:40:34Z</time>
      </trkpt>
      <trkpt lat="44.10222" lon="3.01348">
        <ele>482.6</ele>
        <time>2021-03-06T14:40:36Z</time>
      </trkpt>
      <trkpt lat="44.10223" lon="3.01348">
        <ele>482.8</ele>
        <time>2021-03-06T14:40:37Z</time>
      </trkpt>
      <trkpt lat="44.10224" lon="3.01349">
        <ele>483</ele>
        <time>2021-03-06T14:40:38Z</time>
      </trkpt>
      <trkpt lat="44.10225" lon="3.01349">
        <ele>483.2</ele>
        <time>2021-03-06T14:40:39Z</time>
      </trkpt>
      <trkpt lat="44.10225" lon="3.01349">
        <ele>483.3</ele>
        <time>2021-03-06T14:40:41Z</time>
      </trkpt>
      <trkpt lat="44.10226" lon="3.01349">
        <ele>483.4</ele>
        <time>2021-03-06T14:40:43Z</time>
      </trkpt>
      <trkpt lat="44.10227" lon="3.01349">
        <ele>483.5</ele>
        <time>2021-03-06T14:40:44Z</time>
      </trkpt>
      <trkpt lat="44.10228" lon="3.01349">
        <ele>483.8</ele>
        <time>2021-03-06T14:40:46Z</time>
      </trkpt>
      <trkpt lat="44.1023" lon="3.01349">
        <ele>484.1</ele>
        <time>2021-03-06T14:40:48Z</time>
      </trkpt>
      <trkpt lat="44.10231" lon="3.0135">
        <ele>484.4</ele>
        <time>2021-03-06T14:40:49Z</time>
      </trkpt>
      <trkpt lat="44.10233" lon="3.01351">
        <ele>484.8</ele>
        <time>2021-03-06T14:40:51Z</time>
      </trkpt>
      <trkpt lat="44.10234" lon="3.01352">
        <ele>485.1</ele>
        <time>2021-03-06T14:40:52Z</time>
      </trkpt>
      <trkpt lat="44.10235" lon="3.01352">
        <ele>485.3</ele>
        <time>2021-03-06T14:40:53Z</time>
      </trkpt>
      <trkpt lat="44.10237" lon="3.01353">
        <ele>485.6</ele>
        <time>2021-03-06T14:40:54Z</time>
      </trkpt>
      <trkpt lat="44.10239" lon="3.01354">
        <ele>486</ele>
        <time>2021-03-06T14:40:56Z</time>
      </trkpt>
      <trkpt lat="44.1024" lon="3.01355">
        <ele>486.2</ele>
        <time>2021-03-06T14:40:57Z</time>
      </trkpt>
      <trkpt lat="44.10241" lon="3.01357">
        <ele>486.6</ele>
        <time>2021-03-06T14:40:58Z</time>
      </trkpt>
      <trkpt lat="44.10242" lon="3.01359">
        <ele>486.8</ele>
        <time>2021-03-06T14:41:00Z</time>
      </trkpt>
      <trkpt lat="44.10244" lon="3.0136">
        <ele>487</ele>
        <time>2021-03-06T14:41:01Z</time>
      </trkpt>
      <trkpt lat="44.10245" lon="3.01361">
        <ele>487.2</ele>
        <time>2021-03-06T14:41:02Z</time>
      </trkpt>
      <trkpt lat="44.10246" lon="3.01362">
        <ele>487.4</ele>
        <time>2021-03-06T14:41:03Z</time>
      </trkpt>
      <trkpt lat="44.10247" lon="3.01363">
        <ele>487.6</ele>
        <time>2021-03-06T14:41:05Z</time>
      </trkpt>
      <trkpt lat="44.10249" lon="3.01364">
        <ele>487.9</ele>
        <time>2021-03-06T14:41:07Z</time>
      </trkpt>
      <trkpt lat="44.1025" lon="3.01364">
        <ele>488</ele>
        <time>2021-03-06T14:41:08Z</time>
      </trkpt>
      <trkpt lat="44.10251" lon="3.01364">
        <ele>488.2</ele>
        <time>2021-03-06T14:41:10Z</time>
      </trkpt>
      <trkpt lat="44.10252" lon="3.01364">
        <ele>488.3</ele>
        <time>2021-03-06T14:41:11Z</time>
      </trkpt>
      <trkpt lat="44.10253" lon="3.01365">
        <ele>488.5</ele>
        <time>2021-03-06T14:41:12Z</time>
      </trkpt>
      <trkpt lat="44.10254" lon="3.01365">
        <ele>488.6</ele>
        <time>2021-03-06T14:41:14Z</time>
      </trkpt>
      <trkpt lat="44.10256" lon="3.01366">
        <ele>488.8</ele>
        <time>2021-03-06T14:41:15Z</time>
      </trkpt>
      <trkpt lat="44.10259" lon="3.01367">
        <ele>489.2</ele>
        <time>2021-03-06T14:41:16Z</time>
      </trkpt>
      <trkpt lat="44.1026" lon="3.01368">
        <ele>489.4</ele>
        <time>2021-03-06T14:41:18Z</time>
      </trkpt>
      <trkpt lat="44.10262" lon="3.01368">
        <ele>489.6</ele>
        <time>2021-03-06T14:41:19Z</time>
      </trkpt>
      <trkpt lat="44.10263" lon="3.01369">
        <ele>489.7</ele>
        <time>2021-03-06T14:41:20Z</time>
      </trkpt>
      <trkpt lat="44.10266" lon="3.01371">
        <ele>490.2</ele>
        <time>2021-03-06T14:41:22Z</time>
      </trkpt>
      <trkpt lat="44.10267" lon="3.01372">
        <ele>490.3</ele>
        <time>2021-03-06T14:41:23Z</time>
      </trkpt>
      <trkpt lat="44.10269" lon="3.01373">
        <ele>490.5</ele>
        <time>2021-03-06T14:41:25Z</time>
      </trkpt>
      <trkpt lat="44.1027" lon="3.01374">
        <ele>490.7</ele>
        <time>2021-03-06T14:41:26Z</time>
      </trkpt>
      <trkpt lat="44.10271" lon="3.01375">
        <ele>490.9</ele>
        <time>2021-03-06T14:41:27Z</time>
      </trkpt>
      <trkpt lat="44.10272" lon="3.01376">
        <ele>491.1</ele>
        <time>2021-03-06T14:41:29Z</time>
      </trkpt>
      <trkpt lat="44.10273" lon="3.01378">
        <ele>491.3</ele>
        <time>2021-03-06T14:41:30Z</time>
      </trkpt>
      <trkpt lat="44.10274" lon="3.01378">
        <ele>491.4</ele>
        <time>2021-03-06T14:41:31Z</time>
      </trkpt>
      <trkpt lat="44.10275" lon="3.0138">
        <ele>491.6</ele>
        <time>2021-03-06T14:41:33Z</time>
      </trkpt>
      <trkpt lat="44.10277" lon="3.01382">
        <ele>491.9</ele>
        <time>2021-03-06T14:41:34Z</time>
      </trkpt>
      <trkpt lat="44.10278" lon="3.01383">
        <ele>492</ele>
        <time>2021-03-06T14:41:35Z</time>
      </trkpt>
      <trkpt lat="44.10278" lon="3.01383">
        <ele>492.1</ele>
        <time>2021-03-06T14:41:36Z</time>
      </trkpt>
      <trkpt lat="44.10279" lon="3.01384">
        <ele>492.2</ele>
        <time>2021-03-06T14:41:38Z</time>
      </trkpt>
      <trkpt lat="44.1028" lon="3.01385">
        <ele>492.4</ele>
        <time>2021-03-06T14:41:39Z</time>
      </trkpt>
      <trkpt lat="44.10281" lon="3.01386">
        <ele>492.5</ele>
        <time>2021-03-06T14:41:40Z</time>
      </trkpt>
      <trkpt lat="44.10282" lon="3.01387">
        <ele>492.7</ele>
        <time>2021-03-06T14:41:42Z</time>
      </trkpt>
      <trkpt lat="44.10283" lon="3.01388">
        <ele>492.8</ele>
        <time>2021-03-06T14:41:43Z</time>
      </trkpt>
      <trkpt lat="44.10283" lon="3.01389">
        <ele>493</ele>
        <time>2021-03-06T14:41:45Z</time>
      </trkpt>
      <trkpt lat="44.10284" lon="3.0139">
        <ele>493.1</ele>
        <time>2021-03-06T14:41:46Z</time>
      </trkpt>
      <trkpt lat="44.10285" lon="3.01391">
        <ele>493.2</ele>
        <time>2021-03-06T14:41:47Z</time>
      </trkpt>
      <trkpt lat="44.10286" lon="3.01392">
        <ele>493.3</ele>
        <time>2021-03-06T14:41:48Z</time>
      </trkpt>
      <trkpt lat="44.10288" lon="3.01395">
        <ele>493.7</ele>
        <time>2021-03-06T14:41:50Z</time>
      </trkpt>
      <trkpt lat="44.10289" lon="3.01395">
        <ele>493.8</ele>
        <time>2021-03-06T14:41:51Z</time>
      </trkpt>
      <trkpt lat="44.10292" lon="3.01397">
        <ele>494.2</ele>
        <time>2021-03-06T14:41:53Z</time>
      </trkpt>
      <trkpt lat="44.10294" lon="3.01397">
        <ele>494.4</ele>
        <time>2021-03-06T14:41:54Z</time>
      </trkpt>
      <trkpt lat="44.10295" lon="3.01397">
        <ele>494.5</ele>
        <time>2021-03-06T14:41:56Z</time>
      </trkpt>
      <trkpt lat="44.10297" lon="3.01397">
        <ele>494.7</ele>
        <time>2021-03-06T14:41:57Z</time>
      </trkpt>
      <trkpt lat="44.10299" lon="3.01398">
        <ele>494.9</ele>
        <time>2021-03-06T14:41:58Z</time>
      </trkpt>
      <trkpt lat="44.10301" lon="3.01399">
        <ele>495.1</ele>
        <time>2021-03-06T14:41:59Z</time>
      </trkpt>
      <trkpt lat="44.10302" lon="3.01399">
        <ele>495.2</ele>
        <time>2021-03-06T14:42:01Z</time>
      </trkpt>
      <trkpt lat="44.10303" lon="3.014">
        <ele>495.4</ele>
        <time>2021-03-06T14:42:02Z</time>
      </trkpt>
      <trkpt lat="44.10305" lon="3.014">
        <ele>495.6</ele>
        <time>2021-03-06T14:42:03Z</time>
      </trkpt>
      <trkpt lat="44.10307" lon="3.01401">
        <ele>495.7</ele>
        <time>2021-03-06T14:42:05Z</time>
      </trkpt>
      <trkpt lat="44.10308" lon="3.01401">
        <ele>495.9</ele>
        <time>2021-03-06T14:42:06Z</time>
      </trkpt>
      <trkpt lat="44.1031" lon="3.01402">
        <ele>496.1</ele>
        <time>2021-03-06T14:42:07Z</time>
      </trkpt>
      <trkpt lat="44.10312" lon="3.01403">
        <ele>496.4</ele>
        <time>2021-03-06T14:42:08Z</time>
      </trkpt>
      <trkpt lat="44.10313" lon="3.01403">
        <ele>496.6</ele>
        <time>2021-03-06T14:42:10Z</time>
      </trkpt>
      <trkpt lat="44.10317" lon="3.01404">
        <ele>497</ele>
        <time>2021-03-06T14:42:11Z</time>
      </trkpt>
      <trkpt lat="44.10318" lon="3.01404">
        <ele>497.1</ele>
        <time>2021-03-06T14:42:12Z</time>
      </trkpt>
      <trkpt lat="44.1032" lon="3.01404">
        <ele>497.3</ele>
        <time>2021-03-06T14:42:14Z</time>
      </trkpt>
      <trkpt lat="44.10321" lon="3.01404">
        <ele>497.5</ele>
        <time>2021-03-06T14:42:15Z</time>
      </trkpt>
      <trkpt lat="44.10323" lon="3.01404">
        <ele>497.7</ele>
        <time>2021-03-06T14:42:17Z</time>
      </trkpt>
      <trkpt lat="44.10325" lon="3.01405">
        <ele>497.9</ele>
        <time>2021-03-06T14:42:18Z</time>
      </trkpt>
      <trkpt lat="44.10326" lon="3.01405">
        <ele>498.2</ele>
        <time>2021-03-06T14:42:19Z</time>
      </trkpt>
      <trkpt lat="44.10327" lon="3.01405">
        <ele>498.3</ele>
        <time>2021-03-06T14:42:20Z</time>
      </trkpt>
      <trkpt lat="44.1033" lon="3.01406">
        <ele>498.6</ele>
        <time>2021-03-06T14:42:21Z</time>
      </trkpt>
      <trkpt lat="44.10331" lon="3.01406">
        <ele>498.7</ele>
        <time>2021-03-06T14:42:23Z</time>
      </trkpt>
      <trkpt lat="44.10332" lon="3.01406">
        <ele>498.8</ele>
        <time>2021-03-06T14:42:24Z</time>
      </trkpt>
      <trkpt lat="44.10333" lon="3.01406">
        <ele>499</ele>
        <time>2021-03-06T14:42:25Z</time>
      </trkpt>
      <trkpt lat="44.10333" lon="3.01407">
        <ele>499.1</ele>
        <time>2021-03-06T14:42:26Z</time>
      </trkpt>
      <trkpt lat="44.10334" lon="3.01408">
        <ele>499.2</ele>
        <time>2021-03-06T14:42:28Z</time>
      </trkpt>
      <trkpt lat="44.10336" lon="3.01408">
        <ele>499.4</ele>
        <time>2021-03-06T14:42:29Z</time>
      </trkpt>
      <trkpt lat="44.10337" lon="3.01408">
        <ele>499.5</ele>
        <time>2021-03-06T14:42:30Z</time>
      </trkpt>
      <trkpt lat="44.10337" lon="3.01408">
        <ele>499.6</ele>
        <time>2021-03-06T14:42:32Z</time>
      </trkpt>
      <trkpt lat="44.10337" lon="3.01408">
        <ele>499.6</ele>
        <time>2021-03-06T14:42:33Z</time>
      </trkpt>
      <trkpt lat="44.10338" lon="3.01409">
        <ele>499.7</ele>
        <time>2021-03-06T14:42:34Z</time>
      </trkpt>
      <trkpt lat="44.10339" lon="3.01409">
        <ele>499.9</ele>
        <time>2021-03-06T14:42:36Z</time>
      </trkpt>
      <trkpt lat="44.1034" lon="3.01409">
        <ele>500</ele>
        <time>2021-03-06T14:42:37Z</time>
      </trkpt>
      <trkpt lat="44.10342" lon="3.01409">
        <ele>500.2</ele>
        <time>2021-03-06T14:42:38Z</time>
      </trkpt>
      <trkpt lat="44.10343" lon="3.01409">
        <ele>500.3</ele>
        <time>2021-03-06T14:42:39Z</time>
      </trkpt>
      <trkpt lat="44.10343" lon="3.01409">
        <ele>500.4</ele>
        <time>2021-03-06T14:42:41Z</time>
      </trkpt>
      <trkpt lat="44.10344" lon="3.01409">
        <ele>500.5</ele>
        <time>2021-03-06T14:42:42Z</time>
      </trkpt>
      <trkpt lat="44.10345" lon="3.01409">
        <ele>500.6</ele>
        <time>2021-03-06T14:42:43Z</time>
      </trkpt>
      <trkpt lat="44.10346" lon="3.01409">
        <ele>500.8</ele>
        <time>2021-03-06T14:42:45Z</time>
      </trkpt>
      <trkpt lat="44.10348" lon="3.0141">
        <ele>500.9</ele>
        <time>2021-03-06T14:42:46Z</time>
      </trkpt>
      <trkpt lat="44.10349" lon="3.01411">
        <ele>501.1</ele>
        <time>2021-03-06T14:42:47Z</time>
      </trkpt>
      <trkpt lat="44.10349" lon="3.01411">
        <ele>501.1</ele>
        <time>2021-03-06T14:42:49Z</time>
      </trkpt>
      <trkpt lat="44.1035" lon="3.01411">
        <ele>501.2</ele>
        <time>2021-03-06T14:42:50Z</time>
      </trkpt>
      <trkpt lat="44.1035" lon="3.01412">
        <ele>501.2</ele>
        <time>2021-03-06T14:42:51Z</time>
      </trkpt>
      <trkpt lat="44.10351" lon="3.01412">
        <ele>501.3</ele>
        <time>2021-03-06T14:42:53Z</time>
      </trkpt>
      <trkpt lat="44.10351" lon="3.01412">
        <ele>501.3</ele>
        <time>2021-03-06T14:42:54Z</time>
      </trkpt>
      <trkpt lat="44.10351" lon="3.01412">
        <ele>501.4</ele>
        <time>2021-03-06T14:42:56Z</time>
      </trkpt>
      <trkpt lat="44.10352" lon="3.01412">
        <ele>501.4</ele>
        <time>2021-03-06T14:42:57Z</time>
      </trkpt>
      <trkpt lat="44.10356" lon="3.01413">
        <ele>501.9</ele>
        <time>2021-03-06T14:43:34Z</time>
      </trkpt>
      <trkpt lat="44.10358" lon="3.01414">
        <ele>502</ele>
        <time>2021-03-06T14:43:35Z</time>
      </trkpt>
      <trkpt lat="44.1036" lon="3.01415">
        <ele>502.2</ele>
        <time>2021-03-06T14:43:37Z</time>
      </trkpt>
      <trkpt lat="44.10363" lon="3.01415">
        <ele>502.4</ele>
        <time>2021-03-06T14:43:38Z</time>
      </trkpt>
      <trkpt lat="44.10364" lon="3.01416">
        <ele>502.4</ele>
        <time>2021-03-06T14:43:40Z</time>
      </trkpt>
      <trkpt lat="44.10365" lon="3.01416">
        <ele>502.5</ele>
        <time>2021-03-06T14:43:41Z</time>
      </trkpt>
      <trkpt lat="44.10366" lon="3.01416">
        <ele>502.6</ele>
        <time>2021-03-06T14:43:42Z</time>
      </trkpt>
      <trkpt lat="44.10367" lon="3.01416">
        <ele>502.6</ele>
        <time>2021-03-06T14:43:43Z</time>
      </trkpt>
      <trkpt lat="44.10371" lon="3.01415">
        <ele>502.8</ele>
        <time>2021-03-06T14:43:45Z</time>
      </trkpt>
      <trkpt lat="44.10372" lon="3.01415">
        <ele>502.9</ele>
        <time>2021-03-06T14:43:46Z</time>
      </trkpt>
      <trkpt lat="44.10375" lon="3.01413">
        <ele>503.1</ele>
        <time>2021-03-06T14:43:49Z</time>
      </trkpt>
      <trkpt lat="44.10378" lon="3.01412">
        <ele>503.3</ele>
        <time>2021-03-06T14:43:50Z</time>
      </trkpt>
      <trkpt lat="44.1038" lon="3.01412">
        <ele>503.5</ele>
        <time>2021-03-06T14:43:51Z</time>
      </trkpt>
      <trkpt lat="44.10382" lon="3.01412">
        <ele>503.6</ele>
        <time>2021-03-06T14:43:53Z</time>
      </trkpt>
      <trkpt lat="44.10383" lon="3.01412">
        <ele>503.8</ele>
        <time>2021-03-06T14:43:54Z</time>
      </trkpt>
      <trkpt lat="44.10385" lon="3.01413">
        <ele>504</ele>
        <time>2021-03-06T14:43:55Z</time>
      </trkpt>
      <trkpt lat="44.10388" lon="3.01414">
        <ele>504.2</ele>
        <time>2021-03-06T14:43:56Z</time>
      </trkpt>
      <trkpt lat="44.1039" lon="3.01415">
        <ele>504.5</ele>
        <time>2021-03-06T14:43:58Z</time>
      </trkpt>
      <trkpt lat="44.10393" lon="3.01416">
        <ele>504.9</ele>
        <time>2021-03-06T14:43:59Z</time>
      </trkpt>
      <trkpt lat="44.10395" lon="3.01417">
        <ele>505.1</ele>
        <time>2021-03-06T14:44:00Z</time>
      </trkpt>
      <trkpt lat="44.10398" lon="3.01418">
        <ele>505.4</ele>
        <time>2021-03-06T14:44:02Z</time>
      </trkpt>
      <trkpt lat="44.10401" lon="3.01418">
        <ele>505.8</ele>
        <time>2021-03-06T14:44:04Z</time>
      </trkpt>
      <trkpt lat="44.10404" lon="3.0142">
        <ele>506.1</ele>
        <time>2021-03-06T14:44:05Z</time>
      </trkpt>
      <trkpt lat="44.10408" lon="3.01421">
        <ele>506.5</ele>
        <time>2021-03-06T14:44:06Z</time>
      </trkpt>
      <trkpt lat="44.10414" lon="3.01423">
        <ele>506.9</ele>
        <time>2021-03-06T14:44:08Z</time>
      </trkpt>
      <trkpt lat="44.10418" lon="3.01424">
        <ele>507</ele>
        <time>2021-03-06T14:44:09Z</time>
      </trkpt>
      <trkpt lat="44.10422" lon="3.01424">
        <ele>507.1</ele>
        <time>2021-03-06T14:44:10Z</time>
      </trkpt>
      <trkpt lat="44.10424" lon="3.01424">
        <ele>507.1</ele>
        <time>2021-03-06T14:44:11Z</time>
      </trkpt>
      <trkpt lat="44.10429" lon="3.01424">
        <ele>507.1</ele>
        <time>2021-03-06T14:44:13Z</time>
      </trkpt>
      <trkpt lat="44.10431" lon="3.01424">
        <ele>507.1</ele>
        <time>2021-03-06T14:44:14Z</time>
      </trkpt>
      <trkpt lat="44.10435" lon="3.01424">
        <ele>507.2</ele>
        <time>2021-03-06T14:44:15Z</time>
      </trkpt>
      <trkpt lat="44.10436" lon="3.01425">
        <ele>507.2</ele>
        <time>2021-03-06T14:44:16Z</time>
      </trkpt>
      <trkpt lat="44.10437" lon="3.01426">
        <ele>507.3</ele>
        <time>2021-03-06T14:44:17Z</time>
      </trkpt>
      <trkpt lat="44.10438" lon="3.01428">
        <ele>507.4</ele>
        <time>2021-03-06T14:44:18Z</time>
      </trkpt>
      <trkpt lat="44.10438" lon="3.01431">
        <ele>507.8</ele>
        <time>2021-03-06T14:44:19Z</time>
      </trkpt>
      <trkpt lat="44.10438" lon="3.01433">
        <ele>508</ele>
        <time>2021-03-06T14:44:21Z</time>
      </trkpt>
      <trkpt lat="44.10438" lon="3.01435">
        <ele>508.2</ele>
        <time>2021-03-06T14:44:22Z</time>
      </trkpt>
      <trkpt lat="44.10438" lon="3.01436">
        <ele>508.4</ele>
        <time>2021-03-06T14:44:23Z</time>
      </trkpt>
      <trkpt lat="44.10439" lon="3.01438">
        <ele>508.6</ele>
        <time>2021-03-06T14:44:24Z</time>
      </trkpt>
      <trkpt lat="44.10439" lon="3.0144">
        <ele>508.9</ele>
        <time>2021-03-06T14:44:25Z</time>
      </trkpt>
      <trkpt lat="44.10441" lon="3.01442">
        <ele>509.2</ele>
        <time>2021-03-06T14:44:27Z</time>
      </trkpt>
      <trkpt lat="44.10441" lon="3.01442">
        <ele>509.4</ele>
        <time>2021-03-06T14:44:28Z</time>
      </trkpt>
      <trkpt lat="44.10443" lon="3.01443">
        <ele>509.7</ele>
        <time>2021-03-06T14:44:30Z</time>
      </trkpt>
      <trkpt lat="44.10443" lon="3.01444">
        <ele>509.7</ele>
        <time>2021-03-06T14:44:31Z</time>
      </trkpt>
      <trkpt lat="44.10443" lon="3.01444">
        <ele>509.8</ele>
        <time>2021-03-06T14:44:32Z</time>
      </trkpt>
      <trkpt lat="44.10444" lon="3.01444">
        <ele>509.9</ele>
        <time>2021-03-06T14:44:34Z</time>
      </trkpt>
      <trkpt lat="44.10444" lon="3.01445">
        <ele>509.9</ele>
        <time>2021-03-06T14:44:35Z</time>
      </trkpt>
      <trkpt lat="44.10445" lon="3.01452">
        <ele>510.8</ele>
        <time>2021-03-06T14:44:58Z</time>
      </trkpt>
      <trkpt lat="44.10445" lon="3.01454">
        <ele>511</ele>
        <time>2021-03-06T14:44:59Z</time>
      </trkpt>
      <trkpt lat="44.10445" lon="3.01456">
        <ele>511.3</ele>
        <time>2021-03-06T14:45:00Z</time>
      </trkpt>
      <trkpt lat="44.10445" lon="3.01458">
        <ele>511.5</ele>
        <time>2021-03-06T14:45:02Z</time>
      </trkpt>
      <trkpt lat="44.10444" lon="3.01461">
        <ele>511.8</ele>
        <time>2021-03-06T14:45:04Z</time>
      </trkpt>
      <trkpt lat="44.10443" lon="3.01463">
        <ele>512.1</ele>
        <time>2021-03-06T14:45:05Z</time>
      </trkpt>
      <trkpt lat="44.10443" lon="3.01464">
        <ele>512.3</ele>
        <time>2021-03-06T14:45:06Z</time>
      </trkpt>
      <trkpt lat="44.10442" lon="3.01466">
        <ele>512.5</ele>
        <time>2021-03-06T14:45:07Z</time>
      </trkpt>
      <trkpt lat="44.10441" lon="3.01468">
        <ele>512.8</ele>
        <time>2021-03-06T14:45:09Z</time>
      </trkpt>
      <trkpt lat="44.1044" lon="3.01469">
        <ele>512.9</ele>
        <time>2021-03-06T14:45:10Z</time>
      </trkpt>
      <trkpt lat="44.1044" lon="3.0147">
        <ele>513.1</ele>
        <time>2021-03-06T14:45:11Z</time>
      </trkpt>
      <trkpt lat="44.10439" lon="3.01473">
        <ele>513.4</ele>
        <time>2021-03-06T14:45:13Z</time>
      </trkpt>
      <trkpt lat="44.10438" lon="3.01474">
        <ele>513.6</ele>
        <time>2021-03-06T14:45:14Z</time>
      </trkpt>
      <trkpt lat="44.10438" lon="3.01475">
        <ele>513.7</ele>
        <time>2021-03-06T14:45:15Z</time>
      </trkpt>
      <trkpt lat="44.10437" lon="3.01478">
        <ele>514</ele>
        <time>2021-03-06T14:45:17Z</time>
      </trkpt>
      <trkpt lat="44.10436" lon="3.01478">
        <ele>514.1</ele>
        <time>2021-03-06T14:45:18Z</time>
      </trkpt>
      <trkpt lat="44.10436" lon="3.0148">
        <ele>514.3</ele>
        <time>2021-03-06T14:45:19Z</time>
      </trkpt>
      <trkpt lat="44.10435" lon="3.01482">
        <ele>514.5</ele>
        <time>2021-03-06T14:45:21Z</time>
      </trkpt>
      <trkpt lat="44.10433" lon="3.01485">
        <ele>514.9</ele>
        <time>2021-03-06T14:45:23Z</time>
      </trkpt>
      <trkpt lat="44.10432" lon="3.01486">
        <ele>515</ele>
        <time>2021-03-06T14:45:24Z</time>
      </trkpt>
      <trkpt lat="44.10431" lon="3.01488">
        <ele>515.2</ele>
        <time>2021-03-06T14:45:26Z</time>
      </trkpt>
      <trkpt lat="44.1043" lon="3.01489">
        <ele>515.4</ele>
        <time>2021-03-06T14:45:27Z</time>
      </trkpt>
      <trkpt lat="44.10429" lon="3.0149">
        <ele>515.5</ele>
        <time>2021-03-06T14:45:29Z</time>
      </trkpt>
      <trkpt lat="44.10428" lon="3.01492">
        <ele>515.8</ele>
        <time>2021-03-06T14:45:31Z</time>
      </trkpt>
      <trkpt lat="44.10427" lon="3.01493">
        <ele>515.9</ele>
        <time>2021-03-06T14:45:32Z</time>
      </trkpt>
      <trkpt lat="44.10427" lon="3.01495">
        <ele>516.1</ele>
        <time>2021-03-06T14:45:34Z</time>
      </trkpt>
      <trkpt lat="44.10425" lon="3.01497">
        <ele>516.3</ele>
        <time>2021-03-06T14:45:35Z</time>
      </trkpt>
      <trkpt lat="44.10424" lon="3.01498">
        <ele>516.5</ele>
        <time>2021-03-06T14:45:37Z</time>
      </trkpt>
      <trkpt lat="44.10422" lon="3.01501">
        <ele>516.9</ele>
        <time>2021-03-06T14:45:38Z</time>
      </trkpt>
      <trkpt lat="44.10421" lon="3.01502">
        <ele>517</ele>
        <time>2021-03-06T14:45:39Z</time>
      </trkpt>
      <trkpt lat="44.1042" lon="3.01503">
        <ele>517.2</ele>
        <time>2021-03-06T14:45:40Z</time>
      </trkpt>
      <trkpt lat="44.10419" lon="3.01505">
        <ele>517.3</ele>
        <time>2021-03-06T14:45:41Z</time>
      </trkpt>
      <trkpt lat="44.10417" lon="3.01508">
        <ele>517.6</ele>
        <time>2021-03-06T14:45:43Z</time>
      </trkpt>
      <trkpt lat="44.10416" lon="3.01509">
        <ele>517.3</ele>
        <time>2021-03-06T14:45:44Z</time>
      </trkpt>
      <trkpt lat="44.10415" lon="3.01511">
        <ele>518.2</ele>
        <time>2021-03-06T14:45:46Z</time>
      </trkpt>
      <trkpt lat="44.10415" lon="3.01512">
        <ele>518.6</ele>
        <time>2021-03-06T14:45:47Z</time>
      </trkpt>
      <trkpt lat="44.10414" lon="3.01514">
        <ele>519</ele>
        <time>2021-03-06T14:45:48Z</time>
      </trkpt>
      <trkpt lat="44.10413" lon="3.01515">
        <ele>519.2</ele>
        <time>2021-03-06T14:45:50Z</time>
      </trkpt>
      <trkpt lat="44.10412" lon="3.01517">
        <ele>519.6</ele>
        <time>2021-03-06T14:45:52Z</time>
      </trkpt>
      <trkpt lat="44.10411" lon="3.01519">
        <ele>519.9</ele>
        <time>2021-03-06T14:45:53Z</time>
      </trkpt>
      <trkpt lat="44.10411" lon="3.01521">
        <ele>520.9</ele>
        <time>2021-03-06T14:45:55Z</time>
      </trkpt>
      <trkpt lat="44.1041" lon="3.01522">
        <ele>520.5</ele>
        <time>2021-03-06T14:45:56Z</time>
      </trkpt>
      <trkpt lat="44.10409" lon="3.01523">
        <ele>520.9</ele>
        <time>2021-03-06T14:45:58Z</time>
      </trkpt>
      <trkpt lat="44.10409" lon="3.01524">
        <ele>521.8</ele>
        <time>2021-03-06T14:45:59Z</time>
      </trkpt>
      <trkpt lat="44.10407" lon="3.01526">
        <ele>521.5</ele>
        <time>2021-03-06T14:46:00Z</time>
      </trkpt>
      <trkpt lat="44.10407" lon="3.01528">
        <ele>521.9</ele>
        <time>2021-03-06T14:46:01Z</time>
      </trkpt>
      <trkpt lat="44.10406" lon="3.01529">
        <ele>522.8</ele>
        <time>2021-03-06T14:46:02Z</time>
      </trkpt>
      <trkpt lat="44.10405" lon="3.01531">
        <ele>523.2</ele>
        <time>2021-03-06T14:46:03Z</time>
      </trkpt>
      <trkpt lat="44.10404" lon="3.01534">
        <ele>523.4</ele>
        <time>2021-03-06T14:46:05Z</time>
      </trkpt>
      <trkpt lat="44.10403" lon="3.01535">
        <ele>523.7</ele>
        <time>2021-03-06T14:46:07Z</time>
      </trkpt>
      <trkpt lat="44.10403" lon="3.01537">
        <ele>524.7</ele>
        <time>2021-03-06T14:46:08Z</time>
      </trkpt>
      <trkpt lat="44.10402" lon="3.01539">
        <ele>525</ele>
        <time>2021-03-06T14:46:09Z</time>
      </trkpt>
      <trkpt lat="44.10402" lon="3.01542">
        <ele>526</ele>
        <time>2021-03-06T14:46:10Z</time>
      </trkpt>
      <trkpt lat="44.10401" lon="3.01543">
        <ele>525.6</ele>
        <time>2021-03-06T14:46:11Z</time>
      </trkpt>
      <trkpt lat="44.104" lon="3.01545">
        <ele>525.8</ele>
        <time>2021-03-06T14:46:13Z</time>
      </trkpt>
      <trkpt lat="44.104" lon="3.01546">
        <ele>526</ele>
        <time>2021-03-06T14:46:14Z</time>
      </trkpt>
      <trkpt lat="44.10398" lon="3.01547">
        <ele>526.2</ele>
        <time>2021-03-06T14:46:16Z</time>
      </trkpt>
      <trkpt lat="44.10398" lon="3.01548">
        <ele>526.3</ele>
        <time>2021-03-06T14:46:17Z</time>
      </trkpt>
      <trkpt lat="44.10397" lon="3.0155">
        <ele>526.5</ele>
        <time>2021-03-06T14:46:19Z</time>
      </trkpt>
      <trkpt lat="44.10397" lon="3.01551">
        <ele>526.6</ele>
        <time>2021-03-06T14:46:20Z</time>
      </trkpt>
      <trkpt lat="44.10397" lon="3.01552">
        <ele>526.7</ele>
        <time>2021-03-06T14:46:22Z</time>
      </trkpt>
      <trkpt lat="44.10398" lon="3.01553">
        <ele>526.8</ele>
        <time>2021-03-06T14:46:23Z</time>
      </trkpt>
      <trkpt lat="44.10398" lon="3.01552">
        <ele>526.8</ele>
        <time>2021-03-06T14:46:24Z</time>
      </trkpt>
      <trkpt lat="44.10397" lon="3.01552">
        <ele>526.9</ele>
        <time>2021-03-06T14:46:26Z</time>
      </trkpt>
      <trkpt lat="44.10398" lon="3.01551">
        <ele>526.9</ele>
        <time>2021-03-06T14:46:27Z</time>
      </trkpt>
      <trkpt lat="44.10397" lon="3.01551">
        <ele>527</ele>
        <time>2021-03-06T14:46:28Z</time>
      </trkpt>
      <trkpt lat="44.10396" lon="3.0155">
        <ele>527.2</ele>
        <time>2021-03-06T14:46:30Z</time>
      </trkpt>
      <trkpt lat="44.10396" lon="3.01549">
        <ele>527.3</ele>
        <time>2021-03-06T14:46:31Z</time>
      </trkpt>
      <trkpt lat="44.10395" lon="3.01548">
        <ele>527.4</ele>
        <time>2021-03-06T14:46:32Z</time>
      </trkpt>
      <trkpt lat="44.10395" lon="3.01548">
        <ele>527.5</ele>
        <time>2021-03-06T14:46:33Z</time>
      </trkpt>
      <trkpt lat="44.10395" lon="3.01547">
        <ele>527.6</ele>
        <time>2021-03-06T14:46:34Z</time>
      </trkpt>
      <trkpt lat="44.10396" lon="3.01544">
        <ele>527.9</ele>
        <time>2021-03-06T14:46:36Z</time>
      </trkpt>
      <trkpt lat="44.10396" lon="3.01543">
        <ele>528</ele>
        <time>2021-03-06T14:46:37Z</time>
      </trkpt>
      <trkpt lat="44.10397" lon="3.01542">
        <ele>528.2</ele>
        <time>2021-03-06T14:46:38Z</time>
      </trkpt>
      <trkpt lat="44.10398" lon="3.01541">
        <ele>528.3</ele>
        <time>2021-03-06T14:46:40Z</time>
      </trkpt>
      <trkpt lat="44.10398" lon="3.01539">
        <ele>528.5</ele>
        <time>2021-03-06T14:46:41Z</time>
      </trkpt>
      <trkpt lat="44.10399" lon="3.01538">
        <ele>528.7</ele>
        <time>2021-03-06T14:46:42Z</time>
      </trkpt>
      <trkpt lat="44.104" lon="3.01537">
        <ele>529</ele>
        <time>2021-03-06T14:46:44Z</time>
      </trkpt>
      <trkpt lat="44.10402" lon="3.01534">
        <ele>529.3</ele>
        <time>2021-03-06T14:46:46Z</time>
      </trkpt>
      <trkpt lat="44.10403" lon="3.01533">
        <ele>529.5</ele>
        <time>2021-03-06T14:46:47Z</time>
      </trkpt>
      <trkpt lat="44.10404" lon="3.01533">
        <ele>529.6</ele>
        <time>2021-03-06T14:46:48Z</time>
      </trkpt>
      <trkpt lat="44.10405" lon="3.01532">
        <ele>529.8</ele>
        <time>2021-03-06T14:46:50Z</time>
      </trkpt>
      <trkpt lat="44.10405" lon="3.01532">
        <ele>529.9</ele>
        <time>2021-03-06T14:46:51Z</time>
      </trkpt>
      <trkpt lat="44.10406" lon="3.01531">
        <ele>530</ele>
        <time>2021-03-06T14:46:52Z</time>
      </trkpt>
      <trkpt lat="44.10407" lon="3.0153">
        <ele>530.2</ele>
        <time>2021-03-06T14:46:53Z</time>
      </trkpt>
      <trkpt lat="44.10408" lon="3.0153">
        <ele>530.3</ele>
        <time>2021-03-06T14:46:54Z</time>
      </trkpt>
      <trkpt lat="44.10409" lon="3.01529">
        <ele>530.6</ele>
        <time>2021-03-06T14:46:56Z</time>
      </trkpt>
      <trkpt lat="44.1041" lon="3.01528">
        <ele>530.8</ele>
        <time>2021-03-06T14:46:57Z</time>
      </trkpt>
      <trkpt lat="44.10412" lon="3.01527">
        <ele>531.1</ele>
        <time>2021-03-06T14:46:58Z</time>
      </trkpt>
      <trkpt lat="44.10413" lon="3.01527">
        <ele>531.2</ele>
        <time>2021-03-06T14:46:59Z</time>
      </trkpt>
      <trkpt lat="44.10414" lon="3.01527">
        <ele>531.4</ele>
        <time>2021-03-06T14:47:00Z</time>
      </trkpt>
      <trkpt lat="44.10415" lon="3.01526">
        <ele>531.6</ele>
        <time>2021-03-06T14:47:02Z</time>
      </trkpt>
      <trkpt lat="44.10416" lon="3.01526">
        <ele>531.8</ele>
        <time>2021-03-06T14:47:03Z</time>
      </trkpt>
      <trkpt lat="44.10418" lon="3.01525">
        <ele>532.1</ele>
        <time>2021-03-06T14:47:05Z</time>
      </trkpt>
      <trkpt lat="44.10421" lon="3.01524">
        <ele>532.6</ele>
        <time>2021-03-06T14:47:07Z</time>
      </trkpt>
      <trkpt lat="44.10422" lon="3.01523">
        <ele>532.7</ele>
        <time>2021-03-06T14:47:08Z</time>
      </trkpt>
      <trkpt lat="44.10423" lon="3.01523">
        <ele>532.8</ele>
        <time>2021-03-06T14:47:10Z</time>
      </trkpt>
      <trkpt lat="44.10424" lon="3.01522">
        <ele>533</ele>
        <time>2021-03-06T14:47:11Z</time>
      </trkpt>
      <trkpt lat="44.10425" lon="3.01522">
        <ele>533.1</ele>
        <time>2021-03-06T14:47:13Z</time>
      </trkpt>
      <trkpt lat="44.10425" lon="3.01521">
        <ele>533.3</ele>
        <time>2021-03-06T14:47:15Z</time>
      </trkpt>
      <trkpt lat="44.10426" lon="3.01521">
        <ele>533.4</ele>
        <time>2021-03-06T14:47:20Z</time>
      </trkpt>
      <trkpt lat="44.10427" lon="3.0152">
        <ele>533.6</ele>
        <time>2021-03-06T14:47:21Z</time>
      </trkpt>
      <trkpt lat="44.10428" lon="3.0152">
        <ele>533.7</ele>
        <time>2021-03-06T14:47:23Z</time>
      </trkpt>
      <trkpt lat="44.10429" lon="3.01519">
        <ele>533.8</ele>
        <time>2021-03-06T14:47:24Z</time>
      </trkpt>
      <trkpt lat="44.1043" lon="3.01519">
        <ele>534</ele>
        <time>2021-03-06T14:47:25Z</time>
      </trkpt>
      <trkpt lat="44.10431" lon="3.01519">
        <ele>534.2</ele>
        <time>2021-03-06T14:47:27Z</time>
      </trkpt>
      <trkpt lat="44.10433" lon="3.01519">
        <ele>534.5</ele>
        <time>2021-03-06T14:47:28Z</time>
      </trkpt>
      <trkpt lat="44.10436" lon="3.01519">
        <ele>534.9</ele>
        <time>2021-03-06T14:47:29Z</time>
      </trkpt>
      <trkpt lat="44.10437" lon="3.01519">
        <ele>535.1</ele>
        <time>2021-03-06T14:47:30Z</time>
      </trkpt>
      <trkpt lat="44.1044" lon="3.01518">
        <ele>535.6</ele>
        <time>2021-03-06T14:47:32Z</time>
      </trkpt>
      <trkpt lat="44.10442" lon="3.01517">
        <ele>535.8</ele>
        <time>2021-03-06T14:47:33Z</time>
      </trkpt>
      <trkpt lat="44.10445" lon="3.01517">
        <ele>536.2</ele>
        <time>2021-03-06T14:47:35Z</time>
      </trkpt>
      <trkpt lat="44.10446" lon="3.01517">
        <ele>536.4</ele>
        <time>2021-03-06T14:47:36Z</time>
      </trkpt>
      <trkpt lat="44.10449" lon="3.01517">
        <ele>536.9</ele>
        <time>2021-03-06T14:47:39Z</time>
      </trkpt>
      <trkpt lat="44.1045" lon="3.01517">
        <ele>536.9</ele>
        <time>2021-03-06T14:47:40Z</time>
      </trkpt>
      <trkpt lat="44.10451" lon="3.01517">
        <ele>537.2</ele>
        <time>2021-03-06T14:47:41Z</time>
      </trkpt>
      <trkpt lat="44.10452" lon="3.01516">
        <ele>537.4</ele>
        <time>2021-03-06T14:47:42Z</time>
      </trkpt>
      <trkpt lat="44.10454" lon="3.01516">
        <ele>537.6</ele>
        <time>2021-03-06T14:47:44Z</time>
      </trkpt>
      <trkpt lat="44.10455" lon="3.01516">
        <ele>537.8</ele>
        <time>2021-03-06T14:47:46Z</time>
      </trkpt>
      <trkpt lat="44.10457" lon="3.01515">
        <ele>538</ele>
        <time>2021-03-06T14:47:47Z</time>
      </trkpt>
      <trkpt lat="44.10457" lon="3.01515">
        <ele>538.1</ele>
        <time>2021-03-06T14:47:48Z</time>
      </trkpt>
      <trkpt lat="44.10459" lon="3.01515">
        <ele>538.4</ele>
        <time>2021-03-06T14:47:50Z</time>
      </trkpt>
      <trkpt lat="44.1046" lon="3.01514">
        <ele>538.5</ele>
        <time>2021-03-06T14:47:51Z</time>
      </trkpt>
      <trkpt lat="44.10461" lon="3.01513">
        <ele>538.6</ele>
        <time>2021-03-06T14:47:52Z</time>
      </trkpt>
      <trkpt lat="44.10462" lon="3.01513">
        <ele>538.9</ele>
        <time>2021-03-06T14:47:53Z</time>
      </trkpt>
      <trkpt lat="44.10464" lon="3.01513">
        <ele>539</ele>
        <time>2021-03-06T14:47:55Z</time>
      </trkpt>
      <trkpt lat="44.10465" lon="3.01513">
        <ele>539.3</ele>
        <time>2021-03-06T14:47:57Z</time>
      </trkpt>
      <trkpt lat="44.10467" lon="3.01512">
        <ele>539.6</ele>
        <time>2021-03-06T14:47:59Z</time>
      </trkpt>
      <trkpt lat="44.10469" lon="3.01512">
        <ele>539.8</ele>
        <time>2021-03-06T14:48:00Z</time>
      </trkpt>
      <trkpt lat="44.1047" lon="3.01512">
        <ele>540</ele>
        <time>2021-03-06T14:48:01Z</time>
      </trkpt>
      <trkpt lat="44.10472" lon="3.01513">
        <ele>540.2</ele>
        <time>2021-03-06T14:48:02Z</time>
      </trkpt>
      <trkpt lat="44.10473" lon="3.01513">
        <ele>540.4</ele>
        <time>2021-03-06T14:48:04Z</time>
      </trkpt>
      <trkpt lat="44.10474" lon="3.01513">
        <ele>540.5</ele>
        <time>2021-03-06T14:48:05Z</time>
      </trkpt>
      <trkpt lat="44.10475" lon="3.01513">
        <ele>540.6</ele>
        <time>2021-03-06T14:48:06Z</time>
      </trkpt>
      <trkpt lat="44.10476" lon="3.01513">
        <ele>540.8</ele>
        <time>2021-03-06T14:48:07Z</time>
      </trkpt>
      <trkpt lat="44.10477" lon="3.01513">
        <ele>541</ele>
        <time>2021-03-06T14:48:09Z</time>
      </trkpt>
      <trkpt lat="44.10478" lon="3.01513">
        <ele>541.1</ele>
        <time>2021-03-06T14:48:10Z</time>
      </trkpt>
      <trkpt lat="44.1048" lon="3.01514">
        <ele>541.3</ele>
        <time>2021-03-06T14:48:12Z</time>
      </trkpt>
      <trkpt lat="44.10481" lon="3.01514">
        <ele>541.5</ele>
        <time>2021-03-06T14:48:13Z</time>
      </trkpt>
      <trkpt lat="44.10482" lon="3.01515">
        <ele>541.6</ele>
        <time>2021-03-06T14:48:14Z</time>
      </trkpt>
      <trkpt lat="44.10483" lon="3.01515">
        <ele>541.8</ele>
        <time>2021-03-06T14:48:16Z</time>
      </trkpt>
      <trkpt lat="44.10485" lon="3.01516">
        <ele>542</ele>
        <time>2021-03-06T14:48:17Z</time>
      </trkpt>
      <trkpt lat="44.10486" lon="3.01516">
        <ele>542.2</ele>
        <time>2021-03-06T14:48:18Z</time>
      </trkpt>
      <trkpt lat="44.10487" lon="3.01516">
        <ele>542.3</ele>
        <time>2021-03-06T14:48:19Z</time>
      </trkpt>
      <trkpt lat="44.10488" lon="3.01516">
        <ele>542.4</ele>
        <time>2021-03-06T14:48:21Z</time>
      </trkpt>
      <trkpt lat="44.10488" lon="3.01515">
        <ele>542.5</ele>
        <time>2021-03-06T14:48:22Z</time>
      </trkpt>
      <trkpt lat="44.10489" lon="3.01515">
        <ele>542.6</ele>
        <time>2021-03-06T14:48:23Z</time>
      </trkpt>
      <trkpt lat="44.1049" lon="3.01515">
        <ele>542.7</ele>
        <time>2021-03-06T14:48:24Z</time>
      </trkpt>
      <trkpt lat="44.10491" lon="3.01515">
        <ele>542.9</ele>
        <time>2021-03-06T14:48:26Z</time>
      </trkpt>
      <trkpt lat="44.10492" lon="3.01515">
        <ele>543</ele>
        <time>2021-03-06T14:48:27Z</time>
      </trkpt>
      <trkpt lat="44.10493" lon="3.01515">
        <ele>543.1</ele>
        <time>2021-03-06T14:48:28Z</time>
      </trkpt>
      <trkpt lat="44.10494" lon="3.01515">
        <ele>543.3</ele>
        <time>2021-03-06T14:48:29Z</time>
      </trkpt>
      <trkpt lat="44.10495" lon="3.01516">
        <ele>543.4</ele>
        <time>2021-03-06T14:48:30Z</time>
      </trkpt>
      <trkpt lat="44.10498" lon="3.01517">
        <ele>543.8</ele>
        <time>2021-03-06T14:48:32Z</time>
      </trkpt>
      <trkpt lat="44.10499" lon="3.01516">
        <ele>543.9</ele>
        <time>2021-03-06T14:48:33Z</time>
      </trkpt>
      <trkpt lat="44.105" lon="3.01516">
        <ele>544.1</ele>
        <time>2021-03-06T14:48:34Z</time>
      </trkpt>
      <trkpt lat="44.10502" lon="3.01516">
        <ele>544.4</ele>
        <time>2021-03-06T14:48:36Z</time>
      </trkpt>
      <trkpt lat="44.10504" lon="3.01517">
        <ele>544.6</ele>
        <time>2021-03-06T14:48:37Z</time>
      </trkpt>
      <trkpt lat="44.10505" lon="3.01517">
        <ele>544.7</ele>
        <time>2021-03-06T14:48:39Z</time>
      </trkpt>
      <trkpt lat="44.10506" lon="3.01518">
        <ele>544.9</ele>
        <time>2021-03-06T14:48:40Z</time>
      </trkpt>
      <trkpt lat="44.10507" lon="3.01518">
        <ele>545</ele>
        <time>2021-03-06T14:48:41Z</time>
      </trkpt>
      <trkpt lat="44.10508" lon="3.01519">
        <ele>545.2</ele>
        <time>2021-03-06T14:48:42Z</time>
      </trkpt>
      <trkpt lat="44.10509" lon="3.01519">
        <ele>545.3</ele>
        <time>2021-03-06T14:48:44Z</time>
      </trkpt>
      <trkpt lat="44.1051" lon="3.01519">
        <ele>545.5</ele>
        <time>2021-03-06T14:49:21Z</time>
      </trkpt>
      <trkpt lat="44.10511" lon="3.0152">
        <ele>545.7</ele>
        <time>2021-03-06T14:49:22Z</time>
      </trkpt>
      <trkpt lat="44.10512" lon="3.0152">
        <ele>545.8</ele>
        <time>2021-03-06T14:49:24Z</time>
      </trkpt>
      <trkpt lat="44.10513" lon="3.01521">
        <ele>546</ele>
        <time>2021-03-06T14:49:25Z</time>
      </trkpt>
      <trkpt lat="44.10514" lon="3.01521">
        <ele>546.1</ele>
        <time>2021-03-06T14:49:26Z</time>
      </trkpt>
      <trkpt lat="44.10516" lon="3.01521">
        <ele>546.3</ele>
        <time>2021-03-06T14:49:28Z</time>
      </trkpt>
      <trkpt lat="44.10518" lon="3.01521">
        <ele>546.6</ele>
        <time>2021-03-06T14:49:29Z</time>
      </trkpt>
      <trkpt lat="44.1052" lon="3.0152">
        <ele>546.9</ele>
        <time>2021-03-06T14:49:31Z</time>
      </trkpt>
      <trkpt lat="44.10521" lon="3.01519">
        <ele>547</ele>
        <time>2021-03-06T14:49:32Z</time>
      </trkpt>
      <trkpt lat="44.10521" lon="3.01519">
        <ele>547.1</ele>
        <time>2021-03-06T14:49:33Z</time>
      </trkpt>
      <trkpt lat="44.10523" lon="3.01519">
        <ele>547.3</ele>
        <time>2021-03-06T14:49:34Z</time>
      </trkpt>
      <trkpt lat="44.10524" lon="3.01518">
        <ele>547.4</ele>
        <time>2021-03-06T14:49:35Z</time>
      </trkpt>
      <trkpt lat="44.10525" lon="3.01518">
        <ele>547.6</ele>
        <time>2021-03-06T14:49:36Z</time>
      </trkpt>
      <trkpt lat="44.10527" lon="3.01518">
        <ele>547.7</ele>
        <time>2021-03-06T14:49:37Z</time>
      </trkpt>
      <trkpt lat="44.10528" lon="3.01518">
        <ele>547.9</ele>
        <time>2021-03-06T14:49:38Z</time>
      </trkpt>
      <trkpt lat="44.10529" lon="3.01518">
        <ele>547.9</ele>
        <time>2021-03-06T14:49:40Z</time>
      </trkpt>
      <trkpt lat="44.1053" lon="3.01518">
        <ele>548.1</ele>
        <time>2021-03-06T14:49:41Z</time>
      </trkpt>
      <trkpt lat="44.10532" lon="3.01518">
        <ele>548.4</ele>
        <time>2021-03-06T14:49:43Z</time>
      </trkpt>
      <trkpt lat="44.10533" lon="3.01518">
        <ele>548.5</ele>
        <time>2021-03-06T14:49:44Z</time>
      </trkpt>
      <trkpt lat="44.10534" lon="3.01518">
        <ele>548.6</ele>
        <time>2021-03-06T14:49:46Z</time>
      </trkpt>
      <trkpt lat="44.10535" lon="3.01519">
        <ele>548.7</ele>
        <time>2021-03-06T14:49:47Z</time>
      </trkpt>
      <trkpt lat="44.10536" lon="3.01519">
        <ele>548.9</ele>
        <time>2021-03-06T14:49:49Z</time>
      </trkpt>
      <trkpt lat="44.10537" lon="3.0152">
        <ele>549</ele>
        <time>2021-03-06T14:49:50Z</time>
      </trkpt>
      <trkpt lat="44.10539" lon="3.0152">
        <ele>549.1</ele>
        <time>2021-03-06T14:49:51Z</time>
      </trkpt>
      <trkpt lat="44.1054" lon="3.01521">
        <ele>549.3</ele>
        <time>2021-03-06T14:49:53Z</time>
      </trkpt>
      <trkpt lat="44.10541" lon="3.01523">
        <ele>549.5</ele>
        <time>2021-03-06T14:49:54Z</time>
      </trkpt>
      <trkpt lat="44.10545" lon="3.01526">
        <ele>550</ele>
        <time>2021-03-06T14:49:56Z</time>
      </trkpt>
      <trkpt lat="44.10546" lon="3.01527">
        <ele>550.1</ele>
        <time>2021-03-06T14:49:57Z</time>
      </trkpt>
      <trkpt lat="44.10548" lon="3.01527">
        <ele>550.3</ele>
        <time>2021-03-06T14:49:58Z</time>
      </trkpt>
      <trkpt lat="44.1055" lon="3.01529">
        <ele>550.5</ele>
        <time>2021-03-06T14:50:00Z</time>
      </trkpt>
      <trkpt lat="44.1055" lon="3.01529">
        <ele>550.6</ele>
        <time>2021-03-06T14:50:01Z</time>
      </trkpt>
      <trkpt lat="44.10551" lon="3.0153">
        <ele>550.7</ele>
        <time>2021-03-06T14:50:02Z</time>
      </trkpt>
      <trkpt lat="44.10553" lon="3.0153">
        <ele>550.9</ele>
        <time>2021-03-06T14:50:03Z</time>
      </trkpt>
      <trkpt lat="44.10554" lon="3.01531">
        <ele>551</ele>
        <time>2021-03-06T14:50:05Z</time>
      </trkpt>
      <trkpt lat="44.10555" lon="3.01532">
        <ele>551.1</ele>
        <time>2021-03-06T14:50:06Z</time>
      </trkpt>
      <trkpt lat="44.10555" lon="3.01532">
        <ele>551.2</ele>
        <time>2021-03-06T14:50:08Z</time>
      </trkpt>
      <trkpt lat="44.10557" lon="3.01532">
        <ele>551.3</ele>
        <time>2021-03-06T14:50:10Z</time>
      </trkpt>
      <trkpt lat="44.10558" lon="3.01532">
        <ele>551.5</ele>
        <time>2021-03-06T14:50:11Z</time>
      </trkpt>
      <trkpt lat="44.10559" lon="3.01532">
        <ele>551.6</ele>
        <time>2021-03-06T14:50:12Z</time>
      </trkpt>
      <trkpt lat="44.10561" lon="3.01532">
        <ele>551.7</ele>
        <time>2021-03-06T14:50:13Z</time>
      </trkpt>
      <trkpt lat="44.10563" lon="3.01533">
        <ele>552</ele>
        <time>2021-03-06T14:50:15Z</time>
      </trkpt>
      <trkpt lat="44.10565" lon="3.01533">
        <ele>552.2</ele>
        <time>2021-03-06T14:50:17Z</time>
      </trkpt>
      <trkpt lat="44.10568" lon="3.01534">
        <ele>552.5</ele>
        <time>2021-03-06T14:50:18Z</time>
      </trkpt>
      <trkpt lat="44.10569" lon="3.01534">
        <ele>552.7</ele>
        <time>2021-03-06T14:50:20Z</time>
      </trkpt>
      <trkpt lat="44.10572" lon="3.01535">
        <ele>553</ele>
        <time>2021-03-06T14:50:21Z</time>
      </trkpt>
      <trkpt lat="44.10575" lon="3.01536">
        <ele>553.3</ele>
        <time>2021-03-06T14:50:23Z</time>
      </trkpt>
      <trkpt lat="44.10576" lon="3.01536">
        <ele>553.4</ele>
        <time>2021-03-06T14:50:24Z</time>
      </trkpt>
      <trkpt lat="44.10578" lon="3.01537">
        <ele>553.5</ele>
        <time>2021-03-06T14:50:25Z</time>
      </trkpt>
      <trkpt lat="44.10579" lon="3.01538">
        <ele>553.7</ele>
        <time>2021-03-06T14:50:26Z</time>
      </trkpt>
      <trkpt lat="44.10582" lon="3.0154">
        <ele>554</ele>
        <time>2021-03-06T14:50:28Z</time>
      </trkpt>
      <trkpt lat="44.10583" lon="3.0154">
        <ele>554.1</ele>
        <time>2021-03-06T14:50:29Z</time>
      </trkpt>
      <trkpt lat="44.10585" lon="3.01541">
        <ele>554.3</ele>
        <time>2021-03-06T14:50:30Z</time>
      </trkpt>
      <trkpt lat="44.10586" lon="3.01542">
        <ele>554.4</ele>
        <time>2021-03-06T14:50:31Z</time>
      </trkpt>
      <trkpt lat="44.1059" lon="3.01544">
        <ele>554.8</ele>
        <time>2021-03-06T14:50:33Z</time>
      </trkpt>
      <trkpt lat="44.10591" lon="3.01545">
        <ele>554.9</ele>
        <time>2021-03-06T14:50:34Z</time>
      </trkpt>
      <trkpt lat="44.10593" lon="3.01547">
        <ele>555.1</ele>
        <time>2021-03-06T14:50:35Z</time>
      </trkpt>
      <trkpt lat="44.10595" lon="3.01548">
        <ele>555.3</ele>
        <time>2021-03-06T14:50:37Z</time>
      </trkpt>
      <trkpt lat="44.10597" lon="3.0155">
        <ele>555.6</ele>
        <time>2021-03-06T14:50:38Z</time>
      </trkpt>
      <trkpt lat="44.10598" lon="3.0155">
        <ele>555.6</ele>
        <time>2021-03-06T14:50:39Z</time>
      </trkpt>
      <trkpt lat="44.10601" lon="3.01553">
        <ele>556</ele>
        <time>2021-03-06T14:50:41Z</time>
      </trkpt>
      <trkpt lat="44.10602" lon="3.01554">
        <ele>556.1</ele>
        <time>2021-03-06T14:50:42Z</time>
      </trkpt>
      <trkpt lat="44.10604" lon="3.01557">
        <ele>556.4</ele>
        <time>2021-03-06T14:50:44Z</time>
      </trkpt>
      <trkpt lat="44.10606" lon="3.01559">
        <ele>556.7</ele>
        <time>2021-03-06T14:50:45Z</time>
      </trkpt>
      <trkpt lat="44.10608" lon="3.0156">
        <ele>556.9</ele>
        <time>2021-03-06T14:50:47Z</time>
      </trkpt>
      <trkpt lat="44.1061" lon="3.01561">
        <ele>557.1</ele>
        <time>2021-03-06T14:50:49Z</time>
      </trkpt>
      <trkpt lat="44.10611" lon="3.01562">
        <ele>557.2</ele>
        <time>2021-03-06T14:50:50Z</time>
      </trkpt>
      <trkpt lat="44.10613" lon="3.01564">
        <ele>557.5</ele>
        <time>2021-03-06T14:50:51Z</time>
      </trkpt>
      <trkpt lat="44.10614" lon="3.01565">
        <ele>557.6</ele>
        <time>2021-03-06T14:50:52Z</time>
      </trkpt>
      <trkpt lat="44.10616" lon="3.01566">
        <ele>557.8</ele>
        <time>2021-03-06T14:50:54Z</time>
      </trkpt>
      <trkpt lat="44.10618" lon="3.01567">
        <ele>558</ele>
        <time>2021-03-06T14:50:56Z</time>
      </trkpt>
      <trkpt lat="44.10621" lon="3.01569">
        <ele>558.3</ele>
        <time>2021-03-06T14:50:57Z</time>
      </trkpt>
      <trkpt lat="44.10622" lon="3.01569">
        <ele>558.4</ele>
        <time>2021-03-06T14:50:58Z</time>
      </trkpt>
      <trkpt lat="44.10624" lon="3.0157">
        <ele>558.7</ele>
        <time>2021-03-06T14:50:59Z</time>
      </trkpt>
      <trkpt lat="44.10625" lon="3.01571">
        <ele>558.8</ele>
        <time>2021-03-06T14:51:01Z</time>
      </trkpt>
      <trkpt lat="44.10626" lon="3.01571">
        <ele>558.9</ele>
        <time>2021-03-06T14:51:02Z</time>
      </trkpt>
      <trkpt lat="44.10628" lon="3.01572">
        <ele>559.1</ele>
        <time>2021-03-06T14:51:04Z</time>
      </trkpt>
      <trkpt lat="44.10629" lon="3.01573">
        <ele>559.2</ele>
        <time>2021-03-06T14:51:05Z</time>
      </trkpt>
      <trkpt lat="44.10631" lon="3.01574">
        <ele>559.4</ele>
        <time>2021-03-06T14:51:07Z</time>
      </trkpt>
      <trkpt lat="44.10633" lon="3.01575">
        <ele>559.7</ele>
        <time>2021-03-06T14:51:08Z</time>
      </trkpt>
      <trkpt lat="44.10634" lon="3.01576">
        <ele>559.8</ele>
        <time>2021-03-06T14:51:10Z</time>
      </trkpt>
      <trkpt lat="44.10636" lon="3.01578">
        <ele>560.1</ele>
        <time>2021-03-06T14:51:11Z</time>
      </trkpt>
      <trkpt lat="44.10639" lon="3.0158">
        <ele>560.4</ele>
        <time>2021-03-06T14:51:13Z</time>
      </trkpt>
      <trkpt lat="44.10639" lon="3.01581">
        <ele>560.5</ele>
        <time>2021-03-06T14:51:14Z</time>
      </trkpt>
      <trkpt lat="44.10641" lon="3.01583">
        <ele>560.7</ele>
        <time>2021-03-06T14:51:15Z</time>
      </trkpt>
      <trkpt lat="44.10642" lon="3.01585">
        <ele>560.9</ele>
        <time>2021-03-06T14:51:17Z</time>
      </trkpt>
      <trkpt lat="44.10644" lon="3.01586">
        <ele>561.1</ele>
        <time>2021-03-06T14:51:18Z</time>
      </trkpt>
      <trkpt lat="44.10645" lon="3.01588">
        <ele>561.3</ele>
        <time>2021-03-06T14:51:19Z</time>
      </trkpt>
      <trkpt lat="44.10646" lon="3.0159">
        <ele>561.5</ele>
        <time>2021-03-06T14:51:21Z</time>
      </trkpt>
      <trkpt lat="44.10647" lon="3.01591">
        <ele>561.6</ele>
        <time>2021-03-06T14:51:22Z</time>
      </trkpt>
      <trkpt lat="44.10649" lon="3.01592">
        <ele>561.8</ele>
        <time>2021-03-06T14:51:23Z</time>
      </trkpt>
      <trkpt lat="44.1065" lon="3.01593">
        <ele>561.9</ele>
        <time>2021-03-06T14:51:25Z</time>
      </trkpt>
      <trkpt lat="44.10651" lon="3.01593">
        <ele>562.1</ele>
        <time>2021-03-06T14:51:26Z</time>
      </trkpt>
      <trkpt lat="44.10652" lon="3.01594">
        <ele>562.2</ele>
        <time>2021-03-06T14:51:27Z</time>
      </trkpt>
      <trkpt lat="44.10653" lon="3.01594">
        <ele>562.3</ele>
        <time>2021-03-06T14:51:28Z</time>
      </trkpt>
      <trkpt lat="44.10656" lon="3.01595">
        <ele>562.6</ele>
        <time>2021-03-06T14:51:30Z</time>
      </trkpt>
      <trkpt lat="44.10656" lon="3.01596">
        <ele>562.7</ele>
        <time>2021-03-06T14:51:31Z</time>
      </trkpt>
      <trkpt lat="44.10657" lon="3.01597">
        <ele>562.8</ele>
        <time>2021-03-06T14:51:32Z</time>
      </trkpt>
      <trkpt lat="44.10658" lon="3.01597">
        <ele>562.9</ele>
        <time>2021-03-06T14:51:33Z</time>
      </trkpt>
      <trkpt lat="44.1066" lon="3.01599">
        <ele>563.1</ele>
        <time>2021-03-06T14:51:34Z</time>
      </trkpt>
      <trkpt lat="44.10661" lon="3.016">
        <ele>563.3</ele>
        <time>2021-03-06T14:51:36Z</time>
      </trkpt>
      <trkpt lat="44.10662" lon="3.01602">
        <ele>563.4</ele>
        <time>2021-03-06T14:51:37Z</time>
      </trkpt>
      <trkpt lat="44.10663" lon="3.01603">
        <ele>563.6</ele>
        <time>2021-03-06T14:51:38Z</time>
      </trkpt>
      <trkpt lat="44.10665" lon="3.01605">
        <ele>563.9</ele>
        <time>2021-03-06T14:51:40Z</time>
      </trkpt>
      <trkpt lat="44.10667" lon="3.01607">
        <ele>564.1</ele>
        <time>2021-03-06T14:51:42Z</time>
      </trkpt>
      <trkpt lat="44.10669" lon="3.01608">
        <ele>564.4</ele>
        <time>2021-03-06T14:51:44Z</time>
      </trkpt>
      <trkpt lat="44.1067" lon="3.01608">
        <ele>564.5</ele>
        <time>2021-03-06T14:51:45Z</time>
      </trkpt>
      <trkpt lat="44.10671" lon="3.01608">
        <ele>564.6</ele>
        <time>2021-03-06T14:51:46Z</time>
      </trkpt>
      <trkpt lat="44.10672" lon="3.01609">
        <ele>564.8</ele>
        <time>2021-03-06T14:51:48Z</time>
      </trkpt>
      <trkpt lat="44.10673" lon="3.01609">
        <ele>564.9</ele>
        <time>2021-03-06T14:51:49Z</time>
      </trkpt>
      <trkpt lat="44.10674" lon="3.0161">
        <ele>565</ele>
        <time>2021-03-06T14:51:50Z</time>
      </trkpt>
      <trkpt lat="44.10674" lon="3.0161">
        <ele>564.8</ele>
        <time>2021-03-06T14:51:51Z</time>
      </trkpt>
      <trkpt lat="44.10674" lon="3.01611">
        <ele>564.6</ele>
        <time>2021-03-06T14:51:53Z</time>
      </trkpt>
      <trkpt lat="44.10674" lon="3.01611">
        <ele>564.4</ele>
        <time>2021-03-06T14:51:54Z</time>
      </trkpt>
      <trkpt lat="44.10674" lon="3.01611">
        <ele>564.2</ele>
        <time>2021-03-06T14:51:55Z</time>
      </trkpt>
      <trkpt lat="44.10673" lon="3.01611">
        <ele>563.9</ele>
        <time>2021-03-06T14:51:57Z</time>
      </trkpt>
      <trkpt lat="44.10673" lon="3.01612">
        <ele>563.7</ele>
        <time>2021-03-06T14:51:59Z</time>
      </trkpt>
      <trkpt lat="44.10673" lon="3.01612">
        <ele>563.5</ele>
        <time>2021-03-06T14:52:00Z</time>
      </trkpt>
      <trkpt lat="44.10673" lon="3.01612">
        <ele>563.3</ele>
        <time>2021-03-06T14:52:01Z</time>
      </trkpt>
      <trkpt lat="44.10669" lon="3.01611">
        <ele>562.3</ele>
        <time>2021-03-06T14:52:11Z</time>
      </trkpt>
      <trkpt lat="44.10668" lon="3.01611">
        <ele>562.1</ele>
        <time>2021-03-06T14:52:12Z</time>
      </trkpt>
      <trkpt lat="44.10666" lon="3.0161">
        <ele>561.5</ele>
        <time>2021-03-06T14:52:13Z</time>
      </trkpt>
      <trkpt lat="44.10664" lon="3.0161">
        <ele>561.3</ele>
        <time>2021-03-06T14:52:14Z</time>
      </trkpt>
      <trkpt lat="44.10662" lon="3.0161">
        <ele>560.9</ele>
        <time>2021-03-06T14:52:16Z</time>
      </trkpt>
      <trkpt lat="44.10661" lon="3.0161">
        <ele>560.7</ele>
        <time>2021-03-06T14:52:18Z</time>
      </trkpt>
      <trkpt lat="44.10659" lon="3.0161">
        <ele>560.3</ele>
        <time>2021-03-06T14:52:19Z</time>
      </trkpt>
      <trkpt lat="44.10658" lon="3.01611">
        <ele>560.1</ele>
        <time>2021-03-06T14:52:20Z</time>
      </trkpt>
      <trkpt lat="44.10656" lon="3.01611">
        <ele>559.7</ele>
        <time>2021-03-06T14:52:21Z</time>
      </trkpt>
      <trkpt lat="44.10655" lon="3.01612">
        <ele>559.5</ele>
        <time>2021-03-06T14:52:22Z</time>
      </trkpt>
      <trkpt lat="44.10654" lon="3.01613">
        <ele>559.2</ele>
        <time>2021-03-06T14:52:23Z</time>
      </trkpt>
      <trkpt lat="44.10653" lon="3.01614">
        <ele>559.5</ele>
        <time>2021-03-06T14:52:25Z</time>
      </trkpt>
      <trkpt lat="44.10652" lon="3.01614">
        <ele>559.3</ele>
        <time>2021-03-06T14:52:27Z</time>
      </trkpt>
      <trkpt lat="44.10651" lon="3.01614">
        <ele>559.1</ele>
        <time>2021-03-06T14:52:28Z</time>
      </trkpt>
      <trkpt lat="44.1065" lon="3.01613">
        <ele>558.3</ele>
        <time>2021-03-06T14:52:29Z</time>
      </trkpt>
      <trkpt lat="44.1065" lon="3.01612">
        <ele>558.1</ele>
        <time>2021-03-06T14:52:31Z</time>
      </trkpt>
      <trkpt lat="44.1065" lon="3.01612">
        <ele>557.9</ele>
        <time>2021-03-06T14:52:32Z</time>
      </trkpt>
      <trkpt lat="44.10649" lon="3.01612">
        <ele>557.7</ele>
        <time>2021-03-06T14:52:33Z</time>
      </trkpt>
      <trkpt lat="44.10648" lon="3.01612">
        <ele>557.4</ele>
        <time>2021-03-06T14:52:34Z</time>
      </trkpt>
      <trkpt lat="44.10646" lon="3.01611">
        <ele>557.2</ele>
        <time>2021-03-06T14:52:35Z</time>
      </trkpt>
      <trkpt lat="44.10645" lon="3.0161">
        <ele>557</ele>
        <time>2021-03-06T14:52:37Z</time>
      </trkpt>
      <trkpt lat="44.10643" lon="3.01609">
        <ele>556.7</ele>
        <time>2021-03-06T14:52:38Z</time>
      </trkpt>
      <trkpt lat="44.10641" lon="3.01609">
        <ele>555.9</ele>
        <time>2021-03-06T14:52:40Z</time>
      </trkpt>
      <trkpt lat="44.10637" lon="3.01608">
        <ele>555.7</ele>
        <time>2021-03-06T14:52:41Z</time>
      </trkpt>
      <trkpt lat="44.10636" lon="3.01608">
        <ele>555.5</ele>
        <time>2021-03-06T14:52:42Z</time>
      </trkpt>
      <trkpt lat="44.10633" lon="3.01608">
        <ele>555.4</ele>
        <time>2021-03-06T14:52:44Z</time>
      </trkpt>
      <trkpt lat="44.10632" lon="3.01608">
        <ele>555.2</ele>
        <time>2021-03-06T14:52:45Z</time>
      </trkpt>
      <trkpt lat="44.10629" lon="3.01608">
        <ele>555</ele>
        <time>2021-03-06T14:52:46Z</time>
      </trkpt>
      <trkpt lat="44.10629" lon="3.01608">
        <ele>554.9</ele>
        <time>2021-03-06T14:52:47Z</time>
      </trkpt>
      <trkpt lat="44.10625" lon="3.01607">
        <ele>554.8</ele>
        <time>2021-03-06T14:52:49Z</time>
      </trkpt>
      <trkpt lat="44.10624" lon="3.01607">
        <ele>554.6</ele>
        <time>2021-03-06T14:52:50Z</time>
      </trkpt>
      <trkpt lat="44.10623" lon="3.01607">
        <ele>554.6</ele>
        <time>2021-03-06T14:52:51Z</time>
      </trkpt>
      <trkpt lat="44.1062" lon="3.01606">
        <ele>554.6</ele>
        <time>2021-03-06T14:52:53Z</time>
      </trkpt>
      <trkpt lat="44.10617" lon="3.01605">
        <ele>554.3</ele>
        <time>2021-03-06T14:52:54Z</time>
      </trkpt>
      <trkpt lat="44.10616" lon="3.01605">
        <ele>553.5</ele>
        <time>2021-03-06T14:52:55Z</time>
      </trkpt>
      <trkpt lat="44.1061" lon="3.01603">
        <ele>553.6</ele>
        <time>2021-03-06T14:52:57Z</time>
      </trkpt>
      <trkpt lat="44.10608" lon="3.01602">
        <ele>553.4</ele>
        <time>2021-03-06T14:52:58Z</time>
      </trkpt>
      <trkpt lat="44.10606" lon="3.01602">
        <ele>553.3</ele>
        <time>2021-03-06T14:52:59Z</time>
      </trkpt>
      <trkpt lat="44.106" lon="3.01602">
        <ele>553.5</ele>
        <time>2021-03-06T14:53:01Z</time>
      </trkpt>
      <trkpt lat="44.10595" lon="3.01601">
        <ele>553.7</ele>
        <time>2021-03-06T14:53:02Z</time>
      </trkpt>
      <trkpt lat="44.10591" lon="3.016">
        <ele>552.4</ele>
        <time>2021-03-06T14:53:03Z</time>
      </trkpt>
      <trkpt lat="44.10588" lon="3.016">
        <ele>552.4</ele>
        <time>2021-03-06T14:53:04Z</time>
      </trkpt>
      <trkpt lat="44.10584" lon="3.01601">
        <ele>553.6</ele>
        <time>2021-03-06T14:53:06Z</time>
      </trkpt>
      <trkpt lat="44.1058" lon="3.01601">
        <ele>553.6</ele>
        <time>2021-03-06T14:53:07Z</time>
      </trkpt>
      <trkpt lat="44.10575" lon="3.01601">
        <ele>553.7</ele>
        <time>2021-03-06T14:53:08Z</time>
      </trkpt>
      <trkpt lat="44.10571" lon="3.01602">
        <ele>553.6</ele>
        <time>2021-03-06T14:53:10Z</time>
      </trkpt>
      <trkpt lat="44.10567" lon="3.01602">
        <ele>553.6</ele>
        <time>2021-03-06T14:53:11Z</time>
      </trkpt>
      <trkpt lat="44.10564" lon="3.01602">
        <ele>553.5</ele>
        <time>2021-03-06T14:53:12Z</time>
      </trkpt>
      <trkpt lat="44.10561" lon="3.01602">
        <ele>553.3</ele>
        <time>2021-03-06T14:53:13Z</time>
      </trkpt>
      <trkpt lat="44.10558" lon="3.01602">
        <ele>553.2</ele>
        <time>2021-03-06T14:53:14Z</time>
      </trkpt>
      <trkpt lat="44.10555" lon="3.01603">
        <ele>553</ele>
        <time>2021-03-06T14:53:15Z</time>
      </trkpt>
      <trkpt lat="44.10552" lon="3.01604">
        <ele>552.8</ele>
        <time>2021-03-06T14:53:16Z</time>
      </trkpt>
      <trkpt lat="44.10548" lon="3.01604">
        <ele>552.6</ele>
        <time>2021-03-06T14:53:18Z</time>
      </trkpt>
      <trkpt lat="44.10544" lon="3.01605">
        <ele>554.2</ele>
        <time>2021-03-06T14:53:19Z</time>
      </trkpt>
      <trkpt lat="44.10541" lon="3.01605">
        <ele>554</ele>
        <time>2021-03-06T14:53:20Z</time>
      </trkpt>
      <trkpt lat="44.10537" lon="3.01606">
        <ele>553.8</ele>
        <time>2021-03-06T14:53:22Z</time>
      </trkpt>
      <trkpt lat="44.10534" lon="3.01606">
        <ele>553.5</ele>
        <time>2021-03-06T14:53:23Z</time>
      </trkpt>
      <trkpt lat="44.10531" lon="3.01607">
        <ele>553.3</ele>
        <time>2021-03-06T14:53:24Z</time>
      </trkpt>
      <trkpt lat="44.10527" lon="3.01607">
        <ele>552.9</ele>
        <time>2021-03-06T14:53:25Z</time>
      </trkpt>
      <trkpt lat="44.10524" lon="3.01608">
        <ele>552.6</ele>
        <time>2021-03-06T14:53:27Z</time>
      </trkpt>
      <trkpt lat="44.10521" lon="3.01609">
        <ele>552.2</ele>
        <time>2021-03-06T14:53:28Z</time>
      </trkpt>
      <trkpt lat="44.10517" lon="3.0161">
        <ele>553.6</ele>
        <time>2021-03-06T14:53:29Z</time>
      </trkpt>
      <trkpt lat="44.10516" lon="3.0161">
        <ele>553.4</ele>
        <time>2021-03-06T14:53:30Z</time>
      </trkpt>
      <trkpt lat="44.10513" lon="3.01612">
        <ele>553</ele>
        <time>2021-03-06T14:53:31Z</time>
      </trkpt>
      <trkpt lat="44.10511" lon="3.01613">
        <ele>552.5</ele>
        <time>2021-03-06T14:53:32Z</time>
      </trkpt>
      <trkpt lat="44.10508" lon="3.01615">
        <ele>553.8</ele>
        <time>2021-03-06T14:53:34Z</time>
      </trkpt>
      <trkpt lat="44.10504" lon="3.01617">
        <ele>553.2</ele>
        <time>2021-03-06T14:53:36Z</time>
      </trkpt>
      <trkpt lat="44.10501" lon="3.0162">
        <ele>554.2</ele>
        <time>2021-03-06T14:53:37Z</time>
      </trkpt>
      <trkpt lat="44.105" lon="3.0162">
        <ele>553.4</ele>
        <time>2021-03-06T14:53:38Z</time>
      </trkpt>
      <trkpt lat="44.10497" lon="3.01622">
        <ele>553.2</ele>
        <time>2021-03-06T14:53:39Z</time>
      </trkpt>
      <trkpt lat="44.10495" lon="3.01624">
        <ele>554</ele>
        <time>2021-03-06T14:53:40Z</time>
      </trkpt>
      <trkpt lat="44.10492" lon="3.01626">
        <ele>553.2</ele>
        <time>2021-03-06T14:53:42Z</time>
      </trkpt>
      <trkpt lat="44.10489" lon="3.01629">
        <ele>553.9</ele>
        <time>2021-03-06T14:53:43Z</time>
      </trkpt>
      <trkpt lat="44.10487" lon="3.01631">
        <ele>554.6</ele>
        <time>2021-03-06T14:53:45Z</time>
      </trkpt>
      <trkpt lat="44.10486" lon="3.01635">
        <ele>554.4</ele>
        <time>2021-03-06T14:53:47Z</time>
      </trkpt>
      <trkpt lat="44.10485" lon="3.01638">
        <ele>555.7</ele>
        <time>2021-03-06T14:53:48Z</time>
      </trkpt>
      <trkpt lat="44.10484" lon="3.0164">
        <ele>556.5</ele>
        <time>2021-03-06T14:53:49Z</time>
      </trkpt>
      <trkpt lat="44.10484" lon="3.01644">
        <ele>557.9</ele>
        <time>2021-03-06T14:53:51Z</time>
      </trkpt>
      <trkpt lat="44.10483" lon="3.01646">
        <ele>557.7</ele>
        <time>2021-03-06T14:53:52Z</time>
      </trkpt>
      <trkpt lat="44.10482" lon="3.01649">
        <ele>559.1</ele>
        <time>2021-03-06T14:53:53Z</time>
      </trkpt>
      <trkpt lat="44.10481" lon="3.01651">
        <ele>558.9</ele>
        <time>2021-03-06T14:53:55Z</time>
      </trkpt>
      <trkpt lat="44.1048" lon="3.01655">
        <ele>559.5</ele>
        <time>2021-03-06T14:53:56Z</time>
      </trkpt>
      <trkpt lat="44.1048" lon="3.01657">
        <ele>560.7</ele>
        <time>2021-03-06T14:53:57Z</time>
      </trkpt>
      <trkpt lat="44.10479" lon="3.01659">
        <ele>560.5</ele>
        <time>2021-03-06T14:53:59Z</time>
      </trkpt>
      <trkpt lat="44.10479" lon="3.01662">
        <ele>561.7</ele>
        <time>2021-03-06T14:54:00Z</time>
      </trkpt>
      <trkpt lat="44.10478" lon="3.01665">
        <ele>562.8</ele>
        <time>2021-03-06T14:54:01Z</time>
      </trkpt>
      <trkpt lat="44.10478" lon="3.01667">
        <ele>561.8</ele>
        <time>2021-03-06T14:54:02Z</time>
      </trkpt>
      <trkpt lat="44.10478" lon="3.0167">
        <ele>562.7</ele>
        <time>2021-03-06T14:54:04Z</time>
      </trkpt>
      <trkpt lat="44.10477" lon="3.01673">
        <ele>562.5</ele>
        <time>2021-03-06T14:54:06Z</time>
      </trkpt>
      <trkpt lat="44.10476" lon="3.01674">
        <ele>563.4</ele>
        <time>2021-03-06T14:54:07Z</time>
      </trkpt>
      <trkpt lat="44.10476" lon="3.01677">
        <ele>563.2</ele>
        <time>2021-03-06T14:54:09Z</time>
      </trkpt>
      <trkpt lat="44.10475" lon="3.01679">
        <ele>564</ele>
        <time>2021-03-06T14:54:10Z</time>
      </trkpt>
      <trkpt lat="44.10476" lon="3.01682">
        <ele>563.8</ele>
        <time>2021-03-06T14:54:12Z</time>
      </trkpt>
      <trkpt lat="44.10476" lon="3.01684">
        <ele>564.5</ele>
        <time>2021-03-06T14:54:13Z</time>
      </trkpt>
      <trkpt lat="44.10476" lon="3.01686">
        <ele>564.3</ele>
        <time>2021-03-06T14:54:14Z</time>
      </trkpt>
      <trkpt lat="44.10476" lon="3.01688">
        <ele>565.1</ele>
        <time>2021-03-06T14:54:15Z</time>
      </trkpt>
      <trkpt lat="44.10476" lon="3.0169">
        <ele>564.9</ele>
        <time>2021-03-06T14:54:16Z</time>
      </trkpt>
      <trkpt lat="44.10475" lon="3.01692">
        <ele>564.7</ele>
        <time>2021-03-06T14:54:18Z</time>
      </trkpt>
      <trkpt lat="44.10475" lon="3.01694">
        <ele>565.5</ele>
        <time>2021-03-06T14:54:19Z</time>
      </trkpt>
      <trkpt lat="44.10475" lon="3.01695">
        <ele>565.2</ele>
        <time>2021-03-06T14:54:20Z</time>
      </trkpt>
      <trkpt lat="44.10475" lon="3.01696">
        <ele>566</ele>
        <time>2021-03-06T14:54:21Z</time>
      </trkpt>
      <trkpt lat="44.10475" lon="3.01698">
        <ele>565.8</ele>
        <time>2021-03-06T14:54:22Z</time>
      </trkpt>
      <trkpt lat="44.10475" lon="3.01699">
        <ele>565.6</ele>
        <time>2021-03-06T14:54:23Z</time>
      </trkpt>
      <trkpt lat="44.10475" lon="3.01701">
        <ele>565.2</ele>
        <time>2021-03-06T14:54:25Z</time>
      </trkpt>
      <trkpt lat="44.10475" lon="3.01702">
        <ele>565</ele>
        <time>2021-03-06T14:54:26Z</time>
      </trkpt>
      <trkpt lat="44.10475" lon="3.01704">
        <ele>565.6</ele>
        <time>2021-03-06T14:54:27Z</time>
      </trkpt>
      <trkpt lat="44.10475" lon="3.01706">
        <ele>565.4</ele>
        <time>2021-03-06T14:54:29Z</time>
      </trkpt>
      <trkpt lat="44.10474" lon="3.01708">
        <ele>565.2</ele>
        <time>2021-03-06T14:54:30Z</time>
      </trkpt>
      <trkpt lat="44.10474" lon="3.01712">
        <ele>566.4</ele>
        <time>2021-03-06T14:54:32Z</time>
      </trkpt>
      <trkpt lat="44.10473" lon="3.01713">
        <ele>566.2</ele>
        <time>2021-03-06T14:54:33Z</time>
      </trkpt>
      <trkpt lat="44.10473" lon="3.01716">
        <ele>566</ele>
        <time>2021-03-06T14:54:35Z</time>
      </trkpt>
      <trkpt lat="44.10472" lon="3.01719">
        <ele>565.3</ele>
        <time>2021-03-06T14:54:37Z</time>
      </trkpt>
      <trkpt lat="44.10471" lon="3.01721">
        <ele>565.8</ele>
        <time>2021-03-06T14:54:38Z</time>
      </trkpt>
      <trkpt lat="44.10471" lon="3.01722">
        <ele>565.6</ele>
        <time>2021-03-06T14:54:39Z</time>
      </trkpt>
      <trkpt lat="44.1047" lon="3.01724">
        <ele>565.4</ele>
        <time>2021-03-06T14:54:40Z</time>
      </trkpt>
      <trkpt lat="44.10469" lon="3.01726">
        <ele>564.7</ele>
        <time>2021-03-06T14:54:41Z</time>
      </trkpt>
      <trkpt lat="44.10468" lon="3.01729">
        <ele>564.5</ele>
        <time>2021-03-06T14:54:42Z</time>
      </trkpt>
      <trkpt lat="44.10467" lon="3.01732">
        <ele>564.9</ele>
        <time>2021-03-06T14:54:44Z</time>
      </trkpt>
      <trkpt lat="44.10466" lon="3.01736">
        <ele>564.3</ele>
        <time>2021-03-06T14:54:45Z</time>
      </trkpt>
      <trkpt lat="44.10464" lon="3.01741">
        <ele>564.8</ele>
        <time>2021-03-06T14:54:47Z</time>
      </trkpt>
      <trkpt lat="44.10462" lon="3.01746">
        <ele>564.3</ele>
        <time>2021-03-06T14:54:48Z</time>
      </trkpt>
      <trkpt lat="44.10462" lon="3.01747">
        <ele>564.8</ele>
        <time>2021-03-06T14:54:49Z</time>
      </trkpt>
      <trkpt lat="44.1046" lon="3.01752">
        <ele>565.2</ele>
        <time>2021-03-06T14:54:50Z</time>
      </trkpt>
      <trkpt lat="44.10458" lon="3.01757">
        <ele>564.6</ele>
        <time>2021-03-06T14:54:52Z</time>
      </trkpt>
      <trkpt lat="44.10457" lon="3.01761">
        <ele>564.9</ele>
        <time>2021-03-06T14:54:53Z</time>
      </trkpt>
      <trkpt lat="44.10456" lon="3.01766">
        <ele>564.2</ele>
        <time>2021-03-06T14:54:54Z</time>
      </trkpt>
      <trkpt lat="44.10455" lon="3.01771">
        <ele>564.5</ele>
        <time>2021-03-06T14:54:55Z</time>
      </trkpt>
      <trkpt lat="44.10454" lon="3.01774">
        <ele>564.7</ele>
        <time>2021-03-06T14:54:56Z</time>
      </trkpt>
      <trkpt lat="44.10453" lon="3.01778">
        <ele>564</ele>
        <time>2021-03-06T14:54:58Z</time>
      </trkpt>
      <trkpt lat="44.10451" lon="3.01784">
        <ele>564.2</ele>
        <time>2021-03-06T14:55:00Z</time>
      </trkpt>
      <trkpt lat="44.10449" lon="3.01789">
        <ele>563.4</ele>
        <time>2021-03-06T14:55:01Z</time>
      </trkpt>
      <trkpt lat="44.10449" lon="3.01793">
        <ele>563.6</ele>
        <time>2021-03-06T14:55:02Z</time>
      </trkpt>
      <trkpt lat="44.10448" lon="3.01801">
        <ele>564.1</ele>
        <time>2021-03-06T14:55:04Z</time>
      </trkpt>
      <trkpt lat="44.10447" lon="3.01805">
        <ele>563.1</ele>
        <time>2021-03-06T14:55:05Z</time>
      </trkpt>
      <trkpt lat="44.10447" lon="3.0181">
        <ele>563.2</ele>
        <time>2021-03-06T14:55:06Z</time>
      </trkpt>
      <trkpt lat="44.10447" lon="3.01814">
        <ele>563.3</ele>
        <time>2021-03-06T14:55:07Z</time>
      </trkpt>
      <trkpt lat="44.10446" lon="3.01818">
        <ele>563.4</ele>
        <time>2021-03-06T14:55:08Z</time>
      </trkpt>
      <trkpt lat="44.10445" lon="3.01823">
        <ele>563.4</ele>
        <time>2021-03-06T14:55:09Z</time>
      </trkpt>
      <trkpt lat="44.10445" lon="3.01828">
        <ele>563.5</ele>
        <time>2021-03-06T14:55:11Z</time>
      </trkpt>
      <trkpt lat="44.10445" lon="3.01832">
        <ele>563.6</ele>
        <time>2021-03-06T14:55:12Z</time>
      </trkpt>
      <trkpt lat="44.10445" lon="3.01837">
        <ele>564</ele>
        <time>2021-03-06T14:55:13Z</time>
      </trkpt>
      <trkpt lat="44.10445" lon="3.01842">
        <ele>564</ele>
        <time>2021-03-06T14:55:14Z</time>
      </trkpt>
      <trkpt lat="44.10446" lon="3.01846">
        <ele>564.5</ele>
        <time>2021-03-06T14:55:16Z</time>
      </trkpt>
      <trkpt lat="44.10447" lon="3.01852">
        <ele>565.2</ele>
        <time>2021-03-06T14:55:18Z</time>
      </trkpt>
      <trkpt lat="44.10449" lon="3.01858">
        <ele>565.8</ele>
        <time>2021-03-06T14:55:20Z</time>
      </trkpt>
      <trkpt lat="44.10451" lon="3.01863">
        <ele>566.4</ele>
        <time>2021-03-06T14:55:21Z</time>
      </trkpt>
      <trkpt lat="44.10452" lon="3.01865">
        <ele>566.7</ele>
        <time>2021-03-06T14:55:22Z</time>
      </trkpt>
      <trkpt lat="44.10453" lon="3.01869">
        <ele>567.1</ele>
        <time>2021-03-06T14:55:24Z</time>
      </trkpt>
      <trkpt lat="44.10454" lon="3.01872">
        <ele>567.4</ele>
        <time>2021-03-06T14:55:25Z</time>
      </trkpt>
      <trkpt lat="44.10455" lon="3.01874">
        <ele>567.7</ele>
        <time>2021-03-06T14:55:27Z</time>
      </trkpt>
      <trkpt lat="44.10456" lon="3.01876">
        <ele>568</ele>
        <time>2021-03-06T14:55:28Z</time>
      </trkpt>
      <trkpt lat="44.10457" lon="3.01878">
        <ele>568.3</ele>
        <time>2021-03-06T14:55:29Z</time>
      </trkpt>
      <trkpt lat="44.10458" lon="3.01879">
        <ele>568.4</ele>
        <time>2021-03-06T14:55:31Z</time>
      </trkpt>
      <trkpt lat="44.10459" lon="3.01878">
        <ele>568.6</ele>
        <time>2021-03-06T14:55:32Z</time>
      </trkpt>
      <trkpt lat="44.10459" lon="3.0188">
        <ele>568.7</ele>
        <time>2021-03-06T14:55:33Z</time>
      </trkpt>
      <trkpt lat="44.1046" lon="3.01881">
        <ele>568.9</ele>
        <time>2021-03-06T14:55:34Z</time>
      </trkpt>
      <trkpt lat="44.1046" lon="3.01882">
        <ele>569</ele>
        <time>2021-03-06T14:55:35Z</time>
      </trkpt>
      <trkpt lat="44.1046" lon="3.01884">
        <ele>569.2</ele>
        <time>2021-03-06T14:55:37Z</time>
      </trkpt>
      <trkpt lat="44.10461" lon="3.01885">
        <ele>569.3</ele>
        <time>2021-03-06T14:55:38Z</time>
      </trkpt>
      <trkpt lat="44.10461" lon="3.01885">
        <ele>569.4</ele>
        <time>2021-03-06T14:55:39Z</time>
      </trkpt>
      <trkpt lat="44.10462" lon="3.01886">
        <ele>569.5</ele>
        <time>2021-03-06T14:55:40Z</time>
      </trkpt>
      <trkpt lat="44.10463" lon="3.01888">
        <ele>569.7</ele>
        <time>2021-03-06T14:55:41Z</time>
      </trkpt>
      <trkpt lat="44.10463" lon="3.01889">
        <ele>569.9</ele>
        <time>2021-03-06T14:55:43Z</time>
      </trkpt>
      <trkpt lat="44.10463" lon="3.01889">
        <ele>570</ele>
        <time>2021-03-06T14:55:44Z</time>
      </trkpt>
      <trkpt lat="44.10463" lon="3.01889">
        <ele>570</ele>
        <time>2021-03-06T14:55:46Z</time>
      </trkpt>
      <trkpt lat="44.10463" lon="3.01889">
        <ele>570</ele>
        <time>2021-03-06T14:55:47Z</time>
      </trkpt>
      <trkpt lat="44.10463" lon="3.01889">
        <ele>570</ele>
        <time>2021-03-06T14:55:49Z</time>
      </trkpt>
      <trkpt lat="44.10463" lon="3.01889">
        <ele>570</ele>
        <time>2021-03-06T14:55:51Z</time>
      </trkpt>
      <trkpt lat="44.10466" lon="3.01889">
        <ele>570.4</ele>
        <time>2021-03-06T14:56:21Z</time>
      </trkpt>
      <trkpt lat="44.10467" lon="3.01888">
        <ele>570.5</ele>
        <time>2021-03-06T14:56:22Z</time>
      </trkpt>
      <trkpt lat="44.10468" lon="3.01888">
        <ele>570.7</ele>
        <time>2021-03-06T14:56:24Z</time>
      </trkpt>
      <trkpt lat="44.10469" lon="3.01888">
        <ele>570.8</ele>
        <time>2021-03-06T14:56:25Z</time>
      </trkpt>
      <trkpt lat="44.1047" lon="3.01888">
        <ele>571</ele>
        <time>2021-03-06T14:56:26Z</time>
      </trkpt>
      <trkpt lat="44.10471" lon="3.01888">
        <ele>571.1</ele>
        <time>2021-03-06T14:56:27Z</time>
      </trkpt>
      <trkpt lat="44.10472" lon="3.01889">
        <ele>571.3</ele>
        <time>2021-03-06T14:56:29Z</time>
      </trkpt>
      <trkpt lat="44.10473" lon="3.01889">
        <ele>571.5</ele>
        <time>2021-03-06T14:56:31Z</time>
      </trkpt>
      <trkpt lat="44.10474" lon="3.0189">
        <ele>571.6</ele>
        <time>2021-03-06T14:56:32Z</time>
      </trkpt>
      <trkpt lat="44.10475" lon="3.0189">
        <ele>571.8</ele>
        <time>2021-03-06T14:56:34Z</time>
      </trkpt>
      <trkpt lat="44.10476" lon="3.01889">
        <ele>572</ele>
        <time>2021-03-06T14:56:36Z</time>
      </trkpt>
      <trkpt lat="44.10477" lon="3.01888">
        <ele>572.1</ele>
        <time>2021-03-06T14:56:37Z</time>
      </trkpt>
      <trkpt lat="44.10478" lon="3.01888">
        <ele>572.3</ele>
        <time>2021-03-06T14:56:38Z</time>
      </trkpt>
      <trkpt lat="44.10479" lon="3.01889">
        <ele>572.4</ele>
        <time>2021-03-06T14:56:39Z</time>
      </trkpt>
      <trkpt lat="44.10481" lon="3.0189">
        <ele>572.7</ele>
        <time>2021-03-06T14:56:41Z</time>
      </trkpt>
      <trkpt lat="44.10481" lon="3.0189">
        <ele>572.8</ele>
        <time>2021-03-06T14:56:42Z</time>
      </trkpt>
      <trkpt lat="44.10483" lon="3.01891">
        <ele>573</ele>
        <time>2021-03-06T14:56:43Z</time>
      </trkpt>
      <trkpt lat="44.10484" lon="3.01891">
        <ele>573.2</ele>
        <time>2021-03-06T14:56:45Z</time>
      </trkpt>
      <trkpt lat="44.10485" lon="3.01891">
        <ele>573.3</ele>
        <time>2021-03-06T14:56:46Z</time>
      </trkpt>
      <trkpt lat="44.10487" lon="3.01892">
        <ele>573.6</ele>
        <time>2021-03-06T14:56:47Z</time>
      </trkpt>
      <trkpt lat="44.10489" lon="3.01894">
        <ele>574</ele>
        <time>2021-03-06T14:56:49Z</time>
      </trkpt>
      <trkpt lat="44.1049" lon="3.01895">
        <ele>574.2</ele>
        <time>2021-03-06T14:56:50Z</time>
      </trkpt>
      <trkpt lat="44.10491" lon="3.01897">
        <ele>574.4</ele>
        <time>2021-03-06T14:56:51Z</time>
      </trkpt>
      <trkpt lat="44.10492" lon="3.01898">
        <ele>574.6</ele>
        <time>2021-03-06T14:56:53Z</time>
      </trkpt>
      <trkpt lat="44.10494" lon="3.019">
        <ele>574.9</ele>
        <time>2021-03-06T14:56:55Z</time>
      </trkpt>
      <trkpt lat="44.10495" lon="3.01901">
        <ele>575.1</ele>
        <time>2021-03-06T14:56:56Z</time>
      </trkpt>
      <trkpt lat="44.10496" lon="3.01902">
        <ele>575.3</ele>
        <time>2021-03-06T14:56:58Z</time>
      </trkpt>
      <trkpt lat="44.10497" lon="3.01903">
        <ele>575.5</ele>
        <time>2021-03-06T14:56:59Z</time>
      </trkpt>
      <trkpt lat="44.10498" lon="3.01904">
        <ele>575.7</ele>
        <time>2021-03-06T14:57:01Z</time>
      </trkpt>
      <trkpt lat="44.10498" lon="3.01905">
        <ele>575.8</ele>
        <time>2021-03-06T14:57:02Z</time>
      </trkpt>
      <trkpt lat="44.10499" lon="3.01906">
        <ele>575.9</ele>
        <time>2021-03-06T14:57:03Z</time>
      </trkpt>
      <trkpt lat="44.105" lon="3.01907">
        <ele>576.1</ele>
        <time>2021-03-06T14:57:05Z</time>
      </trkpt>
      <trkpt lat="44.10502" lon="3.01908">
        <ele>576.4</ele>
        <time>2021-03-06T14:57:06Z</time>
      </trkpt>
      <trkpt lat="44.10503" lon="3.01909">
        <ele>576.5</ele>
        <time>2021-03-06T14:57:07Z</time>
      </trkpt>
      <trkpt lat="44.10503" lon="3.0191">
        <ele>576.7</ele>
        <time>2021-03-06T14:57:09Z</time>
      </trkpt>
      <trkpt lat="44.10504" lon="3.01911">
        <ele>576.9</ele>
        <time>2021-03-06T14:57:10Z</time>
      </trkpt>
      <trkpt lat="44.10505" lon="3.01912">
        <ele>577</ele>
        <time>2021-03-06T14:57:11Z</time>
      </trkpt>
      <trkpt lat="44.10507" lon="3.01913">
        <ele>577.3</ele>
        <time>2021-03-06T14:57:13Z</time>
      </trkpt>
      <trkpt lat="44.10507" lon="3.01914">
        <ele>577.4</ele>
        <time>2021-03-06T14:57:15Z</time>
      </trkpt>
      <trkpt lat="44.10508" lon="3.01914">
        <ele>577.4</ele>
        <time>2021-03-06T14:57:16Z</time>
      </trkpt>
      <trkpt lat="44.10508" lon="3.01915">
        <ele>577.5</ele>
        <time>2021-03-06T14:57:18Z</time>
      </trkpt>
      <trkpt lat="44.10508" lon="3.01915">
        <ele>577.6</ele>
        <time>2021-03-06T14:57:19Z</time>
      </trkpt>
      <trkpt lat="44.1051" lon="3.01917">
        <ele>577.9</ele>
        <time>2021-03-06T14:57:21Z</time>
      </trkpt>
      <trkpt lat="44.1051" lon="3.01919">
        <ele>578.1</ele>
        <time>2021-03-06T14:57:22Z</time>
      </trkpt>
      <trkpt lat="44.10511" lon="3.0192">
        <ele>578.3</ele>
        <time>2021-03-06T14:57:23Z</time>
      </trkpt>
      <trkpt lat="44.10512" lon="3.01921">
        <ele>578.5</ele>
        <time>2021-03-06T14:57:24Z</time>
      </trkpt>
      <trkpt lat="44.10514" lon="3.01922">
        <ele>578.7</ele>
        <time>2021-03-06T14:57:26Z</time>
      </trkpt>
      <trkpt lat="44.10515" lon="3.01923">
        <ele>578.9</ele>
        <time>2021-03-06T14:57:27Z</time>
      </trkpt>
      <trkpt lat="44.10517" lon="3.01924">
        <ele>579.2</ele>
        <time>2021-03-06T14:57:29Z</time>
      </trkpt>
      <trkpt lat="44.1052" lon="3.01927">
        <ele>579.7</ele>
        <time>2021-03-06T14:57:31Z</time>
      </trkpt>
      <trkpt lat="44.10521" lon="3.01928">
        <ele>579.9</ele>
        <time>2021-03-06T14:57:32Z</time>
      </trkpt>
      <trkpt lat="44.10523" lon="3.0193">
        <ele>580.3</ele>
        <time>2021-03-06T14:57:34Z</time>
      </trkpt>
      <trkpt lat="44.10524" lon="3.01931">
        <ele>580.5</ele>
        <time>2021-03-06T14:57:35Z</time>
      </trkpt>
      <trkpt lat="44.10527" lon="3.01932">
        <ele>580.8</ele>
        <time>2021-03-06T14:57:37Z</time>
      </trkpt>
      <trkpt lat="44.10527" lon="3.01933">
        <ele>581</ele>
        <time>2021-03-06T14:57:38Z</time>
      </trkpt>
      <trkpt lat="44.10529" lon="3.01934">
        <ele>581.2</ele>
        <time>2021-03-06T14:57:39Z</time>
      </trkpt>
      <trkpt lat="44.1053" lon="3.01935">
        <ele>581.4</ele>
        <time>2021-03-06T14:57:41Z</time>
      </trkpt>
      <trkpt lat="44.10531" lon="3.01936">
        <ele>581.7</ele>
        <time>2021-03-06T14:57:43Z</time>
      </trkpt>
      <trkpt lat="44.10533" lon="3.01937">
        <ele>581.9</ele>
        <time>2021-03-06T14:57:45Z</time>
      </trkpt>
      <trkpt lat="44.10534" lon="3.01937">
        <ele>582.1</ele>
        <time>2021-03-06T14:57:46Z</time>
      </trkpt>
      <trkpt lat="44.10536" lon="3.01939">
        <ele>582.4</ele>
        <time>2021-03-06T14:57:48Z</time>
      </trkpt>
      <trkpt lat="44.10538" lon="3.0194">
        <ele>582.7</ele>
        <time>2021-03-06T14:57:50Z</time>
      </trkpt>
      <trkpt lat="44.10539" lon="3.01941">
        <ele>582.9</ele>
        <time>2021-03-06T14:57:51Z</time>
      </trkpt>
      <trkpt lat="44.10541" lon="3.01941">
        <ele>583.1</ele>
        <time>2021-03-06T14:57:53Z</time>
      </trkpt>
      <trkpt lat="44.10542" lon="3.01942">
        <ele>583.3</ele>
        <time>2021-03-06T14:57:54Z</time>
      </trkpt>
      <trkpt lat="44.10543" lon="3.01942">
        <ele>583.5</ele>
        <time>2021-03-06T14:57:56Z</time>
      </trkpt>
      <trkpt lat="44.10545" lon="3.01942">
        <ele>583.7</ele>
        <time>2021-03-06T14:57:57Z</time>
      </trkpt>
      <trkpt lat="44.10545" lon="3.01943">
        <ele>583.8</ele>
        <time>2021-03-06T14:57:58Z</time>
      </trkpt>
      <trkpt lat="44.10547" lon="3.01945">
        <ele>584.1</ele>
        <time>2021-03-06T14:57:59Z</time>
      </trkpt>
      <trkpt lat="44.10548" lon="3.01945">
        <ele>584.3</ele>
        <time>2021-03-06T14:58:01Z</time>
      </trkpt>
      <trkpt lat="44.10551" lon="3.01946">
        <ele>584.7</ele>
        <time>2021-03-06T14:58:03Z</time>
      </trkpt>
      <trkpt lat="44.10552" lon="3.01947">
        <ele>584.9</ele>
        <time>2021-03-06T14:58:04Z</time>
      </trkpt>
      <trkpt lat="44.10553" lon="3.01948">
        <ele>585.1</ele>
        <time>2021-03-06T14:58:06Z</time>
      </trkpt>
      <trkpt lat="44.10555" lon="3.0195">
        <ele>585.5</ele>
        <time>2021-03-06T14:58:08Z</time>
      </trkpt>
      <trkpt lat="44.10557" lon="3.01952">
        <ele>585.9</ele>
        <time>2021-03-06T14:58:10Z</time>
      </trkpt>
      <trkpt lat="44.10559" lon="3.01954">
        <ele>586.2</ele>
        <time>2021-03-06T14:58:12Z</time>
      </trkpt>
      <trkpt lat="44.10561" lon="3.01956">
        <ele>586.5</ele>
        <time>2021-03-06T14:58:13Z</time>
      </trkpt>
      <trkpt lat="44.10562" lon="3.01956">
        <ele>586.6</ele>
        <time>2021-03-06T14:58:14Z</time>
      </trkpt>
      <trkpt lat="44.10563" lon="3.01957">
        <ele>586.8</ele>
        <time>2021-03-06T14:58:15Z</time>
      </trkpt>
      <trkpt lat="44.10565" lon="3.01959">
        <ele>587.2</ele>
        <time>2021-03-06T14:58:17Z</time>
      </trkpt>
      <trkpt lat="44.10566" lon="3.0196">
        <ele>587.4</ele>
        <time>2021-03-06T14:58:18Z</time>
      </trkpt>
      <trkpt lat="44.10568" lon="3.0196">
        <ele>587.6</ele>
        <time>2021-03-06T14:58:19Z</time>
      </trkpt>
      <trkpt lat="44.10569" lon="3.01961">
        <ele>587.8</ele>
        <time>2021-03-06T14:58:21Z</time>
      </trkpt>
      <trkpt lat="44.1057" lon="3.01962">
        <ele>588</ele>
        <time>2021-03-06T14:58:22Z</time>
      </trkpt>
      <trkpt lat="44.10572" lon="3.01964">
        <ele>588.3</ele>
        <time>2021-03-06T14:58:24Z</time>
      </trkpt>
      <trkpt lat="44.10574" lon="3.01965">
        <ele>588.6</ele>
        <time>2021-03-06T14:58:25Z</time>
      </trkpt>
      <trkpt lat="44.10575" lon="3.01966">
        <ele>588.8</ele>
        <time>2021-03-06T14:58:26Z</time>
      </trkpt>
      <trkpt lat="44.10575" lon="3.01967">
        <ele>588.9</ele>
        <time>2021-03-06T14:58:27Z</time>
      </trkpt>
      <trkpt lat="44.10577" lon="3.01968">
        <ele>589.1</ele>
        <time>2021-03-06T14:58:29Z</time>
      </trkpt>
      <trkpt lat="44.10578" lon="3.01969">
        <ele>589.3</ele>
        <time>2021-03-06T14:58:30Z</time>
      </trkpt>
      <trkpt lat="44.1058" lon="3.01971">
        <ele>589.7</ele>
        <time>2021-03-06T14:58:31Z</time>
      </trkpt>
      <trkpt lat="44.10581" lon="3.01972">
        <ele>589.9</ele>
        <time>2021-03-06T14:58:33Z</time>
      </trkpt>
      <trkpt lat="44.10584" lon="3.01973">
        <ele>590.3</ele>
        <time>2021-03-06T14:58:34Z</time>
      </trkpt>
      <trkpt lat="44.10585" lon="3.01973">
        <ele>590.5</ele>
        <time>2021-03-06T14:58:35Z</time>
      </trkpt>
      <trkpt lat="44.10587" lon="3.01974">
        <ele>590.8</ele>
        <time>2021-03-06T14:58:36Z</time>
      </trkpt>
      <trkpt lat="44.10589" lon="3.01976">
        <ele>591.1</ele>
        <time>2021-03-06T14:58:38Z</time>
      </trkpt>
      <trkpt lat="44.10591" lon="3.01977">
        <ele>591.4</ele>
        <time>2021-03-06T14:58:39Z</time>
      </trkpt>
      <trkpt lat="44.10594" lon="3.01978">
        <ele>591.8</ele>
        <time>2021-03-06T14:58:41Z</time>
      </trkpt>
      <trkpt lat="44.10595" lon="3.01978">
        <ele>592</ele>
        <time>2021-03-06T14:58:42Z</time>
      </trkpt>
      <trkpt lat="44.10596" lon="3.01978">
        <ele>592.2</ele>
        <time>2021-03-06T14:58:43Z</time>
      </trkpt>
      <trkpt lat="44.10599" lon="3.0198">
        <ele>592.6</ele>
        <time>2021-03-06T14:58:45Z</time>
      </trkpt>
      <trkpt lat="44.10601" lon="3.01981">
        <ele>593</ele>
        <time>2021-03-06T14:58:46Z</time>
      </trkpt>
      <trkpt lat="44.10602" lon="3.01981">
        <ele>593.1</ele>
        <time>2021-03-06T14:58:47Z</time>
      </trkpt>
      <trkpt lat="44.10603" lon="3.01982">
        <ele>593.3</ele>
        <time>2021-03-06T14:58:48Z</time>
      </trkpt>
      <trkpt lat="44.10606" lon="3.01984">
        <ele>593.7</ele>
        <time>2021-03-06T14:58:50Z</time>
      </trkpt>
      <trkpt lat="44.10607" lon="3.01984">
        <ele>593.8</ele>
        <time>2021-03-06T14:58:51Z</time>
      </trkpt>
      <trkpt lat="44.10609" lon="3.01985">
        <ele>594.1</ele>
        <time>2021-03-06T14:58:52Z</time>
      </trkpt>
      <trkpt lat="44.10611" lon="3.01986">
        <ele>594.6</ele>
        <time>2021-03-06T14:58:54Z</time>
      </trkpt>
      <trkpt lat="44.10613" lon="3.01987">
        <ele>594.9</ele>
        <time>2021-03-06T14:58:55Z</time>
      </trkpt>
      <trkpt lat="44.10616" lon="3.01989">
        <ele>595.3</ele>
        <time>2021-03-06T14:58:57Z</time>
      </trkpt>
      <trkpt lat="44.10617" lon="3.01989">
        <ele>595.5</ele>
        <time>2021-03-06T14:58:58Z</time>
      </trkpt>
      <trkpt lat="44.1062" lon="3.01991">
        <ele>595.8</ele>
        <time>2021-03-06T14:59:00Z</time>
      </trkpt>
      <trkpt lat="44.10621" lon="3.01991">
        <ele>596</ele>
        <time>2021-03-06T14:59:01Z</time>
      </trkpt>
      <trkpt lat="44.10623" lon="3.01992">
        <ele>596.4</ele>
        <time>2021-03-06T14:59:03Z</time>
      </trkpt>
      <trkpt lat="44.10626" lon="3.01993">
        <ele>596.8</ele>
        <time>2021-03-06T14:59:05Z</time>
      </trkpt>
      <trkpt lat="44.10628" lon="3.01994">
        <ele>597.1</ele>
        <time>2021-03-06T14:59:07Z</time>
      </trkpt>
      <trkpt lat="44.10629" lon="3.01994">
        <ele>597.3</ele>
        <time>2021-03-06T14:59:08Z</time>
      </trkpt>
      <trkpt lat="44.10631" lon="3.01995">
        <ele>597.6</ele>
        <time>2021-03-06T14:59:09Z</time>
      </trkpt>
      <trkpt lat="44.10633" lon="3.01996">
        <ele>597.8</ele>
        <time>2021-03-06T14:59:10Z</time>
      </trkpt>
      <trkpt lat="44.10634" lon="3.01997">
        <ele>598.1</ele>
        <time>2021-03-06T14:59:11Z</time>
      </trkpt>
      <trkpt lat="44.10637" lon="3.02">
        <ele>598.6</ele>
        <time>2021-03-06T14:59:12Z</time>
      </trkpt>
      <trkpt lat="44.10638" lon="3.02002">
        <ele>598.8</ele>
        <time>2021-03-06T14:59:13Z</time>
      </trkpt>
      <trkpt lat="44.10639" lon="3.02004">
        <ele>599.1</ele>
        <time>2021-03-06T14:59:15Z</time>
      </trkpt>
      <trkpt lat="44.1064" lon="3.02005">
        <ele>599.3</ele>
        <time>2021-03-06T14:59:16Z</time>
      </trkpt>
      <trkpt lat="44.10643" lon="3.02007">
        <ele>599.7</ele>
        <time>2021-03-06T14:59:17Z</time>
      </trkpt>
      <trkpt lat="44.10645" lon="3.02008">
        <ele>600</ele>
        <time>2021-03-06T14:59:18Z</time>
      </trkpt>
      <trkpt lat="44.10647" lon="3.02009">
        <ele>600.4</ele>
        <time>2021-03-06T14:59:20Z</time>
      </trkpt>
      <trkpt lat="44.1065" lon="3.02011">
        <ele>600.9</ele>
        <time>2021-03-06T14:59:22Z</time>
      </trkpt>
      <trkpt lat="44.10652" lon="3.02013">
        <ele>601.2</ele>
        <time>2021-03-06T14:59:24Z</time>
      </trkpt>
      <trkpt lat="44.10656" lon="3.02014">
        <ele>601.8</ele>
        <time>2021-03-06T14:59:26Z</time>
      </trkpt>
      <trkpt lat="44.10658" lon="3.02016">
        <ele>602.2</ele>
        <time>2021-03-06T14:59:27Z</time>
      </trkpt>
      <trkpt lat="44.10663" lon="3.0202">
        <ele>602.9</ele>
        <time>2021-03-06T14:59:29Z</time>
      </trkpt>
      <trkpt lat="44.10664" lon="3.02021">
        <ele>603.2</ele>
        <time>2021-03-06T14:59:30Z</time>
      </trkpt>
      <trkpt lat="44.10665" lon="3.02022">
        <ele>603.4</ele>
        <time>2021-03-06T14:59:31Z</time>
      </trkpt>
      <trkpt lat="44.10669" lon="3.02024">
        <ele>603.9</ele>
        <time>2021-03-06T14:59:33Z</time>
      </trkpt>
      <trkpt lat="44.10672" lon="3.02026">
        <ele>604.5</ele>
        <time>2021-03-06T14:59:35Z</time>
      </trkpt>
      <trkpt lat="44.10675" lon="3.02028">
        <ele>604.9</ele>
        <time>2021-03-06T14:59:36Z</time>
      </trkpt>
      <trkpt lat="44.10676" lon="3.02029">
        <ele>605.1</ele>
        <time>2021-03-06T14:59:37Z</time>
      </trkpt>
      <trkpt lat="44.10678" lon="3.0203">
        <ele>605.4</ele>
        <time>2021-03-06T14:59:38Z</time>
      </trkpt>
      <trkpt lat="44.1068" lon="3.02032">
        <ele>605.8</ele>
        <time>2021-03-06T14:59:40Z</time>
      </trkpt>
      <trkpt lat="44.10681" lon="3.02033">
        <ele>605.9</ele>
        <time>2021-03-06T14:59:41Z</time>
      </trkpt>
      <trkpt lat="44.10684" lon="3.02035">
        <ele>606.5</ele>
        <time>2021-03-06T14:59:42Z</time>
      </trkpt>
      <trkpt lat="44.10686" lon="3.02037">
        <ele>606.8</ele>
        <time>2021-03-06T14:59:43Z</time>
      </trkpt>
      <trkpt lat="44.10689" lon="3.02039">
        <ele>607.2</ele>
        <time>2021-03-06T14:59:45Z</time>
      </trkpt>
      <trkpt lat="44.10693" lon="3.02042">
        <ele>607.9</ele>
        <time>2021-03-06T14:59:47Z</time>
      </trkpt>
      <trkpt lat="44.10696" lon="3.02044">
        <ele>608.4</ele>
        <time>2021-03-06T14:59:48Z</time>
      </trkpt>
      <trkpt lat="44.10699" lon="3.02046">
        <ele>608.9</ele>
        <time>2021-03-06T14:59:50Z</time>
      </trkpt>
      <trkpt lat="44.10701" lon="3.02049">
        <ele>609.4</ele>
        <time>2021-03-06T14:59:51Z</time>
      </trkpt>
      <trkpt lat="44.10705" lon="3.02052">
        <ele>610</ele>
        <time>2021-03-06T14:59:52Z</time>
      </trkpt>
      <trkpt lat="44.10706" lon="3.02054">
        <ele>610.2</ele>
        <time>2021-03-06T14:59:53Z</time>
      </trkpt>
      <trkpt lat="44.1071" lon="3.02058">
        <ele>610.9</ele>
        <time>2021-03-06T14:59:55Z</time>
      </trkpt>
      <trkpt lat="44.10711" lon="3.0206">
        <ele>611.2</ele>
        <time>2021-03-06T14:59:56Z</time>
      </trkpt>
      <trkpt lat="44.10714" lon="3.02064">
        <ele>611.8</ele>
        <time>2021-03-06T14:59:58Z</time>
      </trkpt>
      <trkpt lat="44.10719" lon="3.0207">
        <ele>612.7</ele>
        <time>2021-03-06T15:00:00Z</time>
      </trkpt>
      <trkpt lat="44.10721" lon="3.02073">
        <ele>613.2</ele>
        <time>2021-03-06T15:00:01Z</time>
      </trkpt>
      <trkpt lat="44.10725" lon="3.02078">
        <ele>613.9</ele>
        <time>2021-03-06T15:00:03Z</time>
      </trkpt>
      <trkpt lat="44.10727" lon="3.02081">
        <ele>614.4</ele>
        <time>2021-03-06T15:00:04Z</time>
      </trkpt>
      <trkpt lat="44.1073" lon="3.02084">
        <ele>614.8</ele>
        <time>2021-03-06T15:00:05Z</time>
      </trkpt>
      <trkpt lat="44.10733" lon="3.02088">
        <ele>615.6</ele>
        <time>2021-03-06T15:00:07Z</time>
      </trkpt>
      <trkpt lat="44.10736" lon="3.02091">
        <ele>616</ele>
        <time>2021-03-06T15:00:08Z</time>
      </trkpt>
      <trkpt lat="44.10739" lon="3.02094">
        <ele>616.6</ele>
        <time>2021-03-06T15:00:10Z</time>
      </trkpt>
      <trkpt lat="44.10742" lon="3.02097">
        <ele>617.1</ele>
        <time>2021-03-06T15:00:11Z</time>
      </trkpt>
      <trkpt lat="44.10745" lon="3.02099">
        <ele>617.6</ele>
        <time>2021-03-06T15:00:12Z</time>
      </trkpt>
      <trkpt lat="44.10746" lon="3.021">
        <ele>617.7</ele>
        <time>2021-03-06T15:00:13Z</time>
      </trkpt>
      <trkpt lat="44.10749" lon="3.02102">
        <ele>618.3</ele>
        <time>2021-03-06T15:00:14Z</time>
      </trkpt>
      <trkpt lat="44.10752" lon="3.02105">
        <ele>618.9</ele>
        <time>2021-03-06T15:00:16Z</time>
      </trkpt>
      <trkpt lat="44.10755" lon="3.02108">
        <ele>619.3</ele>
        <time>2021-03-06T15:00:17Z</time>
      </trkpt>
      <trkpt lat="44.10756" lon="3.02108">
        <ele>619.5</ele>
        <time>2021-03-06T15:00:18Z</time>
      </trkpt>
      <trkpt lat="44.10759" lon="3.02109">
        <ele>619.9</ele>
        <time>2021-03-06T15:00:20Z</time>
      </trkpt>
      <trkpt lat="44.10762" lon="3.02111">
        <ele>620.4</ele>
        <time>2021-03-06T15:00:21Z</time>
      </trkpt>
      <trkpt lat="44.10765" lon="3.02112">
        <ele>620.8</ele>
        <time>2021-03-06T15:00:22Z</time>
      </trkpt>
      <trkpt lat="44.10768" lon="3.02115">
        <ele>621.3</ele>
        <time>2021-03-06T15:00:24Z</time>
      </trkpt>
      <trkpt lat="44.10773" lon="3.02118">
        <ele>622.1</ele>
        <time>2021-03-06T15:00:26Z</time>
      </trkpt>
      <trkpt lat="44.10775" lon="3.0212">
        <ele>622.5</ele>
        <time>2021-03-06T15:00:27Z</time>
      </trkpt>
      <trkpt lat="44.10779" lon="3.02123">
        <ele>623.2</ele>
        <time>2021-03-06T15:00:29Z</time>
      </trkpt>
      <trkpt lat="44.10783" lon="3.02124">
        <ele>623.8</ele>
        <time>2021-03-06T15:00:30Z</time>
      </trkpt>
      <trkpt lat="44.10785" lon="3.02124">
        <ele>624</ele>
        <time>2021-03-06T15:00:31Z</time>
      </trkpt>
      <trkpt lat="44.10788" lon="3.02125">
        <ele>624.5</ele>
        <time>2021-03-06T15:00:33Z</time>
      </trkpt>
      <trkpt lat="44.10789" lon="3.02126">
        <ele>624.6</ele>
        <time>2021-03-06T15:00:34Z</time>
      </trkpt>
      <trkpt lat="44.10793" lon="3.02127">
        <ele>625.2</ele>
        <time>2021-03-06T15:00:36Z</time>
      </trkpt>
      <trkpt lat="44.10797" lon="3.02129">
        <ele>625.9</ele>
        <time>2021-03-06T15:00:38Z</time>
      </trkpt>
      <trkpt lat="44.10801" lon="3.02131">
        <ele>626.4</ele>
        <time>2021-03-06T15:00:39Z</time>
      </trkpt>
      <trkpt lat="44.10802" lon="3.02132">
        <ele>626.7</ele>
        <time>2021-03-06T15:00:40Z</time>
      </trkpt>
      <trkpt lat="44.10807" lon="3.02133">
        <ele>627.4</ele>
        <time>2021-03-06T15:00:42Z</time>
      </trkpt>
      <trkpt lat="44.10809" lon="3.02134">
        <ele>627.7</ele>
        <time>2021-03-06T15:00:44Z</time>
      </trkpt>
      <trkpt lat="44.10811" lon="3.02135">
        <ele>628</ele>
        <time>2021-03-06T15:00:45Z</time>
      </trkpt>
      <trkpt lat="44.10812" lon="3.02135">
        <ele>628.3</ele>
        <time>2021-03-06T15:00:46Z</time>
      </trkpt>
      <trkpt lat="44.10816" lon="3.02137">
        <ele>628.8</ele>
        <time>2021-03-06T15:00:48Z</time>
      </trkpt>
      <trkpt lat="44.10819" lon="3.02137">
        <ele>629.2</ele>
        <time>2021-03-06T15:00:49Z</time>
      </trkpt>
      <trkpt lat="44.10823" lon="3.02138">
        <ele>629.8</ele>
        <time>2021-03-06T15:00:51Z</time>
      </trkpt>
      <trkpt lat="44.10825" lon="3.02138">
        <ele>630.2</ele>
        <time>2021-03-06T15:00:52Z</time>
      </trkpt>
      <trkpt lat="44.10826" lon="3.02138">
        <ele>630.3</ele>
        <time>2021-03-06T15:00:53Z</time>
      </trkpt>
      <trkpt lat="44.1083" lon="3.02138">
        <ele>630.9</ele>
        <time>2021-03-06T15:00:55Z</time>
      </trkpt>
      <trkpt lat="44.10834" lon="3.02139">
        <ele>631.5</ele>
        <time>2021-03-06T15:00:57Z</time>
      </trkpt>
      <trkpt lat="44.10836" lon="3.0214">
        <ele>631.7</ele>
        <time>2021-03-06T15:00:58Z</time>
      </trkpt>
      <trkpt lat="44.10838" lon="3.02139">
        <ele>632</ele>
        <time>2021-03-06T15:00:59Z</time>
      </trkpt>
      <trkpt lat="44.10842" lon="3.02138">
        <ele>632.6</ele>
        <time>2021-03-06T15:01:01Z</time>
      </trkpt>
      <trkpt lat="44.10843" lon="3.02138">
        <ele>632.8</ele>
        <time>2021-03-06T15:01:02Z</time>
      </trkpt>
      <trkpt lat="44.10845" lon="3.02138">
        <ele>633</ele>
        <time>2021-03-06T15:01:03Z</time>
      </trkpt>
      <trkpt lat="44.10848" lon="3.02138">
        <ele>633.5</ele>
        <time>2021-03-06T15:01:04Z</time>
      </trkpt>
      <trkpt lat="44.10849" lon="3.02139">
        <ele>633.7</ele>
        <time>2021-03-06T15:01:05Z</time>
      </trkpt>
      <trkpt lat="44.10852" lon="3.02141">
        <ele>634.1</ele>
        <time>2021-03-06T15:01:07Z</time>
      </trkpt>
      <trkpt lat="44.10852" lon="3.02145">
        <ele>634.5</ele>
        <time>2021-03-06T15:01:08Z</time>
      </trkpt>
      <trkpt lat="44.10852" lon="3.02151">
        <ele>635.2</ele>
        <time>2021-03-06T15:01:10Z</time>
      </trkpt>
      <trkpt lat="44.10851" lon="3.02159">
        <ele>634.2</ele>
        <time>2021-03-06T15:01:11Z</time>
      </trkpt>
      <trkpt lat="44.10845" lon="3.02173">
        <ele>632.9</ele>
        <time>2021-03-06T15:01:13Z</time>
      </trkpt>
      <trkpt lat="44.10838" lon="3.02191">
        <ele>631.2</ele>
        <time>2021-03-06T15:01:15Z</time>
      </trkpt>
      <trkpt lat="44.10834" lon="3.02207">
        <ele>629.8</ele>
        <time>2021-03-06T15:01:17Z</time>
      </trkpt>
      <trkpt lat="44.1083" lon="3.02218">
        <ele>628.1</ele>
        <time>2021-03-06T15:01:19Z</time>
      </trkpt>
      <trkpt lat="44.10824" lon="3.02227">
        <ele>626.3</ele>
        <time>2021-03-06T15:01:20Z</time>
      </trkpt>
      <trkpt lat="44.10813" lon="3.02245">
        <ele>623.5</ele>
        <time>2021-03-06T15:01:22Z</time>
      </trkpt>
      <trkpt lat="44.10808" lon="3.02254">
        <ele>622.4</ele>
        <time>2021-03-06T15:01:23Z</time>
      </trkpt>
      <trkpt lat="44.108" lon="3.02266">
        <ele>621.3</ele>
        <time>2021-03-06T15:01:25Z</time>
      </trkpt>
      <trkpt lat="44.10797" lon="3.02273">
        <ele>620.9</ele>
        <time>2021-03-06T15:01:26Z</time>
      </trkpt>
      <trkpt lat="44.10789" lon="3.02287">
        <ele>620.7</ele>
        <time>2021-03-06T15:01:28Z</time>
      </trkpt>
      <trkpt lat="44.10785" lon="3.02295">
        <ele>620.8</ele>
        <time>2021-03-06T15:01:29Z</time>
      </trkpt>
      <trkpt lat="44.10775" lon="3.02309">
        <ele>621.3</ele>
        <time>2021-03-06T15:01:31Z</time>
      </trkpt>
      <trkpt lat="44.10767" lon="3.02321">
        <ele>621.8</ele>
        <time>2021-03-06T15:01:33Z</time>
      </trkpt>
      <trkpt lat="44.10762" lon="3.02331">
        <ele>622.2</ele>
        <time>2021-03-06T15:01:35Z</time>
      </trkpt>
      <trkpt lat="44.10755" lon="3.02341">
        <ele>622.6</ele>
        <time>2021-03-06T15:01:37Z</time>
      </trkpt>
      <trkpt lat="44.10747" lon="3.02352">
        <ele>622.9</ele>
        <time>2021-03-06T15:01:39Z</time>
      </trkpt>
      <trkpt lat="44.1074" lon="3.02362">
        <ele>623.1</ele>
        <time>2021-03-06T15:01:41Z</time>
      </trkpt>
      <trkpt lat="44.10736" lon="3.02368">
        <ele>623.2</ele>
        <time>2021-03-06T15:01:42Z</time>
      </trkpt>
      <trkpt lat="44.10731" lon="3.02374">
        <ele>623.2</ele>
        <time>2021-03-06T15:01:43Z</time>
      </trkpt>
      <trkpt lat="44.10722" lon="3.02385">
        <ele>623.1</ele>
        <time>2021-03-06T15:01:45Z</time>
      </trkpt>
      <trkpt lat="44.10712" lon="3.02396">
        <ele>622.6</ele>
        <time>2021-03-06T15:01:47Z</time>
      </trkpt>
      <trkpt lat="44.107" lon="3.02407">
        <ele>621.8</ele>
        <time>2021-03-06T15:01:49Z</time>
      </trkpt>
      <trkpt lat="44.10686" lon="3.02419">
        <ele>620.4</ele>
        <time>2021-03-06T15:01:51Z</time>
      </trkpt>
      <trkpt lat="44.10674" lon="3.02433">
        <ele>619</ele>
        <time>2021-03-06T15:01:53Z</time>
      </trkpt>
      <trkpt lat="44.10666" lon="3.02441">
        <ele>617.9</ele>
        <time>2021-03-06T15:01:54Z</time>
      </trkpt>
      <trkpt lat="44.10658" lon="3.02449">
        <ele>616.5</ele>
        <time>2021-03-06T15:01:55Z</time>
      </trkpt>
      <trkpt lat="44.10643" lon="3.02465">
        <ele>614</ele>
        <time>2021-03-06T15:01:57Z</time>
      </trkpt>
      <trkpt lat="44.10637" lon="3.02473">
        <ele>612.8</ele>
        <time>2021-03-06T15:01:58Z</time>
      </trkpt>
      <trkpt lat="44.1062" lon="3.02484">
        <ele>610.8</ele>
        <time>2021-03-06T15:02:00Z</time>
      </trkpt>
      <trkpt lat="44.10615" lon="3.02485">
        <ele>610.4</ele>
        <time>2021-03-06T15:02:01Z</time>
      </trkpt>
      <trkpt lat="44.10612" lon="3.02486">
        <ele>610.2</ele>
        <time>2021-03-06T15:02:03Z</time>
      </trkpt>
      <trkpt lat="44.10607" lon="3.02489">
        <ele>609.9</ele>
        <time>2021-03-06T15:02:05Z</time>
      </trkpt>
      <trkpt lat="44.10604" lon="3.02493">
        <ele>609.7</ele>
        <time>2021-03-06T15:02:06Z</time>
      </trkpt>
      <trkpt lat="44.10602" lon="3.02495">
        <ele>609.6</ele>
        <time>2021-03-06T15:02:07Z</time>
      </trkpt>
      <trkpt lat="44.10599" lon="3.02497">
        <ele>609.5</ele>
        <time>2021-03-06T15:02:08Z</time>
      </trkpt>
      <trkpt lat="44.10595" lon="3.02498">
        <ele>609.4</ele>
        <time>2021-03-06T15:02:09Z</time>
      </trkpt>
      <trkpt lat="44.10591" lon="3.02501">
        <ele>609.3</ele>
        <time>2021-03-06T15:02:11Z</time>
      </trkpt>
      <trkpt lat="44.10589" lon="3.02503">
        <ele>609.2</ele>
        <time>2021-03-06T15:02:12Z</time>
      </trkpt>
      <trkpt lat="44.10584" lon="3.02505">
        <ele>609.2</ele>
        <time>2021-03-06T15:02:13Z</time>
      </trkpt>
      <trkpt lat="44.10581" lon="3.02507">
        <ele>609.2</ele>
        <time>2021-03-06T15:02:15Z</time>
      </trkpt>
      <trkpt lat="44.10578" lon="3.02509">
        <ele>609.3</ele>
        <time>2021-03-06T15:02:16Z</time>
      </trkpt>
      <trkpt lat="44.10576" lon="3.02511">
        <ele>609.3</ele>
        <time>2021-03-06T15:02:17Z</time>
      </trkpt>
      <trkpt lat="44.10573" lon="3.02514">
        <ele>609.3</ele>
        <time>2021-03-06T15:02:19Z</time>
      </trkpt>
      <trkpt lat="44.1057" lon="3.02517">
        <ele>609.4</ele>
        <time>2021-03-06T15:02:20Z</time>
      </trkpt>
      <trkpt lat="44.10568" lon="3.02519">
        <ele>609.4</ele>
        <time>2021-03-06T15:02:21Z</time>
      </trkpt>
      <trkpt lat="44.10566" lon="3.02521">
        <ele>609.5</ele>
        <time>2021-03-06T15:02:22Z</time>
      </trkpt>
      <trkpt lat="44.10562" lon="3.02525">
        <ele>609.6</ele>
        <time>2021-03-06T15:02:24Z</time>
      </trkpt>
      <trkpt lat="44.1056" lon="3.02528">
        <ele>609.6</ele>
        <time>2021-03-06T15:02:25Z</time>
      </trkpt>
      <trkpt lat="44.10558" lon="3.0253">
        <ele>609.7</ele>
        <time>2021-03-06T15:02:26Z</time>
      </trkpt>
      <trkpt lat="44.10555" lon="3.02533">
        <ele>609.8</ele>
        <time>2021-03-06T15:02:28Z</time>
      </trkpt>
      <trkpt lat="44.1055" lon="3.02537">
        <ele>609.9</ele>
        <time>2021-03-06T15:02:29Z</time>
      </trkpt>
      <trkpt lat="44.10545" lon="3.02542">
        <ele>610</ele>
        <time>2021-03-06T15:02:31Z</time>
      </trkpt>
      <trkpt lat="44.10542" lon="3.02546">
        <ele>610.1</ele>
        <time>2021-03-06T15:02:33Z</time>
      </trkpt>
      <trkpt lat="44.10538" lon="3.02549">
        <ele>610.1</ele>
        <time>2021-03-06T15:02:34Z</time>
      </trkpt>
      <trkpt lat="44.10535" lon="3.02553">
        <ele>610.2</ele>
        <time>2021-03-06T15:02:36Z</time>
      </trkpt>
      <trkpt lat="44.10532" lon="3.02555">
        <ele>610.2</ele>
        <time>2021-03-06T15:02:37Z</time>
      </trkpt>
      <trkpt lat="44.1053" lon="3.02557">
        <ele>610.2</ele>
        <time>2021-03-06T15:02:38Z</time>
      </trkpt>
      <trkpt lat="44.10526" lon="3.0256">
        <ele>610.2</ele>
        <time>2021-03-06T15:02:39Z</time>
      </trkpt>
      <trkpt lat="44.10504" lon="3.02551">
        <ele>609.9</ele>
        <time>2018-05-19T11:47:41Z</time>
      </trkpt>
      <trkpt lat="44.10501" lon="3.02548">
        <ele>609.9</ele>
        <time>2018-05-19T11:47:42Z</time>
      </trkpt>
      <trkpt lat="44.10498" lon="3.02545">
        <ele>609.9</ele>
        <time>2018-05-19T11:47:43Z</time>
      </trkpt>
      <trkpt lat="44.10495" lon="3.02542">
        <ele>609.9</ele>
        <time>2018-05-19T11:47:44Z</time>
      </trkpt>
      <trkpt lat="44.10493" lon="3.02539">
        <ele>609.9</ele>
        <time>2018-05-19T11:47:45Z</time>
      </trkpt>
      <trkpt lat="44.1049" lon="3.02536">
        <ele>609.9</ele>
        <time>2018-05-19T11:47:46Z</time>
      </trkpt>
      <trkpt lat="44.10488" lon="3.02534">
        <ele>609.9</ele>
        <time>2018-05-19T11:47:47Z</time>
      </trkpt>
      <trkpt lat="44.10485" lon="3.02531">
        <ele>609.8</ele>
        <time>2018-05-19T11:47:48Z</time>
      </trkpt>
      <trkpt lat="44.10483" lon="3.02528">
        <ele>609.8</ele>
        <time>2018-05-19T11:47:49Z</time>
      </trkpt>
      <trkpt lat="44.1048" lon="3.02525">
        <ele>609.8</ele>
        <time>2018-05-19T11:47:50Z</time>
      </trkpt>
      <trkpt lat="44.10478" lon="3.02523">
        <ele>609.8</ele>
        <time>2018-05-19T11:47:51Z</time>
      </trkpt>
      <trkpt lat="44.10475" lon="3.0252">
        <ele>609.8</ele>
        <time>2018-05-19T11:47:52Z</time>
      </trkpt>
      <trkpt lat="44.10473" lon="3.02518">
        <ele>609.8</ele>
        <time>2018-05-19T11:47:53Z</time>
      </trkpt>
      <trkpt lat="44.10471" lon="3.02515">
        <ele>609.7</ele>
        <time>2018-05-19T11:47:54Z</time>
      </trkpt>
      <trkpt lat="44.10468" lon="3.02513">
        <ele>609.7</ele>
        <time>2018-05-19T11:47:55Z</time>
      </trkpt>
      <trkpt lat="44.10466" lon="3.0251">
        <ele>609.7</ele>
        <time>2018-05-19T11:47:56Z</time>
      </trkpt>
      <trkpt lat="44.10463" lon="3.02508">
        <ele>609.7</ele>
        <time>2018-05-19T11:47:57Z</time>
      </trkpt>
      <trkpt lat="44.10461" lon="3.02505">
        <ele>609.7</ele>
        <time>2018-05-19T11:47:58Z</time>
      </trkpt>
      <trkpt lat="44.10458" lon="3.02503">
        <ele>609.6</ele>
        <time>2018-05-19T11:47:59Z</time>
      </trkpt>
      <trkpt lat="44.10456" lon="3.02501">
        <ele>609.6</ele>
        <time>2018-05-19T11:48:00Z</time>
      </trkpt>
      <trkpt lat="44.10453" lon="3.02498">
        <ele>609.6</ele>
        <time>2018-05-19T11:48:01Z</time>
      </trkpt>
      <trkpt lat="44.1045" lon="3.02495">
        <ele>609.6</ele>
        <time>2018-05-19T11:48:02Z</time>
      </trkpt>
      <trkpt lat="44.10448" lon="3.02492">
        <ele>609.5</ele>
        <time>2018-05-19T11:48:03Z</time>
      </trkpt>
      <trkpt lat="44.10446" lon="3.0249">
        <ele>609.5</ele>
        <time>2018-05-19T11:48:04Z</time>
      </trkpt>
      <trkpt lat="44.10443" lon="3.02487">
        <ele>609.5</ele>
        <time>2018-05-19T11:48:05Z</time>
      </trkpt>
      <trkpt lat="44.1044" lon="3.02484">
        <ele>609.5</ele>
        <time>2018-05-19T11:48:06Z</time>
      </trkpt>
      <trkpt lat="44.10437" lon="3.02481">
        <ele>609.4</ele>
        <time>2018-05-19T11:48:07Z</time>
      </trkpt>
      <trkpt lat="44.10435" lon="3.02477">
        <ele>609.4</ele>
        <time>2018-05-19T11:48:08Z</time>
      </trkpt>
      <trkpt lat="44.10432" lon="3.02474">
        <ele>609.4</ele>
        <time>2018-05-19T11:48:09Z</time>
      </trkpt>
      <trkpt lat="44.1043" lon="3.0247">
        <ele>609.4</ele>
        <time>2018-05-19T11:48:10Z</time>
      </trkpt>
      <trkpt lat="44.10427" lon="3.02467">
        <ele>609.3</ele>
        <time>2018-05-19T11:48:11Z</time>
      </trkpt>
      <trkpt lat="44.10425" lon="3.02463">
        <ele>609.3</ele>
        <time>2018-05-19T11:48:12Z</time>
      </trkpt>
      <trkpt lat="44.10422" lon="3.0246">
        <ele>609.3</ele>
        <time>2018-05-19T11:48:13Z</time>
      </trkpt>
      <trkpt lat="44.1042" lon="3.02456">
        <ele>609.3</ele>
        <time>2018-05-19T11:48:14Z</time>
      </trkpt>
      <trkpt lat="44.10417" lon="3.02452">
        <ele>609.2</ele>
        <time>2018-05-19T11:48:15Z</time>
      </trkpt>
      <trkpt lat="44.10415" lon="3.02447">
        <ele>609.2</ele>
        <time>2018-05-19T11:48:16Z</time>
      </trkpt>
      <trkpt lat="44.10412" lon="3.02443">
        <ele>609.2</ele>
        <time>2018-05-19T11:48:17Z</time>
      </trkpt>
      <trkpt lat="44.10409" lon="3.02439">
        <ele>609.1</ele>
        <time>2018-05-19T11:48:18Z</time>
      </trkpt>
      <trkpt lat="44.10407" lon="3.02435">
        <ele>609.1</ele>
        <time>2018-05-19T11:48:19Z</time>
      </trkpt>
      <trkpt lat="44.10405" lon="3.02431">
        <ele>609.1</ele>
        <time>2018-05-19T11:48:20Z</time>
      </trkpt>
      <trkpt lat="44.10403" lon="3.02428">
        <ele>609</ele>
        <time>2018-05-19T11:48:21Z</time>
      </trkpt>
      <trkpt lat="44.104" lon="3.02424">
        <ele>609</ele>
        <time>2018-05-19T11:48:22Z</time>
      </trkpt>
      <trkpt lat="44.10397" lon="3.02421">
        <ele>609</ele>
        <time>2018-05-19T11:48:23Z</time>
      </trkpt>
      <trkpt lat="44.10395" lon="3.02417">
        <ele>609</ele>
        <time>2018-05-19T11:48:24Z</time>
      </trkpt>
      <trkpt lat="44.10392" lon="3.02414">
        <ele>608.9</ele>
        <time>2018-05-19T11:48:25Z</time>
      </trkpt>
      <trkpt lat="44.1039" lon="3.02411">
        <ele>608.9</ele>
        <time>2018-05-19T11:48:26Z</time>
      </trkpt>
      <trkpt lat="44.10387" lon="3.02407">
        <ele>608.8</ele>
        <time>2018-05-19T11:48:27Z</time>
      </trkpt>
      <trkpt lat="44.10385" lon="3.02403">
        <ele>608.8</ele>
        <time>2018-05-19T11:48:28Z</time>
      </trkpt>
      <trkpt lat="44.10382" lon="3.02399">
        <ele>608.8</ele>
        <time>2018-05-19T11:48:29Z</time>
      </trkpt>
      <trkpt lat="44.1038" lon="3.02395">
        <ele>608.7</ele>
        <time>2018-05-19T11:48:30Z</time>
      </trkpt>
      <trkpt lat="44.10378" lon="3.02392">
        <ele>608.7</ele>
        <time>2018-05-19T11:48:31Z</time>
      </trkpt>
      <trkpt lat="44.10376" lon="3.02387">
        <ele>608.7</ele>
        <time>2018-05-19T11:48:32Z</time>
      </trkpt>
      <trkpt lat="44.10374" lon="3.02383">
        <ele>608.6</ele>
        <time>2018-05-19T11:48:33Z</time>
      </trkpt>
      <trkpt lat="44.10372" lon="3.02378">
        <ele>608.6</ele>
        <time>2018-05-19T11:48:34Z</time>
      </trkpt>
      <trkpt lat="44.1037" lon="3.02373">
        <ele>608.6</ele>
        <time>2018-05-19T11:48:35Z</time>
      </trkpt>
      <trkpt lat="44.10368" lon="3.02368">
        <ele>608.6</ele>
        <time>2018-05-19T11:48:36Z</time>
      </trkpt>
      <trkpt lat="44.10366" lon="3.02364">
        <ele>608.5</ele>
        <time>2018-05-19T11:48:37Z</time>
      </trkpt>
      <trkpt lat="44.10365" lon="3.02359">
        <ele>608.5</ele>
        <time>2018-05-19T11:48:38Z</time>
      </trkpt>
      <trkpt lat="44.10363" lon="3.02354">
        <ele>608.5</ele>
        <time>2018-05-19T11:48:39Z</time>
      </trkpt>
      <trkpt lat="44.1036" lon="3.0235">
        <ele>608.4</ele>
        <time>2018-05-19T11:48:40Z</time>
      </trkpt>
      <trkpt lat="44.10358" lon="3.02345">
        <ele>608.4</ele>
        <time>2018-05-19T11:48:41Z</time>
      </trkpt>
      <trkpt lat="44.10355" lon="3.0234">
        <ele>608.4</ele>
        <time>2018-05-19T11:48:42Z</time>
      </trkpt>
      <trkpt lat="44.10353" lon="3.02336">
        <ele>608.4</ele>
        <time>2018-05-19T11:48:43Z</time>
      </trkpt>
      <trkpt lat="44.10349" lon="3.02331">
        <ele>608.3</ele>
        <time>2018-05-19T11:48:44Z</time>
      </trkpt>
      <trkpt lat="44.10345" lon="3.02327">
        <ele>608.3</ele>
        <time>2018-05-19T11:48:45Z</time>
      </trkpt>
      <trkpt lat="44.10342" lon="3.02323">
        <ele>608.3</ele>
        <time>2018-05-19T11:48:46Z</time>
      </trkpt>
      <trkpt lat="44.10337" lon="3.02318">
        <ele>608.2</ele>
        <time>2018-05-19T11:48:47Z</time>
      </trkpt>
      <trkpt lat="44.10333" lon="3.02314">
        <ele>608.1</ele>
        <time>2018-05-19T11:48:48Z</time>
      </trkpt>
      <trkpt lat="44.10328" lon="3.0231">
        <ele>608.1</ele>
        <time>2018-05-19T11:48:49Z</time>
      </trkpt>
      <trkpt lat="44.10325" lon="3.02306">
        <ele>608</ele>
        <time>2018-05-19T11:48:50Z</time>
      </trkpt>
      <trkpt lat="44.10321" lon="3.02302">
        <ele>608</ele>
        <time>2018-05-19T11:48:51Z</time>
      </trkpt>
      <trkpt lat="44.10316" lon="3.023">
        <ele>607.9</ele>
        <time>2018-05-19T11:48:52Z</time>
      </trkpt>
      <trkpt lat="44.10312" lon="3.02296">
        <ele>607.8</ele>
        <time>2018-05-19T11:48:53Z</time>
      </trkpt>
      <trkpt lat="44.10307" lon="3.02292">
        <ele>607.7</ele>
        <time>2018-05-19T11:48:54Z</time>
      </trkpt>
      <trkpt lat="44.10303" lon="3.02288">
        <ele>607.7</ele>
        <time>2018-05-19T11:48:55Z</time>
      </trkpt>
      <trkpt lat="44.10297" lon="3.02284">
        <ele>607.5</ele>
        <time>2018-05-19T11:48:56Z</time>
      </trkpt>
      <trkpt lat="44.10292" lon="3.02281">
        <ele>607.3</ele>
        <time>2018-05-19T11:48:57Z</time>
      </trkpt>
      <trkpt lat="44.10287" lon="3.02277">
        <ele>607</ele>
        <time>2018-05-19T11:48:58Z</time>
      </trkpt>
      <trkpt lat="44.10282" lon="3.02272">
        <ele>606.5</ele>
        <time>2018-05-19T11:48:59Z</time>
      </trkpt>
      <trkpt lat="44.10276" lon="3.02267">
        <ele>605.9</ele>
        <time>2018-05-19T11:49:00Z</time>
      </trkpt>
      <trkpt lat="44.1027" lon="3.02262">
        <ele>605.7</ele>
        <time>2018-05-19T11:49:01Z</time>
      </trkpt>
      <trkpt lat="44.10265" lon="3.02258">
        <ele>605.6</ele>
        <time>2018-05-19T11:49:02Z</time>
      </trkpt>
      <trkpt lat="44.10259" lon="3.02251">
        <ele>605.4</ele>
        <time>2018-05-19T11:49:03Z</time>
      </trkpt>
      <trkpt lat="44.10252" lon="3.02246">
        <ele>605.2</ele>
        <time>2018-05-19T11:49:04Z</time>
      </trkpt>
      <trkpt lat="44.10247" lon="3.0224">
        <ele>605.1</ele>
        <time>2018-05-19T11:49:05Z</time>
      </trkpt>
      <trkpt lat="44.1024" lon="3.02235">
        <ele>604.9</ele>
        <time>2018-05-19T11:49:06Z</time>
      </trkpt>
      <trkpt lat="44.10234" lon="3.02229">
        <ele>604.7</ele>
        <time>2018-05-19T11:49:07Z</time>
      </trkpt>
      <trkpt lat="44.10228" lon="3.02224">
        <ele>604.3</ele>
        <time>2018-05-19T11:49:08Z</time>
      </trkpt>
      <trkpt lat="44.10221" lon="3.02218">
        <ele>603.5</ele>
        <time>2018-05-19T11:49:09Z</time>
      </trkpt>
      <trkpt lat="44.10214" lon="3.02212">
        <ele>602.7</ele>
        <time>2018-05-19T11:49:10Z</time>
      </trkpt>
      <trkpt lat="44.10209" lon="3.02206">
        <ele>602.4</ele>
        <time>2018-05-19T11:49:11Z</time>
      </trkpt>
      <trkpt lat="44.10205" lon="3.022">
        <ele>602</ele>
        <time>2018-05-19T11:49:12Z</time>
      </trkpt>
      <trkpt lat="44.10201" lon="3.02193">
        <ele>600.7</ele>
        <time>2018-05-19T11:49:13Z</time>
      </trkpt>
      <trkpt lat="44.10197" lon="3.02187">
        <ele>599.9</ele>
        <time>2018-05-19T11:49:14Z</time>
      </trkpt>
      <trkpt lat="44.10193" lon="3.0218">
        <ele>599.5</ele>
        <time>2018-05-19T11:49:15Z</time>
      </trkpt>
      <trkpt lat="44.10189" lon="3.02174">
        <ele>599.2</ele>
        <time>2018-05-19T11:49:16Z</time>
      </trkpt>
      <trkpt lat="44.10185" lon="3.02168">
        <ele>599</ele>
        <time>2018-05-19T11:49:17Z</time>
      </trkpt>
      <trkpt lat="44.10182" lon="3.02162">
        <ele>598.8</ele>
        <time>2018-05-19T11:49:18Z</time>
      </trkpt>
      <trkpt lat="44.10179" lon="3.02156">
        <ele>598.6</ele>
        <time>2018-05-19T11:49:19Z</time>
      </trkpt>
      <trkpt lat="44.10175" lon="3.02149">
        <ele>598.4</ele>
        <time>2018-05-19T11:49:20Z</time>
      </trkpt>
      <trkpt lat="44.10169" lon="3.02144">
        <ele>598.1</ele>
        <time>2018-05-19T11:49:21Z</time>
      </trkpt>
      <trkpt lat="44.10163" lon="3.02141">
        <ele>597.8</ele>
        <time>2018-05-19T11:49:22Z</time>
      </trkpt>
      <trkpt lat="44.10156" lon="3.02137">
        <ele>597</ele>
        <time>2018-05-19T11:49:23Z</time>
      </trkpt>
      <trkpt lat="44.10149" lon="3.02135">
        <ele>596.1</ele>
        <time>2018-05-19T11:49:24Z</time>
      </trkpt>
      <trkpt lat="44.10142" lon="3.02132">
        <ele>595.5</ele>
        <time>2018-05-19T11:49:25Z</time>
      </trkpt>
      <trkpt lat="44.10134" lon="3.0213">
        <ele>595.1</ele>
        <time>2018-05-19T11:49:26Z</time>
      </trkpt>
      <trkpt lat="44.10127" lon="3.02127">
        <ele>594.9</ele>
        <time>2018-05-19T11:49:27Z</time>
      </trkpt>
      <trkpt lat="44.10119" lon="3.02125">
        <ele>594.6</ele>
        <time>2018-05-19T11:49:28Z</time>
      </trkpt>
      <trkpt lat="44.10112" lon="3.02121">
        <ele>594.4</ele>
        <time>2018-05-19T11:49:29Z</time>
      </trkpt>
      <trkpt lat="44.10104" lon="3.02118">
        <ele>594.2</ele>
        <time>2018-05-19T11:49:30Z</time>
      </trkpt>
      <trkpt lat="44.10096" lon="3.02114">
        <ele>594</ele>
        <time>2018-05-19T11:49:31Z</time>
      </trkpt>
      <trkpt lat="44.10088" lon="3.0211">
        <ele>593.8</ele>
        <time>2018-05-19T11:49:32Z</time>
      </trkpt>
      <trkpt lat="44.10081" lon="3.02107">
        <ele>593.6</ele>
        <time>2018-05-19T11:49:33Z</time>
      </trkpt>
      <trkpt lat="44.10073" lon="3.02103">
        <ele>593.1</ele>
        <time>2018-05-19T11:49:34Z</time>
      </trkpt>
      <trkpt lat="44.10065" lon="3.02099">
        <ele>592</ele>
        <time>2018-05-19T11:49:35Z</time>
      </trkpt>
      <trkpt lat="44.10057" lon="3.02096">
        <ele>591.3</ele>
        <time>2018-05-19T11:49:36Z</time>
      </trkpt>
      <trkpt lat="44.10048" lon="3.02092">
        <ele>590.8</ele>
        <time>2018-05-19T11:49:37Z</time>
      </trkpt>
      <trkpt lat="44.10039" lon="3.02088">
        <ele>590.4</ele>
        <time>2018-05-19T11:49:38Z</time>
      </trkpt>
      <trkpt lat="44.10029" lon="3.02085">
        <ele>590.1</ele>
        <time>2018-05-19T11:49:39Z</time>
      </trkpt>
      <trkpt lat="44.1002" lon="3.02081">
        <ele>589.7</ele>
        <time>2018-05-19T11:49:40Z</time>
      </trkpt>
      <trkpt lat="44.1001" lon="3.02078">
        <ele>589.1</ele>
        <time>2018-05-19T11:49:41Z</time>
      </trkpt>
      <trkpt lat="44.1" lon="3.02074">
        <ele>587.6</ele>
        <time>2018-05-19T11:49:42Z</time>
      </trkpt>
      <trkpt lat="44.0999" lon="3.0207">
        <ele>586.9</ele>
        <time>2018-05-19T11:49:43Z</time>
      </trkpt>
      <trkpt lat="44.09981" lon="3.02065">
        <ele>586.6</ele>
        <time>2018-05-19T11:49:44Z</time>
      </trkpt>
      <trkpt lat="44.09972" lon="3.02059">
        <ele>586.1</ele>
        <time>2018-05-19T11:49:45Z</time>
      </trkpt>
      <trkpt lat="44.09963" lon="3.02052">
        <ele>585.7</ele>
        <time>2018-05-19T11:49:46Z</time>
      </trkpt>
      <trkpt lat="44.09955" lon="3.02043">
        <ele>585.3</ele>
        <time>2018-05-19T11:49:47Z</time>
      </trkpt>
      <trkpt lat="44.09948" lon="3.02031">
        <ele>583.7</ele>
        <time>2018-05-19T11:49:48Z</time>
      </trkpt>
      <trkpt lat="44.09942" lon="3.02018">
        <ele>582.9</ele>
        <time>2018-05-19T11:49:49Z</time>
      </trkpt>
      <trkpt lat="44.09937" lon="3.02006">
        <ele>582.3</ele>
        <time>2018-05-19T11:49:50Z</time>
      </trkpt>
      <trkpt lat="44.09932" lon="3.01994">
        <ele>581.8</ele>
        <time>2018-05-19T11:49:51Z</time>
      </trkpt>
      <trkpt lat="44.09926" lon="3.01983">
        <ele>581.3</ele>
        <time>2018-05-19T11:49:52Z</time>
      </trkpt>
      <trkpt lat="44.09919" lon="3.01972">
        <ele>580.4</ele>
        <time>2018-05-19T11:49:53Z</time>
      </trkpt>
      <trkpt lat="44.09912" lon="3.0196">
        <ele>579.3</ele>
        <time>2018-05-19T11:49:54Z</time>
      </trkpt>
      <trkpt lat="44.09906" lon="3.01949">
        <ele>578.8</ele>
        <time>2018-05-19T11:49:55Z</time>
      </trkpt>
      <trkpt lat="44.099" lon="3.01939">
        <ele>578.4</ele>
        <time>2018-05-19T11:49:56Z</time>
      </trkpt>
      <trkpt lat="44.09894" lon="3.01928">
        <ele>578.2</ele>
        <time>2018-05-19T11:49:57Z</time>
      </trkpt>
      <trkpt lat="44.09889" lon="3.01918">
        <ele>578</ele>
        <time>2018-05-19T11:49:58Z</time>
      </trkpt>
      <trkpt lat="44.09884" lon="3.0191">
        <ele>577.9</ele>
        <time>2018-05-19T11:49:59Z</time>
      </trkpt>
      <trkpt lat="44.09878" lon="3.019">
        <ele>577.7</ele>
        <time>2018-05-19T11:50:00Z</time>
      </trkpt>
      <trkpt lat="44.09873" lon="3.01893">
        <ele>577.4</ele>
        <time>2018-05-19T11:50:01Z</time>
      </trkpt>
      <trkpt lat="44.09867" lon="3.01891">
        <ele>577.2</ele>
        <time>2018-05-19T11:50:02Z</time>
      </trkpt>
      <trkpt lat="44.09863" lon="3.01892">
        <ele>577</ele>
        <time>2018-05-19T11:50:03Z</time>
      </trkpt>
      <trkpt lat="44.0986" lon="3.01894">
        <ele>577</ele>
        <time>2018-05-19T11:50:04Z</time>
      </trkpt>
      <trkpt lat="44.09856" lon="3.01899">
        <ele>577</ele>
        <time>2018-05-19T11:50:06Z</time>
      </trkpt>
      <trkpt lat="44.09854" lon="3.01901">
        <ele>576.9</ele>
        <time>2018-05-19T11:50:07Z</time>
      </trkpt>
      <trkpt lat="44.09852" lon="3.01903">
        <ele>576.8</ele>
        <time>2018-05-19T11:50:08Z</time>
      </trkpt>
      <trkpt lat="44.09849" lon="3.01906">
        <ele>576.7</ele>
        <time>2018-05-19T11:50:09Z</time>
      </trkpt>
      <trkpt lat="44.09846" lon="3.01908">
        <ele>576.7</ele>
        <time>2018-05-19T11:50:10Z</time>
      </trkpt>
      <trkpt lat="44.09841" lon="3.01906">
        <ele>576.8</ele>
        <time>2018-05-19T11:50:12Z</time>
      </trkpt>
      <trkpt lat="44.09838" lon="3.01906">
        <ele>576.8</ele>
        <time>2018-05-19T11:50:13Z</time>
      </trkpt>
      <trkpt lat="44.09835" lon="3.01904">
        <ele>576.9</ele>
        <time>2018-05-19T11:50:14Z</time>
      </trkpt>
      <trkpt lat="44.09831" lon="3.01903">
        <ele>577</ele>
        <time>2018-05-19T11:50:15Z</time>
      </trkpt>
      <trkpt lat="44.09828" lon="3.01902">
        <ele>577.1</ele>
        <time>2018-05-19T11:50:16Z</time>
      </trkpt>
      <trkpt lat="44.09824" lon="3.01901">
        <ele>577.2</ele>
        <time>2018-05-19T11:50:17Z</time>
      </trkpt>
      <trkpt lat="44.0982" lon="3.019">
        <ele>577.4</ele>
        <time>2018-05-19T11:50:18Z</time>
      </trkpt>
      <trkpt lat="44.09817" lon="3.01899">
        <ele>577.5</ele>
        <time>2018-05-19T11:50:19Z</time>
      </trkpt>
      <trkpt lat="44.09813" lon="3.01899">
        <ele>577.5</ele>
        <time>2018-05-19T11:50:20Z</time>
      </trkpt>
      <trkpt lat="44.09809" lon="3.01899">
        <ele>577.5</ele>
        <time>2018-05-19T11:50:21Z</time>
      </trkpt>
      <trkpt lat="44.09805" lon="3.01899">
        <ele>577.5</ele>
        <time>2018-05-19T11:50:22Z</time>
      </trkpt>
      <trkpt lat="44.098" lon="3.019">
        <ele>577.5</ele>
        <time>2018-05-19T11:50:23Z</time>
      </trkpt>
      <trkpt lat="44.09795" lon="3.01904">
        <ele>577.4</ele>
        <time>2018-05-19T11:50:24Z</time>
      </trkpt>
      <trkpt lat="44.0979" lon="3.01906">
        <ele>577.2</ele>
        <time>2018-05-19T11:50:25Z</time>
      </trkpt>
      <trkpt lat="44.09785" lon="3.01908">
        <ele>576.9</ele>
        <time>2018-05-19T11:50:26Z</time>
      </trkpt>
      <trkpt lat="44.0978" lon="3.0191">
        <ele>576.6</ele>
        <time>2018-05-19T11:50:27Z</time>
      </trkpt>
      <trkpt lat="44.09774" lon="3.01913">
        <ele>576.1</ele>
        <time>2018-05-19T11:50:28Z</time>
      </trkpt>
      <trkpt lat="44.09769" lon="3.01915">
        <ele>575.9</ele>
        <time>2018-05-19T11:50:29Z</time>
      </trkpt>
      <trkpt lat="44.09764" lon="3.01919">
        <ele>575.6</ele>
        <time>2018-05-19T11:50:30Z</time>
      </trkpt>
      <trkpt lat="44.09758" lon="3.01921">
        <ele>575.2</ele>
        <time>2018-05-19T11:50:31Z</time>
      </trkpt>
      <trkpt lat="44.09752" lon="3.01924">
        <ele>574.8</ele>
        <time>2018-05-19T11:50:32Z</time>
      </trkpt>
      <trkpt lat="44.09745" lon="3.01927">
        <ele>574.5</ele>
        <time>2018-05-19T11:50:33Z</time>
      </trkpt>
      <trkpt lat="44.0974" lon="3.0193">
        <ele>574.4</ele>
        <time>2018-05-19T11:50:34Z</time>
      </trkpt>
      <trkpt lat="44.09734" lon="3.01933">
        <ele>574.3</ele>
        <time>2018-05-19T11:50:35Z</time>
      </trkpt>
      <trkpt lat="44.09728" lon="3.01937">
        <ele>574.2</ele>
        <time>2018-05-19T11:50:36Z</time>
      </trkpt>
      <trkpt lat="44.09723" lon="3.0194">
        <ele>574.2</ele>
        <time>2018-05-19T11:50:37Z</time>
      </trkpt>
      <trkpt lat="44.09717" lon="3.01944">
        <ele>574.3</ele>
        <time>2018-05-19T11:50:38Z</time>
      </trkpt>
      <trkpt lat="44.09711" lon="3.01947">
        <ele>574.4</ele>
        <time>2018-05-19T11:50:39Z</time>
      </trkpt>
      <trkpt lat="44.09706" lon="3.01949">
        <ele>574.5</ele>
        <time>2018-05-19T11:50:40Z</time>
      </trkpt>
      <trkpt lat="44.097" lon="3.01953">
        <ele>574.7</ele>
        <time>2018-05-19T11:50:41Z</time>
      </trkpt>
      <trkpt lat="44.09695" lon="3.01955">
        <ele>574.8</ele>
        <time>2018-05-19T11:50:42Z</time>
      </trkpt>
      <trkpt lat="44.0969" lon="3.01958">
        <ele>574.9</ele>
        <time>2018-05-19T11:50:43Z</time>
      </trkpt>
      <trkpt lat="44.09686" lon="3.01959">
        <ele>575</ele>
        <time>2018-05-19T11:50:44Z</time>
      </trkpt>
      <trkpt lat="44.09681" lon="3.01962">
        <ele>575.1</ele>
        <time>2018-05-19T11:50:45Z</time>
      </trkpt>
      <trkpt lat="44.09675" lon="3.01964">
        <ele>575.3</ele>
        <time>2018-05-19T11:50:46Z</time>
      </trkpt>
      <trkpt lat="44.0967" lon="3.01966">
        <ele>575.5</ele>
        <time>2018-05-19T11:50:47Z</time>
      </trkpt>
      <trkpt lat="44.09665" lon="3.01969">
        <ele>575.7</ele>
        <time>2018-05-19T11:50:48Z</time>
      </trkpt>
      <trkpt lat="44.0966" lon="3.01971">
        <ele>576</ele>
        <time>2018-05-19T11:50:49Z</time>
      </trkpt>
      <trkpt lat="44.09655" lon="3.01974">
        <ele>576.3</ele>
        <time>2018-05-19T11:50:50Z</time>
      </trkpt>
      <trkpt lat="44.0965" lon="3.01976">
        <ele>576.5</ele>
        <time>2018-05-19T11:50:51Z</time>
      </trkpt>
      <trkpt lat="44.09646" lon="3.01978">
        <ele>577</ele>
        <time>2018-05-19T11:50:52Z</time>
      </trkpt>
      <trkpt lat="44.09642" lon="3.01979">
        <ele>577.4</ele>
        <time>2018-05-19T11:50:53Z</time>
      </trkpt>
      <trkpt lat="44.09637" lon="3.01979">
        <ele>578</ele>
        <time>2018-05-19T11:50:54Z</time>
      </trkpt>
      <trkpt lat="44.09634" lon="3.01978">
        <ele>578.5</ele>
        <time>2018-05-19T11:50:55Z</time>
      </trkpt>
      <trkpt lat="44.09629" lon="3.01976">
        <ele>578.9</ele>
        <time>2018-05-19T11:50:56Z</time>
      </trkpt>
      <trkpt lat="44.09626" lon="3.01974">
        <ele>579</ele>
        <time>2018-05-19T11:50:57Z</time>
      </trkpt>
      <trkpt lat="44.09624" lon="3.0197">
        <ele>579</ele>
        <time>2018-05-19T11:50:58Z</time>
      </trkpt>
      <trkpt lat="44.09624" lon="3.01964">
        <ele>578.7</ele>
        <time>2018-05-19T11:50:59Z</time>
      </trkpt>
      <trkpt lat="44.09623" lon="3.01959">
        <ele>578.4</ele>
        <time>2018-05-19T11:51:00Z</time>
      </trkpt>
      <trkpt lat="44.09623" lon="3.01953">
        <ele>578</ele>
        <time>2018-05-19T11:51:01Z</time>
      </trkpt>
      <trkpt lat="44.09624" lon="3.01947">
        <ele>577.6</ele>
        <time>2018-05-19T11:51:02Z</time>
      </trkpt>
      <trkpt lat="44.09625" lon="3.01941">
        <ele>577.3</ele>
        <time>2018-05-19T11:51:03Z</time>
      </trkpt>
      <trkpt lat="44.09625" lon="3.01935">
        <ele>577</ele>
        <time>2018-05-19T11:51:04Z</time>
      </trkpt>
      <trkpt lat="44.09626" lon="3.01928">
        <ele>576.9</ele>
        <time>2018-05-19T11:51:05Z</time>
      </trkpt>
      <trkpt lat="44.09627" lon="3.01921">
        <ele>576.4</ele>
        <time>2018-05-19T11:51:06Z</time>
      </trkpt>
      <trkpt lat="44.09627" lon="3.01914">
        <ele>576</ele>
        <time>2018-05-19T11:51:07Z</time>
      </trkpt>
      <trkpt lat="44.09627" lon="3.01908">
        <ele>575.7</ele>
        <time>2018-05-19T11:51:08Z</time>
      </trkpt>
      <trkpt lat="44.09628" lon="3.01901">
        <ele>575.4</ele>
        <time>2018-05-19T11:51:09Z</time>
      </trkpt>
      <trkpt lat="44.09629" lon="3.01895">
        <ele>575.1</ele>
        <time>2018-05-19T11:51:10Z</time>
      </trkpt>
      <trkpt lat="44.09628" lon="3.01888">
        <ele>574.7</ele>
        <time>2018-05-19T11:51:11Z</time>
      </trkpt>
      <trkpt lat="44.09629" lon="3.01879">
        <ele>574</ele>
        <time>2018-05-19T11:51:12Z</time>
      </trkpt>
      <trkpt lat="44.09628" lon="3.01871">
        <ele>573.3</ele>
        <time>2018-05-19T11:51:13Z</time>
      </trkpt>
      <trkpt lat="44.09627" lon="3.01864">
        <ele>573</ele>
        <time>2018-05-19T11:51:14Z</time>
      </trkpt>
      <trkpt lat="44.09627" lon="3.01855">
        <ele>572.7</ele>
        <time>2018-05-19T11:51:15Z</time>
      </trkpt>
      <trkpt lat="44.09626" lon="3.01847">
        <ele>572.2</ele>
        <time>2018-05-19T11:51:16Z</time>
      </trkpt>
      <trkpt lat="44.09626" lon="3.01839">
        <ele>572</ele>
        <time>2018-05-19T11:51:17Z</time>
      </trkpt>
      <trkpt lat="44.09624" lon="3.01831">
        <ele>571.9</ele>
        <time>2018-05-19T11:51:18Z</time>
      </trkpt>
      <trkpt lat="44.09622" lon="3.01824">
        <ele>571.8</ele>
        <time>2018-05-19T11:51:19Z</time>
      </trkpt>
      <trkpt lat="44.0962" lon="3.0182">
        <ele>571.8</ele>
        <time>2018-05-19T11:51:20Z</time>
      </trkpt>
      <trkpt lat="44.09618" lon="3.01815">
        <ele>572</ele>
        <time>2018-05-19T11:51:21Z</time>
      </trkpt>
      <trkpt lat="44.09615" lon="3.01812">
        <ele>572.3</ele>
        <time>2018-05-19T11:51:22Z</time>
      </trkpt>
      <trkpt lat="44.09611" lon="3.01808">
        <ele>572.8</ele>
        <time>2018-05-19T11:51:24Z</time>
      </trkpt>
      <trkpt lat="44.09607" lon="3.01805">
        <ele>573.3</ele>
        <time>2018-05-19T11:51:26Z</time>
      </trkpt>
      <trkpt lat="44.09602" lon="3.01802">
        <ele>573.7</ele>
        <time>2018-05-19T11:51:28Z</time>
      </trkpt>
      <trkpt lat="44.09599" lon="3.01799">
        <ele>574.1</ele>
        <time>2018-05-19T11:51:30Z</time>
      </trkpt>
      <trkpt lat="44.09595" lon="3.01796">
        <ele>574.5</ele>
        <time>2018-05-19T11:51:32Z</time>
      </trkpt>
      <trkpt lat="44.09592" lon="3.01793">
        <ele>575</ele>
        <time>2018-05-19T11:51:34Z</time>
      </trkpt>
      <trkpt lat="44.09588" lon="3.0179">
        <ele>575.7</ele>
        <time>2018-05-19T11:51:36Z</time>
      </trkpt>
      <trkpt lat="44.09585" lon="3.01787">
        <ele>576.1</ele>
        <time>2018-05-19T11:51:38Z</time>
      </trkpt>
      <trkpt lat="44.09581" lon="3.01785">
        <ele>576.2</ele>
        <time>2018-05-19T11:51:40Z</time>
      </trkpt>
      <trkpt lat="44.09578" lon="3.01783">
        <ele>576.3</ele>
        <time>2018-05-19T11:51:42Z</time>
      </trkpt>
      <trkpt lat="44.09575" lon="3.01781">
        <ele>576.5</ele>
        <time>2018-05-19T11:51:44Z</time>
      </trkpt>
      <trkpt lat="44.09572" lon="3.01778">
        <ele>576.6</ele>
        <time>2018-05-19T11:51:46Z</time>
      </trkpt>
      <trkpt lat="44.09569" lon="3.01775">
        <ele>576.5</ele>
        <time>2018-05-19T11:51:48Z</time>
      </trkpt>
      <trkpt lat="44.09565" lon="3.01772">
        <ele>576.5</ele>
        <time>2018-05-19T11:51:50Z</time>
      </trkpt>
      <trkpt lat="44.09562" lon="3.0177">
        <ele>576.8</ele>
        <time>2018-05-19T11:51:52Z</time>
      </trkpt>
      <trkpt lat="44.09559" lon="3.01766">
        <ele>577</ele>
        <time>2018-05-19T11:51:54Z</time>
      </trkpt>
      <trkpt lat="44.09556" lon="3.01762">
        <ele>577</ele>
        <time>2018-05-19T11:51:56Z</time>
      </trkpt>
      <trkpt lat="44.09552" lon="3.01758">
        <ele>577.1</ele>
        <time>2018-05-19T11:51:58Z</time>
      </trkpt>
      <trkpt lat="44.09548" lon="3.01754">
        <ele>577.2</ele>
        <time>2018-05-19T11:52:00Z</time>
      </trkpt>
      <trkpt lat="44.09546" lon="3.01751">
        <ele>577.2</ele>
        <time>2018-05-19T11:52:01Z</time>
      </trkpt>
      <trkpt lat="44.09544" lon="3.01748">
        <ele>577.2</ele>
        <time>2018-05-19T11:52:02Z</time>
      </trkpt>
      <trkpt lat="44.09542" lon="3.01745">
        <ele>577.2</ele>
        <time>2018-05-19T11:52:03Z</time>
      </trkpt>
      <trkpt lat="44.0954" lon="3.01742">
        <ele>577.2</ele>
        <time>2018-05-19T11:52:04Z</time>
      </trkpt>
      <trkpt lat="44.09538" lon="3.0174">
        <ele>577.1</ele>
        <time>2018-05-19T11:52:05Z</time>
      </trkpt>
      <trkpt lat="44.09536" lon="3.01737">
        <ele>577</ele>
        <time>2018-05-19T11:52:06Z</time>
      </trkpt>
      <trkpt lat="44.09534" lon="3.01735">
        <ele>576.9</ele>
        <time>2018-05-19T11:52:07Z</time>
      </trkpt>
      <trkpt lat="44.09532" lon="3.01732">
        <ele>576.9</ele>
        <time>2018-05-19T11:52:08Z</time>
      </trkpt>
      <trkpt lat="44.0953" lon="3.01729">
        <ele>576.8</ele>
        <time>2018-05-19T11:52:09Z</time>
      </trkpt>
      <trkpt lat="44.09528" lon="3.01726">
        <ele>576.8</ele>
        <time>2018-05-19T11:52:10Z</time>
      </trkpt>
      <trkpt lat="44.09526" lon="3.01722">
        <ele>576.7</ele>
        <time>2018-05-19T11:52:11Z</time>
      </trkpt>
      <trkpt lat="44.09524" lon="3.01719">
        <ele>576.7</ele>
        <time>2018-05-19T11:52:12Z</time>
      </trkpt>
      <trkpt lat="44.09522" lon="3.01717">
        <ele>576.7</ele>
        <time>2018-05-19T11:52:13Z</time>
      </trkpt>
      <trkpt lat="44.0952" lon="3.01713">
        <ele>576.7</ele>
        <time>2018-05-19T11:52:14Z</time>
      </trkpt>
      <trkpt lat="44.09518" lon="3.0171">
        <ele>576.5</ele>
        <time>2018-05-19T11:52:15Z</time>
      </trkpt>
      <trkpt lat="44.09515" lon="3.01707">
        <ele>576.3</ele>
        <time>2018-05-19T11:52:16Z</time>
      </trkpt>
      <trkpt lat="44.09513" lon="3.01703">
        <ele>576.3</ele>
        <time>2018-05-19T11:52:17Z</time>
      </trkpt>
      <trkpt lat="44.09511" lon="3.017">
        <ele>576.2</ele>
        <time>2018-05-19T11:52:18Z</time>
      </trkpt>
      <trkpt lat="44.09509" lon="3.01697">
        <ele>576.1</ele>
        <time>2018-05-19T11:52:19Z</time>
      </trkpt>
      <trkpt lat="44.09507" lon="3.01693">
        <ele>575.9</ele>
        <time>2018-05-19T11:52:20Z</time>
      </trkpt>
      <trkpt lat="44.09505" lon="3.01689">
        <ele>575.7</ele>
        <time>2018-05-19T11:52:21Z</time>
      </trkpt>
      <trkpt lat="44.09503" lon="3.01685">
        <ele>575.8</ele>
        <time>2018-05-19T11:52:22Z</time>
      </trkpt>
      <trkpt lat="44.09501" lon="3.01681">
        <ele>575.9</ele>
        <time>2018-05-19T11:52:23Z</time>
      </trkpt>
      <trkpt lat="44.09499" lon="3.01676">
        <ele>575.8</ele>
        <time>2018-05-19T11:52:24Z</time>
      </trkpt>
      <trkpt lat="44.09497" lon="3.01672">
        <ele>575.7</ele>
        <time>2018-05-19T11:52:25Z</time>
      </trkpt>
      <trkpt lat="44.09494" lon="3.01667">
        <ele>575.4</ele>
        <time>2018-05-19T11:52:26Z</time>
      </trkpt>
      <trkpt lat="44.09492" lon="3.01662">
        <ele>575.1</ele>
        <time>2018-05-19T11:52:27Z</time>
      </trkpt>
      <trkpt lat="44.0949" lon="3.01657">
        <ele>574.9</ele>
        <time>2018-05-19T11:52:28Z</time>
      </trkpt>
      <trkpt lat="44.09488" lon="3.01652">
        <ele>574.8</ele>
        <time>2018-05-19T11:52:29Z</time>
      </trkpt>
      <trkpt lat="44.09486" lon="3.01646">
        <ele>574.9</ele>
        <time>2018-05-19T11:52:30Z</time>
      </trkpt>
      <trkpt lat="44.09483" lon="3.0164">
        <ele>575</ele>
        <time>2018-05-19T11:52:31Z</time>
      </trkpt>
      <trkpt lat="44.09482" lon="3.01635">
        <ele>574.7</ele>
        <time>2018-05-19T11:52:32Z</time>
      </trkpt>
      <trkpt lat="44.0948" lon="3.01629">
        <ele>574.4</ele>
        <time>2018-05-19T11:52:33Z</time>
      </trkpt>
      <trkpt lat="44.09478" lon="3.01623">
        <ele>574.4</ele>
        <time>2018-05-19T11:52:34Z</time>
      </trkpt>
      <trkpt lat="44.09476" lon="3.01618">
        <ele>574.4</ele>
        <time>2018-05-19T11:52:35Z</time>
      </trkpt>
      <trkpt lat="44.09473" lon="3.01611">
        <ele>574.9</ele>
        <time>2018-05-19T11:52:36Z</time>
      </trkpt>
      <trkpt lat="44.09472" lon="3.01605">
        <ele>575</ele>
        <time>2018-05-19T11:52:37Z</time>
      </trkpt>
      <trkpt lat="44.0947" lon="3.01596">
        <ele>574.9</ele>
        <time>2018-05-19T11:52:38Z</time>
      </trkpt>
      <trkpt lat="44.09469" lon="3.01587">
        <ele>574.4</ele>
        <time>2018-05-19T11:52:39Z</time>
      </trkpt>
      <trkpt lat="44.09467" lon="3.0158">
        <ele>573.9</ele>
        <time>2018-05-19T11:52:40Z</time>
      </trkpt>
      <trkpt lat="44.09464" lon="3.0157">
        <ele>573.5</ele>
        <time>2018-05-19T11:52:41Z</time>
      </trkpt>
      <trkpt lat="44.09463" lon="3.01561">
        <ele>572.9</ele>
        <time>2018-05-19T11:52:42Z</time>
      </trkpt>
      <trkpt lat="44.09462" lon="3.01551">
        <ele>572.1</ele>
        <time>2018-05-19T11:52:43Z</time>
      </trkpt>
      <trkpt lat="44.09462" lon="3.0154">
        <ele>571.8</ele>
        <time>2018-05-19T11:52:44Z</time>
      </trkpt>
      <trkpt lat="44.09464" lon="3.0153">
        <ele>571.1</ele>
        <time>2018-05-19T11:52:45Z</time>
      </trkpt>
      <trkpt lat="44.09466" lon="3.01519">
        <ele>570.7</ele>
        <time>2018-05-19T11:52:46Z</time>
      </trkpt>
      <trkpt lat="44.09468" lon="3.01508">
        <ele>570.3</ele>
        <time>2018-05-19T11:52:47Z</time>
      </trkpt>
      <trkpt lat="44.0947" lon="3.01497">
        <ele>569.9</ele>
        <time>2018-05-19T11:52:48Z</time>
      </trkpt>
      <trkpt lat="44.09473" lon="3.01486">
        <ele>569.8</ele>
        <time>2018-05-19T11:52:49Z</time>
      </trkpt>
      <trkpt lat="44.09474" lon="3.01476">
        <ele>569.7</ele>
        <time>2018-05-19T11:52:50Z</time>
      </trkpt>
      <trkpt lat="44.09473" lon="3.01467">
        <ele>569.7</ele>
        <time>2018-05-19T11:52:51Z</time>
      </trkpt>
      <trkpt lat="44.0947" lon="3.01458">
        <ele>570</ele>
        <time>2018-05-19T11:52:52Z</time>
      </trkpt>
      <trkpt lat="44.09466" lon="3.01452">
        <ele>570.3</ele>
        <time>2018-05-19T11:52:53Z</time>
      </trkpt>
      <trkpt lat="44.09462" lon="3.01445">
        <ele>570.5</ele>
        <time>2018-05-19T11:52:54Z</time>
      </trkpt>
      <trkpt lat="44.09458" lon="3.01438">
        <ele>570.8</ele>
        <time>2018-05-19T11:52:55Z</time>
      </trkpt>
      <trkpt lat="44.09453" lon="3.01429">
        <ele>571</ele>
        <time>2018-05-19T11:52:56Z</time>
      </trkpt>
      <trkpt lat="44.09448" lon="3.01421">
        <ele>571.1</ele>
        <time>2018-05-19T11:52:57Z</time>
      </trkpt>
      <trkpt lat="44.09445" lon="3.01414">
        <ele>571.1</ele>
        <time>2018-05-19T11:52:58Z</time>
      </trkpt>
      <trkpt lat="44.0944" lon="3.01407">
        <ele>571.1</ele>
        <time>2018-05-19T11:52:59Z</time>
      </trkpt>
      <trkpt lat="44.09436" lon="3.01401">
        <ele>570.9</ele>
        <time>2018-05-19T11:53:00Z</time>
      </trkpt>
      <trkpt lat="44.0943" lon="3.01393">
        <ele>570.7</ele>
        <time>2018-05-19T11:53:01Z</time>
      </trkpt>
      <trkpt lat="44.09425" lon="3.01386">
        <ele>570.5</ele>
        <time>2018-05-19T11:53:02Z</time>
      </trkpt>
      <trkpt lat="44.09419" lon="3.01378">
        <ele>570.3</ele>
        <time>2018-05-19T11:53:03Z</time>
      </trkpt>
      <trkpt lat="44.09415" lon="3.01372">
        <ele>570.1</ele>
        <time>2018-05-19T11:53:04Z</time>
      </trkpt>
      <trkpt lat="44.0941" lon="3.01366">
        <ele>569.9</ele>
        <time>2018-05-19T11:53:05Z</time>
      </trkpt>
      <trkpt lat="44.09404" lon="3.01359">
        <ele>569.6</ele>
        <time>2018-05-19T11:53:06Z</time>
      </trkpt>
      <trkpt lat="44.09399" lon="3.01353">
        <ele>569.2</ele>
        <time>2018-05-19T11:53:07Z</time>
      </trkpt>
      <trkpt lat="44.09393" lon="3.01347">
        <ele>568.6</ele>
        <time>2018-05-19T11:53:08Z</time>
      </trkpt>
      <trkpt lat="44.09387" lon="3.01342">
        <ele>568</ele>
        <time>2018-05-19T11:53:09Z</time>
      </trkpt>
      <trkpt lat="44.0938" lon="3.01334">
        <ele>567</ele>
        <time>2018-05-19T11:53:10Z</time>
      </trkpt>
      <trkpt lat="44.09373" lon="3.01326">
        <ele>566.4</ele>
        <time>2018-05-19T11:53:11Z</time>
      </trkpt>
      <trkpt lat="44.09366" lon="3.0132">
        <ele>565.8</ele>
        <time>2018-05-19T11:53:12Z</time>
      </trkpt>
      <trkpt lat="44.09359" lon="3.01315">
        <ele>565.1</ele>
        <time>2018-05-19T11:53:13Z</time>
      </trkpt>
      <trkpt lat="44.09352" lon="3.01308">
        <ele>564.2</ele>
        <time>2018-05-19T11:53:14Z</time>
      </trkpt>
      <trkpt lat="44.09345" lon="3.01302">
        <ele>563.2</ele>
        <time>2018-05-19T11:53:15Z</time>
      </trkpt>
      <trkpt lat="44.09339" lon="3.01296">
        <ele>562.4</ele>
        <time>2018-05-19T11:53:16Z</time>
      </trkpt>
      <trkpt lat="44.09337" lon="3.01293">
        <ele>562.1</ele>
        <time>2018-05-19T11:53:17Z</time>
      </trkpt>
      <trkpt lat="44.09335" lon="3.0129">
        <ele>561.9</ele>
        <time>2018-05-19T11:53:35Z</time>
      </trkpt>
      <trkpt lat="44.09334" lon="3.01295">
        <ele>561.6</ele>
        <time>2018-05-19T11:53:45Z</time>
      </trkpt>
      <trkpt lat="44.09331" lon="3.01299">
        <ele>561.3</ele>
        <time>2018-05-19T11:53:47Z</time>
      </trkpt>
      <trkpt lat="44.09327" lon="3.01302">
        <ele>560.7</ele>
        <time>2018-05-19T11:53:49Z</time>
      </trkpt>
      <trkpt lat="44.09323" lon="3.01304">
        <ele>559.9</ele>
        <time>2018-05-19T11:53:50Z</time>
      </trkpt>
      <trkpt lat="44.09318" lon="3.01307">
        <ele>558.7</ele>
        <time>2018-05-19T11:53:51Z</time>
      </trkpt>
      <trkpt lat="44.09313" lon="3.01309">
        <ele>558</ele>
        <time>2018-05-19T11:53:52Z</time>
      </trkpt>
      <trkpt lat="44.09309" lon="3.01311">
        <ele>557.5</ele>
        <time>2018-05-19T11:53:53Z</time>
      </trkpt>
      <trkpt lat="44.09305" lon="3.0131">
        <ele>556.8</ele>
        <time>2018-05-19T11:53:54Z</time>
      </trkpt>
      <trkpt lat="44.09302" lon="3.0131">
        <ele>556.2</ele>
        <time>2018-05-19T11:53:55Z</time>
      </trkpt>
      <trkpt lat="44.09298" lon="3.01313">
        <ele>555.1</ele>
        <time>2018-05-19T11:53:56Z</time>
      </trkpt>
      <trkpt lat="44.09293" lon="3.01317">
        <ele>554.3</ele>
        <time>2018-05-19T11:53:57Z</time>
      </trkpt>
      <trkpt lat="44.0929" lon="3.01321">
        <ele>554</ele>
        <time>2018-05-19T11:53:58Z</time>
      </trkpt>
      <trkpt lat="44.09285" lon="3.01327">
        <ele>553.3</ele>
        <time>2018-05-19T11:53:59Z</time>
      </trkpt>
      <trkpt lat="44.09281" lon="3.01331">
        <ele>553</ele>
        <time>2018-05-19T11:54:00Z</time>
      </trkpt>
      <trkpt lat="44.09279" lon="3.01336">
        <ele>552.7</ele>
        <time>2018-05-19T11:54:01Z</time>
      </trkpt>
      <trkpt lat="44.09277" lon="3.01342">
        <ele>552.5</ele>
        <time>2018-05-19T11:54:02Z</time>
      </trkpt>
      <trkpt lat="44.09274" lon="3.01347">
        <ele>552.3</ele>
        <time>2018-05-19T11:54:03Z</time>
      </trkpt>
      <trkpt lat="44.0927" lon="3.0135">
        <ele>552.1</ele>
        <time>2018-05-19T11:54:04Z</time>
      </trkpt>
      <trkpt lat="44.09266" lon="3.01353">
        <ele>552</ele>
        <time>2018-05-19T11:54:05Z</time>
      </trkpt>
      <trkpt lat="44.09262" lon="3.01361">
        <ele>551.8</ele>
        <time>2018-05-19T11:54:06Z</time>
      </trkpt>
      <trkpt lat="44.09261" lon="3.01367">
        <ele>551.7</ele>
        <time>2018-05-19T11:54:07Z</time>
      </trkpt>
      <trkpt lat="44.09258" lon="3.01372">
        <ele>551.5</ele>
        <time>2018-05-19T11:54:08Z</time>
      </trkpt>
      <trkpt lat="44.09253" lon="3.01377">
        <ele>551.3</ele>
        <time>2018-05-19T11:54:09Z</time>
      </trkpt>
      <trkpt lat="44.09247" lon="3.01384">
        <ele>551</ele>
        <time>2018-05-19T11:54:10Z</time>
      </trkpt>
      <trkpt lat="44.0924" lon="3.01388">
        <ele>550.5</ele>
        <time>2018-05-19T11:54:11Z</time>
      </trkpt>
      <trkpt lat="44.09234" lon="3.01391">
        <ele>549.6</ele>
        <time>2018-05-19T11:54:12Z</time>
      </trkpt>
      <trkpt lat="44.09226" lon="3.01392">
        <ele>548.7</ele>
        <time>2018-05-19T11:54:13Z</time>
      </trkpt>
      <trkpt lat="44.09217" lon="3.01393">
        <ele>548.3</ele>
        <time>2018-05-19T11:54:14Z</time>
      </trkpt>
      <trkpt lat="44.09208" lon="3.01395">
        <ele>547.7</ele>
        <time>2018-05-19T11:54:15Z</time>
      </trkpt>
      <trkpt lat="44.092" lon="3.01397">
        <ele>547.4</ele>
        <time>2018-05-19T11:54:16Z</time>
      </trkpt>
      <trkpt lat="44.09191" lon="3.014">
        <ele>547.1</ele>
        <time>2018-05-19T11:54:17Z</time>
      </trkpt>
      <trkpt lat="44.09183" lon="3.01403">
        <ele>546.6</ele>
        <time>2018-05-19T11:54:18Z</time>
      </trkpt>
      <trkpt lat="44.09177" lon="3.01405">
        <ele>546.3</ele>
        <time>2018-05-19T11:54:19Z</time>
      </trkpt>
      <trkpt lat="44.09173" lon="3.01407">
        <ele>545.1</ele>
        <time>2018-05-19T11:54:20Z</time>
      </trkpt>
      <trkpt lat="44.0917" lon="3.01407">
        <ele>543.9</ele>
        <time>2018-05-19T11:54:21Z</time>
      </trkpt>
      <trkpt lat="44.09167" lon="3.0141">
        <ele>543.2</ele>
        <time>2018-05-19T11:54:22Z</time>
      </trkpt>
      <trkpt lat="44.09163" lon="3.01412">
        <ele>542.6</ele>
        <time>2018-05-19T11:54:23Z</time>
      </trkpt>
      <trkpt lat="44.0916" lon="3.01413">
        <ele>542.1</ele>
        <time>2018-05-19T11:54:24Z</time>
      </trkpt>
      <trkpt lat="44.09157" lon="3.01414">
        <ele>541.8</ele>
        <time>2018-05-19T11:54:25Z</time>
      </trkpt>
      <trkpt lat="44.09153" lon="3.01417">
        <ele>541.3</ele>
        <time>2018-05-19T11:54:29Z</time>
      </trkpt>
      <trkpt lat="44.09151" lon="3.01419">
        <ele>540.6</ele>
        <time>2018-05-19T11:54:31Z</time>
      </trkpt>
      <trkpt lat="44.09147" lon="3.01421">
        <ele>539.3</ele>
        <time>2018-05-19T11:54:33Z</time>
      </trkpt>
      <trkpt lat="44.09144" lon="3.01421">
        <ele>538.6</ele>
        <time>2018-05-19T11:54:35Z</time>
      </trkpt>
      <trkpt lat="44.09139" lon="3.01419">
        <ele>538.1</ele>
        <time>2018-05-19T11:54:37Z</time>
      </trkpt>
      <trkpt lat="44.09135" lon="3.01419">
        <ele>537.5</ele>
        <time>2018-05-19T11:54:39Z</time>
      </trkpt>
      <trkpt lat="44.09132" lon="3.0142">
        <ele>537.1</ele>
        <time>2018-05-19T11:54:40Z</time>
      </trkpt>
      <trkpt lat="44.09127" lon="3.01422">
        <ele>536.8</ele>
        <time>2018-05-19T11:54:41Z</time>
      </trkpt>
      <trkpt lat="44.09121" lon="3.01427">
        <ele>536</ele>
        <time>2018-05-19T11:54:42Z</time>
      </trkpt>
      <trkpt lat="44.09117" lon="3.01431">
        <ele>535</ele>
        <time>2018-05-19T11:54:43Z</time>
      </trkpt>
      <trkpt lat="44.09112" lon="3.01435">
        <ele>534.4</ele>
        <time>2018-05-19T11:54:44Z</time>
      </trkpt>
      <trkpt lat="44.09108" lon="3.01437">
        <ele>534</ele>
        <time>2018-05-19T11:54:45Z</time>
      </trkpt>
      <trkpt lat="44.09105" lon="3.01438">
        <ele>533.7</ele>
        <time>2018-05-19T11:54:46Z</time>
      </trkpt>
      <trkpt lat="44.09102" lon="3.01439">
        <ele>533.5</ele>
        <time>2018-05-19T11:54:47Z</time>
      </trkpt>
      <trkpt lat="44.09101" lon="3.01443">
        <ele>533.3</ele>
        <time>2018-05-19T11:54:48Z</time>
      </trkpt>
      <trkpt lat="44.09098" lon="3.01448">
        <ele>532.8</ele>
        <time>2018-05-19T11:54:50Z</time>
      </trkpt>
      <trkpt lat="44.09096" lon="3.01451">
        <ele>532.3</ele>
        <time>2018-05-19T11:54:51Z</time>
      </trkpt>
      <trkpt lat="44.09091" lon="3.01454">
        <ele>530.9</ele>
        <time>2018-05-19T11:54:53Z</time>
      </trkpt>
      <trkpt lat="44.09088" lon="3.01456">
        <ele>530.4</ele>
        <time>2018-05-19T11:54:54Z</time>
      </trkpt>
      <trkpt lat="44.09085" lon="3.01458">
        <ele>529.8</ele>
        <time>2018-05-19T11:54:55Z</time>
      </trkpt>
      <trkpt lat="44.0908" lon="3.01462">
        <ele>529.4</ele>
        <time>2018-05-19T11:54:56Z</time>
      </trkpt>
      <trkpt lat="44.09075" lon="3.01464">
        <ele>529</ele>
        <time>2018-05-19T11:54:57Z</time>
      </trkpt>
      <trkpt lat="44.09067" lon="3.01462">
        <ele>528.6</ele>
        <time>2018-05-19T11:54:58Z</time>
      </trkpt>
      <trkpt lat="44.0906" lon="3.01462">
        <ele>527.6</ele>
        <time>2018-05-19T11:54:59Z</time>
      </trkpt>
      <trkpt lat="44.09053" lon="3.01463">
        <ele>526.5</ele>
        <time>2018-05-19T11:55:00Z</time>
      </trkpt>
      <trkpt lat="44.09044" lon="3.01464">
        <ele>525.9</ele>
        <time>2018-05-19T11:55:01Z</time>
      </trkpt>
      <trkpt lat="44.09039" lon="3.01467">
        <ele>525.6</ele>
        <time>2018-05-19T11:55:02Z</time>
      </trkpt>
      <trkpt lat="44.09034" lon="3.01471">
        <ele>525.1</ele>
        <time>2018-05-19T11:55:03Z</time>
      </trkpt>
      <trkpt lat="44.0903" lon="3.01476">
        <ele>524.2</ele>
        <time>2018-05-19T11:55:04Z</time>
      </trkpt>
      <trkpt lat="44.09026" lon="3.01481">
        <ele>523.8</ele>
        <time>2018-05-19T11:55:05Z</time>
      </trkpt>
      <trkpt lat="44.09022" lon="3.01487">
        <ele>523.2</ele>
        <time>2018-05-19T11:55:06Z</time>
      </trkpt>
      <trkpt lat="44.09017" lon="3.01495">
        <ele>522.7</ele>
        <time>2018-05-19T11:55:07Z</time>
      </trkpt>
      <trkpt lat="44.09013" lon="3.01502">
        <ele>522.3</ele>
        <time>2018-05-19T11:55:08Z</time>
      </trkpt>
      <trkpt lat="44.09009" lon="3.01507">
        <ele>521.3</ele>
        <time>2018-05-19T11:55:09Z</time>
      </trkpt>
      <trkpt lat="44.09006" lon="3.01511">
        <ele>520.8</ele>
        <time>2018-05-19T11:55:11Z</time>
      </trkpt>
      <trkpt lat="44.09003" lon="3.01514">
        <ele>520.5</ele>
        <time>2018-05-19T11:55:12Z</time>
      </trkpt>
      <trkpt lat="44.09001" lon="3.01517">
        <ele>520.3</ele>
        <time>2018-05-19T11:55:15Z</time>
      </trkpt>
      <trkpt lat="44.08999" lon="3.01519">
        <ele>520.2</ele>
        <time>2018-05-19T11:55:24Z</time>
      </trkpt>
      <trkpt lat="44.09" lon="3.01524">
        <ele>520</ele>
        <time>2018-05-19T11:56:06Z</time>
      </trkpt>
      <trkpt lat="44.08997" lon="3.01528">
        <ele>519.7</ele>
        <time>2018-05-19T11:56:10Z</time>
      </trkpt>
      <trkpt lat="44.08994" lon="3.01532">
        <ele>519.6</ele>
        <time>2018-05-19T11:56:12Z</time>
      </trkpt>
      <trkpt lat="44.08993" lon="3.01537">
        <ele>519.4</ele>
        <time>2018-05-19T11:56:13Z</time>
      </trkpt>
      <trkpt lat="44.08991" lon="3.01543">
        <ele>518.6</ele>
        <time>2018-05-19T11:56:14Z</time>
      </trkpt>
      <trkpt lat="44.08988" lon="3.0156">
        <ele>517.2</ele>
        <time>2018-05-19T11:56:15Z</time>
      </trkpt>
      <trkpt lat="44.08986" lon="3.0157">
        <ele>516.7</ele>
        <time>2018-05-19T11:56:16Z</time>
      </trkpt>
      <trkpt lat="44.08984" lon="3.0158">
        <ele>516.3</ele>
        <time>2018-05-19T11:56:17Z</time>
      </trkpt>
      <trkpt lat="44.08981" lon="3.01591">
        <ele>515.2</ele>
        <time>2018-05-19T11:56:18Z</time>
      </trkpt>
      <trkpt lat="44.08979" lon="3.01601">
        <ele>514.8</ele>
        <time>2018-05-19T11:56:19Z</time>
      </trkpt>
      <trkpt lat="44.08979" lon="3.01612">
        <ele>514.4</ele>
        <time>2018-05-19T11:56:20Z</time>
      </trkpt>
      <trkpt lat="44.08977" lon="3.01623">
        <ele>514.2</ele>
        <time>2018-05-19T11:56:21Z</time>
      </trkpt>
      <trkpt lat="44.08979" lon="3.0163">
        <ele>514.2</ele>
        <time>2018-05-19T11:56:22Z</time>
      </trkpt>
      <trkpt lat="44.0898" lon="3.01637">
        <ele>514.1</ele>
        <time>2018-05-19T11:56:23Z</time>
      </trkpt>
      <trkpt lat="44.0898" lon="3.01643">
        <ele>514.1</ele>
        <time>2018-05-19T11:56:24Z</time>
      </trkpt>
      <trkpt lat="44.08985" lon="3.0165">
        <ele>514</ele>
        <time>2018-05-19T11:56:26Z</time>
      </trkpt>
      <trkpt lat="44.08986" lon="3.01655">
        <ele>514</ele>
        <time>2018-05-19T11:56:27Z</time>
      </trkpt>
      <trkpt lat="44.08988" lon="3.0166">
        <ele>513.9</ele>
        <time>2018-05-19T11:56:28Z</time>
      </trkpt>
      <trkpt lat="44.08989" lon="3.01665">
        <ele>513.9</ele>
        <time>2018-05-19T11:56:29Z</time>
      </trkpt>
      <trkpt lat="44.0899" lon="3.01669">
        <ele>513.8</ele>
        <time>2018-05-19T11:56:30Z</time>
      </trkpt>
      <trkpt lat="44.08993" lon="3.01676">
        <ele>513.8</ele>
        <time>2018-05-19T11:56:32Z</time>
      </trkpt>
      <trkpt lat="44.08995" lon="3.01678">
        <ele>513.7</ele>
        <time>2018-05-19T11:56:33Z</time>
      </trkpt>
      <trkpt lat="44.08998" lon="3.01682">
        <ele>513.7</ele>
        <time>2018-05-19T11:56:35Z</time>
      </trkpt>
      <trkpt lat="44.09002" lon="3.01684">
        <ele>513.7</ele>
        <time>2018-05-19T11:56:37Z</time>
      </trkpt>
      <trkpt lat="44.09005" lon="3.01685">
        <ele>513.7</ele>
        <time>2018-05-19T11:56:39Z</time>
      </trkpt>
      <trkpt lat="44.09008" lon="3.01685">
        <ele>513.6</ele>
        <time>2018-05-19T11:56:42Z</time>
      </trkpt>
      <trkpt lat="44.09005" lon="3.01685">
        <ele>513.6</ele>
        <time>2018-05-19T11:57:27Z</time>
      </trkpt>
      <trkpt lat="44.09008" lon="3.01688">
        <ele>513.6</ele>
        <time>2018-05-19T11:57:33Z</time>
      </trkpt>
      <trkpt lat="44.09011" lon="3.01688">
        <ele>513.6</ele>
        <time>2018-05-19T11:57:38Z</time>
      </trkpt>
      <trkpt lat="44.09014" lon="3.0169">
        <ele>513.6</ele>
        <time>2018-05-19T11:57:42Z</time>
      </trkpt>
      <trkpt lat="44.09018" lon="3.01691">
        <ele>513.6</ele>
        <time>2018-05-19T11:57:45Z</time>
      </trkpt>
      <trkpt lat="44.0902" lon="3.01694">
        <ele>513.5</ele>
        <time>2018-05-19T11:57:51Z</time>
      </trkpt>
      <trkpt lat="44.09022" lon="3.01695">
        <ele>513.5</ele>
        <time>2018-05-19T11:57:54Z</time>
      </trkpt>
      <trkpt lat="44.09026" lon="3.01697">
        <ele>513.5</ele>
        <time>2018-05-19T11:57:58Z</time>
      </trkpt>
      <trkpt lat="44.09029" lon="3.01699">
        <ele>513.5</ele>
        <time>2018-05-19T11:58:02Z</time>
      </trkpt>
      <trkpt lat="44.09032" lon="3.017">
        <ele>513.5</ele>
        <time>2018-05-19T11:58:05Z</time>
      </trkpt>
      <trkpt lat="44.09035" lon="3.01703">
        <ele>513.5</ele>
        <time>2018-05-19T11:58:09Z</time>
      </trkpt>
      <trkpt lat="44.09038" lon="3.01703">
        <ele>513.5</ele>
        <time>2018-05-19T11:58:13Z</time>
      </trkpt>
      <trkpt lat="44.09043" lon="3.01704">
        <ele>513.4</ele>
        <time>2018-05-19T11:58:16Z</time>
      </trkpt>
      <trkpt lat="44.09046" lon="3.01705">
        <ele>513.4</ele>
        <time>2018-05-19T11:58:18Z</time>
      </trkpt>
      <trkpt lat="44.0905" lon="3.01706">
        <ele>513.4</ele>
        <time>2018-05-19T11:58:20Z</time>
      </trkpt>
      <trkpt lat="44.09054" lon="3.01707">
        <ele>513.4</ele>
        <time>2018-05-19T11:58:22Z</time>
      </trkpt>
      <trkpt lat="44.09058" lon="3.01709">
        <ele>513.4</ele>
        <time>2018-05-19T11:58:24Z</time>
      </trkpt>
      <trkpt lat="44.09061" lon="3.01711">
        <ele>513.3</ele>
        <time>2018-05-19T11:58:26Z</time>
      </trkpt>
      <trkpt lat="44.09066" lon="3.01714">
        <ele>513.3</ele>
        <time>2018-05-19T11:58:28Z</time>
      </trkpt>
      <trkpt lat="44.0907" lon="3.01716">
        <ele>513.3</ele>
        <time>2018-05-19T11:58:30Z</time>
      </trkpt>
      <trkpt lat="44.09073" lon="3.01718">
        <ele>513.3</ele>
        <time>2018-05-19T11:58:32Z</time>
      </trkpt>
      <trkpt lat="44.09077" lon="3.01721">
        <ele>513.2</ele>
        <time>2018-05-19T11:58:34Z</time>
      </trkpt>
      <trkpt lat="44.0908" lon="3.01724">
        <ele>513.2</ele>
        <time>2018-05-19T11:58:36Z</time>
      </trkpt>
      <trkpt lat="44.09083" lon="3.01727">
        <ele>513.2</ele>
        <time>2018-05-19T11:58:38Z</time>
      </trkpt>
      <trkpt lat="44.09085" lon="3.01729">
        <ele>513.2</ele>
        <time>2018-05-19T11:58:40Z</time>
      </trkpt>
      <trkpt lat="44.09088" lon="3.01731">
        <ele>513.2</ele>
        <time>2018-05-19T11:58:43Z</time>
      </trkpt>
      <trkpt lat="44.0909" lon="3.01733">
        <ele>513.2</ele>
        <time>2018-05-19T11:58:45Z</time>
      </trkpt>
      <trkpt lat="44.09092" lon="3.01736">
        <ele>513.1</ele>
        <time>2018-05-19T11:58:47Z</time>
      </trkpt>
      <trkpt lat="44.09095" lon="3.01739">
        <ele>513.1</ele>
        <time>2018-05-19T11:58:49Z</time>
      </trkpt>
      <trkpt lat="44.09098" lon="3.01742">
        <ele>513.1</ele>
        <time>2018-05-19T11:58:51Z</time>
      </trkpt>
      <trkpt lat="44.09101" lon="3.01745">
        <ele>513.1</ele>
        <time>2018-05-19T11:58:53Z</time>
      </trkpt>
      <trkpt lat="44.09103" lon="3.01747">
        <ele>513.1</ele>
        <time>2018-05-19T11:58:55Z</time>
      </trkpt>
      <trkpt lat="44.09106" lon="3.0175">
        <ele>513.1</ele>
        <time>2018-05-19T11:58:57Z</time>
      </trkpt>
      <trkpt lat="44.09108" lon="3.01752">
        <ele>513.1</ele>
        <time>2018-05-19T11:58:59Z</time>
      </trkpt>
      <trkpt lat="44.0911" lon="3.01755">
        <ele>513</ele>
        <time>2018-05-19T11:59:01Z</time>
      </trkpt>
      <trkpt lat="44.09112" lon="3.01758">
        <ele>513</ele>
        <time>2018-05-19T11:59:03Z</time>
      </trkpt>
      <trkpt lat="44.09114" lon="3.01761">
        <ele>513</ele>
        <time>2018-05-19T11:59:05Z</time>
      </trkpt>
      <trkpt lat="44.09116" lon="3.01764">
        <ele>513</ele>
        <time>2018-05-19T11:59:07Z</time>
      </trkpt>
      <trkpt lat="44.09118" lon="3.01768">
        <ele>512.9</ele>
        <time>2018-05-19T11:59:09Z</time>
      </trkpt>
      <trkpt lat="44.09121" lon="3.01771">
        <ele>512.9</ele>
        <time>2018-05-19T11:59:12Z</time>
      </trkpt>
      <trkpt lat="44.09123" lon="3.01773">
        <ele>512.9</ele>
        <time>2018-05-19T11:59:14Z</time>
      </trkpt>
      <trkpt lat="44.09126" lon="3.01776">
        <ele>512.9</ele>
        <time>2018-05-19T11:59:17Z</time>
      </trkpt>
      <trkpt lat="44.09129" lon="3.01778">
        <ele>512.9</ele>
        <time>2018-05-19T11:59:19Z</time>
      </trkpt>
      <trkpt lat="44.09132" lon="3.0178">
        <ele>512.8</ele>
        <time>2018-05-19T11:59:21Z</time>
      </trkpt>
      <trkpt lat="44.09135" lon="3.01783">
        <ele>512.8</ele>
        <time>2018-05-19T11:59:23Z</time>
      </trkpt>
      <trkpt lat="44.09138" lon="3.01786">
        <ele>512.8</ele>
        <time>2018-05-19T11:59:25Z</time>
      </trkpt>
      <trkpt lat="44.0914" lon="3.01789">
        <ele>512.7</ele>
        <time>2018-05-19T11:59:28Z</time>
      </trkpt>
      <trkpt lat="44.09142" lon="3.01792">
        <ele>512.7</ele>
        <time>2018-05-19T11:59:30Z</time>
      </trkpt>
      <trkpt lat="44.09144" lon="3.01795">
        <ele>512.7</ele>
        <time>2018-05-19T11:59:32Z</time>
      </trkpt>
      <trkpt lat="44.09148" lon="3.01798">
        <ele>512.6</ele>
        <time>2018-05-19T11:59:35Z</time>
      </trkpt>
      <trkpt lat="44.09151" lon="3.018">
        <ele>512.6</ele>
        <time>2018-05-19T11:59:38Z</time>
      </trkpt>
      <trkpt lat="44.09154" lon="3.01802">
        <ele>512.6</ele>
        <time>2018-05-19T11:59:42Z</time>
      </trkpt>
      <trkpt lat="44.09156" lon="3.01805">
        <ele>512.5</ele>
        <time>2018-05-19T11:59:45Z</time>
      </trkpt>
      <trkpt lat="44.09158" lon="3.01809">
        <ele>512.5</ele>
        <time>2018-05-19T11:59:47Z</time>
      </trkpt>
      <trkpt lat="44.0916" lon="3.01813">
        <ele>512.4</ele>
        <time>2018-05-19T11:59:49Z</time>
      </trkpt>
      <trkpt lat="44.09162" lon="3.01816">
        <ele>512.4</ele>
        <time>2018-05-19T11:59:51Z</time>
      </trkpt>
      <trkpt lat="44.09164" lon="3.0182">
        <ele>512.4</ele>
        <time>2018-05-19T11:59:54Z</time>
      </trkpt>
      <trkpt lat="44.09162" lon="3.01824">
        <ele>512.3</ele>
        <time>2018-05-19T12:04:12Z</time>
      </trkpt>
      <trkpt lat="44.09159" lon="3.01826">
        <ele>512.3</ele>
        <time>2018-05-19T12:04:14Z</time>
      </trkpt>
      <trkpt lat="44.09155" lon="3.0183">
        <ele>512.2</ele>
        <time>2018-05-19T12:04:16Z</time>
      </trkpt>
      <trkpt lat="44.09152" lon="3.01833">
        <ele>512.1</ele>
        <time>2018-05-19T12:04:18Z</time>
      </trkpt>
      <trkpt lat="44.09149" lon="3.01836">
        <ele>512</ele>
        <time>2018-05-19T12:04:20Z</time>
      </trkpt>
      <trkpt lat="44.09145" lon="3.01839">
        <ele>511.9</ele>
        <time>2018-05-19T12:04:22Z</time>
      </trkpt>
      <trkpt lat="44.09142" lon="3.01843">
        <ele>511.9</ele>
        <time>2018-05-19T12:04:24Z</time>
      </trkpt>
      <trkpt lat="44.0914" lon="3.01847">
        <ele>511.8</ele>
        <time>2018-05-19T12:04:26Z</time>
      </trkpt>
      <trkpt lat="44.09138" lon="3.01851">
        <ele>511.7</ele>
        <time>2018-05-19T12:04:28Z</time>
      </trkpt>
      <trkpt lat="44.09136" lon="3.01854">
        <ele>511.6</ele>
        <time>2018-05-19T12:04:30Z</time>
      </trkpt>
      <trkpt lat="44.09134" lon="3.01859">
        <ele>511.4</ele>
        <time>2018-05-19T12:04:32Z</time>
      </trkpt>
      <trkpt lat="44.09132" lon="3.01863">
        <ele>511.3</ele>
        <time>2018-05-19T12:04:35Z</time>
      </trkpt>
      <trkpt lat="44.0913" lon="3.01867">
        <ele>511.1</ele>
        <time>2018-05-19T12:04:37Z</time>
      </trkpt>
      <trkpt lat="44.09129" lon="3.01871">
        <ele>511</ele>
        <time>2018-05-19T12:04:39Z</time>
      </trkpt>
      <trkpt lat="44.09127" lon="3.01874">
        <ele>510.8</ele>
        <time>2018-05-19T12:04:41Z</time>
      </trkpt>
      <trkpt lat="44.09126" lon="3.01878">
        <ele>510.6</ele>
        <time>2018-05-19T12:04:43Z</time>
      </trkpt>
      <trkpt lat="44.09124" lon="3.01882">
        <ele>510.5</ele>
        <time>2018-05-19T12:04:45Z</time>
      </trkpt>
      <trkpt lat="44.09121" lon="3.01886">
        <ele>510.2</ele>
        <time>2018-05-19T12:04:47Z</time>
      </trkpt>
      <trkpt lat="44.09119" lon="3.0189">
        <ele>510</ele>
        <time>2018-05-19T12:04:49Z</time>
      </trkpt>
      <trkpt lat="44.09117" lon="3.01892">
        <ele>509.9</ele>
        <time>2018-05-19T12:04:51Z</time>
      </trkpt>
      <trkpt lat="44.09114" lon="3.01894">
        <ele>509.8</ele>
        <time>2018-05-19T12:04:53Z</time>
      </trkpt>
      <trkpt lat="44.09111" lon="3.01896">
        <ele>509.6</ele>
        <time>2018-05-19T12:04:55Z</time>
      </trkpt>
      <trkpt lat="44.09109" lon="3.01899">
        <ele>509.5</ele>
        <time>2018-05-19T12:04:57Z</time>
      </trkpt>
      <trkpt lat="44.09107" lon="3.01902">
        <ele>509.4</ele>
        <time>2018-05-19T12:04:59Z</time>
      </trkpt>
      <trkpt lat="44.09103" lon="3.01905">
        <ele>509.2</ele>
        <time>2018-05-19T12:05:01Z</time>
      </trkpt>
      <trkpt lat="44.09097" lon="3.01906">
        <ele>509</ele>
        <time>2018-05-19T12:05:03Z</time>
      </trkpt>
      <trkpt lat="44.09091" lon="3.01907">
        <ele>509.3</ele>
        <time>2018-05-19T12:05:04Z</time>
      </trkpt>
      <trkpt lat="44.09085" lon="3.01908">
        <ele>509.5</ele>
        <time>2018-05-19T12:05:05Z</time>
      </trkpt>
      <trkpt lat="44.09079" lon="3.01908">
        <ele>509.7</ele>
        <time>2018-05-19T12:05:06Z</time>
      </trkpt>
      <trkpt lat="44.09072" lon="3.01907">
        <ele>510.1</ele>
        <time>2018-05-19T12:05:07Z</time>
      </trkpt>
      <trkpt lat="44.09065" lon="3.01906">
        <ele>510.2</ele>
        <time>2018-05-19T12:05:08Z</time>
      </trkpt>
      <trkpt lat="44.09059" lon="3.01908">
        <ele>510.2</ele>
        <time>2018-05-19T12:05:09Z</time>
      </trkpt>
      <trkpt lat="44.09055" lon="3.01908">
        <ele>510.2</ele>
        <time>2018-05-19T12:05:10Z</time>
      </trkpt>
      <trkpt lat="44.09048" lon="3.01909">
        <ele>510.2</ele>
        <time>2018-05-19T12:05:11Z</time>
      </trkpt>
      <trkpt lat="44.09043" lon="3.0191">
        <ele>510.2</ele>
        <time>2018-05-19T12:05:12Z</time>
      </trkpt>
      <trkpt lat="44.09036" lon="3.01909">
        <ele>510.3</ele>
        <time>2018-05-19T12:05:13Z</time>
      </trkpt>
      <trkpt lat="44.0903" lon="3.01908">
        <ele>510.3</ele>
        <time>2018-05-19T12:05:14Z</time>
      </trkpt>
      <trkpt lat="44.09024" lon="3.01908">
        <ele>510.4</ele>
        <time>2018-05-19T12:05:15Z</time>
      </trkpt>
      <trkpt lat="44.09016" lon="3.0191">
        <ele>510.6</ele>
        <time>2018-05-19T12:05:16Z</time>
      </trkpt>
      <trkpt lat="44.0901" lon="3.01913">
        <ele>510.7</ele>
        <time>2018-05-19T12:05:17Z</time>
      </trkpt>
      <trkpt lat="44.09005" lon="3.01916">
        <ele>510.9</ele>
        <time>2018-05-19T12:05:18Z</time>
      </trkpt>
      <trkpt lat="44.08999" lon="3.01918">
        <ele>511</ele>
        <time>2018-05-19T12:05:19Z</time>
      </trkpt>
      <trkpt lat="44.08992" lon="3.01921">
        <ele>511.1</ele>
        <time>2018-05-19T12:05:20Z</time>
      </trkpt>
      <trkpt lat="44.08986" lon="3.01923">
        <ele>511.2</ele>
        <time>2018-05-19T12:05:21Z</time>
      </trkpt>
      <trkpt lat="44.08979" lon="3.01924">
        <ele>511.4</ele>
        <time>2018-05-19T12:05:22Z</time>
      </trkpt>
      <trkpt lat="44.08973" lon="3.01926">
        <ele>511.7</ele>
        <time>2018-05-19T12:05:23Z</time>
      </trkpt>
      <trkpt lat="44.08967" lon="3.01928">
        <ele>512</ele>
        <time>2018-05-19T12:05:24Z</time>
      </trkpt>
      <trkpt lat="44.08961" lon="3.01931">
        <ele>512.4</ele>
        <time>2018-05-19T12:05:25Z</time>
      </trkpt>
      <trkpt lat="44.08954" lon="3.01932">
        <ele>512.8</ele>
        <time>2018-05-19T12:05:26Z</time>
      </trkpt>
      <trkpt lat="44.08949" lon="3.01933">
        <ele>513</ele>
        <time>2018-05-19T12:05:27Z</time>
      </trkpt>
      <trkpt lat="44.08943" lon="3.01934">
        <ele>513.2</ele>
        <time>2018-05-19T12:05:28Z</time>
      </trkpt>
      <trkpt lat="44.08938" lon="3.01934">
        <ele>513.4</ele>
        <time>2018-05-19T12:05:29Z</time>
      </trkpt>
      <trkpt lat="44.08932" lon="3.01936">
        <ele>513.8</ele>
        <time>2018-05-19T12:05:30Z</time>
      </trkpt>
      <trkpt lat="44.08926" lon="3.0194">
        <ele>514</ele>
        <time>2018-05-19T12:05:31Z</time>
      </trkpt>
      <trkpt lat="44.08919" lon="3.01945">
        <ele>514.2</ele>
        <time>2018-05-19T12:05:32Z</time>
      </trkpt>
      <trkpt lat="44.08913" lon="3.01952">
        <ele>514.4</ele>
        <time>2018-05-19T12:05:33Z</time>
      </trkpt>
      <trkpt lat="44.08907" lon="3.01959">
        <ele>514.5</ele>
        <time>2018-05-19T12:05:34Z</time>
      </trkpt>
      <trkpt lat="44.08901" lon="3.01966">
        <ele>514.7</ele>
        <time>2018-05-19T12:05:35Z</time>
      </trkpt>
      <trkpt lat="44.08895" lon="3.01973">
        <ele>514.8</ele>
        <time>2018-05-19T12:05:36Z</time>
      </trkpt>
      <trkpt lat="44.0889" lon="3.01979">
        <ele>514.8</ele>
        <time>2018-05-19T12:05:37Z</time>
      </trkpt>
      <trkpt lat="44.08886" lon="3.01988">
        <ele>515</ele>
        <time>2018-05-19T12:05:38Z</time>
      </trkpt>
      <trkpt lat="44.08882" lon="3.01999">
        <ele>515.2</ele>
        <time>2018-05-19T12:05:39Z</time>
      </trkpt>
      <trkpt lat="44.08878" lon="3.02009">
        <ele>515.3</ele>
        <time>2018-05-19T12:05:40Z</time>
      </trkpt>
      <trkpt lat="44.08875" lon="3.02018">
        <ele>515.4</ele>
        <time>2018-05-19T12:05:41Z</time>
      </trkpt>
      <trkpt lat="44.08874" lon="3.02029">
        <ele>515.4</ele>
        <time>2018-05-19T12:05:42Z</time>
      </trkpt>
      <trkpt lat="44.08874" lon="3.02042">
        <ele>515.6</ele>
        <time>2018-05-19T12:05:43Z</time>
      </trkpt>
      <trkpt lat="44.08873" lon="3.02052">
        <ele>515.8</ele>
        <time>2018-05-19T12:05:44Z</time>
      </trkpt>
      <trkpt lat="44.08873" lon="3.02061">
        <ele>516</ele>
        <time>2018-05-19T12:05:45Z</time>
      </trkpt>
      <trkpt lat="44.08873" lon="3.02069">
        <ele>516.1</ele>
        <time>2018-05-19T12:05:46Z</time>
      </trkpt>
      <trkpt lat="44.08876" lon="3.02075">
        <ele>516.2</ele>
        <time>2018-05-19T12:05:47Z</time>
      </trkpt>
      <trkpt lat="44.08879" lon="3.0208">
        <ele>516.3</ele>
        <time>2018-05-19T12:05:48Z</time>
      </trkpt>
      <trkpt lat="44.08882" lon="3.02082">
        <ele>516.3</ele>
        <time>2018-05-19T12:05:49Z</time>
      </trkpt>
      <trkpt lat="44.08884" lon="3.02084">
        <ele>516.4</ele>
        <time>2018-05-19T12:05:50Z</time>
      </trkpt>
      <trkpt lat="44.08887" lon="3.02087">
        <ele>516.4</ele>
        <time>2018-05-19T12:05:52Z</time>
      </trkpt>
      <trkpt lat="44.0889" lon="3.02091">
        <ele>516.4</ele>
        <time>2018-05-19T12:05:55Z</time>
      </trkpt>
      <trkpt lat="44.08892" lon="3.02093">
        <ele>516.5</ele>
        <time>2018-05-19T12:05:58Z</time>
      </trkpt>
      <trkpt lat="44.08895" lon="3.02094">
        <ele>516.5</ele>
        <time>2018-05-19T12:06:01Z</time>
      </trkpt>
      <trkpt lat="44.08898" lon="3.02097">
        <ele>516.5</ele>
        <time>2018-05-19T12:06:04Z</time>
      </trkpt>
      <trkpt lat="44.08902" lon="3.02099">
        <ele>516.6</ele>
        <time>2018-05-19T12:06:07Z</time>
      </trkpt>
      <trkpt lat="44.08904" lon="3.02102">
        <ele>516.6</ele>
        <time>2018-05-19T12:06:09Z</time>
      </trkpt>
      <trkpt lat="44.08907" lon="3.02105">
        <ele>516.6</ele>
        <time>2018-05-19T12:06:11Z</time>
      </trkpt>
      <trkpt lat="44.08909" lon="3.02108">
        <ele>516.7</ele>
        <time>2018-05-19T12:06:13Z</time>
      </trkpt>
      <trkpt lat="44.08912" lon="3.02111">
        <ele>516.8</ele>
        <time>2018-05-19T12:06:15Z</time>
      </trkpt>
      <trkpt lat="44.08913" lon="3.02115">
        <ele>516.8</ele>
        <time>2018-05-19T12:06:27Z</time>
      </trkpt>
      <trkpt lat="44.08914" lon="3.02119">
        <ele>516.9</ele>
        <time>2018-05-19T12:06:31Z</time>
      </trkpt>
      <trkpt lat="44.08915" lon="3.02123">
        <ele>516.9</ele>
        <time>2018-05-19T12:06:34Z</time>
      </trkpt>
      <trkpt lat="44.08914" lon="3.02127">
        <ele>516</ele>
        <time>2018-05-19T12:06:44Z</time>
      </trkpt>
      <trkpt lat="44.08914" lon="3.02131">
        <ele>515.6</ele>
        <time>2018-05-19T12:06:52Z</time>
      </trkpt>
      <trkpt lat="44.08912" lon="3.02135">
        <ele>514.9</ele>
        <time>2018-05-19T12:09:47Z</time>
      </trkpt>
      <trkpt lat="44.08916" lon="3.02137">
        <ele>514.2</ele>
        <time>2018-05-19T12:09:50Z</time>
      </trkpt>
      <trkpt lat="44.08918" lon="3.02138">
        <ele>513.2</ele>
        <time>2018-05-19T12:09:53Z</time>
      </trkpt>
      <trkpt lat="44.08921" lon="3.0214">
        <ele>512.1</ele>
        <time>2018-05-19T12:09:59Z</time>
      </trkpt>
      <trkpt lat="44.08916" lon="3.02142">
        <ele>510.2</ele>
        <time>2018-05-19T12:12:13Z</time>
      </trkpt>
      <trkpt lat="44.08918" lon="3.02145">
        <ele>509.5</ele>
        <time>2018-05-19T12:12:16Z</time>
      </trkpt>
      <trkpt lat="44.0892" lon="3.02151">
        <ele>508.5</ele>
        <time>2018-05-19T12:12:18Z</time>
      </trkpt>
      <trkpt lat="44.08922" lon="3.02155">
        <ele>507.8</ele>
        <time>2018-05-19T12:12:19Z</time>
      </trkpt>
      <trkpt lat="44.08925" lon="3.02163">
        <ele>506.9</ele>
        <time>2018-05-19T12:12:20Z</time>
      </trkpt>
      <trkpt lat="44.08927" lon="3.0217">
        <ele>505.9</ele>
        <time>2018-05-19T12:12:21Z</time>
      </trkpt>
      <trkpt lat="44.0893" lon="3.02177">
        <ele>504.7</ele>
        <time>2018-05-19T12:12:22Z</time>
      </trkpt>
      <trkpt lat="44.08933" lon="3.02185">
        <ele>504</ele>
        <time>2018-05-19T12:12:23Z</time>
      </trkpt>
      <trkpt lat="44.08936" lon="3.02193">
        <ele>504</ele>
        <time>2018-05-19T12:12:24Z</time>
      </trkpt>
      <trkpt lat="44.08939" lon="3.02202">
        <ele>504</ele>
        <time>2018-05-19T12:12:25Z</time>
      </trkpt>
      <trkpt lat="44.08943" lon="3.02211">
        <ele>504</ele>
        <time>2018-05-19T12:12:26Z</time>
      </trkpt>
      <trkpt lat="44.08946" lon="3.02218">
        <ele>504</ele>
        <time>2018-05-19T12:12:27Z</time>
      </trkpt>
      <trkpt lat="44.08949" lon="3.02223">
        <ele>504</ele>
        <time>2018-05-19T12:12:28Z</time>
      </trkpt>
      <trkpt lat="44.08952" lon="3.02227">
        <ele>504</ele>
        <time>2018-05-19T12:12:29Z</time>
      </trkpt>
      <trkpt lat="44.08955" lon="3.0223">
        <ele>504</ele>
        <time>2018-05-19T12:12:30Z</time>
      </trkpt>
      <trkpt lat="44.08958" lon="3.02234">
        <ele>504</ele>
        <time>2018-05-19T12:12:32Z</time>
      </trkpt>
      <trkpt lat="44.0896" lon="3.02239">
        <ele>504</ele>
        <time>2018-05-19T12:12:35Z</time>
      </trkpt>
      <trkpt lat="44.0896" lon="3.02245">
        <ele>504</ele>
        <time>2018-05-19T12:12:37Z</time>
      </trkpt>
      <trkpt lat="44.08962" lon="3.0225">
        <ele>503.4</ele>
        <time>2018-05-19T12:12:38Z</time>
      </trkpt>
      <trkpt lat="44.08964" lon="3.02258">
        <ele>503.5</ele>
        <time>2018-05-19T12:12:39Z</time>
      </trkpt>
      <trkpt lat="44.08966" lon="3.02266">
        <ele>504.1</ele>
        <time>2018-05-19T12:12:40Z</time>
      </trkpt>
      <trkpt lat="44.08968" lon="3.02274">
        <ele>503.9</ele>
        <time>2018-05-19T12:12:41Z</time>
      </trkpt>
      <trkpt lat="44.0897" lon="3.02281">
        <ele>505.9</ele>
        <time>2018-05-19T12:12:42Z</time>
      </trkpt>
      <trkpt lat="44.08973" lon="3.02288">
        <ele>507.7</ele>
        <time>2018-05-19T12:12:43Z</time>
      </trkpt>
      <trkpt lat="44.08976" lon="3.02292">
        <ele>508.9</ele>
        <time>2018-05-19T12:12:44Z</time>
      </trkpt>
      <trkpt lat="44.08979" lon="3.02295">
        <ele>509.2</ele>
        <time>2018-05-19T12:12:45Z</time>
      </trkpt>
      <trkpt lat="44.08982" lon="3.02299">
        <ele>509.5</ele>
        <time>2018-05-19T12:12:47Z</time>
      </trkpt>
      <trkpt lat="44.08984" lon="3.02304">
        <ele>509.5</ele>
        <time>2018-05-19T12:12:49Z</time>
      </trkpt>
      <trkpt lat="44.08986" lon="3.02309">
        <ele>509.6</ele>
        <time>2018-05-19T12:12:50Z</time>
      </trkpt>
      <trkpt lat="44.08987" lon="3.02314">
        <ele>508.8</ele>
        <time>2018-05-19T12:12:51Z</time>
      </trkpt>
      <trkpt lat="44.08989" lon="3.0232">
        <ele>508</ele>
        <time>2018-05-19T12:12:52Z</time>
      </trkpt>
      <trkpt lat="44.0899" lon="3.02326">
        <ele>506.6</ele>
        <time>2018-05-19T12:12:53Z</time>
      </trkpt>
      <trkpt lat="44.08992" lon="3.0233">
        <ele>505.4</ele>
        <time>2018-05-19T12:12:54Z</time>
      </trkpt>
      <trkpt lat="44.08993" lon="3.02334">
        <ele>505</ele>
        <time>2018-05-19T12:12:55Z</time>
      </trkpt>
      <trkpt lat="44.08995" lon="3.02339">
        <ele>504.9</ele>
        <time>2018-05-19T12:12:56Z</time>
      </trkpt>
      <trkpt lat="44.08996" lon="3.02344">
        <ele>504.7</ele>
        <time>2018-05-19T12:12:57Z</time>
      </trkpt>
      <trkpt lat="44.08997" lon="3.02348">
        <ele>504</ele>
        <time>2018-05-19T12:12:58Z</time>
      </trkpt>
      <trkpt lat="44.08999" lon="3.02351">
        <ele>503.4</ele>
        <time>2018-05-19T12:12:59Z</time>
      </trkpt>
      <trkpt lat="44.09004" lon="3.02354">
        <ele>503</ele>
        <time>2018-05-19T12:13:00Z</time>
      </trkpt>
      <trkpt lat="44.09008" lon="3.02359">
        <ele>502.2</ele>
        <time>2018-05-19T12:13:01Z</time>
      </trkpt>
      <trkpt lat="44.09011" lon="3.02364">
        <ele>500.5</ele>
        <time>2018-05-19T12:13:02Z</time>
      </trkpt>
      <trkpt lat="44.09015" lon="3.02371">
        <ele>499.1</ele>
        <time>2018-05-19T12:13:03Z</time>
      </trkpt>
      <trkpt lat="44.09018" lon="3.02376">
        <ele>497.7</ele>
        <time>2018-05-19T12:13:04Z</time>
      </trkpt>
      <trkpt lat="44.09022" lon="3.02382">
        <ele>496.3</ele>
        <time>2018-05-19T12:13:05Z</time>
      </trkpt>
      <trkpt lat="44.09025" lon="3.02385">
        <ele>496.3</ele>
        <time>2018-05-19T12:13:06Z</time>
      </trkpt>
      <trkpt lat="44.09028" lon="3.02388">
        <ele>496.2</ele>
        <time>2018-05-19T12:13:07Z</time>
      </trkpt>
      <trkpt lat="44.09032" lon="3.02391">
        <ele>496.5</ele>
        <time>2018-05-19T12:13:09Z</time>
      </trkpt>
      <trkpt lat="44.09035" lon="3.02391">
        <ele>496.7</ele>
        <time>2018-05-19T12:13:11Z</time>
      </trkpt>
      <trkpt lat="44.09039" lon="3.02393">
        <ele>496.9</ele>
        <time>2018-05-19T12:13:14Z</time>
      </trkpt>
      <trkpt lat="44.09041" lon="3.02396">
        <ele>496.9</ele>
        <time>2018-05-19T12:13:16Z</time>
      </trkpt>
      <trkpt lat="44.09044" lon="3.02398">
        <ele>496.9</ele>
        <time>2018-05-19T12:13:18Z</time>
      </trkpt>
      <trkpt lat="44.09048" lon="3.024">
        <ele>497.5</ele>
        <time>2018-05-19T12:13:20Z</time>
      </trkpt>
      <trkpt lat="44.09051" lon="3.024">
        <ele>498.3</ele>
        <time>2018-05-19T12:13:22Z</time>
      </trkpt>
      <trkpt lat="44.09055" lon="3.02401">
        <ele>499.2</ele>
        <time>2018-05-19T12:13:25Z</time>
      </trkpt>
      <trkpt lat="44.09058" lon="3.02401">
        <ele>499</ele>
        <time>2018-05-19T12:13:27Z</time>
      </trkpt>
      <trkpt lat="44.09061" lon="3.02401">
        <ele>498.7</ele>
        <time>2018-05-19T12:13:29Z</time>
      </trkpt>
      <trkpt lat="44.09065" lon="3.02402">
        <ele>498.5</ele>
        <time>2018-05-19T12:13:32Z</time>
      </trkpt>
      <trkpt lat="44.09068" lon="3.02404">
        <ele>498.3</ele>
        <time>2018-05-19T12:13:34Z</time>
      </trkpt>
      <trkpt lat="44.09072" lon="3.02406">
        <ele>498.1</ele>
        <time>2018-05-19T12:13:37Z</time>
      </trkpt>
      <trkpt lat="44.09075" lon="3.02406">
        <ele>498</ele>
        <time>2018-05-19T12:13:39Z</time>
      </trkpt>
      <trkpt lat="44.09078" lon="3.02406">
        <ele>497.8</ele>
        <time>2018-05-19T12:13:41Z</time>
      </trkpt>
      <trkpt lat="44.09082" lon="3.02407">
        <ele>498.1</ele>
        <time>2018-05-19T12:13:43Z</time>
      </trkpt>
      <trkpt lat="44.09084" lon="3.02407">
        <ele>498.5</ele>
        <time>2018-05-19T12:13:45Z</time>
      </trkpt>
      <trkpt lat="44.09087" lon="3.02407">
        <ele>499</ele>
        <time>2018-05-19T12:13:47Z</time>
      </trkpt>
      <trkpt lat="44.09091" lon="3.02407">
        <ele>499.7</ele>
        <time>2018-05-19T12:13:49Z</time>
      </trkpt>
      <trkpt lat="44.09094" lon="3.02408">
        <ele>500.2</ele>
        <time>2018-05-19T12:13:51Z</time>
      </trkpt>
      <trkpt lat="44.09098" lon="3.02412">
        <ele>500.4</ele>
        <time>2018-05-19T12:13:53Z</time>
      </trkpt>
      <trkpt lat="44.09101" lon="3.02414">
        <ele>500.2</ele>
        <time>2018-05-19T12:13:54Z</time>
      </trkpt>
      <trkpt lat="44.09105" lon="3.02417">
        <ele>499.4</ele>
        <time>2018-05-19T12:13:55Z</time>
      </trkpt>
      <trkpt lat="44.09108" lon="3.0242">
        <ele>498.3</ele>
        <time>2018-05-19T12:13:56Z</time>
      </trkpt>
      <trkpt lat="44.09112" lon="3.02422">
        <ele>497.4</ele>
        <time>2018-05-19T12:13:58Z</time>
      </trkpt>
      <trkpt lat="44.09115" lon="3.02424">
        <ele>497.6</ele>
        <time>2018-05-19T12:14:00Z</time>
      </trkpt>
      <trkpt lat="44.09118" lon="3.02426">
        <ele>497.8</ele>
        <time>2018-05-19T12:14:02Z</time>
      </trkpt>
      <trkpt lat="44.09122" lon="3.0243">
        <ele>497.9</ele>
        <time>2018-05-19T12:14:04Z</time>
      </trkpt>
      <trkpt lat="44.09127" lon="3.02433">
        <ele>497.9</ele>
        <time>2018-05-19T12:14:06Z</time>
      </trkpt>
      <trkpt lat="44.09131" lon="3.02436">
        <ele>498.6</ele>
        <time>2018-05-19T12:14:08Z</time>
      </trkpt>
      <trkpt lat="44.09135" lon="3.0244">
        <ele>499.1</ele>
        <time>2018-05-19T12:14:10Z</time>
      </trkpt>
      <trkpt lat="44.09138" lon="3.02442">
        <ele>498.8</ele>
        <time>2018-05-19T12:14:11Z</time>
      </trkpt>
      <trkpt lat="44.0914" lon="3.02444">
        <ele>498.6</ele>
        <time>2018-05-19T12:14:12Z</time>
      </trkpt>
      <trkpt lat="44.09143" lon="3.02446">
        <ele>498.6</ele>
        <time>2018-05-19T12:14:13Z</time>
      </trkpt>
      <trkpt lat="44.09145" lon="3.02448">
        <ele>499.2</ele>
        <time>2018-05-19T12:14:14Z</time>
      </trkpt>
      <trkpt lat="44.09148" lon="3.02449">
        <ele>499.8</ele>
        <time>2018-05-19T12:14:15Z</time>
      </trkpt>
      <trkpt lat="44.09151" lon="3.0245">
        <ele>500.4</ele>
        <time>2018-05-19T12:14:16Z</time>
      </trkpt>
      <trkpt lat="44.09156" lon="3.0245">
        <ele>501.9</ele>
        <time>2018-05-19T12:14:18Z</time>
      </trkpt>
      <trkpt lat="44.0916" lon="3.02449">
        <ele>503.5</ele>
        <time>2018-05-19T12:14:20Z</time>
      </trkpt>
      <trkpt lat="44.09163" lon="3.0245">
        <ele>505.4</ele>
        <time>2018-05-19T12:14:23Z</time>
      </trkpt>
      <trkpt lat="44.09167" lon="3.02452">
        <ele>506.9</ele>
        <time>2018-05-19T12:14:25Z</time>
      </trkpt>
      <trkpt lat="44.09171" lon="3.02454">
        <ele>508.2</ele>
        <time>2018-05-19T12:14:28Z</time>
      </trkpt>
      <trkpt lat="44.09173" lon="3.02458">
        <ele>508.9</ele>
        <time>2018-05-19T12:14:30Z</time>
      </trkpt>
      <trkpt lat="44.09177" lon="3.02461">
        <ele>509.4</ele>
        <time>2018-05-19T12:14:32Z</time>
      </trkpt>
      <trkpt lat="44.09179" lon="3.02463">
        <ele>508.7</ele>
        <time>2018-05-19T12:14:34Z</time>
      </trkpt>
      <trkpt lat="44.09182" lon="3.02467">
        <ele>507.8</ele>
        <time>2018-05-19T12:14:36Z</time>
      </trkpt>
      <trkpt lat="44.09185" lon="3.02472">
        <ele>508.3</ele>
        <time>2018-05-19T12:14:38Z</time>
      </trkpt>
      <trkpt lat="44.09187" lon="3.02477">
        <ele>508.4</ele>
        <time>2018-05-19T12:14:40Z</time>
      </trkpt>
      <trkpt lat="44.09189" lon="3.02481">
        <ele>507.8</ele>
        <time>2018-05-19T12:14:42Z</time>
      </trkpt>
      <trkpt lat="44.09192" lon="3.02484">
        <ele>507.4</ele>
        <time>2018-05-19T12:14:44Z</time>
      </trkpt>
      <trkpt lat="44.09195" lon="3.02487">
        <ele>507.6</ele>
        <time>2018-05-19T12:14:47Z</time>
      </trkpt>
      <trkpt lat="44.09198" lon="3.0249">
        <ele>507.6</ele>
        <time>2018-05-19T12:14:52Z</time>
      </trkpt>
      <trkpt lat="44.092" lon="3.02492">
        <ele>507.3</ele>
        <time>2018-05-19T12:15:12Z</time>
      </trkpt>
      <trkpt lat="44.09203" lon="3.02495">
        <ele>507</ele>
        <time>2018-05-19T12:15:16Z</time>
      </trkpt>
      <trkpt lat="44.09205" lon="3.02498">
        <ele>507.4</ele>
        <time>2018-05-19T12:15:23Z</time>
      </trkpt>
      <trkpt lat="44.09208" lon="3.025">
        <ele>508</ele>
        <time>2018-05-19T12:15:26Z</time>
      </trkpt>
      <trkpt lat="44.09212" lon="3.02499">
        <ele>508.5</ele>
        <time>2018-05-19T12:15:29Z</time>
      </trkpt>
      <trkpt lat="44.09215" lon="3.025">
        <ele>509.1</ele>
        <time>2018-05-19T12:15:32Z</time>
      </trkpt>
      <trkpt lat="44.09218" lon="3.02502">
        <ele>509.6</ele>
        <time>2018-05-19T12:15:37Z</time>
      </trkpt>
      <trkpt lat="44.09221" lon="3.02504">
        <ele>510</ele>
        <time>2018-05-19T12:15:40Z</time>
      </trkpt>
      <trkpt lat="44.09223" lon="3.02506">
        <ele>510.6</ele>
        <time>2018-05-19T12:15:45Z</time>
      </trkpt>
      <trkpt lat="44.09225" lon="3.02508">
        <ele>511.4</ele>
        <time>2018-05-19T12:15:50Z</time>
      </trkpt>
      <trkpt lat="44.09228" lon="3.0251">
        <ele>512.3</ele>
        <time>2018-05-19T12:15:56Z</time>
      </trkpt>
      <trkpt lat="44.09231" lon="3.02509">
        <ele>513</ele>
        <time>2018-05-19T12:16:01Z</time>
      </trkpt>
      <trkpt lat="44.09235" lon="3.02509">
        <ele>513.9</ele>
        <time>2018-05-19T12:16:05Z</time>
      </trkpt>
      <trkpt lat="44.09238" lon="3.02509">
        <ele>514.8</ele>
        <time>2018-05-19T12:16:10Z</time>
      </trkpt>
      <trkpt lat="44.09241" lon="3.02509">
        <ele>515.6</ele>
        <time>2018-05-19T12:16:14Z</time>
      </trkpt>
      <trkpt lat="44.09244" lon="3.02507">
        <ele>516.4</ele>
        <time>2018-05-19T12:16:17Z</time>
      </trkpt>
      <trkpt lat="44.09247" lon="3.02506">
        <ele>516.9</ele>
        <time>2018-05-19T12:16:19Z</time>
      </trkpt>
      <trkpt lat="44.0925" lon="3.02506">
        <ele>517.5</ele>
        <time>2018-05-19T12:16:23Z</time>
      </trkpt>
      <trkpt lat="44.09252" lon="3.02508">
        <ele>518</ele>
        <time>2018-05-19T12:16:28Z</time>
      </trkpt>
      <trkpt lat="44.09255" lon="3.02509">
        <ele>518.5</ele>
        <time>2018-05-19T12:16:32Z</time>
      </trkpt>
      <trkpt lat="44.09258" lon="3.0251">
        <ele>518.8</ele>
        <time>2018-05-19T12:16:37Z</time>
      </trkpt>
      <trkpt lat="44.09261" lon="3.0251">
        <ele>519.2</ele>
        <time>2018-05-19T12:16:40Z</time>
      </trkpt>
      <trkpt lat="44.09265" lon="3.02511">
        <ele>519.4</ele>
        <time>2018-05-19T12:16:43Z</time>
      </trkpt>
      <trkpt lat="44.09269" lon="3.02511">
        <ele>519.5</ele>
        <time>2018-05-19T12:16:48Z</time>
      </trkpt>
      <trkpt lat="44.09271" lon="3.02513">
        <ele>519.6</ele>
        <time>2018-05-19T12:16:51Z</time>
      </trkpt>
      <trkpt lat="44.09274" lon="3.02515">
        <ele>520.1</ele>
        <time>2018-05-19T12:16:56Z</time>
      </trkpt>
      <trkpt lat="44.09277" lon="3.02516">
        <ele>520.5</ele>
        <time>2018-05-19T12:17:04Z</time>
      </trkpt>
      <trkpt lat="44.0928" lon="3.02518">
        <ele>520.7</ele>
        <time>2018-05-19T12:17:08Z</time>
      </trkpt>
      <trkpt lat="44.09282" lon="3.02521">
        <ele>520.8</ele>
        <time>2018-05-19T12:17:13Z</time>
      </trkpt>
      <trkpt lat="44.09285" lon="3.02523">
        <ele>520.8</ele>
        <time>2018-05-19T12:17:18Z</time>
      </trkpt>
      <trkpt lat="44.09286" lon="3.02527">
        <ele>520.6</ele>
        <time>2018-05-19T12:17:25Z</time>
      </trkpt>
      <trkpt lat="44.09289" lon="3.02529">
        <ele>520.4</ele>
        <time>2018-05-19T12:19:14Z</time>
      </trkpt>
      <trkpt lat="44.09287" lon="3.02527">
        <ele>520.1</ele>
        <time>2018-05-19T12:19:24Z</time>
      </trkpt>
      <trkpt lat="44.09284" lon="3.02526">
        <ele>519.8</ele>
        <time>2018-05-19T12:19:34Z</time>
      </trkpt>
      <trkpt lat="44.09287" lon="3.02521">
        <ele>519.1</ele>
        <time>2018-05-19T12:22:03Z</time>
      </trkpt>
      <trkpt lat="44.09288" lon="3.02517">
        <ele>518.5</ele>
        <time>2018-05-19T12:22:12Z</time>
      </trkpt>
      <trkpt lat="44.09289" lon="3.02522">
        <ele>517.8</ele>
        <time>2018-05-19T12:22:26Z</time>
      </trkpt>
      <trkpt lat="44.0929" lon="3.02526">
        <ele>517.2</ele>
        <time>2018-05-19T12:22:27Z</time>
      </trkpt>
      <trkpt lat="44.09291" lon="3.02532">
        <ele>516.5</ele>
        <time>2018-05-19T12:22:28Z</time>
      </trkpt>
      <trkpt lat="44.09292" lon="3.02543">
        <ele>516.4</ele>
        <time>2018-05-19T12:22:29Z</time>
      </trkpt>
      <trkpt lat="44.09294" lon="3.0255">
        <ele>516.2</ele>
        <time>2018-05-19T12:22:30Z</time>
      </trkpt>
      <trkpt lat="44.09296" lon="3.02559">
        <ele>516</ele>
        <time>2018-05-19T12:22:31Z</time>
      </trkpt>
      <trkpt lat="44.093" lon="3.02564">
        <ele>516</ele>
        <time>2018-05-19T12:22:32Z</time>
      </trkpt>
      <trkpt lat="44.09302" lon="3.02568">
        <ele>516.2</ele>
        <time>2018-05-19T12:22:33Z</time>
      </trkpt>
      <trkpt lat="44.09305" lon="3.02571">
        <ele>516.3</ele>
        <time>2018-05-19T12:22:34Z</time>
      </trkpt>
      <trkpt lat="44.09308" lon="3.02573">
        <ele>516.3</ele>
        <time>2018-05-19T12:22:35Z</time>
      </trkpt>
      <trkpt lat="44.09312" lon="3.02573">
        <ele>516.2</ele>
        <time>2018-05-19T12:22:36Z</time>
      </trkpt>
      <trkpt lat="44.09316" lon="3.02573">
        <ele>516.1</ele>
        <time>2018-05-19T12:22:37Z</time>
      </trkpt>
      <trkpt lat="44.09319" lon="3.02574">
        <ele>516</ele>
        <time>2018-05-19T12:22:38Z</time>
      </trkpt>
      <trkpt lat="44.09324" lon="3.02574">
        <ele>516.2</ele>
        <time>2018-05-19T12:22:39Z</time>
      </trkpt>
      <trkpt lat="44.09331" lon="3.02579">
        <ele>516.3</ele>
        <time>2018-05-19T12:22:40Z</time>
      </trkpt>
      <trkpt lat="44.09338" lon="3.02582">
        <ele>516.4</ele>
        <time>2018-05-19T12:22:41Z</time>
      </trkpt>
      <trkpt lat="44.09342" lon="3.02583">
        <ele>516.5</ele>
        <time>2018-05-19T12:22:42Z</time>
      </trkpt>
      <trkpt lat="44.09349" lon="3.02583">
        <ele>516.8</ele>
        <time>2018-05-19T12:22:43Z</time>
      </trkpt>
      <trkpt lat="44.09353" lon="3.02583">
        <ele>516.5</ele>
        <time>2018-05-19T12:22:44Z</time>
      </trkpt>
      <trkpt lat="44.09356" lon="3.02584">
        <ele>516.4</ele>
        <time>2018-05-19T12:22:45Z</time>
      </trkpt>
      <trkpt lat="44.0936" lon="3.02584">
        <ele>516.2</ele>
        <time>2018-05-19T12:22:46Z</time>
      </trkpt>
      <trkpt lat="44.09364" lon="3.02588">
        <ele>515.9</ele>
        <time>2018-05-19T12:22:48Z</time>
      </trkpt>
      <trkpt lat="44.09366" lon="3.0259">
        <ele>515.8</ele>
        <time>2018-05-19T12:22:50Z</time>
      </trkpt>
      <trkpt lat="44.09364" lon="3.02594">
        <ele>515.6</ele>
        <time>2018-05-19T12:22:51Z</time>
      </trkpt>
      <trkpt lat="44.09363" lon="3.026">
        <ele>515.4</ele>
        <time>2018-05-19T12:22:52Z</time>
      </trkpt>
      <trkpt lat="44.09361" lon="3.02604">
        <ele>515.1</ele>
        <time>2018-05-19T12:22:53Z</time>
      </trkpt>
      <trkpt lat="44.09361" lon="3.02609">
        <ele>514.9</ele>
        <time>2018-05-19T12:22:54Z</time>
      </trkpt>
      <trkpt lat="44.09359" lon="3.02617">
        <ele>514.5</ele>
        <time>2018-05-19T12:22:55Z</time>
      </trkpt>
      <trkpt lat="44.09356" lon="3.02621">
        <ele>514.1</ele>
        <time>2018-05-19T12:22:56Z</time>
      </trkpt>
      <trkpt lat="44.09353" lon="3.02627">
        <ele>513.6</ele>
        <time>2018-05-19T12:22:57Z</time>
      </trkpt>
      <trkpt lat="44.09349" lon="3.02635">
        <ele>513.1</ele>
        <time>2018-05-19T12:22:58Z</time>
      </trkpt>
      <trkpt lat="44.09347" lon="3.02641">
        <ele>512.8</ele>
        <time>2018-05-19T12:22:59Z</time>
      </trkpt>
      <trkpt lat="44.09343" lon="3.02647">
        <ele>512.6</ele>
        <time>2018-05-19T12:23:00Z</time>
      </trkpt>
      <trkpt lat="44.0934" lon="3.02651">
        <ele>512.4</ele>
        <time>2018-05-19T12:23:01Z</time>
      </trkpt>
      <trkpt lat="44.09339" lon="3.02656">
        <ele>512.3</ele>
        <time>2018-05-19T12:23:02Z</time>
      </trkpt>
      <trkpt lat="44.09339" lon="3.02662">
        <ele>512.2</ele>
        <time>2018-05-19T12:23:03Z</time>
      </trkpt>
      <trkpt lat="44.09337" lon="3.02668">
        <ele>512.2</ele>
        <time>2018-05-19T12:23:04Z</time>
      </trkpt>
      <trkpt lat="44.09337" lon="3.02673">
        <ele>512.2</ele>
        <time>2018-05-19T12:23:05Z</time>
      </trkpt>
      <trkpt lat="44.09337" lon="3.0268">
        <ele>512.2</ele>
        <time>2018-05-19T12:23:06Z</time>
      </trkpt>
      <trkpt lat="44.09338" lon="3.02686">
        <ele>512.1</ele>
        <time>2018-05-19T12:23:07Z</time>
      </trkpt>
      <trkpt lat="44.09338" lon="3.02693">
        <ele>511.9</ele>
        <time>2018-05-19T12:23:08Z</time>
      </trkpt>
      <trkpt lat="44.09339" lon="3.02698">
        <ele>511.9</ele>
        <time>2018-05-19T12:23:09Z</time>
      </trkpt>
      <trkpt lat="44.0934" lon="3.02704">
        <ele>511.9</ele>
        <time>2018-05-19T12:23:10Z</time>
      </trkpt>
      <trkpt lat="44.09342" lon="3.02707">
        <ele>511.7</ele>
        <time>2018-05-19T12:23:11Z</time>
      </trkpt>
      <trkpt lat="44.09343" lon="3.02713">
        <ele>511.4</ele>
        <time>2018-05-19T12:23:12Z</time>
      </trkpt>
      <trkpt lat="44.09345" lon="3.02719">
        <ele>511</ele>
        <time>2018-05-19T12:23:13Z</time>
      </trkpt>
      <trkpt lat="44.09346" lon="3.02724">
        <ele>510.6</ele>
        <time>2018-05-19T12:23:14Z</time>
      </trkpt>
      <trkpt lat="44.09347" lon="3.02729">
        <ele>510.2</ele>
        <time>2018-05-19T12:23:15Z</time>
      </trkpt>
      <trkpt lat="44.09349" lon="3.02734">
        <ele>509.8</ele>
        <time>2018-05-19T12:23:16Z</time>
      </trkpt>
      <trkpt lat="44.0935" lon="3.0274">
        <ele>509.2</ele>
        <time>2018-05-19T12:23:17Z</time>
      </trkpt>
      <trkpt lat="44.09352" lon="3.02746">
        <ele>508.6</ele>
        <time>2018-05-19T12:23:18Z</time>
      </trkpt>
      <trkpt lat="44.09353" lon="3.02751">
        <ele>507.9</ele>
        <time>2018-05-19T12:23:19Z</time>
      </trkpt>
      <trkpt lat="44.09354" lon="3.02756">
        <ele>507.2</ele>
        <time>2018-05-19T12:23:20Z</time>
      </trkpt>
      <trkpt lat="44.09355" lon="3.02762">
        <ele>507.7</ele>
        <time>2018-05-19T12:23:21Z</time>
      </trkpt>
      <trkpt lat="44.09356" lon="3.02768">
        <ele>508.5</ele>
        <time>2018-05-19T12:23:22Z</time>
      </trkpt>
      <trkpt lat="44.09357" lon="3.02773">
        <ele>509.2</ele>
        <time>2018-05-19T12:23:23Z</time>
      </trkpt>
      <trkpt lat="44.09358" lon="3.02776">
        <ele>509.7</ele>
        <time>2018-05-19T12:23:24Z</time>
      </trkpt>
      <trkpt lat="44.09361" lon="3.02778">
        <ele>510.2</ele>
        <time>2018-05-19T12:23:25Z</time>
      </trkpt>
      <trkpt lat="44.09364" lon="3.02779">
        <ele>510.6</ele>
        <time>2018-05-19T12:23:26Z</time>
      </trkpt>
      <trkpt lat="44.09367" lon="3.02779">
        <ele>511</ele>
        <time>2018-05-19T12:23:27Z</time>
      </trkpt>
      <trkpt lat="44.0937" lon="3.0278">
        <ele>511.5</ele>
        <time>2018-05-19T12:23:28Z</time>
      </trkpt>
      <trkpt lat="44.09373" lon="3.0278">
        <ele>512</ele>
        <time>2018-05-19T12:23:29Z</time>
      </trkpt>
      <trkpt lat="44.09376" lon="3.02781">
        <ele>512.5</ele>
        <time>2018-05-19T12:23:30Z</time>
      </trkpt>
      <trkpt lat="44.09379" lon="3.02782">
        <ele>512.9</ele>
        <time>2018-05-19T12:23:31Z</time>
      </trkpt>
      <trkpt lat="44.09382" lon="3.02783">
        <ele>513.2</ele>
        <time>2018-05-19T12:23:32Z</time>
      </trkpt>
      <trkpt lat="44.09385" lon="3.02784">
        <ele>513.5</ele>
        <time>2018-05-19T12:23:33Z</time>
      </trkpt>
      <trkpt lat="44.09388" lon="3.02785">
        <ele>513.8</ele>
        <time>2018-05-19T12:23:34Z</time>
      </trkpt>
      <trkpt lat="44.09391" lon="3.02787">
        <ele>514.1</ele>
        <time>2018-05-19T12:23:35Z</time>
      </trkpt>
      <trkpt lat="44.09394" lon="3.02788">
        <ele>514.4</ele>
        <time>2018-05-19T12:23:36Z</time>
      </trkpt>
      <trkpt lat="44.09397" lon="3.0279">
        <ele>514.6</ele>
        <time>2018-05-19T12:23:37Z</time>
      </trkpt>
      <trkpt lat="44.094" lon="3.02791">
        <ele>514.8</ele>
        <time>2018-05-19T12:23:38Z</time>
      </trkpt>
      <trkpt lat="44.09404" lon="3.02793">
        <ele>515</ele>
        <time>2018-05-19T12:23:39Z</time>
      </trkpt>
      <trkpt lat="44.09407" lon="3.02795">
        <ele>515.3</ele>
        <time>2018-05-19T12:23:40Z</time>
      </trkpt>
      <trkpt lat="44.0941" lon="3.02796">
        <ele>515.4</ele>
        <time>2018-05-19T12:23:41Z</time>
      </trkpt>
      <trkpt lat="44.09414" lon="3.02798">
        <ele>515.5</ele>
        <time>2018-05-19T12:23:42Z</time>
      </trkpt>
      <trkpt lat="44.09417" lon="3.028">
        <ele>515.3</ele>
        <time>2018-05-19T12:23:43Z</time>
      </trkpt>
      <trkpt lat="44.0942" lon="3.02802">
        <ele>515.1</ele>
        <time>2018-05-19T12:23:44Z</time>
      </trkpt>
      <trkpt lat="44.09424" lon="3.02805">
        <ele>515</ele>
        <time>2018-05-19T12:23:45Z</time>
      </trkpt>
      <trkpt lat="44.09428" lon="3.02807">
        <ele>515</ele>
        <time>2018-05-19T12:23:46Z</time>
      </trkpt>
      <trkpt lat="44.09431" lon="3.02811">
        <ele>514.8</ele>
        <time>2018-05-19T12:23:47Z</time>
      </trkpt>
      <trkpt lat="44.09435" lon="3.02816">
        <ele>514.4</ele>
        <time>2018-05-19T12:23:48Z</time>
      </trkpt>
      <trkpt lat="44.09439" lon="3.0282">
        <ele>514.3</ele>
        <time>2018-05-19T12:23:49Z</time>
      </trkpt>
      <trkpt lat="44.09442" lon="3.02825">
        <ele>514.1</ele>
        <time>2018-05-19T12:23:50Z</time>
      </trkpt>
      <trkpt lat="44.09445" lon="3.02829">
        <ele>513.7</ele>
        <time>2018-05-19T12:23:51Z</time>
      </trkpt>
      <trkpt lat="44.09447" lon="3.02833">
        <ele>513.3</ele>
        <time>2018-05-19T12:23:52Z</time>
      </trkpt>
      <trkpt lat="44.09449" lon="3.02838">
        <ele>513</ele>
        <time>2018-05-19T12:23:53Z</time>
      </trkpt>
      <trkpt lat="44.09452" lon="3.02842">
        <ele>512.8</ele>
        <time>2018-05-19T12:23:54Z</time>
      </trkpt>
      <trkpt lat="44.09454" lon="3.02846">
        <ele>512.4</ele>
        <time>2018-05-19T12:23:55Z</time>
      </trkpt>
      <trkpt lat="44.09456" lon="3.0285">
        <ele>511.8</ele>
        <time>2018-05-19T12:23:56Z</time>
      </trkpt>
      <trkpt lat="44.09459" lon="3.02854">
        <ele>511.3</ele>
        <time>2018-05-19T12:23:57Z</time>
      </trkpt>
      <trkpt lat="44.09461" lon="3.02859">
        <ele>510.8</ele>
        <time>2018-05-19T12:23:58Z</time>
      </trkpt>
      <trkpt lat="44.09464" lon="3.02864">
        <ele>510.3</ele>
        <time>2018-05-19T12:23:59Z</time>
      </trkpt>
      <trkpt lat="44.09466" lon="3.02868">
        <ele>509.7</ele>
        <time>2018-05-19T12:24:00Z</time>
      </trkpt>
      <trkpt lat="44.09468" lon="3.02873">
        <ele>509.2</ele>
        <time>2018-05-19T12:24:01Z</time>
      </trkpt>
      <trkpt lat="44.09471" lon="3.02877">
        <ele>508.9</ele>
        <time>2018-05-19T12:24:02Z</time>
      </trkpt>
      <trkpt lat="44.09473" lon="3.02881">
        <ele>508.6</ele>
        <time>2018-05-19T12:24:03Z</time>
      </trkpt>
      <trkpt lat="44.09478" lon="3.02889">
        <ele>508.3</ele>
        <time>2018-05-19T12:24:05Z</time>
      </trkpt>
      <trkpt lat="44.09481" lon="3.02893">
        <ele>508</ele>
        <time>2018-05-19T12:24:06Z</time>
      </trkpt>
      <trkpt lat="44.09483" lon="3.02896">
        <ele>507.7</ele>
        <time>2018-05-19T12:24:07Z</time>
      </trkpt>
      <trkpt lat="44.09486" lon="3.029">
        <ele>507.3</ele>
        <time>2018-05-19T12:24:08Z</time>
      </trkpt>
      <trkpt lat="44.09489" lon="3.02903">
        <ele>507</ele>
        <time>2018-05-19T12:24:09Z</time>
      </trkpt>
      <trkpt lat="44.09491" lon="3.02907">
        <ele>507</ele>
        <time>2018-05-19T12:24:10Z</time>
      </trkpt>
      <trkpt lat="44.09494" lon="3.0291">
        <ele>507.1</ele>
        <time>2018-05-19T12:24:11Z</time>
      </trkpt>
      <trkpt lat="44.09497" lon="3.02913">
        <ele>506.9</ele>
        <time>2018-05-19T12:24:12Z</time>
      </trkpt>
      <trkpt lat="44.095" lon="3.02917">
        <ele>506.6</ele>
        <time>2018-05-19T12:24:13Z</time>
      </trkpt>
      <trkpt lat="44.09503" lon="3.02921">
        <ele>506.9</ele>
        <time>2018-05-19T12:24:14Z</time>
      </trkpt>
      <trkpt lat="44.09506" lon="3.02923">
        <ele>507.5</ele>
        <time>2018-05-19T12:24:15Z</time>
      </trkpt>
      <trkpt lat="44.09509" lon="3.02926">
        <ele>508.1</ele>
        <time>2018-05-19T12:24:16Z</time>
      </trkpt>
      <trkpt lat="44.09513" lon="3.02927">
        <ele>508.6</ele>
        <time>2018-05-19T12:24:17Z</time>
      </trkpt>
      <trkpt lat="44.09517" lon="3.02927">
        <ele>509</ele>
        <time>2018-05-19T12:24:18Z</time>
      </trkpt>
      <trkpt lat="44.0952" lon="3.02926">
        <ele>509.9</ele>
        <time>2018-05-19T12:24:19Z</time>
      </trkpt>
      <trkpt lat="44.09524" lon="3.02923">
        <ele>511</ele>
        <time>2018-05-19T12:24:21Z</time>
      </trkpt>
      <trkpt lat="44.0953" lon="3.02916">
        <ele>512.1</ele>
        <time>2018-05-19T12:24:23Z</time>
      </trkpt>
      <trkpt lat="44.09535" lon="3.02913">
        <ele>513</ele>
        <time>2018-05-19T12:24:24Z</time>
      </trkpt>
      <trkpt lat="44.09539" lon="3.02909">
        <ele>514</ele>
        <time>2018-05-19T12:24:25Z</time>
      </trkpt>
      <trkpt lat="44.09545" lon="3.02903">
        <ele>515.3</ele>
        <time>2018-05-19T12:24:26Z</time>
      </trkpt>
      <trkpt lat="44.09552" lon="3.02896">
        <ele>516.3</ele>
        <time>2018-05-19T12:24:27Z</time>
      </trkpt>
      <trkpt lat="44.09557" lon="3.02888">
        <ele>517</ele>
        <time>2018-05-19T12:24:28Z</time>
      </trkpt>
      <trkpt lat="44.09563" lon="3.02882">
        <ele>517.6</ele>
        <time>2018-05-19T12:24:29Z</time>
      </trkpt>
      <trkpt lat="44.09569" lon="3.02875">
        <ele>518.2</ele>
        <time>2018-05-19T12:24:30Z</time>
      </trkpt>
      <trkpt lat="44.09576" lon="3.02869">
        <ele>518.9</ele>
        <time>2018-05-19T12:24:31Z</time>
      </trkpt>
      <trkpt lat="44.09584" lon="3.02864">
        <ele>519.8</ele>
        <time>2018-05-19T12:24:32Z</time>
      </trkpt>
      <trkpt lat="44.0959" lon="3.02858">
        <ele>520.6</ele>
        <time>2018-05-19T12:24:33Z</time>
      </trkpt>
      <trkpt lat="44.09594" lon="3.02853">
        <ele>521.1</ele>
        <time>2018-05-19T12:24:34Z</time>
      </trkpt>
      <trkpt lat="44.09598" lon="3.02849">
        <ele>521.4</ele>
        <time>2018-05-19T12:24:35Z</time>
      </trkpt>
      <trkpt lat="44.096" lon="3.02843">
        <ele>521.7</ele>
        <time>2018-05-19T12:24:37Z</time>
      </trkpt>
      <trkpt lat="44.09603" lon="3.02839">
        <ele>522</ele>
        <time>2018-05-19T12:24:38Z</time>
      </trkpt>
      <trkpt lat="44.09605" lon="3.02833">
        <ele>522.5</ele>
        <time>2018-05-19T12:24:40Z</time>
      </trkpt>
      <trkpt lat="44.09608" lon="3.02828">
        <ele>523</ele>
        <time>2018-05-19T12:24:42Z</time>
      </trkpt>
      <trkpt lat="44.09611" lon="3.02823">
        <ele>523.5</ele>
        <time>2018-05-19T12:24:44Z</time>
      </trkpt>
      <trkpt lat="44.09613" lon="3.02818">
        <ele>523.9</ele>
        <time>2018-05-19T12:24:46Z</time>
      </trkpt>
      <trkpt lat="44.09615" lon="3.02813">
        <ele>524.2</ele>
        <time>2018-05-19T12:24:48Z</time>
      </trkpt>
      <trkpt lat="44.09617" lon="3.02807">
        <ele>524.6</ele>
        <time>2018-05-19T12:24:50Z</time>
      </trkpt>
      <trkpt lat="44.09618" lon="3.02802">
        <ele>525.1</ele>
        <time>2018-05-19T12:24:52Z</time>
      </trkpt>
      <trkpt lat="44.0962" lon="3.02797">
        <ele>525.5</ele>
        <time>2018-05-19T12:24:54Z</time>
      </trkpt>
      <trkpt lat="44.09622" lon="3.02793">
        <ele>525.9</ele>
        <time>2018-05-19T12:24:56Z</time>
      </trkpt>
      <trkpt lat="44.09625" lon="3.0279">
        <ele>526.2</ele>
        <time>2018-05-19T12:24:58Z</time>
      </trkpt>
      <trkpt lat="44.09627" lon="3.02787">
        <ele>526.5</ele>
        <time>2018-05-19T12:25:00Z</time>
      </trkpt>
      <trkpt lat="44.09629" lon="3.02785">
        <ele>526.7</ele>
        <time>2018-05-19T12:25:02Z</time>
      </trkpt>
      <trkpt lat="44.09632" lon="3.02783">
        <ele>527.1</ele>
        <time>2018-05-19T12:25:04Z</time>
      </trkpt>
      <trkpt lat="44.09635" lon="3.0278">
        <ele>527.4</ele>
        <time>2018-05-19T12:25:06Z</time>
      </trkpt>
      <trkpt lat="44.09636" lon="3.02777">
        <ele>527.7</ele>
        <time>2018-05-19T12:25:08Z</time>
      </trkpt>
      <trkpt lat="44.09639" lon="3.02773">
        <ele>528.1</ele>
        <time>2018-05-19T12:25:10Z</time>
      </trkpt>
      <trkpt lat="44.09641" lon="3.02771">
        <ele>528.4</ele>
        <time>2018-05-19T12:25:12Z</time>
      </trkpt>
      <trkpt lat="44.09643" lon="3.02766">
        <ele>528.7</ele>
        <time>2018-05-19T12:25:19Z</time>
      </trkpt>
      <trkpt lat="44.09645" lon="3.02763">
        <ele>529</ele>
        <time>2018-05-19T12:25:22Z</time>
      </trkpt>
      <trkpt lat="44.09647" lon="3.02761">
        <ele>529.3</ele>
        <time>2018-05-19T12:25:26Z</time>
      </trkpt>
      <trkpt lat="44.0965" lon="3.02759">
        <ele>529.9</ele>
        <time>2018-05-19T12:25:30Z</time>
      </trkpt>
      <trkpt lat="44.09653" lon="3.02757">
        <ele>530.4</ele>
        <time>2018-05-19T12:25:33Z</time>
      </trkpt>
      <trkpt lat="44.09655" lon="3.02756">
        <ele>530.7</ele>
        <time>2018-05-19T12:25:38Z</time>
      </trkpt>
      <trkpt lat="44.09658" lon="3.02759">
        <ele>531.1</ele>
        <time>2018-05-19T12:25:48Z</time>
      </trkpt>
      <trkpt lat="44.0966" lon="3.02762">
        <ele>531.7</ele>
        <time>2018-05-19T12:25:52Z</time>
      </trkpt>
      <trkpt lat="44.09663" lon="3.02763">
        <ele>532.4</ele>
        <time>2018-05-19T12:25:56Z</time>
      </trkpt>
      <trkpt lat="44.09667" lon="3.02762">
        <ele>532.9</ele>
        <time>2018-05-19T12:25:59Z</time>
      </trkpt>
      <trkpt lat="44.0967" lon="3.02763">
        <ele>533.4</ele>
        <time>2018-05-19T12:26:05Z</time>
      </trkpt>
      <trkpt lat="44.09672" lon="3.02762">
        <ele>533.9</ele>
        <time>2018-05-19T12:26:08Z</time>
      </trkpt>
      <trkpt lat="44.09675" lon="3.02761">
        <ele>534.5</ele>
        <time>2018-05-19T12:26:12Z</time>
      </trkpt>
      <trkpt lat="44.09678" lon="3.02762">
        <ele>535.1</ele>
        <time>2018-05-19T12:26:17Z</time>
      </trkpt>
      <trkpt lat="44.09682" lon="3.02762">
        <ele>535.6</ele>
        <time>2018-05-19T12:26:21Z</time>
      </trkpt>
      <trkpt lat="44.09684" lon="3.0276">
        <ele>535.9</ele>
        <time>2018-05-19T12:26:25Z</time>
      </trkpt>
      <trkpt lat="44.09687" lon="3.02759">
        <ele>536.6</ele>
        <time>2018-05-19T12:26:29Z</time>
      </trkpt>
      <trkpt lat="44.09691" lon="3.02758">
        <ele>537.5</ele>
        <time>2018-05-19T12:26:34Z</time>
      </trkpt>
      <trkpt lat="44.09694" lon="3.02757">
        <ele>538.2</ele>
        <time>2018-05-19T12:26:37Z</time>
      </trkpt>
      <trkpt lat="44.09697" lon="3.02757">
        <ele>538.6</ele>
        <time>2018-05-19T12:26:40Z</time>
      </trkpt>
      <trkpt lat="44.097" lon="3.02758">
        <ele>539.1</ele>
        <time>2018-05-19T12:26:46Z</time>
      </trkpt>
      <trkpt lat="44.09703" lon="3.0276">
        <ele>539.6</ele>
        <time>2018-05-19T12:26:52Z</time>
      </trkpt>
      <trkpt lat="44.09706" lon="3.02759">
        <ele>540.3</ele>
        <time>2018-05-19T12:27:00Z</time>
      </trkpt>
      <trkpt lat="44.09709" lon="3.02759">
        <ele>541</ele>
        <time>2018-05-19T12:27:04Z</time>
      </trkpt>
      <trkpt lat="44.09713" lon="3.02757">
        <ele>542</ele>
        <time>2018-05-19T12:27:07Z</time>
      </trkpt>
      <trkpt lat="44.09716" lon="3.02756">
        <ele>542.9</ele>
        <time>2018-05-19T12:27:11Z</time>
      </trkpt>
      <trkpt lat="44.0972" lon="3.02756">
        <ele>543.8</ele>
        <time>2018-05-19T12:27:14Z</time>
      </trkpt>
      <trkpt lat="44.09722" lon="3.02758">
        <ele>544.4</ele>
        <time>2018-05-19T12:27:22Z</time>
      </trkpt>
      <trkpt lat="44.09725" lon="3.02759">
        <ele>545.1</ele>
        <time>2018-05-19T12:27:29Z</time>
      </trkpt>
      <trkpt lat="44.09728" lon="3.02758">
        <ele>545.4</ele>
        <time>2018-05-19T12:27:34Z</time>
      </trkpt>
      <trkpt lat="44.09731" lon="3.02757">
        <ele>545.6</ele>
        <time>2018-05-19T12:27:37Z</time>
      </trkpt>
      <trkpt lat="44.09734" lon="3.02757">
        <ele>546.3</ele>
        <time>2018-05-19T12:27:40Z</time>
      </trkpt>
      <trkpt lat="44.09737" lon="3.02755">
        <ele>547</ele>
        <time>2018-05-19T12:27:44Z</time>
      </trkpt>
      <trkpt lat="44.0974" lon="3.02754">
        <ele>547.7</ele>
        <time>2018-05-19T12:27:47Z</time>
      </trkpt>
      <trkpt lat="44.09742" lon="3.02752">
        <ele>548.4</ele>
        <time>2018-05-19T12:27:50Z</time>
      </trkpt>
      <trkpt lat="44.09746" lon="3.02751">
        <ele>549.1</ele>
        <time>2018-05-19T12:27:53Z</time>
      </trkpt>
      <trkpt lat="44.09748" lon="3.02749">
        <ele>549.7</ele>
        <time>2018-05-19T12:27:59Z</time>
      </trkpt>
      <trkpt lat="44.09751" lon="3.02751">
        <ele>550.3</ele>
        <time>2018-05-19T12:28:10Z</time>
      </trkpt>
      <trkpt lat="44.09754" lon="3.02751">
        <ele>550.9</ele>
        <time>2018-05-19T12:28:12Z</time>
      </trkpt>
      <trkpt lat="44.09757" lon="3.0275">
        <ele>551.5</ele>
        <time>2018-05-19T12:28:14Z</time>
      </trkpt>
      <trkpt lat="44.09761" lon="3.0275">
        <ele>552.5</ele>
        <time>2018-05-19T12:28:16Z</time>
      </trkpt>
      <trkpt lat="44.09765" lon="3.0275">
        <ele>553.3</ele>
        <time>2018-05-19T12:28:18Z</time>
      </trkpt>
      <trkpt lat="44.09768" lon="3.02751">
        <ele>553.9</ele>
        <time>2018-05-19T12:28:20Z</time>
      </trkpt>
      <trkpt lat="44.09771" lon="3.02752">
        <ele>554.4</ele>
        <time>2018-05-19T12:28:22Z</time>
      </trkpt>
      <trkpt lat="44.09773" lon="3.02755">
        <ele>554.8</ele>
        <time>2018-05-19T12:28:24Z</time>
      </trkpt>
      <trkpt lat="44.09777" lon="3.02757">
        <ele>555.5</ele>
        <time>2018-05-19T12:28:26Z</time>
      </trkpt>
      <trkpt lat="44.09781" lon="3.02758">
        <ele>556.3</ele>
        <time>2018-05-19T12:28:28Z</time>
      </trkpt>
      <trkpt lat="44.09784" lon="3.02759">
        <ele>556.9</ele>
        <time>2018-05-19T12:28:30Z</time>
      </trkpt>
      <trkpt lat="44.09788" lon="3.02759">
        <ele>557.4</ele>
        <time>2018-05-19T12:28:32Z</time>
      </trkpt>
      <trkpt lat="44.09791" lon="3.02758">
        <ele>557.9</ele>
        <time>2018-05-19T12:28:34Z</time>
      </trkpt>
      <trkpt lat="44.09795" lon="3.02758">
        <ele>558.3</ele>
        <time>2018-05-19T12:28:36Z</time>
      </trkpt>
      <trkpt lat="44.09797" lon="3.02757">
        <ele>558.6</ele>
        <time>2018-05-19T12:28:38Z</time>
      </trkpt>
      <trkpt lat="44.09801" lon="3.02757">
        <ele>559.1</ele>
        <time>2018-05-19T12:28:40Z</time>
      </trkpt>
      <trkpt lat="44.09804" lon="3.02757">
        <ele>559.7</ele>
        <time>2018-05-19T12:28:42Z</time>
      </trkpt>
      <trkpt lat="44.09808" lon="3.02756">
        <ele>560.2</ele>
        <time>2018-05-19T12:28:44Z</time>
      </trkpt>
      <trkpt lat="44.0981" lon="3.02756">
        <ele>560.5</ele>
        <time>2018-05-19T12:28:46Z</time>
      </trkpt>
      <trkpt lat="44.09814" lon="3.02754">
        <ele>560.9</ele>
        <time>2018-05-19T12:28:49Z</time>
      </trkpt>
      <trkpt lat="44.09817" lon="3.02754">
        <ele>561.2</ele>
        <time>2018-05-19T12:28:51Z</time>
      </trkpt>
      <trkpt lat="44.09821" lon="3.02753">
        <ele>561.5</ele>
        <time>2018-05-19T12:28:53Z</time>
      </trkpt>
      <trkpt lat="44.09825" lon="3.02752">
        <ele>561.9</ele>
        <time>2018-05-19T12:28:55Z</time>
      </trkpt>
      <trkpt lat="44.09828" lon="3.02751">
        <ele>562.4</ele>
        <time>2018-05-19T12:28:57Z</time>
      </trkpt>
      <trkpt lat="44.09831" lon="3.0275">
        <ele>562.8</ele>
        <time>2018-05-19T12:28:59Z</time>
      </trkpt>
      <trkpt lat="44.09833" lon="3.02749">
        <ele>563</ele>
        <time>2018-05-19T12:29:01Z</time>
      </trkpt>
      <trkpt lat="44.09836" lon="3.02747">
        <ele>563.3</ele>
        <time>2018-05-19T12:29:03Z</time>
      </trkpt>
      <trkpt lat="44.0984" lon="3.02746">
        <ele>563.7</ele>
        <time>2018-05-19T12:29:05Z</time>
      </trkpt>
      <trkpt lat="44.09843" lon="3.02744">
        <ele>564.2</ele>
        <time>2018-05-19T12:29:07Z</time>
      </trkpt>
      <trkpt lat="44.09846" lon="3.02743">
        <ele>564.6</ele>
        <time>2018-05-19T12:29:09Z</time>
      </trkpt>
      <trkpt lat="44.09849" lon="3.02742">
        <ele>564.9</ele>
        <time>2018-05-19T12:29:11Z</time>
      </trkpt>
      <trkpt lat="44.09852" lon="3.02742">
        <ele>565.2</ele>
        <time>2018-05-19T12:29:13Z</time>
      </trkpt>
      <trkpt lat="44.09855" lon="3.02742">
        <ele>565.5</ele>
        <time>2018-05-19T12:29:15Z</time>
      </trkpt>
      <trkpt lat="44.09858" lon="3.02742">
        <ele>565.9</ele>
        <time>2018-05-19T12:29:17Z</time>
      </trkpt>
      <trkpt lat="44.09861" lon="3.02742">
        <ele>566.2</ele>
        <time>2018-05-19T12:29:19Z</time>
      </trkpt>
      <trkpt lat="44.09866" lon="3.02743">
        <ele>566.6</ele>
        <time>2018-05-19T12:29:22Z</time>
      </trkpt>
      <trkpt lat="44.09869" lon="3.02744">
        <ele>567</ele>
        <time>2018-05-19T12:29:24Z</time>
      </trkpt>
      <trkpt lat="44.09873" lon="3.02744">
        <ele>567.4</ele>
        <time>2018-05-19T12:29:26Z</time>
      </trkpt>
      <trkpt lat="44.09877" lon="3.02745">
        <ele>567.7</ele>
        <time>2018-05-19T12:29:28Z</time>
      </trkpt>
      <trkpt lat="44.0988" lon="3.02746">
        <ele>567.9</ele>
        <time>2018-05-19T12:29:30Z</time>
      </trkpt>
      <trkpt lat="44.09883" lon="3.02748">
        <ele>568.2</ele>
        <time>2018-05-19T12:29:32Z</time>
      </trkpt>
      <trkpt lat="44.09886" lon="3.0275">
        <ele>568.4</ele>
        <time>2018-05-19T12:29:34Z</time>
      </trkpt>
      <trkpt lat="44.09889" lon="3.0275">
        <ele>568.7</ele>
        <time>2018-05-19T12:29:36Z</time>
      </trkpt>
      <trkpt lat="44.09892" lon="3.02752">
        <ele>569</ele>
        <time>2018-05-19T12:29:38Z</time>
      </trkpt>
      <trkpt lat="44.09895" lon="3.02753">
        <ele>569.2</ele>
        <time>2018-05-19T12:29:40Z</time>
      </trkpt>
      <trkpt lat="44.09898" lon="3.02754">
        <ele>569.4</ele>
        <time>2018-05-19T12:29:42Z</time>
      </trkpt>
      <trkpt lat="44.09901" lon="3.02756">
        <ele>569.6</ele>
        <time>2018-05-19T12:29:44Z</time>
      </trkpt>
      <trkpt lat="44.09903" lon="3.02758">
        <ele>569.8</ele>
        <time>2018-05-19T12:29:46Z</time>
      </trkpt>
      <trkpt lat="44.09906" lon="3.0276">
        <ele>570</ele>
        <time>2018-05-19T12:29:48Z</time>
      </trkpt>
      <trkpt lat="44.09909" lon="3.02763">
        <ele>570.1</ele>
        <time>2018-05-19T12:29:50Z</time>
      </trkpt>
      <trkpt lat="44.09912" lon="3.02764">
        <ele>570.3</ele>
        <time>2018-05-19T12:29:52Z</time>
      </trkpt>
      <trkpt lat="44.09915" lon="3.02766">
        <ele>570.6</ele>
        <time>2018-05-19T12:29:54Z</time>
      </trkpt>
      <trkpt lat="44.09918" lon="3.02767">
        <ele>570.8</ele>
        <time>2018-05-19T12:29:56Z</time>
      </trkpt>
      <trkpt lat="44.09921" lon="3.02769">
        <ele>571</ele>
        <time>2018-05-19T12:29:58Z</time>
      </trkpt>
      <trkpt lat="44.09924" lon="3.0277">
        <ele>571.1</ele>
        <time>2018-05-19T12:30:00Z</time>
      </trkpt>
      <trkpt lat="44.09927" lon="3.02772">
        <ele>571.2</ele>
        <time>2018-05-19T12:30:02Z</time>
      </trkpt>
      <trkpt lat="44.0993" lon="3.02772">
        <ele>571.3</ele>
        <time>2018-05-19T12:30:05Z</time>
      </trkpt>
      <trkpt lat="44.09933" lon="3.02772">
        <ele>571.3</ele>
        <time>2018-05-19T12:30:09Z</time>
      </trkpt>
      <trkpt lat="44.09936" lon="3.02773">
        <ele>571.4</ele>
        <time>2018-05-19T12:30:24Z</time>
      </trkpt>
      <trkpt lat="44.0994" lon="3.02777">
        <ele>571.6</ele>
        <time>2018-05-19T12:34:03Z</time>
      </trkpt>
      <trkpt lat="44.09944" lon="3.02779">
        <ele>571.7</ele>
        <time>2018-05-19T12:34:06Z</time>
      </trkpt>
      <trkpt lat="44.09948" lon="3.0278">
        <ele>571.9</ele>
        <time>2018-05-19T12:34:08Z</time>
      </trkpt>
      <trkpt lat="44.09953" lon="3.02781">
        <ele>571.8</ele>
        <time>2018-05-19T12:34:11Z</time>
      </trkpt>
      <trkpt lat="44.09956" lon="3.02783">
        <ele>571.6</ele>
        <time>2018-05-19T12:34:12Z</time>
      </trkpt>
      <trkpt lat="44.09963" lon="3.02787">
        <ele>570.9</ele>
        <time>2018-05-19T12:34:13Z</time>
      </trkpt>
      <trkpt lat="44.09969" lon="3.02789">
        <ele>570.4</ele>
        <time>2018-05-19T12:34:14Z</time>
      </trkpt>
      <trkpt lat="44.09974" lon="3.02792">
        <ele>569.9</ele>
        <time>2018-05-19T12:34:15Z</time>
      </trkpt>
      <trkpt lat="44.09978" lon="3.02793">
        <ele>569.7</ele>
        <time>2018-05-19T12:34:16Z</time>
      </trkpt>
      <trkpt lat="44.09983" lon="3.02795">
        <ele>569.4</ele>
        <time>2018-05-19T12:34:17Z</time>
      </trkpt>
      <trkpt lat="44.09987" lon="3.02797">
        <ele>569.3</ele>
        <time>2018-05-19T12:34:18Z</time>
      </trkpt>
      <trkpt lat="44.09991" lon="3.02799">
        <ele>569.1</ele>
        <time>2018-05-19T12:34:19Z</time>
      </trkpt>
      <trkpt lat="44.09995" lon="3.028">
        <ele>569.1</ele>
        <time>2018-05-19T12:34:20Z</time>
      </trkpt>
      <trkpt lat="44.09998" lon="3.02801">
        <ele>569</ele>
        <time>2018-05-19T12:34:21Z</time>
      </trkpt>
      <trkpt lat="44.10001" lon="3.02804">
        <ele>568.9</ele>
        <time>2018-05-19T12:34:22Z</time>
      </trkpt>
      <trkpt lat="44.10005" lon="3.02806">
        <ele>568.9</ele>
        <time>2018-05-19T12:34:23Z</time>
      </trkpt>
      <trkpt lat="44.10008" lon="3.02807">
        <ele>568.9</ele>
        <time>2018-05-19T12:34:24Z</time>
      </trkpt>
      <trkpt lat="44.1001" lon="3.02809">
        <ele>568.9</ele>
        <time>2018-05-19T12:34:25Z</time>
      </trkpt>
      <trkpt lat="44.10017" lon="3.02812">
        <ele>568.9</ele>
        <time>2018-05-19T12:34:26Z</time>
      </trkpt>
      <trkpt lat="44.10021" lon="3.02813">
        <ele>568.9</ele>
        <time>2018-05-19T12:34:27Z</time>
      </trkpt>
      <trkpt lat="44.10024" lon="3.02814">
        <ele>568.9</ele>
        <time>2018-05-19T12:34:28Z</time>
      </trkpt>
      <trkpt lat="44.10028" lon="3.02814">
        <ele>568.8</ele>
        <time>2018-05-19T12:34:29Z</time>
      </trkpt>
      <trkpt lat="44.10032" lon="3.02815">
        <ele>568.8</ele>
        <time>2018-05-19T12:34:30Z</time>
      </trkpt>
      <trkpt lat="44.1004" lon="3.02814">
        <ele>568.5</ele>
        <time>2018-05-19T12:34:31Z</time>
      </trkpt>
      <trkpt lat="44.10045" lon="3.02815">
        <ele>568.2</ele>
        <time>2018-05-19T12:34:32Z</time>
      </trkpt>
      <trkpt lat="44.10051" lon="3.02817">
        <ele>568</ele>
        <time>2018-05-19T12:34:33Z</time>
      </trkpt>
      <trkpt lat="44.1006" lon="3.02818">
        <ele>567.7</ele>
        <time>2018-05-19T12:34:34Z</time>
      </trkpt>
      <trkpt lat="44.10068" lon="3.02819">
        <ele>567.4</ele>
        <time>2018-05-19T12:34:35Z</time>
      </trkpt>
      <trkpt lat="44.10071" lon="3.02821">
        <ele>567.4</ele>
        <time>2018-05-19T12:34:36Z</time>
      </trkpt>
      <trkpt lat="44.10078" lon="3.02824">
        <ele>567.3</ele>
        <time>2018-05-19T12:34:37Z</time>
      </trkpt>
      <trkpt lat="44.10084" lon="3.02826">
        <ele>567.3</ele>
        <time>2018-05-19T12:34:38Z</time>
      </trkpt>
      <trkpt lat="44.1009" lon="3.02829">
        <ele>567.3</ele>
        <time>2018-05-19T12:34:39Z</time>
      </trkpt>
      <trkpt lat="44.10095" lon="3.0283">
        <ele>567.3</ele>
        <time>2018-05-19T12:34:40Z</time>
      </trkpt>
      <trkpt lat="44.10101" lon="3.02831">
        <ele>567.4</ele>
        <time>2018-05-19T12:34:41Z</time>
      </trkpt>
      <trkpt lat="44.10105" lon="3.02832">
        <ele>567.4</ele>
        <time>2018-05-19T12:34:42Z</time>
      </trkpt>
      <trkpt lat="44.10111" lon="3.02832">
        <ele>567.5</ele>
        <time>2018-05-19T12:34:43Z</time>
      </trkpt>
      <trkpt lat="44.10116" lon="3.02832">
        <ele>567.6</ele>
        <time>2018-05-19T12:34:44Z</time>
      </trkpt>
      <trkpt lat="44.1012" lon="3.02833">
        <ele>567.7</ele>
        <time>2018-05-19T12:34:45Z</time>
      </trkpt>
      <trkpt lat="44.10124" lon="3.02833">
        <ele>567.9</ele>
        <time>2018-05-19T12:34:46Z</time>
      </trkpt>
      <trkpt lat="44.10128" lon="3.02833">
        <ele>568</ele>
        <time>2018-05-19T12:34:47Z</time>
      </trkpt>
      <trkpt lat="44.10131" lon="3.02832">
        <ele>568.2</ele>
        <time>2018-05-19T12:34:48Z</time>
      </trkpt>
      <trkpt lat="44.10135" lon="3.02832">
        <ele>568.3</ele>
        <time>2018-05-19T12:34:49Z</time>
      </trkpt>
      <trkpt lat="44.10141" lon="3.02831">
        <ele>568.4</ele>
        <time>2018-05-19T12:34:50Z</time>
      </trkpt>
      <trkpt lat="44.10147" lon="3.0283">
        <ele>568.5</ele>
        <time>2018-05-19T12:34:51Z</time>
      </trkpt>
      <trkpt lat="44.10152" lon="3.0283">
        <ele>568.5</ele>
        <time>2018-05-19T12:34:52Z</time>
      </trkpt>
      <trkpt lat="44.10155" lon="3.02831">
        <ele>568.4</ele>
        <time>2018-05-19T12:34:53Z</time>
      </trkpt>
      <trkpt lat="44.10159" lon="3.02832">
        <ele>568.4</ele>
        <time>2018-05-19T12:34:54Z</time>
      </trkpt>
      <trkpt lat="44.10163" lon="3.02833">
        <ele>568.3</ele>
        <time>2018-05-19T12:34:55Z</time>
      </trkpt>
      <trkpt lat="44.10167" lon="3.02833">
        <ele>568.2</ele>
        <time>2018-05-19T12:34:56Z</time>
      </trkpt>
      <trkpt lat="44.10171" lon="3.02834">
        <ele>568.1</ele>
        <time>2018-05-19T12:34:57Z</time>
      </trkpt>
      <trkpt lat="44.10175" lon="3.02835">
        <ele>568.1</ele>
        <time>2018-05-19T12:34:58Z</time>
      </trkpt>
      <trkpt lat="44.1018" lon="3.02837">
        <ele>568</ele>
        <time>2018-05-19T12:34:59Z</time>
      </trkpt>
      <trkpt lat="44.10184" lon="3.02838">
        <ele>567.8</ele>
        <time>2018-05-19T12:35:00Z</time>
      </trkpt>
      <trkpt lat="44.10188" lon="3.0284">
        <ele>567.7</ele>
        <time>2018-05-19T12:35:01Z</time>
      </trkpt>
      <trkpt lat="44.10192" lon="3.02843">
        <ele>567.5</ele>
        <time>2018-05-19T12:35:02Z</time>
      </trkpt>
      <trkpt lat="44.10201" lon="3.02849">
        <ele>567.1</ele>
        <time>2018-05-19T12:35:03Z</time>
      </trkpt>
      <trkpt lat="44.10206" lon="3.0285">
        <ele>566.9</ele>
        <time>2018-05-19T12:35:04Z</time>
      </trkpt>
      <trkpt lat="44.1021" lon="3.02853">
        <ele>566.9</ele>
        <time>2018-05-19T12:35:05Z</time>
      </trkpt>
      <trkpt lat="44.10215" lon="3.02859">
        <ele>566.9</ele>
        <time>2018-05-19T12:35:06Z</time>
      </trkpt>
      <trkpt lat="44.10223" lon="3.02864">
        <ele>567.1</ele>
        <time>2018-05-19T12:35:07Z</time>
      </trkpt>
      <trkpt lat="44.10227" lon="3.02873">
        <ele>567.5</ele>
        <time>2018-05-19T12:35:08Z</time>
      </trkpt>
      <trkpt lat="44.10232" lon="3.0288">
        <ele>567.8</ele>
        <time>2018-05-19T12:35:09Z</time>
      </trkpt>
      <trkpt lat="44.10236" lon="3.02885">
        <ele>568</ele>
        <time>2018-05-19T12:35:10Z</time>
      </trkpt>
      <trkpt lat="44.10239" lon="3.02889">
        <ele>568.2</ele>
        <time>2018-05-19T12:35:11Z</time>
      </trkpt>
      <trkpt lat="44.1024" lon="3.02896">
        <ele>568.4</ele>
        <time>2018-05-19T12:35:12Z</time>
      </trkpt>
      <trkpt lat="44.10245" lon="3.02901">
        <ele>568.5</ele>
        <time>2018-05-19T12:35:13Z</time>
      </trkpt>
      <trkpt lat="44.10247" lon="3.02906">
        <ele>568.6</ele>
        <time>2018-05-19T12:35:14Z</time>
      </trkpt>
      <trkpt lat="44.10251" lon="3.02911">
        <ele>568.7</ele>
        <time>2018-05-19T12:35:15Z</time>
      </trkpt>
      <trkpt lat="44.10253" lon="3.02915">
        <ele>568.8</ele>
        <time>2018-05-19T12:35:16Z</time>
      </trkpt>
      <trkpt lat="44.10256" lon="3.02921">
        <ele>568.9</ele>
        <time>2018-05-19T12:35:17Z</time>
      </trkpt>
      <trkpt lat="44.10258" lon="3.02926">
        <ele>569.1</ele>
        <time>2018-05-19T12:35:18Z</time>
      </trkpt>
      <trkpt lat="44.1026" lon="3.02929">
        <ele>569.3</ele>
        <time>2018-05-19T12:35:19Z</time>
      </trkpt>
      <trkpt lat="44.10265" lon="3.02931">
        <ele>569.7</ele>
        <time>2018-05-19T12:35:21Z</time>
      </trkpt>
      <trkpt lat="44.10268" lon="3.02935">
        <ele>570.2</ele>
        <time>2018-05-19T12:35:23Z</time>
      </trkpt>
      <trkpt lat="44.10271" lon="3.02943">
        <ele>571.1</ele>
        <time>2018-05-19T12:35:25Z</time>
      </trkpt>
      <trkpt lat="44.10272" lon="3.02948">
        <ele>571.7</ele>
        <time>2018-05-19T12:35:26Z</time>
      </trkpt>
      <trkpt lat="44.10273" lon="3.02954">
        <ele>572.3</ele>
        <time>2018-05-19T12:35:27Z</time>
      </trkpt>
      <trkpt lat="44.10271" lon="3.02959">
        <ele>571.9</ele>
        <time>2018-05-19T12:35:29Z</time>
      </trkpt>
      <trkpt lat="44.10269" lon="3.02962">
        <ele>572</ele>
        <time>2018-05-19T12:35:35Z</time>
      </trkpt>
      <trkpt lat="44.1027" lon="3.02966">
        <ele>572.1</ele>
        <time>2018-05-19T12:35:43Z</time>
      </trkpt>
      <trkpt lat="44.10267" lon="3.02968">
        <ele>571.7</ele>
        <time>2018-05-19T12:35:52Z</time>
      </trkpt>
      <trkpt lat="44.10263" lon="3.02972">
        <ele>571.4</ele>
        <time>2018-05-19T12:35:54Z</time>
      </trkpt>
      <trkpt lat="44.10259" lon="3.02974">
        <ele>570.9</ele>
        <time>2018-05-19T12:35:56Z</time>
      </trkpt>
      <trkpt lat="44.10254" lon="3.02977">
        <ele>570.5</ele>
        <time>2018-05-19T12:35:58Z</time>
      </trkpt>
      <trkpt lat="44.10251" lon="3.02979">
        <ele>570.2</ele>
        <time>2018-05-19T12:35:59Z</time>
      </trkpt>
      <trkpt lat="44.10249" lon="3.02981">
        <ele>569.9</ele>
        <time>2018-05-19T12:36:00Z</time>
      </trkpt>
      <trkpt lat="44.10246" lon="3.02983">
        <ele>569.6</ele>
        <time>2018-05-19T12:36:01Z</time>
      </trkpt>
      <trkpt lat="44.10243" lon="3.02984">
        <ele>569.3</ele>
        <time>2018-05-19T12:36:02Z</time>
      </trkpt>
      <trkpt lat="44.10241" lon="3.02986">
        <ele>569</ele>
        <time>2018-05-19T12:36:03Z</time>
      </trkpt>
      <trkpt lat="44.10239" lon="3.02988">
        <ele>569.1</ele>
        <time>2018-05-19T12:36:04Z</time>
      </trkpt>
      <trkpt lat="44.10234" lon="3.02991">
        <ele>568.7</ele>
        <time>2018-05-19T12:36:06Z</time>
      </trkpt>
      <trkpt lat="44.10231" lon="3.02995">
        <ele>568.4</ele>
        <time>2018-05-19T12:36:08Z</time>
      </trkpt>
      <trkpt lat="44.10229" lon="3.02998">
        <ele>568.6</ele>
        <time>2018-05-19T12:36:10Z</time>
      </trkpt>
      <trkpt lat="44.10225" lon="3.03001">
        <ele>568.2</ele>
        <time>2018-05-19T12:36:12Z</time>
      </trkpt>
      <trkpt lat="44.10221" lon="3.03004">
        <ele>567.9</ele>
        <time>2018-05-19T12:36:14Z</time>
      </trkpt>
      <trkpt lat="44.10218" lon="3.03006">
        <ele>567.9</ele>
        <time>2018-05-19T12:36:16Z</time>
      </trkpt>
      <trkpt lat="44.10213" lon="3.03011">
        <ele>568</ele>
        <time>2018-05-19T12:36:18Z</time>
      </trkpt>
      <trkpt lat="44.10209" lon="3.03015">
        <ele>567.8</ele>
        <time>2018-05-19T12:36:20Z</time>
      </trkpt>
      <trkpt lat="44.10207" lon="3.03017">
        <ele>567.8</ele>
        <time>2018-05-19T12:36:21Z</time>
      </trkpt>
      <trkpt lat="44.10205" lon="3.0302">
        <ele>567.8</ele>
        <time>2018-05-19T12:36:22Z</time>
      </trkpt>
      <trkpt lat="44.10201" lon="3.03024">
        <ele>567.5</ele>
        <time>2018-05-19T12:36:24Z</time>
      </trkpt>
      <trkpt lat="44.10198" lon="3.03027">
        <ele>567.7</ele>
        <time>2018-05-19T12:36:25Z</time>
      </trkpt>
      <trkpt lat="44.10196" lon="3.03029">
        <ele>567.4</ele>
        <time>2018-05-19T12:36:26Z</time>
      </trkpt>
      <trkpt lat="44.10194" lon="3.03032">
        <ele>567.3</ele>
        <time>2018-05-19T12:36:27Z</time>
      </trkpt>
      <trkpt lat="44.10191" lon="3.03034">
        <ele>567.3</ele>
        <time>2018-05-19T12:36:28Z</time>
      </trkpt>
      <trkpt lat="44.10189" lon="3.03037">
        <ele>567.3</ele>
        <time>2018-05-19T12:36:29Z</time>
      </trkpt>
      <trkpt lat="44.10186" lon="3.03039">
        <ele>567.3</ele>
        <time>2018-05-19T12:36:30Z</time>
      </trkpt>
      <trkpt lat="44.10184" lon="3.03041">
        <ele>567.1</ele>
        <time>2018-05-19T12:36:31Z</time>
      </trkpt>
      <trkpt lat="44.10181" lon="3.03044">
        <ele>567.3</ele>
        <time>2018-05-19T12:36:32Z</time>
      </trkpt>
      <trkpt lat="44.10179" lon="3.03046">
        <ele>567.2</ele>
        <time>2018-05-19T12:36:33Z</time>
      </trkpt>
      <trkpt lat="44.10177" lon="3.03048">
        <ele>567.5</ele>
        <time>2018-05-19T12:36:34Z</time>
      </trkpt>
      <trkpt lat="44.10174" lon="3.0305">
        <ele>567.4</ele>
        <time>2018-05-19T12:36:35Z</time>
      </trkpt>
      <trkpt lat="44.10172" lon="3.03051">
        <ele>567.4</ele>
        <time>2018-05-19T12:36:36Z</time>
      </trkpt>
      <trkpt lat="44.10168" lon="3.03051">
        <ele>567.7</ele>
        <time>2018-05-19T12:36:37Z</time>
      </trkpt>
      <trkpt lat="44.10165" lon="3.03051">
        <ele>567.7</ele>
        <time>2018-05-19T12:36:38Z</time>
      </trkpt>
      <trkpt lat="44.10162" lon="3.03051">
        <ele>567.6</ele>
        <time>2018-05-19T12:36:39Z</time>
      </trkpt>
      <trkpt lat="44.10157" lon="3.03051">
        <ele>567.5</ele>
        <time>2018-05-19T12:36:41Z</time>
      </trkpt>
      <trkpt lat="44.10153" lon="3.03051">
        <ele>567.5</ele>
        <time>2018-05-19T12:36:42Z</time>
      </trkpt>
      <trkpt lat="44.10149" lon="3.03052">
        <ele>567.4</ele>
        <time>2018-05-19T12:36:43Z</time>
      </trkpt>
      <trkpt lat="44.10145" lon="3.03051">
        <ele>567.2</ele>
        <time>2018-05-19T12:36:44Z</time>
      </trkpt>
      <trkpt lat="44.10141" lon="3.03051">
        <ele>567.1</ele>
        <time>2018-05-19T12:36:45Z</time>
      </trkpt>
      <trkpt lat="44.10137" lon="3.0305">
        <ele>566.5</ele>
        <time>2018-05-19T12:36:46Z</time>
      </trkpt>
      <trkpt lat="44.10133" lon="3.03049">
        <ele>566.2</ele>
        <time>2018-05-19T12:36:47Z</time>
      </trkpt>
      <trkpt lat="44.10129" lon="3.03047">
        <ele>566.1</ele>
        <time>2018-05-19T12:36:48Z</time>
      </trkpt>
      <trkpt lat="44.10125" lon="3.03045">
        <ele>565.7</ele>
        <time>2018-05-19T12:36:49Z</time>
      </trkpt>
      <trkpt lat="44.1012" lon="3.03044">
        <ele>565.5</ele>
        <time>2018-05-19T12:36:50Z</time>
      </trkpt>
      <trkpt lat="44.10115" lon="3.0304">
        <ele>565</ele>
        <time>2018-05-19T12:36:51Z</time>
      </trkpt>
      <trkpt lat="44.10111" lon="3.03037">
        <ele>564.4</ele>
        <time>2018-05-19T12:36:52Z</time>
      </trkpt>
      <trkpt lat="44.10108" lon="3.03035">
        <ele>564.2</ele>
        <time>2018-05-19T12:36:53Z</time>
      </trkpt>
      <trkpt lat="44.10103" lon="3.03034">
        <ele>564.1</ele>
        <time>2018-05-19T12:36:54Z</time>
      </trkpt>
      <trkpt lat="44.10097" lon="3.03035">
        <ele>563.8</ele>
        <time>2018-05-19T12:36:55Z</time>
      </trkpt>
      <trkpt lat="44.10092" lon="3.03037">
        <ele>563.5</ele>
        <time>2018-05-19T12:36:56Z</time>
      </trkpt>
      <trkpt lat="44.10086" lon="3.03041">
        <ele>563.6</ele>
        <time>2018-05-19T12:36:57Z</time>
      </trkpt>
      <trkpt lat="44.10082" lon="3.03044">
        <ele>563.8</ele>
        <time>2018-05-19T12:36:58Z</time>
      </trkpt>
      <trkpt lat="44.10077" lon="3.03046">
        <ele>563.5</ele>
        <time>2018-05-19T12:36:59Z</time>
      </trkpt>
      <trkpt lat="44.10075" lon="3.03047">
        <ele>563.9</ele>
        <time>2018-05-19T12:37:00Z</time>
      </trkpt>
      <trkpt lat="44.10069" lon="3.03047">
        <ele>563.6</ele>
        <time>2018-05-19T12:37:01Z</time>
      </trkpt>
      <trkpt lat="44.10062" lon="3.03049">
        <ele>563.1</ele>
        <time>2018-05-19T12:37:03Z</time>
      </trkpt>
      <trkpt lat="44.10057" lon="3.03049">
        <ele>562.9</ele>
        <time>2018-05-19T12:37:04Z</time>
      </trkpt>
      <trkpt lat="44.10051" lon="3.03051">
        <ele>562.5</ele>
        <time>2018-05-19T12:37:05Z</time>
      </trkpt>
      <trkpt lat="44.10047" lon="3.03052">
        <ele>562.6</ele>
        <time>2018-05-19T12:37:06Z</time>
      </trkpt>
      <trkpt lat="44.10042" lon="3.03054">
        <ele>562.4</ele>
        <time>2018-05-19T12:37:07Z</time>
      </trkpt>
      <trkpt lat="44.10038" lon="3.03057">
        <ele>562.7</ele>
        <time>2018-05-19T12:37:08Z</time>
      </trkpt>
      <trkpt lat="44.10034" lon="3.03063">
        <ele>562.5</ele>
        <time>2018-05-19T12:37:09Z</time>
      </trkpt>
      <trkpt lat="44.10029" lon="3.03068">
        <ele>562.4</ele>
        <time>2018-05-19T12:37:10Z</time>
      </trkpt>
      <trkpt lat="44.1002" lon="3.03075">
        <ele>561.6</ele>
        <time>2018-05-19T12:37:11Z</time>
      </trkpt>
      <trkpt lat="44.10015" lon="3.0308">
        <ele>561</ele>
        <time>2018-05-19T12:37:12Z</time>
      </trkpt>
      <trkpt lat="44.1001" lon="3.03086">
        <ele>560.6</ele>
        <time>2018-05-19T12:37:13Z</time>
      </trkpt>
      <trkpt lat="44.10004" lon="3.03093">
        <ele>560.4</ele>
        <time>2018-05-19T12:37:14Z</time>
      </trkpt>
      <trkpt lat="44.09998" lon="3.03099">
        <ele>560.2</ele>
        <time>2018-05-19T12:37:15Z</time>
      </trkpt>
      <trkpt lat="44.09991" lon="3.03104">
        <ele>559.8</ele>
        <time>2018-05-19T12:37:16Z</time>
      </trkpt>
      <trkpt lat="44.09984" lon="3.03108">
        <ele>559.2</ele>
        <time>2018-05-19T12:37:17Z</time>
      </trkpt>
      <trkpt lat="44.09979" lon="3.03111">
        <ele>558.6</ele>
        <time>2018-05-19T12:37:18Z</time>
      </trkpt>
      <trkpt lat="44.09973" lon="3.03114">
        <ele>558.3</ele>
        <time>2018-05-19T12:37:19Z</time>
      </trkpt>
      <trkpt lat="44.09968" lon="3.03116">
        <ele>558.2</ele>
        <time>2018-05-19T12:37:20Z</time>
      </trkpt>
      <trkpt lat="44.09965" lon="3.0312">
        <ele>558</ele>
        <time>2018-05-19T12:37:21Z</time>
      </trkpt>
      <trkpt lat="44.09961" lon="3.03123">
        <ele>557.8</ele>
        <time>2018-05-19T12:37:23Z</time>
      </trkpt>
      <trkpt lat="44.09959" lon="3.03123">
        <ele>557.5</ele>
        <time>2018-05-19T12:38:15Z</time>
      </trkpt>
      <trkpt lat="44.09956" lon="3.03123">
        <ele>557.3</ele>
        <time>2018-05-19T12:38:21Z</time>
      </trkpt>
      <trkpt lat="44.09952" lon="3.03126">
        <ele>557.2</ele>
        <time>2018-05-19T12:38:24Z</time>
      </trkpt>
      <trkpt lat="44.09951" lon="3.0313">
        <ele>557.1</ele>
        <time>2018-05-19T12:38:27Z</time>
      </trkpt>
      <trkpt lat="44.0995" lon="3.03136">
        <ele>557.2</ele>
        <time>2018-05-19T12:38:30Z</time>
      </trkpt>
      <trkpt lat="44.09952" lon="3.0314">
        <ele>557.6</ele>
        <time>2018-05-19T12:38:32Z</time>
      </trkpt>
      <trkpt lat="44.09955" lon="3.03141">
        <ele>557.8</ele>
        <time>2018-05-19T12:38:34Z</time>
      </trkpt>
      <trkpt lat="44.09957" lon="3.03138">
        <ele>557.8</ele>
        <time>2018-05-19T12:38:36Z</time>
      </trkpt>
      <trkpt lat="44.09959" lon="3.03133">
        <ele>557.9</ele>
        <time>2018-05-19T12:38:38Z</time>
      </trkpt>
      <trkpt lat="44.09959" lon="3.03127">
        <ele>557.7</ele>
        <time>2018-05-19T12:38:40Z</time>
      </trkpt>
      <trkpt lat="44.0996" lon="3.03122">
        <ele>557.5</ele>
        <time>2018-05-19T12:38:42Z</time>
      </trkpt>
      <trkpt lat="44.09963" lon="3.03117">
        <ele>557.6</ele>
        <time>2018-05-19T12:38:44Z</time>
      </trkpt>
      <trkpt lat="44.09966" lon="3.03115">
        <ele>557.7</ele>
        <time>2018-05-19T12:38:46Z</time>
      </trkpt>
      <trkpt lat="44.09971" lon="3.03113">
        <ele>558.3</ele>
        <time>2018-05-19T12:38:48Z</time>
      </trkpt>
      <trkpt lat="44.09975" lon="3.03112">
        <ele>558.6</ele>
        <time>2018-05-19T12:38:50Z</time>
      </trkpt>
      <trkpt lat="44.09979" lon="3.0311">
        <ele>558.6</ele>
        <time>2018-05-19T12:38:52Z</time>
      </trkpt>
      <trkpt lat="44.09981" lon="3.03108">
        <ele>558.9</ele>
        <time>2018-05-19T12:38:54Z</time>
      </trkpt>
      <trkpt lat="44.09984" lon="3.03107">
        <ele>559</ele>
        <time>2018-05-19T12:38:56Z</time>
      </trkpt>
      <trkpt lat="44.09988" lon="3.03106">
        <ele>559.2</ele>
        <time>2018-05-19T12:38:59Z</time>
      </trkpt>
      <trkpt lat="44.0999" lon="3.03107">
        <ele>559.8</ele>
        <time>2018-05-19T12:39:02Z</time>
      </trkpt>
      <trkpt lat="44.09989" lon="3.03111">
        <ele>560</ele>
        <time>2018-05-19T12:39:05Z</time>
      </trkpt>
      <trkpt lat="44.09986" lon="3.03112">
        <ele>559.7</ele>
        <time>2018-05-19T12:39:07Z</time>
      </trkpt>
      <trkpt lat="44.09981" lon="3.03114">
        <ele>559.1</ele>
        <time>2018-05-19T12:39:09Z</time>
      </trkpt>
      <trkpt lat="44.09978" lon="3.03116">
        <ele>559</ele>
        <time>2018-05-19T12:39:10Z</time>
      </trkpt>
      <trkpt lat="44.09974" lon="3.03119">
        <ele>558.7</ele>
        <time>2018-05-19T12:39:11Z</time>
      </trkpt>
      <trkpt lat="44.09971" lon="3.03122">
        <ele>558.6</ele>
        <time>2018-05-19T12:39:12Z</time>
      </trkpt>
      <trkpt lat="44.09965" lon="3.03126">
        <ele>558.2</ele>
        <time>2018-05-19T12:39:13Z</time>
      </trkpt>
      <trkpt lat="44.0996" lon="3.0313">
        <ele>557.8</ele>
        <time>2018-05-19T12:39:14Z</time>
      </trkpt>
      <trkpt lat="44.09955" lon="3.03133">
        <ele>557.7</ele>
        <time>2018-05-19T12:39:15Z</time>
      </trkpt>
      <trkpt lat="44.0995" lon="3.03137">
        <ele>557.4</ele>
        <time>2018-05-19T12:39:16Z</time>
      </trkpt>
      <trkpt lat="44.09946" lon="3.0314">
        <ele>557.1</ele>
        <time>2018-05-19T12:39:17Z</time>
      </trkpt>
      <trkpt lat="44.09942" lon="3.0314">
        <ele>556.7</ele>
        <time>2018-05-19T12:39:18Z</time>
      </trkpt>
      <trkpt lat="44.0994" lon="3.03138">
        <ele>556.4</ele>
        <time>2018-05-19T12:39:24Z</time>
      </trkpt>
      <trkpt lat="44.09935" lon="3.03142">
        <ele>555.9</ele>
        <time>2018-05-19T12:41:00Z</time>
      </trkpt>
      <trkpt lat="44.09932" lon="3.03141">
        <ele>555.7</ele>
        <time>2018-05-19T12:41:58Z</time>
      </trkpt>
      <trkpt lat="44.09929" lon="3.03145">
        <ele>555.4</ele>
        <time>2018-05-19T12:42:00Z</time>
      </trkpt>
      <trkpt lat="44.09925" lon="3.0315">
        <ele>555.3</ele>
        <time>2018-05-19T12:42:02Z</time>
      </trkpt>
      <trkpt lat="44.09922" lon="3.03153">
        <ele>554.9</ele>
        <time>2018-05-19T12:42:03Z</time>
      </trkpt>
      <trkpt lat="44.09919" lon="3.03157">
        <ele>554.5</ele>
        <time>2018-05-19T12:42:04Z</time>
      </trkpt>
      <trkpt lat="44.09914" lon="3.03159">
        <ele>553.7</ele>
        <time>2018-05-19T12:42:05Z</time>
      </trkpt>
      <trkpt lat="44.09909" lon="3.03162">
        <ele>553.3</ele>
        <time>2018-05-19T12:42:06Z</time>
      </trkpt>
      <trkpt lat="44.09903" lon="3.03164">
        <ele>552.5</ele>
        <time>2018-05-19T12:42:07Z</time>
      </trkpt>
      <trkpt lat="44.09897" lon="3.03164">
        <ele>551.6</ele>
        <time>2018-05-19T12:42:08Z</time>
      </trkpt>
      <trkpt lat="44.09889" lon="3.03163">
        <ele>550.1</ele>
        <time>2018-05-19T12:42:09Z</time>
      </trkpt>
      <trkpt lat="44.09881" lon="3.03162">
        <ele>548.8</ele>
        <time>2018-05-19T12:42:10Z</time>
      </trkpt>
      <trkpt lat="44.09874" lon="3.03164">
        <ele>547.2</ele>
        <time>2018-05-19T12:42:11Z</time>
      </trkpt>
      <trkpt lat="44.09866" lon="3.03166">
        <ele>545.9</ele>
        <time>2018-05-19T12:42:12Z</time>
      </trkpt>
      <trkpt lat="44.09858" lon="3.03168">
        <ele>544</ele>
        <time>2018-05-19T12:42:13Z</time>
      </trkpt>
      <trkpt lat="44.09852" lon="3.03171">
        <ele>542.4</ele>
        <time>2018-05-19T12:42:14Z</time>
      </trkpt>
      <trkpt lat="44.09846" lon="3.03175">
        <ele>541.4</ele>
        <time>2018-05-19T12:42:15Z</time>
      </trkpt>
      <trkpt lat="44.09844" lon="3.03181">
        <ele>542.1</ele>
        <time>2018-05-19T12:42:16Z</time>
      </trkpt>
      <trkpt lat="44.09842" lon="3.03186">
        <ele>541.8</ele>
        <time>2018-05-19T12:42:17Z</time>
      </trkpt>
      <trkpt lat="44.09843" lon="3.03192">
        <ele>542.1</ele>
        <time>2018-05-19T12:42:18Z</time>
      </trkpt>
      <trkpt lat="44.09844" lon="3.03199">
        <ele>543.1</ele>
        <time>2018-05-19T12:42:19Z</time>
      </trkpt>
      <trkpt lat="44.09844" lon="3.03209">
        <ele>543.3</ele>
        <time>2018-05-19T12:42:20Z</time>
      </trkpt>
      <trkpt lat="44.09845" lon="3.03219">
        <ele>543.2</ele>
        <time>2018-05-19T12:42:21Z</time>
      </trkpt>
      <trkpt lat="44.09846" lon="3.03229">
        <ele>542.6</ele>
        <time>2018-05-19T12:42:22Z</time>
      </trkpt>
      <trkpt lat="44.09848" lon="3.03239">
        <ele>542.3</ele>
        <time>2018-05-19T12:42:23Z</time>
      </trkpt>
      <trkpt lat="44.09851" lon="3.03246">
        <ele>541.7</ele>
        <time>2018-05-19T12:42:24Z</time>
      </trkpt>
      <trkpt lat="44.09855" lon="3.03253">
        <ele>541</ele>
        <time>2018-05-19T12:42:25Z</time>
      </trkpt>
      <trkpt lat="44.09859" lon="3.03253">
        <ele>541.9</ele>
        <time>2018-05-19T12:42:26Z</time>
      </trkpt>
      <trkpt lat="44.09862" lon="3.03254">
        <ele>541.9</ele>
        <time>2018-05-19T12:42:27Z</time>
      </trkpt>
      <trkpt lat="44.09864" lon="3.03261">
        <ele>541.1</ele>
        <time>2018-05-19T12:42:29Z</time>
      </trkpt>
      <trkpt lat="44.09866" lon="3.03265">
        <ele>541.6</ele>
        <time>2018-05-19T12:42:30Z</time>
      </trkpt>
      <trkpt lat="44.09869" lon="3.03271">
        <ele>540.7</ele>
        <time>2018-05-19T12:42:31Z</time>
      </trkpt>
      <trkpt lat="44.09872" lon="3.03277">
        <ele>540.4</ele>
        <time>2018-05-19T12:42:32Z</time>
      </trkpt>
      <trkpt lat="44.09874" lon="3.03282">
        <ele>539.8</ele>
        <time>2018-05-19T12:42:33Z</time>
      </trkpt>
      <trkpt lat="44.09876" lon="3.03287">
        <ele>539.6</ele>
        <time>2018-05-19T12:42:34Z</time>
      </trkpt>
      <trkpt lat="44.09878" lon="3.03291">
        <ele>539.4</ele>
        <time>2018-05-19T12:42:35Z</time>
      </trkpt>
      <trkpt lat="44.09882" lon="3.03297">
        <ele>538.6</ele>
        <time>2018-05-19T12:42:36Z</time>
      </trkpt>
      <trkpt lat="44.09889" lon="3.03303">
        <ele>538.8</ele>
        <time>2018-05-19T12:42:37Z</time>
      </trkpt>
      <trkpt lat="44.09891" lon="3.03309">
        <ele>538</ele>
        <time>2018-05-19T12:42:38Z</time>
      </trkpt>
      <trkpt lat="44.09893" lon="3.03315">
        <ele>537.5</ele>
        <time>2018-05-19T12:42:39Z</time>
      </trkpt>
      <trkpt lat="44.09893" lon="3.03323">
        <ele>536.9</ele>
        <time>2018-05-19T12:42:40Z</time>
      </trkpt>
      <trkpt lat="44.09895" lon="3.0333">
        <ele>536.1</ele>
        <time>2018-05-19T12:42:41Z</time>
      </trkpt>
      <trkpt lat="44.09899" lon="3.03335">
        <ele>536.2</ele>
        <time>2018-05-19T12:42:42Z</time>
      </trkpt>
      <trkpt lat="44.09903" lon="3.03341">
        <ele>536.1</ele>
        <time>2018-05-19T12:42:43Z</time>
      </trkpt>
      <trkpt lat="44.09906" lon="3.03347">
        <ele>536</ele>
        <time>2018-05-19T12:42:44Z</time>
      </trkpt>
      <trkpt lat="44.09912" lon="3.0335">
        <ele>536.2</ele>
        <time>2018-05-19T12:42:45Z</time>
      </trkpt>
      <trkpt lat="44.09915" lon="3.03352">
        <ele>536.3</ele>
        <time>2018-05-19T12:42:46Z</time>
      </trkpt>
      <trkpt lat="44.09915" lon="3.03357">
        <ele>535.9</ele>
        <time>2018-05-19T12:42:47Z</time>
      </trkpt>
      <trkpt lat="44.09918" lon="3.03359">
        <ele>536.3</ele>
        <time>2018-05-19T12:42:48Z</time>
      </trkpt>
      <trkpt lat="44.09922" lon="3.03365">
        <ele>536.1</ele>
        <time>2018-05-19T12:42:50Z</time>
      </trkpt>
      <trkpt lat="44.09923" lon="3.03369">
        <ele>535.9</ele>
        <time>2018-05-19T12:42:51Z</time>
      </trkpt>
      <trkpt lat="44.09926" lon="3.03372">
        <ele>536.2</ele>
        <time>2018-05-19T12:42:52Z</time>
      </trkpt>
      <trkpt lat="44.09933" lon="3.03374">
        <ele>536.7</ele>
        <time>2018-05-19T12:42:54Z</time>
      </trkpt>
      <trkpt lat="44.09936" lon="3.03376">
        <ele>536.7</ele>
        <time>2018-05-19T12:42:55Z</time>
      </trkpt>
      <trkpt lat="44.09937" lon="3.0338">
        <ele>536.8</ele>
        <time>2018-05-19T12:42:56Z</time>
      </trkpt>
      <trkpt lat="44.09939" lon="3.03384">
        <ele>536.6</ele>
        <time>2018-05-19T12:42:57Z</time>
      </trkpt>
      <trkpt lat="44.09939" lon="3.03389">
        <ele>536.8</ele>
        <time>2018-05-19T12:42:59Z</time>
      </trkpt>
      <trkpt lat="44.09937" lon="3.03392">
        <ele>536.5</ele>
        <time>2018-05-19T12:43:01Z</time>
      </trkpt>
      <trkpt lat="44.09935" lon="3.03396">
        <ele>536.2</ele>
        <time>2018-05-19T12:43:03Z</time>
      </trkpt>
      <trkpt lat="44.09933" lon="3.034">
        <ele>535.9</ele>
        <time>2018-05-19T12:43:05Z</time>
      </trkpt>
      <trkpt lat="44.09931" lon="3.03405">
        <ele>535.9</ele>
        <time>2018-05-19T12:43:07Z</time>
      </trkpt>
      <trkpt lat="44.09928" lon="3.03408">
        <ele>535.6</ele>
        <time>2018-05-19T12:43:09Z</time>
      </trkpt>
      <trkpt lat="44.09925" lon="3.03412">
        <ele>535.3</ele>
        <time>2018-05-19T12:43:12Z</time>
      </trkpt>
      <trkpt lat="44.09922" lon="3.03415">
        <ele>535</ele>
        <time>2018-05-19T12:43:14Z</time>
      </trkpt>
      <trkpt lat="44.09919" lon="3.03418">
        <ele>534.7</ele>
        <time>2018-05-19T12:43:16Z</time>
      </trkpt>
      <trkpt lat="44.09916" lon="3.03421">
        <ele>534.4</ele>
        <time>2018-05-19T12:43:18Z</time>
      </trkpt>
      <trkpt lat="44.09914" lon="3.03424">
        <ele>534.1</ele>
        <time>2018-05-19T12:43:20Z</time>
      </trkpt>
      <trkpt lat="44.09911" lon="3.03428">
        <ele>534.2</ele>
        <time>2018-05-19T12:43:22Z</time>
      </trkpt>
      <trkpt lat="44.09909" lon="3.0343">
        <ele>534</ele>
        <time>2018-05-19T12:43:24Z</time>
      </trkpt>
      <trkpt lat="44.09907" lon="3.03433">
        <ele>533.7</ele>
        <time>2018-05-19T12:43:26Z</time>
      </trkpt>
      <trkpt lat="44.09904" lon="3.03436">
        <ele>533.6</ele>
        <time>2018-05-19T12:43:28Z</time>
      </trkpt>
      <trkpt lat="44.09902" lon="3.03439">
        <ele>533.8</ele>
        <time>2018-05-19T12:43:41Z</time>
      </trkpt>
      <trkpt lat="44.099" lon="3.03441">
        <ele>533.5</ele>
        <time>2018-05-19T12:43:46Z</time>
      </trkpt>
      <trkpt lat="44.09903" lon="3.0344">
        <ele>533.8</ele>
        <time>2018-05-19T12:43:55Z</time>
      </trkpt>
      <trkpt lat="44.099" lon="3.0344">
        <ele>533.5</ele>
        <time>2018-05-19T12:44:02Z</time>
      </trkpt>
      <trkpt lat="44.09896" lon="3.03442">
        <ele>533.4</ele>
        <time>2018-05-19T12:44:04Z</time>
      </trkpt>
      <trkpt lat="44.09891" lon="3.03446">
        <ele>532.6</ele>
        <time>2018-05-19T12:44:06Z</time>
      </trkpt>
      <trkpt lat="44.09888" lon="3.03448">
        <ele>532.5</ele>
        <time>2018-05-19T12:44:08Z</time>
      </trkpt>
      <trkpt lat="44.09885" lon="3.0345">
        <ele>532.1</ele>
        <time>2018-05-19T12:44:10Z</time>
      </trkpt>
      <trkpt lat="44.09882" lon="3.03453">
        <ele>532.1</ele>
        <time>2018-05-19T12:44:13Z</time>
      </trkpt>
      <trkpt lat="44.09879" lon="3.03454">
        <ele>531.6</ele>
        <time>2018-05-19T12:44:15Z</time>
      </trkpt>
      <trkpt lat="44.09876" lon="3.03457">
        <ele>531.7</ele>
        <time>2018-05-19T12:44:18Z</time>
      </trkpt>
      <trkpt lat="44.09873" lon="3.03459">
        <ele>531.8</ele>
        <time>2018-05-19T12:44:20Z</time>
      </trkpt>
      <trkpt lat="44.09869" lon="3.03461">
        <ele>531.4</ele>
        <time>2018-05-19T12:44:22Z</time>
      </trkpt>
      <trkpt lat="44.09866" lon="3.03462">
        <ele>531</ele>
        <time>2018-05-19T12:44:23Z</time>
      </trkpt>
      <trkpt lat="44.09863" lon="3.03463">
        <ele>531.1</ele>
        <time>2018-05-19T12:44:24Z</time>
      </trkpt>
      <trkpt lat="44.0986" lon="3.03464">
        <ele>530.7</ele>
        <time>2018-05-19T12:44:25Z</time>
      </trkpt>
      <trkpt lat="44.09857" lon="3.03466">
        <ele>530.3</ele>
        <time>2018-05-19T12:44:26Z</time>
      </trkpt>
      <trkpt lat="44.09854" lon="3.03467">
        <ele>529.8</ele>
        <time>2018-05-19T12:44:27Z</time>
      </trkpt>
      <trkpt lat="44.09851" lon="3.03468">
        <ele>530</ele>
        <time>2018-05-19T12:44:28Z</time>
      </trkpt>
      <trkpt lat="44.09848" lon="3.03469">
        <ele>529.6</ele>
        <time>2018-05-19T12:44:29Z</time>
      </trkpt>
      <trkpt lat="44.09845" lon="3.0347">
        <ele>529.1</ele>
        <time>2018-05-19T12:44:30Z</time>
      </trkpt>
      <trkpt lat="44.09842" lon="3.03471">
        <ele>528.6</ele>
        <time>2018-05-19T12:44:31Z</time>
      </trkpt>
      <trkpt lat="44.09838" lon="3.03472">
        <ele>528.9</ele>
        <time>2018-05-19T12:44:32Z</time>
      </trkpt>
      <trkpt lat="44.09834" lon="3.03473">
        <ele>527.8</ele>
        <time>2018-05-19T12:44:33Z</time>
      </trkpt>
      <trkpt lat="44.0983" lon="3.03474">
        <ele>527.2</ele>
        <time>2018-05-19T12:44:34Z</time>
      </trkpt>
      <trkpt lat="44.09826" lon="3.03476">
        <ele>526.6</ele>
        <time>2018-05-19T12:44:35Z</time>
      </trkpt>
      <trkpt lat="44.09822" lon="3.03477">
        <ele>526.8</ele>
        <time>2018-05-19T12:44:36Z</time>
      </trkpt>
      <trkpt lat="44.09816" lon="3.03478">
        <ele>525.6</ele>
        <time>2018-05-19T12:44:37Z</time>
      </trkpt>
      <trkpt lat="44.09811" lon="3.03479">
        <ele>524.4</ele>
        <time>2018-05-19T12:44:38Z</time>
      </trkpt>
      <trkpt lat="44.09805" lon="3.03482">
        <ele>523.6</ele>
        <time>2018-05-19T12:44:39Z</time>
      </trkpt>
      <trkpt lat="44.098" lon="3.03484">
        <ele>522.8</ele>
        <time>2018-05-19T12:44:40Z</time>
      </trkpt>
      <trkpt lat="44.09797" lon="3.03487">
        <ele>522.2</ele>
        <time>2018-05-19T12:44:41Z</time>
      </trkpt>
      <trkpt lat="44.09793" lon="3.0349">
        <ele>522.2</ele>
        <time>2018-05-19T12:44:42Z</time>
      </trkpt>
      <trkpt lat="44.0979" lon="3.03493">
        <ele>521.6</ele>
        <time>2018-05-19T12:44:43Z</time>
      </trkpt>
      <trkpt lat="44.09788" lon="3.03495">
        <ele>521.7</ele>
        <time>2018-05-19T12:44:44Z</time>
      </trkpt>
      <trkpt lat="44.09782" lon="3.03498">
        <ele>521.9</ele>
        <time>2018-05-19T12:44:46Z</time>
      </trkpt>
      <trkpt lat="44.09779" lon="3.035">
        <ele>520.5</ele>
        <time>2018-05-19T12:44:47Z</time>
      </trkpt>
      <trkpt lat="44.09775" lon="3.03502">
        <ele>520.7</ele>
        <time>2018-05-19T12:44:48Z</time>
      </trkpt>
      <trkpt lat="44.09771" lon="3.03506">
        <ele>520.9</ele>
        <time>2018-05-19T12:44:50Z</time>
      </trkpt>
      <trkpt lat="44.09769" lon="3.03509">
        <ele>520.2</ele>
        <time>2018-05-19T12:44:51Z</time>
      </trkpt>
      <trkpt lat="44.09766" lon="3.0351">
        <ele>520.4</ele>
        <time>2018-05-19T12:44:52Z</time>
      </trkpt>
      <trkpt lat="44.09763" lon="3.03512">
        <ele>519.7</ele>
        <time>2018-05-19T12:44:54Z</time>
      </trkpt>
      <trkpt lat="44.09761" lon="3.03511">
        <ele>519.7</ele>
        <time>2018-05-19T12:45:08Z</time>
      </trkpt>
      <trkpt lat="44.09763" lon="3.03514">
        <ele>519.6</ele>
        <time>2018-05-19T12:45:14Z</time>
      </trkpt>
      <trkpt lat="44.0976" lon="3.03514">
        <ele>519</ele>
        <time>2018-05-19T12:45:50Z</time>
      </trkpt>
      <trkpt lat="44.09756" lon="3.03515">
        <ele>519.2</ele>
        <time>2018-05-19T12:46:42Z</time>
      </trkpt>
      <trkpt lat="44.09753" lon="3.03515">
        <ele>518.5</ele>
        <time>2018-05-19T12:46:43Z</time>
      </trkpt>
      <trkpt lat="44.09749" lon="3.03515">
        <ele>517.9</ele>
        <time>2018-05-19T12:46:44Z</time>
      </trkpt>
      <trkpt lat="44.09746" lon="3.03515">
        <ele>517.3</ele>
        <time>2018-05-19T12:46:45Z</time>
      </trkpt>
      <trkpt lat="44.09742" lon="3.03515">
        <ele>516.2</ele>
        <time>2018-05-19T12:46:46Z</time>
      </trkpt>
      <trkpt lat="44.09734" lon="3.03514">
        <ele>514.3</ele>
        <time>2018-05-19T12:46:47Z</time>
      </trkpt>
      <trkpt lat="44.09728" lon="3.03512">
        <ele>513.5</ele>
        <time>2018-05-19T12:46:48Z</time>
      </trkpt>
      <trkpt lat="44.09721" lon="3.03511">
        <ele>512.6</ele>
        <time>2018-05-19T12:46:49Z</time>
      </trkpt>
      <trkpt lat="44.09714" lon="3.0351">
        <ele>510.8</ele>
        <time>2018-05-19T12:46:50Z</time>
      </trkpt>
      <trkpt lat="44.09707" lon="3.03509">
        <ele>509.8</ele>
        <time>2018-05-19T12:46:51Z</time>
      </trkpt>
      <trkpt lat="44.097" lon="3.03507">
        <ele>509</ele>
        <time>2018-05-19T12:46:52Z</time>
      </trkpt>
      <trkpt lat="44.09693" lon="3.03506">
        <ele>507.9</ele>
        <time>2018-05-19T12:46:53Z</time>
      </trkpt>
      <trkpt lat="44.09685" lon="3.03506">
        <ele>506.3</ele>
        <time>2018-05-19T12:46:54Z</time>
      </trkpt>
      <trkpt lat="44.09676" lon="3.03508">
        <ele>504.8</ele>
        <time>2018-05-19T12:46:55Z</time>
      </trkpt>
      <trkpt lat="44.0967" lon="3.0351">
        <ele>503.3</ele>
        <time>2018-05-19T12:46:56Z</time>
      </trkpt>
      <trkpt lat="44.09666" lon="3.03511">
        <ele>503.5</ele>
        <time>2018-05-19T12:46:57Z</time>
      </trkpt>
      <trkpt lat="44.09662" lon="3.03512">
        <ele>502.7</ele>
        <time>2018-05-19T12:46:58Z</time>
      </trkpt>
      <trkpt lat="44.0966" lon="3.03511">
        <ele>501.8</ele>
        <time>2018-05-19T12:46:59Z</time>
      </trkpt>
      <trkpt lat="44.09657" lon="3.03511">
        <ele>501</ele>
        <time>2018-05-19T12:47:00Z</time>
      </trkpt>
      <trkpt lat="44.09652" lon="3.03511">
        <ele>500.1</ele>
        <time>2018-05-19T12:47:01Z</time>
      </trkpt>
      <trkpt lat="44.09648" lon="3.03511">
        <ele>498.1</ele>
        <time>2018-05-19T12:47:02Z</time>
      </trkpt>
      <trkpt lat="44.09643" lon="3.03514">
        <ele>495.9</ele>
        <time>2018-05-19T12:47:03Z</time>
      </trkpt>
      <trkpt lat="44.09639" lon="3.03517">
        <ele>495.7</ele>
        <time>2018-05-19T12:47:04Z</time>
      </trkpt>
      <trkpt lat="44.09635" lon="3.03522">
        <ele>495.4</ele>
        <time>2018-05-19T12:47:05Z</time>
      </trkpt>
      <trkpt lat="44.09632" lon="3.03528">
        <ele>496.4</ele>
        <time>2018-05-19T12:47:06Z</time>
      </trkpt>
      <trkpt lat="44.09629" lon="3.03535">
        <ele>496.2</ele>
        <time>2018-05-19T12:47:07Z</time>
      </trkpt>
      <trkpt lat="44.09627" lon="3.03543">
        <ele>497.3</ele>
        <time>2018-05-19T12:47:08Z</time>
      </trkpt>
      <trkpt lat="44.09625" lon="3.03552">
        <ele>499.5</ele>
        <time>2018-05-19T12:47:09Z</time>
      </trkpt>
      <trkpt lat="44.09624" lon="3.0356">
        <ele>500.4</ele>
        <time>2018-05-19T12:47:10Z</time>
      </trkpt>
      <trkpt lat="44.09624" lon="3.03571">
        <ele>503.1</ele>
        <time>2018-05-19T12:47:11Z</time>
      </trkpt>
      <trkpt lat="44.09624" lon="3.03582">
        <ele>504.9</ele>
        <time>2018-05-19T12:47:12Z</time>
      </trkpt>
      <trkpt lat="44.09625" lon="3.03591">
        <ele>506.4</ele>
        <time>2018-05-19T12:47:13Z</time>
      </trkpt>
      <trkpt lat="44.09624" lon="3.036">
        <ele>507.5</ele>
        <time>2018-05-19T12:47:14Z</time>
      </trkpt>
      <trkpt lat="44.09623" lon="3.03609">
        <ele>508.5</ele>
        <time>2018-05-19T12:47:15Z</time>
      </trkpt>
      <trkpt lat="44.09621" lon="3.03618">
        <ele>509</ele>
        <time>2018-05-19T12:47:16Z</time>
      </trkpt>
      <trkpt lat="44.09617" lon="3.03627">
        <ele>508.9</ele>
        <time>2018-05-19T12:47:17Z</time>
      </trkpt>
      <trkpt lat="44.09613" lon="3.03634">
        <ele>508.3</ele>
        <time>2018-05-19T12:47:18Z</time>
      </trkpt>
      <trkpt lat="44.0961" lon="3.03643">
        <ele>508</ele>
        <time>2018-05-19T12:47:19Z</time>
      </trkpt>
      <trkpt lat="44.09606" lon="3.03651">
        <ele>506.6</ele>
        <time>2018-05-19T12:47:20Z</time>
      </trkpt>
      <trkpt lat="44.09602" lon="3.03659">
        <ele>506.4</ele>
        <time>2018-05-19T12:47:21Z</time>
      </trkpt>
      <trkpt lat="44.09597" lon="3.03666">
        <ele>506.3</ele>
        <time>2018-05-19T12:47:22Z</time>
      </trkpt>
      <trkpt lat="44.09595" lon="3.03673">
        <ele>505.7</ele>
        <time>2018-05-19T12:47:23Z</time>
      </trkpt>
      <trkpt lat="44.09594" lon="3.03683">
        <ele>505.7</ele>
        <time>2018-05-19T12:47:24Z</time>
      </trkpt>
      <trkpt lat="44.09594" lon="3.03692">
        <ele>507</ele>
        <time>2018-05-19T12:47:25Z</time>
      </trkpt>
      <trkpt lat="44.09596" lon="3.03702">
        <ele>507.2</ele>
        <time>2018-05-19T12:47:26Z</time>
      </trkpt>
      <trkpt lat="44.09596" lon="3.03712">
        <ele>507.7</ele>
        <time>2018-05-19T12:47:27Z</time>
      </trkpt>
      <trkpt lat="44.09595" lon="3.03723">
        <ele>507.9</ele>
        <time>2018-05-19T12:47:28Z</time>
      </trkpt>
      <trkpt lat="44.09594" lon="3.03734">
        <ele>507.6</ele>
        <time>2018-05-19T12:47:29Z</time>
      </trkpt>
      <trkpt lat="44.09593" lon="3.03742">
        <ele>507.8</ele>
        <time>2018-05-19T12:47:30Z</time>
      </trkpt>
      <trkpt lat="44.09592" lon="3.03749">
        <ele>507.9</ele>
        <time>2018-05-19T12:47:31Z</time>
      </trkpt>
      <trkpt lat="44.09591" lon="3.03754">
        <ele>508</ele>
        <time>2018-05-19T12:47:32Z</time>
      </trkpt>
      <trkpt lat="44.09591" lon="3.03758">
        <ele>508.1</ele>
        <time>2018-05-19T12:47:33Z</time>
      </trkpt>
      <trkpt lat="44.09589" lon="3.03762">
        <ele>507.3</ele>
        <time>2018-05-19T12:47:35Z</time>
      </trkpt>
      <trkpt lat="44.09591" lon="3.03753">
        <ele>507.8</ele>
        <time>2018-05-19T12:48:09Z</time>
      </trkpt>
      <trkpt lat="44.09592" lon="3.03749">
        <ele>507.6</ele>
        <time>2018-05-19T12:48:11Z</time>
      </trkpt>
      <trkpt lat="44.09593" lon="3.03743">
        <ele>507.3</ele>
        <time>2018-05-19T12:48:13Z</time>
      </trkpt>
      <trkpt lat="44.09595" lon="3.03739">
        <ele>507.9</ele>
        <time>2018-05-19T12:48:17Z</time>
      </trkpt>
      <trkpt lat="44.09595" lon="3.03743">
        <ele>508</ele>
        <time>2018-05-19T12:48:33Z</time>
      </trkpt>
      <trkpt lat="44.09596" lon="3.03747">
        <ele>508</ele>
        <time>2018-05-19T12:48:37Z</time>
      </trkpt>
      <trkpt lat="44.09596" lon="3.03752">
        <ele>508.1</ele>
        <time>2018-05-19T12:48:41Z</time>
      </trkpt>
      <trkpt lat="44.09596" lon="3.03756">
        <ele>508.2</ele>
        <time>2018-05-19T12:48:45Z</time>
      </trkpt>
      <trkpt lat="44.09597" lon="3.03761">
        <ele>508.2</ele>
        <time>2018-05-19T12:48:50Z</time>
      </trkpt>
      <trkpt lat="44.09599" lon="3.03764">
        <ele>508.9</ele>
        <time>2018-05-19T12:48:55Z</time>
      </trkpt>
      <trkpt lat="44.09599" lon="3.03768">
        <ele>508.9</ele>
        <time>2018-05-19T12:49:01Z</time>
      </trkpt>
      <trkpt lat="44.09601" lon="3.03773">
        <ele>509.4</ele>
        <time>2018-05-19T12:49:05Z</time>
      </trkpt>
      <trkpt lat="44.09603" lon="3.03776">
        <ele>509.5</ele>
        <time>2018-05-19T12:49:08Z</time>
      </trkpt>
      <trkpt lat="44.09603" lon="3.03781">
        <ele>510.1</ele>
        <time>2018-05-19T12:49:13Z</time>
      </trkpt>
      <trkpt lat="44.09605" lon="3.03785">
        <ele>510</ele>
        <time>2018-05-19T12:49:17Z</time>
      </trkpt>
      <trkpt lat="44.09608" lon="3.03788">
        <ele>510.7</ele>
        <time>2018-05-19T12:49:21Z</time>
      </trkpt>
      <trkpt lat="44.09608" lon="3.03792">
        <ele>510.6</ele>
        <time>2018-05-19T12:49:25Z</time>
      </trkpt>
      <trkpt lat="44.09609" lon="3.03796">
        <ele>510.4</ele>
        <time>2018-05-19T12:49:28Z</time>
      </trkpt>
      <trkpt lat="44.0961" lon="3.038">
        <ele>511.1</ele>
        <time>2018-05-19T12:49:32Z</time>
      </trkpt>
      <trkpt lat="44.0961" lon="3.03804">
        <ele>510.9</ele>
        <time>2018-05-19T12:49:36Z</time>
      </trkpt>
      <trkpt lat="44.0961" lon="3.03808">
        <ele>510.9</ele>
        <time>2018-05-19T12:49:40Z</time>
      </trkpt>
      <trkpt lat="44.09609" lon="3.03812">
        <ele>510.8</ele>
        <time>2018-05-19T12:49:46Z</time>
      </trkpt>
      <trkpt lat="44.09609" lon="3.03818">
        <ele>510.1</ele>
        <time>2018-05-19T12:49:48Z</time>
      </trkpt>
      <trkpt lat="44.09608" lon="3.03825">
        <ele>510</ele>
        <time>2018-05-19T12:49:50Z</time>
      </trkpt>
      <trkpt lat="44.09607" lon="3.03831">
        <ele>509.9</ele>
        <time>2018-05-19T12:49:52Z</time>
      </trkpt>
      <trkpt lat="44.09607" lon="3.03835">
        <ele>509.9</ele>
        <time>2018-05-19T12:49:53Z</time>
      </trkpt>
      <trkpt lat="44.09606" lon="3.03839">
        <ele>509.8</ele>
        <time>2018-05-19T12:49:54Z</time>
      </trkpt>
      <trkpt lat="44.09606" lon="3.03844">
        <ele>509.2</ele>
        <time>2018-05-19T12:49:55Z</time>
      </trkpt>
      <trkpt lat="44.09606" lon="3.03848">
        <ele>509.1</ele>
        <time>2018-05-19T12:49:56Z</time>
      </trkpt>
      <trkpt lat="44.09606" lon="3.03853">
        <ele>509</ele>
        <time>2018-05-19T12:49:57Z</time>
      </trkpt>
      <trkpt lat="44.09606" lon="3.03857">
        <ele>508.8</ele>
        <time>2018-05-19T12:49:58Z</time>
      </trkpt>
      <trkpt lat="44.09606" lon="3.03862">
        <ele>508.6</ele>
        <time>2018-05-19T12:49:59Z</time>
      </trkpt>
      <trkpt lat="44.09606" lon="3.03866">
        <ele>508.4</ele>
        <time>2018-05-19T12:50:00Z</time>
      </trkpt>
      <trkpt lat="44.09606" lon="3.0387">
        <ele>508.1</ele>
        <time>2018-05-19T12:50:01Z</time>
      </trkpt>
      <trkpt lat="44.09607" lon="3.03874">
        <ele>508.4</ele>
        <time>2018-05-19T12:50:02Z</time>
      </trkpt>
      <trkpt lat="44.09608" lon="3.03881">
        <ele>507.9</ele>
        <time>2018-05-19T12:50:04Z</time>
      </trkpt>
      <trkpt lat="44.09609" lon="3.03885">
        <ele>507.6</ele>
        <time>2018-05-19T12:50:05Z</time>
      </trkpt>
      <trkpt lat="44.09609" lon="3.03889">
        <ele>507.3</ele>
        <time>2018-05-19T12:50:06Z</time>
      </trkpt>
      <trkpt lat="44.0961" lon="3.03892">
        <ele>507.4</ele>
        <time>2018-05-19T12:50:07Z</time>
      </trkpt>
      <trkpt lat="44.09612" lon="3.03896">
        <ele>507.4</ele>
        <time>2018-05-19T12:50:08Z</time>
      </trkpt>
      <trkpt lat="44.09614" lon="3.03899">
        <ele>507.5</ele>
        <time>2018-05-19T12:50:09Z</time>
      </trkpt>
      <trkpt lat="44.09616" lon="3.03903">
        <ele>507.5</ele>
        <time>2018-05-19T12:50:10Z</time>
      </trkpt>
      <trkpt lat="44.09619" lon="3.03906">
        <ele>507.4</ele>
        <time>2018-05-19T12:50:11Z</time>
      </trkpt>
      <trkpt lat="44.09622" lon="3.03909">
        <ele>507.1</ele>
        <time>2018-05-19T12:50:12Z</time>
      </trkpt>
      <trkpt lat="44.09625" lon="3.03913">
        <ele>507.3</ele>
        <time>2018-05-19T12:50:13Z</time>
      </trkpt>
      <trkpt lat="44.09628" lon="3.03917">
        <ele>507</ele>
        <time>2018-05-19T12:50:14Z</time>
      </trkpt>
      <trkpt lat="44.09632" lon="3.03923">
        <ele>506.2</ele>
        <time>2018-05-19T12:50:15Z</time>
      </trkpt>
      <trkpt lat="44.09636" lon="3.03927">
        <ele>505.8</ele>
        <time>2018-05-19T12:50:16Z</time>
      </trkpt>
      <trkpt lat="44.0964" lon="3.03931">
        <ele>505.3</ele>
        <time>2018-05-19T12:50:17Z</time>
      </trkpt>
      <trkpt lat="44.09644" lon="3.03934">
        <ele>505.4</ele>
        <time>2018-05-19T12:50:18Z</time>
      </trkpt>
      <trkpt lat="44.09648" lon="3.03935">
        <ele>505.4</ele>
        <time>2018-05-19T12:50:19Z</time>
      </trkpt>
      <trkpt lat="44.09652" lon="3.03935">
        <ele>504.7</ele>
        <time>2018-05-19T12:50:20Z</time>
      </trkpt>
      <trkpt lat="44.09656" lon="3.03936">
        <ele>504.7</ele>
        <time>2018-05-19T12:50:21Z</time>
      </trkpt>
      <trkpt lat="44.0966" lon="3.03937">
        <ele>504.7</ele>
        <time>2018-05-19T12:50:22Z</time>
      </trkpt>
      <trkpt lat="44.09663" lon="3.03938">
        <ele>504.6</ele>
        <time>2018-05-19T12:50:23Z</time>
      </trkpt>
      <trkpt lat="44.09665" lon="3.03936">
        <ele>504.6</ele>
        <time>2018-05-19T12:50:24Z</time>
      </trkpt>
      <trkpt lat="44.09668" lon="3.03934">
        <ele>505.2</ele>
        <time>2018-05-19T12:50:25Z</time>
      </trkpt>
      <trkpt lat="44.09671" lon="3.03932">
        <ele>505.2</ele>
        <time>2018-05-19T12:50:26Z</time>
      </trkpt>
      <trkpt lat="44.09673" lon="3.0393">
        <ele>505.7</ele>
        <time>2018-05-19T12:50:27Z</time>
      </trkpt>
      <trkpt lat="44.09678" lon="3.03929">
        <ele>505.6</ele>
        <time>2018-05-19T12:50:30Z</time>
      </trkpt>
      <trkpt lat="44.09681" lon="3.03931">
        <ele>505.5</ele>
        <time>2018-05-19T12:50:31Z</time>
      </trkpt>
      <trkpt lat="44.09684" lon="3.03933">
        <ele>504.7</ele>
        <time>2018-05-19T12:50:32Z</time>
      </trkpt>
      <trkpt lat="44.09692" lon="3.03937">
        <ele>503.8</ele>
        <time>2018-05-19T12:50:33Z</time>
      </trkpt>
      <trkpt lat="44.09697" lon="3.03939">
        <ele>503.5</ele>
        <time>2018-05-19T12:50:34Z</time>
      </trkpt>
      <trkpt lat="44.09702" lon="3.0394">
        <ele>502.4</ele>
        <time>2018-05-19T12:50:35Z</time>
      </trkpt>
      <trkpt lat="44.09708" lon="3.03939">
        <ele>502.8</ele>
        <time>2018-05-19T12:50:36Z</time>
      </trkpt>
      <trkpt lat="44.09714" lon="3.03938">
        <ele>502.5</ele>
        <time>2018-05-19T12:50:37Z</time>
      </trkpt>
      <trkpt lat="44.0972" lon="3.03938">
        <ele>502.4</ele>
        <time>2018-05-19T12:50:38Z</time>
      </trkpt>
      <trkpt lat="44.09726" lon="3.03937">
        <ele>502.2</ele>
        <time>2018-05-19T12:50:39Z</time>
      </trkpt>
      <trkpt lat="44.09735" lon="3.03936">
        <ele>501.8</ele>
        <time>2018-05-19T12:50:40Z</time>
      </trkpt>
      <trkpt lat="44.09743" lon="3.03935">
        <ele>501.5</ele>
        <time>2018-05-19T12:50:41Z</time>
      </trkpt>
      <trkpt lat="44.09754" lon="3.03933">
        <ele>502.1</ele>
        <time>2018-05-19T12:50:42Z</time>
      </trkpt>
      <trkpt lat="44.09761" lon="3.03933">
        <ele>502.4</ele>
        <time>2018-05-19T12:50:43Z</time>
      </trkpt>
      <trkpt lat="44.0977" lon="3.03933">
        <ele>503.3</ele>
        <time>2018-05-19T12:50:44Z</time>
      </trkpt>
      <trkpt lat="44.09778" lon="3.03934">
        <ele>504.2</ele>
        <time>2018-05-19T12:50:45Z</time>
      </trkpt>
      <trkpt lat="44.09785" lon="3.03933">
        <ele>505.3</ele>
        <time>2018-05-19T12:50:46Z</time>
      </trkpt>
      <trkpt lat="44.09794" lon="3.03933">
        <ele>506.8</ele>
        <time>2018-05-19T12:50:47Z</time>
      </trkpt>
      <trkpt lat="44.09801" lon="3.03932">
        <ele>508.2</ele>
        <time>2018-05-19T12:50:48Z</time>
      </trkpt>
      <trkpt lat="44.09802" lon="3.03929">
        <ele>508.8</ele>
        <time>2018-05-19T12:50:49Z</time>
      </trkpt>
      <trkpt lat="44.09805" lon="3.03927">
        <ele>509.3</ele>
        <time>2018-05-19T12:50:50Z</time>
      </trkpt>
      <trkpt lat="44.09809" lon="3.03925">
        <ele>510.4</ele>
        <time>2018-05-19T12:50:51Z</time>
      </trkpt>
      <trkpt lat="44.09812" lon="3.03927">
        <ele>510.3</ele>
        <time>2018-05-19T12:50:52Z</time>
      </trkpt>
      <trkpt lat="44.09817" lon="3.03931">
        <ele>511.1</ele>
        <time>2018-05-19T12:50:54Z</time>
      </trkpt>
      <trkpt lat="44.0982" lon="3.03934">
        <ele>510.9</ele>
        <time>2018-05-19T12:50:55Z</time>
      </trkpt>
      <trkpt lat="44.09823" lon="3.03936">
        <ele>510.7</ele>
        <time>2018-05-19T12:50:57Z</time>
      </trkpt>
      <trkpt lat="44.09825" lon="3.0394">
        <ele>509.9</ele>
        <time>2018-05-19T12:50:59Z</time>
      </trkpt>
      <trkpt lat="44.09827" lon="3.03945">
        <ele>509.7</ele>
        <time>2018-05-19T12:51:01Z</time>
      </trkpt>
      <trkpt lat="44.09829" lon="3.03951">
        <ele>509.6</ele>
        <time>2018-05-19T12:51:03Z</time>
      </trkpt>
      <trkpt lat="44.09831" lon="3.03957">
        <ele>508.8</ele>
        <time>2018-05-19T12:51:05Z</time>
      </trkpt>
      <trkpt lat="44.09833" lon="3.03961">
        <ele>508.1</ele>
        <time>2018-05-19T12:51:07Z</time>
      </trkpt>
      <trkpt lat="44.09834" lon="3.03965">
        <ele>507.5</ele>
        <time>2018-05-19T12:51:08Z</time>
      </trkpt>
      <trkpt lat="44.09835" lon="3.0397">
        <ele>507.5</ele>
        <time>2018-05-19T12:51:09Z</time>
      </trkpt>
      <trkpt lat="44.09836" lon="3.03974">
        <ele>506.7</ele>
        <time>2018-05-19T12:51:10Z</time>
      </trkpt>
      <trkpt lat="44.0984" lon="3.0398">
        <ele>506.6</ele>
        <time>2018-05-19T12:51:12Z</time>
      </trkpt>
      <trkpt lat="44.09842" lon="3.03982">
        <ele>506.4</ele>
        <time>2018-05-19T12:51:13Z</time>
      </trkpt>
      <trkpt lat="44.09844" lon="3.03985">
        <ele>507</ele>
        <time>2018-05-19T12:51:14Z</time>
      </trkpt>
      <trkpt lat="44.09846" lon="3.03987">
        <ele>506.1</ele>
        <time>2018-05-19T12:51:15Z</time>
      </trkpt>
      <trkpt lat="44.09848" lon="3.0399">
        <ele>506.8</ele>
        <time>2018-05-19T12:51:16Z</time>
      </trkpt>
      <trkpt lat="44.09851" lon="3.03992">
        <ele>506.5</ele>
        <time>2018-05-19T12:51:17Z</time>
      </trkpt>
      <trkpt lat="44.09854" lon="3.03993">
        <ele>507.2</ele>
        <time>2018-05-19T12:51:18Z</time>
      </trkpt>
      <trkpt lat="44.09857" lon="3.03994">
        <ele>507.9</ele>
        <time>2018-05-19T12:51:19Z</time>
      </trkpt>
      <trkpt lat="44.0986" lon="3.03995">
        <ele>507.6</ele>
        <time>2018-05-19T12:51:20Z</time>
      </trkpt>
      <trkpt lat="44.09863" lon="3.03997">
        <ele>508.3</ele>
        <time>2018-05-19T12:51:21Z</time>
      </trkpt>
      <trkpt lat="44.09866" lon="3.03998">
        <ele>509</ele>
        <time>2018-05-19T12:51:22Z</time>
      </trkpt>
      <trkpt lat="44.0987" lon="3.03999">
        <ele>509.6</ele>
        <time>2018-05-19T12:51:23Z</time>
      </trkpt>
      <trkpt lat="44.09874" lon="3.04">
        <ele>509.3</ele>
        <time>2018-05-19T12:51:24Z</time>
      </trkpt>
      <trkpt lat="44.09877" lon="3.04001">
        <ele>509.9</ele>
        <time>2018-05-19T12:51:25Z</time>
      </trkpt>
      <trkpt lat="44.09881" lon="3.04003">
        <ele>511.1</ele>
        <time>2018-05-19T12:51:26Z</time>
      </trkpt>
      <trkpt lat="44.09885" lon="3.04004">
        <ele>510.7</ele>
        <time>2018-05-19T12:51:27Z</time>
      </trkpt>
      <trkpt lat="44.09889" lon="3.04006">
        <ele>511.4</ele>
        <time>2018-05-19T12:51:28Z</time>
      </trkpt>
      <trkpt lat="44.09893" lon="3.04008">
        <ele>511.7</ele>
        <time>2018-05-19T12:51:29Z</time>
      </trkpt>
      <trkpt lat="44.09897" lon="3.0401">
        <ele>512.3</ele>
        <time>2018-05-19T12:51:30Z</time>
      </trkpt>
      <trkpt lat="44.09901" lon="3.04011">
        <ele>512.9</ele>
        <time>2018-05-19T12:51:31Z</time>
      </trkpt>
      <trkpt lat="44.09904" lon="3.04013">
        <ele>512.3</ele>
        <time>2018-05-19T12:51:32Z</time>
      </trkpt>
      <trkpt lat="44.09907" lon="3.04015">
        <ele>512.8</ele>
        <time>2018-05-19T12:51:33Z</time>
      </trkpt>
      <trkpt lat="44.0991" lon="3.04017">
        <ele>512.1</ele>
        <time>2018-05-19T12:51:34Z</time>
      </trkpt>
      <trkpt lat="44.09913" lon="3.04018">
        <ele>512.7</ele>
        <time>2018-05-19T12:51:35Z</time>
      </trkpt>
      <trkpt lat="44.09915" lon="3.04019">
        <ele>513.3</ele>
        <time>2018-05-19T12:51:36Z</time>
      </trkpt>
      <trkpt lat="44.09921" lon="3.0402">
        <ele>514.5</ele>
        <time>2018-05-19T12:51:38Z</time>
      </trkpt>
      <trkpt lat="44.09924" lon="3.04021">
        <ele>514.5</ele>
        <time>2018-05-19T12:51:39Z</time>
      </trkpt>
      <trkpt lat="44.09928" lon="3.04021">
        <ele>514.2</ele>
        <time>2018-05-19T12:51:41Z</time>
      </trkpt>
      <trkpt lat="44.09931" lon="3.04022">
        <ele>514.7</ele>
        <time>2018-05-19T12:51:43Z</time>
      </trkpt>
      <trkpt lat="44.09934" lon="3.04023">
        <ele>515.2</ele>
        <time>2018-05-19T12:51:45Z</time>
      </trkpt>
      <trkpt lat="44.09938" lon="3.04023">
        <ele>515.7</ele>
        <time>2018-05-19T12:51:47Z</time>
      </trkpt>
      <trkpt lat="44.09941" lon="3.04022">
        <ele>516.3</ele>
        <time>2018-05-19T12:51:52Z</time>
      </trkpt>
      <trkpt lat="44.09943" lon="3.04025">
        <ele>515.5</ele>
        <time>2018-05-19T12:52:00Z</time>
      </trkpt>
      <trkpt lat="44.09945" lon="3.04028">
        <ele>516.1</ele>
        <time>2018-05-19T12:52:05Z</time>
      </trkpt>
      <trkpt lat="44.09948" lon="3.04027">
        <ele>516.1</ele>
        <time>2018-05-19T12:52:09Z</time>
      </trkpt>
      <trkpt lat="44.09951" lon="3.04027">
        <ele>516.7</ele>
        <time>2018-05-19T12:52:14Z</time>
      </trkpt>
      <trkpt lat="44.09954" lon="3.04027">
        <ele>517.2</ele>
        <time>2018-05-19T12:52:17Z</time>
      </trkpt>
      <trkpt lat="44.09957" lon="3.04027">
        <ele>517.6</ele>
        <time>2018-05-19T12:52:22Z</time>
      </trkpt>
      <trkpt lat="44.09958" lon="3.04024">
        <ele>519.4</ele>
        <time>2018-05-19T12:52:27Z</time>
      </trkpt>
      <trkpt lat="44.09963" lon="3.0403">
        <ele>517.1</ele>
        <time>2018-05-19T12:53:30Z</time>
      </trkpt>
      <trkpt lat="44.09965" lon="3.04027">
        <ele>518.9</ele>
        <time>2018-05-19T12:53:51Z</time>
      </trkpt>
      <trkpt lat="44.09968" lon="3.04027">
        <ele>519.4</ele>
        <time>2018-05-19T12:53:53Z</time>
      </trkpt>
      <trkpt lat="44.09972" lon="3.04028">
        <ele>519.8</ele>
        <time>2018-05-19T12:53:56Z</time>
      </trkpt>
      <trkpt lat="44.09974" lon="3.04029">
        <ele>520.2</ele>
        <time>2018-05-19T12:53:58Z</time>
      </trkpt>
      <trkpt lat="44.09979" lon="3.04029">
        <ele>520.9</ele>
        <time>2018-05-19T12:54:00Z</time>
      </trkpt>
      <trkpt lat="44.09984" lon="3.04028">
        <ele>521.2</ele>
        <time>2018-05-19T12:54:02Z</time>
      </trkpt>
      <trkpt lat="44.09988" lon="3.04029">
        <ele>521.5</ele>
        <time>2018-05-19T12:54:04Z</time>
      </trkpt>
      <trkpt lat="44.09991" lon="3.04029">
        <ele>521.9</ele>
        <time>2018-05-19T12:54:05Z</time>
      </trkpt>
      <trkpt lat="44.09995" lon="3.04031">
        <ele>521.2</ele>
        <time>2018-05-19T12:54:06Z</time>
      </trkpt>
      <trkpt lat="44.09998" lon="3.04032">
        <ele>521.6</ele>
        <time>2018-05-19T12:54:07Z</time>
      </trkpt>
      <trkpt lat="44.10002" lon="3.04034">
        <ele>520.7</ele>
        <time>2018-05-19T12:54:08Z</time>
      </trkpt>
      <trkpt lat="44.10005" lon="3.04036">
        <ele>521.1</ele>
        <time>2018-05-19T12:54:09Z</time>
      </trkpt>
      <trkpt lat="44.10009" lon="3.0404">
        <ele>520.3</ele>
        <time>2018-05-19T12:54:11Z</time>
      </trkpt>
      <trkpt lat="44.10012" lon="3.04042">
        <ele>520.7</ele>
        <time>2018-05-19T12:54:12Z</time>
      </trkpt>
      <trkpt lat="44.10016" lon="3.04044">
        <ele>520.3</ele>
        <time>2018-05-19T12:54:13Z</time>
      </trkpt>
      <trkpt lat="44.1002" lon="3.04045">
        <ele>520.6</ele>
        <time>2018-05-19T12:54:14Z</time>
      </trkpt>
      <trkpt lat="44.10024" lon="3.04045">
        <ele>521</ele>
        <time>2018-05-19T12:54:15Z</time>
      </trkpt>
      <trkpt lat="44.10028" lon="3.04046">
        <ele>521.4</ele>
        <time>2018-05-19T12:54:16Z</time>
      </trkpt>
      <trkpt lat="44.10031" lon="3.04048">
        <ele>520.6</ele>
        <time>2018-05-19T12:54:17Z</time>
      </trkpt>
      <trkpt lat="44.10035" lon="3.0405">
        <ele>521.4</ele>
        <time>2018-05-19T12:54:18Z</time>
      </trkpt>
      <trkpt lat="44.10039" lon="3.04052">
        <ele>520.5</ele>
        <time>2018-05-19T12:54:19Z</time>
      </trkpt>
      <trkpt lat="44.10042" lon="3.04053">
        <ele>520.8</ele>
        <time>2018-05-19T12:54:20Z</time>
      </trkpt>
      <trkpt lat="44.10045" lon="3.04053">
        <ele>521.1</ele>
        <time>2018-05-19T12:54:21Z</time>
      </trkpt>
      <trkpt lat="44.10047" lon="3.04054">
        <ele>521.5</ele>
        <time>2018-05-19T12:54:22Z</time>
      </trkpt>
      <trkpt lat="44.1005" lon="3.04056">
        <ele>520.7</ele>
        <time>2018-05-19T12:54:23Z</time>
      </trkpt>
      <trkpt lat="44.10053" lon="3.04057">
        <ele>520.7</ele>
        <time>2018-05-19T12:54:24Z</time>
      </trkpt>
      <trkpt lat="44.10057" lon="3.04061">
        <ele>520.2</ele>
        <time>2018-05-19T12:54:26Z</time>
      </trkpt>
      <trkpt lat="44.10061" lon="3.04064">
        <ele>519.4</ele>
        <time>2018-05-19T12:54:28Z</time>
      </trkpt>
      <trkpt lat="44.10065" lon="3.04065">
        <ele>519.6</ele>
        <time>2018-05-19T12:54:30Z</time>
      </trkpt>
      <trkpt lat="44.10069" lon="3.04065">
        <ele>520</ele>
        <time>2018-05-19T12:54:32Z</time>
      </trkpt>
      <trkpt lat="44.10073" lon="3.04065">
        <ele>520.2</ele>
        <time>2018-05-19T12:54:34Z</time>
      </trkpt>
      <trkpt lat="44.10078" lon="3.04065">
        <ele>520.5</ele>
        <time>2018-05-19T12:54:36Z</time>
      </trkpt>
      <trkpt lat="44.10082" lon="3.04065">
        <ele>520.6</ele>
        <time>2018-05-19T12:54:38Z</time>
      </trkpt>
      <trkpt lat="44.10084" lon="3.04066">
        <ele>520.7</ele>
        <time>2018-05-19T12:54:40Z</time>
      </trkpt>
      <trkpt lat="44.10087" lon="3.04069">
        <ele>519.7</ele>
        <time>2018-05-19T12:54:42Z</time>
      </trkpt>
      <trkpt lat="44.10091" lon="3.0407">
        <ele>519.9</ele>
        <time>2018-05-19T12:54:44Z</time>
      </trkpt>
      <trkpt lat="44.10094" lon="3.0407">
        <ele>520</ele>
        <time>2018-05-19T12:54:46Z</time>
      </trkpt>
      <trkpt lat="44.10098" lon="3.0407">
        <ele>520.1</ele>
        <time>2018-05-19T12:54:48Z</time>
      </trkpt>
      <trkpt lat="44.10103" lon="3.0407">
        <ele>520.5</ele>
        <time>2018-05-19T12:54:50Z</time>
      </trkpt>
      <trkpt lat="44.10108" lon="3.04069">
        <ele>520.7</ele>
        <time>2018-05-19T12:54:52Z</time>
      </trkpt>
      <trkpt lat="44.10111" lon="3.04069">
        <ele>520.9</ele>
        <time>2018-05-19T12:54:54Z</time>
      </trkpt>
      <trkpt lat="44.10114" lon="3.04069">
        <ele>521.2</ele>
        <time>2018-05-19T12:54:56Z</time>
      </trkpt>
      <trkpt lat="44.10117" lon="3.04069">
        <ele>521.4</ele>
        <time>2018-05-19T12:54:59Z</time>
      </trkpt>
      <trkpt lat="44.1012" lon="3.04068">
        <ele>522.7</ele>
        <time>2018-05-19T12:55:05Z</time>
      </trkpt>
      <trkpt lat="44.10123" lon="3.04067">
        <ele>522.9</ele>
        <time>2018-05-19T12:55:20Z</time>
      </trkpt>
      <trkpt lat="44.10126" lon="3.04069">
        <ele>522</ele>
        <time>2018-05-19T12:55:22Z</time>
      </trkpt>
      <trkpt lat="44.10128" lon="3.04073">
        <ele>521.2</ele>
        <time>2018-05-19T12:55:24Z</time>
      </trkpt>
      <trkpt lat="44.10129" lon="3.04077">
        <ele>521.2</ele>
        <time>2018-05-19T12:55:26Z</time>
      </trkpt>
      <trkpt lat="44.10133" lon="3.0408">
        <ele>520.3</ele>
        <time>2018-05-19T12:55:28Z</time>
      </trkpt>
      <trkpt lat="44.10137" lon="3.04084">
        <ele>519.5</ele>
        <time>2018-05-19T12:55:30Z</time>
      </trkpt>
      <trkpt lat="44.1014" lon="3.04087">
        <ele>518.6</ele>
        <time>2018-05-19T12:55:31Z</time>
      </trkpt>
      <trkpt lat="44.10144" lon="3.0409">
        <ele>517.8</ele>
        <time>2018-05-19T12:55:32Z</time>
      </trkpt>
      <trkpt lat="44.10148" lon="3.04093">
        <ele>518</ele>
        <time>2018-05-19T12:55:33Z</time>
      </trkpt>
      <trkpt lat="44.10155" lon="3.04098">
        <ele>517.6</ele>
        <time>2018-05-19T12:55:34Z</time>
      </trkpt>
      <trkpt lat="44.1016" lon="3.04101">
        <ele>517</ele>
        <time>2018-05-19T12:55:35Z</time>
      </trkpt>
      <trkpt lat="44.10164" lon="3.04105">
        <ele>516.7</ele>
        <time>2018-05-19T12:55:36Z</time>
      </trkpt>
      <trkpt lat="44.10167" lon="3.04108">
        <ele>516.1</ele>
        <time>2018-05-19T12:55:37Z</time>
      </trkpt>
      <trkpt lat="44.10171" lon="3.04111">
        <ele>516.4</ele>
        <time>2018-05-19T12:55:38Z</time>
      </trkpt>
      <trkpt lat="44.10176" lon="3.04114">
        <ele>516.1</ele>
        <time>2018-05-19T12:55:39Z</time>
      </trkpt>
      <trkpt lat="44.1018" lon="3.04119">
        <ele>515.5</ele>
        <time>2018-05-19T12:55:40Z</time>
      </trkpt>
      <trkpt lat="44.10184" lon="3.04124">
        <ele>515</ele>
        <time>2018-05-19T12:55:41Z</time>
      </trkpt>
      <trkpt lat="44.10187" lon="3.04128">
        <ele>514.6</ele>
        <time>2018-05-19T12:55:42Z</time>
      </trkpt>
      <trkpt lat="44.10191" lon="3.04132">
        <ele>514.2</ele>
        <time>2018-05-19T12:55:43Z</time>
      </trkpt>
      <trkpt lat="44.10197" lon="3.04136">
        <ele>514.4</ele>
        <time>2018-05-19T12:55:44Z</time>
      </trkpt>
      <trkpt lat="44.10201" lon="3.0414">
        <ele>514.2</ele>
        <time>2018-05-19T12:55:45Z</time>
      </trkpt>
      <trkpt lat="44.10203" lon="3.04143">
        <ele>514</ele>
        <time>2018-05-19T12:55:46Z</time>
      </trkpt>
      <trkpt lat="44.10206" lon="3.04146">
        <ele>513.8</ele>
        <time>2018-05-19T12:55:47Z</time>
      </trkpt>
      <trkpt lat="44.1021" lon="3.04153">
        <ele>513.6</ele>
        <time>2018-05-19T12:55:48Z</time>
      </trkpt>
      <trkpt lat="44.10212" lon="3.04161">
        <ele>512.7</ele>
        <time>2018-05-19T12:55:49Z</time>
      </trkpt>
      <trkpt lat="44.10217" lon="3.04166">
        <ele>512.9</ele>
        <time>2018-05-19T12:55:50Z</time>
      </trkpt>
      <trkpt lat="44.1022" lon="3.04169">
        <ele>512.7</ele>
        <time>2018-05-19T12:55:51Z</time>
      </trkpt>
      <trkpt lat="44.10222" lon="3.04176">
        <ele>511.4</ele>
        <time>2018-05-19T12:55:52Z</time>
      </trkpt>
      <trkpt lat="44.10224" lon="3.04179">
        <ele>511.9</ele>
        <time>2018-05-19T12:55:53Z</time>
      </trkpt>
      <trkpt lat="44.10227" lon="3.04185">
        <ele>511.2</ele>
        <time>2018-05-19T12:55:54Z</time>
      </trkpt>
      <trkpt lat="44.10232" lon="3.04191">
        <ele>511.5</ele>
        <time>2018-05-19T12:55:55Z</time>
      </trkpt>
      <trkpt lat="44.10237" lon="3.04195">
        <ele>511.3</ele>
        <time>2018-05-19T12:55:56Z</time>
      </trkpt>
      <trkpt lat="44.10242" lon="3.042">
        <ele>511.4</ele>
        <time>2018-05-19T12:55:57Z</time>
      </trkpt>
      <trkpt lat="44.10248" lon="3.04203">
        <ele>511.4</ele>
        <time>2018-05-19T12:55:58Z</time>
      </trkpt>
      <trkpt lat="44.10252" lon="3.04206">
        <ele>511.1</ele>
        <time>2018-05-19T12:55:59Z</time>
      </trkpt>
      <trkpt lat="44.10257" lon="3.0421">
        <ele>511.6</ele>
        <time>2018-05-19T12:56:00Z</time>
      </trkpt>
      <trkpt lat="44.10261" lon="3.04215">
        <ele>510.6</ele>
        <time>2018-05-19T12:56:01Z</time>
      </trkpt>
      <trkpt lat="44.10265" lon="3.04221">
        <ele>510.2</ele>
        <time>2018-05-19T12:56:02Z</time>
      </trkpt>
      <trkpt lat="44.1027" lon="3.04226">
        <ele>510.1</ele>
        <time>2018-05-19T12:56:03Z</time>
      </trkpt>
      <trkpt lat="44.10277" lon="3.04229">
        <ele>510</ele>
        <time>2018-05-19T12:56:04Z</time>
      </trkpt>
      <trkpt lat="44.10282" lon="3.04233">
        <ele>510</ele>
        <time>2018-05-19T12:56:05Z</time>
      </trkpt>
      <trkpt lat="44.10288" lon="3.0424">
        <ele>509.8</ele>
        <time>2018-05-19T12:56:06Z</time>
      </trkpt>
      <trkpt lat="44.10293" lon="3.04246">
        <ele>508.9</ele>
        <time>2018-05-19T12:56:07Z</time>
      </trkpt>
      <trkpt lat="44.10298" lon="3.04248">
        <ele>509</ele>
        <time>2018-05-19T12:56:08Z</time>
      </trkpt>
      <trkpt lat="44.10302" lon="3.04253">
        <ele>508.1</ele>
        <time>2018-05-19T12:56:09Z</time>
      </trkpt>
      <trkpt lat="44.10307" lon="3.04259">
        <ele>507.6</ele>
        <time>2018-05-19T12:56:10Z</time>
      </trkpt>
      <trkpt lat="44.10311" lon="3.04263">
        <ele>507.2</ele>
        <time>2018-05-19T12:56:11Z</time>
      </trkpt>
      <trkpt lat="44.10319" lon="3.04267">
        <ele>506.8</ele>
        <time>2018-05-19T12:56:12Z</time>
      </trkpt>
      <trkpt lat="44.10327" lon="3.04271">
        <ele>506.5</ele>
        <time>2018-05-19T12:56:13Z</time>
      </trkpt>
      <trkpt lat="44.10336" lon="3.04272">
        <ele>506.4</ele>
        <time>2018-05-19T12:56:14Z</time>
      </trkpt>
      <trkpt lat="44.10345" lon="3.04274">
        <ele>506.1</ele>
        <time>2018-05-19T12:56:15Z</time>
      </trkpt>
      <trkpt lat="44.10347" lon="3.04276">
        <ele>505.7</ele>
        <time>2018-05-19T12:56:16Z</time>
      </trkpt>
      <trkpt lat="44.10351" lon="3.04279">
        <ele>505.3</ele>
        <time>2018-05-19T12:56:17Z</time>
      </trkpt>
      <trkpt lat="44.10355" lon="3.04283">
        <ele>504.9</ele>
        <time>2018-05-19T12:56:18Z</time>
      </trkpt>
      <trkpt lat="44.1036" lon="3.04286">
        <ele>504.8</ele>
        <time>2018-05-19T12:56:20Z</time>
      </trkpt>
      <trkpt lat="44.10364" lon="3.04286">
        <ele>504.7</ele>
        <time>2018-05-19T12:56:26Z</time>
      </trkpt>
      <trkpt lat="44.10362" lon="3.0429">
        <ele>504.4</ele>
        <time>2018-05-19T12:56:34Z</time>
      </trkpt>
      <trkpt lat="44.10359" lon="3.04291">
        <ele>504.5</ele>
        <time>2018-05-19T12:56:50Z</time>
      </trkpt>
      <trkpt lat="44.10356" lon="3.04287">
        <ele>504.6</ele>
        <time>2018-05-19T12:56:59Z</time>
      </trkpt>
      <trkpt lat="44.10355" lon="3.04283">
        <ele>505</ele>
        <time>2018-05-19T12:57:01Z</time>
      </trkpt>
      <trkpt lat="44.10352" lon="3.0428">
        <ele>505.2</ele>
        <time>2018-05-19T12:57:03Z</time>
      </trkpt>
      <trkpt lat="44.10349" lon="3.04279">
        <ele>505.3</ele>
        <time>2018-05-19T12:57:05Z</time>
      </trkpt>
      <trkpt lat="44.10347" lon="3.04278">
        <ele>505.7</ele>
        <time>2018-05-19T12:57:09Z</time>
      </trkpt>
      <trkpt lat="44.10354" lon="3.04284">
        <ele>505</ele>
        <time>2018-05-19T12:58:05Z</time>
      </trkpt>
      <trkpt lat="44.10356" lon="3.04287">
        <ele>504.9</ele>
        <time>2018-05-19T12:58:07Z</time>
      </trkpt>
      <trkpt lat="44.1036" lon="3.04289">
        <ele>504.5</ele>
        <time>2018-05-19T12:58:09Z</time>
      </trkpt>
      <trkpt lat="44.10362" lon="3.04291">
        <ele>504.4</ele>
        <time>2018-05-19T12:58:10Z</time>
      </trkpt>
      <trkpt lat="44.10365" lon="3.04293">
        <ele>504.1</ele>
        <time>2018-05-19T12:58:11Z</time>
      </trkpt>
      <trkpt lat="44.10367" lon="3.04296">
        <ele>504.1</ele>
        <time>2018-05-19T12:58:12Z</time>
      </trkpt>
      <trkpt lat="44.1037" lon="3.04299">
        <ele>503.8</ele>
        <time>2018-05-19T12:58:13Z</time>
      </trkpt>
      <trkpt lat="44.10373" lon="3.04303">
        <ele>503.5</ele>
        <time>2018-05-19T12:58:14Z</time>
      </trkpt>
      <trkpt lat="44.10375" lon="3.04306">
        <ele>503.2</ele>
        <time>2018-05-19T12:58:15Z</time>
      </trkpt>
      <trkpt lat="44.10378" lon="3.0431">
        <ele>503</ele>
        <time>2018-05-19T12:58:16Z</time>
      </trkpt>
      <trkpt lat="44.1038" lon="3.04312">
        <ele>503</ele>
        <time>2018-05-19T12:58:17Z</time>
      </trkpt>
      <trkpt lat="44.10383" lon="3.04317">
        <ele>502.6</ele>
        <time>2018-05-19T12:58:19Z</time>
      </trkpt>
      <trkpt lat="44.10387" lon="3.04322">
        <ele>501.9</ele>
        <time>2018-05-19T12:58:21Z</time>
      </trkpt>
      <trkpt lat="44.1039" lon="3.04325">
        <ele>501.8</ele>
        <time>2018-05-19T12:58:23Z</time>
      </trkpt>
      <trkpt lat="44.10392" lon="3.04328">
        <ele>501.6</ele>
        <time>2018-05-19T12:58:25Z</time>
      </trkpt>
      <trkpt lat="44.10392" lon="3.04332">
        <ele>501.3</ele>
        <time>2018-05-19T12:58:31Z</time>
      </trkpt>
      <trkpt lat="44.10396" lon="3.04333">
        <ele>501.3</ele>
        <time>2018-05-19T12:58:43Z</time>
      </trkpt>
      <trkpt lat="44.10398" lon="3.04332">
        <ele>501.3</ele>
        <time>2018-05-19T12:58:47Z</time>
      </trkpt>
      <trkpt lat="44.10401" lon="3.04334">
        <ele>501</ele>
        <time>2018-05-19T12:58:53Z</time>
      </trkpt>
      <trkpt lat="44.10404" lon="3.04337">
        <ele>501</ele>
        <time>2018-05-19T12:58:59Z</time>
      </trkpt>
      <trkpt lat="44.10401" lon="3.04338">
        <ele>501</ele>
        <time>2018-05-19T12:59:16Z</time>
      </trkpt>
      <trkpt lat="44.10398" lon="3.04336">
        <ele>501</ele>
        <time>2018-05-19T12:59:19Z</time>
      </trkpt>
      <trkpt lat="44.10395" lon="3.04338">
        <ele>501</ele>
        <time>2018-05-19T12:59:23Z</time>
      </trkpt>
      <trkpt lat="44.10398" lon="3.0434">
        <ele>500.9</ele>
        <time>2018-05-19T12:59:48Z</time>
      </trkpt>
      <trkpt lat="44.104" lon="3.04337">
        <ele>501</ele>
        <time>2018-05-19T12:59:53Z</time>
      </trkpt>
      <trkpt lat="44.10397" lon="3.04338">
        <ele>501</ele>
        <time>2018-05-19T13:00:19Z</time>
      </trkpt>
      <trkpt lat="44.10399" lon="3.04335">
        <ele>501</ele>
        <time>2018-05-19T13:00:30Z</time>
      </trkpt>
      <trkpt lat="44.10402" lon="3.04337">
        <ele>501</ele>
        <time>2018-05-19T13:00:34Z</time>
      </trkpt>
      <trkpt lat="44.10404" lon="3.0434">
        <ele>500.9</ele>
        <time>2018-05-19T13:00:37Z</time>
      </trkpt>
      <trkpt lat="44.10406" lon="3.04344">
        <ele>500.8</ele>
        <time>2018-05-19T13:00:42Z</time>
      </trkpt>
      <trkpt lat="44.10408" lon="3.04347">
        <ele>500.9</ele>
        <time>2018-05-19T13:00:59Z</time>
      </trkpt>
      <trkpt lat="44.10405" lon="3.0435">
        <ele>500.9</ele>
        <time>2018-05-19T13:01:03Z</time>
      </trkpt>
      <trkpt lat="44.10404" lon="3.04354">
        <ele>501</ele>
        <time>2018-05-19T13:01:06Z</time>
      </trkpt>
      <trkpt lat="44.10404" lon="3.04359">
        <ele>501.2</ele>
        <time>2018-05-19T13:01:10Z</time>
      </trkpt>
      <trkpt lat="44.10402" lon="3.04362">
        <ele>501.5</ele>
        <time>2018-05-19T13:01:14Z</time>
      </trkpt>
      <trkpt lat="44.10402" lon="3.04366">
        <ele>501.8</ele>
        <time>2018-05-19T13:01:17Z</time>
      </trkpt>
      <trkpt lat="44.10403" lon="3.04371">
        <ele>502.1</ele>
        <time>2018-05-19T13:01:20Z</time>
      </trkpt>
      <trkpt lat="44.10404" lon="3.04376">
        <ele>502.4</ele>
        <time>2018-05-19T13:01:23Z</time>
      </trkpt>
      <trkpt lat="44.10404" lon="3.04381">
        <ele>502.6</ele>
        <time>2018-05-19T13:01:27Z</time>
      </trkpt>
      <trkpt lat="44.10405" lon="3.04385">
        <ele>502.9</ele>
        <time>2018-05-19T13:01:31Z</time>
      </trkpt>
      <trkpt lat="44.10406" lon="3.04389">
        <ele>503.1</ele>
        <time>2018-05-19T13:01:37Z</time>
      </trkpt>
      <trkpt lat="44.10407" lon="3.04393">
        <ele>503.3</ele>
        <time>2018-05-19T13:01:42Z</time>
      </trkpt>
      <trkpt lat="44.10409" lon="3.04398">
        <ele>503.4</ele>
        <time>2018-05-19T13:01:46Z</time>
      </trkpt>
      <trkpt lat="44.1041" lon="3.04401">
        <ele>503.6</ele>
        <time>2018-05-19T13:01:50Z</time>
      </trkpt>
      <trkpt lat="44.10412" lon="3.04405">
        <ele>503.8</ele>
        <time>2018-05-19T13:01:54Z</time>
      </trkpt>
      <trkpt lat="44.10415" lon="3.04408">
        <ele>504</ele>
        <time>2018-05-19T13:01:58Z</time>
      </trkpt>
      <trkpt lat="44.10417" lon="3.04411">
        <ele>504</ele>
        <time>2018-05-19T13:02:06Z</time>
      </trkpt>
      <trkpt lat="44.10418" lon="3.04415">
        <ele>504.2</ele>
        <time>2018-05-19T13:02:10Z</time>
      </trkpt>
      <trkpt lat="44.1042" lon="3.0442">
        <ele>504.5</ele>
        <time>2018-05-19T13:02:14Z</time>
      </trkpt>
      <trkpt lat="44.1042" lon="3.04423">
        <ele>504.8</ele>
        <time>2018-05-19T13:02:17Z</time>
      </trkpt>
      <trkpt lat="44.10421" lon="3.04428">
        <ele>505.1</ele>
        <time>2018-05-19T13:02:21Z</time>
      </trkpt>
      <trkpt lat="44.10422" lon="3.04432">
        <ele>505.4</ele>
        <time>2018-05-19T13:02:24Z</time>
      </trkpt>
      <trkpt lat="44.10423" lon="3.04436">
        <ele>505.7</ele>
        <time>2018-05-19T13:02:28Z</time>
      </trkpt>
      <trkpt lat="44.10425" lon="3.0444">
        <ele>506</ele>
        <time>2018-05-19T13:02:33Z</time>
      </trkpt>
      <trkpt lat="44.10422" lon="3.0444">
        <ele>506</ele>
        <time>2018-05-19T13:02:52Z</time>
      </trkpt>
      <trkpt lat="44.10415" lon="3.04436">
        <ele>505.7</ele>
        <time>2018-05-19T13:03:49Z</time>
      </trkpt>
      <trkpt lat="44.10412" lon="3.04433">
        <ele>505.4</ele>
        <time>2018-05-19T13:03:50Z</time>
      </trkpt>
      <trkpt lat="44.10408" lon="3.04429">
        <ele>505.1</ele>
        <time>2018-05-19T13:03:51Z</time>
      </trkpt>
      <trkpt lat="44.10401" lon="3.04422">
        <ele>504.9</ele>
        <time>2018-05-19T13:03:52Z</time>
      </trkpt>
      <trkpt lat="44.10397" lon="3.04418">
        <ele>504.8</ele>
        <time>2018-05-19T13:03:53Z</time>
      </trkpt>
      <trkpt lat="44.10391" lon="3.04413">
        <ele>504.7</ele>
        <time>2018-05-19T13:03:54Z</time>
      </trkpt>
      <trkpt lat="44.10386" lon="3.04409">
        <ele>504.6</ele>
        <time>2018-05-19T13:03:55Z</time>
      </trkpt>
      <trkpt lat="44.10379" lon="3.04405">
        <ele>504.4</ele>
        <time>2018-05-19T13:03:56Z</time>
      </trkpt>
      <trkpt lat="44.10373" lon="3.04402">
        <ele>504.3</ele>
        <time>2018-05-19T13:03:57Z</time>
      </trkpt>
      <trkpt lat="44.10367" lon="3.04398">
        <ele>504.2</ele>
        <time>2018-05-19T13:03:58Z</time>
      </trkpt>
      <trkpt lat="44.10358" lon="3.04395">
        <ele>504.3</ele>
        <time>2018-05-19T13:03:59Z</time>
      </trkpt>
      <trkpt lat="44.10351" lon="3.04391">
        <ele>504.2</ele>
        <time>2018-05-19T13:04:00Z</time>
      </trkpt>
      <trkpt lat="44.10345" lon="3.0439">
        <ele>504.2</ele>
        <time>2018-05-19T13:04:01Z</time>
      </trkpt>
      <trkpt lat="44.10341" lon="3.04393">
        <ele>504.3</ele>
        <time>2018-05-19T13:04:02Z</time>
      </trkpt>
      <trkpt lat="44.10337" lon="3.04395">
        <ele>504.3</ele>
        <time>2018-05-19T13:04:03Z</time>
      </trkpt>
      <trkpt lat="44.10329" lon="3.04393">
        <ele>504.3</ele>
        <time>2018-05-19T13:04:04Z</time>
      </trkpt>
      <trkpt lat="44.10324" lon="3.04393">
        <ele>504.3</ele>
        <time>2018-05-19T13:04:05Z</time>
      </trkpt>
      <trkpt lat="44.10318" lon="3.04391">
        <ele>504.2</ele>
        <time>2018-05-19T13:04:06Z</time>
      </trkpt>
      <trkpt lat="44.10313" lon="3.04391">
        <ele>504.2</ele>
        <time>2018-05-19T13:04:07Z</time>
      </trkpt>
      <trkpt lat="44.10308" lon="3.0439">
        <ele>504.1</ele>
        <time>2018-05-19T13:04:08Z</time>
      </trkpt>
      <trkpt lat="44.10303" lon="3.04389">
        <ele>504.1</ele>
        <time>2018-05-19T13:04:09Z</time>
      </trkpt>
      <trkpt lat="44.10297" lon="3.04389">
        <ele>504.1</ele>
        <time>2018-05-19T13:04:10Z</time>
      </trkpt>
      <trkpt lat="44.10293" lon="3.0439">
        <ele>504.2</ele>
        <time>2018-05-19T13:04:11Z</time>
      </trkpt>
      <trkpt lat="44.10287" lon="3.0439">
        <ele>504.2</ele>
        <time>2018-05-19T13:04:12Z</time>
      </trkpt>
      <trkpt lat="44.10283" lon="3.0439">
        <ele>504.1</ele>
        <time>2018-05-19T13:04:13Z</time>
      </trkpt>
      <trkpt lat="44.10277" lon="3.04389">
        <ele>504.2</ele>
        <time>2018-05-19T13:04:14Z</time>
      </trkpt>
      <trkpt lat="44.10273" lon="3.04388">
        <ele>504.3</ele>
        <time>2018-05-19T13:04:15Z</time>
      </trkpt>
      <trkpt lat="44.10268" lon="3.04386">
        <ele>504.2</ele>
        <time>2018-05-19T13:04:16Z</time>
      </trkpt>
      <trkpt lat="44.10264" lon="3.04383">
        <ele>504.2</ele>
        <time>2018-05-19T13:04:17Z</time>
      </trkpt>
      <trkpt lat="44.1026" lon="3.0438">
        <ele>504</ele>
        <time>2018-05-19T13:04:18Z</time>
      </trkpt>
      <trkpt lat="44.10255" lon="3.04377">
        <ele>503.8</ele>
        <time>2018-05-19T13:04:19Z</time>
      </trkpt>
      <trkpt lat="44.10252" lon="3.04375">
        <ele>503.8</ele>
        <time>2018-05-19T13:04:20Z</time>
      </trkpt>
      <trkpt lat="44.10245" lon="3.04372">
        <ele>503.7</ele>
        <time>2018-05-19T13:04:22Z</time>
      </trkpt>
      <trkpt lat="44.1024" lon="3.0437">
        <ele>504</ele>
        <time>2018-05-19T13:04:23Z</time>
      </trkpt>
      <trkpt lat="44.10236" lon="3.04369">
        <ele>504.1</ele>
        <time>2018-05-19T13:04:24Z</time>
      </trkpt>
      <trkpt lat="44.10231" lon="3.04366">
        <ele>504.3</ele>
        <time>2018-05-19T13:04:25Z</time>
      </trkpt>
      <trkpt lat="44.10226" lon="3.04364">
        <ele>504.4</ele>
        <time>2018-05-19T13:04:26Z</time>
      </trkpt>
      <trkpt lat="44.10223" lon="3.04362">
        <ele>504.4</ele>
        <time>2018-05-19T13:04:27Z</time>
      </trkpt>
      <trkpt lat="44.1022" lon="3.0436">
        <ele>504.5</ele>
        <time>2018-05-19T13:04:28Z</time>
      </trkpt>
      <trkpt lat="44.10216" lon="3.04359">
        <ele>504.3</ele>
        <time>2018-05-19T13:04:29Z</time>
      </trkpt>
      <trkpt lat="44.10212" lon="3.04357">
        <ele>504.2</ele>
        <time>2018-05-19T13:04:31Z</time>
      </trkpt>
      <trkpt lat="44.10209" lon="3.04356">
        <ele>504.2</ele>
        <time>2018-05-19T13:04:32Z</time>
      </trkpt>
      <trkpt lat="44.10206" lon="3.04354">
        <ele>503.6</ele>
        <time>2018-05-19T13:04:33Z</time>
      </trkpt>
      <trkpt lat="44.10203" lon="3.04353">
        <ele>503.5</ele>
        <time>2018-05-19T13:04:34Z</time>
      </trkpt>
      <trkpt lat="44.102" lon="3.04351">
        <ele>502.9</ele>
        <time>2018-05-19T13:04:35Z</time>
      </trkpt>
      <trkpt lat="44.10196" lon="3.04349">
        <ele>502.7</ele>
        <time>2018-05-19T13:04:36Z</time>
      </trkpt>
      <trkpt lat="44.10193" lon="3.04347">
        <ele>502</ele>
        <time>2018-05-19T13:04:37Z</time>
      </trkpt>
      <trkpt lat="44.10189" lon="3.04344">
        <ele>501.8</ele>
        <time>2018-05-19T13:04:38Z</time>
      </trkpt>
      <trkpt lat="44.10185" lon="3.04341">
        <ele>500.9</ele>
        <time>2018-05-19T13:04:39Z</time>
      </trkpt>
      <trkpt lat="44.10182" lon="3.04339">
        <ele>500.7</ele>
        <time>2018-05-19T13:04:40Z</time>
      </trkpt>
      <trkpt lat="44.10179" lon="3.04337">
        <ele>500.1</ele>
        <time>2018-05-19T13:04:41Z</time>
      </trkpt>
      <trkpt lat="44.10175" lon="3.04335">
        <ele>499.9</ele>
        <time>2018-05-19T13:04:42Z</time>
      </trkpt>
      <trkpt lat="44.10171" lon="3.04333">
        <ele>499.4</ele>
        <time>2018-05-19T13:04:43Z</time>
      </trkpt>
      <trkpt lat="44.10168" lon="3.04332">
        <ele>499.3</ele>
        <time>2018-05-19T13:04:44Z</time>
      </trkpt>
      <trkpt lat="44.10164" lon="3.0433">
        <ele>499.3</ele>
        <time>2018-05-19T13:04:46Z</time>
      </trkpt>
      <trkpt lat="44.10159" lon="3.04327">
        <ele>498.8</ele>
        <time>2018-05-19T13:05:50Z</time>
      </trkpt>
      <trkpt lat="44.10154" lon="3.04325">
        <ele>498.3</ele>
        <time>2018-05-19T13:05:53Z</time>
      </trkpt>
      <trkpt lat="44.10151" lon="3.04324">
        <ele>498.3</ele>
        <time>2018-05-19T13:05:54Z</time>
      </trkpt>
      <trkpt lat="44.10147" lon="3.04321">
        <ele>497.5</ele>
        <time>2018-05-19T13:05:56Z</time>
      </trkpt>
      <trkpt lat="44.10143" lon="3.04319">
        <ele>497.5</ele>
        <time>2018-05-19T13:05:58Z</time>
      </trkpt>
      <trkpt lat="44.10136" lon="3.04315">
        <ele>496.8</ele>
        <time>2018-05-19T13:05:59Z</time>
      </trkpt>
      <trkpt lat="44.1013" lon="3.0431">
        <ele>496.3</ele>
        <time>2018-05-19T13:06:00Z</time>
      </trkpt>
      <trkpt lat="44.10125" lon="3.04309">
        <ele>496.3</ele>
        <time>2018-05-19T13:06:01Z</time>
      </trkpt>
      <trkpt lat="44.10119" lon="3.04308">
        <ele>495.9</ele>
        <time>2018-05-19T13:06:02Z</time>
      </trkpt>
      <trkpt lat="44.10112" lon="3.04307">
        <ele>496.1</ele>
        <time>2018-05-19T13:06:03Z</time>
      </trkpt>
      <trkpt lat="44.10108" lon="3.04306">
        <ele>496.2</ele>
        <time>2018-05-19T13:06:04Z</time>
      </trkpt>
      <trkpt lat="44.10102" lon="3.04304">
        <ele>495.9</ele>
        <time>2018-05-19T13:06:05Z</time>
      </trkpt>
      <trkpt lat="44.10094" lon="3.04303">
        <ele>496</ele>
        <time>2018-05-19T13:06:06Z</time>
      </trkpt>
      <trkpt lat="44.10086" lon="3.04302">
        <ele>496.2</ele>
        <time>2018-05-19T13:06:07Z</time>
      </trkpt>
      <trkpt lat="44.1008" lon="3.043">
        <ele>496.3</ele>
        <time>2018-05-19T13:06:08Z</time>
      </trkpt>
      <trkpt lat="44.10074" lon="3.04299">
        <ele>495.9</ele>
        <time>2018-05-19T13:06:09Z</time>
      </trkpt>
      <trkpt lat="44.10067" lon="3.04299">
        <ele>496.1</ele>
        <time>2018-05-19T13:06:10Z</time>
      </trkpt>
      <trkpt lat="44.10061" lon="3.04296">
        <ele>496.3</ele>
        <time>2018-05-19T13:06:11Z</time>
      </trkpt>
      <trkpt lat="44.10055" lon="3.04293">
        <ele>495.9</ele>
        <time>2018-05-19T13:06:12Z</time>
      </trkpt>
      <trkpt lat="44.10049" lon="3.0429">
        <ele>495.6</ele>
        <time>2018-05-19T13:06:13Z</time>
      </trkpt>
      <trkpt lat="44.10042" lon="3.04288">
        <ele>495.7</ele>
        <time>2018-05-19T13:06:14Z</time>
      </trkpt>
      <trkpt lat="44.10035" lon="3.04286">
        <ele>495.2</ele>
        <time>2018-05-19T13:06:15Z</time>
      </trkpt>
      <trkpt lat="44.10027" lon="3.04283">
        <ele>495.1</ele>
        <time>2018-05-19T13:06:16Z</time>
      </trkpt>
      <trkpt lat="44.10021" lon="3.0428">
        <ele>494.4</ele>
        <time>2018-05-19T13:06:17Z</time>
      </trkpt>
      <trkpt lat="44.10014" lon="3.04276">
        <ele>493.7</ele>
        <time>2018-05-19T13:06:18Z</time>
      </trkpt>
      <trkpt lat="44.10008" lon="3.04273">
        <ele>492.8</ele>
        <time>2018-05-19T13:06:19Z</time>
      </trkpt>
      <trkpt lat="44.10004" lon="3.04269">
        <ele>491.9</ele>
        <time>2018-05-19T13:06:20Z</time>
      </trkpt>
      <trkpt lat="44.09999" lon="3.04266">
        <ele>491.8</ele>
        <time>2018-05-19T13:06:21Z</time>
      </trkpt>
      <trkpt lat="44.09994" lon="3.04264">
        <ele>490.9</ele>
        <time>2018-05-19T13:06:22Z</time>
      </trkpt>
      <trkpt lat="44.0999" lon="3.04261">
        <ele>490.8</ele>
        <time>2018-05-19T13:06:23Z</time>
      </trkpt>
      <trkpt lat="44.09985" lon="3.04259">
        <ele>489.8</ele>
        <time>2018-05-19T13:06:24Z</time>
      </trkpt>
      <trkpt lat="44.09982" lon="3.04258">
        <ele>489.7</ele>
        <time>2018-05-19T13:06:25Z</time>
      </trkpt>
      <trkpt lat="44.09977" lon="3.04256">
        <ele>488.9</ele>
        <time>2018-05-19T13:06:26Z</time>
      </trkpt>
      <trkpt lat="44.09972" lon="3.04256">
        <ele>488.4</ele>
        <time>2018-05-19T13:06:27Z</time>
      </trkpt>
      <trkpt lat="44.09967" lon="3.04255">
        <ele>487.9</ele>
        <time>2018-05-19T13:06:28Z</time>
      </trkpt>
      <trkpt lat="44.09962" lon="3.04253">
        <ele>487.6</ele>
        <time>2018-05-19T13:06:29Z</time>
      </trkpt>
      <trkpt lat="44.09957" lon="3.04253">
        <ele>486.2</ele>
        <time>2018-05-19T13:06:30Z</time>
      </trkpt>
      <trkpt lat="44.09952" lon="3.04252">
        <ele>485.9</ele>
        <time>2018-05-19T13:06:31Z</time>
      </trkpt>
      <trkpt lat="44.09946" lon="3.04251">
        <ele>485</ele>
        <time>2018-05-19T13:06:33Z</time>
      </trkpt>
      <trkpt lat="44.09939" lon="3.04251">
        <ele>483.5</ele>
        <time>2018-05-19T13:06:34Z</time>
      </trkpt>
      <trkpt lat="44.0993" lon="3.04253">
        <ele>482.6</ele>
        <time>2018-05-19T13:06:36Z</time>
      </trkpt>
      <trkpt lat="44.09925" lon="3.04256">
        <ele>482.4</ele>
        <time>2018-05-19T13:06:37Z</time>
      </trkpt>
      <trkpt lat="44.09921" lon="3.04257">
        <ele>482</ele>
        <time>2018-05-19T13:06:38Z</time>
      </trkpt>
      <trkpt lat="44.09915" lon="3.04256">
        <ele>481.1</ele>
        <time>2018-05-19T13:06:39Z</time>
      </trkpt>
      <trkpt lat="44.09908" lon="3.04257">
        <ele>479.8</ele>
        <time>2018-05-19T13:06:40Z</time>
      </trkpt>
      <trkpt lat="44.099" lon="3.04258">
        <ele>479.8</ele>
        <time>2018-05-19T13:06:41Z</time>
      </trkpt>
      <trkpt lat="44.09891" lon="3.0426">
        <ele>478.6</ele>
        <time>2018-05-19T13:06:42Z</time>
      </trkpt>
      <trkpt lat="44.09884" lon="3.04261">
        <ele>477.5</ele>
        <time>2018-05-19T13:06:43Z</time>
      </trkpt>
      <trkpt lat="44.09877" lon="3.04263">
        <ele>477.5</ele>
        <time>2018-05-19T13:06:44Z</time>
      </trkpt>
      <trkpt lat="44.0987" lon="3.04266">
        <ele>477.5</ele>
        <time>2018-05-19T13:06:45Z</time>
      </trkpt>
      <trkpt lat="44.09863" lon="3.04269">
        <ele>476.7</ele>
        <time>2018-05-19T13:06:46Z</time>
      </trkpt>
      <trkpt lat="44.09856" lon="3.04273">
        <ele>476.5</ele>
        <time>2018-05-19T13:06:47Z</time>
      </trkpt>
      <trkpt lat="44.09849" lon="3.04276">
        <ele>476.1</ele>
        <time>2018-05-19T13:06:48Z</time>
      </trkpt>
      <trkpt lat="44.09841" lon="3.04278">
        <ele>475.4</ele>
        <time>2018-05-19T13:06:49Z</time>
      </trkpt>
      <trkpt lat="44.09833" lon="3.04277">
        <ele>474.4</ele>
        <time>2018-05-19T13:06:50Z</time>
      </trkpt>
      <trkpt lat="44.09825" lon="3.04276">
        <ele>473.7</ele>
        <time>2018-05-19T13:06:51Z</time>
      </trkpt>
      <trkpt lat="44.09818" lon="3.04275">
        <ele>472.9</ele>
        <time>2018-05-19T13:06:52Z</time>
      </trkpt>
      <trkpt lat="44.09812" lon="3.04276">
        <ele>472.3</ele>
        <time>2018-05-19T13:06:53Z</time>
      </trkpt>
      <trkpt lat="44.09806" lon="3.04276">
        <ele>471.6</ele>
        <time>2018-05-19T13:06:54Z</time>
      </trkpt>
      <trkpt lat="44.09802" lon="3.04274">
        <ele>471.2</ele>
        <time>2018-05-19T13:06:55Z</time>
      </trkpt>
      <trkpt lat="44.09799" lon="3.04273">
        <ele>470.3</ele>
        <time>2018-05-19T13:06:56Z</time>
      </trkpt>
      <trkpt lat="44.09796" lon="3.04272">
        <ele>469.9</ele>
        <time>2018-05-19T13:06:57Z</time>
      </trkpt>
      <trkpt lat="44.09791" lon="3.04271">
        <ele>469.3</ele>
        <time>2018-05-19T13:06:59Z</time>
      </trkpt>
      <trkpt lat="44.09787" lon="3.04271">
        <ele>468.9</ele>
        <time>2018-05-19T13:07:01Z</time>
      </trkpt>
      <trkpt lat="44.09785" lon="3.04274">
        <ele>468.4</ele>
        <time>2018-05-19T13:07:21Z</time>
      </trkpt>
      <trkpt lat="44.09784" lon="3.04277">
        <ele>469</ele>
        <time>2018-05-19T13:07:29Z</time>
      </trkpt>
      <trkpt lat="44.0978" lon="3.04275">
        <ele>468.6</ele>
        <time>2018-05-19T13:07:48Z</time>
      </trkpt>
      <trkpt lat="44.09776" lon="3.04277">
        <ele>468.1</ele>
        <time>2018-05-19T13:07:50Z</time>
      </trkpt>
      <trkpt lat="44.0977" lon="3.04277">
        <ele>467.2</ele>
        <time>2018-05-19T13:07:52Z</time>
      </trkpt>
      <trkpt lat="44.09766" lon="3.04276">
        <ele>466.4</ele>
        <time>2018-05-19T13:07:53Z</time>
      </trkpt>
      <trkpt lat="44.09758" lon="3.04273">
        <ele>465</ele>
        <time>2018-05-19T13:07:54Z</time>
      </trkpt>
      <trkpt lat="44.09754" lon="3.04271">
        <ele>464.6</ele>
        <time>2018-05-19T13:07:55Z</time>
      </trkpt>
      <trkpt lat="44.09752" lon="3.04273">
        <ele>464.2</ele>
        <time>2018-05-19T13:07:56Z</time>
      </trkpt>
      <trkpt lat="44.09749" lon="3.04278">
        <ele>464.4</ele>
        <time>2018-05-19T13:07:57Z</time>
      </trkpt>
      <trkpt lat="44.09744" lon="3.04283">
        <ele>465</ele>
        <time>2018-05-19T13:07:58Z</time>
      </trkpt>
      <trkpt lat="44.09738" lon="3.04288">
        <ele>465</ele>
        <time>2018-05-19T13:08:00Z</time>
      </trkpt>
      <trkpt lat="44.09734" lon="3.04291">
        <ele>464.7</ele>
        <time>2018-05-19T13:08:01Z</time>
      </trkpt>
      <trkpt lat="44.09729" lon="3.04293">
        <ele>464.9</ele>
        <time>2018-05-19T13:08:02Z</time>
      </trkpt>
      <trkpt lat="44.09723" lon="3.04296">
        <ele>465.1</ele>
        <time>2018-05-19T13:08:03Z</time>
      </trkpt>
      <trkpt lat="44.09719" lon="3.04298">
        <ele>464.7</ele>
        <time>2018-05-19T13:08:04Z</time>
      </trkpt>
      <trkpt lat="44.09714" lon="3.04298">
        <ele>464.3</ele>
        <time>2018-05-19T13:08:05Z</time>
      </trkpt>
      <trkpt lat="44.0971" lon="3.04298">
        <ele>463.6</ele>
        <time>2018-05-19T13:08:06Z</time>
      </trkpt>
      <trkpt lat="44.09707" lon="3.04298">
        <ele>463.3</ele>
        <time>2018-05-19T13:08:07Z</time>
      </trkpt>
      <trkpt lat="44.09703" lon="3.04298">
        <ele>463</ele>
        <time>2018-05-19T13:08:08Z</time>
      </trkpt>
      <trkpt lat="44.09698" lon="3.04296">
        <ele>462.2</ele>
        <time>2018-05-19T13:08:09Z</time>
      </trkpt>
      <trkpt lat="44.09693" lon="3.04295">
        <ele>460.7</ele>
        <time>2018-05-19T13:08:10Z</time>
      </trkpt>
      <trkpt lat="44.09683" lon="3.04293">
        <ele>458.9</ele>
        <time>2018-05-19T13:08:11Z</time>
      </trkpt>
      <trkpt lat="44.09679" lon="3.04293">
        <ele>458.4</ele>
        <time>2018-05-19T13:08:12Z</time>
      </trkpt>
      <trkpt lat="44.09674" lon="3.04293">
        <ele>457.9</ele>
        <time>2018-05-19T13:08:13Z</time>
      </trkpt>
      <trkpt lat="44.0967" lon="3.04292">
        <ele>456.9</ele>
        <time>2018-05-19T13:08:15Z</time>
      </trkpt>
      <trkpt lat="44.09667" lon="3.04295">
        <ele>456.3</ele>
        <time>2018-05-19T13:08:17Z</time>
      </trkpt>
      <trkpt lat="44.09663" lon="3.04296">
        <ele>455.8</ele>
        <time>2018-05-19T13:08:19Z</time>
      </trkpt>
      <trkpt lat="44.0966" lon="3.04296">
        <ele>456.3</ele>
        <time>2018-05-19T13:08:20Z</time>
      </trkpt>
      <trkpt lat="44.09657" lon="3.04296">
        <ele>455.8</ele>
        <time>2018-05-19T13:08:21Z</time>
      </trkpt>
      <trkpt lat="44.09654" lon="3.04297">
        <ele>455.3</ele>
        <time>2018-05-19T13:08:22Z</time>
      </trkpt>
      <trkpt lat="44.09651" lon="3.04297">
        <ele>454.9</ele>
        <time>2018-05-19T13:08:23Z</time>
      </trkpt>
      <trkpt lat="44.09648" lon="3.04298">
        <ele>454.4</ele>
        <time>2018-05-19T13:08:24Z</time>
      </trkpt>
      <trkpt lat="44.09645" lon="3.04299">
        <ele>453.9</ele>
        <time>2018-05-19T13:08:25Z</time>
      </trkpt>
      <trkpt lat="44.09641" lon="3.04301">
        <ele>454.5</ele>
        <time>2018-05-19T13:08:27Z</time>
      </trkpt>
      <trkpt lat="44.09638" lon="3.04304">
        <ele>454</ele>
        <time>2018-05-19T13:08:29Z</time>
      </trkpt>
      <trkpt lat="44.09634" lon="3.04306">
        <ele>454.5</ele>
        <time>2018-05-19T13:08:31Z</time>
      </trkpt>
      <trkpt lat="44.0963" lon="3.04308">
        <ele>453.5</ele>
        <time>2018-05-19T13:08:33Z</time>
      </trkpt>
      <trkpt lat="44.09627" lon="3.04309">
        <ele>454.1</ele>
        <time>2018-05-19T13:08:35Z</time>
      </trkpt>
      <trkpt lat="44.09624" lon="3.0431">
        <ele>453.7</ele>
        <time>2018-05-19T13:08:50Z</time>
      </trkpt>
      <trkpt lat="44.09622" lon="3.0431">
        <ele>453.7</ele>
        <time>2018-05-19T13:09:04Z</time>
      </trkpt>
      <trkpt lat="44.09619" lon="3.04309">
        <ele>453.3</ele>
        <time>2018-05-19T13:09:05Z</time>
      </trkpt>
      <trkpt lat="44.09614" lon="3.04308">
        <ele>451.3</ele>
        <time>2018-05-19T13:09:06Z</time>
      </trkpt>
      <trkpt lat="44.0961" lon="3.04307">
        <ele>450.9</ele>
        <time>2018-05-19T13:09:07Z</time>
      </trkpt>
      <trkpt lat="44.09604" lon="3.04307">
        <ele>450</ele>
        <time>2018-05-19T13:09:08Z</time>
      </trkpt>
      <trkpt lat="44.09599" lon="3.04308">
        <ele>449.3</ele>
        <time>2018-05-19T13:09:09Z</time>
      </trkpt>
      <trkpt lat="44.09593" lon="3.04308">
        <ele>448.8</ele>
        <time>2018-05-19T13:09:10Z</time>
      </trkpt>
      <trkpt lat="44.09588" lon="3.04309">
        <ele>449.2</ele>
        <time>2018-05-19T13:09:11Z</time>
      </trkpt>
      <trkpt lat="44.09582" lon="3.0431">
        <ele>448.9</ele>
        <time>2018-05-19T13:09:12Z</time>
      </trkpt>
      <trkpt lat="44.09576" lon="3.0431">
        <ele>448.2</ele>
        <time>2018-05-19T13:09:13Z</time>
      </trkpt>
      <trkpt lat="44.09571" lon="3.04312">
        <ele>447.8</ele>
        <time>2018-05-19T13:09:14Z</time>
      </trkpt>
      <trkpt lat="44.09566" lon="3.04311">
        <ele>447.3</ele>
        <time>2018-05-19T13:09:15Z</time>
      </trkpt>
      <trkpt lat="44.0956" lon="3.0431">
        <ele>446.7</ele>
        <time>2018-05-19T13:09:16Z</time>
      </trkpt>
      <trkpt lat="44.09554" lon="3.04309">
        <ele>446</ele>
        <time>2018-05-19T13:09:17Z</time>
      </trkpt>
      <trkpt lat="44.09545" lon="3.04309">
        <ele>445.1</ele>
        <time>2018-05-19T13:09:18Z</time>
      </trkpt>
      <trkpt lat="44.0954" lon="3.0431">
        <ele>444.4</ele>
        <time>2018-05-19T13:09:19Z</time>
      </trkpt>
      <trkpt lat="44.09534" lon="3.04313">
        <ele>443.5</ele>
        <time>2018-05-19T13:09:20Z</time>
      </trkpt>
      <trkpt lat="44.09528" lon="3.04316">
        <ele>443.6</ele>
        <time>2018-05-19T13:09:21Z</time>
      </trkpt>
      <trkpt lat="44.09524" lon="3.04317">
        <ele>444.1</ele>
        <time>2018-05-19T13:09:22Z</time>
      </trkpt>
      <trkpt lat="44.09518" lon="3.04319">
        <ele>443.1</ele>
        <time>2018-05-19T13:09:23Z</time>
      </trkpt>
      <trkpt lat="44.09515" lon="3.04319">
        <ele>442.6</ele>
        <time>2018-05-19T13:09:24Z</time>
      </trkpt>
      <trkpt lat="44.09512" lon="3.0432">
        <ele>442.2</ele>
        <time>2018-05-19T13:09:25Z</time>
      </trkpt>
      <trkpt lat="44.09508" lon="3.04323">
        <ele>443.5</ele>
        <time>2018-05-19T13:09:26Z</time>
      </trkpt>
      <trkpt lat="44.09505" lon="3.04325">
        <ele>443</ele>
        <time>2018-05-19T13:09:27Z</time>
      </trkpt>
      <trkpt lat="44.09502" lon="3.04328">
        <ele>443.7</ele>
        <time>2018-05-19T13:09:28Z</time>
      </trkpt>
      <trkpt lat="44.09498" lon="3.0433">
        <ele>443.1</ele>
        <time>2018-05-19T13:09:29Z</time>
      </trkpt>
      <trkpt lat="44.09495" lon="3.04332">
        <ele>443.2</ele>
        <time>2018-05-19T13:09:30Z</time>
      </trkpt>
      <trkpt lat="44.09493" lon="3.04333">
        <ele>443.2</ele>
        <time>2018-05-19T13:09:31Z</time>
      </trkpt>
      <trkpt lat="44.09489" lon="3.04334">
        <ele>442.7</ele>
        <time>2018-05-19T13:09:32Z</time>
      </trkpt>
      <trkpt lat="44.09485" lon="3.04335">
        <ele>442.9</ele>
        <time>2018-05-19T13:09:33Z</time>
      </trkpt>
      <trkpt lat="44.0948" lon="3.04337">
        <ele>442.4</ele>
        <time>2018-05-19T13:09:34Z</time>
      </trkpt>
      <trkpt lat="44.09476" lon="3.04338">
        <ele>441.2</ele>
        <time>2018-05-19T13:09:35Z</time>
      </trkpt>
      <trkpt lat="44.09472" lon="3.0434">
        <ele>441.9</ele>
        <time>2018-05-19T13:09:36Z</time>
      </trkpt>
      <trkpt lat="44.09469" lon="3.04341">
        <ele>441.2</ele>
        <time>2018-05-19T13:09:37Z</time>
      </trkpt>
      <trkpt lat="44.09466" lon="3.04341">
        <ele>440.7</ele>
        <time>2018-05-19T13:09:38Z</time>
      </trkpt>
      <trkpt lat="44.09462" lon="3.04342">
        <ele>440.1</ele>
        <time>2018-05-19T13:09:40Z</time>
      </trkpt>
      <trkpt lat="44.09459" lon="3.04342">
        <ele>439.6</ele>
        <time>2018-05-19T13:09:43Z</time>
      </trkpt>
      <trkpt lat="44.09455" lon="3.04343">
        <ele>439.9</ele>
        <time>2018-05-19T13:09:45Z</time>
      </trkpt>
      <trkpt lat="44.09452" lon="3.04344">
        <ele>439.4</ele>
        <time>2018-05-19T13:09:46Z</time>
      </trkpt>
      <trkpt lat="44.09449" lon="3.04345">
        <ele>439.4</ele>
        <time>2018-05-19T13:09:47Z</time>
      </trkpt>
      <trkpt lat="44.09446" lon="3.04345">
        <ele>438.8</ele>
        <time>2018-05-19T13:09:48Z</time>
      </trkpt>
      <trkpt lat="44.09442" lon="3.04346">
        <ele>437.8</ele>
        <time>2018-05-19T13:09:49Z</time>
      </trkpt>
      <trkpt lat="44.09436" lon="3.04346">
        <ele>436.8</ele>
        <time>2018-05-19T13:09:50Z</time>
      </trkpt>
      <trkpt lat="44.09429" lon="3.04346">
        <ele>435.9</ele>
        <time>2018-05-19T13:09:51Z</time>
      </trkpt>
      <trkpt lat="44.09421" lon="3.04344">
        <ele>434.6</ele>
        <time>2018-05-19T13:09:52Z</time>
      </trkpt>
      <trkpt lat="44.09413" lon="3.04343">
        <ele>432.1</ele>
        <time>2018-05-19T13:09:53Z</time>
      </trkpt>
      <trkpt lat="44.09406" lon="3.04341">
        <ele>430.9</ele>
        <time>2018-05-19T13:09:54Z</time>
      </trkpt>
      <trkpt lat="44.09398" lon="3.04341">
        <ele>430.3</ele>
        <time>2018-05-19T13:09:55Z</time>
      </trkpt>
      <trkpt lat="44.09389" lon="3.0434">
        <ele>429.2</ele>
        <time>2018-05-19T13:09:56Z</time>
      </trkpt>
      <trkpt lat="44.09384" lon="3.04342">
        <ele>428.6</ele>
        <time>2018-05-19T13:09:57Z</time>
      </trkpt>
      <trkpt lat="44.09379" lon="3.04343">
        <ele>429.6</ele>
        <time>2018-05-19T13:09:58Z</time>
      </trkpt>
      <trkpt lat="44.09377" lon="3.04346">
        <ele>429.3</ele>
        <time>2018-05-19T13:09:59Z</time>
      </trkpt>
      <trkpt lat="44.09373" lon="3.04352">
        <ele>431.5</ele>
        <time>2018-05-19T13:10:00Z</time>
      </trkpt>
      <trkpt lat="44.09371" lon="3.04356">
        <ele>432.3</ele>
        <time>2018-05-19T13:10:01Z</time>
      </trkpt>
      <trkpt lat="44.09368" lon="3.04359">
        <ele>431.9</ele>
        <time>2018-05-19T13:10:02Z</time>
      </trkpt>
      <trkpt lat="44.09366" lon="3.04362">
        <ele>432.5</ele>
        <time>2018-05-19T13:10:04Z</time>
      </trkpt>
      <trkpt lat="44.09363" lon="3.04366">
        <ele>433.5</ele>
        <time>2018-05-19T13:10:06Z</time>
      </trkpt>
      <trkpt lat="44.09364" lon="3.04371">
        <ele>434.4</ele>
        <time>2018-05-19T13:10:07Z</time>
      </trkpt>
      <trkpt lat="44.09362" lon="3.04374">
        <ele>434.8</ele>
        <time>2018-05-19T13:10:08Z</time>
      </trkpt>
      <trkpt lat="44.0936" lon="3.04379">
        <ele>435.1</ele>
        <time>2018-05-19T13:10:09Z</time>
      </trkpt>
      <trkpt lat="44.09357" lon="3.04383">
        <ele>435.9</ele>
        <time>2018-05-19T13:10:10Z</time>
      </trkpt>
      <trkpt lat="44.09355" lon="3.04389">
        <ele>436.2</ele>
        <time>2018-05-19T13:10:11Z</time>
      </trkpt>
      <trkpt lat="44.09352" lon="3.04395">
        <ele>437.2</ele>
        <time>2018-05-19T13:10:12Z</time>
      </trkpt>
      <trkpt lat="44.09349" lon="3.04401">
        <ele>437.4</ele>
        <time>2018-05-19T13:10:13Z</time>
      </trkpt>
      <trkpt lat="44.09346" lon="3.04407">
        <ele>437.6</ele>
        <time>2018-05-19T13:10:14Z</time>
      </trkpt>
      <trkpt lat="44.0934" lon="3.04414">
        <ele>437.6</ele>
        <time>2018-05-19T13:10:15Z</time>
      </trkpt>
      <trkpt lat="44.09337" lon="3.04421">
        <ele>437.8</ele>
        <time>2018-05-19T13:10:16Z</time>
      </trkpt>
      <trkpt lat="44.09335" lon="3.0443">
        <ele>437.8</ele>
        <time>2018-05-19T13:10:17Z</time>
      </trkpt>
      <trkpt lat="44.0933" lon="3.04438">
        <ele>437.6</ele>
        <time>2018-05-19T13:10:18Z</time>
      </trkpt>
      <trkpt lat="44.09327" lon="3.04447">
        <ele>437.2</ele>
        <time>2018-05-19T13:10:19Z</time>
      </trkpt>
      <trkpt lat="44.09323" lon="3.04455">
        <ele>436.6</ele>
        <time>2018-05-19T13:10:20Z</time>
      </trkpt>
      <trkpt lat="44.09321" lon="3.04464">
        <ele>436</ele>
        <time>2018-05-19T13:10:21Z</time>
      </trkpt>
      <trkpt lat="44.09318" lon="3.04473">
        <ele>435.4</ele>
        <time>2018-05-19T13:10:22Z</time>
      </trkpt>
      <trkpt lat="44.09317" lon="3.04483">
        <ele>435.3</ele>
        <time>2018-05-19T13:10:23Z</time>
      </trkpt>
      <trkpt lat="44.09315" lon="3.04492">
        <ele>434.5</ele>
        <time>2018-05-19T13:10:24Z</time>
      </trkpt>
      <trkpt lat="44.09315" lon="3.04502">
        <ele>434</ele>
        <time>2018-05-19T13:10:25Z</time>
      </trkpt>
      <trkpt lat="44.09314" lon="3.04511">
        <ele>433.7</ele>
        <time>2018-05-19T13:10:26Z</time>
      </trkpt>
      <trkpt lat="44.09314" lon="3.04521">
        <ele>433.3</ele>
        <time>2018-05-19T13:10:27Z</time>
      </trkpt>
      <trkpt lat="44.09316" lon="3.04531">
        <ele>432.9</ele>
        <time>2018-05-19T13:10:28Z</time>
      </trkpt>
      <trkpt lat="44.09316" lon="3.0454">
        <ele>432.4</ele>
        <time>2018-05-19T13:10:29Z</time>
      </trkpt>
      <trkpt lat="44.09318" lon="3.04549">
        <ele>432.6</ele>
        <time>2018-05-19T13:10:30Z</time>
      </trkpt>
      <trkpt lat="44.09321" lon="3.04557">
        <ele>433.2</ele>
        <time>2018-05-19T13:10:31Z</time>
      </trkpt>
      <trkpt lat="44.09324" lon="3.04564">
        <ele>433.5</ele>
        <time>2018-05-19T13:10:32Z</time>
      </trkpt>
      <trkpt lat="44.09327" lon="3.0457">
        <ele>434</ele>
        <time>2018-05-19T13:10:33Z</time>
      </trkpt>
      <trkpt lat="44.0933" lon="3.04577">
        <ele>434.2</ele>
        <time>2018-05-19T13:10:34Z</time>
      </trkpt>
      <trkpt lat="44.09333" lon="3.04586">
        <ele>434.4</ele>
        <time>2018-05-19T13:10:35Z</time>
      </trkpt>
      <trkpt lat="44.09337" lon="3.04592">
        <ele>434.7</ele>
        <time>2018-05-19T13:10:36Z</time>
      </trkpt>
      <trkpt lat="44.0934" lon="3.04598">
        <ele>435.3</ele>
        <time>2018-05-19T13:10:37Z</time>
      </trkpt>
      <trkpt lat="44.09345" lon="3.04603">
        <ele>436.6</ele>
        <time>2018-05-19T13:10:38Z</time>
      </trkpt>
      <trkpt lat="44.09349" lon="3.04608">
        <ele>437</ele>
        <time>2018-05-19T13:10:39Z</time>
      </trkpt>
      <trkpt lat="44.09353" lon="3.04612">
        <ele>438</ele>
        <time>2018-05-19T13:10:40Z</time>
      </trkpt>
      <trkpt lat="44.09356" lon="3.04615">
        <ele>438</ele>
        <time>2018-05-19T13:10:41Z</time>
      </trkpt>
      <trkpt lat="44.09359" lon="3.04618">
        <ele>438</ele>
        <time>2018-05-19T13:10:42Z</time>
      </trkpt>
      <trkpt lat="44.09363" lon="3.04622">
        <ele>438</ele>
        <time>2018-05-19T13:10:44Z</time>
      </trkpt>
      <trkpt lat="44.09364" lon="3.04629">
        <ele>438</ele>
        <time>2018-05-19T13:10:46Z</time>
      </trkpt>
      <trkpt lat="44.09364" lon="3.04635">
        <ele>438</ele>
        <time>2018-05-19T13:10:47Z</time>
      </trkpt>
      <trkpt lat="44.09364" lon="3.04639">
        <ele>438</ele>
        <time>2018-05-19T13:10:48Z</time>
      </trkpt>
      <trkpt lat="44.09364" lon="3.04644">
        <ele>438</ele>
        <time>2018-05-19T13:10:50Z</time>
      </trkpt>
      <trkpt lat="44.09362" lon="3.0465">
        <ele>438</ele>
        <time>2018-05-19T13:10:52Z</time>
      </trkpt>
      <trkpt lat="44.09361" lon="3.04654">
        <ele>438.1</ele>
        <time>2018-05-19T13:10:54Z</time>
      </trkpt>
      <trkpt lat="44.09358" lon="3.04658">
        <ele>438.2</ele>
        <time>2018-05-19T13:10:56Z</time>
      </trkpt>
      <trkpt lat="44.09355" lon="3.04661">
        <ele>438.3</ele>
        <time>2018-05-19T13:10:58Z</time>
      </trkpt>
      <trkpt lat="44.09353" lon="3.04664">
        <ele>438.5</ele>
        <time>2018-05-19T13:11:00Z</time>
      </trkpt>
      <trkpt lat="44.09351" lon="3.04669">
        <ele>438.7</ele>
        <time>2018-05-19T13:11:02Z</time>
      </trkpt>
      <trkpt lat="44.09351" lon="3.04674">
        <ele>439</ele>
        <time>2018-05-19T13:11:04Z</time>
      </trkpt>
      <trkpt lat="44.09351" lon="3.04679">
        <ele>439.3</ele>
        <time>2018-05-19T13:11:06Z</time>
      </trkpt>
      <trkpt lat="44.0935" lon="3.04684">
        <ele>439.6</ele>
        <time>2018-05-19T13:11:08Z</time>
      </trkpt>
      <trkpt lat="44.09349" lon="3.04688">
        <ele>439.8</ele>
        <time>2018-05-19T13:11:10Z</time>
      </trkpt>
      <trkpt lat="44.09348" lon="3.04693">
        <ele>440</ele>
        <time>2018-05-19T13:11:12Z</time>
      </trkpt>
      <trkpt lat="44.09347" lon="3.04697">
        <ele>440.2</ele>
        <time>2018-05-19T13:11:14Z</time>
      </trkpt>
      <trkpt lat="44.09346" lon="3.04701">
        <ele>440.4</ele>
        <time>2018-05-19T13:11:16Z</time>
      </trkpt>
      <trkpt lat="44.09345" lon="3.04705">
        <ele>440.5</ele>
        <time>2018-05-19T13:11:19Z</time>
      </trkpt>
      <trkpt lat="44.09344" lon="3.04709">
        <ele>440.7</ele>
        <time>2018-05-19T13:11:22Z</time>
      </trkpt>
      <trkpt lat="44.09342" lon="3.04713">
        <ele>440.8</ele>
        <time>2018-05-19T13:11:24Z</time>
      </trkpt>
      <trkpt lat="44.0934" lon="3.04718">
        <ele>440.9</ele>
        <time>2018-05-19T13:11:27Z</time>
      </trkpt>
      <trkpt lat="44.09339" lon="3.04722">
        <ele>441</ele>
        <time>2018-05-19T13:11:29Z</time>
      </trkpt>
      <trkpt lat="44.09337" lon="3.04725">
        <ele>441</ele>
        <time>2018-05-19T13:11:31Z</time>
      </trkpt>
      <trkpt lat="44.09336" lon="3.04731">
        <ele>441.1</ele>
        <time>2018-05-19T13:11:34Z</time>
      </trkpt>
      <trkpt lat="44.09335" lon="3.04735">
        <ele>441.2</ele>
        <time>2018-05-19T13:11:36Z</time>
      </trkpt>
      <trkpt lat="44.09334" lon="3.04739">
        <ele>441.2</ele>
        <time>2018-05-19T13:11:38Z</time>
      </trkpt>
      <trkpt lat="44.09333" lon="3.04743">
        <ele>441.2</ele>
        <time>2018-05-19T13:11:40Z</time>
      </trkpt>
      <trkpt lat="44.09333" lon="3.04748">
        <ele>441.2</ele>
        <time>2018-05-19T13:11:42Z</time>
      </trkpt>
      <trkpt lat="44.09333" lon="3.04754">
        <ele>441.2</ele>
        <time>2018-05-19T13:11:44Z</time>
      </trkpt>
      <trkpt lat="44.09332" lon="3.04759">
        <ele>441.2</ele>
        <time>2018-05-19T13:11:46Z</time>
      </trkpt>
      <trkpt lat="44.09332" lon="3.04766">
        <ele>441.2</ele>
        <time>2018-05-19T13:11:48Z</time>
      </trkpt>
      <trkpt lat="44.09333" lon="3.04773">
        <ele>441.1</ele>
        <time>2018-05-19T13:11:50Z</time>
      </trkpt>
      <trkpt lat="44.09334" lon="3.0478">
        <ele>441.1</ele>
        <time>2018-05-19T13:11:52Z</time>
      </trkpt>
      <trkpt lat="44.09335" lon="3.04787">
        <ele>441.1</ele>
        <time>2018-05-19T13:11:54Z</time>
      </trkpt>
      <trkpt lat="44.09336" lon="3.04793">
        <ele>441</ele>
        <time>2018-05-19T13:11:56Z</time>
      </trkpt>
      <trkpt lat="44.09336" lon="3.04797">
        <ele>441</ele>
        <time>2018-05-19T13:11:58Z</time>
      </trkpt>
      <trkpt lat="44.09337" lon="3.04802">
        <ele>440.6</ele>
        <time>2018-05-19T13:12:00Z</time>
      </trkpt>
      <trkpt lat="44.09338" lon="3.04811">
        <ele>440.3</ele>
        <time>2018-05-19T13:12:02Z</time>
      </trkpt>
      <trkpt lat="44.09338" lon="3.04816">
        <ele>440.1</ele>
        <time>2018-05-19T13:12:03Z</time>
      </trkpt>
      <trkpt lat="44.09338" lon="3.04822">
        <ele>439.9</ele>
        <time>2018-05-19T13:12:04Z</time>
      </trkpt>
      <trkpt lat="44.09337" lon="3.04829">
        <ele>439.7</ele>
        <time>2018-05-19T13:12:05Z</time>
      </trkpt>
      <trkpt lat="44.09338" lon="3.04835">
        <ele>439.5</ele>
        <time>2018-05-19T13:12:06Z</time>
      </trkpt>
      <trkpt lat="44.09338" lon="3.0484">
        <ele>439.3</ele>
        <time>2018-05-19T13:12:07Z</time>
      </trkpt>
      <trkpt lat="44.09338" lon="3.04845">
        <ele>439.2</ele>
        <time>2018-05-19T13:12:08Z</time>
      </trkpt>
      <trkpt lat="44.09338" lon="3.0485">
        <ele>438.8</ele>
        <time>2018-05-19T13:12:09Z</time>
      </trkpt>
      <trkpt lat="44.09339" lon="3.04855">
        <ele>438.6</ele>
        <time>2018-05-19T13:12:10Z</time>
      </trkpt>
      <trkpt lat="44.09341" lon="3.04864">
        <ele>438</ele>
        <time>2018-05-19T13:12:12Z</time>
      </trkpt>
      <trkpt lat="44.09341" lon="3.04868">
        <ele>437.7</ele>
        <time>2018-05-19T13:12:13Z</time>
      </trkpt>
      <trkpt lat="44.09341" lon="3.04872">
        <ele>437.4</ele>
        <time>2018-05-19T13:12:15Z</time>
      </trkpt>
      <trkpt lat="44.09343" lon="3.04869">
        <ele>437.1</ele>
        <time>2018-05-19T13:12:27Z</time>
      </trkpt>
      <trkpt lat="44.09341" lon="3.04872">
        <ele>436.9</ele>
        <time>2018-05-19T13:13:29Z</time>
      </trkpt>
      <trkpt lat="44.09343" lon="3.04875">
        <ele>436.6</ele>
        <time>2018-05-19T13:13:43Z</time>
      </trkpt>
      <trkpt lat="44.09344" lon="3.04881">
        <ele>436.2</ele>
        <time>2018-05-19T13:13:55Z</time>
      </trkpt>
      <trkpt lat="44.09344" lon="3.04888">
        <ele>435.8</ele>
        <time>2018-05-19T13:13:57Z</time>
      </trkpt>
      <trkpt lat="44.09343" lon="3.04895">
        <ele>435.3</ele>
        <time>2018-05-19T13:13:59Z</time>
      </trkpt>
      <trkpt lat="44.09342" lon="3.049">
        <ele>435.1</ele>
        <time>2018-05-19T13:14:00Z</time>
      </trkpt>
      <trkpt lat="44.09341" lon="3.04905">
        <ele>434.9</ele>
        <time>2018-05-19T13:14:01Z</time>
      </trkpt>
      <trkpt lat="44.09341" lon="3.04911">
        <ele>434.7</ele>
        <time>2018-05-19T13:14:02Z</time>
      </trkpt>
      <trkpt lat="44.09339" lon="3.04917">
        <ele>434.6</ele>
        <time>2018-05-19T13:14:03Z</time>
      </trkpt>
      <trkpt lat="44.09339" lon="3.04924">
        <ele>434.5</ele>
        <time>2018-05-19T13:14:04Z</time>
      </trkpt>
      <trkpt lat="44.09339" lon="3.04931">
        <ele>434.4</ele>
        <time>2018-05-19T13:14:05Z</time>
      </trkpt>
      <trkpt lat="44.09338" lon="3.04939">
        <ele>434.3</ele>
        <time>2018-05-19T13:14:06Z</time>
      </trkpt>
      <trkpt lat="44.09337" lon="3.04948">
        <ele>434.2</ele>
        <time>2018-05-19T13:14:07Z</time>
      </trkpt>
      <trkpt lat="44.09336" lon="3.04956">
        <ele>434.2</ele>
        <time>2018-05-19T13:14:08Z</time>
      </trkpt>
      <trkpt lat="44.09335" lon="3.04965">
        <ele>434.1</ele>
        <time>2018-05-19T13:14:09Z</time>
      </trkpt>
      <trkpt lat="44.09335" lon="3.04975">
        <ele>434.2</ele>
        <time>2018-05-19T13:14:10Z</time>
      </trkpt>
      <trkpt lat="44.09335" lon="3.04985">
        <ele>434.4</ele>
        <time>2018-05-19T13:14:11Z</time>
      </trkpt>
      <trkpt lat="44.09336" lon="3.04996">
        <ele>434.7</ele>
        <time>2018-05-19T13:14:12Z</time>
      </trkpt>
      <trkpt lat="44.09335" lon="3.05004">
        <ele>434.9</ele>
        <time>2018-05-19T13:14:13Z</time>
      </trkpt>
      <trkpt lat="44.09335" lon="3.0501">
        <ele>435</ele>
        <time>2018-05-19T13:14:14Z</time>
      </trkpt>
      <trkpt lat="44.09334" lon="3.05019">
        <ele>434.1</ele>
        <time>2018-05-19T13:14:15Z</time>
      </trkpt>
      <trkpt lat="44.09333" lon="3.05027">
        <ele>432.7</ele>
        <time>2018-05-19T13:14:16Z</time>
      </trkpt>
      <trkpt lat="44.09331" lon="3.05035">
        <ele>431.1</ele>
        <time>2018-05-19T13:14:17Z</time>
      </trkpt>
      <trkpt lat="44.0933" lon="3.05044">
        <ele>429.7</ele>
        <time>2018-05-19T13:14:18Z</time>
      </trkpt>
      <trkpt lat="44.09328" lon="3.05055">
        <ele>428.2</ele>
        <time>2018-05-19T13:14:19Z</time>
      </trkpt>
      <trkpt lat="44.09325" lon="3.05066">
        <ele>426</ele>
        <time>2018-05-19T13:14:20Z</time>
      </trkpt>
      <trkpt lat="44.09323" lon="3.05079">
        <ele>424.1</ele>
        <time>2018-05-19T13:14:21Z</time>
      </trkpt>
      <trkpt lat="44.0932" lon="3.05092">
        <ele>422</ele>
        <time>2018-05-19T13:14:22Z</time>
      </trkpt>
      <trkpt lat="44.09316" lon="3.05106">
        <ele>419.4</ele>
        <time>2018-05-19T13:14:23Z</time>
      </trkpt>
      <trkpt lat="44.09312" lon="3.05122">
        <ele>416.5</ele>
        <time>2018-05-19T13:14:24Z</time>
      </trkpt>
      <trkpt lat="44.09309" lon="3.05136">
        <ele>414.2</ele>
        <time>2018-05-19T13:14:25Z</time>
      </trkpt>
      <trkpt lat="44.09304" lon="3.05151">
        <ele>411.3</ele>
        <time>2018-05-19T13:14:26Z</time>
      </trkpt>
      <trkpt lat="44.093" lon="3.05167">
        <ele>408.2</ele>
        <time>2018-05-19T13:14:27Z</time>
      </trkpt>
      <trkpt lat="44.09295" lon="3.05181">
        <ele>406.1</ele>
        <time>2018-05-19T13:14:28Z</time>
      </trkpt>
      <trkpt lat="44.09291" lon="3.05191">
        <ele>404.7</ele>
        <time>2018-05-19T13:14:29Z</time>
      </trkpt>
      <trkpt lat="44.09286" lon="3.05203">
        <ele>404.6</ele>
        <time>2018-05-19T13:14:30Z</time>
      </trkpt>
      <trkpt lat="44.09281" lon="3.05213">
        <ele>405.9</ele>
        <time>2018-05-19T13:14:31Z</time>
      </trkpt>
      <trkpt lat="44.09276" lon="3.05224">
        <ele>407.3</ele>
        <time>2018-05-19T13:14:32Z</time>
      </trkpt>
      <trkpt lat="44.09272" lon="3.05235">
        <ele>408.6</ele>
        <time>2018-05-19T13:14:33Z</time>
      </trkpt>
      <trkpt lat="44.09267" lon="3.05245">
        <ele>410.2</ele>
        <time>2018-05-19T13:14:34Z</time>
      </trkpt>
      <trkpt lat="44.09261" lon="3.05255">
        <ele>408.1</ele>
        <time>2018-05-19T13:14:35Z</time>
      </trkpt>
      <trkpt lat="44.09256" lon="3.05267">
        <ele>400.6</ele>
        <time>2018-05-19T13:14:36Z</time>
      </trkpt>
      <trkpt lat="44.09252" lon="3.05277">
        <ele>394.1</ele>
        <time>2018-05-19T13:14:37Z</time>
      </trkpt>
      <trkpt lat="44.09249" lon="3.05287">
        <ele>388.2</ele>
        <time>2018-05-19T13:14:38Z</time>
      </trkpt>
      <trkpt lat="44.09247" lon="3.05297">
        <ele>389.8</ele>
        <time>2018-05-19T13:14:39Z</time>
      </trkpt>
      <trkpt lat="44.09247" lon="3.05306">
        <ele>391.5</ele>
        <time>2018-05-19T13:14:40Z</time>
      </trkpt>
      <trkpt lat="44.09244" lon="3.05316">
        <ele>393.3</ele>
        <time>2018-05-19T13:14:41Z</time>
      </trkpt>
      <trkpt lat="44.09245" lon="3.05326">
        <ele>395.1</ele>
        <time>2018-05-19T13:14:42Z</time>
      </trkpt>
      <trkpt lat="44.09242" lon="3.05335">
        <ele>396.7</ele>
        <time>2018-05-19T13:14:43Z</time>
      </trkpt>
      <trkpt lat="44.09237" lon="3.05339">
        <ele>397.8</ele>
        <time>2018-05-19T13:14:44Z</time>
      </trkpt>
      <trkpt lat="44.0923" lon="3.05341">
        <ele>397.5</ele>
        <time>2018-05-19T13:14:45Z</time>
      </trkpt>
      <trkpt lat="44.09223" lon="3.0534">
        <ele>397.1</ele>
        <time>2018-05-19T13:14:46Z</time>
      </trkpt>
      <trkpt lat="44.09217" lon="3.05341">
        <ele>396.7</ele>
        <time>2018-05-19T13:14:47Z</time>
      </trkpt>
      <trkpt lat="44.09211" lon="3.05342">
        <ele>396.3</ele>
        <time>2018-05-19T13:14:48Z</time>
      </trkpt>
      <trkpt lat="44.09206" lon="3.05344">
        <ele>396</ele>
        <time>2018-05-19T13:14:49Z</time>
      </trkpt>
      <trkpt lat="44.09202" lon="3.05348">
        <ele>395.5</ele>
        <time>2018-05-19T13:14:50Z</time>
      </trkpt>
      <trkpt lat="44.09198" lon="3.05353">
        <ele>395.1</ele>
        <time>2018-05-19T13:14:51Z</time>
      </trkpt>
      <trkpt lat="44.09196" lon="3.05359">
        <ele>394.8</ele>
        <time>2018-05-19T13:14:52Z</time>
      </trkpt>
      <trkpt lat="44.09193" lon="3.05367">
        <ele>394.4</ele>
        <time>2018-05-19T13:14:53Z</time>
      </trkpt>
      <trkpt lat="44.0919" lon="3.05377">
        <ele>394</ele>
        <time>2018-05-19T13:14:54Z</time>
      </trkpt>
      <trkpt lat="44.09186" lon="3.05384">
        <ele>393.8</ele>
        <time>2018-05-19T13:14:55Z</time>
      </trkpt>
      <trkpt lat="44.09184" lon="3.05393">
        <ele>393.5</ele>
        <time>2018-05-19T13:14:56Z</time>
      </trkpt>
      <trkpt lat="44.09179" lon="3.05402">
        <ele>393.2</ele>
        <time>2018-05-19T13:14:57Z</time>
      </trkpt>
      <trkpt lat="44.09173" lon="3.05406">
        <ele>392.9</ele>
        <time>2018-05-19T13:14:58Z</time>
      </trkpt>
      <trkpt lat="44.09166" lon="3.05408">
        <ele>392.7</ele>
        <time>2018-05-19T13:14:59Z</time>
      </trkpt>
      <trkpt lat="44.09159" lon="3.0541">
        <ele>392.4</ele>
        <time>2018-05-19T13:15:00Z</time>
      </trkpt>
      <trkpt lat="44.0915" lon="3.05412">
        <ele>392.1</ele>
        <time>2018-05-19T13:15:01Z</time>
      </trkpt>
      <trkpt lat="44.09144" lon="3.05415">
        <ele>391.8</ele>
        <time>2018-05-19T13:15:02Z</time>
      </trkpt>
      <trkpt lat="44.09138" lon="3.05422">
        <ele>391.4</ele>
        <time>2018-05-19T13:15:03Z</time>
      </trkpt>
      <trkpt lat="44.09132" lon="3.05429">
        <ele>391.1</ele>
        <time>2018-05-19T13:15:04Z</time>
      </trkpt>
      <trkpt lat="44.09128" lon="3.05437">
        <ele>390.7</ele>
        <time>2018-05-19T13:15:05Z</time>
      </trkpt>
      <trkpt lat="44.09126" lon="3.05446">
        <ele>390.3</ele>
        <time>2018-05-19T13:15:06Z</time>
      </trkpt>
      <trkpt lat="44.09123" lon="3.05453">
        <ele>390</ele>
        <time>2018-05-19T13:15:07Z</time>
      </trkpt>
      <trkpt lat="44.0912" lon="3.05461">
        <ele>389.4</ele>
        <time>2018-05-19T13:15:08Z</time>
      </trkpt>
      <trkpt lat="44.09119" lon="3.05468">
        <ele>388.9</ele>
        <time>2018-05-19T13:15:09Z</time>
      </trkpt>
      <trkpt lat="44.09117" lon="3.05471">
        <ele>388.3</ele>
        <time>2018-05-19T13:15:10Z</time>
      </trkpt>
      <trkpt lat="44.09114" lon="3.05472">
        <ele>387.6</ele>
        <time>2018-05-19T13:15:11Z</time>
      </trkpt>
      <trkpt lat="44.09108" lon="3.05471">
        <ele>386.1</ele>
        <time>2018-05-19T13:15:13Z</time>
      </trkpt>
      <trkpt lat="44.09102" lon="3.0547">
        <ele>384.9</ele>
        <time>2018-05-19T13:15:14Z</time>
      </trkpt>
      <trkpt lat="44.09097" lon="3.0547">
        <ele>383.5</ele>
        <time>2018-05-19T13:15:15Z</time>
      </trkpt>
      <trkpt lat="44.09093" lon="3.0547">
        <ele>382.6</ele>
        <time>2018-05-19T13:15:16Z</time>
      </trkpt>
      <trkpt lat="44.09088" lon="3.05471">
        <ele>381.1</ele>
        <time>2018-05-19T13:15:17Z</time>
      </trkpt>
      <trkpt lat="44.09085" lon="3.05469">
        <ele>380.1</ele>
        <time>2018-05-19T13:15:25Z</time>
      </trkpt>
      <trkpt lat="44.09081" lon="3.05469">
        <ele>379</ele>
        <time>2018-05-19T13:15:28Z</time>
      </trkpt>
      <trkpt lat="44.0908" lon="3.05473">
        <ele>379</ele>
        <time>2018-05-19T13:15:41Z</time>
      </trkpt>
      <trkpt lat="44.09078" lon="3.05475">
        <ele>379</ele>
        <time>2018-05-19T13:16:09Z</time>
      </trkpt>
      <trkpt lat="44.09076" lon="3.05481">
        <ele>379</ele>
        <time>2018-05-19T13:16:11Z</time>
      </trkpt>
      <trkpt lat="44.09076" lon="3.05487">
        <ele>379</ele>
        <time>2018-05-19T13:16:13Z</time>
      </trkpt>
      <trkpt lat="44.09076" lon="3.05491">
        <ele>379</ele>
        <time>2018-05-19T13:16:14Z</time>
      </trkpt>
      <trkpt lat="44.09076" lon="3.05496">
        <ele>379</ele>
        <time>2018-05-19T13:16:15Z</time>
      </trkpt>
      <trkpt lat="44.09075" lon="3.055">
        <ele>379</ele>
        <time>2018-05-19T13:16:16Z</time>
      </trkpt>
      <trkpt lat="44.09075" lon="3.05505">
        <ele>379</ele>
        <time>2018-05-19T13:16:17Z</time>
      </trkpt>
      <trkpt lat="44.09074" lon="3.0551">
        <ele>379</ele>
        <time>2018-05-19T13:16:18Z</time>
      </trkpt>
      <trkpt lat="44.09073" lon="3.05515">
        <ele>379</ele>
        <time>2018-05-19T13:16:19Z</time>
      </trkpt>
      <trkpt lat="44.09071" lon="3.0552">
        <ele>378.5</ele>
        <time>2018-05-19T13:16:20Z</time>
      </trkpt>
      <trkpt lat="44.09067" lon="3.05523">
        <ele>378.1</ele>
        <time>2018-05-19T13:16:21Z</time>
      </trkpt>
      <trkpt lat="44.09063" lon="3.05526">
        <ele>377.7</ele>
        <time>2018-05-19T13:16:22Z</time>
      </trkpt>
      <trkpt lat="44.0906" lon="3.05527">
        <ele>377.3</ele>
        <time>2018-05-19T13:16:23Z</time>
      </trkpt>
      <trkpt lat="44.09056" lon="3.05529">
        <ele>376.9</ele>
        <time>2018-05-19T13:16:24Z</time>
      </trkpt>
      <trkpt lat="44.09048" lon="3.05531">
        <ele>376</ele>
        <time>2018-05-19T13:16:25Z</time>
      </trkpt>
      <trkpt lat="44.09045" lon="3.05534">
        <ele>375.4</ele>
        <time>2018-05-19T13:16:26Z</time>
      </trkpt>
      <trkpt lat="44.09041" lon="3.05537">
        <ele>375.1</ele>
        <time>2018-05-19T13:16:27Z</time>
      </trkpt>
      <trkpt lat="44.09038" lon="3.05541">
        <ele>374.8</ele>
        <time>2018-05-19T13:16:28Z</time>
      </trkpt>
      <trkpt lat="44.09033" lon="3.05546">
        <ele>374.4</ele>
        <time>2018-05-19T13:16:29Z</time>
      </trkpt>
      <trkpt lat="44.09029" lon="3.0555">
        <ele>374.1</ele>
        <time>2018-05-19T13:16:30Z</time>
      </trkpt>
      <trkpt lat="44.09026" lon="3.05554">
        <ele>373.8</ele>
        <time>2018-05-19T13:16:31Z</time>
      </trkpt>
      <trkpt lat="44.09022" lon="3.05559">
        <ele>373.5</ele>
        <time>2018-05-19T13:16:32Z</time>
      </trkpt>
      <trkpt lat="44.09019" lon="3.05565">
        <ele>373.2</ele>
        <time>2018-05-19T13:16:33Z</time>
      </trkpt>
      <trkpt lat="44.09016" lon="3.05571">
        <ele>372.9</ele>
        <time>2018-05-19T13:16:34Z</time>
      </trkpt>
      <trkpt lat="44.09013" lon="3.05578">
        <ele>372.5</ele>
        <time>2018-05-19T13:16:35Z</time>
      </trkpt>
      <trkpt lat="44.09009" lon="3.05585">
        <ele>372.1</ele>
        <time>2018-05-19T13:16:36Z</time>
      </trkpt>
      <trkpt lat="44.09007" lon="3.05594">
        <ele>371.8</ele>
        <time>2018-05-19T13:16:37Z</time>
      </trkpt>
      <trkpt lat="44.09004" lon="3.05601">
        <ele>371.5</ele>
        <time>2018-05-19T13:16:38Z</time>
      </trkpt>
      <trkpt lat="44.09" lon="3.05609">
        <ele>371.2</ele>
        <time>2018-05-19T13:16:39Z</time>
      </trkpt>
      <trkpt lat="44.08997" lon="3.05618">
        <ele>370.8</ele>
        <time>2018-05-19T13:16:40Z</time>
      </trkpt>
      <trkpt lat="44.08996" lon="3.05626">
        <ele>370.6</ele>
        <time>2018-05-19T13:16:41Z</time>
      </trkpt>
      <trkpt lat="44.08995" lon="3.05634">
        <ele>370.3</ele>
        <time>2018-05-19T13:16:42Z</time>
      </trkpt>
      <trkpt lat="44.08995" lon="3.05643">
        <ele>369.9</ele>
        <time>2018-05-19T13:16:43Z</time>
      </trkpt>
      <trkpt lat="44.08993" lon="3.0565">
        <ele>369.7</ele>
        <time>2018-05-19T13:16:44Z</time>
      </trkpt>
      <trkpt lat="44.08993" lon="3.05655">
        <ele>369.4</ele>
        <time>2018-05-19T13:16:45Z</time>
      </trkpt>
      <trkpt lat="44.08991" lon="3.05659">
        <ele>369.3</ele>
        <time>2018-05-19T13:16:46Z</time>
      </trkpt>
      <trkpt lat="44.08989" lon="3.05663">
        <ele>368.8</ele>
        <time>2018-05-19T13:16:47Z</time>
      </trkpt>
      <trkpt lat="44.08985" lon="3.05666">
        <ele>368</ele>
        <time>2018-05-19T13:16:48Z</time>
      </trkpt>
      <trkpt lat="44.08977" lon="3.05671">
        <ele>366.7</ele>
        <time>2018-05-19T13:16:49Z</time>
      </trkpt>
      <trkpt lat="44.08973" lon="3.05678">
        <ele>366</ele>
        <time>2018-05-19T13:16:50Z</time>
      </trkpt>
      <trkpt lat="44.08968" lon="3.05688">
        <ele>366.2</ele>
        <time>2018-05-19T13:16:51Z</time>
      </trkpt>
      <trkpt lat="44.08964" lon="3.05697">
        <ele>366.6</ele>
        <time>2018-05-19T13:16:52Z</time>
      </trkpt>
      <trkpt lat="44.0896" lon="3.05707">
        <ele>367.1</ele>
        <time>2018-05-19T13:16:53Z</time>
      </trkpt>
      <trkpt lat="44.08956" lon="3.05719">
        <ele>367.5</ele>
        <time>2018-05-19T13:16:54Z</time>
      </trkpt>
      <trkpt lat="44.08955" lon="3.0573">
        <ele>368.3</ele>
        <time>2018-05-19T13:16:55Z</time>
      </trkpt>
      <trkpt lat="44.08955" lon="3.05739">
        <ele>369.2</ele>
        <time>2018-05-19T13:16:56Z</time>
      </trkpt>
      <trkpt lat="44.08955" lon="3.05749">
        <ele>370.1</ele>
        <time>2018-05-19T13:16:57Z</time>
      </trkpt>
      <trkpt lat="44.08955" lon="3.05757">
        <ele>370.9</ele>
        <time>2018-05-19T13:16:58Z</time>
      </trkpt>
      <trkpt lat="44.08955" lon="3.05766">
        <ele>371.6</ele>
        <time>2018-05-19T13:16:59Z</time>
      </trkpt>
      <trkpt lat="44.08955" lon="3.05773">
        <ele>372.3</ele>
        <time>2018-05-19T13:17:00Z</time>
      </trkpt>
      <trkpt lat="44.08956" lon="3.05781">
        <ele>373.2</ele>
        <time>2018-05-19T13:17:01Z</time>
      </trkpt>
      <trkpt lat="44.08956" lon="3.05788">
        <ele>373.8</ele>
        <time>2018-05-19T13:17:02Z</time>
      </trkpt>
      <trkpt lat="44.08957" lon="3.05795">
        <ele>374.4</ele>
        <time>2018-05-19T13:17:03Z</time>
      </trkpt>
      <trkpt lat="44.08957" lon="3.05802">
        <ele>375</ele>
        <time>2018-05-19T13:17:04Z</time>
      </trkpt>
      <trkpt lat="44.08958" lon="3.05809">
        <ele>375</ele>
        <time>2018-05-19T13:17:05Z</time>
      </trkpt>
      <trkpt lat="44.08957" lon="3.05815">
        <ele>375</ele>
        <time>2018-05-19T13:17:06Z</time>
      </trkpt>
      <trkpt lat="44.08957" lon="3.05821">
        <ele>375</ele>
        <time>2018-05-19T13:17:07Z</time>
      </trkpt>
      <trkpt lat="44.08959" lon="3.05827">
        <ele>375</ele>
        <time>2018-05-19T13:17:08Z</time>
      </trkpt>
      <trkpt lat="44.08958" lon="3.05832">
        <ele>375</ele>
        <time>2018-05-19T13:17:09Z</time>
      </trkpt>
      <trkpt lat="44.08958" lon="3.05836">
        <ele>375</ele>
        <time>2018-05-19T13:17:10Z</time>
      </trkpt>
      <trkpt lat="44.08957" lon="3.0584">
        <ele>375</ele>
        <time>2018-05-19T13:17:11Z</time>
      </trkpt>
      <trkpt lat="44.08954" lon="3.05846">
        <ele>374.7</ele>
        <time>2018-05-19T13:17:12Z</time>
      </trkpt>
      <trkpt lat="44.0895" lon="3.05852">
        <ele>374.1</ele>
        <time>2018-05-19T13:17:13Z</time>
      </trkpt>
      <trkpt lat="44.08945" lon="3.05858">
        <ele>373.4</ele>
        <time>2018-05-19T13:17:14Z</time>
      </trkpt>
      <trkpt lat="44.08941" lon="3.05864">
        <ele>373</ele>
        <time>2018-05-19T13:17:15Z</time>
      </trkpt>
      <trkpt lat="44.08935" lon="3.0587">
        <ele>372.6</ele>
        <time>2018-05-19T13:17:16Z</time>
      </trkpt>
      <trkpt lat="44.08931" lon="3.05877">
        <ele>372</ele>
        <time>2018-05-19T13:17:17Z</time>
      </trkpt>
      <trkpt lat="44.08926" lon="3.05886">
        <ele>371.3</ele>
        <time>2018-05-19T13:17:18Z</time>
      </trkpt>
      <trkpt lat="44.08921" lon="3.05894">
        <ele>370.6</ele>
        <time>2018-05-19T13:17:19Z</time>
      </trkpt>
      <trkpt lat="44.08917" lon="3.05901">
        <ele>370.1</ele>
        <time>2018-05-19T13:17:20Z</time>
      </trkpt>
      <trkpt lat="44.08914" lon="3.05911">
        <ele>369.9</ele>
        <time>2018-05-19T13:17:21Z</time>
      </trkpt>
      <trkpt lat="44.08911" lon="3.0592">
        <ele>369.7</ele>
        <time>2018-05-19T13:17:22Z</time>
      </trkpt>
      <trkpt lat="44.08907" lon="3.0593">
        <ele>369.7</ele>
        <time>2018-05-19T13:17:23Z</time>
      </trkpt>
      <trkpt lat="44.08903" lon="3.0594">
        <ele>369.7</ele>
        <time>2018-05-19T13:17:24Z</time>
      </trkpt>
      <trkpt lat="44.08894" lon="3.05946">
        <ele>369.8</ele>
        <time>2018-05-19T13:17:25Z</time>
      </trkpt>
      <trkpt lat="44.08891" lon="3.05953">
        <ele>369.8</ele>
        <time>2018-05-19T13:17:26Z</time>
      </trkpt>
      <trkpt lat="44.08887" lon="3.05963">
        <ele>369.9</ele>
        <time>2018-05-19T13:17:27Z</time>
      </trkpt>
      <trkpt lat="44.08886" lon="3.05969">
        <ele>369.9</ele>
        <time>2018-05-19T13:17:28Z</time>
      </trkpt>
      <trkpt lat="44.08883" lon="3.05975">
        <ele>369.9</ele>
        <time>2018-05-19T13:17:29Z</time>
      </trkpt>
      <trkpt lat="44.08883" lon="3.05979">
        <ele>370</ele>
        <time>2018-05-19T13:17:30Z</time>
      </trkpt>
      <trkpt lat="44.08884" lon="3.05974">
        <ele>370</ele>
        <time>2018-05-19T13:17:35Z</time>
      </trkpt>
      <trkpt lat="44.08887" lon="3.05975">
        <ele>370</ele>
        <time>2018-05-19T13:17:39Z</time>
      </trkpt>
      <trkpt lat="44.08891" lon="3.05976">
        <ele>370</ele>
        <time>2018-05-19T13:17:44Z</time>
      </trkpt>
      <trkpt lat="44.08888" lon="3.05979">
        <ele>370</ele>
        <time>2018-05-19T13:18:01Z</time>
      </trkpt>
      <trkpt lat="44.08886" lon="3.05984">
        <ele>370</ele>
        <time>2018-05-19T13:18:03Z</time>
      </trkpt>
      <trkpt lat="44.08883" lon="3.05989">
        <ele>369.9</ele>
        <time>2018-05-19T13:18:05Z</time>
      </trkpt>
      <trkpt lat="44.08881" lon="3.05996">
        <ele>369.5</ele>
        <time>2018-05-19T13:18:07Z</time>
      </trkpt>
      <trkpt lat="44.08881" lon="3.06003">
        <ele>369.2</ele>
        <time>2018-05-19T13:18:09Z</time>
      </trkpt>
      <trkpt lat="44.08881" lon="3.06007">
        <ele>369</ele>
        <time>2018-05-19T13:18:10Z</time>
      </trkpt>
      <trkpt lat="44.08881" lon="3.06014">
        <ele>368.6</ele>
        <time>2018-05-19T13:18:11Z</time>
      </trkpt>
      <trkpt lat="44.0888" lon="3.0602">
        <ele>368.3</ele>
        <time>2018-05-19T13:18:12Z</time>
      </trkpt>
      <trkpt lat="44.0888" lon="3.06027">
        <ele>368</ele>
        <time>2018-05-19T13:18:13Z</time>
      </trkpt>
      <trkpt lat="44.08878" lon="3.06036">
        <ele>368.4</ele>
        <time>2018-05-19T13:18:14Z</time>
      </trkpt>
      <trkpt lat="44.08879" lon="3.06044">
        <ele>368.8</ele>
        <time>2018-05-19T13:18:15Z</time>
      </trkpt>
      <trkpt lat="44.08879" lon="3.0605">
        <ele>369.1</ele>
        <time>2018-05-19T13:18:16Z</time>
      </trkpt>
      <trkpt lat="44.08881" lon="3.06057">
        <ele>369.5</ele>
        <time>2018-05-19T13:18:17Z</time>
      </trkpt>
      <trkpt lat="44.08884" lon="3.06063">
        <ele>369.9</ele>
        <time>2018-05-19T13:18:18Z</time>
      </trkpt>
      <trkpt lat="44.08886" lon="3.0607">
        <ele>370.2</ele>
        <time>2018-05-19T13:18:19Z</time>
      </trkpt>
      <trkpt lat="44.08891" lon="3.0608">
        <ele>370.8</ele>
        <time>2018-05-19T13:18:20Z</time>
      </trkpt>
      <trkpt lat="44.08893" lon="3.06087">
        <ele>371.2</ele>
        <time>2018-05-19T13:18:21Z</time>
      </trkpt>
      <trkpt lat="44.08896" lon="3.06094">
        <ele>371.6</ele>
        <time>2018-05-19T13:18:22Z</time>
      </trkpt>
      <trkpt lat="44.08901" lon="3.061">
        <ele>372</ele>
        <time>2018-05-19T13:18:23Z</time>
      </trkpt>
      <trkpt lat="44.08905" lon="3.06107">
        <ele>372.5</ele>
        <time>2018-05-19T13:18:24Z</time>
      </trkpt>
      <trkpt lat="44.08909" lon="3.06114">
        <ele>372.9</ele>
        <time>2018-05-19T13:18:25Z</time>
      </trkpt>
      <trkpt lat="44.08914" lon="3.06121">
        <ele>373.4</ele>
        <time>2018-05-19T13:18:26Z</time>
      </trkpt>
      <trkpt lat="44.08919" lon="3.06126">
        <ele>373.9</ele>
        <time>2018-05-19T13:18:27Z</time>
      </trkpt>
      <trkpt lat="44.08925" lon="3.06132">
        <ele>373.9</ele>
        <time>2018-05-19T13:18:28Z</time>
      </trkpt>
      <trkpt lat="44.0893" lon="3.06136">
        <ele>373.6</ele>
        <time>2018-05-19T13:18:29Z</time>
      </trkpt>
      <trkpt lat="44.08936" lon="3.06141">
        <ele>373.4</ele>
        <time>2018-05-19T13:18:30Z</time>
      </trkpt>
      <trkpt lat="44.08941" lon="3.06143">
        <ele>373.2</ele>
        <time>2018-05-19T13:18:31Z</time>
      </trkpt>
      <trkpt lat="44.08948" lon="3.06145">
        <ele>373</ele>
        <time>2018-05-19T13:18:32Z</time>
      </trkpt>
      <trkpt lat="44.08954" lon="3.06148">
        <ele>372.8</ele>
        <time>2018-05-19T13:18:33Z</time>
      </trkpt>
      <trkpt lat="44.08959" lon="3.06152">
        <ele>372.6</ele>
        <time>2018-05-19T13:18:34Z</time>
      </trkpt>
      <trkpt lat="44.08964" lon="3.06155">
        <ele>372.4</ele>
        <time>2018-05-19T13:18:35Z</time>
      </trkpt>
      <trkpt lat="44.0897" lon="3.06156">
        <ele>372.3</ele>
        <time>2018-05-19T13:18:36Z</time>
      </trkpt>
      <trkpt lat="44.08976" lon="3.06157">
        <ele>372.1</ele>
        <time>2018-05-19T13:18:37Z</time>
      </trkpt>
      <trkpt lat="44.08983" lon="3.06159">
        <ele>371.9</ele>
        <time>2018-05-19T13:18:38Z</time>
      </trkpt>
      <trkpt lat="44.0899" lon="3.0616">
        <ele>371.6</ele>
        <time>2018-05-19T13:18:39Z</time>
      </trkpt>
      <trkpt lat="44.08995" lon="3.0616">
        <ele>371.5</ele>
        <time>2018-05-19T13:18:40Z</time>
      </trkpt>
      <trkpt lat="44.09001" lon="3.0616">
        <ele>371.3</ele>
        <time>2018-05-19T13:18:41Z</time>
      </trkpt>
      <trkpt lat="44.09007" lon="3.0616">
        <ele>371.1</ele>
        <time>2018-05-19T13:18:42Z</time>
      </trkpt>
      <trkpt lat="44.09013" lon="3.06161">
        <ele>370.9</ele>
        <time>2018-05-19T13:18:43Z</time>
      </trkpt>
      <trkpt lat="44.0902" lon="3.06162">
        <ele>370.6</ele>
        <time>2018-05-19T13:18:44Z</time>
      </trkpt>
      <trkpt lat="44.09026" lon="3.06162">
        <ele>370.4</ele>
        <time>2018-05-19T13:18:45Z</time>
      </trkpt>
      <trkpt lat="44.09031" lon="3.06163">
        <ele>370.1</ele>
        <time>2018-05-19T13:18:46Z</time>
      </trkpt>
      <trkpt lat="44.09037" lon="3.06164">
        <ele>369.9</ele>
        <time>2018-05-19T13:18:47Z</time>
      </trkpt>
      <trkpt lat="44.09044" lon="3.06165">
        <ele>369.7</ele>
        <time>2018-05-19T13:18:48Z</time>
      </trkpt>
      <trkpt lat="44.09051" lon="3.06166">
        <ele>369.4</ele>
        <time>2018-05-19T13:18:49Z</time>
      </trkpt>
      <trkpt lat="44.09057" lon="3.06168">
        <ele>369.2</ele>
        <time>2018-05-19T13:18:50Z</time>
      </trkpt>
      <trkpt lat="44.09063" lon="3.06171">
        <ele>369</ele>
        <time>2018-05-19T13:18:51Z</time>
      </trkpt>
      <trkpt lat="44.09069" lon="3.06175">
        <ele>368.8</ele>
        <time>2018-05-19T13:18:52Z</time>
      </trkpt>
      <trkpt lat="44.09075" lon="3.06178">
        <ele>368.5</ele>
        <time>2018-05-19T13:18:53Z</time>
      </trkpt>
      <trkpt lat="44.09081" lon="3.06181">
        <ele>368.3</ele>
        <time>2018-05-19T13:18:54Z</time>
      </trkpt>
      <trkpt lat="44.09086" lon="3.06185">
        <ele>368.1</ele>
        <time>2018-05-19T13:18:55Z</time>
      </trkpt>
      <trkpt lat="44.09092" lon="3.06188">
        <ele>367.9</ele>
        <time>2018-05-19T13:18:56Z</time>
      </trkpt>
      <trkpt lat="44.09097" lon="3.06192">
        <ele>367.7</ele>
        <time>2018-05-19T13:18:57Z</time>
      </trkpt>
      <trkpt lat="44.09103" lon="3.06196">
        <ele>367.5</ele>
        <time>2018-05-19T13:18:58Z</time>
      </trkpt>
      <trkpt lat="44.09108" lon="3.06201">
        <ele>367.2</ele>
        <time>2018-05-19T13:18:59Z</time>
      </trkpt>
      <trkpt lat="44.09113" lon="3.06205">
        <ele>367</ele>
        <time>2018-05-19T13:19:00Z</time>
      </trkpt>
      <trkpt lat="44.09118" lon="3.06209">
        <ele>366.8</ele>
        <time>2018-05-19T13:19:01Z</time>
      </trkpt>
      <trkpt lat="44.09123" lon="3.06214">
        <ele>366.6</ele>
        <time>2018-05-19T13:19:02Z</time>
      </trkpt>
      <trkpt lat="44.09127" lon="3.06219">
        <ele>366.5</ele>
        <time>2018-05-19T13:19:03Z</time>
      </trkpt>
      <trkpt lat="44.09131" lon="3.06224">
        <ele>366.3</ele>
        <time>2018-05-19T13:19:04Z</time>
      </trkpt>
      <trkpt lat="44.09136" lon="3.06228">
        <ele>366.1</ele>
        <time>2018-05-19T13:19:05Z</time>
      </trkpt>
      <trkpt lat="44.09141" lon="3.06233">
        <ele>365.9</ele>
        <time>2018-05-19T13:19:06Z</time>
      </trkpt>
      <trkpt lat="44.09146" lon="3.06236">
        <ele>365.7</ele>
        <time>2018-05-19T13:19:07Z</time>
      </trkpt>
      <trkpt lat="44.09151" lon="3.06243">
        <ele>365.5</ele>
        <time>2018-05-19T13:19:08Z</time>
      </trkpt>
      <trkpt lat="44.09156" lon="3.06248">
        <ele>365.2</ele>
        <time>2018-05-19T13:19:09Z</time>
      </trkpt>
      <trkpt lat="44.09161" lon="3.06254">
        <ele>365</ele>
        <time>2018-05-19T13:19:10Z</time>
      </trkpt>
      <trkpt lat="44.09166" lon="3.0626">
        <ele>364.8</ele>
        <time>2018-05-19T13:19:11Z</time>
      </trkpt>
      <trkpt lat="44.0917" lon="3.06266">
        <ele>364.5</ele>
        <time>2018-05-19T13:19:12Z</time>
      </trkpt>
      <trkpt lat="44.09175" lon="3.06272">
        <ele>364.2</ele>
        <time>2018-05-19T13:19:13Z</time>
      </trkpt>
      <trkpt lat="44.09179" lon="3.06278">
        <ele>363.9</ele>
        <time>2018-05-19T13:19:14Z</time>
      </trkpt>
      <trkpt lat="44.09184" lon="3.06284">
        <ele>363.6</ele>
        <time>2018-05-19T13:19:15Z</time>
      </trkpt>
      <trkpt lat="44.09189" lon="3.06291">
        <ele>363.3</ele>
        <time>2018-05-19T13:19:16Z</time>
      </trkpt>
      <trkpt lat="44.09193" lon="3.06297">
        <ele>363</ele>
        <time>2018-05-19T13:19:17Z</time>
      </trkpt>
      <trkpt lat="44.09198" lon="3.06301">
        <ele>362.7</ele>
        <time>2018-05-19T13:19:18Z</time>
      </trkpt>
      <trkpt lat="44.09203" lon="3.06307">
        <ele>362.4</ele>
        <time>2018-05-19T13:19:19Z</time>
      </trkpt>
      <trkpt lat="44.09205" lon="3.06311">
        <ele>362.3</ele>
        <time>2018-05-19T13:19:20Z</time>
      </trkpt>
      <trkpt lat="44.09208" lon="3.06319">
        <ele>361.9</ele>
        <time>2018-05-19T13:19:21Z</time>
      </trkpt>
      <trkpt lat="44.09213" lon="3.06327">
        <ele>361.6</ele>
        <time>2018-05-19T13:19:22Z</time>
      </trkpt>
      <trkpt lat="44.09216" lon="3.06334">
        <ele>361.3</ele>
        <time>2018-05-19T13:19:23Z</time>
      </trkpt>
      <trkpt lat="44.0922" lon="3.06341">
        <ele>361</ele>
        <time>2018-05-19T13:19:24Z</time>
      </trkpt>
      <trkpt lat="44.09224" lon="3.06348">
        <ele>361</ele>
        <time>2018-05-19T13:19:25Z</time>
      </trkpt>
      <trkpt lat="44.09228" lon="3.06355">
        <ele>361</ele>
        <time>2018-05-19T13:19:26Z</time>
      </trkpt>
      <trkpt lat="44.09231" lon="3.06359">
        <ele>361</ele>
        <time>2018-05-19T13:19:27Z</time>
      </trkpt>
      <trkpt lat="44.09234" lon="3.06366">
        <ele>361</ele>
        <time>2018-05-19T13:19:28Z</time>
      </trkpt>
      <trkpt lat="44.09237" lon="3.06373">
        <ele>361</ele>
        <time>2018-05-19T13:19:29Z</time>
      </trkpt>
      <trkpt lat="44.0924" lon="3.06381">
        <ele>361</ele>
        <time>2018-05-19T13:19:30Z</time>
      </trkpt>
      <trkpt lat="44.09242" lon="3.06387">
        <ele>361</ele>
        <time>2018-05-19T13:19:31Z</time>
      </trkpt>
      <trkpt lat="44.09244" lon="3.06395">
        <ele>361</ele>
        <time>2018-05-19T13:19:32Z</time>
      </trkpt>
      <trkpt lat="44.09244" lon="3.06404">
        <ele>361</ele>
        <time>2018-05-19T13:19:33Z</time>
      </trkpt>
      <trkpt lat="44.09241" lon="3.0641">
        <ele>360.3</ele>
        <time>2018-05-19T13:19:34Z</time>
      </trkpt>
      <trkpt lat="44.09238" lon="3.06417">
        <ele>359.1</ele>
        <time>2018-05-19T13:19:35Z</time>
      </trkpt>
      <trkpt lat="44.09236" lon="3.06423">
        <ele>358</ele>
        <time>2018-05-19T13:19:36Z</time>
      </trkpt>
      <trkpt lat="44.09233" lon="3.06425">
        <ele>358</ele>
        <time>2018-05-19T13:19:37Z</time>
      </trkpt>
      <trkpt lat="44.09227" lon="3.06433">
        <ele>357.7</ele>
        <time>2018-05-19T13:19:38Z</time>
      </trkpt>
      <trkpt lat="44.09223" lon="3.06439">
        <ele>357.4</ele>
        <time>2018-05-19T13:19:39Z</time>
      </trkpt>
      <trkpt lat="44.09218" lon="3.06445">
        <ele>357</ele>
        <time>2018-05-19T13:19:40Z</time>
      </trkpt>
      <trkpt lat="44.09214" lon="3.06452">
        <ele>356.7</ele>
        <time>2018-05-19T13:19:41Z</time>
      </trkpt>
      <trkpt lat="44.0921" lon="3.06459">
        <ele>356.5</ele>
        <time>2018-05-19T13:19:42Z</time>
      </trkpt>
      <trkpt lat="44.09206" lon="3.06469">
        <ele>356.2</ele>
        <time>2018-05-19T13:19:43Z</time>
      </trkpt>
      <trkpt lat="44.09201" lon="3.06476">
        <ele>355.9</ele>
        <time>2018-05-19T13:19:44Z</time>
      </trkpt>
      <trkpt lat="44.09197" lon="3.06483">
        <ele>355.6</ele>
        <time>2018-05-19T13:19:45Z</time>
      </trkpt>
      <trkpt lat="44.09192" lon="3.06491">
        <ele>355.3</ele>
        <time>2018-05-19T13:19:46Z</time>
      </trkpt>
      <trkpt lat="44.09188" lon="3.06501">
        <ele>355</ele>
        <time>2018-05-19T13:19:47Z</time>
      </trkpt>
      <trkpt lat="44.09183" lon="3.0651">
        <ele>354.7</ele>
        <time>2018-05-19T13:19:48Z</time>
      </trkpt>
      <trkpt lat="44.09178" lon="3.06519">
        <ele>354.4</ele>
        <time>2018-05-19T13:19:49Z</time>
      </trkpt>
      <trkpt lat="44.09173" lon="3.06527">
        <ele>354.1</ele>
        <time>2018-05-19T13:19:50Z</time>
      </trkpt>
      <trkpt lat="44.09169" lon="3.06535">
        <ele>353.9</ele>
        <time>2018-05-19T13:19:51Z</time>
      </trkpt>
      <trkpt lat="44.09166" lon="3.06538">
        <ele>353.7</ele>
        <time>2018-05-19T13:19:52Z</time>
      </trkpt>
      <trkpt lat="44.09162" lon="3.06546">
        <ele>353.5</ele>
        <time>2018-05-19T13:19:54Z</time>
      </trkpt>
      <trkpt lat="44.09158" lon="3.06551">
        <ele>353</ele>
        <time>2018-05-19T13:19:55Z</time>
      </trkpt>
      <trkpt lat="44.09149" lon="3.06558">
        <ele>353</ele>
        <time>2018-05-19T13:19:56Z</time>
      </trkpt>
      <trkpt lat="44.09146" lon="3.06563">
        <ele>353</ele>
        <time>2018-05-19T13:19:57Z</time>
      </trkpt>
      <trkpt lat="44.09143" lon="3.06568">
        <ele>353.1</ele>
        <time>2018-05-19T13:19:58Z</time>
      </trkpt>
      <trkpt lat="44.0914" lon="3.0657">
        <ele>353.1</ele>
        <time>2018-05-19T13:19:59Z</time>
      </trkpt>
      <trkpt lat="44.09133" lon="3.06583">
        <ele>353.1</ele>
        <time>2018-05-19T13:20:01Z</time>
      </trkpt>
      <trkpt lat="44.09133" lon="3.06591">
        <ele>353.1</ele>
        <time>2018-05-19T13:20:02Z</time>
      </trkpt>
      <trkpt lat="44.09133" lon="3.06599">
        <ele>353.2</ele>
        <time>2018-05-19T13:20:03Z</time>
      </trkpt>
      <trkpt lat="44.09132" lon="3.06607">
        <ele>353.3</ele>
        <time>2018-05-19T13:20:04Z</time>
      </trkpt>
      <trkpt lat="44.09129" lon="3.06616">
        <ele>353.4</ele>
        <time>2018-05-19T13:20:05Z</time>
      </trkpt>
      <trkpt lat="44.09128" lon="3.06623">
        <ele>353.5</ele>
        <time>2018-05-19T13:20:06Z</time>
      </trkpt>
      <trkpt lat="44.09125" lon="3.06632">
        <ele>353.6</ele>
        <time>2018-05-19T13:20:07Z</time>
      </trkpt>
      <trkpt lat="44.09122" lon="3.06642">
        <ele>353.7</ele>
        <time>2018-05-19T13:20:08Z</time>
      </trkpt>
      <trkpt lat="44.09119" lon="3.06652">
        <ele>353.8</ele>
        <time>2018-05-19T13:20:09Z</time>
      </trkpt>
      <trkpt lat="44.09118" lon="3.0666">
        <ele>353.9</ele>
        <time>2018-05-19T13:20:10Z</time>
      </trkpt>
      <trkpt lat="44.09116" lon="3.06668">
        <ele>353.9</ele>
        <time>2018-05-19T13:20:11Z</time>
      </trkpt>
      <trkpt lat="44.09115" lon="3.06677">
        <ele>354</ele>
        <time>2018-05-19T13:20:12Z</time>
      </trkpt>
      <trkpt lat="44.09115" lon="3.06686">
        <ele>354</ele>
        <time>2018-05-19T13:20:13Z</time>
      </trkpt>
      <trkpt lat="44.09116" lon="3.06696">
        <ele>354</ele>
        <time>2018-05-19T13:20:14Z</time>
      </trkpt>
      <trkpt lat="44.09116" lon="3.06705">
        <ele>354.1</ele>
        <time>2018-05-19T13:20:15Z</time>
      </trkpt>
      <trkpt lat="44.09116" lon="3.06714">
        <ele>354.5</ele>
        <time>2018-05-19T13:20:16Z</time>
      </trkpt>
      <trkpt lat="44.09116" lon="3.06722">
        <ele>354.8</ele>
        <time>2018-05-19T13:20:17Z</time>
      </trkpt>
      <trkpt lat="44.09116" lon="3.0673">
        <ele>355.1</ele>
        <time>2018-05-19T13:20:18Z</time>
      </trkpt>
      <trkpt lat="44.09117" lon="3.06739">
        <ele>355.5</ele>
        <time>2018-05-19T13:20:19Z</time>
      </trkpt>
      <trkpt lat="44.09118" lon="3.06747">
        <ele>355.8</ele>
        <time>2018-05-19T13:20:20Z</time>
      </trkpt>
      <trkpt lat="44.09119" lon="3.06754">
        <ele>356</ele>
        <time>2018-05-19T13:20:21Z</time>
      </trkpt>
      <trkpt lat="44.09121" lon="3.06762">
        <ele>356</ele>
        <time>2018-05-19T13:20:22Z</time>
      </trkpt>
      <trkpt lat="44.09123" lon="3.0677">
        <ele>356</ele>
        <time>2018-05-19T13:20:23Z</time>
      </trkpt>
      <trkpt lat="44.09125" lon="3.06781">
        <ele>356</ele>
        <time>2018-05-19T13:20:24Z</time>
      </trkpt>
      <trkpt lat="44.09126" lon="3.06789">
        <ele>356</ele>
        <time>2018-05-19T13:20:25Z</time>
      </trkpt>
      <trkpt lat="44.09128" lon="3.06797">
        <ele>356</ele>
        <time>2018-05-19T13:20:26Z</time>
      </trkpt>
      <trkpt lat="44.09128" lon="3.06803">
        <ele>356</ele>
        <time>2018-05-19T13:20:27Z</time>
      </trkpt>
      <trkpt lat="44.0913" lon="3.0681">
        <ele>356</ele>
        <time>2018-05-19T13:20:28Z</time>
      </trkpt>
      <trkpt lat="44.09132" lon="3.06817">
        <ele>356</ele>
        <time>2018-05-19T13:20:29Z</time>
      </trkpt>
      <trkpt lat="44.09133" lon="3.06824">
        <ele>356</ele>
        <time>2018-05-19T13:20:30Z</time>
      </trkpt>
      <trkpt lat="44.09135" lon="3.0683">
        <ele>355.9</ele>
        <time>2018-05-19T13:20:31Z</time>
      </trkpt>
      <trkpt lat="44.09135" lon="3.06837">
        <ele>355.6</ele>
        <time>2018-05-19T13:20:32Z</time>
      </trkpt>
      <trkpt lat="44.09137" lon="3.06844">
        <ele>355.2</ele>
        <time>2018-05-19T13:20:33Z</time>
      </trkpt>
      <trkpt lat="44.09138" lon="3.06848">
        <ele>355</ele>
        <time>2018-05-19T13:20:34Z</time>
      </trkpt>
      <trkpt lat="44.09139" lon="3.06855">
        <ele>355</ele>
        <time>2018-05-19T13:20:35Z</time>
      </trkpt>
      <trkpt lat="44.0914" lon="3.06861">
        <ele>354.9</ele>
        <time>2018-05-19T13:20:36Z</time>
      </trkpt>
      <trkpt lat="44.09141" lon="3.06867">
        <ele>354.6</ele>
        <time>2018-05-19T13:20:37Z</time>
      </trkpt>
      <trkpt lat="44.09144" lon="3.06875">
        <ele>354.3</ele>
        <time>2018-05-19T13:20:38Z</time>
      </trkpt>
      <trkpt lat="44.09145" lon="3.06883">
        <ele>354.1</ele>
        <time>2018-05-19T13:20:39Z</time>
      </trkpt>
      <trkpt lat="44.09146" lon="3.06889">
        <ele>353.9</ele>
        <time>2018-05-19T13:20:40Z</time>
      </trkpt>
      <trkpt lat="44.09147" lon="3.06896">
        <ele>353.6</ele>
        <time>2018-05-19T13:20:41Z</time>
      </trkpt>
      <trkpt lat="44.09149" lon="3.06905">
        <ele>353.3</ele>
        <time>2018-05-19T13:20:42Z</time>
      </trkpt>
      <trkpt lat="44.0915" lon="3.06911">
        <ele>353</ele>
        <time>2018-05-19T13:20:43Z</time>
      </trkpt>
      <trkpt lat="44.09151" lon="3.06918">
        <ele>352.8</ele>
        <time>2018-05-19T13:20:44Z</time>
      </trkpt>
      <trkpt lat="44.09151" lon="3.06928">
        <ele>352.4</ele>
        <time>2018-05-19T13:20:46Z</time>
      </trkpt>
      <trkpt lat="44.09154" lon="3.06935">
        <ele>352</ele>
        <time>2018-05-19T13:20:47Z</time>
      </trkpt>
      <trkpt lat="44.09155" lon="3.06941">
        <ele>352.2</ele>
        <time>2018-05-19T13:20:48Z</time>
      </trkpt>
      <trkpt lat="44.09157" lon="3.06948">
        <ele>352.5</ele>
        <time>2018-05-19T13:20:49Z</time>
      </trkpt>
      <trkpt lat="44.09159" lon="3.06955">
        <ele>352.7</ele>
        <time>2018-05-19T13:20:50Z</time>
      </trkpt>
      <trkpt lat="44.09161" lon="3.06963">
        <ele>353.1</ele>
        <time>2018-05-19T13:20:51Z</time>
      </trkpt>
      <trkpt lat="44.09164" lon="3.0697">
        <ele>353.4</ele>
        <time>2018-05-19T13:20:52Z</time>
      </trkpt>
      <trkpt lat="44.09166" lon="3.06977">
        <ele>353.7</ele>
        <time>2018-05-19T13:20:53Z</time>
      </trkpt>
      <trkpt lat="44.09169" lon="3.06983">
        <ele>354</ele>
        <time>2018-05-19T13:20:54Z</time>
      </trkpt>
      <trkpt lat="44.09173" lon="3.06992">
        <ele>354.4</ele>
        <time>2018-05-19T13:20:55Z</time>
      </trkpt>
      <trkpt lat="44.09175" lon="3.06997">
        <ele>354.7</ele>
        <time>2018-05-19T13:20:56Z</time>
      </trkpt>
      <trkpt lat="44.09176" lon="3.07003">
        <ele>355</ele>
        <time>2018-05-19T13:20:57Z</time>
      </trkpt>
      <trkpt lat="44.09177" lon="3.07008">
        <ele>355</ele>
        <time>2018-05-19T13:20:58Z</time>
      </trkpt>
      <trkpt lat="44.09179" lon="3.07011">
        <ele>355</ele>
        <time>2018-05-19T13:20:59Z</time>
      </trkpt>
      <trkpt lat="44.09181" lon="3.07013">
        <ele>355</ele>
        <time>2018-05-19T13:21:01Z</time>
      </trkpt>
      <trkpt lat="44.09183" lon="3.07018">
        <ele>355</ele>
        <time>2018-05-19T13:21:03Z</time>
      </trkpt>
      <trkpt lat="44.09182" lon="3.07022">
        <ele>355</ele>
        <time>2018-05-19T13:21:04Z</time>
      </trkpt>
      <trkpt lat="44.09184" lon="3.07024">
        <ele>355</ele>
        <time>2018-05-19T13:21:08Z</time>
      </trkpt>
      <trkpt lat="44.09187" lon="3.07027">
        <ele>355</ele>
        <time>2018-05-19T13:21:13Z</time>
      </trkpt>
      <trkpt lat="44.09189" lon="3.07031">
        <ele>355</ele>
        <time>2018-05-19T13:21:15Z</time>
      </trkpt>
      <trkpt lat="44.09192" lon="3.07037">
        <ele>355</ele>
        <time>2018-05-19T13:21:17Z</time>
      </trkpt>
      <trkpt lat="44.09193" lon="3.0704">
        <ele>355</ele>
        <time>2018-05-19T13:21:18Z</time>
      </trkpt>
      <trkpt lat="44.09196" lon="3.07044">
        <ele>355</ele>
        <time>2018-05-19T13:21:20Z</time>
      </trkpt>
      <trkpt lat="44.09198" lon="3.07048">
        <ele>354.9</ele>
        <time>2018-05-19T13:21:22Z</time>
      </trkpt>
      <trkpt lat="44.09198" lon="3.07053">
        <ele>354.9</ele>
        <time>2018-05-19T13:21:24Z</time>
      </trkpt>
      <trkpt lat="44.09198" lon="3.07059">
        <ele>354.9</ele>
        <time>2018-05-19T13:21:26Z</time>
      </trkpt>
      <trkpt lat="44.09199" lon="3.07063">
        <ele>354.9</ele>
        <time>2018-05-19T13:21:27Z</time>
      </trkpt>
      <trkpt lat="44.092" lon="3.07067">
        <ele>354.9</ele>
        <time>2018-05-19T13:21:28Z</time>
      </trkpt>
      <trkpt lat="44.09203" lon="3.0707">
        <ele>355</ele>
        <time>2018-05-19T13:21:29Z</time>
      </trkpt>
      <trkpt lat="44.09206" lon="3.07073">
        <ele>355</ele>
        <time>2018-05-19T13:21:30Z</time>
      </trkpt>
      <trkpt lat="44.09209" lon="3.07076">
        <ele>355</ele>
        <time>2018-05-19T13:21:31Z</time>
      </trkpt>
      <trkpt lat="44.09211" lon="3.07079">
        <ele>355</ele>
        <time>2018-05-19T13:21:32Z</time>
      </trkpt>
      <trkpt lat="44.09214" lon="3.07083">
        <ele>355</ele>
        <time>2018-05-19T13:21:33Z</time>
      </trkpt>
      <trkpt lat="44.09216" lon="3.07086">
        <ele>355</ele>
        <time>2018-05-19T13:21:34Z</time>
      </trkpt>
      <trkpt lat="44.09218" lon="3.0709">
        <ele>355.1</ele>
        <time>2018-05-19T13:21:35Z</time>
      </trkpt>
      <trkpt lat="44.09221" lon="3.07093">
        <ele>355.2</ele>
        <time>2018-05-19T13:21:36Z</time>
      </trkpt>
      <trkpt lat="44.09224" lon="3.07097">
        <ele>355.3</ele>
        <time>2018-05-19T13:21:37Z</time>
      </trkpt>
      <trkpt lat="44.09227" lon="3.07101">
        <ele>355.4</ele>
        <time>2018-05-19T13:21:38Z</time>
      </trkpt>
      <trkpt lat="44.09229" lon="3.07104">
        <ele>355.5</ele>
        <time>2018-05-19T13:21:39Z</time>
      </trkpt>
      <trkpt lat="44.09231" lon="3.07107">
        <ele>355.5</ele>
        <time>2018-05-19T13:21:40Z</time>
      </trkpt>
      <trkpt lat="44.09234" lon="3.07109">
        <ele>355.6</ele>
        <time>2018-05-19T13:21:41Z</time>
      </trkpt>
      <trkpt lat="44.09236" lon="3.07112">
        <ele>355.7</ele>
        <time>2018-05-19T13:21:42Z</time>
      </trkpt>
      <trkpt lat="44.09238" lon="3.07115">
        <ele>355.8</ele>
        <time>2018-05-19T13:21:43Z</time>
      </trkpt>
      <trkpt lat="44.0924" lon="3.07119">
        <ele>355.9</ele>
        <time>2018-05-19T13:21:44Z</time>
      </trkpt>
      <trkpt lat="44.09242" lon="3.07122">
        <ele>356</ele>
        <time>2018-05-19T13:21:45Z</time>
      </trkpt>
      <trkpt lat="44.09244" lon="3.07126">
        <ele>356.1</ele>
        <time>2018-05-19T13:21:46Z</time>
      </trkpt>
      <trkpt lat="44.09247" lon="3.0713">
        <ele>356.2</ele>
        <time>2018-05-19T13:21:47Z</time>
      </trkpt>
      <trkpt lat="44.09249" lon="3.07134">
        <ele>356.3</ele>
        <time>2018-05-19T13:21:49Z</time>
      </trkpt>
      <trkpt lat="44.09252" lon="3.07139">
        <ele>356.4</ele>
        <time>2018-05-19T13:21:51Z</time>
      </trkpt>
      <trkpt lat="44.09254" lon="3.07142">
        <ele>356.5</ele>
        <time>2018-05-19T13:21:52Z</time>
      </trkpt>
      <trkpt lat="44.09256" lon="3.07146">
        <ele>356.7</ele>
        <time>2018-05-19T13:21:53Z</time>
      </trkpt>
      <trkpt lat="44.09258" lon="3.0715">
        <ele>356.8</ele>
        <time>2018-05-19T13:21:54Z</time>
      </trkpt>
      <trkpt lat="44.0926" lon="3.07154">
        <ele>356.9</ele>
        <time>2018-05-19T13:21:55Z</time>
      </trkpt>
      <trkpt lat="44.09262" lon="3.07158">
        <ele>357</ele>
        <time>2018-05-19T13:21:56Z</time>
      </trkpt>
      <trkpt lat="44.09265" lon="3.07162">
        <ele>357</ele>
        <time>2018-05-19T13:21:57Z</time>
      </trkpt>
      <trkpt lat="44.09267" lon="3.07167">
        <ele>357</ele>
        <time>2018-05-19T13:21:59Z</time>
      </trkpt>
      <trkpt lat="44.09269" lon="3.07174">
        <ele>357</ele>
        <time>2018-05-19T13:22:01Z</time>
      </trkpt>
      <trkpt lat="44.0927" lon="3.07178">
        <ele>357</ele>
        <time>2018-05-19T13:22:02Z</time>
      </trkpt>
      <trkpt lat="44.09272" lon="3.07183">
        <ele>357</ele>
        <time>2018-05-19T13:22:03Z</time>
      </trkpt>
      <trkpt lat="44.09273" lon="3.07187">
        <ele>357</ele>
        <time>2018-05-19T13:22:04Z</time>
      </trkpt>
      <trkpt lat="44.09274" lon="3.07191">
        <ele>357</ele>
        <time>2018-05-19T13:22:05Z</time>
      </trkpt>
      <trkpt lat="44.09276" lon="3.07196">
        <ele>357</ele>
        <time>2018-05-19T13:22:06Z</time>
      </trkpt>
      <trkpt lat="44.09277" lon="3.072">
        <ele>357</ele>
        <time>2018-05-19T13:22:07Z</time>
      </trkpt>
      <trkpt lat="44.09278" lon="3.07205">
        <ele>357</ele>
        <time>2018-05-19T13:22:08Z</time>
      </trkpt>
      <trkpt lat="44.09278" lon="3.07209">
        <ele>357</ele>
        <time>2018-05-19T13:22:09Z</time>
      </trkpt>
      <trkpt lat="44.09279" lon="3.07214">
        <ele>356.9</ele>
        <time>2018-05-19T13:22:10Z</time>
      </trkpt>
      <trkpt lat="44.0928" lon="3.07218">
        <ele>356.9</ele>
        <time>2018-05-19T13:22:11Z</time>
      </trkpt>
      <trkpt lat="44.09281" lon="3.07223">
        <ele>356.9</ele>
        <time>2018-05-19T13:22:12Z</time>
      </trkpt>
      <trkpt lat="44.09282" lon="3.07228">
        <ele>356.8</ele>
        <time>2018-05-19T13:22:13Z</time>
      </trkpt>
      <trkpt lat="44.09283" lon="3.07232">
        <ele>356.8</ele>
        <time>2018-05-19T13:22:14Z</time>
      </trkpt>
      <trkpt lat="44.09285" lon="3.07236">
        <ele>356.7</ele>
        <time>2018-05-19T13:22:15Z</time>
      </trkpt>
      <trkpt lat="44.09287" lon="3.07239">
        <ele>356.7</ele>
        <time>2018-05-19T13:22:16Z</time>
      </trkpt>
      <trkpt lat="44.09289" lon="3.07243">
        <ele>356.6</ele>
        <time>2018-05-19T13:22:17Z</time>
      </trkpt>
      <trkpt lat="44.09291" lon="3.07246">
        <ele>356.5</ele>
        <time>2018-05-19T13:22:18Z</time>
      </trkpt>
      <trkpt lat="44.09293" lon="3.07249">
        <ele>356.5</ele>
        <time>2018-05-19T13:22:19Z</time>
      </trkpt>
      <trkpt lat="44.09294" lon="3.07253">
        <ele>356.4</ele>
        <time>2018-05-19T13:22:20Z</time>
      </trkpt>
      <trkpt lat="44.09296" lon="3.07256">
        <ele>356.4</ele>
        <time>2018-05-19T13:22:21Z</time>
      </trkpt>
      <trkpt lat="44.09299" lon="3.07262">
        <ele>356.3</ele>
        <time>2018-05-19T13:22:23Z</time>
      </trkpt>
      <trkpt lat="44.093" lon="3.07265">
        <ele>356</ele>
        <time>2018-05-19T13:22:24Z</time>
      </trkpt>
      <trkpt lat="44.09302" lon="3.07269">
        <ele>356</ele>
        <time>2018-05-19T13:22:25Z</time>
      </trkpt>
      <trkpt lat="44.09303" lon="3.07272">
        <ele>356</ele>
        <time>2018-05-19T13:22:26Z</time>
      </trkpt>
      <trkpt lat="44.09304" lon="3.07276">
        <ele>356</ele>
        <time>2018-05-19T13:22:27Z</time>
      </trkpt>
      <trkpt lat="44.09306" lon="3.07279">
        <ele>356</ele>
        <time>2018-05-19T13:22:28Z</time>
      </trkpt>
      <trkpt lat="44.09307" lon="3.07282">
        <ele>355.9</ele>
        <time>2018-05-19T13:22:29Z</time>
      </trkpt>
      <trkpt lat="44.09309" lon="3.07286">
        <ele>355.9</ele>
        <time>2018-05-19T13:22:30Z</time>
      </trkpt>
      <trkpt lat="44.0931" lon="3.07289">
        <ele>355.9</ele>
        <time>2018-05-19T13:22:31Z</time>
      </trkpt>
      <trkpt lat="44.09312" lon="3.07292">
        <ele>355.9</ele>
        <time>2018-05-19T13:22:32Z</time>
      </trkpt>
      <trkpt lat="44.09313" lon="3.07296">
        <ele>355.8</ele>
        <time>2018-05-19T13:22:33Z</time>
      </trkpt>
      <trkpt lat="44.09314" lon="3.073">
        <ele>355.8</ele>
        <time>2018-05-19T13:22:34Z</time>
      </trkpt>
      <trkpt lat="44.09316" lon="3.07303">
        <ele>355.8</ele>
        <time>2018-05-19T13:22:35Z</time>
      </trkpt>
      <trkpt lat="44.09317" lon="3.07307">
        <ele>355.8</ele>
        <time>2018-05-19T13:22:36Z</time>
      </trkpt>
      <trkpt lat="44.09319" lon="3.07313">
        <ele>355.9</ele>
        <time>2018-05-19T13:22:38Z</time>
      </trkpt>
      <trkpt lat="44.09321" lon="3.07317">
        <ele>355.9</ele>
        <time>2018-05-19T13:22:40Z</time>
      </trkpt>
      <trkpt lat="44.09323" lon="3.07323">
        <ele>356</ele>
        <time>2018-05-19T13:22:42Z</time>
      </trkpt>
      <trkpt lat="44.09324" lon="3.07327">
        <ele>356.1</ele>
        <time>2018-05-19T13:22:45Z</time>
      </trkpt>
      <trkpt lat="44.09325" lon="3.07331">
        <ele>356.1</ele>
        <time>2018-05-19T13:22:52Z</time>
      </trkpt>
      <trkpt lat="44.09328" lon="3.07336">
        <ele>356.2</ele>
        <time>2018-05-19T13:23:58Z</time>
      </trkpt>
      <trkpt lat="44.09329" lon="3.07339">
        <ele>356.2</ele>
        <time>2018-05-19T13:24:00Z</time>
      </trkpt>
      <trkpt lat="44.09331" lon="3.07343">
        <ele>356.2</ele>
        <time>2018-05-19T13:24:02Z</time>
      </trkpt>
      <trkpt lat="44.09333" lon="3.07348">
        <ele>356.2</ele>
        <time>2018-05-19T13:24:05Z</time>
      </trkpt>
      <trkpt lat="44.09335" lon="3.07351">
        <ele>356.2</ele>
        <time>2018-05-19T13:24:07Z</time>
      </trkpt>
      <trkpt lat="44.09337" lon="3.07355">
        <ele>356.2</ele>
        <time>2018-05-19T13:24:09Z</time>
      </trkpt>
      <trkpt lat="44.09339" lon="3.07359">
        <ele>356.2</ele>
        <time>2018-05-19T13:24:11Z</time>
      </trkpt>
      <trkpt lat="44.0934" lon="3.07365">
        <ele>356.3</ele>
        <time>2018-05-19T13:24:13Z</time>
      </trkpt>
      <trkpt lat="44.09342" lon="3.0737">
        <ele>356.3</ele>
        <time>2018-05-19T13:24:15Z</time>
      </trkpt>
      <trkpt lat="44.09344" lon="3.07377">
        <ele>356.3</ele>
        <time>2018-05-19T13:24:17Z</time>
      </trkpt>
      <trkpt lat="44.09346" lon="3.07384">
        <ele>356.3</ele>
        <time>2018-05-19T13:24:19Z</time>
      </trkpt>
      <trkpt lat="44.09347" lon="3.07388">
        <ele>356.2</ele>
        <time>2018-05-19T13:24:20Z</time>
      </trkpt>
      <trkpt lat="44.09348" lon="3.07394">
        <ele>356.2</ele>
        <time>2018-05-19T13:24:22Z</time>
      </trkpt>
      <trkpt lat="44.09349" lon="3.074">
        <ele>356</ele>
        <time>2018-05-19T13:24:24Z</time>
      </trkpt>
      <trkpt lat="44.09348" lon="3.07404">
        <ele>355.9</ele>
        <time>2018-05-19T13:24:25Z</time>
      </trkpt>
      <trkpt lat="44.09347" lon="3.07408">
        <ele>355.7</ele>
        <time>2018-05-19T13:24:26Z</time>
      </trkpt>
      <trkpt lat="44.09345" lon="3.07413">
        <ele>355.4</ele>
        <time>2018-05-19T13:24:27Z</time>
      </trkpt>
      <trkpt lat="44.09342" lon="3.07418">
        <ele>355</ele>
        <time>2018-05-19T13:24:28Z</time>
      </trkpt>
      <trkpt lat="44.09338" lon="3.07423">
        <ele>354.5</ele>
        <time>2018-05-19T13:24:29Z</time>
      </trkpt>
      <trkpt lat="44.09335" lon="3.07428">
        <ele>354.1</ele>
        <time>2018-05-19T13:24:30Z</time>
      </trkpt>
    </trkseg>
  </trk>
</gpx>